<?xml version="1.0" encoding="UTF-8" standalone="no" ?>
<gpx xmlns="http://www.topografix.com/GPX/1/1" xmlns:xsi="http://www.w3.org/2001/XMLSchema-instance" xsi:schemaLocation="http://www.topografix.com/GPX/1/1 http://www.topografix.com/GPX/1/1/gpx.xsd" version="1.1" creator="VisuGPX - https://www.visugpx.com">
  <metadata>
    <name>Trail de Haute Provence 2021 - Ultra de Provence sur TraceDeTrail.fr</name>
    <desc><![CDATA[  ]]></desc>
  </metadata>
  <trk>
    <name><![CDATA[Trail de Haute Provence 2021 - Ultra de Provence sur TraceDeTrail.fr]]></name>
    <trkseg>
      <trkpt lat="43.95974" lon="5.78052">
        <ele>549</ele>
        <time>2000-01-01T01:08:08.000Z</time>
      </trkpt>
      <trkpt lat="43.96012" lon="5.78015">
        <ele>545</ele>
        <time>2000-01-01T01:08:18.000Z</time>
      </trkpt>
      <trkpt lat="43.96024" lon="5.77999">
        <ele>545.2</ele>
        <time>2000-01-01T01:08:28.000Z</time>
      </trkpt>
      <trkpt lat="43.96047" lon="5.77972">
        <ele>545</ele>
        <time>2000-01-01T01:08:38.000Z</time>
      </trkpt>
      <trkpt lat="43.96068" lon="5.77944">
        <ele>545</ele>
        <time>2000-01-01T01:08:48.000Z</time>
      </trkpt>
      <trkpt lat="43.96095" lon="5.77891">
        <ele>549</ele>
        <time>2000-01-01T01:08:58.000Z</time>
      </trkpt>
      <trkpt lat="43.96113" lon="5.77836">
        <ele>553</ele>
        <time>2000-01-01T01:09:08.000Z</time>
      </trkpt>
      <trkpt lat="43.9613" lon="5.77796">
        <ele>554</ele>
        <time>2000-01-01T01:09:18.000Z</time>
      </trkpt>
      <trkpt lat="43.96148" lon="5.77749">
        <ele>559</ele>
        <time>2000-01-01T01:09:28.000Z</time>
      </trkpt>
      <trkpt lat="43.96161" lon="5.77711">
        <ele>563</ele>
        <time>2000-01-01T01:09:38.000Z</time>
      </trkpt>
      <trkpt lat="43.96171" lon="5.7768">
        <ele>565</ele>
        <time>2000-01-01T01:09:48.000Z</time>
      </trkpt>
      <trkpt lat="43.96182" lon="5.77648">
        <ele>568</ele>
        <time>2000-01-01T01:09:58.000Z</time>
      </trkpt>
      <trkpt lat="43.96182" lon="5.77617">
        <ele>571</ele>
        <time>2000-01-01T01:10:08.000Z</time>
      </trkpt>
      <trkpt lat="43.96172" lon="5.77595">
        <ele>572.3</ele>
        <time>2000-01-01T01:10:18.000Z</time>
      </trkpt>
      <trkpt lat="43.96152" lon="5.77524">
        <ele>576</ele>
        <time>2000-01-01T01:10:28.000Z</time>
      </trkpt>
      <trkpt lat="43.96146" lon="5.77487">
        <ele>578</ele>
        <time>2000-01-01T01:10:38.000Z</time>
      </trkpt>
      <trkpt lat="43.96138" lon="5.7744">
        <ele>580</ele>
        <time>2000-01-01T01:10:48.000Z</time>
      </trkpt>
      <trkpt lat="43.96132" lon="5.77411">
        <ele>581</ele>
        <time>2000-01-01T01:10:58.000Z</time>
      </trkpt>
      <trkpt lat="43.96125" lon="5.77371">
        <ele>583</ele>
        <time>2000-01-01T01:11:08.000Z</time>
      </trkpt>
      <trkpt lat="43.96115" lon="5.77309">
        <ele>583</ele>
        <time>2000-01-01T01:11:18.000Z</time>
      </trkpt>
      <trkpt lat="43.96122" lon="5.77284">
        <ele>585.7</ele>
        <time>2000-01-01T01:11:28.000Z</time>
      </trkpt>
      <trkpt lat="43.96111" lon="5.77268">
        <ele>583</ele>
        <time>2000-01-01T01:11:38.000Z</time>
      </trkpt>
      <trkpt lat="43.96089" lon="5.77254">
        <ele>581</ele>
        <time>2000-01-01T01:11:48.000Z</time>
      </trkpt>
      <trkpt lat="43.96071" lon="5.77238">
        <ele>580</ele>
        <time>2000-01-01T01:11:58.000Z</time>
      </trkpt>
      <trkpt lat="43.9605" lon="5.77243">
        <ele>578</ele>
        <time>2000-01-01T01:12:08.000Z</time>
      </trkpt>
      <trkpt lat="43.96025" lon="5.7725">
        <ele>571</ele>
        <time>2000-01-01T01:12:18.000Z</time>
      </trkpt>
      <trkpt lat="43.96" lon="5.77259">
        <ele>567</ele>
        <time>2000-01-01T01:12:28.000Z</time>
      </trkpt>
      <trkpt lat="43.95968" lon="5.77274">
        <ele>565</ele>
        <time>2000-01-01T01:12:38.000Z</time>
      </trkpt>
      <trkpt lat="43.95948" lon="5.77288">
        <ele>564</ele>
        <time>2000-01-01T01:12:48.000Z</time>
      </trkpt>
      <trkpt lat="43.95923" lon="5.77301">
        <ele>563</ele>
        <time>2000-01-01T01:12:58.000Z</time>
      </trkpt>
      <trkpt lat="43.95898" lon="5.77306">
        <ele>558</ele>
        <time>2000-01-01T01:13:08.000Z</time>
      </trkpt>
      <trkpt lat="43.95873" lon="5.77311">
        <ele>553</ele>
        <time>2000-01-01T01:13:18.000Z</time>
      </trkpt>
      <trkpt lat="43.95843" lon="5.77309">
        <ele>543</ele>
        <time>2000-01-01T01:13:28.000Z</time>
      </trkpt>
      <trkpt lat="43.95819" lon="5.77316">
        <ele>545</ele>
        <time>2000-01-01T01:13:38.000Z</time>
      </trkpt>
      <trkpt lat="43.95795" lon="5.77324">
        <ele>543</ele>
        <time>2000-01-01T01:13:48.000Z</time>
      </trkpt>
      <trkpt lat="43.95748" lon="5.77326">
        <ele>541</ele>
        <time>2000-01-01T01:13:58.000Z</time>
      </trkpt>
      <trkpt lat="43.95729" lon="5.77328">
        <ele>538.4</ele>
        <time>2000-01-01T01:14:08.000Z</time>
      </trkpt>
      <trkpt lat="43.95718" lon="5.77335">
        <ele>536</ele>
        <time>2000-01-01T01:14:18.000Z</time>
      </trkpt>
      <trkpt lat="43.95713" lon="5.77337">
        <ele>538.8</ele>
        <time>2000-01-01T01:14:28.000Z</time>
      </trkpt>
      <trkpt lat="43.95703" lon="5.77337">
        <ele>537.8</ele>
        <time>2000-01-01T01:14:38.000Z</time>
      </trkpt>
      <trkpt lat="43.95699" lon="5.77334">
        <ele>535</ele>
        <time>2000-01-01T01:14:48.000Z</time>
      </trkpt>
      <trkpt lat="43.95699" lon="5.77331">
        <ele>536.3</ele>
        <time>2000-01-01T01:14:58.000Z</time>
      </trkpt>
      <trkpt lat="43.95702" lon="5.77327">
        <ele>534.6</ele>
        <time>2000-01-01T01:15:08.000Z</time>
      </trkpt>
      <trkpt lat="43.95715" lon="5.77323">
        <ele>531</ele>
        <time>2000-01-01T01:15:18.000Z</time>
      </trkpt>
      <trkpt lat="43.95721" lon="5.77322">
        <ele>534.9</ele>
        <time>2000-01-01T01:15:28.000Z</time>
      </trkpt>
      <trkpt lat="43.95724" lon="5.77319">
        <ele>534</ele>
        <time>2000-01-01T01:15:38.000Z</time>
      </trkpt>
      <trkpt lat="43.95726" lon="5.77315">
        <ele>532.5</ele>
        <time>2000-01-01T01:15:48.000Z</time>
      </trkpt>
      <trkpt lat="43.9573" lon="5.77312">
        <ele>531.6</ele>
        <time>2000-01-01T01:15:58.000Z</time>
      </trkpt>
      <trkpt lat="43.95745" lon="5.77304">
        <ele>526</ele>
        <time>2000-01-01T01:16:08.000Z</time>
      </trkpt>
      <trkpt lat="43.95744" lon="5.77304">
        <ele>529.7</ele>
        <time>2000-01-01T01:16:18.000Z</time>
      </trkpt>
      <trkpt lat="43.95742" lon="5.77302">
        <ele>528.6</ele>
        <time>2000-01-01T01:16:28.000Z</time>
      </trkpt>
      <trkpt lat="43.95741" lon="5.77302">
        <ele>528.5</ele>
        <time>2000-01-01T01:16:38.000Z</time>
      </trkpt>
      <trkpt lat="43.95736" lon="5.77296">
        <ele>525.4</ele>
        <time>2000-01-01T01:16:48.000Z</time>
      </trkpt>
      <trkpt lat="43.95744" lon="5.77287">
        <ele>519</ele>
        <time>2000-01-01T01:16:58.000Z</time>
      </trkpt>
      <trkpt lat="43.95761" lon="5.77278">
        <ele>520.3</ele>
        <time>2000-01-01T01:17:08.000Z</time>
      </trkpt>
      <trkpt lat="43.95769" lon="5.77272">
        <ele>514</ele>
        <time>2000-01-01T01:17:18.000Z</time>
      </trkpt>
      <trkpt lat="43.95778" lon="5.77267">
        <ele>517.4</ele>
        <time>2000-01-01T01:17:28.000Z</time>
      </trkpt>
      <trkpt lat="43.95787" lon="5.77261">
        <ele>513</ele>
        <time>2000-01-01T01:17:38.000Z</time>
      </trkpt>
      <trkpt lat="43.95799" lon="5.77252">
        <ele>514.6</ele>
        <time>2000-01-01T01:17:48.000Z</time>
      </trkpt>
      <trkpt lat="43.95807" lon="5.77242">
        <ele>509</ele>
        <time>2000-01-01T01:17:58.000Z</time>
      </trkpt>
      <trkpt lat="43.95816" lon="5.77233">
        <ele>510</ele>
        <time>2000-01-01T01:18:08.000Z</time>
      </trkpt>
      <trkpt lat="43.95821" lon="5.7723">
        <ele>509.7</ele>
        <time>2000-01-01T01:18:18.000Z</time>
      </trkpt>
      <trkpt lat="43.95829" lon="5.77222">
        <ele>507</ele>
        <time>2000-01-01T01:18:28.000Z</time>
      </trkpt>
      <trkpt lat="43.95834" lon="5.77218">
        <ele>507.9</ele>
        <time>2000-01-01T01:18:38.000Z</time>
      </trkpt>
      <trkpt lat="43.9584" lon="5.77214">
        <ele>507.8</ele>
        <time>2000-01-01T01:18:48.000Z</time>
      </trkpt>
      <trkpt lat="43.95845" lon="5.77212">
        <ele>508.2</ele>
        <time>2000-01-01T01:18:58.000Z</time>
      </trkpt>
      <trkpt lat="43.95849" lon="5.77209">
        <ele>502</ele>
        <time>2000-01-01T01:19:08.000Z</time>
      </trkpt>
      <trkpt lat="43.95853" lon="5.77207">
        <ele>508.2</ele>
        <time>2000-01-01T01:19:18.000Z</time>
      </trkpt>
      <trkpt lat="43.95861" lon="5.77199">
        <ele>507.3</ele>
        <time>2000-01-01T01:19:28.000Z</time>
      </trkpt>
      <trkpt lat="43.95867" lon="5.7719">
        <ele>502</ele>
        <time>2000-01-01T01:19:38.000Z</time>
      </trkpt>
      <trkpt lat="43.9587" lon="5.77184">
        <ele>506.4</ele>
        <time>2000-01-01T01:19:48.000Z</time>
      </trkpt>
      <trkpt lat="43.95874" lon="5.77178">
        <ele>506.4</ele>
        <time>2000-01-01T01:19:58.000Z</time>
      </trkpt>
      <trkpt lat="43.9588" lon="5.77166">
        <ele>502</ele>
        <time>2000-01-01T01:20:08.000Z</time>
      </trkpt>
      <trkpt lat="43.95887" lon="5.77155">
        <ele>505.5</ele>
        <time>2000-01-01T01:20:18.000Z</time>
      </trkpt>
      <trkpt lat="43.95893" lon="5.77144">
        <ele>502</ele>
        <time>2000-01-01T01:20:28.000Z</time>
      </trkpt>
      <trkpt lat="43.95906" lon="5.77113">
        <ele>500</ele>
        <time>2000-01-01T01:20:38.000Z</time>
      </trkpt>
      <trkpt lat="43.95908" lon="5.7711">
        <ele>503</ele>
        <time>2000-01-01T01:20:48.000Z</time>
      </trkpt>
      <trkpt lat="43.95913" lon="5.77099">
        <ele>502.8</ele>
        <time>2000-01-01T01:20:58.000Z</time>
      </trkpt>
      <trkpt lat="43.95915" lon="5.77091">
        <ele>502</ele>
        <time>2000-01-01T01:21:08.000Z</time>
      </trkpt>
      <trkpt lat="43.95916" lon="5.77081">
        <ele>501</ele>
        <time>2000-01-01T01:21:18.000Z</time>
      </trkpt>
      <trkpt lat="43.95916" lon="5.77072">
        <ele>501.8</ele>
        <time>2000-01-01T01:21:28.000Z</time>
      </trkpt>
      <trkpt lat="43.95915" lon="5.77067">
        <ele>502.2</ele>
        <time>2000-01-01T01:21:38.000Z</time>
      </trkpt>
      <trkpt lat="43.95905" lon="5.77058">
        <ele>503</ele>
        <time>2000-01-01T01:21:48.000Z</time>
      </trkpt>
      <trkpt lat="43.95894" lon="5.77051">
        <ele>503.7</ele>
        <time>2000-01-01T01:21:58.000Z</time>
      </trkpt>
      <trkpt lat="43.9587" lon="5.7704">
        <ele>506</ele>
        <time>2000-01-01T01:22:08.000Z</time>
      </trkpt>
      <trkpt lat="43.95866" lon="5.77037">
        <ele>506.1</ele>
        <time>2000-01-01T01:22:18.000Z</time>
      </trkpt>
      <trkpt lat="43.95857" lon="5.77032">
        <ele>507.1</ele>
        <time>2000-01-01T01:22:28.000Z</time>
      </trkpt>
      <trkpt lat="43.95854" lon="5.77031">
        <ele>507.7</ele>
        <time>2000-01-01T01:22:38.000Z</time>
      </trkpt>
      <trkpt lat="43.95848" lon="5.77031">
        <ele>510</ele>
        <time>2000-01-01T01:22:48.000Z</time>
      </trkpt>
      <trkpt lat="43.95847" lon="5.77032">
        <ele>508.6</ele>
        <time>2000-01-01T01:22:58.000Z</time>
      </trkpt>
      <trkpt lat="43.95842" lon="5.77032">
        <ele>509.3</ele>
        <time>2000-01-01T01:23:08.000Z</time>
      </trkpt>
      <trkpt lat="43.95838" lon="5.77031">
        <ele>510</ele>
        <time>2000-01-01T01:23:18.000Z</time>
      </trkpt>
      <trkpt lat="43.95834" lon="5.77027">
        <ele>511.1</ele>
        <time>2000-01-01T01:23:28.000Z</time>
      </trkpt>
      <trkpt lat="43.95832" lon="5.77024">
        <ele>512.4</ele>
        <time>2000-01-01T01:23:38.000Z</time>
      </trkpt>
      <trkpt lat="43.95832" lon="5.77017">
        <ele>515</ele>
        <time>2000-01-01T01:23:48.000Z</time>
      </trkpt>
      <trkpt lat="43.95837" lon="5.76998">
        <ele>517.8</ele>
        <time>2000-01-01T01:23:58.000Z</time>
      </trkpt>
      <trkpt lat="43.95845" lon="5.76981">
        <ele>520</ele>
        <time>2000-01-01T01:24:08.000Z</time>
      </trkpt>
      <trkpt lat="43.95849" lon="5.76969">
        <ele>521.6</ele>
        <time>2000-01-01T01:24:18.000Z</time>
      </trkpt>
      <trkpt lat="43.95855" lon="5.76957">
        <ele>522</ele>
        <time>2000-01-01T01:24:28.000Z</time>
      </trkpt>
      <trkpt lat="43.95867" lon="5.76937">
        <ele>523.1</ele>
        <time>2000-01-01T01:24:38.000Z</time>
      </trkpt>
      <trkpt lat="43.95877" lon="5.76895">
        <ele>529</ele>
        <time>2000-01-01T01:24:48.000Z</time>
      </trkpt>
      <trkpt lat="43.95881" lon="5.76873">
        <ele>529.5</ele>
        <time>2000-01-01T01:24:58.000Z</time>
      </trkpt>
      <trkpt lat="43.95882" lon="5.76865">
        <ele>530</ele>
        <time>2000-01-01T01:25:08.000Z</time>
      </trkpt>
      <trkpt lat="43.95878" lon="5.76869">
        <ele>530.5</ele>
        <time>2000-01-01T01:25:18.000Z</time>
      </trkpt>
      <trkpt lat="43.95874" lon="5.76866">
        <ele>531.5</ele>
        <time>2000-01-01T01:25:28.000Z</time>
      </trkpt>
      <trkpt lat="43.95875" lon="5.76861">
        <ele>532</ele>
        <time>2000-01-01T01:25:38.000Z</time>
      </trkpt>
      <trkpt lat="43.95872" lon="5.76855">
        <ele>533.2</ele>
        <time>2000-01-01T01:25:48.000Z</time>
      </trkpt>
      <trkpt lat="43.95863" lon="5.76855">
        <ele>535</ele>
        <time>2000-01-01T01:25:58.000Z</time>
      </trkpt>
      <trkpt lat="43.95862" lon="5.7685">
        <ele>535.1</ele>
        <time>2000-01-01T01:26:08.000Z</time>
      </trkpt>
      <trkpt lat="43.95862" lon="5.76837">
        <ele>536.5</ele>
        <time>2000-01-01T01:26:18.000Z</time>
      </trkpt>
      <trkpt lat="43.95856" lon="5.76838">
        <ele>537.4</ele>
        <time>2000-01-01T01:26:28.000Z</time>
      </trkpt>
      <trkpt lat="43.95852" lon="5.76836">
        <ele>538</ele>
        <time>2000-01-01T01:26:38.000Z</time>
      </trkpt>
      <trkpt lat="43.95852" lon="5.76824">
        <ele>540</ele>
        <time>2000-01-01T01:26:48.000Z</time>
      </trkpt>
      <trkpt lat="43.95847" lon="5.76819">
        <ele>541.6</ele>
        <time>2000-01-01T01:26:58.000Z</time>
      </trkpt>
      <trkpt lat="43.95849" lon="5.7681">
        <ele>545</ele>
        <time>2000-01-01T01:27:08.000Z</time>
      </trkpt>
      <trkpt lat="43.9585" lon="5.76796">
        <ele>544.2</ele>
        <time>2000-01-01T01:27:18.000Z</time>
      </trkpt>
      <trkpt lat="43.95844" lon="5.76794">
        <ele>545.6</ele>
        <time>2000-01-01T01:27:28.000Z</time>
      </trkpt>
      <trkpt lat="43.95846" lon="5.76775">
        <ele>549</ele>
        <time>2000-01-01T01:27:38.000Z</time>
      </trkpt>
      <trkpt lat="43.9585" lon="5.76767">
        <ele>548</ele>
        <time>2000-01-01T01:27:48.000Z</time>
      </trkpt>
      <trkpt lat="43.95852" lon="5.76761">
        <ele>548.4</ele>
        <time>2000-01-01T01:27:58.000Z</time>
      </trkpt>
      <trkpt lat="43.95852" lon="5.76744">
        <ele>550</ele>
        <time>2000-01-01T01:28:08.000Z</time>
      </trkpt>
      <trkpt lat="43.95859" lon="5.76727">
        <ele>551</ele>
        <time>2000-01-01T01:28:18.000Z</time>
      </trkpt>
      <trkpt lat="43.95846" lon="5.7671">
        <ele>560</ele>
        <time>2000-01-01T01:28:28.000Z</time>
      </trkpt>
      <trkpt lat="43.95847" lon="5.76697">
        <ele>558.6</ele>
        <time>2000-01-01T01:28:38.000Z</time>
      </trkpt>
      <trkpt lat="43.95855" lon="5.76671">
        <ele>563</ele>
        <time>2000-01-01T01:28:48.000Z</time>
      </trkpt>
      <trkpt lat="43.95855" lon="5.76653">
        <ele>564.9</ele>
        <time>2000-01-01T01:28:58.000Z</time>
      </trkpt>
      <trkpt lat="43.95865" lon="5.76622">
        <ele>569</ele>
        <time>2000-01-01T01:29:08.000Z</time>
      </trkpt>
      <trkpt lat="43.95866" lon="5.76602">
        <ele>571.1</ele>
        <time>2000-01-01T01:29:18.000Z</time>
      </trkpt>
      <trkpt lat="43.95874" lon="5.76509">
        <ele>583</ele>
        <time>2000-01-01T01:29:28.000Z</time>
      </trkpt>
      <trkpt lat="43.95854" lon="5.76501">
        <ele>591</ele>
        <time>2000-01-01T01:29:38.000Z</time>
      </trkpt>
      <trkpt lat="43.95844" lon="5.76505">
        <ele>592.7</ele>
        <time>2000-01-01T01:29:48.000Z</time>
      </trkpt>
      <trkpt lat="43.95836" lon="5.76503">
        <ele>595.8</ele>
        <time>2000-01-01T01:29:58.000Z</time>
      </trkpt>
      <trkpt lat="43.9583" lon="5.76497">
        <ele>594</ele>
        <time>2000-01-01T01:30:08.000Z</time>
      </trkpt>
      <trkpt lat="43.95825" lon="5.7648">
        <ele>598</ele>
        <time>2000-01-01T01:30:18.000Z</time>
      </trkpt>
      <trkpt lat="43.95825" lon="5.76463">
        <ele>593</ele>
        <time>2000-01-01T01:30:28.000Z</time>
      </trkpt>
      <trkpt lat="43.95839" lon="5.76442">
        <ele>592</ele>
        <time>2000-01-01T01:30:38.000Z</time>
      </trkpt>
      <trkpt lat="43.95849" lon="5.76436">
        <ele>590.3</ele>
        <time>2000-01-01T01:30:48.000Z</time>
      </trkpt>
      <trkpt lat="43.95851" lon="5.76347">
        <ele>585</ele>
        <time>2000-01-01T01:30:58.000Z</time>
      </trkpt>
      <trkpt lat="43.95855" lon="5.76313">
        <ele>585</ele>
        <time>2000-01-01T01:31:08.000Z</time>
      </trkpt>
      <trkpt lat="43.95863" lon="5.76294">
        <ele>586.9</ele>
        <time>2000-01-01T01:31:18.000Z</time>
      </trkpt>
      <trkpt lat="43.95877" lon="5.76268">
        <ele>586</ele>
        <time>2000-01-01T01:31:28.000Z</time>
      </trkpt>
      <trkpt lat="43.95884" lon="5.76247">
        <ele>589.1</ele>
        <time>2000-01-01T01:31:38.000Z</time>
      </trkpt>
      <trkpt lat="43.95896" lon="5.76221">
        <ele>590</ele>
        <time>2000-01-01T01:31:48.000Z</time>
      </trkpt>
      <trkpt lat="43.95912" lon="5.7618">
        <ele>594</ele>
        <time>2000-01-01T01:31:58.000Z</time>
      </trkpt>
      <trkpt lat="43.95914" lon="5.76144">
        <ele>596</ele>
        <time>2000-01-01T01:32:08.000Z</time>
      </trkpt>
      <trkpt lat="43.95916" lon="5.76102">
        <ele>601</ele>
        <time>2000-01-01T01:32:18.000Z</time>
      </trkpt>
      <trkpt lat="43.95921" lon="5.7608">
        <ele>603.8</ele>
        <time>2000-01-01T01:32:28.000Z</time>
      </trkpt>
      <trkpt lat="43.95926" lon="5.76062">
        <ele>604</ele>
        <time>2000-01-01T01:32:38.000Z</time>
      </trkpt>
      <trkpt lat="43.95933" lon="5.76052">
        <ele>607.6</ele>
        <time>2000-01-01T01:32:48.000Z</time>
      </trkpt>
      <trkpt lat="43.95937" lon="5.7604">
        <ele>604</ele>
        <time>2000-01-01T01:32:58.000Z</time>
      </trkpt>
      <trkpt lat="43.95936" lon="5.75996">
        <ele>604</ele>
        <time>2000-01-01T01:33:08.000Z</time>
      </trkpt>
      <trkpt lat="43.95933" lon="5.75969">
        <ele>605</ele>
        <time>2000-01-01T01:33:18.000Z</time>
      </trkpt>
      <trkpt lat="43.95927" lon="5.75946">
        <ele>607.2</ele>
        <time>2000-01-01T01:33:28.000Z</time>
      </trkpt>
      <trkpt lat="43.95916" lon="5.7593">
        <ele>608</ele>
        <time>2000-01-01T01:33:38.000Z</time>
      </trkpt>
      <trkpt lat="43.95904" lon="5.75923">
        <ele>608.9</ele>
        <time>2000-01-01T01:33:48.000Z</time>
      </trkpt>
      <trkpt lat="43.95904" lon="5.75925">
        <ele>608.5</ele>
        <time>2000-01-01T01:33:58.000Z</time>
      </trkpt>
      <trkpt lat="43.95897" lon="5.75923">
        <ele>608</ele>
        <time>2000-01-01T01:34:08.000Z</time>
      </trkpt>
      <trkpt lat="43.95887" lon="5.75922">
        <ele>609.3</ele>
        <time>2000-01-01T01:34:18.000Z</time>
      </trkpt>
      <trkpt lat="43.95863" lon="5.75922">
        <ele>612</ele>
        <time>2000-01-01T01:34:28.000Z</time>
      </trkpt>
      <trkpt lat="43.95846" lon="5.75926">
        <ele>614.9</ele>
        <time>2000-01-01T01:34:38.000Z</time>
      </trkpt>
      <trkpt lat="43.9584" lon="5.7593">
        <ele>618</ele>
        <time>2000-01-01T01:34:48.000Z</time>
      </trkpt>
      <trkpt lat="43.95824" lon="5.75935">
        <ele>617</ele>
        <time>2000-01-01T01:34:58.000Z</time>
      </trkpt>
      <trkpt lat="43.95821" lon="5.75935">
        <ele>618</ele>
        <time>2000-01-01T01:35:08.000Z</time>
      </trkpt>
      <trkpt lat="43.95819" lon="5.75933">
        <ele>618.1</ele>
        <time>2000-01-01T01:35:18.000Z</time>
      </trkpt>
      <trkpt lat="43.95818" lon="5.7593">
        <ele>618.8</ele>
        <time>2000-01-01T01:35:28.000Z</time>
      </trkpt>
      <trkpt lat="43.95818" lon="5.75926">
        <ele>619.5</ele>
        <time>2000-01-01T01:35:38.000Z</time>
      </trkpt>
      <trkpt lat="43.95819" lon="5.75922">
        <ele>620.1</ele>
        <time>2000-01-01T01:35:48.000Z</time>
      </trkpt>
      <trkpt lat="43.95819" lon="5.75919">
        <ele>620.6</ele>
        <time>2000-01-01T01:35:58.000Z</time>
      </trkpt>
      <trkpt lat="43.95815" lon="5.75909">
        <ele>619</ele>
        <time>2000-01-01T01:36:08.000Z</time>
      </trkpt>
      <trkpt lat="43.95809" lon="5.75897">
        <ele>622.9</ele>
        <time>2000-01-01T01:36:18.000Z</time>
      </trkpt>
      <trkpt lat="43.95806" lon="5.75887">
        <ele>622.9</ele>
        <time>2000-01-01T01:36:28.000Z</time>
      </trkpt>
      <trkpt lat="43.95806" lon="5.75885">
        <ele>619</ele>
        <time>2000-01-01T01:36:38.000Z</time>
      </trkpt>
      <trkpt lat="43.958" lon="5.75875">
        <ele>622.2</ele>
        <time>2000-01-01T01:36:48.000Z</time>
      </trkpt>
      <trkpt lat="43.95799" lon="5.75862">
        <ele>621.3</ele>
        <time>2000-01-01T01:36:58.000Z</time>
      </trkpt>
      <trkpt lat="43.95797" lon="5.75854">
        <ele>617</ele>
        <time>2000-01-01T01:37:08.000Z</time>
      </trkpt>
      <trkpt lat="43.95793" lon="5.75843">
        <ele>618.3</ele>
        <time>2000-01-01T01:37:18.000Z</time>
      </trkpt>
      <trkpt lat="43.95782" lon="5.75833">
        <ele>615</ele>
        <time>2000-01-01T01:37:28.000Z</time>
      </trkpt>
      <trkpt lat="43.95778" lon="5.75833">
        <ele>615.9</ele>
        <time>2000-01-01T01:37:38.000Z</time>
      </trkpt>
      <trkpt lat="43.95775" lon="5.75832">
        <ele>615.1</ele>
        <time>2000-01-01T01:37:48.000Z</time>
      </trkpt>
      <trkpt lat="43.95774" lon="5.75828">
        <ele>614.1</ele>
        <time>2000-01-01T01:37:58.000Z</time>
      </trkpt>
      <trkpt lat="43.95783" lon="5.75813">
        <ele>613</ele>
        <time>2000-01-01T01:38:08.000Z</time>
      </trkpt>
      <trkpt lat="43.95784" lon="5.75807">
        <ele>611.2</ele>
        <time>2000-01-01T01:38:18.000Z</time>
      </trkpt>
      <trkpt lat="43.95781" lon="5.75795">
        <ele>611.1</ele>
        <time>2000-01-01T01:38:28.000Z</time>
      </trkpt>
      <trkpt lat="43.95775" lon="5.7578">
        <ele>613</ele>
        <time>2000-01-01T01:38:38.000Z</time>
      </trkpt>
      <trkpt lat="43.95771" lon="5.75766">
        <ele>613.2</ele>
        <time>2000-01-01T01:38:48.000Z</time>
      </trkpt>
      <trkpt lat="43.95768" lon="5.75761">
        <ele>613.7</ele>
        <time>2000-01-01T01:38:58.000Z</time>
      </trkpt>
      <trkpt lat="43.95756" lon="5.75753">
        <ele>614</ele>
        <time>2000-01-01T01:39:08.000Z</time>
      </trkpt>
      <trkpt lat="43.95743" lon="5.75746">
        <ele>615</ele>
        <time>2000-01-01T01:39:18.000Z</time>
      </trkpt>
      <trkpt lat="43.95729" lon="5.75735">
        <ele>619</ele>
        <time>2000-01-01T01:39:28.000Z</time>
      </trkpt>
      <trkpt lat="43.95721" lon="5.75724">
        <ele>620.5</ele>
        <time>2000-01-01T01:39:38.000Z</time>
      </trkpt>
      <trkpt lat="43.95713" lon="5.75711">
        <ele>622</ele>
        <time>2000-01-01T01:39:48.000Z</time>
      </trkpt>
      <trkpt lat="43.95708" lon="5.75701">
        <ele>623.2</ele>
        <time>2000-01-01T01:39:58.000Z</time>
      </trkpt>
      <trkpt lat="43.95704" lon="5.75695">
        <ele>623.6</ele>
        <time>2000-01-01T01:40:08.000Z</time>
      </trkpt>
      <trkpt lat="43.95697" lon="5.75679">
        <ele>624</ele>
        <time>2000-01-01T01:40:18.000Z</time>
      </trkpt>
      <trkpt lat="43.95695" lon="5.75669">
        <ele>625.8</ele>
        <time>2000-01-01T01:40:28.000Z</time>
      </trkpt>
      <trkpt lat="43.95687" lon="5.7565">
        <ele>623</ele>
        <time>2000-01-01T01:40:38.000Z</time>
      </trkpt>
      <trkpt lat="43.95684" lon="5.75641">
        <ele>626</ele>
        <time>2000-01-01T01:40:48.000Z</time>
      </trkpt>
      <trkpt lat="43.95678" lon="5.75612">
        <ele>623</ele>
        <time>2000-01-01T01:40:58.000Z</time>
      </trkpt>
      <trkpt lat="43.95668" lon="5.75578">
        <ele>623</ele>
        <time>2000-01-01T01:41:08.000Z</time>
      </trkpt>
      <trkpt lat="43.95655" lon="5.75537">
        <ele>621</ele>
        <time>2000-01-01T01:41:18.000Z</time>
      </trkpt>
      <trkpt lat="43.95634" lon="5.75486">
        <ele>621</ele>
        <time>2000-01-01T01:41:28.000Z</time>
      </trkpt>
      <trkpt lat="43.95626" lon="5.75471">
        <ele>620.2</ele>
        <time>2000-01-01T01:41:38.000Z</time>
      </trkpt>
      <trkpt lat="43.95621" lon="5.75463">
        <ele>621</ele>
        <time>2000-01-01T01:41:48.000Z</time>
      </trkpt>
      <trkpt lat="43.9564" lon="5.75433">
        <ele>622</ele>
        <time>2000-01-01T01:41:58.000Z</time>
      </trkpt>
      <trkpt lat="43.9565" lon="5.75421">
        <ele>624.5</ele>
        <time>2000-01-01T01:42:08.000Z</time>
      </trkpt>
      <trkpt lat="43.9566" lon="5.75418">
        <ele>624</ele>
        <time>2000-01-01T01:42:18.000Z</time>
      </trkpt>
      <trkpt lat="43.95668" lon="5.75425">
        <ele>626.8</ele>
        <time>2000-01-01T01:42:28.000Z</time>
      </trkpt>
      <trkpt lat="43.95683" lon="5.75427">
        <ele>628</ele>
        <time>2000-01-01T01:42:38.000Z</time>
      </trkpt>
      <trkpt lat="43.95694" lon="5.75421">
        <ele>629.6</ele>
        <time>2000-01-01T01:42:48.000Z</time>
      </trkpt>
      <trkpt lat="43.95701" lon="5.75413">
        <ele>631</ele>
        <time>2000-01-01T01:42:58.000Z</time>
      </trkpt>
      <trkpt lat="43.95706" lon="5.75405">
        <ele>630.6</ele>
        <time>2000-01-01T01:43:08.000Z</time>
      </trkpt>
      <trkpt lat="43.95711" lon="5.75401">
        <ele>631</ele>
        <time>2000-01-01T01:43:18.000Z</time>
      </trkpt>
      <trkpt lat="43.95716" lon="5.75408">
        <ele>631</ele>
        <time>2000-01-01T01:43:28.000Z</time>
      </trkpt>
      <trkpt lat="43.95725" lon="5.7541">
        <ele>633.1</ele>
        <time>2000-01-01T01:43:38.000Z</time>
      </trkpt>
      <trkpt lat="43.95731" lon="5.754">
        <ele>633.7</ele>
        <time>2000-01-01T01:43:48.000Z</time>
      </trkpt>
      <trkpt lat="43.95735" lon="5.75385">
        <ele>631</ele>
        <time>2000-01-01T01:43:58.000Z</time>
      </trkpt>
      <trkpt lat="43.95743" lon="5.75383">
        <ele>634.5</ele>
        <time>2000-01-01T01:44:08.000Z</time>
      </trkpt>
      <trkpt lat="43.95748" lon="5.75396">
        <ele>636.4</ele>
        <time>2000-01-01T01:44:18.000Z</time>
      </trkpt>
      <trkpt lat="43.95752" lon="5.75404">
        <ele>637</ele>
        <time>2000-01-01T01:44:28.000Z</time>
      </trkpt>
      <trkpt lat="43.95757" lon="5.75396">
        <ele>637.5</ele>
        <time>2000-01-01T01:44:38.000Z</time>
      </trkpt>
      <trkpt lat="43.95765" lon="5.75388">
        <ele>638.5</ele>
        <time>2000-01-01T01:44:48.000Z</time>
      </trkpt>
      <trkpt lat="43.9577" lon="5.75394">
        <ele>638</ele>
        <time>2000-01-01T01:44:58.000Z</time>
      </trkpt>
      <trkpt lat="43.95782" lon="5.75385">
        <ele>639.9</ele>
        <time>2000-01-01T01:45:08.000Z</time>
      </trkpt>
      <trkpt lat="43.9579" lon="5.75389">
        <ele>640</ele>
        <time>2000-01-01T01:45:18.000Z</time>
      </trkpt>
      <trkpt lat="43.95799" lon="5.75392">
        <ele>642.2</ele>
        <time>2000-01-01T01:45:28.000Z</time>
      </trkpt>
      <trkpt lat="43.95809" lon="5.75386">
        <ele>642</ele>
        <time>2000-01-01T01:45:38.000Z</time>
      </trkpt>
      <trkpt lat="43.95819" lon="5.75392">
        <ele>644.3</ele>
        <time>2000-01-01T01:45:48.000Z</time>
      </trkpt>
      <trkpt lat="43.95829" lon="5.75382">
        <ele>645</ele>
        <time>2000-01-01T01:45:58.000Z</time>
      </trkpt>
      <trkpt lat="43.95842" lon="5.75381">
        <ele>646.4</ele>
        <time>2000-01-01T01:46:08.000Z</time>
      </trkpt>
      <trkpt lat="43.95849" lon="5.75382">
        <ele>646</ele>
        <time>2000-01-01T01:46:18.000Z</time>
      </trkpt>
      <trkpt lat="43.95862" lon="5.75382">
        <ele>648.6</ele>
        <time>2000-01-01T01:46:28.000Z</time>
      </trkpt>
      <trkpt lat="43.95868" lon="5.75375">
        <ele>648</ele>
        <time>2000-01-01T01:46:38.000Z</time>
      </trkpt>
      <trkpt lat="43.95879" lon="5.75378">
        <ele>650.4</ele>
        <time>2000-01-01T01:46:48.000Z</time>
      </trkpt>
      <trkpt lat="43.95886" lon="5.75373">
        <ele>651.1</ele>
        <time>2000-01-01T01:46:58.000Z</time>
      </trkpt>
      <trkpt lat="43.95893" lon="5.75364">
        <ele>651</ele>
        <time>2000-01-01T01:47:08.000Z</time>
      </trkpt>
      <trkpt lat="43.95896" lon="5.75373">
        <ele>652.5</ele>
        <time>2000-01-01T01:47:18.000Z</time>
      </trkpt>
      <trkpt lat="43.95903" lon="5.75364">
        <ele>653.5</ele>
        <time>2000-01-01T01:47:28.000Z</time>
      </trkpt>
      <trkpt lat="43.95915" lon="5.75354">
        <ele>651</ele>
        <time>2000-01-01T01:47:38.000Z</time>
      </trkpt>
      <trkpt lat="43.95924" lon="5.75351">
        <ele>654.2</ele>
        <time>2000-01-01T01:47:48.000Z</time>
      </trkpt>
      <trkpt lat="43.95928" lon="5.75346">
        <ele>653.1</ele>
        <time>2000-01-01T01:47:58.000Z</time>
      </trkpt>
      <trkpt lat="43.95936" lon="5.75343">
        <ele>651</ele>
        <time>2000-01-01T01:48:08.000Z</time>
      </trkpt>
      <trkpt lat="43.95951" lon="5.75342">
        <ele>653.4</ele>
        <time>2000-01-01T01:48:18.000Z</time>
      </trkpt>
      <trkpt lat="43.95959" lon="5.75339">
        <ele>653</ele>
        <time>2000-01-01T01:48:28.000Z</time>
      </trkpt>
      <trkpt lat="43.95965" lon="5.75328">
        <ele>654.9</ele>
        <time>2000-01-01T01:48:38.000Z</time>
      </trkpt>
      <trkpt lat="43.95963" lon="5.75309">
        <ele>655</ele>
        <time>2000-01-01T01:48:48.000Z</time>
      </trkpt>
      <trkpt lat="43.95953" lon="5.75294">
        <ele>655.1</ele>
        <time>2000-01-01T01:48:58.000Z</time>
      </trkpt>
      <trkpt lat="43.95941" lon="5.75263">
        <ele>656</ele>
        <time>2000-01-01T01:49:08.000Z</time>
      </trkpt>
      <trkpt lat="43.9594" lon="5.75252">
        <ele>656.8</ele>
        <time>2000-01-01T01:49:18.000Z</time>
      </trkpt>
      <trkpt lat="43.95947" lon="5.75235">
        <ele>658</ele>
        <time>2000-01-01T01:49:28.000Z</time>
      </trkpt>
      <trkpt lat="43.95945" lon="5.75222">
        <ele>660.1</ele>
        <time>2000-01-01T01:49:38.000Z</time>
      </trkpt>
      <trkpt lat="43.9594" lon="5.75206">
        <ele>660</ele>
        <time>2000-01-01T01:49:48.000Z</time>
      </trkpt>
      <trkpt lat="43.95935" lon="5.75195">
        <ele>662.2</ele>
        <time>2000-01-01T01:49:58.000Z</time>
      </trkpt>
      <trkpt lat="43.95934" lon="5.75178">
        <ele>664</ele>
        <time>2000-01-01T01:50:08.000Z</time>
      </trkpt>
      <trkpt lat="43.95935" lon="5.75167">
        <ele>665.6</ele>
        <time>2000-01-01T01:50:18.000Z</time>
      </trkpt>
      <trkpt lat="43.95938" lon="5.75157">
        <ele>666.5</ele>
        <time>2000-01-01T01:50:28.000Z</time>
      </trkpt>
      <trkpt lat="43.95941" lon="5.75143">
        <ele>668</ele>
        <time>2000-01-01T01:50:38.000Z</time>
      </trkpt>
      <trkpt lat="43.95945" lon="5.75133">
        <ele>668.5</ele>
        <time>2000-01-01T01:50:48.000Z</time>
      </trkpt>
      <trkpt lat="43.95951" lon="5.75129">
        <ele>669.4</ele>
        <time>2000-01-01T01:50:58.000Z</time>
      </trkpt>
      <trkpt lat="43.95961" lon="5.7513">
        <ele>670</ele>
        <time>2000-01-01T01:51:08.000Z</time>
      </trkpt>
      <trkpt lat="43.9597" lon="5.7513">
        <ele>671.4</ele>
        <time>2000-01-01T01:51:18.000Z</time>
      </trkpt>
      <trkpt lat="43.95981" lon="5.75124">
        <ele>672</ele>
        <time>2000-01-01T01:51:28.000Z</time>
      </trkpt>
      <trkpt lat="43.95993" lon="5.75113">
        <ele>673.7</ele>
        <time>2000-01-01T01:51:38.000Z</time>
      </trkpt>
      <trkpt lat="43.95997" lon="5.75107">
        <ele>674</ele>
        <time>2000-01-01T01:51:48.000Z</time>
      </trkpt>
      <trkpt lat="43.95997" lon="5.7507">
        <ele>676</ele>
        <time>2000-01-01T01:51:58.000Z</time>
      </trkpt>
      <trkpt lat="43.95999" lon="5.75061">
        <ele>677.5</ele>
        <time>2000-01-01T01:52:08.000Z</time>
      </trkpt>
      <trkpt lat="43.96003" lon="5.75057">
        <ele>678.1</ele>
        <time>2000-01-01T01:52:18.000Z</time>
      </trkpt>
      <trkpt lat="43.9601" lon="5.75054">
        <ele>678.8</ele>
        <time>2000-01-01T01:52:28.000Z</time>
      </trkpt>
      <trkpt lat="43.96014" lon="5.75047">
        <ele>679</ele>
        <time>2000-01-01T01:52:38.000Z</time>
      </trkpt>
      <trkpt lat="43.96015" lon="5.7503">
        <ele>680.5</ele>
        <time>2000-01-01T01:52:48.000Z</time>
      </trkpt>
      <trkpt lat="43.96013" lon="5.75016">
        <ele>681</ele>
        <time>2000-01-01T01:52:58.000Z</time>
      </trkpt>
      <trkpt lat="43.96012" lon="5.74983">
        <ele>681</ele>
        <time>2000-01-01T01:53:08.000Z</time>
      </trkpt>
      <trkpt lat="43.96016" lon="5.74971">
        <ele>682.1</ele>
        <time>2000-01-01T01:53:18.000Z</time>
      </trkpt>
      <trkpt lat="43.96024" lon="5.74966">
        <ele>682.1</ele>
        <time>2000-01-01T01:53:28.000Z</time>
      </trkpt>
      <trkpt lat="43.96061" lon="5.74955">
        <ele>680</ele>
        <time>2000-01-01T01:53:38.000Z</time>
      </trkpt>
      <trkpt lat="43.96077" lon="5.74933">
        <ele>679</ele>
        <time>2000-01-01T01:53:48.000Z</time>
      </trkpt>
      <trkpt lat="43.96093" lon="5.74931">
        <ele>678.7</ele>
        <time>2000-01-01T01:53:58.000Z</time>
      </trkpt>
      <trkpt lat="43.96114" lon="5.74927">
        <ele>679</ele>
        <time>2000-01-01T01:54:08.000Z</time>
      </trkpt>
      <trkpt lat="43.96135" lon="5.74918">
        <ele>681</ele>
        <time>2000-01-01T01:54:18.000Z</time>
      </trkpt>
      <trkpt lat="43.96162" lon="5.74913">
        <ele>684</ele>
        <time>2000-01-01T01:54:28.000Z</time>
      </trkpt>
      <trkpt lat="43.96172" lon="5.74903">
        <ele>687.1</ele>
        <time>2000-01-01T01:54:38.000Z</time>
      </trkpt>
      <trkpt lat="43.96182" lon="5.74884">
        <ele>684</ele>
        <time>2000-01-01T01:54:48.000Z</time>
      </trkpt>
      <trkpt lat="43.96193" lon="5.74865">
        <ele>688.1</ele>
        <time>2000-01-01T01:54:58.000Z</time>
      </trkpt>
      <trkpt lat="43.96209" lon="5.74851">
        <ele>683</ele>
        <time>2000-01-01T01:55:08.000Z</time>
      </trkpt>
      <trkpt lat="43.96226" lon="5.7484">
        <ele>684.5</ele>
        <time>2000-01-01T01:55:18.000Z</time>
      </trkpt>
      <trkpt lat="43.96247" lon="5.74837">
        <ele>682</ele>
        <time>2000-01-01T01:55:28.000Z</time>
      </trkpt>
      <trkpt lat="43.96284" lon="5.74829">
        <ele>677</ele>
        <time>2000-01-01T01:55:38.000Z</time>
      </trkpt>
      <trkpt lat="43.96303" lon="5.7482">
        <ele>675</ele>
        <time>2000-01-01T01:55:48.000Z</time>
      </trkpt>
      <trkpt lat="43.96326" lon="5.74817">
        <ele>674</ele>
        <time>2000-01-01T01:55:58.000Z</time>
      </trkpt>
      <trkpt lat="43.96353" lon="5.74812">
        <ele>674</ele>
        <time>2000-01-01T01:56:08.000Z</time>
      </trkpt>
      <trkpt lat="43.96381" lon="5.74811">
        <ele>673</ele>
        <time>2000-01-01T01:56:18.000Z</time>
      </trkpt>
      <trkpt lat="43.96414" lon="5.74815">
        <ele>671</ele>
        <time>2000-01-01T01:56:28.000Z</time>
      </trkpt>
      <trkpt lat="43.96455" lon="5.74815">
        <ele>667</ele>
        <time>2000-01-01T01:56:38.000Z</time>
      </trkpt>
      <trkpt lat="43.96477" lon="5.7481">
        <ele>663</ele>
        <time>2000-01-01T01:56:48.000Z</time>
      </trkpt>
      <trkpt lat="43.96515" lon="5.74813">
        <ele>663</ele>
        <time>2000-01-01T01:56:58.000Z</time>
      </trkpt>
      <trkpt lat="43.96551" lon="5.74812">
        <ele>659</ele>
        <time>2000-01-01T01:57:08.000Z</time>
      </trkpt>
      <trkpt lat="43.96576" lon="5.74809">
        <ele>655</ele>
        <time>2000-01-01T01:57:18.000Z</time>
      </trkpt>
      <trkpt lat="43.96563" lon="5.74796">
        <ele>654.4</ele>
        <time>2000-01-01T01:57:28.000Z</time>
      </trkpt>
      <trkpt lat="43.96533" lon="5.74763">
        <ele>645</ele>
        <time>2000-01-01T01:57:38.000Z</time>
      </trkpt>
      <trkpt lat="43.9652" lon="5.74753">
        <ele>643.6</ele>
        <time>2000-01-01T01:57:48.000Z</time>
      </trkpt>
      <trkpt lat="43.9651" lon="5.74741">
        <ele>641</ele>
        <time>2000-01-01T01:57:58.000Z</time>
      </trkpt>
      <trkpt lat="43.96501" lon="5.74738">
        <ele>640</ele>
        <time>2000-01-01T01:58:08.000Z</time>
      </trkpt>
      <trkpt lat="43.96493" lon="5.74727">
        <ele>634</ele>
        <time>2000-01-01T01:58:18.000Z</time>
      </trkpt>
      <trkpt lat="43.96493" lon="5.74718">
        <ele>633.8</ele>
        <time>2000-01-01T01:58:28.000Z</time>
      </trkpt>
      <trkpt lat="43.96484" lon="5.74699">
        <ele>625</ele>
        <time>2000-01-01T01:58:38.000Z</time>
      </trkpt>
      <trkpt lat="43.96476" lon="5.74693">
        <ele>626.3</ele>
        <time>2000-01-01T01:58:48.000Z</time>
      </trkpt>
      <trkpt lat="43.96465" lon="5.74675">
        <ele>621</ele>
        <time>2000-01-01T01:58:58.000Z</time>
      </trkpt>
      <trkpt lat="43.96458" lon="5.74666">
        <ele>620.8</ele>
        <time>2000-01-01T01:59:08.000Z</time>
      </trkpt>
      <trkpt lat="43.96445" lon="5.74659">
        <ele>617</ele>
        <time>2000-01-01T01:59:18.000Z</time>
      </trkpt>
      <trkpt lat="43.96438" lon="5.74646">
        <ele>615.6</ele>
        <time>2000-01-01T01:59:28.000Z</time>
      </trkpt>
      <trkpt lat="43.9644" lon="5.74631">
        <ele>611</ele>
        <time>2000-01-01T01:59:38.000Z</time>
      </trkpt>
      <trkpt lat="43.96433" lon="5.74612">
        <ele>605.1</ele>
        <time>2000-01-01T01:59:48.000Z</time>
      </trkpt>
      <trkpt lat="43.96425" lon="5.74605">
        <ele>601</ele>
        <time>2000-01-01T01:59:58.000Z</time>
      </trkpt>
      <trkpt lat="43.96417" lon="5.74586">
        <ele>597.8</ele>
        <time>2000-01-01T02:00:08.000Z</time>
      </trkpt>
      <trkpt lat="43.96418" lon="5.74562">
        <ele>590</ele>
        <time>2000-01-01T02:00:18.000Z</time>
      </trkpt>
      <trkpt lat="43.96408" lon="5.74551">
        <ele>587</ele>
        <time>2000-01-01T02:00:28.000Z</time>
      </trkpt>
      <trkpt lat="43.96394" lon="5.74557">
        <ele>589</ele>
        <time>2000-01-01T02:00:38.000Z</time>
      </trkpt>
      <trkpt lat="43.96383" lon="5.74564">
        <ele>592.9</ele>
        <time>2000-01-01T02:00:48.000Z</time>
      </trkpt>
      <trkpt lat="43.96379" lon="5.74556">
        <ele>590.5</ele>
        <time>2000-01-01T02:00:58.000Z</time>
      </trkpt>
      <trkpt lat="43.96374" lon="5.74555">
        <ele>589</ele>
        <time>2000-01-01T02:01:08.000Z</time>
      </trkpt>
      <trkpt lat="43.96361" lon="5.74555">
        <ele>590.8</ele>
        <time>2000-01-01T02:01:18.000Z</time>
      </trkpt>
      <trkpt lat="43.96352" lon="5.74552">
        <ele>588</ele>
        <time>2000-01-01T02:01:28.000Z</time>
      </trkpt>
      <trkpt lat="43.96349" lon="5.74538">
        <ele>586</ele>
        <time>2000-01-01T02:01:38.000Z</time>
      </trkpt>
      <trkpt lat="43.96351" lon="5.7452">
        <ele>579</ele>
        <time>2000-01-01T02:01:48.000Z</time>
      </trkpt>
      <trkpt lat="43.96355" lon="5.7451">
        <ele>577.5</ele>
        <time>2000-01-01T02:01:58.000Z</time>
      </trkpt>
      <trkpt lat="43.96353" lon="5.74496">
        <ele>572.8</ele>
        <time>2000-01-01T02:02:08.000Z</time>
      </trkpt>
      <trkpt lat="43.9635" lon="5.74496">
        <ele>570</ele>
        <time>2000-01-01T02:02:18.000Z</time>
      </trkpt>
      <trkpt lat="43.96348" lon="5.74492">
        <ele>571.3</ele>
        <time>2000-01-01T02:02:28.000Z</time>
      </trkpt>
      <trkpt lat="43.9635" lon="5.74487">
        <ele>569.3</ele>
        <time>2000-01-01T02:02:38.000Z</time>
      </trkpt>
      <trkpt lat="43.96347" lon="5.74479">
        <ele>566.2</ele>
        <time>2000-01-01T02:02:48.000Z</time>
      </trkpt>
      <trkpt lat="43.96336" lon="5.74479">
        <ele>562</ele>
        <time>2000-01-01T02:02:58.000Z</time>
      </trkpt>
      <trkpt lat="43.96332" lon="5.74465">
        <ele>560.7</ele>
        <time>2000-01-01T02:03:08.000Z</time>
      </trkpt>
      <trkpt lat="43.96327" lon="5.74458">
        <ele>558.9</ele>
        <time>2000-01-01T02:03:18.000Z</time>
      </trkpt>
      <trkpt lat="43.96327" lon="5.74452">
        <ele>557</ele>
        <time>2000-01-01T02:03:28.000Z</time>
      </trkpt>
      <trkpt lat="43.96328" lon="5.74445">
        <ele>554.9</ele>
        <time>2000-01-01T02:03:38.000Z</time>
      </trkpt>
      <trkpt lat="43.96331" lon="5.74443">
        <ele>554</ele>
        <time>2000-01-01T02:03:48.000Z</time>
      </trkpt>
      <trkpt lat="43.96334" lon="5.74437">
        <ele>552.3</ele>
        <time>2000-01-01T02:03:58.000Z</time>
      </trkpt>
      <trkpt lat="43.96331" lon="5.74412">
        <ele>547</ele>
        <time>2000-01-01T02:04:08.000Z</time>
      </trkpt>
      <trkpt lat="43.96329" lon="5.74388">
        <ele>542.4</ele>
        <time>2000-01-01T02:04:18.000Z</time>
      </trkpt>
      <trkpt lat="43.9633" lon="5.74336">
        <ele>540</ele>
        <time>2000-01-01T02:04:28.000Z</time>
      </trkpt>
      <trkpt lat="43.96332" lon="5.74293">
        <ele>526</ele>
        <time>2000-01-01T02:04:38.000Z</time>
      </trkpt>
      <trkpt lat="43.96332" lon="5.74265">
        <ele>518</ele>
        <time>2000-01-01T02:04:48.000Z</time>
      </trkpt>
      <trkpt lat="43.96328" lon="5.74241">
        <ele>514</ele>
        <time>2000-01-01T02:04:58.000Z</time>
      </trkpt>
      <trkpt lat="43.96324" lon="5.7423">
        <ele>510</ele>
        <time>2000-01-01T02:05:08.000Z</time>
      </trkpt>
      <trkpt lat="43.9632" lon="5.74216">
        <ele>509.6</ele>
        <time>2000-01-01T02:05:18.000Z</time>
      </trkpt>
      <trkpt lat="43.96314" lon="5.74206">
        <ele>505</ele>
        <time>2000-01-01T02:05:28.000Z</time>
      </trkpt>
      <trkpt lat="43.96305" lon="5.74197">
        <ele>506.2</ele>
        <time>2000-01-01T02:05:38.000Z</time>
      </trkpt>
      <trkpt lat="43.96305" lon="5.74194">
        <ele>504.8</ele>
        <time>2000-01-01T02:05:48.000Z</time>
      </trkpt>
      <trkpt lat="43.96306" lon="5.74192">
        <ele>503.7</ele>
        <time>2000-01-01T02:05:58.000Z</time>
      </trkpt>
      <trkpt lat="43.96318" lon="5.74192">
        <ele>500</ele>
        <time>2000-01-01T02:06:08.000Z</time>
      </trkpt>
      <trkpt lat="43.9633" lon="5.74194">
        <ele>499.6</ele>
        <time>2000-01-01T02:06:18.000Z</time>
      </trkpt>
      <trkpt lat="43.96332" lon="5.74195">
        <ele>499.5</ele>
        <time>2000-01-01T02:06:28.000Z</time>
      </trkpt>
      <trkpt lat="43.96344" lon="5.74195">
        <ele>495</ele>
        <time>2000-01-01T02:06:38.000Z</time>
      </trkpt>
      <trkpt lat="43.96348" lon="5.74193">
        <ele>495.1</ele>
        <time>2000-01-01T02:06:48.000Z</time>
      </trkpt>
      <trkpt lat="43.96351" lon="5.74189">
        <ele>493.7</ele>
        <time>2000-01-01T02:06:58.000Z</time>
      </trkpt>
      <trkpt lat="43.96353" lon="5.7418">
        <ele>492.1</ele>
        <time>2000-01-01T02:07:08.000Z</time>
      </trkpt>
      <trkpt lat="43.96355" lon="5.74165">
        <ele>489</ele>
        <time>2000-01-01T02:07:18.000Z</time>
      </trkpt>
      <trkpt lat="43.96357" lon="5.74159">
        <ele>488.8</ele>
        <time>2000-01-01T02:07:28.000Z</time>
      </trkpt>
      <trkpt lat="43.96359" lon="5.74156">
        <ele>488.2</ele>
        <time>2000-01-01T02:07:38.000Z</time>
      </trkpt>
      <trkpt lat="43.96366" lon="5.74139">
        <ele>483</ele>
        <time>2000-01-01T02:07:48.000Z</time>
      </trkpt>
      <trkpt lat="43.96369" lon="5.74136">
        <ele>485.3</ele>
        <time>2000-01-01T02:07:58.000Z</time>
      </trkpt>
      <trkpt lat="43.96371" lon="5.74132">
        <ele>484.8</ele>
        <time>2000-01-01T02:08:08.000Z</time>
      </trkpt>
      <trkpt lat="43.96372" lon="5.74127">
        <ele>484</ele>
        <time>2000-01-01T02:08:18.000Z</time>
      </trkpt>
      <trkpt lat="43.96372" lon="5.74124">
        <ele>483.5</ele>
        <time>2000-01-01T02:08:28.000Z</time>
      </trkpt>
      <trkpt lat="43.9638" lon="5.74107">
        <ele>482</ele>
        <time>2000-01-01T02:08:38.000Z</time>
      </trkpt>
      <trkpt lat="43.96381" lon="5.74101">
        <ele>481</ele>
        <time>2000-01-01T02:08:48.000Z</time>
      </trkpt>
      <trkpt lat="43.96383" lon="5.74095">
        <ele>480.4</ele>
        <time>2000-01-01T02:08:58.000Z</time>
      </trkpt>
      <trkpt lat="43.96382" lon="5.74088">
        <ele>479.5</ele>
        <time>2000-01-01T02:09:08.000Z</time>
      </trkpt>
      <trkpt lat="43.96383" lon="5.7408">
        <ele>478</ele>
        <time>2000-01-01T02:09:18.000Z</time>
      </trkpt>
      <trkpt lat="43.96382" lon="5.74072">
        <ele>477.8</ele>
        <time>2000-01-01T02:09:28.000Z</time>
      </trkpt>
      <trkpt lat="43.96382" lon="5.74063">
        <ele>476.8</ele>
        <time>2000-01-01T02:09:38.000Z</time>
      </trkpt>
      <trkpt lat="43.96383" lon="5.74055">
        <ele>475.9</ele>
        <time>2000-01-01T02:09:48.000Z</time>
      </trkpt>
      <trkpt lat="43.96385" lon="5.74047">
        <ele>474</ele>
        <time>2000-01-01T02:09:58.000Z</time>
      </trkpt>
      <trkpt lat="43.96394" lon="5.74037">
        <ele>473.6</ele>
        <time>2000-01-01T02:10:08.000Z</time>
      </trkpt>
      <trkpt lat="43.96402" lon="5.74026">
        <ele>471</ele>
        <time>2000-01-01T02:10:18.000Z</time>
      </trkpt>
      <trkpt lat="43.96417" lon="5.74008">
        <ele>468</ele>
        <time>2000-01-01T02:10:28.000Z</time>
      </trkpt>
      <trkpt lat="43.96422" lon="5.74001">
        <ele>469.1</ele>
        <time>2000-01-01T02:10:38.000Z</time>
      </trkpt>
      <trkpt lat="43.96425" lon="5.73994">
        <ele>468.7</ele>
        <time>2000-01-01T02:10:48.000Z</time>
      </trkpt>
      <trkpt lat="43.96427" lon="5.73987">
        <ele>468.4</ele>
        <time>2000-01-01T02:10:58.000Z</time>
      </trkpt>
      <trkpt lat="43.96427" lon="5.73957">
        <ele>467</ele>
        <time>2000-01-01T02:11:08.000Z</time>
      </trkpt>
      <trkpt lat="43.96428" lon="5.73949">
        <ele>465.8</ele>
        <time>2000-01-01T02:11:18.000Z</time>
      </trkpt>
      <trkpt lat="43.96428" lon="5.73941">
        <ele>465.6</ele>
        <time>2000-01-01T02:11:28.000Z</time>
      </trkpt>
      <trkpt lat="43.9643" lon="5.73935">
        <ele>466</ele>
        <time>2000-01-01T02:11:38.000Z</time>
      </trkpt>
      <trkpt lat="43.96432" lon="5.73932">
        <ele>466.2</ele>
        <time>2000-01-01T02:11:48.000Z</time>
      </trkpt>
      <trkpt lat="43.96432" lon="5.73924">
        <ele>469</ele>
        <time>2000-01-01T02:11:58.000Z</time>
      </trkpt>
      <trkpt lat="43.96428" lon="5.73916">
        <ele>467.1</ele>
        <time>2000-01-01T02:12:08.000Z</time>
      </trkpt>
      <trkpt lat="43.96422" lon="5.73909">
        <ele>468.4</ele>
        <time>2000-01-01T02:12:18.000Z</time>
      </trkpt>
      <trkpt lat="43.9642" lon="5.73908">
        <ele>468.6</ele>
        <time>2000-01-01T02:12:28.000Z</time>
      </trkpt>
      <trkpt lat="43.96414" lon="5.73899">
        <ele>471</ele>
        <time>2000-01-01T02:12:38.000Z</time>
      </trkpt>
      <trkpt lat="43.96412" lon="5.73897">
        <ele>470.3</ele>
        <time>2000-01-01T02:12:48.000Z</time>
      </trkpt>
      <trkpt lat="43.96405" lon="5.73884">
        <ele>471.7</ele>
        <time>2000-01-01T02:12:58.000Z</time>
      </trkpt>
      <trkpt lat="43.96399" lon="5.7386">
        <ele>474</ele>
        <time>2000-01-01T02:13:08.000Z</time>
      </trkpt>
      <trkpt lat="43.96399" lon="5.73851">
        <ele>475.1</ele>
        <time>2000-01-01T02:13:18.000Z</time>
      </trkpt>
      <trkpt lat="43.96398" lon="5.73846">
        <ele>475.7</ele>
        <time>2000-01-01T02:13:28.000Z</time>
      </trkpt>
      <trkpt lat="43.96398" lon="5.73837">
        <ele>476.8</ele>
        <time>2000-01-01T02:13:38.000Z</time>
      </trkpt>
      <trkpt lat="43.96396" lon="5.73829">
        <ele>477</ele>
        <time>2000-01-01T02:13:48.000Z</time>
      </trkpt>
      <trkpt lat="43.96392" lon="5.73825">
        <ele>478.3</ele>
        <time>2000-01-01T02:13:58.000Z</time>
      </trkpt>
      <trkpt lat="43.96387" lon="5.73822">
        <ele>478.6</ele>
        <time>2000-01-01T02:14:08.000Z</time>
      </trkpt>
      <trkpt lat="43.96384" lon="5.73822">
        <ele>478.5</ele>
        <time>2000-01-01T02:14:18.000Z</time>
      </trkpt>
      <trkpt lat="43.96379" lon="5.73819">
        <ele>479.1</ele>
        <time>2000-01-01T02:14:28.000Z</time>
      </trkpt>
      <trkpt lat="43.96375" lon="5.73819">
        <ele>482</ele>
        <time>2000-01-01T02:14:38.000Z</time>
      </trkpt>
      <trkpt lat="43.96372" lon="5.73818">
        <ele>479.4</ele>
        <time>2000-01-01T02:14:48.000Z</time>
      </trkpt>
      <trkpt lat="43.96362" lon="5.73811">
        <ele>482</ele>
        <time>2000-01-01T02:14:58.000Z</time>
      </trkpt>
      <trkpt lat="43.96359" lon="5.738">
        <ele>484</ele>
        <time>2000-01-01T02:15:08.000Z</time>
      </trkpt>
      <trkpt lat="43.96359" lon="5.73797">
        <ele>484.7</ele>
        <time>2000-01-01T02:15:18.000Z</time>
      </trkpt>
      <trkpt lat="43.96358" lon="5.73793">
        <ele>485</ele>
        <time>2000-01-01T02:15:28.000Z</time>
      </trkpt>
      <trkpt lat="43.96358" lon="5.73789">
        <ele>485.5</ele>
        <time>2000-01-01T02:15:38.000Z</time>
      </trkpt>
      <trkpt lat="43.96357" lon="5.73784">
        <ele>486</ele>
        <time>2000-01-01T02:15:48.000Z</time>
      </trkpt>
      <trkpt lat="43.96357" lon="5.73776">
        <ele>486.8</ele>
        <time>2000-01-01T02:15:58.000Z</time>
      </trkpt>
      <trkpt lat="43.96355" lon="5.73762">
        <ele>488</ele>
        <time>2000-01-01T02:16:08.000Z</time>
      </trkpt>
      <trkpt lat="43.96355" lon="5.73757">
        <ele>488.2</ele>
        <time>2000-01-01T02:16:18.000Z</time>
      </trkpt>
      <trkpt lat="43.96354" lon="5.73755">
        <ele>488.3</ele>
        <time>2000-01-01T02:16:28.000Z</time>
      </trkpt>
      <trkpt lat="43.96354" lon="5.7375">
        <ele>488.7</ele>
        <time>2000-01-01T02:16:38.000Z</time>
      </trkpt>
      <trkpt lat="43.96353" lon="5.73745">
        <ele>489.2</ele>
        <time>2000-01-01T02:16:48.000Z</time>
      </trkpt>
      <trkpt lat="43.96353" lon="5.73741">
        <ele>489.7</ele>
        <time>2000-01-01T02:16:58.000Z</time>
      </trkpt>
      <trkpt lat="43.96351" lon="5.73731">
        <ele>491</ele>
        <time>2000-01-01T02:17:08.000Z</time>
      </trkpt>
      <trkpt lat="43.96351" lon="5.73726">
        <ele>491.2</ele>
        <time>2000-01-01T02:17:18.000Z</time>
      </trkpt>
      <trkpt lat="43.96349" lon="5.73717">
        <ele>492.2</ele>
        <time>2000-01-01T02:17:28.000Z</time>
      </trkpt>
      <trkpt lat="43.96349" lon="5.73711">
        <ele>493</ele>
        <time>2000-01-01T02:17:38.000Z</time>
      </trkpt>
      <trkpt lat="43.96348" lon="5.73705">
        <ele>493.7</ele>
        <time>2000-01-01T02:17:48.000Z</time>
      </trkpt>
      <trkpt lat="43.96346" lon="5.73698">
        <ele>495</ele>
        <time>2000-01-01T02:17:58.000Z</time>
      </trkpt>
      <trkpt lat="43.96344" lon="5.73684">
        <ele>496.1</ele>
        <time>2000-01-01T02:18:08.000Z</time>
      </trkpt>
      <trkpt lat="43.96342" lon="5.73678">
        <ele>496.8</ele>
        <time>2000-01-01T02:18:18.000Z</time>
      </trkpt>
      <trkpt lat="43.9634" lon="5.73669">
        <ele>498</ele>
        <time>2000-01-01T02:18:28.000Z</time>
      </trkpt>
      <trkpt lat="43.9634" lon="5.73661">
        <ele>498.6</ele>
        <time>2000-01-01T02:18:38.000Z</time>
      </trkpt>
      <trkpt lat="43.96338" lon="5.73653">
        <ele>499.4</ele>
        <time>2000-01-01T02:18:48.000Z</time>
      </trkpt>
      <trkpt lat="43.96338" lon="5.73649">
        <ele>499.8</ele>
        <time>2000-01-01T02:18:58.000Z</time>
      </trkpt>
      <trkpt lat="43.96335" lon="5.73637">
        <ele>501</ele>
        <time>2000-01-01T02:19:08.000Z</time>
      </trkpt>
      <trkpt lat="43.96334" lon="5.73635">
        <ele>501.3</ele>
        <time>2000-01-01T02:19:18.000Z</time>
      </trkpt>
      <trkpt lat="43.96332" lon="5.73626">
        <ele>501.8</ele>
        <time>2000-01-01T02:19:28.000Z</time>
      </trkpt>
      <trkpt lat="43.96332" lon="5.73621">
        <ele>502.2</ele>
        <time>2000-01-01T02:19:38.000Z</time>
      </trkpt>
      <trkpt lat="43.96327" lon="5.73605">
        <ele>502</ele>
        <time>2000-01-01T02:19:48.000Z</time>
      </trkpt>
      <trkpt lat="43.96323" lon="5.73588">
        <ele>503.9</ele>
        <time>2000-01-01T02:19:58.000Z</time>
      </trkpt>
      <trkpt lat="43.96323" lon="5.73583">
        <ele>504.3</ele>
        <time>2000-01-01T02:20:08.000Z</time>
      </trkpt>
      <trkpt lat="43.96324" lon="5.73578">
        <ele>505</ele>
        <time>2000-01-01T02:20:18.000Z</time>
      </trkpt>
      <trkpt lat="43.96324" lon="5.73569">
        <ele>505.9</ele>
        <time>2000-01-01T02:20:28.000Z</time>
      </trkpt>
      <trkpt lat="43.96326" lon="5.7356">
        <ele>507</ele>
        <time>2000-01-01T02:20:38.000Z</time>
      </trkpt>
      <trkpt lat="43.96332" lon="5.73551">
        <ele>509</ele>
        <time>2000-01-01T02:20:48.000Z</time>
      </trkpt>
      <trkpt lat="43.96333" lon="5.73547">
        <ele>509.2</ele>
        <time>2000-01-01T02:20:58.000Z</time>
      </trkpt>
      <trkpt lat="43.96335" lon="5.73545">
        <ele>509.6</ele>
        <time>2000-01-01T02:21:08.000Z</time>
      </trkpt>
      <trkpt lat="43.96336" lon="5.73542">
        <ele>510.1</ele>
        <time>2000-01-01T02:21:18.000Z</time>
      </trkpt>
      <trkpt lat="43.96339" lon="5.7354">
        <ele>510.6</ele>
        <time>2000-01-01T02:21:28.000Z</time>
      </trkpt>
      <trkpt lat="43.96347" lon="5.73531">
        <ele>512</ele>
        <time>2000-01-01T02:21:38.000Z</time>
      </trkpt>
      <trkpt lat="43.96349" lon="5.73527">
        <ele>513.2</ele>
        <time>2000-01-01T02:21:48.000Z</time>
      </trkpt>
      <trkpt lat="43.9636" lon="5.73494">
        <ele>517</ele>
        <time>2000-01-01T02:21:58.000Z</time>
      </trkpt>
      <trkpt lat="43.96362" lon="5.73491">
        <ele>519.3</ele>
        <time>2000-01-01T02:22:08.000Z</time>
      </trkpt>
      <trkpt lat="43.96363" lon="5.73487">
        <ele>519.8</ele>
        <time>2000-01-01T02:22:18.000Z</time>
      </trkpt>
      <trkpt lat="43.96363" lon="5.73482">
        <ele>520.6</ele>
        <time>2000-01-01T02:22:28.000Z</time>
      </trkpt>
      <trkpt lat="43.96365" lon="5.73478">
        <ele>521.1</ele>
        <time>2000-01-01T02:22:38.000Z</time>
      </trkpt>
      <trkpt lat="43.96366" lon="5.73474">
        <ele>521.7</ele>
        <time>2000-01-01T02:22:48.000Z</time>
      </trkpt>
      <trkpt lat="43.96366" lon="5.73471">
        <ele>522.1</ele>
        <time>2000-01-01T02:22:58.000Z</time>
      </trkpt>
      <trkpt lat="43.96367" lon="5.73466">
        <ele>522</ele>
        <time>2000-01-01T02:23:08.000Z</time>
      </trkpt>
      <trkpt lat="43.96367" lon="5.73458">
        <ele>523.3</ele>
        <time>2000-01-01T02:23:18.000Z</time>
      </trkpt>
      <trkpt lat="43.96368" lon="5.73454">
        <ele>523.8</ele>
        <time>2000-01-01T02:23:28.000Z</time>
      </trkpt>
      <trkpt lat="43.96368" lon="5.7345">
        <ele>524.2</ele>
        <time>2000-01-01T02:23:38.000Z</time>
      </trkpt>
      <trkpt lat="43.9637" lon="5.73443">
        <ele>525.1</ele>
        <time>2000-01-01T02:23:48.000Z</time>
      </trkpt>
      <trkpt lat="43.9637" lon="5.7344">
        <ele>525.4</ele>
        <time>2000-01-01T02:23:58.000Z</time>
      </trkpt>
      <trkpt lat="43.96372" lon="5.7343">
        <ele>528</ele>
        <time>2000-01-01T02:24:08.000Z</time>
      </trkpt>
      <trkpt lat="43.96372" lon="5.73426">
        <ele>527</ele>
        <time>2000-01-01T02:24:18.000Z</time>
      </trkpt>
      <trkpt lat="43.96373" lon="5.73421">
        <ele>527.7</ele>
        <time>2000-01-01T02:24:28.000Z</time>
      </trkpt>
      <trkpt lat="43.96373" lon="5.73415">
        <ele>528.3</ele>
        <time>2000-01-01T02:24:38.000Z</time>
      </trkpt>
      <trkpt lat="43.96374" lon="5.73409">
        <ele>529</ele>
        <time>2000-01-01T02:24:48.000Z</time>
      </trkpt>
      <trkpt lat="43.96374" lon="5.73403">
        <ele>529</ele>
        <time>2000-01-01T02:24:58.000Z</time>
      </trkpt>
      <trkpt lat="43.96377" lon="5.73386">
        <ele>531.6</ele>
        <time>2000-01-01T02:25:08.000Z</time>
      </trkpt>
      <trkpt lat="43.96377" lon="5.73381">
        <ele>531.8</ele>
        <time>2000-01-01T02:25:18.000Z</time>
      </trkpt>
      <trkpt lat="43.96378" lon="5.73375">
        <ele>531</ele>
        <time>2000-01-01T02:25:28.000Z</time>
      </trkpt>
      <trkpt lat="43.96381" lon="5.73358">
        <ele>533.7</ele>
        <time>2000-01-01T02:25:38.000Z</time>
      </trkpt>
      <trkpt lat="43.96388" lon="5.73337">
        <ele>535</ele>
        <time>2000-01-01T02:25:48.000Z</time>
      </trkpt>
      <trkpt lat="43.96399" lon="5.73275">
        <ele>539</ele>
        <time>2000-01-01T02:25:58.000Z</time>
      </trkpt>
      <trkpt lat="43.96401" lon="5.7327">
        <ele>541</ele>
        <time>2000-01-01T02:26:08.000Z</time>
      </trkpt>
      <trkpt lat="43.96402" lon="5.73264">
        <ele>541.4</ele>
        <time>2000-01-01T02:26:18.000Z</time>
      </trkpt>
      <trkpt lat="43.96406" lon="5.73254">
        <ele>542.3</ele>
        <time>2000-01-01T02:26:28.000Z</time>
      </trkpt>
      <trkpt lat="43.96424" lon="5.73227">
        <ele>545</ele>
        <time>2000-01-01T02:26:38.000Z</time>
      </trkpt>
      <trkpt lat="43.96431" lon="5.73219">
        <ele>546.7</ele>
        <time>2000-01-01T02:26:48.000Z</time>
      </trkpt>
      <trkpt lat="43.96433" lon="5.73215">
        <ele>547.1</ele>
        <time>2000-01-01T02:26:58.000Z</time>
      </trkpt>
      <trkpt lat="43.96436" lon="5.73211">
        <ele>547.6</ele>
        <time>2000-01-01T02:27:08.000Z</time>
      </trkpt>
      <trkpt lat="43.96443" lon="5.7319">
        <ele>550</ele>
        <time>2000-01-01T02:27:18.000Z</time>
      </trkpt>
      <trkpt lat="43.96445" lon="5.7318">
        <ele>550</ele>
        <time>2000-01-01T02:27:28.000Z</time>
      </trkpt>
      <trkpt lat="43.96447" lon="5.73174">
        <ele>550.5</ele>
        <time>2000-01-01T02:27:38.000Z</time>
      </trkpt>
      <trkpt lat="43.96452" lon="5.73146">
        <ele>553</ele>
        <time>2000-01-01T02:27:48.000Z</time>
      </trkpt>
      <trkpt lat="43.96452" lon="5.73139">
        <ele>552.7</ele>
        <time>2000-01-01T02:27:58.000Z</time>
      </trkpt>
      <trkpt lat="43.96454" lon="5.73127">
        <ele>553.4</ele>
        <time>2000-01-01T02:28:08.000Z</time>
      </trkpt>
      <trkpt lat="43.96453" lon="5.73121">
        <ele>553.8</ele>
        <time>2000-01-01T02:28:18.000Z</time>
      </trkpt>
      <trkpt lat="43.96453" lon="5.73115">
        <ele>555</ele>
        <time>2000-01-01T02:28:28.000Z</time>
      </trkpt>
      <trkpt lat="43.96449" lon="5.73092">
        <ele>556.6</ele>
        <time>2000-01-01T02:28:38.000Z</time>
      </trkpt>
      <trkpt lat="43.96449" lon="5.73086">
        <ele>557</ele>
        <time>2000-01-01T02:28:48.000Z</time>
      </trkpt>
      <trkpt lat="43.96446" lon="5.73069">
        <ele>558.9</ele>
        <time>2000-01-01T02:28:58.000Z</time>
      </trkpt>
      <trkpt lat="43.96446" lon="5.73047">
        <ele>561</ele>
        <time>2000-01-01T02:29:08.000Z</time>
      </trkpt>
      <trkpt lat="43.96448" lon="5.73036">
        <ele>561.1</ele>
        <time>2000-01-01T02:29:18.000Z</time>
      </trkpt>
      <trkpt lat="43.96448" lon="5.7303">
        <ele>561.5</ele>
        <time>2000-01-01T02:29:28.000Z</time>
      </trkpt>
      <trkpt lat="43.96451" lon="5.73012">
        <ele>562</ele>
        <time>2000-01-01T02:29:38.000Z</time>
      </trkpt>
      <trkpt lat="43.96453" lon="5.73006">
        <ele>562.4</ele>
        <time>2000-01-01T02:29:48.000Z</time>
      </trkpt>
      <trkpt lat="43.96456" lon="5.72989">
        <ele>563.1</ele>
        <time>2000-01-01T02:29:58.000Z</time>
      </trkpt>
      <trkpt lat="43.96457" lon="5.72982">
        <ele>565</ele>
        <time>2000-01-01T02:30:08.000Z</time>
      </trkpt>
      <trkpt lat="43.96457" lon="5.72975">
        <ele>564</ele>
        <time>2000-01-01T02:30:18.000Z</time>
      </trkpt>
      <trkpt lat="43.96462" lon="5.72943">
        <ele>566</ele>
        <time>2000-01-01T02:30:28.000Z</time>
      </trkpt>
      <trkpt lat="43.96464" lon="5.72936">
        <ele>566.1</ele>
        <time>2000-01-01T02:30:38.000Z</time>
      </trkpt>
      <trkpt lat="43.96465" lon="5.7293">
        <ele>566.4</ele>
        <time>2000-01-01T02:30:48.000Z</time>
      </trkpt>
      <trkpt lat="43.96467" lon="5.72925">
        <ele>566.6</ele>
        <time>2000-01-01T02:30:58.000Z</time>
      </trkpt>
      <trkpt lat="43.96468" lon="5.72918">
        <ele>567.1</ele>
        <time>2000-01-01T02:31:08.000Z</time>
      </trkpt>
      <trkpt lat="43.9647" lon="5.72912">
        <ele>569</ele>
        <time>2000-01-01T02:31:18.000Z</time>
      </trkpt>
      <trkpt lat="43.96472" lon="5.729">
        <ele>568.8</ele>
        <time>2000-01-01T02:31:28.000Z</time>
      </trkpt>
      <trkpt lat="43.96474" lon="5.72893">
        <ele>569.2</ele>
        <time>2000-01-01T02:31:38.000Z</time>
      </trkpt>
      <trkpt lat="43.96476" lon="5.72882">
        <ele>571</ele>
        <time>2000-01-01T02:31:48.000Z</time>
      </trkpt>
      <trkpt lat="43.96476" lon="5.72869">
        <ele>570.8</ele>
        <time>2000-01-01T02:31:58.000Z</time>
      </trkpt>
      <trkpt lat="43.96477" lon="5.72862">
        <ele>571.1</ele>
        <time>2000-01-01T02:32:08.000Z</time>
      </trkpt>
      <trkpt lat="43.96477" lon="5.7283">
        <ele>574</ele>
        <time>2000-01-01T02:32:18.000Z</time>
      </trkpt>
      <trkpt lat="43.96478" lon="5.72824">
        <ele>572.6</ele>
        <time>2000-01-01T02:32:28.000Z</time>
      </trkpt>
      <trkpt lat="43.96478" lon="5.72807">
        <ele>573.7</ele>
        <time>2000-01-01T02:32:38.000Z</time>
      </trkpt>
      <trkpt lat="43.96479" lon="5.72801">
        <ele>575</ele>
        <time>2000-01-01T02:32:48.000Z</time>
      </trkpt>
      <trkpt lat="43.96479" lon="5.72789">
        <ele>574.9</ele>
        <time>2000-01-01T02:32:58.000Z</time>
      </trkpt>
      <trkpt lat="43.9648" lon="5.72783">
        <ele>575.2</ele>
        <time>2000-01-01T02:33:08.000Z</time>
      </trkpt>
      <trkpt lat="43.9648" lon="5.72777">
        <ele>575.7</ele>
        <time>2000-01-01T02:33:18.000Z</time>
      </trkpt>
      <trkpt lat="43.96481" lon="5.72772">
        <ele>576</ele>
        <time>2000-01-01T02:33:28.000Z</time>
      </trkpt>
      <trkpt lat="43.96481" lon="5.72754">
        <ele>578.3</ele>
        <time>2000-01-01T02:33:38.000Z</time>
      </trkpt>
      <trkpt lat="43.96483" lon="5.72746">
        <ele>578.9</ele>
        <time>2000-01-01T02:33:48.000Z</time>
      </trkpt>
      <trkpt lat="43.96483" lon="5.72737">
        <ele>581</ele>
        <time>2000-01-01T02:33:58.000Z</time>
      </trkpt>
      <trkpt lat="43.96484" lon="5.72733">
        <ele>580.4</ele>
        <time>2000-01-01T02:34:08.000Z</time>
      </trkpt>
      <trkpt lat="43.96484" lon="5.72726">
        <ele>581.3</ele>
        <time>2000-01-01T02:34:18.000Z</time>
      </trkpt>
      <trkpt lat="43.96483" lon="5.72722">
        <ele>581.9</ele>
        <time>2000-01-01T02:34:28.000Z</time>
      </trkpt>
      <trkpt lat="43.96483" lon="5.72718">
        <ele>582.7</ele>
        <time>2000-01-01T02:34:38.000Z</time>
      </trkpt>
      <trkpt lat="43.96482" lon="5.72714">
        <ele>583.6</ele>
        <time>2000-01-01T02:34:48.000Z</time>
      </trkpt>
      <trkpt lat="43.96483" lon="5.7271">
        <ele>586</ele>
        <time>2000-01-01T02:34:58.000Z</time>
      </trkpt>
      <trkpt lat="43.96483" lon="5.72702">
        <ele>585.9</ele>
        <time>2000-01-01T02:35:08.000Z</time>
      </trkpt>
      <trkpt lat="43.96484" lon="5.72697">
        <ele>586.8</ele>
        <time>2000-01-01T02:35:18.000Z</time>
      </trkpt>
      <trkpt lat="43.96484" lon="5.72649">
        <ele>593</ele>
        <time>2000-01-01T02:35:28.000Z</time>
      </trkpt>
      <trkpt lat="43.96485" lon="5.72646">
        <ele>592.2</ele>
        <time>2000-01-01T02:35:38.000Z</time>
      </trkpt>
      <trkpt lat="43.96485" lon="5.72643">
        <ele>592.6</ele>
        <time>2000-01-01T02:35:48.000Z</time>
      </trkpt>
      <trkpt lat="43.96484" lon="5.7264">
        <ele>593</ele>
        <time>2000-01-01T02:35:58.000Z</time>
      </trkpt>
      <trkpt lat="43.96483" lon="5.7263">
        <ele>594.6</ele>
        <time>2000-01-01T02:36:08.000Z</time>
      </trkpt>
      <trkpt lat="43.96484" lon="5.72626">
        <ele>595.2</ele>
        <time>2000-01-01T02:36:18.000Z</time>
      </trkpt>
      <trkpt lat="43.96484" lon="5.72612">
        <ele>598</ele>
        <time>2000-01-01T02:36:28.000Z</time>
      </trkpt>
      <trkpt lat="43.96486" lon="5.72604">
        <ele>598.4</ele>
        <time>2000-01-01T02:36:38.000Z</time>
      </trkpt>
      <trkpt lat="43.96486" lon="5.72592">
        <ele>599.9</ele>
        <time>2000-01-01T02:36:48.000Z</time>
      </trkpt>
      <trkpt lat="43.96485" lon="5.72588">
        <ele>600.4</ele>
        <time>2000-01-01T02:36:58.000Z</time>
      </trkpt>
      <trkpt lat="43.96486" lon="5.72584">
        <ele>601</ele>
        <time>2000-01-01T02:37:08.000Z</time>
      </trkpt>
      <trkpt lat="43.96486" lon="5.7258">
        <ele>601.3</ele>
        <time>2000-01-01T02:37:18.000Z</time>
      </trkpt>
      <trkpt lat="43.96491" lon="5.72574">
        <ele>601.9</ele>
        <time>2000-01-01T02:37:28.000Z</time>
      </trkpt>
      <trkpt lat="43.96497" lon="5.7257">
        <ele>602.4</ele>
        <time>2000-01-01T02:37:38.000Z</time>
      </trkpt>
      <trkpt lat="43.96504" lon="5.72563">
        <ele>604</ele>
        <time>2000-01-01T02:37:48.000Z</time>
      </trkpt>
      <trkpt lat="43.96507" lon="5.72558">
        <ele>602</ele>
        <time>2000-01-01T02:37:58.000Z</time>
      </trkpt>
      <trkpt lat="43.96511" lon="5.72548">
        <ele>602</ele>
        <time>2000-01-01T02:38:08.000Z</time>
      </trkpt>
      <trkpt lat="43.96517" lon="5.72513">
        <ele>607</ele>
        <time>2000-01-01T02:38:18.000Z</time>
      </trkpt>
      <trkpt lat="43.96517" lon="5.72507">
        <ele>604.9</ele>
        <time>2000-01-01T02:38:28.000Z</time>
      </trkpt>
      <trkpt lat="43.9652" lon="5.72491">
        <ele>606.2</ele>
        <time>2000-01-01T02:38:38.000Z</time>
      </trkpt>
      <trkpt lat="43.9652" lon="5.72488">
        <ele>606.6</ele>
        <time>2000-01-01T02:38:48.000Z</time>
      </trkpt>
      <trkpt lat="43.96521" lon="5.72485">
        <ele>609</ele>
        <time>2000-01-01T02:38:58.000Z</time>
      </trkpt>
      <trkpt lat="43.96521" lon="5.72481">
        <ele>607.4</ele>
        <time>2000-01-01T02:39:08.000Z</time>
      </trkpt>
      <trkpt lat="43.96522" lon="5.72476">
        <ele>607.9</ele>
        <time>2000-01-01T02:39:18.000Z</time>
      </trkpt>
      <trkpt lat="43.96522" lon="5.7247">
        <ele>608.7</ele>
        <time>2000-01-01T02:39:28.000Z</time>
      </trkpt>
      <trkpt lat="43.96525" lon="5.72449">
        <ele>614</ele>
        <time>2000-01-01T02:39:38.000Z</time>
      </trkpt>
      <trkpt lat="43.96525" lon="5.72443">
        <ele>612.3</ele>
        <time>2000-01-01T02:39:48.000Z</time>
      </trkpt>
      <trkpt lat="43.96526" lon="5.72438">
        <ele>613</ele>
        <time>2000-01-01T02:39:58.000Z</time>
      </trkpt>
      <trkpt lat="43.96526" lon="5.72435">
        <ele>613.4</ele>
        <time>2000-01-01T02:40:08.000Z</time>
      </trkpt>
      <trkpt lat="43.96528" lon="5.72425">
        <ele>614.8</ele>
        <time>2000-01-01T02:40:18.000Z</time>
      </trkpt>
      <trkpt lat="43.96528" lon="5.7242">
        <ele>617</ele>
        <time>2000-01-01T02:40:28.000Z</time>
      </trkpt>
      <trkpt lat="43.96529" lon="5.72416">
        <ele>616</ele>
        <time>2000-01-01T02:40:38.000Z</time>
      </trkpt>
      <trkpt lat="43.96529" lon="5.72407">
        <ele>617.3</ele>
        <time>2000-01-01T02:40:48.000Z</time>
      </trkpt>
      <trkpt lat="43.96535" lon="5.72382">
        <ele>621</ele>
        <time>2000-01-01T02:40:58.000Z</time>
      </trkpt>
      <trkpt lat="43.96535" lon="5.72378">
        <ele>621</ele>
        <time>2000-01-01T02:41:08.000Z</time>
      </trkpt>
      <trkpt lat="43.96536" lon="5.72374">
        <ele>621.6</ele>
        <time>2000-01-01T02:41:18.000Z</time>
      </trkpt>
      <trkpt lat="43.96536" lon="5.72358">
        <ele>623.8</ele>
        <time>2000-01-01T02:41:28.000Z</time>
      </trkpt>
      <trkpt lat="43.96537" lon="5.72354">
        <ele>625</ele>
        <time>2000-01-01T02:41:38.000Z</time>
      </trkpt>
      <trkpt lat="43.96537" lon="5.7235">
        <ele>624.7</ele>
        <time>2000-01-01T02:41:48.000Z</time>
      </trkpt>
      <trkpt lat="43.96538" lon="5.72345">
        <ele>625.2</ele>
        <time>2000-01-01T02:41:58.000Z</time>
      </trkpt>
      <trkpt lat="43.96538" lon="5.72337">
        <ele>626.2</ele>
        <time>2000-01-01T02:42:08.000Z</time>
      </trkpt>
      <trkpt lat="43.96539" lon="5.72333">
        <ele>626.6</ele>
        <time>2000-01-01T02:42:18.000Z</time>
      </trkpt>
      <trkpt lat="43.96539" lon="5.72329">
        <ele>627.3</ele>
        <time>2000-01-01T02:42:28.000Z</time>
      </trkpt>
      <trkpt lat="43.9654" lon="5.72325">
        <ele>629</ele>
        <time>2000-01-01T02:42:38.000Z</time>
      </trkpt>
      <trkpt lat="43.9654" lon="5.72317">
        <ele>629.2</ele>
        <time>2000-01-01T02:42:48.000Z</time>
      </trkpt>
      <trkpt lat="43.96542" lon="5.7231">
        <ele>630.3</ele>
        <time>2000-01-01T02:42:58.000Z</time>
      </trkpt>
      <trkpt lat="43.96542" lon="5.72306">
        <ele>630.9</ele>
        <time>2000-01-01T02:43:08.000Z</time>
      </trkpt>
      <trkpt lat="43.96543" lon="5.72303">
        <ele>631.5</ele>
        <time>2000-01-01T02:43:18.000Z</time>
      </trkpt>
      <trkpt lat="43.96543" lon="5.72299">
        <ele>632.2</ele>
        <time>2000-01-01T02:43:28.000Z</time>
      </trkpt>
      <trkpt lat="43.96547" lon="5.72293">
        <ele>634</ele>
        <time>2000-01-01T02:43:38.000Z</time>
      </trkpt>
      <trkpt lat="43.9655" lon="5.72283">
        <ele>635.1</ele>
        <time>2000-01-01T02:43:48.000Z</time>
      </trkpt>
      <trkpt lat="43.96549" lon="5.72279">
        <ele>635.8</ele>
        <time>2000-01-01T02:43:58.000Z</time>
      </trkpt>
      <trkpt lat="43.9655" lon="5.72276">
        <ele>636.2</ele>
        <time>2000-01-01T02:44:08.000Z</time>
      </trkpt>
      <trkpt lat="43.9655" lon="5.72269">
        <ele>637.2</ele>
        <time>2000-01-01T02:44:18.000Z</time>
      </trkpt>
      <trkpt lat="43.96551" lon="5.72266">
        <ele>638</ele>
        <time>2000-01-01T02:44:28.000Z</time>
      </trkpt>
      <trkpt lat="43.9655" lon="5.72263">
        <ele>638</ele>
        <time>2000-01-01T02:44:38.000Z</time>
      </trkpt>
      <trkpt lat="43.9655" lon="5.72256">
        <ele>639</ele>
        <time>2000-01-01T02:44:48.000Z</time>
      </trkpt>
      <trkpt lat="43.96551" lon="5.72252">
        <ele>639.6</ele>
        <time>2000-01-01T02:44:58.000Z</time>
      </trkpt>
      <trkpt lat="43.96551" lon="5.72244">
        <ele>640.9</ele>
        <time>2000-01-01T02:45:08.000Z</time>
      </trkpt>
      <trkpt lat="43.9655" lon="5.7224">
        <ele>641.6</ele>
        <time>2000-01-01T02:45:18.000Z</time>
      </trkpt>
      <trkpt lat="43.9655" lon="5.72218">
        <ele>647</ele>
        <time>2000-01-01T02:45:28.000Z</time>
      </trkpt>
      <trkpt lat="43.96549" lon="5.72215">
        <ele>646.1</ele>
        <time>2000-01-01T02:45:38.000Z</time>
      </trkpt>
      <trkpt lat="43.96549" lon="5.72211">
        <ele>646.9</ele>
        <time>2000-01-01T02:45:48.000Z</time>
      </trkpt>
      <trkpt lat="43.96548" lon="5.72208">
        <ele>647.4</ele>
        <time>2000-01-01T02:45:58.000Z</time>
      </trkpt>
      <trkpt lat="43.96548" lon="5.72197">
        <ele>649.5</ele>
        <time>2000-01-01T02:46:08.000Z</time>
      </trkpt>
      <trkpt lat="43.96549" lon="5.72194">
        <ele>650.1</ele>
        <time>2000-01-01T02:46:18.000Z</time>
      </trkpt>
      <trkpt lat="43.96549" lon="5.72188">
        <ele>653</ele>
        <time>2000-01-01T02:46:28.000Z</time>
      </trkpt>
      <trkpt lat="43.9655" lon="5.72185">
        <ele>652.1</ele>
        <time>2000-01-01T02:46:38.000Z</time>
      </trkpt>
      <trkpt lat="43.9655" lon="5.72181">
        <ele>653</ele>
        <time>2000-01-01T02:46:48.000Z</time>
      </trkpt>
      <trkpt lat="43.96552" lon="5.72175">
        <ele>654.3</ele>
        <time>2000-01-01T02:46:58.000Z</time>
      </trkpt>
      <trkpt lat="43.96552" lon="5.72172">
        <ele>655</ele>
        <time>2000-01-01T02:47:08.000Z</time>
      </trkpt>
      <trkpt lat="43.96553" lon="5.72169">
        <ele>655.6</ele>
        <time>2000-01-01T02:47:18.000Z</time>
      </trkpt>
      <trkpt lat="43.96553" lon="5.72166">
        <ele>656.2</ele>
        <time>2000-01-01T02:47:28.000Z</time>
      </trkpt>
      <trkpt lat="43.96555" lon="5.72164">
        <ele>656.5</ele>
        <time>2000-01-01T02:47:38.000Z</time>
      </trkpt>
      <trkpt lat="43.96556" lon="5.72161">
        <ele>657</ele>
        <time>2000-01-01T02:47:48.000Z</time>
      </trkpt>
      <trkpt lat="43.96558" lon="5.72159">
        <ele>657.1</ele>
        <time>2000-01-01T02:47:58.000Z</time>
      </trkpt>
      <trkpt lat="43.96559" lon="5.72155">
        <ele>657.7</ele>
        <time>2000-01-01T02:48:08.000Z</time>
      </trkpt>
      <trkpt lat="43.96565" lon="5.72144">
        <ele>659.3</ele>
        <time>2000-01-01T02:48:18.000Z</time>
      </trkpt>
      <trkpt lat="43.96566" lon="5.7214">
        <ele>660</ele>
        <time>2000-01-01T02:48:28.000Z</time>
      </trkpt>
      <trkpt lat="43.96566" lon="5.72137">
        <ele>663</ele>
        <time>2000-01-01T02:48:38.000Z</time>
      </trkpt>
      <trkpt lat="43.96568" lon="5.72134">
        <ele>661.1</ele>
        <time>2000-01-01T02:48:48.000Z</time>
      </trkpt>
      <trkpt lat="43.96568" lon="5.72127">
        <ele>662.4</ele>
        <time>2000-01-01T02:48:58.000Z</time>
      </trkpt>
      <trkpt lat="43.9657" lon="5.7212">
        <ele>663.7</ele>
        <time>2000-01-01T02:49:08.000Z</time>
      </trkpt>
      <trkpt lat="43.9657" lon="5.72117">
        <ele>664.3</ele>
        <time>2000-01-01T02:49:18.000Z</time>
      </trkpt>
      <trkpt lat="43.96571" lon="5.72114">
        <ele>664.9</ele>
        <time>2000-01-01T02:49:28.000Z</time>
      </trkpt>
      <trkpt lat="43.96571" lon="5.7211">
        <ele>668</ele>
        <time>2000-01-01T02:49:38.000Z</time>
      </trkpt>
      <trkpt lat="43.96572" lon="5.72107">
        <ele>666.2</ele>
        <time>2000-01-01T02:49:48.000Z</time>
      </trkpt>
      <trkpt lat="43.96572" lon="5.72103">
        <ele>667</ele>
        <time>2000-01-01T02:49:58.000Z</time>
      </trkpt>
      <trkpt lat="43.96579" lon="5.72082">
        <ele>671</ele>
        <time>2000-01-01T02:50:08.000Z</time>
      </trkpt>
      <trkpt lat="43.96579" lon="5.72057">
        <ele>675.7</ele>
        <time>2000-01-01T02:50:18.000Z</time>
      </trkpt>
      <trkpt lat="43.9658" lon="5.72055">
        <ele>677</ele>
        <time>2000-01-01T02:50:28.000Z</time>
      </trkpt>
      <trkpt lat="43.9658" lon="5.72041">
        <ele>678.6</ele>
        <time>2000-01-01T02:50:38.000Z</time>
      </trkpt>
      <trkpt lat="43.96579" lon="5.72038">
        <ele>679.2</ele>
        <time>2000-01-01T02:50:48.000Z</time>
      </trkpt>
      <trkpt lat="43.96579" lon="5.72029">
        <ele>680.8</ele>
        <time>2000-01-01T02:50:58.000Z</time>
      </trkpt>
      <trkpt lat="43.96578" lon="5.72026">
        <ele>682</ele>
        <time>2000-01-01T02:51:08.000Z</time>
      </trkpt>
      <trkpt lat="43.96578" lon="5.72021">
        <ele>682.3</ele>
        <time>2000-01-01T02:51:18.000Z</time>
      </trkpt>
      <trkpt lat="43.96577" lon="5.72018">
        <ele>682.8</ele>
        <time>2000-01-01T02:51:28.000Z</time>
      </trkpt>
      <trkpt lat="43.96577" lon="5.72015">
        <ele>683.4</ele>
        <time>2000-01-01T02:51:38.000Z</time>
      </trkpt>
      <trkpt lat="43.96578" lon="5.72012">
        <ele>683.9</ele>
        <time>2000-01-01T02:51:48.000Z</time>
      </trkpt>
      <trkpt lat="43.96578" lon="5.72008">
        <ele>684.7</ele>
        <time>2000-01-01T02:51:58.000Z</time>
      </trkpt>
      <trkpt lat="43.96577" lon="5.72005">
        <ele>685.3</ele>
        <time>2000-01-01T02:52:08.000Z</time>
      </trkpt>
      <trkpt lat="43.96578" lon="5.72002">
        <ele>685.8</ele>
        <time>2000-01-01T02:52:18.000Z</time>
      </trkpt>
      <trkpt lat="43.96578" lon="5.71994">
        <ele>688</ele>
        <time>2000-01-01T02:52:28.000Z</time>
      </trkpt>
      <trkpt lat="43.96579" lon="5.71991">
        <ele>688.1</ele>
        <time>2000-01-01T02:52:38.000Z</time>
      </trkpt>
      <trkpt lat="43.96579" lon="5.71987">
        <ele>689</ele>
        <time>2000-01-01T02:52:48.000Z</time>
      </trkpt>
      <trkpt lat="43.96581" lon="5.71978">
        <ele>690.8</ele>
        <time>2000-01-01T02:52:58.000Z</time>
      </trkpt>
      <trkpt lat="43.96581" lon="5.7197">
        <ele>692.6</ele>
        <time>2000-01-01T02:53:08.000Z</time>
      </trkpt>
      <trkpt lat="43.96582" lon="5.71967">
        <ele>694</ele>
        <time>2000-01-01T02:53:18.000Z</time>
      </trkpt>
      <trkpt lat="43.96582" lon="5.71949">
        <ele>697.1</ele>
        <time>2000-01-01T02:53:28.000Z</time>
      </trkpt>
      <trkpt lat="43.96583" lon="5.71947">
        <ele>697.5</ele>
        <time>2000-01-01T02:53:38.000Z</time>
      </trkpt>
      <trkpt lat="43.96583" lon="5.71939">
        <ele>700</ele>
        <time>2000-01-01T02:53:48.000Z</time>
      </trkpt>
      <trkpt lat="43.96581" lon="5.71932">
        <ele>700.3</ele>
        <time>2000-01-01T02:53:58.000Z</time>
      </trkpt>
      <trkpt lat="43.96581" lon="5.71929">
        <ele>700.9</ele>
        <time>2000-01-01T02:54:08.000Z</time>
      </trkpt>
      <trkpt lat="43.96582" lon="5.71926">
        <ele>701.4</ele>
        <time>2000-01-01T02:54:18.000Z</time>
      </trkpt>
      <trkpt lat="43.96582" lon="5.7192">
        <ele>702.4</ele>
        <time>2000-01-01T02:54:28.000Z</time>
      </trkpt>
      <trkpt lat="43.96581" lon="5.71917">
        <ele>703</ele>
        <time>2000-01-01T02:54:38.000Z</time>
      </trkpt>
      <trkpt lat="43.96581" lon="5.71913">
        <ele>704</ele>
        <time>2000-01-01T02:54:48.000Z</time>
      </trkpt>
      <trkpt lat="43.96578" lon="5.71905">
        <ele>705.3</ele>
        <time>2000-01-01T02:54:58.000Z</time>
      </trkpt>
      <trkpt lat="43.96575" lon="5.719">
        <ele>706.3</ele>
        <time>2000-01-01T02:55:08.000Z</time>
      </trkpt>
      <trkpt lat="43.96574" lon="5.71897">
        <ele>706.9</ele>
        <time>2000-01-01T02:55:18.000Z</time>
      </trkpt>
      <trkpt lat="43.96574" lon="5.71895">
        <ele>707.2</ele>
        <time>2000-01-01T02:55:28.000Z</time>
      </trkpt>
      <trkpt lat="43.96573" lon="5.71891">
        <ele>708</ele>
        <time>2000-01-01T02:55:38.000Z</time>
      </trkpt>
      <trkpt lat="43.96573" lon="5.71888">
        <ele>710</ele>
        <time>2000-01-01T02:55:48.000Z</time>
      </trkpt>
      <trkpt lat="43.96572" lon="5.71885">
        <ele>709</ele>
        <time>2000-01-01T02:55:58.000Z</time>
      </trkpt>
      <trkpt lat="43.96572" lon="5.71882">
        <ele>709.5</ele>
        <time>2000-01-01T02:56:08.000Z</time>
      </trkpt>
      <trkpt lat="43.96571" lon="5.71878">
        <ele>710.2</ele>
        <time>2000-01-01T02:56:18.000Z</time>
      </trkpt>
      <trkpt lat="43.96571" lon="5.71875">
        <ele>710.7</ele>
        <time>2000-01-01T02:56:28.000Z</time>
      </trkpt>
      <trkpt lat="43.9657" lon="5.71872">
        <ele>711.2</ele>
        <time>2000-01-01T02:56:38.000Z</time>
      </trkpt>
      <trkpt lat="43.9657" lon="5.71863">
        <ele>712.7</ele>
        <time>2000-01-01T02:56:48.000Z</time>
      </trkpt>
      <trkpt lat="43.96569" lon="5.7186">
        <ele>716</ele>
        <time>2000-01-01T02:56:58.000Z</time>
      </trkpt>
      <trkpt lat="43.96571" lon="5.71854">
        <ele>714.3</ele>
        <time>2000-01-01T02:57:08.000Z</time>
      </trkpt>
      <trkpt lat="43.96571" lon="5.71848">
        <ele>715.5</ele>
        <time>2000-01-01T02:57:18.000Z</time>
      </trkpt>
      <trkpt lat="43.96572" lon="5.71845">
        <ele>716</ele>
        <time>2000-01-01T02:57:28.000Z</time>
      </trkpt>
      <trkpt lat="43.96572" lon="5.71842">
        <ele>716.5</ele>
        <time>2000-01-01T02:57:38.000Z</time>
      </trkpt>
      <trkpt lat="43.96573" lon="5.7184">
        <ele>716.8</ele>
        <time>2000-01-01T02:57:48.000Z</time>
      </trkpt>
      <trkpt lat="43.96573" lon="5.71834">
        <ele>718</ele>
        <time>2000-01-01T02:57:58.000Z</time>
      </trkpt>
      <trkpt lat="43.96574" lon="5.71831">
        <ele>718.5</ele>
        <time>2000-01-01T02:58:08.000Z</time>
      </trkpt>
      <trkpt lat="43.96574" lon="5.71827">
        <ele>719.4</ele>
        <time>2000-01-01T02:58:18.000Z</time>
      </trkpt>
      <trkpt lat="43.96575" lon="5.71824">
        <ele>719.9</ele>
        <time>2000-01-01T02:58:28.000Z</time>
      </trkpt>
      <trkpt lat="43.96575" lon="5.71819">
        <ele>721</ele>
        <time>2000-01-01T02:58:38.000Z</time>
      </trkpt>
      <trkpt lat="43.96576" lon="5.71816">
        <ele>721.5</ele>
        <time>2000-01-01T02:58:48.000Z</time>
      </trkpt>
      <trkpt lat="43.96576" lon="5.7181">
        <ele>722.8</ele>
        <time>2000-01-01T02:58:58.000Z</time>
      </trkpt>
      <trkpt lat="43.96577" lon="5.71808">
        <ele>725</ele>
        <time>2000-01-01T02:59:08.000Z</time>
      </trkpt>
      <trkpt lat="43.96577" lon="5.718">
        <ele>725</ele>
        <time>2000-01-01T02:59:18.000Z</time>
      </trkpt>
      <trkpt lat="43.96578" lon="5.71797">
        <ele>725.6</ele>
        <time>2000-01-01T02:59:28.000Z</time>
      </trkpt>
      <trkpt lat="43.96578" lon="5.7179">
        <ele>727.3</ele>
        <time>2000-01-01T02:59:38.000Z</time>
      </trkpt>
      <trkpt lat="43.96579" lon="5.71787">
        <ele>727.9</ele>
        <time>2000-01-01T02:59:48.000Z</time>
      </trkpt>
      <trkpt lat="43.96579" lon="5.71781">
        <ele>730</ele>
        <time>2000-01-01T02:59:58.000Z</time>
      </trkpt>
      <trkpt lat="43.9658" lon="5.71778">
        <ele>730.1</ele>
        <time>2000-01-01T03:00:08.000Z</time>
      </trkpt>
      <trkpt lat="43.9658" lon="5.71775">
        <ele>730.6</ele>
        <time>2000-01-01T03:00:18.000Z</time>
      </trkpt>
      <trkpt lat="43.96579" lon="5.71772">
        <ele>731.2</ele>
        <time>2000-01-01T03:00:28.000Z</time>
      </trkpt>
      <trkpt lat="43.96579" lon="5.71767">
        <ele>732.2</ele>
        <time>2000-01-01T03:00:38.000Z</time>
      </trkpt>
      <trkpt lat="43.96584" lon="5.71754">
        <ele>734</ele>
        <time>2000-01-01T03:00:48.000Z</time>
      </trkpt>
      <trkpt lat="43.96587" lon="5.7175">
        <ele>734.7</ele>
        <time>2000-01-01T03:00:58.000Z</time>
      </trkpt>
      <trkpt lat="43.96588" lon="5.71744">
        <ele>735.2</ele>
        <time>2000-01-01T03:01:08.000Z</time>
      </trkpt>
      <trkpt lat="43.96593" lon="5.71732">
        <ele>736.1</ele>
        <time>2000-01-01T03:01:18.000Z</time>
      </trkpt>
      <trkpt lat="43.96594" lon="5.71725">
        <ele>736</ele>
        <time>2000-01-01T03:01:28.000Z</time>
      </trkpt>
      <trkpt lat="43.96594" lon="5.7172">
        <ele>737.1</ele>
        <time>2000-01-01T03:01:38.000Z</time>
      </trkpt>
      <trkpt lat="43.96593" lon="5.71714">
        <ele>737.3</ele>
        <time>2000-01-01T03:01:48.000Z</time>
      </trkpt>
      <trkpt lat="43.96591" lon="5.71708">
        <ele>737.5</ele>
        <time>2000-01-01T03:01:58.000Z</time>
      </trkpt>
      <trkpt lat="43.96591" lon="5.71706">
        <ele>737.6</ele>
        <time>2000-01-01T03:02:08.000Z</time>
      </trkpt>
      <trkpt lat="43.9659" lon="5.71705">
        <ele>737.6</ele>
        <time>2000-01-01T03:02:18.000Z</time>
      </trkpt>
      <trkpt lat="43.96591" lon="5.71706">
        <ele>737.6</ele>
        <time>2000-01-01T03:02:28.000Z</time>
      </trkpt>
      <trkpt lat="43.96596" lon="5.71697">
        <ele>737</ele>
        <time>2000-01-01T03:02:38.000Z</time>
      </trkpt>
      <trkpt lat="43.96599" lon="5.71695">
        <ele>738</ele>
        <time>2000-01-01T03:02:48.000Z</time>
      </trkpt>
      <trkpt lat="43.966" lon="5.71693">
        <ele>738.1</ele>
        <time>2000-01-01T03:02:58.000Z</time>
      </trkpt>
      <trkpt lat="43.96609" lon="5.7169">
        <ele>738.2</ele>
        <time>2000-01-01T03:03:08.000Z</time>
      </trkpt>
      <trkpt lat="43.96612" lon="5.7169">
        <ele>738.3</ele>
        <time>2000-01-01T03:03:18.000Z</time>
      </trkpt>
      <trkpt lat="43.96614" lon="5.71691">
        <ele>738</ele>
        <time>2000-01-01T03:03:28.000Z</time>
      </trkpt>
      <trkpt lat="43.96616" lon="5.7169">
        <ele>738.7</ele>
        <time>2000-01-01T03:03:38.000Z</time>
      </trkpt>
      <trkpt lat="43.96619" lon="5.71685">
        <ele>739.1</ele>
        <time>2000-01-01T03:03:48.000Z</time>
      </trkpt>
      <trkpt lat="43.96619" lon="5.71682">
        <ele>739.2</ele>
        <time>2000-01-01T03:03:58.000Z</time>
      </trkpt>
      <trkpt lat="43.96621" lon="5.71677">
        <ele>739.5</ele>
        <time>2000-01-01T03:04:08.000Z</time>
      </trkpt>
      <trkpt lat="43.96623" lon="5.71668">
        <ele>740</ele>
        <time>2000-01-01T03:04:18.000Z</time>
      </trkpt>
      <trkpt lat="43.96624" lon="5.71666">
        <ele>740.1</ele>
        <time>2000-01-01T03:04:28.000Z</time>
      </trkpt>
      <trkpt lat="43.9662" lon="5.71663">
        <ele>740.4</ele>
        <time>2000-01-01T03:04:38.000Z</time>
      </trkpt>
      <trkpt lat="43.96619" lon="5.7166">
        <ele>741</ele>
        <time>2000-01-01T03:04:48.000Z</time>
      </trkpt>
      <trkpt lat="43.96616" lon="5.71656">
        <ele>741.8</ele>
        <time>2000-01-01T03:04:58.000Z</time>
      </trkpt>
      <trkpt lat="43.96614" lon="5.71651">
        <ele>742.9</ele>
        <time>2000-01-01T03:05:08.000Z</time>
      </trkpt>
      <trkpt lat="43.96613" lon="5.71644">
        <ele>745</ele>
        <time>2000-01-01T03:05:18.000Z</time>
      </trkpt>
      <trkpt lat="43.96616" lon="5.71636">
        <ele>746.5</ele>
        <time>2000-01-01T03:05:28.000Z</time>
      </trkpt>
      <trkpt lat="43.96612" lon="5.71633">
        <ele>747.6</ele>
        <time>2000-01-01T03:05:38.000Z</time>
      </trkpt>
      <trkpt lat="43.96607" lon="5.71632">
        <ele>748.7</ele>
        <time>2000-01-01T03:05:48.000Z</time>
      </trkpt>
      <trkpt lat="43.96603" lon="5.71633">
        <ele>749</ele>
        <time>2000-01-01T03:05:58.000Z</time>
      </trkpt>
      <trkpt lat="43.96598" lon="5.71632">
        <ele>750.3</ele>
        <time>2000-01-01T03:06:08.000Z</time>
      </trkpt>
      <trkpt lat="43.96594" lon="5.71623">
        <ele>753.7</ele>
        <time>2000-01-01T03:06:18.000Z</time>
      </trkpt>
      <trkpt lat="43.96588" lon="5.71615">
        <ele>760</ele>
        <time>2000-01-01T03:06:28.000Z</time>
      </trkpt>
      <trkpt lat="43.96588" lon="5.71612">
        <ele>757.9</ele>
        <time>2000-01-01T03:06:38.000Z</time>
      </trkpt>
      <trkpt lat="43.96582" lon="5.71601">
        <ele>762.2</ele>
        <time>2000-01-01T03:06:48.000Z</time>
      </trkpt>
      <trkpt lat="43.96581" lon="5.71596">
        <ele>763.9</ele>
        <time>2000-01-01T03:06:58.000Z</time>
      </trkpt>
      <trkpt lat="43.96582" lon="5.71591">
        <ele>765</ele>
        <time>2000-01-01T03:07:08.000Z</time>
      </trkpt>
      <trkpt lat="43.96582" lon="5.71588">
        <ele>766</ele>
        <time>2000-01-01T03:07:18.000Z</time>
      </trkpt>
      <trkpt lat="43.96581" lon="5.71584">
        <ele>767.4</ele>
        <time>2000-01-01T03:07:28.000Z</time>
      </trkpt>
      <trkpt lat="43.96576" lon="5.71582">
        <ele>769.3</ele>
        <time>2000-01-01T03:07:38.000Z</time>
      </trkpt>
      <trkpt lat="43.96573" lon="5.7158">
        <ele>770.7</ele>
        <time>2000-01-01T03:07:48.000Z</time>
      </trkpt>
      <trkpt lat="43.96572" lon="5.71578">
        <ele>771.6</ele>
        <time>2000-01-01T03:07:58.000Z</time>
      </trkpt>
      <trkpt lat="43.96571" lon="5.71574">
        <ele>773.2</ele>
        <time>2000-01-01T03:08:08.000Z</time>
      </trkpt>
      <trkpt lat="43.96571" lon="5.71569">
        <ele>777</ele>
        <time>2000-01-01T03:08:18.000Z</time>
      </trkpt>
      <trkpt lat="43.96567" lon="5.71557">
        <ele>779.5</ele>
        <time>2000-01-01T03:08:28.000Z</time>
      </trkpt>
      <trkpt lat="43.96565" lon="5.71553">
        <ele>781.2</ele>
        <time>2000-01-01T03:08:38.000Z</time>
      </trkpt>
      <trkpt lat="43.96565" lon="5.71546">
        <ele>783.7</ele>
        <time>2000-01-01T03:08:48.000Z</time>
      </trkpt>
      <trkpt lat="43.96564" lon="5.71544">
        <ele>786</ele>
        <time>2000-01-01T03:08:58.000Z</time>
      </trkpt>
      <trkpt lat="43.96567" lon="5.71537">
        <ele>786.6</ele>
        <time>2000-01-01T03:09:08.000Z</time>
      </trkpt>
      <trkpt lat="43.96569" lon="5.71536">
        <ele>786.6</ele>
        <time>2000-01-01T03:09:18.000Z</time>
      </trkpt>
      <trkpt lat="43.96569" lon="5.7153">
        <ele>788.8</ele>
        <time>2000-01-01T03:09:28.000Z</time>
      </trkpt>
      <trkpt lat="43.96567" lon="5.7152">
        <ele>798</ele>
        <time>2000-01-01T03:09:38.000Z</time>
      </trkpt>
      <trkpt lat="43.96564" lon="5.71513">
        <ele>796.3</ele>
        <time>2000-01-01T03:09:48.000Z</time>
      </trkpt>
      <trkpt lat="43.96564" lon="5.71498">
        <ele>801.7</ele>
        <time>2000-01-01T03:09:58.000Z</time>
      </trkpt>
      <trkpt lat="43.96558" lon="5.71495">
        <ele>804</ele>
        <time>2000-01-01T03:10:08.000Z</time>
      </trkpt>
      <trkpt lat="43.96556" lon="5.71485">
        <ele>804.2</ele>
        <time>2000-01-01T03:10:18.000Z</time>
      </trkpt>
      <trkpt lat="43.96554" lon="5.71479">
        <ele>804.9</ele>
        <time>2000-01-01T03:10:28.000Z</time>
      </trkpt>
      <trkpt lat="43.96554" lon="5.71476">
        <ele>805.3</ele>
        <time>2000-01-01T03:10:38.000Z</time>
      </trkpt>
      <trkpt lat="43.96547" lon="5.71468">
        <ele>803</ele>
        <time>2000-01-01T03:10:48.000Z</time>
      </trkpt>
      <trkpt lat="43.96538" lon="5.71465">
        <ele>804.5</ele>
        <time>2000-01-01T03:10:58.000Z</time>
      </trkpt>
      <trkpt lat="43.96524" lon="5.71457">
        <ele>803</ele>
        <time>2000-01-01T03:11:08.000Z</time>
      </trkpt>
      <trkpt lat="43.96526" lon="5.71451">
        <ele>803.4</ele>
        <time>2000-01-01T03:11:18.000Z</time>
      </trkpt>
      <trkpt lat="43.96527" lon="5.71446">
        <ele>803.8</ele>
        <time>2000-01-01T03:11:28.000Z</time>
      </trkpt>
      <trkpt lat="43.9653" lon="5.71441">
        <ele>804.3</ele>
        <time>2000-01-01T03:11:38.000Z</time>
      </trkpt>
      <trkpt lat="43.96531" lon="5.71434">
        <ele>804.5</ele>
        <time>2000-01-01T03:11:48.000Z</time>
      </trkpt>
      <trkpt lat="43.96533" lon="5.71428">
        <ele>804</ele>
        <time>2000-01-01T03:11:58.000Z</time>
      </trkpt>
      <trkpt lat="43.96534" lon="5.71421">
        <ele>804.9</ele>
        <time>2000-01-01T03:12:08.000Z</time>
      </trkpt>
      <trkpt lat="43.96536" lon="5.71415">
        <ele>805.2</ele>
        <time>2000-01-01T03:12:18.000Z</time>
      </trkpt>
      <trkpt lat="43.96538" lon="5.71401">
        <ele>804</ele>
        <time>2000-01-01T03:12:28.000Z</time>
      </trkpt>
      <trkpt lat="43.96538" lon="5.71394">
        <ele>805.8</ele>
        <time>2000-01-01T03:12:38.000Z</time>
      </trkpt>
      <trkpt lat="43.96539" lon="5.71388">
        <ele>806.1</ele>
        <time>2000-01-01T03:12:48.000Z</time>
      </trkpt>
      <trkpt lat="43.96541" lon="5.71382">
        <ele>806.6</ele>
        <time>2000-01-01T03:12:58.000Z</time>
      </trkpt>
      <trkpt lat="43.96543" lon="5.71369">
        <ele>807</ele>
        <time>2000-01-01T03:13:08.000Z</time>
      </trkpt>
      <trkpt lat="43.96543" lon="5.71363">
        <ele>807.7</ele>
        <time>2000-01-01T03:13:18.000Z</time>
      </trkpt>
      <trkpt lat="43.96546" lon="5.71344">
        <ele>808.7</ele>
        <time>2000-01-01T03:13:28.000Z</time>
      </trkpt>
      <trkpt lat="43.96546" lon="5.71338">
        <ele>808</ele>
        <time>2000-01-01T03:13:38.000Z</time>
      </trkpt>
      <trkpt lat="43.96551" lon="5.71305">
        <ele>810</ele>
        <time>2000-01-01T03:13:48.000Z</time>
      </trkpt>
      <trkpt lat="43.96558" lon="5.71289">
        <ele>811.4</ele>
        <time>2000-01-01T03:13:58.000Z</time>
      </trkpt>
      <trkpt lat="43.96561" lon="5.7127">
        <ele>811</ele>
        <time>2000-01-01T03:14:08.000Z</time>
      </trkpt>
      <trkpt lat="43.96565" lon="5.71256">
        <ele>812.4</ele>
        <time>2000-01-01T03:14:18.000Z</time>
      </trkpt>
      <trkpt lat="43.96571" lon="5.71243">
        <ele>810</ele>
        <time>2000-01-01T03:14:28.000Z</time>
      </trkpt>
      <trkpt lat="43.96573" lon="5.71226">
        <ele>812.3</ele>
        <time>2000-01-01T03:14:38.000Z</time>
      </trkpt>
      <trkpt lat="43.96579" lon="5.71194">
        <ele>810</ele>
        <time>2000-01-01T03:14:48.000Z</time>
      </trkpt>
      <trkpt lat="43.9659" lon="5.71164">
        <ele>808</ele>
        <time>2000-01-01T03:14:58.000Z</time>
      </trkpt>
      <trkpt lat="43.96599" lon="5.71133">
        <ele>807</ele>
        <time>2000-01-01T03:15:08.000Z</time>
      </trkpt>
      <trkpt lat="43.96602" lon="5.71125">
        <ele>808.2</ele>
        <time>2000-01-01T03:15:18.000Z</time>
      </trkpt>
      <trkpt lat="43.96605" lon="5.71115">
        <ele>807.5</ele>
        <time>2000-01-01T03:15:28.000Z</time>
      </trkpt>
      <trkpt lat="43.96609" lon="5.71096">
        <ele>806</ele>
        <time>2000-01-01T03:15:38.000Z</time>
      </trkpt>
      <trkpt lat="43.96612" lon="5.71086">
        <ele>804.5</ele>
        <time>2000-01-01T03:15:48.000Z</time>
      </trkpt>
      <trkpt lat="43.9662" lon="5.71067">
        <ele>808</ele>
        <time>2000-01-01T03:15:58.000Z</time>
      </trkpt>
      <trkpt lat="43.96621" lon="5.71053">
        <ele>806.3</ele>
        <time>2000-01-01T03:16:08.000Z</time>
      </trkpt>
      <trkpt lat="43.96619" lon="5.71045">
        <ele>807.4</ele>
        <time>2000-01-01T03:16:18.000Z</time>
      </trkpt>
      <trkpt lat="43.96619" lon="5.71029">
        <ele>811</ele>
        <time>2000-01-01T03:16:28.000Z</time>
      </trkpt>
      <trkpt lat="43.96622" lon="5.71021">
        <ele>811.3</ele>
        <time>2000-01-01T03:16:38.000Z</time>
      </trkpt>
      <trkpt lat="43.96622" lon="5.71014">
        <ele>813.1</ele>
        <time>2000-01-01T03:16:48.000Z</time>
      </trkpt>
      <trkpt lat="43.96623" lon="5.71011">
        <ele>813.8</ele>
        <time>2000-01-01T03:16:58.000Z</time>
      </trkpt>
      <trkpt lat="43.96629" lon="5.71002">
        <ele>816</ele>
        <time>2000-01-01T03:17:08.000Z</time>
      </trkpt>
      <trkpt lat="43.96633" lon="5.70994">
        <ele>817.3</ele>
        <time>2000-01-01T03:17:18.000Z</time>
      </trkpt>
      <trkpt lat="43.96635" lon="5.70988">
        <ele>818.4</ele>
        <time>2000-01-01T03:17:28.000Z</time>
      </trkpt>
      <trkpt lat="43.96636" lon="5.70984">
        <ele>819</ele>
        <time>2000-01-01T03:17:38.000Z</time>
      </trkpt>
      <trkpt lat="43.96636" lon="5.70978">
        <ele>820.1</ele>
        <time>2000-01-01T03:17:48.000Z</time>
      </trkpt>
      <trkpt lat="43.96635" lon="5.70975">
        <ele>822</ele>
        <time>2000-01-01T03:17:58.000Z</time>
      </trkpt>
      <trkpt lat="43.96635" lon="5.70969">
        <ele>821.9</ele>
        <time>2000-01-01T03:18:08.000Z</time>
      </trkpt>
      <trkpt lat="43.96637" lon="5.70964">
        <ele>822.6</ele>
        <time>2000-01-01T03:18:18.000Z</time>
      </trkpt>
      <trkpt lat="43.96639" lon="5.70961">
        <ele>823</ele>
        <time>2000-01-01T03:18:28.000Z</time>
      </trkpt>
      <trkpt lat="43.96641" lon="5.7095">
        <ele>827</ele>
        <time>2000-01-01T03:18:38.000Z</time>
      </trkpt>
      <trkpt lat="43.96641" lon="5.70947">
        <ele>825.4</ele>
        <time>2000-01-01T03:18:48.000Z</time>
      </trkpt>
      <trkpt lat="43.96642" lon="5.70943">
        <ele>826.1</ele>
        <time>2000-01-01T03:18:58.000Z</time>
      </trkpt>
      <trkpt lat="43.96642" lon="5.70937">
        <ele>827.4</ele>
        <time>2000-01-01T03:19:08.000Z</time>
      </trkpt>
      <trkpt lat="43.9664" lon="5.70928">
        <ele>829.5</ele>
        <time>2000-01-01T03:19:18.000Z</time>
      </trkpt>
      <trkpt lat="43.9664" lon="5.70922">
        <ele>830</ele>
        <time>2000-01-01T03:19:28.000Z</time>
      </trkpt>
      <trkpt lat="43.96639" lon="5.70919">
        <ele>831.5</ele>
        <time>2000-01-01T03:19:38.000Z</time>
      </trkpt>
      <trkpt lat="43.96637" lon="5.70917">
        <ele>832</ele>
        <time>2000-01-01T03:19:48.000Z</time>
      </trkpt>
      <trkpt lat="43.96636" lon="5.70914">
        <ele>832.6</ele>
        <time>2000-01-01T03:19:58.000Z</time>
      </trkpt>
      <trkpt lat="43.96634" lon="5.70912">
        <ele>833</ele>
        <time>2000-01-01T03:20:08.000Z</time>
      </trkpt>
      <trkpt lat="43.96632" lon="5.70906">
        <ele>834.2</ele>
        <time>2000-01-01T03:20:18.000Z</time>
      </trkpt>
      <trkpt lat="43.96632" lon="5.70899">
        <ele>836</ele>
        <time>2000-01-01T03:20:28.000Z</time>
      </trkpt>
      <trkpt lat="43.96634" lon="5.70892">
        <ele>836.6</ele>
        <time>2000-01-01T03:20:38.000Z</time>
      </trkpt>
      <trkpt lat="43.96638" lon="5.70886">
        <ele>837.5</ele>
        <time>2000-01-01T03:20:48.000Z</time>
      </trkpt>
      <trkpt lat="43.96643" lon="5.7088">
        <ele>838</ele>
        <time>2000-01-01T03:20:58.000Z</time>
      </trkpt>
      <trkpt lat="43.96644" lon="5.70876">
        <ele>839</ele>
        <time>2000-01-01T03:21:08.000Z</time>
      </trkpt>
      <trkpt lat="43.96648" lon="5.7087">
        <ele>839.1</ele>
        <time>2000-01-01T03:21:18.000Z</time>
      </trkpt>
      <trkpt lat="43.96649" lon="5.70866">
        <ele>839.6</ele>
        <time>2000-01-01T03:21:28.000Z</time>
      </trkpt>
      <trkpt lat="43.96652" lon="5.70861">
        <ele>840.1</ele>
        <time>2000-01-01T03:21:38.000Z</time>
      </trkpt>
      <trkpt lat="43.96653" lon="5.70858">
        <ele>840.4</ele>
        <time>2000-01-01T03:21:48.000Z</time>
      </trkpt>
      <trkpt lat="43.96653" lon="5.70847">
        <ele>843</ele>
        <time>2000-01-01T03:21:58.000Z</time>
      </trkpt>
      <trkpt lat="43.96654" lon="5.70843">
        <ele>842.5</ele>
        <time>2000-01-01T03:22:08.000Z</time>
      </trkpt>
      <trkpt lat="43.96654" lon="5.70839">
        <ele>843.1</ele>
        <time>2000-01-01T03:22:18.000Z</time>
      </trkpt>
      <trkpt lat="43.96657" lon="5.70826">
        <ele>844.8</ele>
        <time>2000-01-01T03:22:28.000Z</time>
      </trkpt>
      <trkpt lat="43.96657" lon="5.70823">
        <ele>845.2</ele>
        <time>2000-01-01T03:22:38.000Z</time>
      </trkpt>
      <trkpt lat="43.96658" lon="5.70818">
        <ele>847</ele>
        <time>2000-01-01T03:22:48.000Z</time>
      </trkpt>
      <trkpt lat="43.96663" lon="5.70799">
        <ele>847.9</ele>
        <time>2000-01-01T03:22:58.000Z</time>
      </trkpt>
      <trkpt lat="43.96663" lon="5.70795">
        <ele>848.4</ele>
        <time>2000-01-01T03:23:08.000Z</time>
      </trkpt>
      <trkpt lat="43.96665" lon="5.70786">
        <ele>850</ele>
        <time>2000-01-01T03:23:18.000Z</time>
      </trkpt>
      <trkpt lat="43.96666" lon="5.70784">
        <ele>849.4</ele>
        <time>2000-01-01T03:23:28.000Z</time>
      </trkpt>
      <trkpt lat="43.96669" lon="5.70772">
        <ele>850.5</ele>
        <time>2000-01-01T03:23:38.000Z</time>
      </trkpt>
      <trkpt lat="43.96669" lon="5.70768">
        <ele>851</ele>
        <time>2000-01-01T03:23:48.000Z</time>
      </trkpt>
      <trkpt lat="43.96674" lon="5.70756">
        <ele>852</ele>
        <time>2000-01-01T03:23:58.000Z</time>
      </trkpt>
      <trkpt lat="43.96676" lon="5.70746">
        <ele>853</ele>
        <time>2000-01-01T03:24:08.000Z</time>
      </trkpt>
      <trkpt lat="43.96676" lon="5.70702">
        <ele>857</ele>
        <time>2000-01-01T03:24:18.000Z</time>
      </trkpt>
      <trkpt lat="43.96678" lon="5.70691">
        <ele>857.2</ele>
        <time>2000-01-01T03:24:28.000Z</time>
      </trkpt>
      <trkpt lat="43.96678" lon="5.70685">
        <ele>857.5</ele>
        <time>2000-01-01T03:24:38.000Z</time>
      </trkpt>
      <trkpt lat="43.9668" lon="5.70675">
        <ele>859</ele>
        <time>2000-01-01T03:24:48.000Z</time>
      </trkpt>
      <trkpt lat="43.9668" lon="5.70668">
        <ele>858.4</ele>
        <time>2000-01-01T03:24:58.000Z</time>
      </trkpt>
      <trkpt lat="43.96679" lon="5.70665">
        <ele>858.6</ele>
        <time>2000-01-01T03:25:08.000Z</time>
      </trkpt>
      <trkpt lat="43.9668" lon="5.70659">
        <ele>858.9</ele>
        <time>2000-01-01T03:25:18.000Z</time>
      </trkpt>
      <trkpt lat="43.96682" lon="5.70653">
        <ele>859.2</ele>
        <time>2000-01-01T03:25:28.000Z</time>
      </trkpt>
      <trkpt lat="43.96685" lon="5.70647">
        <ele>860</ele>
        <time>2000-01-01T03:25:38.000Z</time>
      </trkpt>
      <trkpt lat="43.9669" lon="5.70634">
        <ele>860.4</ele>
        <time>2000-01-01T03:25:48.000Z</time>
      </trkpt>
      <trkpt lat="43.96693" lon="5.70631">
        <ele>860.6</ele>
        <time>2000-01-01T03:25:58.000Z</time>
      </trkpt>
      <trkpt lat="43.96701" lon="5.70625">
        <ele>861</ele>
        <time>2000-01-01T03:26:08.000Z</time>
      </trkpt>
      <trkpt lat="43.96716" lon="5.70617">
        <ele>862.4</ele>
        <time>2000-01-01T03:26:18.000Z</time>
      </trkpt>
      <trkpt lat="43.96721" lon="5.70616">
        <ele>862</ele>
        <time>2000-01-01T03:26:28.000Z</time>
      </trkpt>
      <trkpt lat="43.96728" lon="5.70616">
        <ele>862.6</ele>
        <time>2000-01-01T03:26:38.000Z</time>
      </trkpt>
      <trkpt lat="43.96732" lon="5.70617">
        <ele>862.6</ele>
        <time>2000-01-01T03:26:48.000Z</time>
      </trkpt>
      <trkpt lat="43.96736" lon="5.70616">
        <ele>862.6</ele>
        <time>2000-01-01T03:26:58.000Z</time>
      </trkpt>
      <trkpt lat="43.96747" lon="5.7062">
        <ele>862</ele>
        <time>2000-01-01T03:27:08.000Z</time>
      </trkpt>
      <trkpt lat="43.96752" lon="5.70623">
        <ele>862.1</ele>
        <time>2000-01-01T03:27:18.000Z</time>
      </trkpt>
      <trkpt lat="43.96759" lon="5.70626">
        <ele>861.9</ele>
        <time>2000-01-01T03:27:28.000Z</time>
      </trkpt>
      <trkpt lat="43.96775" lon="5.70628">
        <ele>862</ele>
        <time>2000-01-01T03:27:38.000Z</time>
      </trkpt>
      <trkpt lat="43.9678" lon="5.70627">
        <ele>861.9</ele>
        <time>2000-01-01T03:27:48.000Z</time>
      </trkpt>
      <trkpt lat="43.96786" lon="5.70628">
        <ele>861.8</ele>
        <time>2000-01-01T03:27:58.000Z</time>
      </trkpt>
      <trkpt lat="43.96794" lon="5.70632">
        <ele>861</ele>
        <time>2000-01-01T03:28:08.000Z</time>
      </trkpt>
      <trkpt lat="43.968" lon="5.70633">
        <ele>861.4</ele>
        <time>2000-01-01T03:28:18.000Z</time>
      </trkpt>
      <trkpt lat="43.96819" lon="5.70639">
        <ele>861</ele>
        <time>2000-01-01T03:28:28.000Z</time>
      </trkpt>
      <trkpt lat="43.96835" lon="5.70641">
        <ele>859.7</ele>
        <time>2000-01-01T03:28:38.000Z</time>
      </trkpt>
      <trkpt lat="43.96846" lon="5.70641">
        <ele>859</ele>
        <time>2000-01-01T03:28:48.000Z</time>
      </trkpt>
      <trkpt lat="43.96854" lon="5.70643">
        <ele>858.9</ele>
        <time>2000-01-01T03:28:58.000Z</time>
      </trkpt>
      <trkpt lat="43.96864" lon="5.70641">
        <ele>858.8</ele>
        <time>2000-01-01T03:29:08.000Z</time>
      </trkpt>
      <trkpt lat="43.96876" lon="5.70641">
        <ele>859</ele>
        <time>2000-01-01T03:29:18.000Z</time>
      </trkpt>
      <trkpt lat="43.96888" lon="5.70639">
        <ele>859</ele>
        <time>2000-01-01T03:29:28.000Z</time>
      </trkpt>
      <trkpt lat="43.96905" lon="5.70633">
        <ele>859</ele>
        <time>2000-01-01T03:29:38.000Z</time>
      </trkpt>
      <trkpt lat="43.96911" lon="5.70632">
        <ele>858.9</ele>
        <time>2000-01-01T03:29:48.000Z</time>
      </trkpt>
      <trkpt lat="43.96916" lon="5.7063">
        <ele>859</ele>
        <time>2000-01-01T03:29:58.000Z</time>
      </trkpt>
      <trkpt lat="43.96921" lon="5.70627">
        <ele>859.2</ele>
        <time>2000-01-01T03:30:08.000Z</time>
      </trkpt>
      <trkpt lat="43.96926" lon="5.70626">
        <ele>859</ele>
        <time>2000-01-01T03:30:18.000Z</time>
      </trkpt>
      <trkpt lat="43.96932" lon="5.70626">
        <ele>859.1</ele>
        <time>2000-01-01T03:30:28.000Z</time>
      </trkpt>
      <trkpt lat="43.96939" lon="5.70629">
        <ele>858.8</ele>
        <time>2000-01-01T03:30:38.000Z</time>
      </trkpt>
      <trkpt lat="43.96941" lon="5.70629">
        <ele>858.8</ele>
        <time>2000-01-01T03:30:48.000Z</time>
      </trkpt>
      <trkpt lat="43.96947" lon="5.70631">
        <ele>858</ele>
        <time>2000-01-01T03:30:58.000Z</time>
      </trkpt>
      <trkpt lat="43.96956" lon="5.70632">
        <ele>858.1</ele>
        <time>2000-01-01T03:31:08.000Z</time>
      </trkpt>
      <trkpt lat="43.96974" lon="5.70637">
        <ele>858</ele>
        <time>2000-01-01T03:31:18.000Z</time>
      </trkpt>
      <trkpt lat="43.96986" lon="5.70639">
        <ele>857</ele>
        <time>2000-01-01T03:31:28.000Z</time>
      </trkpt>
      <trkpt lat="43.96993" lon="5.70639">
        <ele>857</ele>
        <time>2000-01-01T03:31:38.000Z</time>
      </trkpt>
      <trkpt lat="43.97006" lon="5.70641">
        <ele>857</ele>
        <time>2000-01-01T03:31:48.000Z</time>
      </trkpt>
      <trkpt lat="43.9701" lon="5.70641">
        <ele>856.8</ele>
        <time>2000-01-01T03:31:58.000Z</time>
      </trkpt>
      <trkpt lat="43.97027" lon="5.70644">
        <ele>857</ele>
        <time>2000-01-01T03:32:08.000Z</time>
      </trkpt>
      <trkpt lat="43.97038" lon="5.70644">
        <ele>857</ele>
        <time>2000-01-01T03:32:18.000Z</time>
      </trkpt>
      <trkpt lat="43.97044" lon="5.70645">
        <ele>857.1</ele>
        <time>2000-01-01T03:32:28.000Z</time>
      </trkpt>
      <trkpt lat="43.97101" lon="5.70645">
        <ele>859</ele>
        <time>2000-01-01T03:32:38.000Z</time>
      </trkpt>
      <trkpt lat="43.97107" lon="5.70646">
        <ele>859.1</ele>
        <time>2000-01-01T03:32:48.000Z</time>
      </trkpt>
      <trkpt lat="43.97119" lon="5.70646">
        <ele>859.2</ele>
        <time>2000-01-01T03:32:58.000Z</time>
      </trkpt>
      <trkpt lat="43.97124" lon="5.70647">
        <ele>859</ele>
        <time>2000-01-01T03:33:08.000Z</time>
      </trkpt>
      <trkpt lat="43.97135" lon="5.70647">
        <ele>859.1</ele>
        <time>2000-01-01T03:33:18.000Z</time>
      </trkpt>
      <trkpt lat="43.97146" lon="5.70645">
        <ele>860</ele>
        <time>2000-01-01T03:33:28.000Z</time>
      </trkpt>
      <trkpt lat="43.97151" lon="5.70645">
        <ele>859.8</ele>
        <time>2000-01-01T03:33:38.000Z</time>
      </trkpt>
      <trkpt lat="43.97157" lon="5.70643">
        <ele>860.2</ele>
        <time>2000-01-01T03:33:48.000Z</time>
      </trkpt>
      <trkpt lat="43.97174" lon="5.7064">
        <ele>860</ele>
        <time>2000-01-01T03:33:58.000Z</time>
      </trkpt>
      <trkpt lat="43.9718" lon="5.7064">
        <ele>860.4</ele>
        <time>2000-01-01T03:34:08.000Z</time>
      </trkpt>
      <trkpt lat="43.97186" lon="5.70638">
        <ele>860.4</ele>
        <time>2000-01-01T03:34:18.000Z</time>
      </trkpt>
      <trkpt lat="43.97192" lon="5.70638">
        <ele>860.2</ele>
        <time>2000-01-01T03:34:28.000Z</time>
      </trkpt>
      <trkpt lat="43.97209" lon="5.70632">
        <ele>860</ele>
        <time>2000-01-01T03:34:38.000Z</time>
      </trkpt>
      <trkpt lat="43.97215" lon="5.70631">
        <ele>859.9</ele>
        <time>2000-01-01T03:34:48.000Z</time>
      </trkpt>
      <trkpt lat="43.97235" lon="5.70625">
        <ele>860</ele>
        <time>2000-01-01T03:34:58.000Z</time>
      </trkpt>
      <trkpt lat="43.97253" lon="5.70622">
        <ele>859</ele>
        <time>2000-01-01T03:35:08.000Z</time>
      </trkpt>
      <trkpt lat="43.97265" lon="5.70617">
        <ele>859</ele>
        <time>2000-01-01T03:35:18.000Z</time>
      </trkpt>
      <trkpt lat="43.97272" lon="5.70615">
        <ele>858.2</ele>
        <time>2000-01-01T03:35:28.000Z</time>
      </trkpt>
      <trkpt lat="43.97278" lon="5.70614">
        <ele>857.9</ele>
        <time>2000-01-01T03:35:38.000Z</time>
      </trkpt>
      <trkpt lat="43.973" lon="5.70614">
        <ele>858</ele>
        <time>2000-01-01T03:35:48.000Z</time>
      </trkpt>
      <trkpt lat="43.97306" lon="5.70613">
        <ele>857.9</ele>
        <time>2000-01-01T03:35:58.000Z</time>
      </trkpt>
      <trkpt lat="43.97323" lon="5.70605">
        <ele>858</ele>
        <time>2000-01-01T03:36:08.000Z</time>
      </trkpt>
      <trkpt lat="43.97329" lon="5.70603">
        <ele>858.6</ele>
        <time>2000-01-01T03:36:18.000Z</time>
      </trkpt>
      <trkpt lat="43.9735" lon="5.70592">
        <ele>858</ele>
        <time>2000-01-01T03:36:28.000Z</time>
      </trkpt>
      <trkpt lat="43.97356" lon="5.7059">
        <ele>860.1</ele>
        <time>2000-01-01T03:36:38.000Z</time>
      </trkpt>
      <trkpt lat="43.97361" lon="5.7059">
        <ele>860.5</ele>
        <time>2000-01-01T03:36:48.000Z</time>
      </trkpt>
      <trkpt lat="43.97376" lon="5.70588">
        <ele>859</ele>
        <time>2000-01-01T03:36:58.000Z</time>
      </trkpt>
      <trkpt lat="43.97385" lon="5.70588">
        <ele>862.1</ele>
        <time>2000-01-01T03:37:08.000Z</time>
      </trkpt>
      <trkpt lat="43.97389" lon="5.70587">
        <ele>862.3</ele>
        <time>2000-01-01T03:37:18.000Z</time>
      </trkpt>
      <trkpt lat="43.97394" lon="5.70587">
        <ele>862.6</ele>
        <time>2000-01-01T03:37:28.000Z</time>
      </trkpt>
      <trkpt lat="43.97399" lon="5.70588">
        <ele>862</ele>
        <time>2000-01-01T03:37:38.000Z</time>
      </trkpt>
      <trkpt lat="43.97414" lon="5.70588">
        <ele>864.1</ele>
        <time>2000-01-01T03:37:48.000Z</time>
      </trkpt>
      <trkpt lat="43.97445" lon="5.70594">
        <ele>865</ele>
        <time>2000-01-01T03:37:58.000Z</time>
      </trkpt>
      <trkpt lat="43.9745" lon="5.70593">
        <ele>867.2</ele>
        <time>2000-01-01T03:38:08.000Z</time>
      </trkpt>
      <trkpt lat="43.97465" lon="5.70595">
        <ele>867</ele>
        <time>2000-01-01T03:38:18.000Z</time>
      </trkpt>
      <trkpt lat="43.9747" lon="5.70595">
        <ele>869.1</ele>
        <time>2000-01-01T03:38:28.000Z</time>
      </trkpt>
      <trkpt lat="43.97474" lon="5.70594">
        <ele>869.3</ele>
        <time>2000-01-01T03:38:38.000Z</time>
      </trkpt>
      <trkpt lat="43.97484" lon="5.70594">
        <ele>869.8</ele>
        <time>2000-01-01T03:38:48.000Z</time>
      </trkpt>
      <trkpt lat="43.97496" lon="5.70597">
        <ele>869</ele>
        <time>2000-01-01T03:38:58.000Z</time>
      </trkpt>
      <trkpt lat="43.97506" lon="5.70601">
        <ele>871.5</ele>
        <time>2000-01-01T03:39:08.000Z</time>
      </trkpt>
      <trkpt lat="43.97524" lon="5.70605">
        <ele>872</ele>
        <time>2000-01-01T03:39:18.000Z</time>
      </trkpt>
      <trkpt lat="43.97528" lon="5.70607">
        <ele>872.7</ele>
        <time>2000-01-01T03:39:28.000Z</time>
      </trkpt>
      <trkpt lat="43.97543" lon="5.70611">
        <ele>873</ele>
        <time>2000-01-01T03:39:38.000Z</time>
      </trkpt>
      <trkpt lat="43.97548" lon="5.70611">
        <ele>874.4</ele>
        <time>2000-01-01T03:39:48.000Z</time>
      </trkpt>
      <trkpt lat="43.97559" lon="5.70609">
        <ele>875</ele>
        <time>2000-01-01T03:39:58.000Z</time>
      </trkpt>
      <trkpt lat="43.97564" lon="5.70607">
        <ele>874</ele>
        <time>2000-01-01T03:40:08.000Z</time>
      </trkpt>
      <trkpt lat="43.97575" lon="5.70605">
        <ele>875.6</ele>
        <time>2000-01-01T03:40:18.000Z</time>
      </trkpt>
      <trkpt lat="43.9758" lon="5.70605">
        <ele>875.9</ele>
        <time>2000-01-01T03:40:28.000Z</time>
      </trkpt>
      <trkpt lat="43.97592" lon="5.70603">
        <ele>875</ele>
        <time>2000-01-01T03:40:38.000Z</time>
      </trkpt>
      <trkpt lat="43.97598" lon="5.70603">
        <ele>876.1</ele>
        <time>2000-01-01T03:40:48.000Z</time>
      </trkpt>
      <trkpt lat="43.97604" lon="5.70601">
        <ele>876.1</ele>
        <time>2000-01-01T03:40:58.000Z</time>
      </trkpt>
      <trkpt lat="43.97617" lon="5.70595">
        <ele>875</ele>
        <time>2000-01-01T03:41:08.000Z</time>
      </trkpt>
      <trkpt lat="43.97622" lon="5.70592">
        <ele>876</ele>
        <time>2000-01-01T03:41:18.000Z</time>
      </trkpt>
      <trkpt lat="43.97638" lon="5.70589">
        <ele>875</ele>
        <time>2000-01-01T03:41:28.000Z</time>
      </trkpt>
      <trkpt lat="43.97651" lon="5.70576">
        <ele>876.6</ele>
        <time>2000-01-01T03:41:38.000Z</time>
      </trkpt>
      <trkpt lat="43.97654" lon="5.70571">
        <ele>874</ele>
        <time>2000-01-01T03:41:48.000Z</time>
      </trkpt>
      <trkpt lat="43.97658" lon="5.70555">
        <ele>876.3</ele>
        <time>2000-01-01T03:41:58.000Z</time>
      </trkpt>
      <trkpt lat="43.97659" lon="5.70546">
        <ele>875.6</ele>
        <time>2000-01-01T03:42:08.000Z</time>
      </trkpt>
      <trkpt lat="43.97663" lon="5.70538">
        <ele>874</ele>
        <time>2000-01-01T03:42:18.000Z</time>
      </trkpt>
      <trkpt lat="43.97668" lon="5.70533">
        <ele>875.5</ele>
        <time>2000-01-01T03:42:28.000Z</time>
      </trkpt>
      <trkpt lat="43.97674" lon="5.70529">
        <ele>875.6</ele>
        <time>2000-01-01T03:42:38.000Z</time>
      </trkpt>
      <trkpt lat="43.97679" lon="5.70526">
        <ele>875.7</ele>
        <time>2000-01-01T03:42:48.000Z</time>
      </trkpt>
      <trkpt lat="43.97684" lon="5.70524">
        <ele>875</ele>
        <time>2000-01-01T03:42:58.000Z</time>
      </trkpt>
      <trkpt lat="43.97689" lon="5.70523">
        <ele>876.2</ele>
        <time>2000-01-01T03:43:08.000Z</time>
      </trkpt>
      <trkpt lat="43.97695" lon="5.70523">
        <ele>876.7</ele>
        <time>2000-01-01T03:43:18.000Z</time>
      </trkpt>
      <trkpt lat="43.97699" lon="5.70524">
        <ele>877.2</ele>
        <time>2000-01-01T03:43:28.000Z</time>
      </trkpt>
      <trkpt lat="43.97714" lon="5.70524">
        <ele>878</ele>
        <time>2000-01-01T03:43:38.000Z</time>
      </trkpt>
      <trkpt lat="43.97728" lon="5.70518">
        <ele>879.2</ele>
        <time>2000-01-01T03:43:48.000Z</time>
      </trkpt>
      <trkpt lat="43.97733" lon="5.70518">
        <ele>879</ele>
        <time>2000-01-01T03:43:58.000Z</time>
      </trkpt>
      <trkpt lat="43.97747" lon="5.7052">
        <ele>880.3</ele>
        <time>2000-01-01T03:44:08.000Z</time>
      </trkpt>
      <trkpt lat="43.97756" lon="5.70524">
        <ele>880</ele>
        <time>2000-01-01T03:44:18.000Z</time>
      </trkpt>
      <trkpt lat="43.9776" lon="5.70527">
        <ele>881.3</ele>
        <time>2000-01-01T03:44:28.000Z</time>
      </trkpt>
      <trkpt lat="43.97764" lon="5.70529">
        <ele>881.6</ele>
        <time>2000-01-01T03:44:38.000Z</time>
      </trkpt>
      <trkpt lat="43.97769" lon="5.7053">
        <ele>881.8</ele>
        <time>2000-01-01T03:44:48.000Z</time>
      </trkpt>
      <trkpt lat="43.97778" lon="5.70529">
        <ele>881</ele>
        <time>2000-01-01T03:44:58.000Z</time>
      </trkpt>
      <trkpt lat="43.97796" lon="5.70529">
        <ele>882.7</ele>
        <time>2000-01-01T03:45:08.000Z</time>
      </trkpt>
      <trkpt lat="43.97801" lon="5.7053">
        <ele>882</ele>
        <time>2000-01-01T03:45:18.000Z</time>
      </trkpt>
      <trkpt lat="43.97805" lon="5.70532">
        <ele>883</ele>
        <time>2000-01-01T03:45:28.000Z</time>
      </trkpt>
      <trkpt lat="43.9781" lon="5.70533">
        <ele>883.1</ele>
        <time>2000-01-01T03:45:38.000Z</time>
      </trkpt>
      <trkpt lat="43.97815" lon="5.70533">
        <ele>883.3</ele>
        <time>2000-01-01T03:45:48.000Z</time>
      </trkpt>
      <trkpt lat="43.97821" lon="5.70531">
        <ele>883</ele>
        <time>2000-01-01T03:45:58.000Z</time>
      </trkpt>
      <trkpt lat="43.97826" lon="5.70528">
        <ele>883.7</ele>
        <time>2000-01-01T03:46:08.000Z</time>
      </trkpt>
      <trkpt lat="43.9783" lon="5.70523">
        <ele>884</ele>
        <time>2000-01-01T03:46:18.000Z</time>
      </trkpt>
      <trkpt lat="43.97835" lon="5.70519">
        <ele>884.5</ele>
        <time>2000-01-01T03:46:28.000Z</time>
      </trkpt>
      <trkpt lat="43.97846" lon="5.70508">
        <ele>885</ele>
        <time>2000-01-01T03:46:38.000Z</time>
      </trkpt>
      <trkpt lat="43.9785" lon="5.70505">
        <ele>886.5</ele>
        <time>2000-01-01T03:46:48.000Z</time>
      </trkpt>
      <trkpt lat="43.97857" lon="5.70497">
        <ele>887.5</ele>
        <time>2000-01-01T03:46:58.000Z</time>
      </trkpt>
      <trkpt lat="43.97859" lon="5.70492">
        <ele>887.5</ele>
        <time>2000-01-01T03:47:08.000Z</time>
      </trkpt>
      <trkpt lat="43.9786" lon="5.70486">
        <ele>885</ele>
        <time>2000-01-01T03:47:18.000Z</time>
      </trkpt>
      <trkpt lat="43.97859" lon="5.70479">
        <ele>887.1</ele>
        <time>2000-01-01T03:47:28.000Z</time>
      </trkpt>
      <trkpt lat="43.97859" lon="5.70471">
        <ele>886.9</ele>
        <time>2000-01-01T03:47:38.000Z</time>
      </trkpt>
      <trkpt lat="43.97861" lon="5.70462">
        <ele>886.6</ele>
        <time>2000-01-01T03:47:48.000Z</time>
      </trkpt>
      <trkpt lat="43.97862" lon="5.70453">
        <ele>885</ele>
        <time>2000-01-01T03:47:58.000Z</time>
      </trkpt>
      <trkpt lat="43.97865" lon="5.70444">
        <ele>886.1</ele>
        <time>2000-01-01T03:48:08.000Z</time>
      </trkpt>
      <trkpt lat="43.9787" lon="5.70438">
        <ele>885.9</ele>
        <time>2000-01-01T03:48:18.000Z</time>
      </trkpt>
      <trkpt lat="43.97877" lon="5.70435">
        <ele>885</ele>
        <time>2000-01-01T03:48:28.000Z</time>
      </trkpt>
      <trkpt lat="43.97883" lon="5.70434">
        <ele>886.3</ele>
        <time>2000-01-01T03:48:38.000Z</time>
      </trkpt>
      <trkpt lat="43.97888" lon="5.70431">
        <ele>886.5</ele>
        <time>2000-01-01T03:48:48.000Z</time>
      </trkpt>
      <trkpt lat="43.97899" lon="5.70429">
        <ele>885</ele>
        <time>2000-01-01T03:48:58.000Z</time>
      </trkpt>
      <trkpt lat="43.97905" lon="5.70427">
        <ele>887.2</ele>
        <time>2000-01-01T03:49:08.000Z</time>
      </trkpt>
      <trkpt lat="43.97914" lon="5.70417">
        <ele>886.9</ele>
        <time>2000-01-01T03:49:18.000Z</time>
      </trkpt>
      <trkpt lat="43.97927" lon="5.70409">
        <ele>885</ele>
        <time>2000-01-01T03:49:28.000Z</time>
      </trkpt>
      <trkpt lat="43.97931" lon="5.70405">
        <ele>887</ele>
        <time>2000-01-01T03:49:38.000Z</time>
      </trkpt>
      <trkpt lat="43.97935" lon="5.70399">
        <ele>886.6</ele>
        <time>2000-01-01T03:49:48.000Z</time>
      </trkpt>
      <trkpt lat="43.9794" lon="5.70394">
        <ele>886.4</ele>
        <time>2000-01-01T03:49:58.000Z</time>
      </trkpt>
      <trkpt lat="43.97957" lon="5.70385">
        <ele>885</ele>
        <time>2000-01-01T03:50:08.000Z</time>
      </trkpt>
      <trkpt lat="43.97963" lon="5.70383">
        <ele>884.6</ele>
        <time>2000-01-01T03:50:18.000Z</time>
      </trkpt>
      <trkpt lat="43.97969" lon="5.70379">
        <ele>884</ele>
        <time>2000-01-01T03:50:28.000Z</time>
      </trkpt>
      <trkpt lat="43.97975" lon="5.70376">
        <ele>883.5</ele>
        <time>2000-01-01T03:50:38.000Z</time>
      </trkpt>
      <trkpt lat="43.97981" lon="5.70374">
        <ele>882</ele>
        <time>2000-01-01T03:50:48.000Z</time>
      </trkpt>
      <trkpt lat="43.97987" lon="5.70374">
        <ele>882.6</ele>
        <time>2000-01-01T03:50:58.000Z</time>
      </trkpt>
      <trkpt lat="43.9799" lon="5.70373">
        <ele>882.3</ele>
        <time>2000-01-01T03:51:08.000Z</time>
      </trkpt>
      <trkpt lat="43.97994" lon="5.70368">
        <ele>881.4</ele>
        <time>2000-01-01T03:51:18.000Z</time>
      </trkpt>
      <trkpt lat="43.97996" lon="5.70361">
        <ele>880</ele>
        <time>2000-01-01T03:51:28.000Z</time>
      </trkpt>
      <trkpt lat="43.98004" lon="5.7035">
        <ele>876.5</ele>
        <time>2000-01-01T03:51:38.000Z</time>
      </trkpt>
      <trkpt lat="43.98013" lon="5.70341">
        <ele>873</ele>
        <time>2000-01-01T03:51:48.000Z</time>
      </trkpt>
      <trkpt lat="43.98038" lon="5.70324">
        <ele>865</ele>
        <time>2000-01-01T03:51:58.000Z</time>
      </trkpt>
      <trkpt lat="43.98052" lon="5.7031">
        <ele>859.7</ele>
        <time>2000-01-01T03:52:08.000Z</time>
      </trkpt>
      <trkpt lat="43.98057" lon="5.70306">
        <ele>855</ele>
        <time>2000-01-01T03:52:18.000Z</time>
      </trkpt>
      <trkpt lat="43.98061" lon="5.70301">
        <ele>855.1</ele>
        <time>2000-01-01T03:52:28.000Z</time>
      </trkpt>
      <trkpt lat="43.98068" lon="5.70294">
        <ele>851</ele>
        <time>2000-01-01T03:52:38.000Z</time>
      </trkpt>
      <trkpt lat="43.98091" lon="5.70282">
        <ele>843</ele>
        <time>2000-01-01T03:52:48.000Z</time>
      </trkpt>
      <trkpt lat="43.98102" lon="5.70274">
        <ele>842</ele>
        <time>2000-01-01T03:52:58.000Z</time>
      </trkpt>
      <trkpt lat="43.98109" lon="5.70272">
        <ele>840</ele>
        <time>2000-01-01T03:53:08.000Z</time>
      </trkpt>
      <trkpt lat="43.98116" lon="5.70273">
        <ele>841.2</ele>
        <time>2000-01-01T03:53:18.000Z</time>
      </trkpt>
      <trkpt lat="43.98123" lon="5.7027">
        <ele>839.6</ele>
        <time>2000-01-01T03:53:28.000Z</time>
      </trkpt>
      <trkpt lat="43.9813" lon="5.70268">
        <ele>837</ele>
        <time>2000-01-01T03:53:38.000Z</time>
      </trkpt>
      <trkpt lat="43.98147" lon="5.70265">
        <ele>835.4</ele>
        <time>2000-01-01T03:53:48.000Z</time>
      </trkpt>
      <trkpt lat="43.98156" lon="5.70265">
        <ele>834</ele>
        <time>2000-01-01T03:53:58.000Z</time>
      </trkpt>
      <trkpt lat="43.9816" lon="5.70266">
        <ele>833.6</ele>
        <time>2000-01-01T03:54:08.000Z</time>
      </trkpt>
      <trkpt lat="43.98167" lon="5.70268">
        <ele>833.2</ele>
        <time>2000-01-01T03:54:18.000Z</time>
      </trkpt>
      <trkpt lat="43.9817" lon="5.7027">
        <ele>833.5</ele>
        <time>2000-01-01T03:54:28.000Z</time>
      </trkpt>
      <trkpt lat="43.98172" lon="5.70273">
        <ele>834.2</ele>
        <time>2000-01-01T03:54:38.000Z</time>
      </trkpt>
      <trkpt lat="43.98178" lon="5.70273">
        <ele>834</ele>
        <time>2000-01-01T03:54:48.000Z</time>
      </trkpt>
      <trkpt lat="43.98197" lon="5.70262">
        <ele>828</ele>
        <time>2000-01-01T03:54:58.000Z</time>
      </trkpt>
      <trkpt lat="43.982" lon="5.70259">
        <ele>827.6</ele>
        <time>2000-01-01T03:55:08.000Z</time>
      </trkpt>
      <trkpt lat="43.98205" lon="5.70256">
        <ele>826.3</ele>
        <time>2000-01-01T03:55:18.000Z</time>
      </trkpt>
      <trkpt lat="43.98208" lon="5.70253">
        <ele>825.1</ele>
        <time>2000-01-01T03:55:28.000Z</time>
      </trkpt>
      <trkpt lat="43.98212" lon="5.70247">
        <ele>822.9</ele>
        <time>2000-01-01T03:55:38.000Z</time>
      </trkpt>
      <trkpt lat="43.98223" lon="5.70237">
        <ele>817</ele>
        <time>2000-01-01T03:55:48.000Z</time>
      </trkpt>
      <trkpt lat="43.98229" lon="5.70213">
        <ele>815.3</ele>
        <time>2000-01-01T03:55:58.000Z</time>
      </trkpt>
      <trkpt lat="43.98234" lon="5.70207">
        <ele>815</ele>
        <time>2000-01-01T03:56:08.000Z</time>
      </trkpt>
      <trkpt lat="43.98239" lon="5.70203">
        <ele>815.3</ele>
        <time>2000-01-01T03:56:18.000Z</time>
      </trkpt>
      <trkpt lat="43.98243" lon="5.70198">
        <ele>815.3</ele>
        <time>2000-01-01T03:56:28.000Z</time>
      </trkpt>
      <trkpt lat="43.98245" lon="5.70197">
        <ele>815.5</ele>
        <time>2000-01-01T03:56:38.000Z</time>
      </trkpt>
      <trkpt lat="43.98254" lon="5.70197">
        <ele>816</ele>
        <time>2000-01-01T03:56:48.000Z</time>
      </trkpt>
      <trkpt lat="43.98259" lon="5.70198">
        <ele>816.7</ele>
        <time>2000-01-01T03:56:58.000Z</time>
      </trkpt>
      <trkpt lat="43.98264" lon="5.702">
        <ele>817.2</ele>
        <time>2000-01-01T03:57:08.000Z</time>
      </trkpt>
      <trkpt lat="43.98267" lon="5.70204">
        <ele>817.9</ele>
        <time>2000-01-01T03:57:18.000Z</time>
      </trkpt>
      <trkpt lat="43.98274" lon="5.70209">
        <ele>817</ele>
        <time>2000-01-01T03:57:28.000Z</time>
      </trkpt>
      <trkpt lat="43.98278" lon="5.70211">
        <ele>820</ele>
        <time>2000-01-01T03:57:38.000Z</time>
      </trkpt>
      <trkpt lat="43.98292" lon="5.70215">
        <ele>821.5</ele>
        <time>2000-01-01T03:57:48.000Z</time>
      </trkpt>
      <trkpt lat="43.98297" lon="5.70227">
        <ele>822</ele>
        <time>2000-01-01T03:57:58.000Z</time>
      </trkpt>
      <trkpt lat="43.98301" lon="5.70232">
        <ele>825.2</ele>
        <time>2000-01-01T03:58:08.000Z</time>
      </trkpt>
      <trkpt lat="43.98304" lon="5.70233">
        <ele>825.6</ele>
        <time>2000-01-01T03:58:18.000Z</time>
      </trkpt>
      <trkpt lat="43.98308" lon="5.7023">
        <ele>825.1</ele>
        <time>2000-01-01T03:58:28.000Z</time>
      </trkpt>
      <trkpt lat="43.98313" lon="5.7023">
        <ele>825.3</ele>
        <time>2000-01-01T03:58:38.000Z</time>
      </trkpt>
      <trkpt lat="43.98318" lon="5.70231">
        <ele>824</ele>
        <time>2000-01-01T03:58:48.000Z</time>
      </trkpt>
      <trkpt lat="43.98323" lon="5.70231">
        <ele>826.1</ele>
        <time>2000-01-01T03:58:58.000Z</time>
      </trkpt>
      <trkpt lat="43.98331" lon="5.70233">
        <ele>826.8</ele>
        <time>2000-01-01T03:59:08.000Z</time>
      </trkpt>
      <trkpt lat="43.98336" lon="5.70236">
        <ele>827.4</ele>
        <time>2000-01-01T03:59:18.000Z</time>
      </trkpt>
      <trkpt lat="43.9834" lon="5.70237">
        <ele>826</ele>
        <time>2000-01-01T03:59:28.000Z</time>
      </trkpt>
      <trkpt lat="43.98346" lon="5.70241">
        <ele>828.1</ele>
        <time>2000-01-01T03:59:38.000Z</time>
      </trkpt>
      <trkpt lat="43.9835" lon="5.70245">
        <ele>828.6</ele>
        <time>2000-01-01T03:59:48.000Z</time>
      </trkpt>
      <trkpt lat="43.98352" lon="5.70248">
        <ele>829</ele>
        <time>2000-01-01T03:59:58.000Z</time>
      </trkpt>
      <trkpt lat="43.98354" lon="5.70254">
        <ele>830</ele>
        <time>2000-01-01T04:00:08.000Z</time>
      </trkpt>
      <trkpt lat="43.98354" lon="5.70257">
        <ele>829</ele>
        <time>2000-01-01T04:00:18.000Z</time>
      </trkpt>
      <trkpt lat="43.98355" lon="5.7026">
        <ele>831</ele>
        <time>2000-01-01T04:00:28.000Z</time>
      </trkpt>
      <trkpt lat="43.98355" lon="5.70263">
        <ele>831.6</ele>
        <time>2000-01-01T04:00:38.000Z</time>
      </trkpt>
      <trkpt lat="43.98358" lon="5.7027">
        <ele>832.7</ele>
        <time>2000-01-01T04:00:48.000Z</time>
      </trkpt>
      <trkpt lat="43.98358" lon="5.70273">
        <ele>833.3</ele>
        <time>2000-01-01T04:00:58.000Z</time>
      </trkpt>
      <trkpt lat="43.98359" lon="5.70275">
        <ele>833.6</ele>
        <time>2000-01-01T04:01:08.000Z</time>
      </trkpt>
      <trkpt lat="43.98359" lon="5.7028">
        <ele>834.2</ele>
        <time>2000-01-01T04:01:18.000Z</time>
      </trkpt>
      <trkpt lat="43.98362" lon="5.70297">
        <ele>834</ele>
        <time>2000-01-01T04:01:28.000Z</time>
      </trkpt>
      <trkpt lat="43.98362" lon="5.703">
        <ele>835.5</ele>
        <time>2000-01-01T04:01:38.000Z</time>
      </trkpt>
      <trkpt lat="43.98366" lon="5.70312">
        <ele>836.8</ele>
        <time>2000-01-01T04:01:48.000Z</time>
      </trkpt>
      <trkpt lat="43.98367" lon="5.70314">
        <ele>837.2</ele>
        <time>2000-01-01T04:01:58.000Z</time>
      </trkpt>
      <trkpt lat="43.98369" lon="5.70315">
        <ele>837.2</ele>
        <time>2000-01-01T04:02:08.000Z</time>
      </trkpt>
      <trkpt lat="43.98371" lon="5.70318">
        <ele>837.7</ele>
        <time>2000-01-01T04:02:18.000Z</time>
      </trkpt>
      <trkpt lat="43.98374" lon="5.70321">
        <ele>838</ele>
        <time>2000-01-01T04:02:28.000Z</time>
      </trkpt>
      <trkpt lat="43.98377" lon="5.70323">
        <ele>838.4</ele>
        <time>2000-01-01T04:02:38.000Z</time>
      </trkpt>
      <trkpt lat="43.98381" lon="5.70324">
        <ele>838.4</ele>
        <time>2000-01-01T04:02:48.000Z</time>
      </trkpt>
      <trkpt lat="43.98389" lon="5.7033">
        <ele>839.3</ele>
        <time>2000-01-01T04:02:58.000Z</time>
      </trkpt>
      <trkpt lat="43.98392" lon="5.70333">
        <ele>838</ele>
        <time>2000-01-01T04:03:08.000Z</time>
      </trkpt>
      <trkpt lat="43.98395" lon="5.70338">
        <ele>840.1</ele>
        <time>2000-01-01T04:03:18.000Z</time>
      </trkpt>
      <trkpt lat="43.98399" lon="5.70348">
        <ele>841.7</ele>
        <time>2000-01-01T04:03:28.000Z</time>
      </trkpt>
      <trkpt lat="43.98398" lon="5.70351">
        <ele>842.5</ele>
        <time>2000-01-01T04:03:38.000Z</time>
      </trkpt>
      <trkpt lat="43.98397" lon="5.70361">
        <ele>845</ele>
        <time>2000-01-01T04:03:48.000Z</time>
      </trkpt>
      <trkpt lat="43.98396" lon="5.70364">
        <ele>845.7</ele>
        <time>2000-01-01T04:03:58.000Z</time>
      </trkpt>
      <trkpt lat="43.98396" lon="5.7037">
        <ele>847.3</ele>
        <time>2000-01-01T04:04:08.000Z</time>
      </trkpt>
      <trkpt lat="43.98395" lon="5.70372">
        <ele>848</ele>
        <time>2000-01-01T04:04:18.000Z</time>
      </trkpt>
      <trkpt lat="43.98396" lon="5.70375">
        <ele>848.6</ele>
        <time>2000-01-01T04:04:28.000Z</time>
      </trkpt>
      <trkpt lat="43.98396" lon="5.70377">
        <ele>849.1</ele>
        <time>2000-01-01T04:04:38.000Z</time>
      </trkpt>
      <trkpt lat="43.98395" lon="5.7038">
        <ele>850</ele>
        <time>2000-01-01T04:04:48.000Z</time>
      </trkpt>
      <trkpt lat="43.98395" lon="5.70383">
        <ele>850.8</ele>
        <time>2000-01-01T04:04:58.000Z</time>
      </trkpt>
      <trkpt lat="43.98393" lon="5.70388">
        <ele>851</ele>
        <time>2000-01-01T04:05:08.000Z</time>
      </trkpt>
      <trkpt lat="43.98393" lon="5.70394">
        <ele>853.1</ele>
        <time>2000-01-01T04:05:18.000Z</time>
      </trkpt>
      <trkpt lat="43.98394" lon="5.70397">
        <ele>853.4</ele>
        <time>2000-01-01T04:05:28.000Z</time>
      </trkpt>
      <trkpt lat="43.98397" lon="5.70398">
        <ele>853.2</ele>
        <time>2000-01-01T04:05:38.000Z</time>
      </trkpt>
      <trkpt lat="43.98414" lon="5.70407">
        <ele>853</ele>
        <time>2000-01-01T04:05:48.000Z</time>
      </trkpt>
      <trkpt lat="43.98419" lon="5.70413">
        <ele>853</ele>
        <time>2000-01-01T04:05:58.000Z</time>
      </trkpt>
      <trkpt lat="43.98421" lon="5.70417">
        <ele>853.2</ele>
        <time>2000-01-01T04:06:08.000Z</time>
      </trkpt>
      <trkpt lat="43.9842" lon="5.7042">
        <ele>853.7</ele>
        <time>2000-01-01T04:06:18.000Z</time>
      </trkpt>
      <trkpt lat="43.98418" lon="5.70423">
        <ele>854.2</ele>
        <time>2000-01-01T04:06:28.000Z</time>
      </trkpt>
      <trkpt lat="43.98417" lon="5.70428">
        <ele>854.8</ele>
        <time>2000-01-01T04:06:38.000Z</time>
      </trkpt>
      <trkpt lat="43.98417" lon="5.70453">
        <ele>856</ele>
        <time>2000-01-01T04:06:48.000Z</time>
      </trkpt>
      <trkpt lat="43.98415" lon="5.70458">
        <ele>856.7</ele>
        <time>2000-01-01T04:06:58.000Z</time>
      </trkpt>
      <trkpt lat="43.98415" lon="5.70465">
        <ele>856.9</ele>
        <time>2000-01-01T04:07:08.000Z</time>
      </trkpt>
      <trkpt lat="43.98418" lon="5.70471">
        <ele>856.8</ele>
        <time>2000-01-01T04:07:18.000Z</time>
      </trkpt>
      <trkpt lat="43.98424" lon="5.70474">
        <ele>856</ele>
        <time>2000-01-01T04:07:28.000Z</time>
      </trkpt>
      <trkpt lat="43.98436" lon="5.70477">
        <ele>856</ele>
        <time>2000-01-01T04:07:38.000Z</time>
      </trkpt>
      <trkpt lat="43.98442" lon="5.7048">
        <ele>855.8</ele>
        <time>2000-01-01T04:07:48.000Z</time>
      </trkpt>
      <trkpt lat="43.98447" lon="5.70481">
        <ele>855</ele>
        <time>2000-01-01T04:07:58.000Z</time>
      </trkpt>
      <trkpt lat="43.98456" lon="5.70479">
        <ele>853.4</ele>
        <time>2000-01-01T04:08:08.000Z</time>
      </trkpt>
      <trkpt lat="43.98462" lon="5.7048">
        <ele>852.5</ele>
        <time>2000-01-01T04:08:18.000Z</time>
      </trkpt>
      <trkpt lat="43.98475" lon="5.70487">
        <ele>852</ele>
        <time>2000-01-01T04:08:28.000Z</time>
      </trkpt>
      <trkpt lat="43.98479" lon="5.7049">
        <ele>850.6</ele>
        <time>2000-01-01T04:08:38.000Z</time>
      </trkpt>
      <trkpt lat="43.98484" lon="5.70499">
        <ele>850.8</ele>
        <time>2000-01-01T04:08:48.000Z</time>
      </trkpt>
      <trkpt lat="43.98488" lon="5.70512">
        <ele>852</ele>
        <time>2000-01-01T04:08:58.000Z</time>
      </trkpt>
      <trkpt lat="43.98489" lon="5.70528">
        <ele>853.2</ele>
        <time>2000-01-01T04:09:08.000Z</time>
      </trkpt>
      <trkpt lat="43.98494" lon="5.70546">
        <ele>851</ele>
        <time>2000-01-01T04:09:18.000Z</time>
      </trkpt>
      <trkpt lat="43.98498" lon="5.70553">
        <ele>853.6</ele>
        <time>2000-01-01T04:09:28.000Z</time>
      </trkpt>
      <trkpt lat="43.98503" lon="5.7056">
        <ele>853.1</ele>
        <time>2000-01-01T04:09:38.000Z</time>
      </trkpt>
      <trkpt lat="43.98508" lon="5.70564">
        <ele>852.7</ele>
        <time>2000-01-01T04:09:48.000Z</time>
      </trkpt>
      <trkpt lat="43.98513" lon="5.70567">
        <ele>851</ele>
        <time>2000-01-01T04:09:58.000Z</time>
      </trkpt>
      <trkpt lat="43.98518" lon="5.70569">
        <ele>851.2</ele>
        <time>2000-01-01T04:10:08.000Z</time>
      </trkpt>
      <trkpt lat="43.98522" lon="5.70569">
        <ele>850.3</ele>
        <time>2000-01-01T04:10:18.000Z</time>
      </trkpt>
      <trkpt lat="43.98527" lon="5.70573">
        <ele>849.7</ele>
        <time>2000-01-01T04:10:28.000Z</time>
      </trkpt>
      <trkpt lat="43.98531" lon="5.7058">
        <ele>851</ele>
        <time>2000-01-01T04:10:38.000Z</time>
      </trkpt>
      <trkpt lat="43.98534" lon="5.70583">
        <ele>849.6</ele>
        <time>2000-01-01T04:10:48.000Z</time>
      </trkpt>
      <trkpt lat="43.9854" lon="5.70592">
        <ele>849.3</ele>
        <time>2000-01-01T04:10:58.000Z</time>
      </trkpt>
      <trkpt lat="43.98544" lon="5.70612">
        <ele>851</ele>
        <time>2000-01-01T04:11:08.000Z</time>
      </trkpt>
      <trkpt lat="43.98546" lon="5.70617">
        <ele>850.3</ele>
        <time>2000-01-01T04:11:18.000Z</time>
      </trkpt>
      <trkpt lat="43.98557" lon="5.70626">
        <ele>847.1</ele>
        <time>2000-01-01T04:11:28.000Z</time>
      </trkpt>
      <trkpt lat="43.9856" lon="5.7063">
        <ele>849</ele>
        <time>2000-01-01T04:11:38.000Z</time>
      </trkpt>
      <trkpt lat="43.98563" lon="5.70636">
        <ele>845.2</ele>
        <time>2000-01-01T04:11:48.000Z</time>
      </trkpt>
      <trkpt lat="43.98565" lon="5.70643">
        <ele>844.5</ele>
        <time>2000-01-01T04:11:58.000Z</time>
      </trkpt>
      <trkpt lat="43.9857" lon="5.70686">
        <ele>844</ele>
        <time>2000-01-01T04:12:08.000Z</time>
      </trkpt>
      <trkpt lat="43.9857" lon="5.70724">
        <ele>843</ele>
        <time>2000-01-01T04:12:18.000Z</time>
      </trkpt>
      <trkpt lat="43.98569" lon="5.70729">
        <ele>841.5</ele>
        <time>2000-01-01T04:12:28.000Z</time>
      </trkpt>
      <trkpt lat="43.98568" lon="5.7074">
        <ele>841.4</ele>
        <time>2000-01-01T04:12:38.000Z</time>
      </trkpt>
      <trkpt lat="43.98569" lon="5.70744">
        <ele>841.2</ele>
        <time>2000-01-01T04:12:48.000Z</time>
      </trkpt>
      <trkpt lat="43.98569" lon="5.70748">
        <ele>841.1</ele>
        <time>2000-01-01T04:12:58.000Z</time>
      </trkpt>
      <trkpt lat="43.98572" lon="5.70761">
        <ele>840</ele>
        <time>2000-01-01T04:13:08.000Z</time>
      </trkpt>
      <trkpt lat="43.98572" lon="5.7077">
        <ele>838.8</ele>
        <time>2000-01-01T04:13:18.000Z</time>
      </trkpt>
      <trkpt lat="43.98571" lon="5.70779">
        <ele>838.2</ele>
        <time>2000-01-01T04:13:28.000Z</time>
      </trkpt>
      <trkpt lat="43.98572" lon="5.70787">
        <ele>837.6</ele>
        <time>2000-01-01T04:13:38.000Z</time>
      </trkpt>
      <trkpt lat="43.98573" lon="5.70793">
        <ele>838</ele>
        <time>2000-01-01T04:13:48.000Z</time>
      </trkpt>
      <trkpt lat="43.98575" lon="5.70798">
        <ele>836.6</ele>
        <time>2000-01-01T04:13:58.000Z</time>
      </trkpt>
      <trkpt lat="43.98578" lon="5.70811">
        <ele>835.5</ele>
        <time>2000-01-01T04:14:08.000Z</time>
      </trkpt>
      <trkpt lat="43.9858" lon="5.70824">
        <ele>837</ele>
        <time>2000-01-01T04:14:18.000Z</time>
      </trkpt>
      <trkpt lat="43.98585" lon="5.70834">
        <ele>833.7</ele>
        <time>2000-01-01T04:14:28.000Z</time>
      </trkpt>
      <trkpt lat="43.98589" lon="5.70836">
        <ele>833.1</ele>
        <time>2000-01-01T04:14:38.000Z</time>
      </trkpt>
      <trkpt lat="43.98593" lon="5.70837">
        <ele>832.4</ele>
        <time>2000-01-01T04:14:48.000Z</time>
      </trkpt>
      <trkpt lat="43.98597" lon="5.70835">
        <ele>833</ele>
        <time>2000-01-01T04:14:58.000Z</time>
      </trkpt>
      <trkpt lat="43.98612" lon="5.70821">
        <ele>828.5</ele>
        <time>2000-01-01T04:15:08.000Z</time>
      </trkpt>
      <trkpt lat="43.98618" lon="5.70817">
        <ele>828</ele>
        <time>2000-01-01T04:15:18.000Z</time>
      </trkpt>
      <trkpt lat="43.9863" lon="5.70811">
        <ele>823.8</ele>
        <time>2000-01-01T04:15:28.000Z</time>
      </trkpt>
      <trkpt lat="43.98646" lon="5.70805">
        <ele>821</ele>
        <time>2000-01-01T04:15:38.000Z</time>
      </trkpt>
      <trkpt lat="43.98658" lon="5.70806">
        <ele>819.2</ele>
        <time>2000-01-01T04:15:48.000Z</time>
      </trkpt>
      <trkpt lat="43.9866" lon="5.70808">
        <ele>818.9</ele>
        <time>2000-01-01T04:15:58.000Z</time>
      </trkpt>
      <trkpt lat="43.98666" lon="5.70811">
        <ele>818</ele>
        <time>2000-01-01T04:16:08.000Z</time>
      </trkpt>
      <trkpt lat="43.98669" lon="5.70817">
        <ele>817.2</ele>
        <time>2000-01-01T04:16:18.000Z</time>
      </trkpt>
      <trkpt lat="43.98678" lon="5.70829">
        <ele>815.4</ele>
        <time>2000-01-01T04:16:28.000Z</time>
      </trkpt>
      <trkpt lat="43.98682" lon="5.70831">
        <ele>815</ele>
        <time>2000-01-01T04:16:38.000Z</time>
      </trkpt>
      <trkpt lat="43.98689" lon="5.70822">
        <ele>813.5</ele>
        <time>2000-01-01T04:16:48.000Z</time>
      </trkpt>
      <trkpt lat="43.98704" lon="5.70812">
        <ele>810</ele>
        <time>2000-01-01T04:16:58.000Z</time>
      </trkpt>
      <trkpt lat="43.98709" lon="5.70811">
        <ele>808.6</ele>
        <time>2000-01-01T04:17:08.000Z</time>
      </trkpt>
      <trkpt lat="43.98722" lon="5.70805">
        <ele>805.1</ele>
        <time>2000-01-01T04:17:18.000Z</time>
      </trkpt>
      <trkpt lat="43.98731" lon="5.70802">
        <ele>803</ele>
        <time>2000-01-01T04:17:28.000Z</time>
      </trkpt>
      <trkpt lat="43.98742" lon="5.70797">
        <ele>801.4</ele>
        <time>2000-01-01T04:17:38.000Z</time>
      </trkpt>
      <trkpt lat="43.98748" lon="5.70791">
        <ele>800.4</ele>
        <time>2000-01-01T04:17:48.000Z</time>
      </trkpt>
      <trkpt lat="43.98752" lon="5.70783">
        <ele>800</ele>
        <time>2000-01-01T04:17:58.000Z</time>
      </trkpt>
      <trkpt lat="43.98756" lon="5.70777">
        <ele>799.4</ele>
        <time>2000-01-01T04:18:08.000Z</time>
      </trkpt>
      <trkpt lat="43.98758" lon="5.7077">
        <ele>799.3</ele>
        <time>2000-01-01T04:18:18.000Z</time>
      </trkpt>
      <trkpt lat="43.98761" lon="5.70749">
        <ele>798</ele>
        <time>2000-01-01T04:18:28.000Z</time>
      </trkpt>
      <trkpt lat="43.98762" lon="5.70746">
        <ele>799.1</ele>
        <time>2000-01-01T04:18:38.000Z</time>
      </trkpt>
      <trkpt lat="43.98764" lon="5.70744">
        <ele>798.8</ele>
        <time>2000-01-01T04:18:48.000Z</time>
      </trkpt>
      <trkpt lat="43.9877" lon="5.70743">
        <ele>797.9</ele>
        <time>2000-01-01T04:18:58.000Z</time>
      </trkpt>
      <trkpt lat="43.98779" lon="5.70744">
        <ele>797</ele>
        <time>2000-01-01T04:19:08.000Z</time>
      </trkpt>
      <trkpt lat="43.98791" lon="5.70754">
        <ele>793.9</ele>
        <time>2000-01-01T04:19:18.000Z</time>
      </trkpt>
      <trkpt lat="43.98804" lon="5.70763">
        <ele>792</ele>
        <time>2000-01-01T04:19:28.000Z</time>
      </trkpt>
      <trkpt lat="43.98811" lon="5.70765">
        <ele>790.5</ele>
        <time>2000-01-01T04:19:38.000Z</time>
      </trkpt>
      <trkpt lat="43.98829" lon="5.70776">
        <ele>788</ele>
        <time>2000-01-01T04:19:48.000Z</time>
      </trkpt>
      <trkpt lat="43.98836" lon="5.70781">
        <ele>786.7</ele>
        <time>2000-01-01T04:19:58.000Z</time>
      </trkpt>
      <trkpt lat="43.98849" lon="5.70787">
        <ele>785</ele>
        <time>2000-01-01T04:20:08.000Z</time>
      </trkpt>
      <trkpt lat="43.98855" lon="5.70789">
        <ele>784.7</ele>
        <time>2000-01-01T04:20:18.000Z</time>
      </trkpt>
      <trkpt lat="43.98861" lon="5.70793">
        <ele>784</ele>
        <time>2000-01-01T04:20:28.000Z</time>
      </trkpt>
      <trkpt lat="43.98868" lon="5.70796">
        <ele>784</ele>
        <time>2000-01-01T04:20:38.000Z</time>
      </trkpt>
      <trkpt lat="43.98877" lon="5.70804">
        <ele>782.3</ele>
        <time>2000-01-01T04:20:48.000Z</time>
      </trkpt>
      <trkpt lat="43.98881" lon="5.70805">
        <ele>781.8</ele>
        <time>2000-01-01T04:20:58.000Z</time>
      </trkpt>
      <trkpt lat="43.98895" lon="5.70812">
        <ele>780</ele>
        <time>2000-01-01T04:21:08.000Z</time>
      </trkpt>
      <trkpt lat="43.98899" lon="5.70813">
        <ele>779.8</ele>
        <time>2000-01-01T04:21:18.000Z</time>
      </trkpt>
      <trkpt lat="43.98912" lon="5.70811">
        <ele>778.3</ele>
        <time>2000-01-01T04:21:28.000Z</time>
      </trkpt>
      <trkpt lat="43.98918" lon="5.70809">
        <ele>778</ele>
        <time>2000-01-01T04:21:38.000Z</time>
      </trkpt>
      <trkpt lat="43.98924" lon="5.70805">
        <ele>776.7</ele>
        <time>2000-01-01T04:21:48.000Z</time>
      </trkpt>
      <trkpt lat="43.9893" lon="5.70802">
        <ele>775.5</ele>
        <time>2000-01-01T04:21:58.000Z</time>
      </trkpt>
      <trkpt lat="43.98942" lon="5.70794">
        <ele>774</ele>
        <time>2000-01-01T04:22:08.000Z</time>
      </trkpt>
      <trkpt lat="43.98948" lon="5.70792">
        <ele>772.4</ele>
        <time>2000-01-01T04:22:18.000Z</time>
      </trkpt>
      <trkpt lat="43.98971" lon="5.70781">
        <ele>768</ele>
        <time>2000-01-01T04:22:28.000Z</time>
      </trkpt>
      <trkpt lat="43.98982" lon="5.70775">
        <ele>765.7</ele>
        <time>2000-01-01T04:22:38.000Z</time>
      </trkpt>
      <trkpt lat="43.98987" lon="5.7077">
        <ele>764.4</ele>
        <time>2000-01-01T04:22:48.000Z</time>
      </trkpt>
      <trkpt lat="43.98993" lon="5.70768">
        <ele>763</ele>
        <time>2000-01-01T04:22:58.000Z</time>
      </trkpt>
      <trkpt lat="43.99001" lon="5.70767">
        <ele>761.4</ele>
        <time>2000-01-01T04:23:08.000Z</time>
      </trkpt>
      <trkpt lat="43.99011" lon="5.70769">
        <ele>759.8</ele>
        <time>2000-01-01T04:23:18.000Z</time>
      </trkpt>
      <trkpt lat="43.99028" lon="5.70778">
        <ele>759</ele>
        <time>2000-01-01T04:23:28.000Z</time>
      </trkpt>
      <trkpt lat="43.9903" lon="5.7078">
        <ele>758.1</ele>
        <time>2000-01-01T04:23:38.000Z</time>
      </trkpt>
      <trkpt lat="43.99039" lon="5.70781">
        <ele>757.9</ele>
        <time>2000-01-01T04:23:48.000Z</time>
      </trkpt>
      <trkpt lat="43.99042" lon="5.70779">
        <ele>757.6</ele>
        <time>2000-01-01T04:23:58.000Z</time>
      </trkpt>
      <trkpt lat="43.99054" lon="5.70775">
        <ele>756</ele>
        <time>2000-01-01T04:24:08.000Z</time>
      </trkpt>
      <trkpt lat="43.99068" lon="5.70774">
        <ele>756</ele>
        <time>2000-01-01T04:24:18.000Z</time>
      </trkpt>
      <trkpt lat="43.99084" lon="5.70776">
        <ele>755</ele>
        <time>2000-01-01T04:24:28.000Z</time>
      </trkpt>
      <trkpt lat="43.99091" lon="5.70778">
        <ele>755.7</ele>
        <time>2000-01-01T04:24:38.000Z</time>
      </trkpt>
      <trkpt lat="43.99103" lon="5.70778">
        <ele>755.3</ele>
        <time>2000-01-01T04:24:48.000Z</time>
      </trkpt>
      <trkpt lat="43.99107" lon="5.70777">
        <ele>754</ele>
        <time>2000-01-01T04:24:58.000Z</time>
      </trkpt>
      <trkpt lat="43.99118" lon="5.70772">
        <ele>754.6</ele>
        <time>2000-01-01T04:25:08.000Z</time>
      </trkpt>
      <trkpt lat="43.99126" lon="5.70767">
        <ele>754</ele>
        <time>2000-01-01T04:25:18.000Z</time>
      </trkpt>
      <trkpt lat="43.99128" lon="5.70765">
        <ele>754.4</ele>
        <time>2000-01-01T04:25:28.000Z</time>
      </trkpt>
      <trkpt lat="43.99131" lon="5.70758">
        <ele>754.1</ele>
        <time>2000-01-01T04:25:38.000Z</time>
      </trkpt>
      <trkpt lat="43.9913" lon="5.70749">
        <ele>753.7</ele>
        <time>2000-01-01T04:25:48.000Z</time>
      </trkpt>
      <trkpt lat="43.99127" lon="5.70734">
        <ele>753</ele>
        <time>2000-01-01T04:25:58.000Z</time>
      </trkpt>
      <trkpt lat="43.99128" lon="5.70724">
        <ele>753.2</ele>
        <time>2000-01-01T04:26:08.000Z</time>
      </trkpt>
      <trkpt lat="43.9913" lon="5.70714">
        <ele>752.8</ele>
        <time>2000-01-01T04:26:18.000Z</time>
      </trkpt>
      <trkpt lat="43.99134" lon="5.70705">
        <ele>752</ele>
        <time>2000-01-01T04:26:28.000Z</time>
      </trkpt>
      <trkpt lat="43.99139" lon="5.707">
        <ele>751.6</ele>
        <time>2000-01-01T04:26:38.000Z</time>
      </trkpt>
      <trkpt lat="43.99145" lon="5.70697">
        <ele>751.3</ele>
        <time>2000-01-01T04:26:48.000Z</time>
      </trkpt>
      <trkpt lat="43.99152" lon="5.70696">
        <ele>750</ele>
        <time>2000-01-01T04:26:58.000Z</time>
      </trkpt>
      <trkpt lat="43.99158" lon="5.70692">
        <ele>750.4</ele>
        <time>2000-01-01T04:27:08.000Z</time>
      </trkpt>
      <trkpt lat="43.99166" lon="5.70688">
        <ele>749.4</ele>
        <time>2000-01-01T04:27:18.000Z</time>
      </trkpt>
      <trkpt lat="43.99181" lon="5.70687">
        <ele>748</ele>
        <time>2000-01-01T04:27:28.000Z</time>
      </trkpt>
      <trkpt lat="43.99207" lon="5.70689">
        <ele>748</ele>
        <time>2000-01-01T04:27:38.000Z</time>
      </trkpt>
      <trkpt lat="43.99221" lon="5.70694">
        <ele>750.9</ele>
        <time>2000-01-01T04:27:48.000Z</time>
      </trkpt>
      <trkpt lat="43.99234" lon="5.70697">
        <ele>750</ele>
        <time>2000-01-01T04:27:58.000Z</time>
      </trkpt>
      <trkpt lat="43.99247" lon="5.70701">
        <ele>753.5</ele>
        <time>2000-01-01T04:28:08.000Z</time>
      </trkpt>
      <trkpt lat="43.99275" lon="5.70707">
        <ele>754</ele>
        <time>2000-01-01T04:28:18.000Z</time>
      </trkpt>
      <trkpt lat="43.99283" lon="5.70708">
        <ele>755.9</ele>
        <time>2000-01-01T04:28:28.000Z</time>
      </trkpt>
      <trkpt lat="43.99309" lon="5.70715">
        <ele>758</ele>
        <time>2000-01-01T04:28:38.000Z</time>
      </trkpt>
      <trkpt lat="43.99322" lon="5.70712">
        <ele>760.4</ele>
        <time>2000-01-01T04:28:48.000Z</time>
      </trkpt>
      <trkpt lat="43.99331" lon="5.70712">
        <ele>761</ele>
        <time>2000-01-01T04:28:58.000Z</time>
      </trkpt>
      <trkpt lat="43.99345" lon="5.70716">
        <ele>763.6</ele>
        <time>2000-01-01T04:29:08.000Z</time>
      </trkpt>
      <trkpt lat="43.99374" lon="5.70722">
        <ele>763</ele>
        <time>2000-01-01T04:29:18.000Z</time>
      </trkpt>
      <trkpt lat="43.99382" lon="5.70725">
        <ele>768.3</ele>
        <time>2000-01-01T04:29:28.000Z</time>
      </trkpt>
      <trkpt lat="43.9939" lon="5.70723">
        <ele>768.1</ele>
        <time>2000-01-01T04:29:38.000Z</time>
      </trkpt>
      <trkpt lat="43.99396" lon="5.70717">
        <ele>762</ele>
        <time>2000-01-01T04:29:48.000Z</time>
      </trkpt>
      <trkpt lat="43.99409" lon="5.70714">
        <ele>763.5</ele>
        <time>2000-01-01T04:29:58.000Z</time>
      </trkpt>
      <trkpt lat="43.99428" lon="5.70711">
        <ele>762</ele>
        <time>2000-01-01T04:30:08.000Z</time>
      </trkpt>
      <trkpt lat="43.9944" lon="5.70713">
        <ele>759.8</ele>
        <time>2000-01-01T04:30:18.000Z</time>
      </trkpt>
      <trkpt lat="43.9946" lon="5.70715">
        <ele>757</ele>
        <time>2000-01-01T04:30:28.000Z</time>
      </trkpt>
      <trkpt lat="43.99472" lon="5.70715">
        <ele>757.2</ele>
        <time>2000-01-01T04:30:38.000Z</time>
      </trkpt>
      <trkpt lat="43.99504" lon="5.70712">
        <ele>753</ele>
        <time>2000-01-01T04:30:48.000Z</time>
      </trkpt>
      <trkpt lat="43.99511" lon="5.70713">
        <ele>752.7</ele>
        <time>2000-01-01T04:30:58.000Z</time>
      </trkpt>
      <trkpt lat="43.99517" lon="5.70715">
        <ele>752.5</ele>
        <time>2000-01-01T04:31:08.000Z</time>
      </trkpt>
      <trkpt lat="43.99526" lon="5.70715">
        <ele>751</ele>
        <time>2000-01-01T04:31:18.000Z</time>
      </trkpt>
      <trkpt lat="43.99545" lon="5.7072">
        <ele>749.4</ele>
        <time>2000-01-01T04:31:28.000Z</time>
      </trkpt>
      <trkpt lat="43.99553" lon="5.70725">
        <ele>748</ele>
        <time>2000-01-01T04:31:38.000Z</time>
      </trkpt>
      <trkpt lat="43.9956" lon="5.70732">
        <ele>748.3</ele>
        <time>2000-01-01T04:31:48.000Z</time>
      </trkpt>
      <trkpt lat="43.99568" lon="5.70738">
        <ele>746.8</ele>
        <time>2000-01-01T04:31:58.000Z</time>
      </trkpt>
      <trkpt lat="43.99576" lon="5.70745">
        <ele>746</ele>
        <time>2000-01-01T04:32:08.000Z</time>
      </trkpt>
      <trkpt lat="43.99583" lon="5.70753">
        <ele>744.4</ele>
        <time>2000-01-01T04:32:18.000Z</time>
      </trkpt>
      <trkpt lat="43.99593" lon="5.70758">
        <ele>741</ele>
        <time>2000-01-01T04:32:28.000Z</time>
      </trkpt>
      <trkpt lat="43.99601" lon="5.70763">
        <ele>739.7</ele>
        <time>2000-01-01T04:32:38.000Z</time>
      </trkpt>
      <trkpt lat="43.99607" lon="5.70774">
        <ele>738.9</ele>
        <time>2000-01-01T04:32:48.000Z</time>
      </trkpt>
      <trkpt lat="43.99613" lon="5.70782">
        <ele>738</ele>
        <time>2000-01-01T04:32:58.000Z</time>
      </trkpt>
      <trkpt lat="43.99622" lon="5.70788">
        <ele>736.9</ele>
        <time>2000-01-01T04:33:08.000Z</time>
      </trkpt>
      <trkpt lat="43.99631" lon="5.70792">
        <ele>735.4</ele>
        <time>2000-01-01T04:33:18.000Z</time>
      </trkpt>
      <trkpt lat="43.99638" lon="5.70797">
        <ele>734</ele>
        <time>2000-01-01T04:33:28.000Z</time>
      </trkpt>
      <trkpt lat="43.99644" lon="5.70799">
        <ele>733.7</ele>
        <time>2000-01-01T04:33:38.000Z</time>
      </trkpt>
      <trkpt lat="43.99675" lon="5.70817">
        <ele>734</ele>
        <time>2000-01-01T04:33:48.000Z</time>
      </trkpt>
      <trkpt lat="43.99678" lon="5.70825">
        <ele>730.8</ele>
        <time>2000-01-01T04:33:58.000Z</time>
      </trkpt>
      <trkpt lat="43.9968" lon="5.70833">
        <ele>731.6</ele>
        <time>2000-01-01T04:34:08.000Z</time>
      </trkpt>
      <trkpt lat="43.99684" lon="5.70843">
        <ele>734</ele>
        <time>2000-01-01T04:34:18.000Z</time>
      </trkpt>
      <trkpt lat="43.99691" lon="5.70849">
        <ele>731.3</ele>
        <time>2000-01-01T04:34:28.000Z</time>
      </trkpt>
      <trkpt lat="43.99698" lon="5.70857">
        <ele>730.5</ele>
        <time>2000-01-01T04:34:38.000Z</time>
      </trkpt>
      <trkpt lat="43.99703" lon="5.70861">
        <ele>733</ele>
        <time>2000-01-01T04:34:48.000Z</time>
      </trkpt>
      <trkpt lat="43.99707" lon="5.70868">
        <ele>730.4</ele>
        <time>2000-01-01T04:34:58.000Z</time>
      </trkpt>
      <trkpt lat="43.9971" lon="5.70879">
        <ele>732.3</ele>
        <time>2000-01-01T04:35:08.000Z</time>
      </trkpt>
      <trkpt lat="43.99713" lon="5.70887">
        <ele>734</ele>
        <time>2000-01-01T04:35:18.000Z</time>
      </trkpt>
      <trkpt lat="43.99724" lon="5.70913">
        <ele>732</ele>
        <time>2000-01-01T04:35:28.000Z</time>
      </trkpt>
      <trkpt lat="43.9973" lon="5.70917">
        <ele>734.1</ele>
        <time>2000-01-01T04:35:38.000Z</time>
      </trkpt>
      <trkpt lat="43.99736" lon="5.70923">
        <ele>734.2</ele>
        <time>2000-01-01T04:35:48.000Z</time>
      </trkpt>
      <trkpt lat="43.99751" lon="5.70925">
        <ele>730</ele>
        <time>2000-01-01T04:35:58.000Z</time>
      </trkpt>
      <trkpt lat="43.99757" lon="5.70925">
        <ele>729.4</ele>
        <time>2000-01-01T04:36:08.000Z</time>
      </trkpt>
      <trkpt lat="43.99762" lon="5.70924">
        <ele>727.6</ele>
        <time>2000-01-01T04:36:18.000Z</time>
      </trkpt>
      <trkpt lat="43.99766" lon="5.70919">
        <ele>725.4</ele>
        <time>2000-01-01T04:36:28.000Z</time>
      </trkpt>
      <trkpt lat="43.99769" lon="5.70912">
        <ele>727</ele>
        <time>2000-01-01T04:36:38.000Z</time>
      </trkpt>
      <trkpt lat="43.99774" lon="5.70908">
        <ele>722.5</ele>
        <time>2000-01-01T04:36:48.000Z</time>
      </trkpt>
      <trkpt lat="43.99786" lon="5.70903">
        <ele>721.5</ele>
        <time>2000-01-01T04:36:58.000Z</time>
      </trkpt>
      <trkpt lat="43.99793" lon="5.70898">
        <ele>724</ele>
        <time>2000-01-01T04:37:08.000Z</time>
      </trkpt>
      <trkpt lat="43.998" lon="5.70897">
        <ele>722.6</ele>
        <time>2000-01-01T04:37:18.000Z</time>
      </trkpt>
      <trkpt lat="43.99808" lon="5.70899">
        <ele>721.9</ele>
        <time>2000-01-01T04:37:28.000Z</time>
      </trkpt>
      <trkpt lat="43.99813" lon="5.70899">
        <ele>723</ele>
        <time>2000-01-01T04:37:38.000Z</time>
      </trkpt>
      <trkpt lat="43.99821" lon="5.70896">
        <ele>719.6</ele>
        <time>2000-01-01T04:37:48.000Z</time>
      </trkpt>
      <trkpt lat="43.99829" lon="5.70895">
        <ele>717.9</ele>
        <time>2000-01-01T04:37:58.000Z</time>
      </trkpt>
      <trkpt lat="43.99838" lon="5.7089">
        <ele>718</ele>
        <time>2000-01-01T04:38:08.000Z</time>
      </trkpt>
      <trkpt lat="43.99847" lon="5.7089">
        <ele>714.8</ele>
        <time>2000-01-01T04:38:18.000Z</time>
      </trkpt>
      <trkpt lat="43.99855" lon="5.70894">
        <ele>712.4</ele>
        <time>2000-01-01T04:38:28.000Z</time>
      </trkpt>
      <trkpt lat="43.99862" lon="5.70895">
        <ele>712</ele>
        <time>2000-01-01T04:38:38.000Z</time>
      </trkpt>
      <trkpt lat="43.99871" lon="5.70895">
        <ele>709</ele>
        <time>2000-01-01T04:38:48.000Z</time>
      </trkpt>
      <trkpt lat="43.99878" lon="5.70897">
        <ele>707.1</ele>
        <time>2000-01-01T04:38:58.000Z</time>
      </trkpt>
      <trkpt lat="43.99884" lon="5.70901">
        <ele>707</ele>
        <time>2000-01-01T04:39:08.000Z</time>
      </trkpt>
      <trkpt lat="43.99894" lon="5.70903">
        <ele>702.4</ele>
        <time>2000-01-01T04:39:18.000Z</time>
      </trkpt>
      <trkpt lat="43.999" lon="5.70901">
        <ele>701.8</ele>
        <time>2000-01-01T04:39:28.000Z</time>
      </trkpt>
      <trkpt lat="43.99905" lon="5.70898">
        <ele>704</ele>
        <time>2000-01-01T04:39:38.000Z</time>
      </trkpt>
      <trkpt lat="43.9991" lon="5.70898">
        <ele>700.7</ele>
        <time>2000-01-01T04:39:48.000Z</time>
      </trkpt>
      <trkpt lat="43.9992" lon="5.70894">
        <ele>699.6</ele>
        <time>2000-01-01T04:39:58.000Z</time>
      </trkpt>
      <trkpt lat="43.99926" lon="5.70898">
        <ele>701</ele>
        <time>2000-01-01T04:40:08.000Z</time>
      </trkpt>
      <trkpt lat="43.99937" lon="5.70892">
        <ele>695.7</ele>
        <time>2000-01-01T04:40:18.000Z</time>
      </trkpt>
      <trkpt lat="43.99943" lon="5.70884">
        <ele>695</ele>
        <time>2000-01-01T04:40:28.000Z</time>
      </trkpt>
      <trkpt lat="43.99951" lon="5.70883">
        <ele>694.5</ele>
        <time>2000-01-01T04:40:38.000Z</time>
      </trkpt>
      <trkpt lat="43.99964" lon="5.70878">
        <ele>692</ele>
        <time>2000-01-01T04:40:48.000Z</time>
      </trkpt>
      <trkpt lat="43.99969" lon="5.70878">
        <ele>692.7</ele>
        <time>2000-01-01T04:40:58.000Z</time>
      </trkpt>
      <trkpt lat="43.99981" lon="5.70883">
        <ele>692</ele>
        <time>2000-01-01T04:41:08.000Z</time>
      </trkpt>
      <trkpt lat="43.99989" lon="5.70881">
        <ele>692</ele>
        <time>2000-01-01T04:41:18.000Z</time>
      </trkpt>
      <trkpt lat="44" lon="5.70876">
        <ele>691.1</ele>
        <time>2000-01-01T04:41:28.000Z</time>
      </trkpt>
      <trkpt lat="44.00007" lon="5.70871">
        <ele>689</ele>
        <time>2000-01-01T04:41:38.000Z</time>
      </trkpt>
      <trkpt lat="44.00013" lon="5.70865">
        <ele>689.5</ele>
        <time>2000-01-01T04:41:48.000Z</time>
      </trkpt>
      <trkpt lat="44.00016" lon="5.70852">
        <ele>688</ele>
        <time>2000-01-01T04:41:58.000Z</time>
      </trkpt>
      <trkpt lat="44.00019" lon="5.70845">
        <ele>687</ele>
        <time>2000-01-01T04:42:08.000Z</time>
      </trkpt>
      <trkpt lat="44.00032" lon="5.70839">
        <ele>686.5</ele>
        <time>2000-01-01T04:42:18.000Z</time>
      </trkpt>
      <trkpt lat="44.00049" lon="5.70825">
        <ele>686</ele>
        <time>2000-01-01T04:42:28.000Z</time>
      </trkpt>
      <trkpt lat="44.00055" lon="5.70823">
        <ele>686.2</ele>
        <time>2000-01-01T04:42:38.000Z</time>
      </trkpt>
      <trkpt lat="44.00061" lon="5.70825">
        <ele>685.7</ele>
        <time>2000-01-01T04:42:48.000Z</time>
      </trkpt>
      <trkpt lat="44.00068" lon="5.70844">
        <ele>686</ele>
        <time>2000-01-01T04:42:58.000Z</time>
      </trkpt>
      <trkpt lat="44.00074" lon="5.70853">
        <ele>683.4</ele>
        <time>2000-01-01T04:43:08.000Z</time>
      </trkpt>
      <trkpt lat="44.0008" lon="5.70856">
        <ele>683.6</ele>
        <time>2000-01-01T04:43:18.000Z</time>
      </trkpt>
      <trkpt lat="44.00091" lon="5.70859">
        <ele>682</ele>
        <time>2000-01-01T04:43:28.000Z</time>
      </trkpt>
      <trkpt lat="44.00108" lon="5.70862">
        <ele>678.5</ele>
        <time>2000-01-01T04:43:38.000Z</time>
      </trkpt>
      <trkpt lat="44.00115" lon="5.70865">
        <ele>678</ele>
        <time>2000-01-01T04:43:48.000Z</time>
      </trkpt>
      <trkpt lat="44.00121" lon="5.70869">
        <ele>674.6</ele>
        <time>2000-01-01T04:43:58.000Z</time>
      </trkpt>
      <trkpt lat="44.00124" lon="5.70878">
        <ele>672.3</ele>
        <time>2000-01-01T04:44:08.000Z</time>
      </trkpt>
      <trkpt lat="44.00139" lon="5.70885">
        <ele>671</ele>
        <time>2000-01-01T04:44:18.000Z</time>
      </trkpt>
      <trkpt lat="44.00146" lon="5.7089">
        <ele>666.6</ele>
        <time>2000-01-01T04:44:28.000Z</time>
      </trkpt>
      <trkpt lat="44.00153" lon="5.70886">
        <ele>666</ele>
        <time>2000-01-01T04:44:38.000Z</time>
      </trkpt>
      <trkpt lat="44.00169" lon="5.70866">
        <ele>670</ele>
        <time>2000-01-01T04:44:48.000Z</time>
      </trkpt>
      <trkpt lat="44.00176" lon="5.70853">
        <ele>669.1</ele>
        <time>2000-01-01T04:44:58.000Z</time>
      </trkpt>
      <trkpt lat="44.00181" lon="5.70842">
        <ele>670</ele>
        <time>2000-01-01T04:45:08.000Z</time>
      </trkpt>
      <trkpt lat="44.00186" lon="5.70823">
        <ele>672.3</ele>
        <time>2000-01-01T04:45:18.000Z</time>
      </trkpt>
      <trkpt lat="44.00188" lon="5.70808">
        <ele>675</ele>
        <time>2000-01-01T04:45:28.000Z</time>
      </trkpt>
      <trkpt lat="44.00196" lon="5.70783">
        <ele>675</ele>
        <time>2000-01-01T04:45:38.000Z</time>
      </trkpt>
      <trkpt lat="44.00199" lon="5.7077">
        <ele>674.6</ele>
        <time>2000-01-01T04:45:48.000Z</time>
      </trkpt>
      <trkpt lat="44.00206" lon="5.70755">
        <ele>675</ele>
        <time>2000-01-01T04:45:58.000Z</time>
      </trkpt>
      <trkpt lat="44.00212" lon="5.7074">
        <ele>675.5</ele>
        <time>2000-01-01T04:46:08.000Z</time>
      </trkpt>
      <trkpt lat="44.00226" lon="5.707">
        <ele>675</ele>
        <time>2000-01-01T04:46:18.000Z</time>
      </trkpt>
      <trkpt lat="44.00237" lon="5.70685">
        <ele>675.5</ele>
        <time>2000-01-01T04:46:28.000Z</time>
      </trkpt>
      <trkpt lat="44.00252" lon="5.70669">
        <ele>674</ele>
        <time>2000-01-01T04:46:38.000Z</time>
      </trkpt>
      <trkpt lat="44.00256" lon="5.7066">
        <ele>674.7</ele>
        <time>2000-01-01T04:46:48.000Z</time>
      </trkpt>
      <trkpt lat="44.00267" lon="5.70647">
        <ele>673</ele>
        <time>2000-01-01T04:46:58.000Z</time>
      </trkpt>
      <trkpt lat="44.00276" lon="5.70633">
        <ele>673.7</ele>
        <time>2000-01-01T04:47:08.000Z</time>
      </trkpt>
      <trkpt lat="44.00282" lon="5.70616">
        <ele>672</ele>
        <time>2000-01-01T04:47:18.000Z</time>
      </trkpt>
      <trkpt lat="44.00286" lon="5.70598">
        <ele>673.1</ele>
        <time>2000-01-01T04:47:28.000Z</time>
      </trkpt>
      <trkpt lat="44.00287" lon="5.70587">
        <ele>671</ele>
        <time>2000-01-01T04:47:38.000Z</time>
      </trkpt>
      <trkpt lat="44.00286" lon="5.70575">
        <ele>672.4</ele>
        <time>2000-01-01T04:47:48.000Z</time>
      </trkpt>
      <trkpt lat="44.00282" lon="5.70565">
        <ele>671.7</ele>
        <time>2000-01-01T04:47:58.000Z</time>
      </trkpt>
      <trkpt lat="44.00276" lon="5.70542">
        <ele>671</ele>
        <time>2000-01-01T04:48:08.000Z</time>
      </trkpt>
      <trkpt lat="44.00274" lon="5.70529">
        <ele>671.8</ele>
        <time>2000-01-01T04:48:18.000Z</time>
      </trkpt>
      <trkpt lat="44.00273" lon="5.70518">
        <ele>671.5</ele>
        <time>2000-01-01T04:48:28.000Z</time>
      </trkpt>
      <trkpt lat="44.00273" lon="5.70496">
        <ele>670</ele>
        <time>2000-01-01T04:48:38.000Z</time>
      </trkpt>
      <trkpt lat="44.00274" lon="5.70474">
        <ele>669.1</ele>
        <time>2000-01-01T04:48:48.000Z</time>
      </trkpt>
      <trkpt lat="44.00277" lon="5.70467">
        <ele>668</ele>
        <time>2000-01-01T04:48:58.000Z</time>
      </trkpt>
      <trkpt lat="44.00284" lon="5.70458">
        <ele>668.2</ele>
        <time>2000-01-01T04:49:08.000Z</time>
      </trkpt>
      <trkpt lat="44.00298" lon="5.70436">
        <ele>667</ele>
        <time>2000-01-01T04:49:18.000Z</time>
      </trkpt>
      <trkpt lat="44.00307" lon="5.70423">
        <ele>667.3</ele>
        <time>2000-01-01T04:49:28.000Z</time>
      </trkpt>
      <trkpt lat="44.00313" lon="5.70416">
        <ele>667</ele>
        <time>2000-01-01T04:49:38.000Z</time>
      </trkpt>
      <trkpt lat="44.00319" lon="5.70399">
        <ele>667</ele>
        <time>2000-01-01T04:49:48.000Z</time>
      </trkpt>
      <trkpt lat="44.00324" lon="5.70387">
        <ele>666</ele>
        <time>2000-01-01T04:49:58.000Z</time>
      </trkpt>
      <trkpt lat="44.00329" lon="5.70377">
        <ele>666.8</ele>
        <time>2000-01-01T04:50:08.000Z</time>
      </trkpt>
      <trkpt lat="44.00333" lon="5.70365">
        <ele>667</ele>
        <time>2000-01-01T04:50:18.000Z</time>
      </trkpt>
      <trkpt lat="44.0034" lon="5.70355">
        <ele>666</ele>
        <time>2000-01-01T04:50:28.000Z</time>
      </trkpt>
      <trkpt lat="44.00353" lon="5.70328">
        <ele>665</ele>
        <time>2000-01-01T04:50:38.000Z</time>
      </trkpt>
      <trkpt lat="44.00367" lon="5.70309">
        <ele>665</ele>
        <time>2000-01-01T04:50:48.000Z</time>
      </trkpt>
      <trkpt lat="44.0037" lon="5.70302">
        <ele>666</ele>
        <time>2000-01-01T04:50:58.000Z</time>
      </trkpt>
      <trkpt lat="44.0039" lon="5.7027">
        <ele>666</ele>
        <time>2000-01-01T04:51:08.000Z</time>
      </trkpt>
      <trkpt lat="44.00396" lon="5.70255">
        <ele>666</ele>
        <time>2000-01-01T04:51:18.000Z</time>
      </trkpt>
      <trkpt lat="44.00408" lon="5.70237">
        <ele>666</ele>
        <time>2000-01-01T04:51:28.000Z</time>
      </trkpt>
      <trkpt lat="44.00421" lon="5.70224">
        <ele>666</ele>
        <time>2000-01-01T04:51:38.000Z</time>
      </trkpt>
      <trkpt lat="44.00431" lon="5.70203">
        <ele>666</ele>
        <time>2000-01-01T04:51:48.000Z</time>
      </trkpt>
      <trkpt lat="44.00438" lon="5.70192">
        <ele>666</ele>
        <time>2000-01-01T04:51:58.000Z</time>
      </trkpt>
      <trkpt lat="44.00445" lon="5.70185">
        <ele>666</ele>
        <time>2000-01-01T04:52:08.000Z</time>
      </trkpt>
      <trkpt lat="44.00449" lon="5.70179">
        <ele>666</ele>
        <time>2000-01-01T04:52:18.000Z</time>
      </trkpt>
      <trkpt lat="44.00453" lon="5.70168">
        <ele>665.7</ele>
        <time>2000-01-01T04:52:28.000Z</time>
      </trkpt>
      <trkpt lat="44.00454" lon="5.70156">
        <ele>666</ele>
        <time>2000-01-01T04:52:38.000Z</time>
      </trkpt>
      <trkpt lat="44.00459" lon="5.70146">
        <ele>666</ele>
        <time>2000-01-01T04:52:48.000Z</time>
      </trkpt>
      <trkpt lat="44.00463" lon="5.70129">
        <ele>666.2</ele>
        <time>2000-01-01T04:52:58.000Z</time>
      </trkpt>
      <trkpt lat="44.00474" lon="5.70107">
        <ele>667</ele>
        <time>2000-01-01T04:53:08.000Z</time>
      </trkpt>
      <trkpt lat="44.00481" lon="5.70095">
        <ele>666.7</ele>
        <time>2000-01-01T04:53:18.000Z</time>
      </trkpt>
      <trkpt lat="44.00485" lon="5.70083">
        <ele>667</ele>
        <time>2000-01-01T04:53:28.000Z</time>
      </trkpt>
      <trkpt lat="44.00493" lon="5.70043">
        <ele>666</ele>
        <time>2000-01-01T04:53:38.000Z</time>
      </trkpt>
      <trkpt lat="44.00498" lon="5.70023">
        <ele>666</ele>
        <time>2000-01-01T04:53:48.000Z</time>
      </trkpt>
      <trkpt lat="44.00502" lon="5.70003">
        <ele>666</ele>
        <time>2000-01-01T04:53:58.000Z</time>
      </trkpt>
      <trkpt lat="44.00508" lon="5.69983">
        <ele>666.1</ele>
        <time>2000-01-01T04:54:08.000Z</time>
      </trkpt>
      <trkpt lat="44.00512" lon="5.69974">
        <ele>666</ele>
        <time>2000-01-01T04:54:18.000Z</time>
      </trkpt>
      <trkpt lat="44.00542" lon="5.69982">
        <ele>666</ele>
        <time>2000-01-01T04:54:28.000Z</time>
      </trkpt>
      <trkpt lat="44.00548" lon="5.69983">
        <ele>667.1</ele>
        <time>2000-01-01T04:54:38.000Z</time>
      </trkpt>
      <trkpt lat="44.00553" lon="5.69983">
        <ele>667.3</ele>
        <time>2000-01-01T04:54:48.000Z</time>
      </trkpt>
      <trkpt lat="44.00569" lon="5.69986">
        <ele>667</ele>
        <time>2000-01-01T04:54:58.000Z</time>
      </trkpt>
      <trkpt lat="44.00585" lon="5.69987">
        <ele>668</ele>
        <time>2000-01-01T04:55:08.000Z</time>
      </trkpt>
      <trkpt lat="44.00601" lon="5.6999">
        <ele>668</ele>
        <time>2000-01-01T04:55:18.000Z</time>
      </trkpt>
      <trkpt lat="44.00607" lon="5.69992">
        <ele>668.2</ele>
        <time>2000-01-01T04:55:28.000Z</time>
      </trkpt>
      <trkpt lat="44.00612" lon="5.69992">
        <ele>668.3</ele>
        <time>2000-01-01T04:55:38.000Z</time>
      </trkpt>
      <trkpt lat="44.00626" lon="5.69995">
        <ele>668</ele>
        <time>2000-01-01T04:55:48.000Z</time>
      </trkpt>
      <trkpt lat="44.0064" lon="5.69995">
        <ele>668.2</ele>
        <time>2000-01-01T04:55:58.000Z</time>
      </trkpt>
      <trkpt lat="44.00643" lon="5.69996">
        <ele>668.3</ele>
        <time>2000-01-01T04:56:08.000Z</time>
      </trkpt>
      <trkpt lat="44.00651" lon="5.69996">
        <ele>669</ele>
        <time>2000-01-01T04:56:18.000Z</time>
      </trkpt>
      <trkpt lat="44.00693" lon="5.70004">
        <ele>669</ele>
        <time>2000-01-01T04:56:28.000Z</time>
      </trkpt>
      <trkpt lat="44.00698" lon="5.70004">
        <ele>669.9</ele>
        <time>2000-01-01T04:56:38.000Z</time>
      </trkpt>
      <trkpt lat="44.0071" lon="5.70006">
        <ele>669.9</ele>
        <time>2000-01-01T04:56:48.000Z</time>
      </trkpt>
      <trkpt lat="44.00731" lon="5.70006">
        <ele>669</ele>
        <time>2000-01-01T04:56:58.000Z</time>
      </trkpt>
      <trkpt lat="44.00744" lon="5.70008">
        <ele>669.2</ele>
        <time>2000-01-01T04:57:08.000Z</time>
      </trkpt>
      <trkpt lat="44.0075" lon="5.70008">
        <ele>669</ele>
        <time>2000-01-01T04:57:18.000Z</time>
      </trkpt>
      <trkpt lat="44.00764" lon="5.70006">
        <ele>668</ele>
        <time>2000-01-01T04:57:28.000Z</time>
      </trkpt>
      <trkpt lat="44.0077" lon="5.70006">
        <ele>667.7</ele>
        <time>2000-01-01T04:57:38.000Z</time>
      </trkpt>
      <trkpt lat="44.00815" lon="5.69998">
        <ele>666</ele>
        <time>2000-01-01T04:57:48.000Z</time>
      </trkpt>
      <trkpt lat="44.00822" lon="5.69995">
        <ele>665.3</ele>
        <time>2000-01-01T04:57:58.000Z</time>
      </trkpt>
      <trkpt lat="44.00837" lon="5.69993">
        <ele>665</ele>
        <time>2000-01-01T04:58:08.000Z</time>
      </trkpt>
      <trkpt lat="44.00864" lon="5.69993">
        <ele>663</ele>
        <time>2000-01-01T04:58:18.000Z</time>
      </trkpt>
      <trkpt lat="44.00871" lon="5.69992">
        <ele>663.2</ele>
        <time>2000-01-01T04:58:28.000Z</time>
      </trkpt>
      <trkpt lat="44.00889" lon="5.69992">
        <ele>663</ele>
        <time>2000-01-01T04:58:38.000Z</time>
      </trkpt>
      <trkpt lat="44.00901" lon="5.6999">
        <ele>662.7</ele>
        <time>2000-01-01T04:58:48.000Z</time>
      </trkpt>
      <trkpt lat="44.00906" lon="5.69988">
        <ele>662.9</ele>
        <time>2000-01-01T04:58:58.000Z</time>
      </trkpt>
      <trkpt lat="44.00912" lon="5.69988">
        <ele>663</ele>
        <time>2000-01-01T04:59:08.000Z</time>
      </trkpt>
      <trkpt lat="44.00918" lon="5.69987">
        <ele>662.9</ele>
        <time>2000-01-01T04:59:18.000Z</time>
      </trkpt>
      <trkpt lat="44.00922" lon="5.69984">
        <ele>663</ele>
        <time>2000-01-01T04:59:28.000Z</time>
      </trkpt>
      <trkpt lat="44.00926" lon="5.69983">
        <ele>662.9</ele>
        <time>2000-01-01T04:59:38.000Z</time>
      </trkpt>
      <trkpt lat="44.00927" lon="5.69982">
        <ele>662.9</ele>
        <time>2000-01-01T04:59:48.000Z</time>
      </trkpt>
      <trkpt lat="44.00937" lon="5.6998">
        <ele>663</ele>
        <time>2000-01-01T04:59:58.000Z</time>
      </trkpt>
      <trkpt lat="44.00962" lon="5.69977">
        <ele>663</ele>
        <time>2000-01-01T05:00:08.000Z</time>
      </trkpt>
      <trkpt lat="44.00968" lon="5.69977">
        <ele>662.5</ele>
        <time>2000-01-01T05:00:18.000Z</time>
      </trkpt>
      <trkpt lat="44.00985" lon="5.69974">
        <ele>662</ele>
        <time>2000-01-01T05:00:28.000Z</time>
      </trkpt>
      <trkpt lat="44.00991" lon="5.69974">
        <ele>662.2</ele>
        <time>2000-01-01T05:00:38.000Z</time>
      </trkpt>
      <trkpt lat="44.00996" lon="5.69972">
        <ele>662.2</ele>
        <time>2000-01-01T05:00:48.000Z</time>
      </trkpt>
      <trkpt lat="44.01029" lon="5.69967">
        <ele>662</ele>
        <time>2000-01-01T05:00:58.000Z</time>
      </trkpt>
      <trkpt lat="44.01045" lon="5.69956">
        <ele>661.2</ele>
        <time>2000-01-01T05:01:08.000Z</time>
      </trkpt>
      <trkpt lat="44.01055" lon="5.69948">
        <ele>662</ele>
        <time>2000-01-01T05:01:18.000Z</time>
      </trkpt>
      <trkpt lat="44.01065" lon="5.69943">
        <ele>661.1</ele>
        <time>2000-01-01T05:01:28.000Z</time>
      </trkpt>
      <trkpt lat="44.01077" lon="5.69941">
        <ele>661</ele>
        <time>2000-01-01T05:01:38.000Z</time>
      </trkpt>
      <trkpt lat="44.01083" lon="5.69941">
        <ele>661.1</ele>
        <time>2000-01-01T05:01:48.000Z</time>
      </trkpt>
      <trkpt lat="44.01095" lon="5.69939">
        <ele>661.1</ele>
        <time>2000-01-01T05:01:58.000Z</time>
      </trkpt>
      <trkpt lat="44.01112" lon="5.69939">
        <ele>661</ele>
        <time>2000-01-01T05:02:08.000Z</time>
      </trkpt>
      <trkpt lat="44.01122" lon="5.69941">
        <ele>661.3</ele>
        <time>2000-01-01T05:02:18.000Z</time>
      </trkpt>
      <trkpt lat="44.01127" lon="5.69941">
        <ele>661.5</ele>
        <time>2000-01-01T05:02:28.000Z</time>
      </trkpt>
      <trkpt lat="44.0114" lon="5.69939">
        <ele>661</ele>
        <time>2000-01-01T05:02:38.000Z</time>
      </trkpt>
      <trkpt lat="44.01146" lon="5.6994">
        <ele>662.1</ele>
        <time>2000-01-01T05:02:48.000Z</time>
      </trkpt>
      <trkpt lat="44.01151" lon="5.69943">
        <ele>662.4</ele>
        <time>2000-01-01T05:02:58.000Z</time>
      </trkpt>
      <trkpt lat="44.01153" lon="5.69943">
        <ele>662.5</ele>
        <time>2000-01-01T05:03:08.000Z</time>
      </trkpt>
      <trkpt lat="44.01162" lon="5.69947">
        <ele>662</ele>
        <time>2000-01-01T05:03:18.000Z</time>
      </trkpt>
      <trkpt lat="44.01163" lon="5.69949">
        <ele>662.9</ele>
        <time>2000-01-01T05:03:28.000Z</time>
      </trkpt>
      <trkpt lat="44.0116" lon="5.6995">
        <ele>662.8</ele>
        <time>2000-01-01T05:03:38.000Z</time>
      </trkpt>
      <trkpt lat="44.01163" lon="5.69951">
        <ele>662.9</ele>
        <time>2000-01-01T05:03:48.000Z</time>
      </trkpt>
      <trkpt lat="44.01165" lon="5.69948">
        <ele>662.9</ele>
        <time>2000-01-01T05:03:58.000Z</time>
      </trkpt>
      <trkpt lat="44.0117" lon="5.69945">
        <ele>663.1</ele>
        <time>2000-01-01T05:04:08.000Z</time>
      </trkpt>
      <trkpt lat="44.01175" lon="5.69943">
        <ele>662</ele>
        <time>2000-01-01T05:04:18.000Z</time>
      </trkpt>
      <trkpt lat="44.01184" lon="5.69936">
        <ele>663.5</ele>
        <time>2000-01-01T05:04:28.000Z</time>
      </trkpt>
      <trkpt lat="44.01193" lon="5.69933">
        <ele>663</ele>
        <time>2000-01-01T05:04:38.000Z</time>
      </trkpt>
      <trkpt lat="44.01203" lon="5.69931">
        <ele>664.2</ele>
        <time>2000-01-01T05:04:48.000Z</time>
      </trkpt>
      <trkpt lat="44.01214" lon="5.69925">
        <ele>664</ele>
        <time>2000-01-01T05:04:58.000Z</time>
      </trkpt>
      <trkpt lat="44.01219" lon="5.69921">
        <ele>664.1</ele>
        <time>2000-01-01T05:05:08.000Z</time>
      </trkpt>
      <trkpt lat="44.01229" lon="5.69915">
        <ele>664.2</ele>
        <time>2000-01-01T05:05:18.000Z</time>
      </trkpt>
      <trkpt lat="44.01267" lon="5.69901">
        <ele>664</ele>
        <time>2000-01-01T05:05:28.000Z</time>
      </trkpt>
      <trkpt lat="44.01272" lon="5.69901">
        <ele>664.9</ele>
        <time>2000-01-01T05:05:38.000Z</time>
      </trkpt>
      <trkpt lat="44.01278" lon="5.69902">
        <ele>665</ele>
        <time>2000-01-01T05:05:48.000Z</time>
      </trkpt>
      <trkpt lat="44.01284" lon="5.69904">
        <ele>664.9</ele>
        <time>2000-01-01T05:05:58.000Z</time>
      </trkpt>
      <trkpt lat="44.01295" lon="5.69909">
        <ele>664</ele>
        <time>2000-01-01T05:06:08.000Z</time>
      </trkpt>
      <trkpt lat="44.01301" lon="5.6991">
        <ele>664.8</ele>
        <time>2000-01-01T05:06:18.000Z</time>
      </trkpt>
      <trkpt lat="44.01308" lon="5.69909">
        <ele>664.7</ele>
        <time>2000-01-01T05:06:28.000Z</time>
      </trkpt>
      <trkpt lat="44.01314" lon="5.6991">
        <ele>664.8</ele>
        <time>2000-01-01T05:06:38.000Z</time>
      </trkpt>
      <trkpt lat="44.01321" lon="5.6991">
        <ele>664</ele>
        <time>2000-01-01T05:06:48.000Z</time>
      </trkpt>
      <trkpt lat="44.01327" lon="5.69909">
        <ele>664.9</ele>
        <time>2000-01-01T05:06:58.000Z</time>
      </trkpt>
      <trkpt lat="44.01338" lon="5.69903">
        <ele>665.1</ele>
        <time>2000-01-01T05:07:08.000Z</time>
      </trkpt>
      <trkpt lat="44.01355" lon="5.69895">
        <ele>665</ele>
        <time>2000-01-01T05:07:18.000Z</time>
      </trkpt>
      <trkpt lat="44.01369" lon="5.6989">
        <ele>666</ele>
        <time>2000-01-01T05:07:28.000Z</time>
      </trkpt>
      <trkpt lat="44.01374" lon="5.69887">
        <ele>666</ele>
        <time>2000-01-01T05:07:38.000Z</time>
      </trkpt>
      <trkpt lat="44.01379" lon="5.69885">
        <ele>666.1</ele>
        <time>2000-01-01T05:07:48.000Z</time>
      </trkpt>
      <trkpt lat="44.01384" lon="5.69884">
        <ele>666.1</ele>
        <time>2000-01-01T05:07:58.000Z</time>
      </trkpt>
      <trkpt lat="44.01388" lon="5.69881">
        <ele>666.3</ele>
        <time>2000-01-01T05:08:08.000Z</time>
      </trkpt>
      <trkpt lat="44.01392" lon="5.6988">
        <ele>666.3</ele>
        <time>2000-01-01T05:08:18.000Z</time>
      </trkpt>
      <trkpt lat="44.01396" lon="5.69878">
        <ele>666</ele>
        <time>2000-01-01T05:08:28.000Z</time>
      </trkpt>
      <trkpt lat="44.01398" lon="5.69878">
        <ele>666.4</ele>
        <time>2000-01-01T05:08:38.000Z</time>
      </trkpt>
      <trkpt lat="44.01402" lon="5.69876">
        <ele>666.5</ele>
        <time>2000-01-01T05:08:48.000Z</time>
      </trkpt>
      <trkpt lat="44.01411" lon="5.69869">
        <ele>666.7</ele>
        <time>2000-01-01T05:08:58.000Z</time>
      </trkpt>
      <trkpt lat="44.01416" lon="5.69864">
        <ele>666</ele>
        <time>2000-01-01T05:09:08.000Z</time>
      </trkpt>
      <trkpt lat="44.01424" lon="5.69852">
        <ele>667.4</ele>
        <time>2000-01-01T05:09:18.000Z</time>
      </trkpt>
      <trkpt lat="44.0143" lon="5.69842">
        <ele>668</ele>
        <time>2000-01-01T05:09:28.000Z</time>
      </trkpt>
      <trkpt lat="44.0143" lon="5.69837">
        <ele>668.3</ele>
        <time>2000-01-01T05:09:38.000Z</time>
      </trkpt>
      <trkpt lat="44.01432" lon="5.69825">
        <ele>669.2</ele>
        <time>2000-01-01T05:09:48.000Z</time>
      </trkpt>
      <trkpt lat="44.01432" lon="5.6982">
        <ele>669.5</ele>
        <time>2000-01-01T05:09:58.000Z</time>
      </trkpt>
      <trkpt lat="44.01431" lon="5.69815">
        <ele>669</ele>
        <time>2000-01-01T05:10:08.000Z</time>
      </trkpt>
      <trkpt lat="44.01436" lon="5.69787">
        <ele>671</ele>
        <time>2000-01-01T05:10:18.000Z</time>
      </trkpt>
      <trkpt lat="44.01436" lon="5.69784">
        <ele>672.2</ele>
        <time>2000-01-01T05:10:28.000Z</time>
      </trkpt>
      <trkpt lat="44.01438" lon="5.69773">
        <ele>673.1</ele>
        <time>2000-01-01T05:10:38.000Z</time>
      </trkpt>
      <trkpt lat="44.01438" lon="5.6977">
        <ele>673.3</ele>
        <time>2000-01-01T05:10:48.000Z</time>
      </trkpt>
      <trkpt lat="44.0144" lon="5.69761">
        <ele>674</ele>
        <time>2000-01-01T05:10:58.000Z</time>
      </trkpt>
      <trkpt lat="44.01446" lon="5.6975">
        <ele>675</ele>
        <time>2000-01-01T05:11:08.000Z</time>
      </trkpt>
      <trkpt lat="44.01452" lon="5.69736">
        <ele>675.9</ele>
        <time>2000-01-01T05:11:18.000Z</time>
      </trkpt>
      <trkpt lat="44.01458" lon="5.69727">
        <ele>676</ele>
        <time>2000-01-01T05:11:28.000Z</time>
      </trkpt>
      <trkpt lat="44.01462" lon="5.69718">
        <ele>677.4</ele>
        <time>2000-01-01T05:11:38.000Z</time>
      </trkpt>
      <trkpt lat="44.01465" lon="5.69714">
        <ele>677.8</ele>
        <time>2000-01-01T05:11:48.000Z</time>
      </trkpt>
      <trkpt lat="44.01473" lon="5.69696">
        <ele>679</ele>
        <time>2000-01-01T05:11:58.000Z</time>
      </trkpt>
      <trkpt lat="44.01477" lon="5.69684">
        <ele>680.3</ele>
        <time>2000-01-01T05:12:08.000Z</time>
      </trkpt>
      <trkpt lat="44.0148" lon="5.6967">
        <ele>681</ele>
        <time>2000-01-01T05:12:18.000Z</time>
      </trkpt>
      <trkpt lat="44.0148" lon="5.69667">
        <ele>682.2</ele>
        <time>2000-01-01T05:12:28.000Z</time>
      </trkpt>
      <trkpt lat="44.01483" lon="5.69658">
        <ele>683.3</ele>
        <time>2000-01-01T05:12:38.000Z</time>
      </trkpt>
      <trkpt lat="44.01484" lon="5.69653">
        <ele>683.8</ele>
        <time>2000-01-01T05:12:48.000Z</time>
      </trkpt>
      <trkpt lat="44.01484" lon="5.69647">
        <ele>684.4</ele>
        <time>2000-01-01T05:12:58.000Z</time>
      </trkpt>
      <trkpt lat="44.01482" lon="5.69642">
        <ele>684</ele>
        <time>2000-01-01T05:13:08.000Z</time>
      </trkpt>
      <trkpt lat="44.01479" lon="5.69638">
        <ele>684.8</ele>
        <time>2000-01-01T05:13:18.000Z</time>
      </trkpt>
      <trkpt lat="44.01475" lon="5.69628">
        <ele>685</ele>
        <time>2000-01-01T05:13:28.000Z</time>
      </trkpt>
      <trkpt lat="44.01477" lon="5.6962">
        <ele>685.8</ele>
        <time>2000-01-01T05:13:38.000Z</time>
      </trkpt>
      <trkpt lat="44.01477" lon="5.69616">
        <ele>686</ele>
        <time>2000-01-01T05:13:48.000Z</time>
      </trkpt>
      <trkpt lat="44.01478" lon="5.69611">
        <ele>686.4</ele>
        <time>2000-01-01T05:13:58.000Z</time>
      </trkpt>
      <trkpt lat="44.0148" lon="5.69606">
        <ele>686.9</ele>
        <time>2000-01-01T05:14:08.000Z</time>
      </trkpt>
      <trkpt lat="44.01482" lon="5.69595">
        <ele>687.7</ele>
        <time>2000-01-01T05:14:18.000Z</time>
      </trkpt>
      <trkpt lat="44.01482" lon="5.69574">
        <ele>689</ele>
        <time>2000-01-01T05:14:28.000Z</time>
      </trkpt>
      <trkpt lat="44.01481" lon="5.69569">
        <ele>689.7</ele>
        <time>2000-01-01T05:14:38.000Z</time>
      </trkpt>
      <trkpt lat="44.01481" lon="5.69564">
        <ele>690.2</ele>
        <time>2000-01-01T05:14:48.000Z</time>
      </trkpt>
      <trkpt lat="44.01479" lon="5.69557">
        <ele>690.9</ele>
        <time>2000-01-01T05:14:58.000Z</time>
      </trkpt>
      <trkpt lat="44.01479" lon="5.69553">
        <ele>691.3</ele>
        <time>2000-01-01T05:15:08.000Z</time>
      </trkpt>
      <trkpt lat="44.01478" lon="5.69548">
        <ele>691.8</ele>
        <time>2000-01-01T05:15:18.000Z</time>
      </trkpt>
      <trkpt lat="44.01478" lon="5.69522">
        <ele>694</ele>
        <time>2000-01-01T05:15:28.000Z</time>
      </trkpt>
      <trkpt lat="44.01479" lon="5.69518">
        <ele>695.1</ele>
        <time>2000-01-01T05:15:38.000Z</time>
      </trkpt>
      <trkpt lat="44.01478" lon="5.69514">
        <ele>695.5</ele>
        <time>2000-01-01T05:15:48.000Z</time>
      </trkpt>
      <trkpt lat="44.01478" lon="5.69491">
        <ele>698</ele>
        <time>2000-01-01T05:15:58.000Z</time>
      </trkpt>
      <trkpt lat="44.01479" lon="5.69487">
        <ele>698.4</ele>
        <time>2000-01-01T05:16:08.000Z</time>
      </trkpt>
      <trkpt lat="44.01479" lon="5.69483">
        <ele>698.8</ele>
        <time>2000-01-01T05:16:18.000Z</time>
      </trkpt>
      <trkpt lat="44.01481" lon="5.69475">
        <ele>699.7</ele>
        <time>2000-01-01T05:16:28.000Z</time>
      </trkpt>
      <trkpt lat="44.01481" lon="5.69471">
        <ele>700.2</ele>
        <time>2000-01-01T05:16:38.000Z</time>
      </trkpt>
      <trkpt lat="44.01478" lon="5.6946">
        <ele>702</ele>
        <time>2000-01-01T05:16:48.000Z</time>
      </trkpt>
      <trkpt lat="44.01475" lon="5.69455">
        <ele>702.6</ele>
        <time>2000-01-01T05:16:58.000Z</time>
      </trkpt>
      <trkpt lat="44.01466" lon="5.69446">
        <ele>704</ele>
        <time>2000-01-01T05:17:08.000Z</time>
      </trkpt>
      <trkpt lat="44.01463" lon="5.69444">
        <ele>704.4</ele>
        <time>2000-01-01T05:17:18.000Z</time>
      </trkpt>
      <trkpt lat="44.01459" lon="5.69439">
        <ele>705</ele>
        <time>2000-01-01T05:17:28.000Z</time>
      </trkpt>
      <trkpt lat="44.01452" lon="5.69433">
        <ele>705.9</ele>
        <time>2000-01-01T05:17:38.000Z</time>
      </trkpt>
      <trkpt lat="44.0145" lon="5.6943">
        <ele>706.2</ele>
        <time>2000-01-01T05:17:48.000Z</time>
      </trkpt>
      <trkpt lat="44.01439" lon="5.69426">
        <ele>707</ele>
        <time>2000-01-01T05:17:58.000Z</time>
      </trkpt>
      <trkpt lat="44.01433" lon="5.69426">
        <ele>706.9</ele>
        <time>2000-01-01T05:18:08.000Z</time>
      </trkpt>
      <trkpt lat="44.01424" lon="5.69423">
        <ele>707.4</ele>
        <time>2000-01-01T05:18:18.000Z</time>
      </trkpt>
      <trkpt lat="44.01421" lon="5.69421">
        <ele>707.7</ele>
        <time>2000-01-01T05:18:28.000Z</time>
      </trkpt>
      <trkpt lat="44.01414" lon="5.69414">
        <ele>707</ele>
        <time>2000-01-01T05:18:38.000Z</time>
      </trkpt>
      <trkpt lat="44.0141" lon="5.69412">
        <ele>708.1</ele>
        <time>2000-01-01T05:18:48.000Z</time>
      </trkpt>
      <trkpt lat="44.01407" lon="5.69409">
        <ele>708.2</ele>
        <time>2000-01-01T05:18:58.000Z</time>
      </trkpt>
      <trkpt lat="44.01406" lon="5.69407">
        <ele>708.3</ele>
        <time>2000-01-01T05:19:08.000Z</time>
      </trkpt>
      <trkpt lat="44.01404" lon="5.69406">
        <ele>708.3</ele>
        <time>2000-01-01T05:19:18.000Z</time>
      </trkpt>
      <trkpt lat="44.01402" lon="5.69403">
        <ele>708.5</ele>
        <time>2000-01-01T05:19:28.000Z</time>
      </trkpt>
      <trkpt lat="44.01397" lon="5.69398">
        <ele>709</ele>
        <time>2000-01-01T05:19:38.000Z</time>
      </trkpt>
      <trkpt lat="44.01395" lon="5.69393">
        <ele>708.9</ele>
        <time>2000-01-01T05:19:48.000Z</time>
      </trkpt>
      <trkpt lat="44.01395" lon="5.6939">
        <ele>709.1</ele>
        <time>2000-01-01T05:19:58.000Z</time>
      </trkpt>
      <trkpt lat="44.01394" lon="5.69386">
        <ele>709.5</ele>
        <time>2000-01-01T05:20:08.000Z</time>
      </trkpt>
      <trkpt lat="44.01395" lon="5.6938">
        <ele>710.3</ele>
        <time>2000-01-01T05:20:18.000Z</time>
      </trkpt>
      <trkpt lat="44.01395" lon="5.69377">
        <ele>710.7</ele>
        <time>2000-01-01T05:20:28.000Z</time>
      </trkpt>
      <trkpt lat="44.01396" lon="5.69374">
        <ele>711.1</ele>
        <time>2000-01-01T05:20:38.000Z</time>
      </trkpt>
      <trkpt lat="44.01396" lon="5.69365">
        <ele>711</ele>
        <time>2000-01-01T05:20:48.000Z</time>
      </trkpt>
      <trkpt lat="44.01393" lon="5.69357">
        <ele>713</ele>
        <time>2000-01-01T05:20:58.000Z</time>
      </trkpt>
      <trkpt lat="44.01389" lon="5.69353">
        <ele>713.2</ele>
        <time>2000-01-01T05:21:08.000Z</time>
      </trkpt>
      <trkpt lat="44.01373" lon="5.69327">
        <ele>714</ele>
        <time>2000-01-01T05:21:18.000Z</time>
      </trkpt>
      <trkpt lat="44.0137" lon="5.69321">
        <ele>714.8</ele>
        <time>2000-01-01T05:21:28.000Z</time>
      </trkpt>
      <trkpt lat="44.01367" lon="5.69317">
        <ele>714.7</ele>
        <time>2000-01-01T05:21:38.000Z</time>
      </trkpt>
      <trkpt lat="44.01362" lon="5.69313">
        <ele>714.3</ele>
        <time>2000-01-01T05:21:48.000Z</time>
      </trkpt>
      <trkpt lat="44.01358" lon="5.69308">
        <ele>715</ele>
        <time>2000-01-01T05:21:58.000Z</time>
      </trkpt>
      <trkpt lat="44.01346" lon="5.69299">
        <ele>715.5</ele>
        <time>2000-01-01T05:22:08.000Z</time>
      </trkpt>
      <trkpt lat="44.01342" lon="5.69295">
        <ele>715.8</ele>
        <time>2000-01-01T05:22:18.000Z</time>
      </trkpt>
      <trkpt lat="44.01334" lon="5.69286">
        <ele>716</ele>
        <time>2000-01-01T05:22:28.000Z</time>
      </trkpt>
      <trkpt lat="44.01326" lon="5.69275">
        <ele>716.2</ele>
        <time>2000-01-01T05:22:38.000Z</time>
      </trkpt>
      <trkpt lat="44.01321" lon="5.69262">
        <ele>716</ele>
        <time>2000-01-01T05:22:48.000Z</time>
      </trkpt>
      <trkpt lat="44.01317" lon="5.69256">
        <ele>717</ele>
        <time>2000-01-01T05:22:58.000Z</time>
      </trkpt>
      <trkpt lat="44.01314" lon="5.6925">
        <ele>717.2</ele>
        <time>2000-01-01T05:23:08.000Z</time>
      </trkpt>
      <trkpt lat="44.0131" lon="5.69245">
        <ele>717.2</ele>
        <time>2000-01-01T05:23:18.000Z</time>
      </trkpt>
      <trkpt lat="44.01301" lon="5.69229">
        <ele>718</ele>
        <time>2000-01-01T05:23:28.000Z</time>
      </trkpt>
      <trkpt lat="44.01297" lon="5.69218">
        <ele>718.5</ele>
        <time>2000-01-01T05:23:38.000Z</time>
      </trkpt>
      <trkpt lat="44.01296" lon="5.69213">
        <ele>719.2</ele>
        <time>2000-01-01T05:23:48.000Z</time>
      </trkpt>
      <trkpt lat="44.0129" lon="5.69199">
        <ele>720</ele>
        <time>2000-01-01T05:23:58.000Z</time>
      </trkpt>
      <trkpt lat="44.0129" lon="5.69197">
        <ele>720.8</ele>
        <time>2000-01-01T05:24:08.000Z</time>
      </trkpt>
      <trkpt lat="44.01285" lon="5.6919">
        <ele>721.3</ele>
        <time>2000-01-01T05:24:18.000Z</time>
      </trkpt>
      <trkpt lat="44.01283" lon="5.69182">
        <ele>722.7</ele>
        <time>2000-01-01T05:24:28.000Z</time>
      </trkpt>
      <trkpt lat="44.01272" lon="5.69163">
        <ele>725</ele>
        <time>2000-01-01T05:24:38.000Z</time>
      </trkpt>
      <trkpt lat="44.01268" lon="5.69158">
        <ele>725.2</ele>
        <time>2000-01-01T05:24:48.000Z</time>
      </trkpt>
      <trkpt lat="44.01266" lon="5.69153">
        <ele>726</ele>
        <time>2000-01-01T05:24:58.000Z</time>
      </trkpt>
      <trkpt lat="44.01264" lon="5.69151">
        <ele>726.2</ele>
        <time>2000-01-01T05:25:08.000Z</time>
      </trkpt>
      <trkpt lat="44.01262" lon="5.69147">
        <ele>726.8</ele>
        <time>2000-01-01T05:25:18.000Z</time>
      </trkpt>
      <trkpt lat="44.0126" lon="5.69139">
        <ele>728</ele>
        <time>2000-01-01T05:25:28.000Z</time>
      </trkpt>
      <trkpt lat="44.0126" lon="5.6912">
        <ele>732.1</ele>
        <time>2000-01-01T05:25:38.000Z</time>
      </trkpt>
      <trkpt lat="44.01259" lon="5.69116">
        <ele>732.7</ele>
        <time>2000-01-01T05:25:48.000Z</time>
      </trkpt>
      <trkpt lat="44.01259" lon="5.69105">
        <ele>733</ele>
        <time>2000-01-01T05:25:58.000Z</time>
      </trkpt>
      <trkpt lat="44.01257" lon="5.69095">
        <ele>735.6</ele>
        <time>2000-01-01T05:26:08.000Z</time>
      </trkpt>
      <trkpt lat="44.01257" lon="5.69092">
        <ele>736</ele>
        <time>2000-01-01T05:26:18.000Z</time>
      </trkpt>
      <trkpt lat="44.01255" lon="5.69084">
        <ele>736.8</ele>
        <time>2000-01-01T05:26:28.000Z</time>
      </trkpt>
      <trkpt lat="44.01255" lon="5.69077">
        <ele>738</ele>
        <time>2000-01-01T05:26:38.000Z</time>
      </trkpt>
      <trkpt lat="44.01253" lon="5.69069">
        <ele>739.1</ele>
        <time>2000-01-01T05:26:48.000Z</time>
      </trkpt>
      <trkpt lat="44.01254" lon="5.69065">
        <ele>739.9</ele>
        <time>2000-01-01T05:26:58.000Z</time>
      </trkpt>
      <trkpt lat="44.01253" lon="5.69062">
        <ele>740.3</ele>
        <time>2000-01-01T05:27:08.000Z</time>
      </trkpt>
      <trkpt lat="44.01253" lon="5.69058">
        <ele>741</ele>
        <time>2000-01-01T05:27:18.000Z</time>
      </trkpt>
      <trkpt lat="44.01254" lon="5.69054">
        <ele>741.8</ele>
        <time>2000-01-01T05:27:28.000Z</time>
      </trkpt>
      <trkpt lat="44.01253" lon="5.6905">
        <ele>743</ele>
        <time>2000-01-01T05:27:38.000Z</time>
      </trkpt>
      <trkpt lat="44.01253" lon="5.69047">
        <ele>742.6</ele>
        <time>2000-01-01T05:27:48.000Z</time>
      </trkpt>
      <trkpt lat="44.01254" lon="5.69044">
        <ele>743.2</ele>
        <time>2000-01-01T05:27:58.000Z</time>
      </trkpt>
      <trkpt lat="44.01254" lon="5.69034">
        <ele>744.6</ele>
        <time>2000-01-01T05:28:08.000Z</time>
      </trkpt>
      <trkpt lat="44.01255" lon="5.69031">
        <ele>745.1</ele>
        <time>2000-01-01T05:28:18.000Z</time>
      </trkpt>
      <trkpt lat="44.01255" lon="5.69028">
        <ele>745.5</ele>
        <time>2000-01-01T05:28:28.000Z</time>
      </trkpt>
      <trkpt lat="44.01256" lon="5.69026">
        <ele>745.9</ele>
        <time>2000-01-01T05:28:38.000Z</time>
      </trkpt>
      <trkpt lat="44.01256" lon="5.69022">
        <ele>745</ele>
        <time>2000-01-01T05:28:48.000Z</time>
      </trkpt>
      <trkpt lat="44.01257" lon="5.69019">
        <ele>747</ele>
        <time>2000-01-01T05:28:58.000Z</time>
      </trkpt>
      <trkpt lat="44.01257" lon="5.69012">
        <ele>748</ele>
        <time>2000-01-01T05:29:08.000Z</time>
      </trkpt>
      <trkpt lat="44.01259" lon="5.69007">
        <ele>749</ele>
        <time>2000-01-01T05:29:18.000Z</time>
      </trkpt>
      <trkpt lat="44.01261" lon="5.69004">
        <ele>749.6</ele>
        <time>2000-01-01T05:29:28.000Z</time>
      </trkpt>
      <trkpt lat="44.01269" lon="5.68998">
        <ele>750</ele>
        <time>2000-01-01T05:29:38.000Z</time>
      </trkpt>
      <trkpt lat="44.01271" lon="5.68995">
        <ele>751.7</ele>
        <time>2000-01-01T05:29:48.000Z</time>
      </trkpt>
      <trkpt lat="44.01274" lon="5.68993">
        <ele>752.1</ele>
        <time>2000-01-01T05:29:58.000Z</time>
      </trkpt>
      <trkpt lat="44.01278" lon="5.68989">
        <ele>752.8</ele>
        <time>2000-01-01T05:30:08.000Z</time>
      </trkpt>
      <trkpt lat="44.01288" lon="5.68974">
        <ele>754</ele>
        <time>2000-01-01T05:30:18.000Z</time>
      </trkpt>
      <trkpt lat="44.01291" lon="5.68972">
        <ele>755.4</ele>
        <time>2000-01-01T05:30:28.000Z</time>
      </trkpt>
      <trkpt lat="44.01295" lon="5.68966">
        <ele>756.4</ele>
        <time>2000-01-01T05:30:38.000Z</time>
      </trkpt>
      <trkpt lat="44.01301" lon="5.68961">
        <ele>757.4</ele>
        <time>2000-01-01T05:30:48.000Z</time>
      </trkpt>
      <trkpt lat="44.01306" lon="5.68959">
        <ele>758</ele>
        <time>2000-01-01T05:30:58.000Z</time>
      </trkpt>
      <trkpt lat="44.01321" lon="5.68959">
        <ele>759.1</ele>
        <time>2000-01-01T05:31:08.000Z</time>
      </trkpt>
      <trkpt lat="44.01329" lon="5.68961">
        <ele>758</ele>
        <time>2000-01-01T05:31:18.000Z</time>
      </trkpt>
      <trkpt lat="44.01344" lon="5.68961">
        <ele>760.8</ele>
        <time>2000-01-01T05:31:28.000Z</time>
      </trkpt>
      <trkpt lat="44.01349" lon="5.6896">
        <ele>761</ele>
        <time>2000-01-01T05:31:38.000Z</time>
      </trkpt>
      <trkpt lat="44.01353" lon="5.68961">
        <ele>761.6</ele>
        <time>2000-01-01T05:31:48.000Z</time>
      </trkpt>
      <trkpt lat="44.01358" lon="5.68961">
        <ele>762.1</ele>
        <time>2000-01-01T05:31:58.000Z</time>
      </trkpt>
      <trkpt lat="44.01373" lon="5.68957">
        <ele>763</ele>
        <time>2000-01-01T05:32:08.000Z</time>
      </trkpt>
      <trkpt lat="44.01382" lon="5.68957">
        <ele>764.4</ele>
        <time>2000-01-01T05:32:18.000Z</time>
      </trkpt>
      <trkpt lat="44.01386" lon="5.68956">
        <ele>764.7</ele>
        <time>2000-01-01T05:32:28.000Z</time>
      </trkpt>
      <trkpt lat="44.014" lon="5.6895">
        <ele>765</ele>
        <time>2000-01-01T05:32:38.000Z</time>
      </trkpt>
      <trkpt lat="44.01408" lon="5.68943">
        <ele>767</ele>
        <time>2000-01-01T05:32:48.000Z</time>
      </trkpt>
      <trkpt lat="44.01412" lon="5.68942">
        <ele>767.4</ele>
        <time>2000-01-01T05:32:58.000Z</time>
      </trkpt>
      <trkpt lat="44.01419" lon="5.68943">
        <ele>766</ele>
        <time>2000-01-01T05:33:08.000Z</time>
      </trkpt>
      <trkpt lat="44.01423" lon="5.68942">
        <ele>768.6</ele>
        <time>2000-01-01T05:33:18.000Z</time>
      </trkpt>
      <trkpt lat="44.01427" lon="5.6894">
        <ele>769</ele>
        <time>2000-01-01T05:33:28.000Z</time>
      </trkpt>
      <trkpt lat="44.01432" lon="5.68939">
        <ele>769.5</ele>
        <time>2000-01-01T05:33:38.000Z</time>
      </trkpt>
      <trkpt lat="44.01442" lon="5.68935">
        <ele>769</ele>
        <time>2000-01-01T05:33:48.000Z</time>
      </trkpt>
      <trkpt lat="44.01446" lon="5.68935">
        <ele>770.9</ele>
        <time>2000-01-01T05:33:58.000Z</time>
      </trkpt>
      <trkpt lat="44.0145" lon="5.68937">
        <ele>771.5</ele>
        <time>2000-01-01T05:34:08.000Z</time>
      </trkpt>
      <trkpt lat="44.01456" lon="5.68945">
        <ele>772.7</ele>
        <time>2000-01-01T05:34:18.000Z</time>
      </trkpt>
      <trkpt lat="44.01459" lon="5.68948">
        <ele>771</ele>
        <time>2000-01-01T05:34:28.000Z</time>
      </trkpt>
      <trkpt lat="44.0147" lon="5.68957">
        <ele>775.6</ele>
        <time>2000-01-01T05:34:38.000Z</time>
      </trkpt>
      <trkpt lat="44.01478" lon="5.68965">
        <ele>775</ele>
        <time>2000-01-01T05:34:48.000Z</time>
      </trkpt>
      <trkpt lat="44.01482" lon="5.68971">
        <ele>778</ele>
        <time>2000-01-01T05:34:58.000Z</time>
      </trkpt>
      <trkpt lat="44.01483" lon="5.68975">
        <ele>778.3</ele>
        <time>2000-01-01T05:35:08.000Z</time>
      </trkpt>
      <trkpt lat="44.01488" lon="5.68986">
        <ele>779.5</ele>
        <time>2000-01-01T05:35:18.000Z</time>
      </trkpt>
      <trkpt lat="44.01488" lon="5.68991">
        <ele>779</ele>
        <time>2000-01-01T05:35:28.000Z</time>
      </trkpt>
      <trkpt lat="44.01489" lon="5.68994">
        <ele>780.1</ele>
        <time>2000-01-01T05:35:38.000Z</time>
      </trkpt>
      <trkpt lat="44.015" lon="5.69014">
        <ele>781</ele>
        <time>2000-01-01T05:35:48.000Z</time>
      </trkpt>
      <trkpt lat="44.01505" lon="5.69019">
        <ele>783.3</ele>
        <time>2000-01-01T05:35:58.000Z</time>
      </trkpt>
      <trkpt lat="44.0151" lon="5.69021">
        <ele>784.1</ele>
        <time>2000-01-01T05:36:08.000Z</time>
      </trkpt>
      <trkpt lat="44.01513" lon="5.69023">
        <ele>784.6</ele>
        <time>2000-01-01T05:36:18.000Z</time>
      </trkpt>
      <trkpt lat="44.01519" lon="5.69032">
        <ele>785</ele>
        <time>2000-01-01T05:36:28.000Z</time>
      </trkpt>
      <trkpt lat="44.01529" lon="5.6904">
        <ele>787.6</ele>
        <time>2000-01-01T05:36:38.000Z</time>
      </trkpt>
      <trkpt lat="44.01537" lon="5.69048">
        <ele>787</ele>
        <time>2000-01-01T05:36:48.000Z</time>
      </trkpt>
      <trkpt lat="44.01539" lon="5.69051">
        <ele>789</ele>
        <time>2000-01-01T05:36:58.000Z</time>
      </trkpt>
      <trkpt lat="44.01542" lon="5.69053">
        <ele>789.4</ele>
        <time>2000-01-01T05:37:08.000Z</time>
      </trkpt>
      <trkpt lat="44.01544" lon="5.69056">
        <ele>789.7</ele>
        <time>2000-01-01T05:37:18.000Z</time>
      </trkpt>
      <trkpt lat="44.01547" lon="5.69058">
        <ele>790</ele>
        <time>2000-01-01T05:37:28.000Z</time>
      </trkpt>
      <trkpt lat="44.0155" lon="5.69059">
        <ele>790.3</ele>
        <time>2000-01-01T05:37:38.000Z</time>
      </trkpt>
      <trkpt lat="44.01555" lon="5.69059">
        <ele>790</ele>
        <time>2000-01-01T05:37:48.000Z</time>
      </trkpt>
      <trkpt lat="44.01564" lon="5.69062">
        <ele>791.4</ele>
        <time>2000-01-01T05:37:58.000Z</time>
      </trkpt>
      <trkpt lat="44.0157" lon="5.69066">
        <ele>791.9</ele>
        <time>2000-01-01T05:38:08.000Z</time>
      </trkpt>
      <trkpt lat="44.01573" lon="5.6907">
        <ele>790</ele>
        <time>2000-01-01T05:38:18.000Z</time>
      </trkpt>
      <trkpt lat="44.01577" lon="5.69082">
        <ele>792.3</ele>
        <time>2000-01-01T05:38:28.000Z</time>
      </trkpt>
      <trkpt lat="44.0158" lon="5.69089">
        <ele>792</ele>
        <time>2000-01-01T05:38:38.000Z</time>
      </trkpt>
      <trkpt lat="44.0159" lon="5.69099">
        <ele>791</ele>
        <time>2000-01-01T05:38:48.000Z</time>
      </trkpt>
      <trkpt lat="44.01595" lon="5.69102">
        <ele>791.7</ele>
        <time>2000-01-01T05:38:58.000Z</time>
      </trkpt>
      <trkpt lat="44.01601" lon="5.69104">
        <ele>791.9</ele>
        <time>2000-01-01T05:39:08.000Z</time>
      </trkpt>
      <trkpt lat="44.01607" lon="5.69105">
        <ele>792.2</ele>
        <time>2000-01-01T05:39:18.000Z</time>
      </trkpt>
      <trkpt lat="44.01612" lon="5.69105">
        <ele>791</ele>
        <time>2000-01-01T05:39:28.000Z</time>
      </trkpt>
      <trkpt lat="44.01618" lon="5.69107">
        <ele>792</ele>
        <time>2000-01-01T05:39:38.000Z</time>
      </trkpt>
      <trkpt lat="44.01624" lon="5.69111">
        <ele>791.5</ele>
        <time>2000-01-01T05:39:48.000Z</time>
      </trkpt>
      <trkpt lat="44.0163" lon="5.69114">
        <ele>791</ele>
        <time>2000-01-01T05:39:58.000Z</time>
      </trkpt>
      <trkpt lat="44.01636" lon="5.69116">
        <ele>791</ele>
        <time>2000-01-01T05:40:08.000Z</time>
      </trkpt>
      <trkpt lat="44.01648" lon="5.69122">
        <ele>789.4</ele>
        <time>2000-01-01T05:40:18.000Z</time>
      </trkpt>
      <trkpt lat="44.0166" lon="5.69122">
        <ele>789</ele>
        <time>2000-01-01T05:40:28.000Z</time>
      </trkpt>
      <trkpt lat="44.0167" lon="5.69119">
        <ele>787.7</ele>
        <time>2000-01-01T05:40:38.000Z</time>
      </trkpt>
      <trkpt lat="44.01677" lon="5.6912">
        <ele>786.8</ele>
        <time>2000-01-01T05:40:48.000Z</time>
      </trkpt>
      <trkpt lat="44.01691" lon="5.6913">
        <ele>785</ele>
        <time>2000-01-01T05:40:58.000Z</time>
      </trkpt>
      <trkpt lat="44.01697" lon="5.69127">
        <ele>784</ele>
        <time>2000-01-01T05:41:08.000Z</time>
      </trkpt>
      <trkpt lat="44.01702" lon="5.69123">
        <ele>783.3</ele>
        <time>2000-01-01T05:41:18.000Z</time>
      </trkpt>
      <trkpt lat="44.01711" lon="5.69119">
        <ele>781</ele>
        <time>2000-01-01T05:41:28.000Z</time>
      </trkpt>
      <trkpt lat="44.01732" lon="5.6912">
        <ele>778</ele>
        <time>2000-01-01T05:41:38.000Z</time>
      </trkpt>
      <trkpt lat="44.0174" lon="5.69125">
        <ele>778.1</ele>
        <time>2000-01-01T05:41:48.000Z</time>
      </trkpt>
      <trkpt lat="44.01746" lon="5.69132">
        <ele>777.9</ele>
        <time>2000-01-01T05:41:58.000Z</time>
      </trkpt>
      <trkpt lat="44.01751" lon="5.69143">
        <ele>777</ele>
        <time>2000-01-01T05:42:08.000Z</time>
      </trkpt>
      <trkpt lat="44.01754" lon="5.69145">
        <ele>777.6</ele>
        <time>2000-01-01T05:42:18.000Z</time>
      </trkpt>
      <trkpt lat="44.01759" lon="5.69151">
        <ele>777.3</ele>
        <time>2000-01-01T05:42:28.000Z</time>
      </trkpt>
      <trkpt lat="44.01776" lon="5.69159">
        <ele>776</ele>
        <time>2000-01-01T05:42:38.000Z</time>
      </trkpt>
      <trkpt lat="44.01782" lon="5.69163">
        <ele>776.3</ele>
        <time>2000-01-01T05:42:48.000Z</time>
      </trkpt>
      <trkpt lat="44.01789" lon="5.69165">
        <ele>775.6</ele>
        <time>2000-01-01T05:42:58.000Z</time>
      </trkpt>
      <trkpt lat="44.01795" lon="5.69168">
        <ele>775</ele>
        <time>2000-01-01T05:43:08.000Z</time>
      </trkpt>
      <trkpt lat="44.01801" lon="5.6917">
        <ele>774.6</ele>
        <time>2000-01-01T05:43:18.000Z</time>
      </trkpt>
      <trkpt lat="44.01808" lon="5.69174">
        <ele>774.1</ele>
        <time>2000-01-01T05:43:28.000Z</time>
      </trkpt>
      <trkpt lat="44.01822" lon="5.6918">
        <ele>773</ele>
        <time>2000-01-01T05:43:38.000Z</time>
      </trkpt>
      <trkpt lat="44.01829" lon="5.69184">
        <ele>772.9</ele>
        <time>2000-01-01T05:43:48.000Z</time>
      </trkpt>
      <trkpt lat="44.01835" lon="5.6919">
        <ele>772.8</ele>
        <time>2000-01-01T05:43:58.000Z</time>
      </trkpt>
      <trkpt lat="44.0184" lon="5.69194">
        <ele>773</ele>
        <time>2000-01-01T05:44:08.000Z</time>
      </trkpt>
      <trkpt lat="44.01847" lon="5.69198">
        <ele>772.6</ele>
        <time>2000-01-01T05:44:18.000Z</time>
      </trkpt>
      <trkpt lat="44.01852" lon="5.69204">
        <ele>772.6</ele>
        <time>2000-01-01T05:44:28.000Z</time>
      </trkpt>
      <trkpt lat="44.01858" lon="5.69208">
        <ele>772</ele>
        <time>2000-01-01T05:44:38.000Z</time>
      </trkpt>
      <trkpt lat="44.01876" lon="5.69218">
        <ele>772.8</ele>
        <time>2000-01-01T05:44:48.000Z</time>
      </trkpt>
      <trkpt lat="44.01881" lon="5.69222">
        <ele>772</ele>
        <time>2000-01-01T05:44:58.000Z</time>
      </trkpt>
      <trkpt lat="44.01887" lon="5.69225">
        <ele>773</ele>
        <time>2000-01-01T05:45:08.000Z</time>
      </trkpt>
      <trkpt lat="44.01903" lon="5.69235">
        <ele>772</ele>
        <time>2000-01-01T05:45:18.000Z</time>
      </trkpt>
      <trkpt lat="44.01914" lon="5.69243">
        <ele>773.4</ele>
        <time>2000-01-01T05:45:28.000Z</time>
      </trkpt>
      <trkpt lat="44.0192" lon="5.69246">
        <ele>773.8</ele>
        <time>2000-01-01T05:45:38.000Z</time>
      </trkpt>
      <trkpt lat="44.01929" lon="5.69254">
        <ele>774</ele>
        <time>2000-01-01T05:45:48.000Z</time>
      </trkpt>
      <trkpt lat="44.01937" lon="5.6926">
        <ele>775.1</ele>
        <time>2000-01-01T05:45:58.000Z</time>
      </trkpt>
      <trkpt lat="44.01959" lon="5.6927">
        <ele>774</ele>
        <time>2000-01-01T05:46:08.000Z</time>
      </trkpt>
      <trkpt lat="44.01965" lon="5.69274">
        <ele>775</ele>
        <time>2000-01-01T05:46:18.000Z</time>
      </trkpt>
      <trkpt lat="44.01977" lon="5.6928">
        <ele>774</ele>
        <time>2000-01-01T05:46:28.000Z</time>
      </trkpt>
      <trkpt lat="44.01987" lon="5.69286">
        <ele>774.3</ele>
        <time>2000-01-01T05:46:38.000Z</time>
      </trkpt>
      <trkpt lat="44.01993" lon="5.69288">
        <ele>774.2</ele>
        <time>2000-01-01T05:46:48.000Z</time>
      </trkpt>
      <trkpt lat="44.01999" lon="5.69291">
        <ele>774</ele>
        <time>2000-01-01T05:46:58.000Z</time>
      </trkpt>
      <trkpt lat="44.02005" lon="5.69295">
        <ele>773.7</ele>
        <time>2000-01-01T05:47:08.000Z</time>
      </trkpt>
      <trkpt lat="44.0201" lon="5.693">
        <ele>773.5</ele>
        <time>2000-01-01T05:47:18.000Z</time>
      </trkpt>
      <trkpt lat="44.02032" lon="5.69317">
        <ele>772</ele>
        <time>2000-01-01T05:47:28.000Z</time>
      </trkpt>
      <trkpt lat="44.02038" lon="5.6932">
        <ele>772.1</ele>
        <time>2000-01-01T05:47:38.000Z</time>
      </trkpt>
      <trkpt lat="44.02051" lon="5.69325">
        <ele>771</ele>
        <time>2000-01-01T05:47:48.000Z</time>
      </trkpt>
      <trkpt lat="44.02057" lon="5.69328">
        <ele>771.8</ele>
        <time>2000-01-01T05:47:58.000Z</time>
      </trkpt>
      <trkpt lat="44.02063" lon="5.69332">
        <ele>771.7</ele>
        <time>2000-01-01T05:48:08.000Z</time>
      </trkpt>
      <trkpt lat="44.02088" lon="5.69336">
        <ele>771</ele>
        <time>2000-01-01T05:48:18.000Z</time>
      </trkpt>
      <trkpt lat="44.02093" lon="5.69338">
        <ele>770.9</ele>
        <time>2000-01-01T05:48:28.000Z</time>
      </trkpt>
      <trkpt lat="44.02099" lon="5.69339">
        <ele>771</ele>
        <time>2000-01-01T05:48:38.000Z</time>
      </trkpt>
      <trkpt lat="44.02118" lon="5.6934">
        <ele>771</ele>
        <time>2000-01-01T05:48:48.000Z</time>
      </trkpt>
      <trkpt lat="44.02125" lon="5.69341">
        <ele>771.3</ele>
        <time>2000-01-01T05:48:58.000Z</time>
      </trkpt>
      <trkpt lat="44.02138" lon="5.69341">
        <ele>771</ele>
        <time>2000-01-01T05:49:08.000Z</time>
      </trkpt>
      <trkpt lat="44.02144" lon="5.6934">
        <ele>770.9</ele>
        <time>2000-01-01T05:49:18.000Z</time>
      </trkpt>
      <trkpt lat="44.02152" lon="5.69343">
        <ele>770.4</ele>
        <time>2000-01-01T05:49:28.000Z</time>
      </trkpt>
      <trkpt lat="44.02186" lon="5.69353">
        <ele>769</ele>
        <time>2000-01-01T05:49:38.000Z</time>
      </trkpt>
      <trkpt lat="44.02197" lon="5.69357">
        <ele>767.6</ele>
        <time>2000-01-01T05:49:48.000Z</time>
      </trkpt>
      <trkpt lat="44.02207" lon="5.69364">
        <ele>767</ele>
        <time>2000-01-01T05:49:58.000Z</time>
      </trkpt>
      <trkpt lat="44.02214" lon="5.69364">
        <ele>765.8</ele>
        <time>2000-01-01T05:50:08.000Z</time>
      </trkpt>
      <trkpt lat="44.02226" lon="5.69369">
        <ele>765</ele>
        <time>2000-01-01T05:50:18.000Z</time>
      </trkpt>
      <trkpt lat="44.02232" lon="5.69373">
        <ele>763.7</ele>
        <time>2000-01-01T05:50:28.000Z</time>
      </trkpt>
      <trkpt lat="44.02256" lon="5.69384">
        <ele>762</ele>
        <time>2000-01-01T05:50:38.000Z</time>
      </trkpt>
      <trkpt lat="44.02267" lon="5.6939">
        <ele>761.4</ele>
        <time>2000-01-01T05:50:48.000Z</time>
      </trkpt>
      <trkpt lat="44.02276" lon="5.69396">
        <ele>761</ele>
        <time>2000-01-01T05:50:58.000Z</time>
      </trkpt>
      <trkpt lat="44.02288" lon="5.69407">
        <ele>761</ele>
        <time>2000-01-01T05:51:08.000Z</time>
      </trkpt>
      <trkpt lat="44.02321" lon="5.69433">
        <ele>761</ele>
        <time>2000-01-01T05:51:18.000Z</time>
      </trkpt>
      <trkpt lat="44.02326" lon="5.69438">
        <ele>761.7</ele>
        <time>2000-01-01T05:51:28.000Z</time>
      </trkpt>
      <trkpt lat="44.02342" lon="5.69451">
        <ele>761</ele>
        <time>2000-01-01T05:51:38.000Z</time>
      </trkpt>
      <trkpt lat="44.02347" lon="5.69456">
        <ele>761.4</ele>
        <time>2000-01-01T05:51:48.000Z</time>
      </trkpt>
      <trkpt lat="44.02359" lon="5.69464">
        <ele>760</ele>
        <time>2000-01-01T05:51:58.000Z</time>
      </trkpt>
      <trkpt lat="44.02377" lon="5.6947">
        <ele>760.9</ele>
        <time>2000-01-01T05:52:08.000Z</time>
      </trkpt>
      <trkpt lat="44.02384" lon="5.69473">
        <ele>759</ele>
        <time>2000-01-01T05:52:18.000Z</time>
      </trkpt>
      <trkpt lat="44.02396" lon="5.69482">
        <ele>760.2</ele>
        <time>2000-01-01T05:52:28.000Z</time>
      </trkpt>
      <trkpt lat="44.02403" lon="5.69494">
        <ele>759</ele>
        <time>2000-01-01T05:52:38.000Z</time>
      </trkpt>
      <trkpt lat="44.02406" lon="5.69497">
        <ele>758.7</ele>
        <time>2000-01-01T05:52:48.000Z</time>
      </trkpt>
      <trkpt lat="44.02419" lon="5.69518">
        <ele>755</ele>
        <time>2000-01-01T05:52:58.000Z</time>
      </trkpt>
      <trkpt lat="44.0243" lon="5.6953">
        <ele>755.4</ele>
        <time>2000-01-01T05:53:08.000Z</time>
      </trkpt>
      <trkpt lat="44.02451" lon="5.69564">
        <ele>752</ele>
        <time>2000-01-01T05:53:18.000Z</time>
      </trkpt>
      <trkpt lat="44.02454" lon="5.6957">
        <ele>751.6</ele>
        <time>2000-01-01T05:53:28.000Z</time>
      </trkpt>
      <trkpt lat="44.02457" lon="5.69579">
        <ele>750.2</ele>
        <time>2000-01-01T05:53:38.000Z</time>
      </trkpt>
      <trkpt lat="44.02465" lon="5.69594">
        <ele>748</ele>
        <time>2000-01-01T05:53:48.000Z</time>
      </trkpt>
      <trkpt lat="44.02472" lon="5.6961">
        <ele>749.1</ele>
        <time>2000-01-01T05:53:58.000Z</time>
      </trkpt>
      <trkpt lat="44.02484" lon="5.69641">
        <ele>747</ele>
        <time>2000-01-01T05:54:08.000Z</time>
      </trkpt>
      <trkpt lat="44.02488" lon="5.69649">
        <ele>747.2</ele>
        <time>2000-01-01T05:54:18.000Z</time>
      </trkpt>
      <trkpt lat="44.02501" lon="5.69663">
        <ele>747</ele>
        <time>2000-01-01T05:54:28.000Z</time>
      </trkpt>
      <trkpt lat="44.02504" lon="5.69667">
        <ele>747.4</ele>
        <time>2000-01-01T05:54:38.000Z</time>
      </trkpt>
      <trkpt lat="44.02509" lon="5.69671">
        <ele>747.3</ele>
        <time>2000-01-01T05:54:48.000Z</time>
      </trkpt>
      <trkpt lat="44.02521" lon="5.69677">
        <ele>748</ele>
        <time>2000-01-01T05:54:58.000Z</time>
      </trkpt>
      <trkpt lat="44.02526" lon="5.69679">
        <ele>748</ele>
        <time>2000-01-01T05:55:08.000Z</time>
      </trkpt>
      <trkpt lat="44.02532" lon="5.69679">
        <ele>748.7</ele>
        <time>2000-01-01T05:55:18.000Z</time>
      </trkpt>
      <trkpt lat="44.02542" lon="5.69683">
        <ele>749</ele>
        <time>2000-01-01T05:55:28.000Z</time>
      </trkpt>
      <trkpt lat="44.02552" lon="5.69683">
        <ele>750.3</ele>
        <time>2000-01-01T05:55:38.000Z</time>
      </trkpt>
      <trkpt lat="44.02556" lon="5.69682">
        <ele>750.8</ele>
        <time>2000-01-01T05:55:48.000Z</time>
      </trkpt>
      <trkpt lat="44.02566" lon="5.69682">
        <ele>751</ele>
        <time>2000-01-01T05:55:58.000Z</time>
      </trkpt>
      <trkpt lat="44.02582" lon="5.69678">
        <ele>754.2</ele>
        <time>2000-01-01T05:56:08.000Z</time>
      </trkpt>
      <trkpt lat="44.02589" lon="5.69678">
        <ele>755</ele>
        <time>2000-01-01T05:56:18.000Z</time>
      </trkpt>
      <trkpt lat="44.02593" lon="5.69676">
        <ele>755.7</ele>
        <time>2000-01-01T05:56:28.000Z</time>
      </trkpt>
      <trkpt lat="44.02607" lon="5.69673">
        <ele>757.6</ele>
        <time>2000-01-01T05:56:38.000Z</time>
      </trkpt>
      <trkpt lat="44.02611" lon="5.69673">
        <ele>758</ele>
        <time>2000-01-01T05:56:48.000Z</time>
      </trkpt>
      <trkpt lat="44.02615" lon="5.69672">
        <ele>758.5</ele>
        <time>2000-01-01T05:56:58.000Z</time>
      </trkpt>
      <trkpt lat="44.02628" lon="5.69672">
        <ele>759.4</ele>
        <time>2000-01-01T05:57:08.000Z</time>
      </trkpt>
      <trkpt lat="44.02638" lon="5.6967">
        <ele>761</ele>
        <time>2000-01-01T05:57:18.000Z</time>
      </trkpt>
      <trkpt lat="44.02641" lon="5.69668">
        <ele>761</ele>
        <time>2000-01-01T05:57:28.000Z</time>
      </trkpt>
      <trkpt lat="44.02648" lon="5.69666">
        <ele>761.8</ele>
        <time>2000-01-01T05:57:38.000Z</time>
      </trkpt>
      <trkpt lat="44.02655" lon="5.69662">
        <ele>762.8</ele>
        <time>2000-01-01T05:57:48.000Z</time>
      </trkpt>
      <trkpt lat="44.02662" lon="5.69661">
        <ele>763</ele>
        <time>2000-01-01T05:57:58.000Z</time>
      </trkpt>
      <trkpt lat="44.02668" lon="5.69659">
        <ele>764.2</ele>
        <time>2000-01-01T05:58:08.000Z</time>
      </trkpt>
      <trkpt lat="44.02673" lon="5.6966">
        <ele>764.4</ele>
        <time>2000-01-01T05:58:18.000Z</time>
      </trkpt>
      <trkpt lat="44.02677" lon="5.69659">
        <ele>764.8</ele>
        <time>2000-01-01T05:58:28.000Z</time>
      </trkpt>
      <trkpt lat="44.02684" lon="5.69655">
        <ele>765</ele>
        <time>2000-01-01T05:58:38.000Z</time>
      </trkpt>
      <trkpt lat="44.02691" lon="5.69652">
        <ele>766.9</ele>
        <time>2000-01-01T05:58:48.000Z</time>
      </trkpt>
      <trkpt lat="44.02705" lon="5.69653">
        <ele>767</ele>
        <time>2000-01-01T05:58:58.000Z</time>
      </trkpt>
      <trkpt lat="44.0273" lon="5.69641">
        <ele>770</ele>
        <time>2000-01-01T05:59:08.000Z</time>
      </trkpt>
      <trkpt lat="44.02732" lon="5.69639">
        <ele>770.3</ele>
        <time>2000-01-01T05:59:18.000Z</time>
      </trkpt>
      <trkpt lat="44.02744" lon="5.69635">
        <ele>771.3</ele>
        <time>2000-01-01T05:59:28.000Z</time>
      </trkpt>
      <trkpt lat="44.02749" lon="5.69635">
        <ele>772</ele>
        <time>2000-01-01T05:59:38.000Z</time>
      </trkpt>
      <trkpt lat="44.02767" lon="5.69627">
        <ele>773.3</ele>
        <time>2000-01-01T05:59:48.000Z</time>
      </trkpt>
      <trkpt lat="44.02772" lon="5.69626">
        <ele>774</ele>
        <time>2000-01-01T05:59:58.000Z</time>
      </trkpt>
      <trkpt lat="44.02783" lon="5.69628">
        <ele>773.8</ele>
        <time>2000-01-01T06:00:08.000Z</time>
      </trkpt>
      <trkpt lat="44.02798" lon="5.69626">
        <ele>774</ele>
        <time>2000-01-01T06:00:18.000Z</time>
      </trkpt>
      <trkpt lat="44.02821" lon="5.69616">
        <ele>777</ele>
        <time>2000-01-01T06:00:28.000Z</time>
      </trkpt>
      <trkpt lat="44.02823" lon="5.69616">
        <ele>776.9</ele>
        <time>2000-01-01T06:00:38.000Z</time>
      </trkpt>
      <trkpt lat="44.02831" lon="5.69613">
        <ele>777.6</ele>
        <time>2000-01-01T06:00:48.000Z</time>
      </trkpt>
      <trkpt lat="44.02836" lon="5.69612">
        <ele>778</ele>
        <time>2000-01-01T06:00:58.000Z</time>
      </trkpt>
      <trkpt lat="44.02841" lon="5.69612">
        <ele>778</ele>
        <time>2000-01-01T06:01:08.000Z</time>
      </trkpt>
      <trkpt lat="44.02858" lon="5.69609">
        <ele>779.1</ele>
        <time>2000-01-01T06:01:18.000Z</time>
      </trkpt>
      <trkpt lat="44.02862" lon="5.69606">
        <ele>780</ele>
        <time>2000-01-01T06:01:28.000Z</time>
      </trkpt>
      <trkpt lat="44.02871" lon="5.69604">
        <ele>780.4</ele>
        <time>2000-01-01T06:01:38.000Z</time>
      </trkpt>
      <trkpt lat="44.02876" lon="5.69602">
        <ele>780.9</ele>
        <time>2000-01-01T06:01:48.000Z</time>
      </trkpt>
      <trkpt lat="44.02881" lon="5.69602">
        <ele>781.2</ele>
        <time>2000-01-01T06:01:58.000Z</time>
      </trkpt>
      <trkpt lat="44.02901" lon="5.69598">
        <ele>783</ele>
        <time>2000-01-01T06:02:08.000Z</time>
      </trkpt>
      <trkpt lat="44.02906" lon="5.69598">
        <ele>783.2</ele>
        <time>2000-01-01T06:02:18.000Z</time>
      </trkpt>
      <trkpt lat="44.02911" lon="5.696">
        <ele>783.4</ele>
        <time>2000-01-01T06:02:28.000Z</time>
      </trkpt>
      <trkpt lat="44.02932" lon="5.69612">
        <ele>783</ele>
        <time>2000-01-01T06:02:38.000Z</time>
      </trkpt>
      <trkpt lat="44.02953" lon="5.69625">
        <ele>783</ele>
        <time>2000-01-01T06:02:48.000Z</time>
      </trkpt>
      <trkpt lat="44.02971" lon="5.69634">
        <ele>783.1</ele>
        <time>2000-01-01T06:02:58.000Z</time>
      </trkpt>
      <trkpt lat="44.02982" lon="5.69637">
        <ele>783</ele>
        <time>2000-01-01T06:03:08.000Z</time>
      </trkpt>
      <trkpt lat="44.02988" lon="5.6964">
        <ele>783</ele>
        <time>2000-01-01T06:03:18.000Z</time>
      </trkpt>
      <trkpt lat="44.02993" lon="5.69644">
        <ele>782.8</ele>
        <time>2000-01-01T06:03:28.000Z</time>
      </trkpt>
      <trkpt lat="44.03005" lon="5.69646">
        <ele>782</ele>
        <time>2000-01-01T06:03:38.000Z</time>
      </trkpt>
      <trkpt lat="44.03011" lon="5.69649">
        <ele>782.2</ele>
        <time>2000-01-01T06:03:48.000Z</time>
      </trkpt>
      <trkpt lat="44.03023" lon="5.69653">
        <ele>781.7</ele>
        <time>2000-01-01T06:03:58.000Z</time>
      </trkpt>
      <trkpt lat="44.03037" lon="5.69653">
        <ele>781</ele>
        <time>2000-01-01T06:04:08.000Z</time>
      </trkpt>
      <trkpt lat="44.03044" lon="5.69655">
        <ele>780.6</ele>
        <time>2000-01-01T06:04:18.000Z</time>
      </trkpt>
      <trkpt lat="44.03056" lon="5.69661">
        <ele>779</ele>
        <time>2000-01-01T06:04:28.000Z</time>
      </trkpt>
      <trkpt lat="44.03063" lon="5.69663">
        <ele>779.2</ele>
        <time>2000-01-01T06:04:38.000Z</time>
      </trkpt>
      <trkpt lat="44.03077" lon="5.69669">
        <ele>778</ele>
        <time>2000-01-01T06:04:48.000Z</time>
      </trkpt>
      <trkpt lat="44.03096" lon="5.69682">
        <ele>776</ele>
        <time>2000-01-01T06:04:58.000Z</time>
      </trkpt>
      <trkpt lat="44.03106" lon="5.69692">
        <ele>775.3</ele>
        <time>2000-01-01T06:05:08.000Z</time>
      </trkpt>
      <trkpt lat="44.03112" lon="5.69697">
        <ele>774.9</ele>
        <time>2000-01-01T06:05:18.000Z</time>
      </trkpt>
      <trkpt lat="44.03119" lon="5.697">
        <ele>774</ele>
        <time>2000-01-01T06:05:28.000Z</time>
      </trkpt>
      <trkpt lat="44.03124" lon="5.69704">
        <ele>773.6</ele>
        <time>2000-01-01T06:05:38.000Z</time>
      </trkpt>
      <trkpt lat="44.03143" lon="5.69716">
        <ele>771</ele>
        <time>2000-01-01T06:05:48.000Z</time>
      </trkpt>
      <trkpt lat="44.0315" lon="5.69721">
        <ele>770.8</ele>
        <time>2000-01-01T06:05:58.000Z</time>
      </trkpt>
      <trkpt lat="44.03155" lon="5.69726">
        <ele>770.3</ele>
        <time>2000-01-01T06:06:08.000Z</time>
      </trkpt>
      <trkpt lat="44.03168" lon="5.69737">
        <ele>769</ele>
        <time>2000-01-01T06:06:18.000Z</time>
      </trkpt>
      <trkpt lat="44.0318" lon="5.69745">
        <ele>767</ele>
        <time>2000-01-01T06:06:28.000Z</time>
      </trkpt>
      <trkpt lat="44.03193" lon="5.69752">
        <ele>765</ele>
        <time>2000-01-01T06:06:38.000Z</time>
      </trkpt>
      <trkpt lat="44.03198" lon="5.69758">
        <ele>764.8</ele>
        <time>2000-01-01T06:06:48.000Z</time>
      </trkpt>
      <trkpt lat="44.03204" lon="5.6976">
        <ele>764</ele>
        <time>2000-01-01T06:06:58.000Z</time>
      </trkpt>
      <trkpt lat="44.03209" lon="5.69758">
        <ele>763.2</ele>
        <time>2000-01-01T06:07:08.000Z</time>
      </trkpt>
      <trkpt lat="44.03211" lon="5.69755">
        <ele>764</ele>
        <time>2000-01-01T06:07:18.000Z</time>
      </trkpt>
      <trkpt lat="44.03213" lon="5.69749">
        <ele>762.3</ele>
        <time>2000-01-01T06:07:28.000Z</time>
      </trkpt>
      <trkpt lat="44.03213" lon="5.69742">
        <ele>762.2</ele>
        <time>2000-01-01T06:07:38.000Z</time>
      </trkpt>
      <trkpt lat="44.03206" lon="5.6972">
        <ele>765</ele>
        <time>2000-01-01T06:07:48.000Z</time>
      </trkpt>
      <trkpt lat="44.03205" lon="5.69712">
        <ele>763.8</ele>
        <time>2000-01-01T06:07:58.000Z</time>
      </trkpt>
      <trkpt lat="44.03206" lon="5.69704">
        <ele>764.5</ele>
        <time>2000-01-01T06:08:08.000Z</time>
      </trkpt>
      <trkpt lat="44.03209" lon="5.697">
        <ele>764.9</ele>
        <time>2000-01-01T06:08:18.000Z</time>
      </trkpt>
      <trkpt lat="44.03221" lon="5.69692">
        <ele>766</ele>
        <time>2000-01-01T06:08:28.000Z</time>
      </trkpt>
      <trkpt lat="44.03224" lon="5.69689">
        <ele>767</ele>
        <time>2000-01-01T06:08:38.000Z</time>
      </trkpt>
      <trkpt lat="44.03229" lon="5.69682">
        <ele>768.2</ele>
        <time>2000-01-01T06:08:48.000Z</time>
      </trkpt>
      <trkpt lat="44.03235" lon="5.69678">
        <ele>769</ele>
        <time>2000-01-01T06:08:58.000Z</time>
      </trkpt>
      <trkpt lat="44.03236" lon="5.69676">
        <ele>769.3</ele>
        <time>2000-01-01T06:09:08.000Z</time>
      </trkpt>
      <trkpt lat="44.03239" lon="5.69674">
        <ele>770</ele>
        <time>2000-01-01T06:09:18.000Z</time>
      </trkpt>
      <trkpt lat="44.03244" lon="5.69673">
        <ele>769.9</ele>
        <time>2000-01-01T06:09:28.000Z</time>
      </trkpt>
      <trkpt lat="44.03262" lon="5.69665">
        <ele>771</ele>
        <time>2000-01-01T06:09:38.000Z</time>
      </trkpt>
      <trkpt lat="44.03266" lon="5.69662">
        <ele>771.7</ele>
        <time>2000-01-01T06:09:48.000Z</time>
      </trkpt>
      <trkpt lat="44.03287" lon="5.69651">
        <ele>772</ele>
        <time>2000-01-01T06:09:58.000Z</time>
      </trkpt>
      <trkpt lat="44.03289" lon="5.69649">
        <ele>773.5</ele>
        <time>2000-01-01T06:10:08.000Z</time>
      </trkpt>
      <trkpt lat="44.03292" lon="5.69648">
        <ele>773.7</ele>
        <time>2000-01-01T06:10:18.000Z</time>
      </trkpt>
      <trkpt lat="44.03298" lon="5.69644">
        <ele>774.3</ele>
        <time>2000-01-01T06:10:28.000Z</time>
      </trkpt>
      <trkpt lat="44.03303" lon="5.69643">
        <ele>774.4</ele>
        <time>2000-01-01T06:10:38.000Z</time>
      </trkpt>
      <trkpt lat="44.03308" lon="5.69641">
        <ele>775</ele>
        <time>2000-01-01T06:10:48.000Z</time>
      </trkpt>
      <trkpt lat="44.03312" lon="5.69638">
        <ele>775.4</ele>
        <time>2000-01-01T06:10:58.000Z</time>
      </trkpt>
      <trkpt lat="44.03321" lon="5.69635">
        <ele>776.2</ele>
        <time>2000-01-01T06:11:08.000Z</time>
      </trkpt>
      <trkpt lat="44.03343" lon="5.69624">
        <ele>778</ele>
        <time>2000-01-01T06:11:18.000Z</time>
      </trkpt>
      <trkpt lat="44.03347" lon="5.69621">
        <ele>778.6</ele>
        <time>2000-01-01T06:11:28.000Z</time>
      </trkpt>
      <trkpt lat="44.0335" lon="5.6962">
        <ele>778.7</ele>
        <time>2000-01-01T06:11:38.000Z</time>
      </trkpt>
      <trkpt lat="44.03352" lon="5.69618">
        <ele>779</ele>
        <time>2000-01-01T06:11:48.000Z</time>
      </trkpt>
      <trkpt lat="44.03359" lon="5.69614">
        <ele>779.6</ele>
        <time>2000-01-01T06:11:58.000Z</time>
      </trkpt>
      <trkpt lat="44.03364" lon="5.69612">
        <ele>779</ele>
        <time>2000-01-01T06:12:08.000Z</time>
      </trkpt>
      <trkpt lat="44.03369" lon="5.69611">
        <ele>779.7</ele>
        <time>2000-01-01T06:12:18.000Z</time>
      </trkpt>
      <trkpt lat="44.03382" lon="5.69605">
        <ele>779.9</ele>
        <time>2000-01-01T06:12:28.000Z</time>
      </trkpt>
      <trkpt lat="44.03385" lon="5.69603">
        <ele>780</ele>
        <time>2000-01-01T06:12:38.000Z</time>
      </trkpt>
      <trkpt lat="44.0339" lon="5.69601">
        <ele>780.1</ele>
        <time>2000-01-01T06:12:48.000Z</time>
      </trkpt>
      <trkpt lat="44.03396" lon="5.696">
        <ele>780.5</ele>
        <time>2000-01-01T06:12:58.000Z</time>
      </trkpt>
      <trkpt lat="44.0341" lon="5.69594">
        <ele>781</ele>
        <time>2000-01-01T06:13:08.000Z</time>
      </trkpt>
      <trkpt lat="44.03424" lon="5.69573">
        <ele>783</ele>
        <time>2000-01-01T06:13:18.000Z</time>
      </trkpt>
      <trkpt lat="44.03437" lon="5.69559">
        <ele>784.5</ele>
        <time>2000-01-01T06:13:28.000Z</time>
      </trkpt>
      <trkpt lat="44.0344" lon="5.69555">
        <ele>784</ele>
        <time>2000-01-01T06:13:38.000Z</time>
      </trkpt>
      <trkpt lat="44.03444" lon="5.69552">
        <ele>784.9</ele>
        <time>2000-01-01T06:13:48.000Z</time>
      </trkpt>
      <trkpt lat="44.03448" lon="5.6955">
        <ele>785</ele>
        <time>2000-01-01T06:13:58.000Z</time>
      </trkpt>
      <trkpt lat="44.03458" lon="5.69548">
        <ele>785.3</ele>
        <time>2000-01-01T06:14:08.000Z</time>
      </trkpt>
      <trkpt lat="44.03463" lon="5.69548">
        <ele>785</ele>
        <time>2000-01-01T06:14:18.000Z</time>
      </trkpt>
      <trkpt lat="44.03474" lon="5.69546">
        <ele>786.2</ele>
        <time>2000-01-01T06:14:28.000Z</time>
      </trkpt>
      <trkpt lat="44.03488" lon="5.69536">
        <ele>787</ele>
        <time>2000-01-01T06:14:38.000Z</time>
      </trkpt>
      <trkpt lat="44.03501" lon="5.69528">
        <ele>789.1</ele>
        <time>2000-01-01T06:14:48.000Z</time>
      </trkpt>
      <trkpt lat="44.03511" lon="5.69526">
        <ele>789</ele>
        <time>2000-01-01T06:14:58.000Z</time>
      </trkpt>
      <trkpt lat="44.03515" lon="5.69526">
        <ele>790.5</ele>
        <time>2000-01-01T06:15:08.000Z</time>
      </trkpt>
      <trkpt lat="44.03525" lon="5.69522">
        <ele>791.5</ele>
        <time>2000-01-01T06:15:18.000Z</time>
      </trkpt>
      <trkpt lat="44.03528" lon="5.69519">
        <ele>791.7</ele>
        <time>2000-01-01T06:15:28.000Z</time>
      </trkpt>
      <trkpt lat="44.03532" lon="5.69517">
        <ele>791</ele>
        <time>2000-01-01T06:15:38.000Z</time>
      </trkpt>
      <trkpt lat="44.03538" lon="5.69511">
        <ele>792.4</ele>
        <time>2000-01-01T06:15:48.000Z</time>
      </trkpt>
      <trkpt lat="44.03543" lon="5.69509">
        <ele>792.8</ele>
        <time>2000-01-01T06:15:58.000Z</time>
      </trkpt>
      <trkpt lat="44.03544" lon="5.69508">
        <ele>792.9</ele>
        <time>2000-01-01T06:16:08.000Z</time>
      </trkpt>
      <trkpt lat="44.0355" lon="5.69506">
        <ele>792</ele>
        <time>2000-01-01T06:16:18.000Z</time>
      </trkpt>
      <trkpt lat="44.03572" lon="5.69494">
        <ele>795</ele>
        <time>2000-01-01T06:16:28.000Z</time>
      </trkpt>
      <trkpt lat="44.03579" lon="5.69492">
        <ele>797.1</ele>
        <time>2000-01-01T06:16:38.000Z</time>
      </trkpt>
      <trkpt lat="44.03582" lon="5.6949">
        <ele>797.4</ele>
        <time>2000-01-01T06:16:48.000Z</time>
      </trkpt>
      <trkpt lat="44.03592" lon="5.69486">
        <ele>797</ele>
        <time>2000-01-01T06:16:58.000Z</time>
      </trkpt>
      <trkpt lat="44.03596" lon="5.69483">
        <ele>798.6</ele>
        <time>2000-01-01T06:17:08.000Z</time>
      </trkpt>
      <trkpt lat="44.03604" lon="5.69479">
        <ele>799.3</ele>
        <time>2000-01-01T06:17:18.000Z</time>
      </trkpt>
      <trkpt lat="44.03608" lon="5.69476">
        <ele>799.7</ele>
        <time>2000-01-01T06:17:28.000Z</time>
      </trkpt>
      <trkpt lat="44.03629" lon="5.69468">
        <ele>799</ele>
        <time>2000-01-01T06:17:38.000Z</time>
      </trkpt>
      <trkpt lat="44.03634" lon="5.69465">
        <ele>801.3</ele>
        <time>2000-01-01T06:17:48.000Z</time>
      </trkpt>
      <trkpt lat="44.03644" lon="5.69461">
        <ele>802</ele>
        <time>2000-01-01T06:17:58.000Z</time>
      </trkpt>
      <trkpt lat="44.03649" lon="5.6946">
        <ele>801</ele>
        <time>2000-01-01T06:18:08.000Z</time>
      </trkpt>
      <trkpt lat="44.03657" lon="5.6946">
        <ele>803.2</ele>
        <time>2000-01-01T06:18:18.000Z</time>
      </trkpt>
      <trkpt lat="44.03662" lon="5.69463">
        <ele>803.6</ele>
        <time>2000-01-01T06:18:28.000Z</time>
      </trkpt>
      <trkpt lat="44.03673" lon="5.69468">
        <ele>804</ele>
        <time>2000-01-01T06:18:38.000Z</time>
      </trkpt>
      <trkpt lat="44.03677" lon="5.69469">
        <ele>805.4</ele>
        <time>2000-01-01T06:18:48.000Z</time>
      </trkpt>
      <trkpt lat="44.03689" lon="5.69465">
        <ele>807</ele>
        <time>2000-01-01T06:18:58.000Z</time>
      </trkpt>
      <trkpt lat="44.03693" lon="5.69465">
        <ele>807</ele>
        <time>2000-01-01T06:19:08.000Z</time>
      </trkpt>
      <trkpt lat="44.03697" lon="5.69466">
        <ele>808.1</ele>
        <time>2000-01-01T06:19:18.000Z</time>
      </trkpt>
      <trkpt lat="44.03715" lon="5.69476">
        <ele>809</ele>
        <time>2000-01-01T06:19:28.000Z</time>
      </trkpt>
      <trkpt lat="44.03719" lon="5.69476">
        <ele>811.4</ele>
        <time>2000-01-01T06:19:38.000Z</time>
      </trkpt>
      <trkpt lat="44.03729" lon="5.6948">
        <ele>812.5</ele>
        <time>2000-01-01T06:19:48.000Z</time>
      </trkpt>
      <trkpt lat="44.03734" lon="5.6948">
        <ele>812</ele>
        <time>2000-01-01T06:19:58.000Z</time>
      </trkpt>
      <trkpt lat="44.03744" lon="5.69484">
        <ele>814.3</ele>
        <time>2000-01-01T06:20:08.000Z</time>
      </trkpt>
      <trkpt lat="44.0376" lon="5.69488">
        <ele>815</ele>
        <time>2000-01-01T06:20:18.000Z</time>
      </trkpt>
      <trkpt lat="44.03769" lon="5.69492">
        <ele>817.1</ele>
        <time>2000-01-01T06:20:28.000Z</time>
      </trkpt>
      <trkpt lat="44.03773" lon="5.69492">
        <ele>817.5</ele>
        <time>2000-01-01T06:20:38.000Z</time>
      </trkpt>
      <trkpt lat="44.03777" lon="5.69491">
        <ele>817.9</ele>
        <time>2000-01-01T06:20:48.000Z</time>
      </trkpt>
      <trkpt lat="44.03781" lon="5.69489">
        <ele>819</ele>
        <time>2000-01-01T06:20:58.000Z</time>
      </trkpt>
      <trkpt lat="44.03793" lon="5.69488">
        <ele>819.3</ele>
        <time>2000-01-01T06:21:08.000Z</time>
      </trkpt>
      <trkpt lat="44.03797" lon="5.69487">
        <ele>819.7</ele>
        <time>2000-01-01T06:21:18.000Z</time>
      </trkpt>
      <trkpt lat="44.03802" lon="5.69488">
        <ele>820</ele>
        <time>2000-01-01T06:21:28.000Z</time>
      </trkpt>
      <trkpt lat="44.0381" lon="5.69492">
        <ele>820.6</ele>
        <time>2000-01-01T06:21:38.000Z</time>
      </trkpt>
      <trkpt lat="44.03818" lon="5.69494">
        <ele>821</ele>
        <time>2000-01-01T06:21:48.000Z</time>
      </trkpt>
      <trkpt lat="44.03823" lon="5.69496">
        <ele>822</ele>
        <time>2000-01-01T06:21:58.000Z</time>
      </trkpt>
      <trkpt lat="44.03848" lon="5.69501">
        <ele>822</ele>
        <time>2000-01-01T06:22:08.000Z</time>
      </trkpt>
      <trkpt lat="44.03853" lon="5.69503">
        <ele>821.8</ele>
        <time>2000-01-01T06:22:18.000Z</time>
      </trkpt>
      <trkpt lat="44.03859" lon="5.69507">
        <ele>821.5</ele>
        <time>2000-01-01T06:22:28.000Z</time>
      </trkpt>
      <trkpt lat="44.03869" lon="5.6951">
        <ele>822</ele>
        <time>2000-01-01T06:22:38.000Z</time>
      </trkpt>
      <trkpt lat="44.03875" lon="5.69513">
        <ele>820.5</ele>
        <time>2000-01-01T06:22:48.000Z</time>
      </trkpt>
      <trkpt lat="44.03882" lon="5.69515">
        <ele>820.2</ele>
        <time>2000-01-01T06:22:58.000Z</time>
      </trkpt>
      <trkpt lat="44.03902" lon="5.69523">
        <ele>820</ele>
        <time>2000-01-01T06:23:08.000Z</time>
      </trkpt>
      <trkpt lat="44.03915" lon="5.69525">
        <ele>819.7</ele>
        <time>2000-01-01T06:23:18.000Z</time>
      </trkpt>
      <trkpt lat="44.03932" lon="5.69536">
        <ele>820</ele>
        <time>2000-01-01T06:23:28.000Z</time>
      </trkpt>
      <trkpt lat="44.03948" lon="5.69542">
        <ele>819.6</ele>
        <time>2000-01-01T06:23:38.000Z</time>
      </trkpt>
      <trkpt lat="44.03964" lon="5.69541">
        <ele>820</ele>
        <time>2000-01-01T06:23:48.000Z</time>
      </trkpt>
      <trkpt lat="44.03974" lon="5.69543">
        <ele>820.7</ele>
        <time>2000-01-01T06:23:58.000Z</time>
      </trkpt>
      <trkpt lat="44.03978" lon="5.69545">
        <ele>821.3</ele>
        <time>2000-01-01T06:24:08.000Z</time>
      </trkpt>
      <trkpt lat="44.03983" lon="5.69546">
        <ele>822</ele>
        <time>2000-01-01T06:24:18.000Z</time>
      </trkpt>
      <trkpt lat="44.03995" lon="5.69551">
        <ele>823.8</ele>
        <time>2000-01-01T06:24:28.000Z</time>
      </trkpt>
      <trkpt lat="44.04" lon="5.69555">
        <ele>824.9</ele>
        <time>2000-01-01T06:24:38.000Z</time>
      </trkpt>
      <trkpt lat="44.04004" lon="5.69557">
        <ele>824</ele>
        <time>2000-01-01T06:24:48.000Z</time>
      </trkpt>
      <trkpt lat="44.04008" lon="5.69558">
        <ele>825.6</ele>
        <time>2000-01-01T06:24:58.000Z</time>
      </trkpt>
      <trkpt lat="44.04012" lon="5.6956">
        <ele>825.9</ele>
        <time>2000-01-01T06:25:08.000Z</time>
      </trkpt>
      <trkpt lat="44.0402" lon="5.69562">
        <ele>826.6</ele>
        <time>2000-01-01T06:25:18.000Z</time>
      </trkpt>
      <trkpt lat="44.04035" lon="5.69568">
        <ele>828</ele>
        <time>2000-01-01T06:25:28.000Z</time>
      </trkpt>
      <trkpt lat="44.04039" lon="5.6957">
        <ele>828.6</ele>
        <time>2000-01-01T06:25:38.000Z</time>
      </trkpt>
      <trkpt lat="44.04043" lon="5.69573">
        <ele>829.1</ele>
        <time>2000-01-01T06:25:48.000Z</time>
      </trkpt>
      <trkpt lat="44.04045" lon="5.69573">
        <ele>829.4</ele>
        <time>2000-01-01T06:25:58.000Z</time>
      </trkpt>
      <trkpt lat="44.04048" lon="5.69575">
        <ele>829.8</ele>
        <time>2000-01-01T06:26:08.000Z</time>
      </trkpt>
      <trkpt lat="44.04063" lon="5.69575">
        <ele>832</ele>
        <time>2000-01-01T06:26:18.000Z</time>
      </trkpt>
      <trkpt lat="44.04066" lon="5.69576">
        <ele>832.8</ele>
        <time>2000-01-01T06:26:28.000Z</time>
      </trkpt>
      <trkpt lat="44.04074" lon="5.69576">
        <ele>834.1</ele>
        <time>2000-01-01T06:26:38.000Z</time>
      </trkpt>
      <trkpt lat="44.04077" lon="5.69577">
        <ele>834.7</ele>
        <time>2000-01-01T06:26:48.000Z</time>
      </trkpt>
      <trkpt lat="44.04082" lon="5.69577">
        <ele>835.5</ele>
        <time>2000-01-01T06:26:58.000Z</time>
      </trkpt>
      <trkpt lat="44.04088" lon="5.69579">
        <ele>835</ele>
        <time>2000-01-01T06:27:08.000Z</time>
      </trkpt>
      <trkpt lat="44.04093" lon="5.69577">
        <ele>837.2</ele>
        <time>2000-01-01T06:27:18.000Z</time>
      </trkpt>
      <trkpt lat="44.04098" lon="5.69577">
        <ele>837.9</ele>
        <time>2000-01-01T06:27:28.000Z</time>
      </trkpt>
      <trkpt lat="44.04101" lon="5.69578">
        <ele>838.4</ele>
        <time>2000-01-01T06:27:38.000Z</time>
      </trkpt>
      <trkpt lat="44.04108" lon="5.69582">
        <ele>838</ele>
        <time>2000-01-01T06:27:48.000Z</time>
      </trkpt>
      <trkpt lat="44.04125" lon="5.69584">
        <ele>842.5</ele>
        <time>2000-01-01T06:27:58.000Z</time>
      </trkpt>
      <trkpt lat="44.04136" lon="5.69588">
        <ele>843</ele>
        <time>2000-01-01T06:28:08.000Z</time>
      </trkpt>
      <trkpt lat="44.04141" lon="5.69586">
        <ele>845.1</ele>
        <time>2000-01-01T06:28:18.000Z</time>
      </trkpt>
      <trkpt lat="44.04172" lon="5.69586">
        <ele>848</ele>
        <time>2000-01-01T06:28:28.000Z</time>
      </trkpt>
      <trkpt lat="44.04177" lon="5.69587">
        <ele>849</ele>
        <time>2000-01-01T06:28:38.000Z</time>
      </trkpt>
      <trkpt lat="44.04186" lon="5.69587">
        <ele>850</ele>
        <time>2000-01-01T06:28:48.000Z</time>
      </trkpt>
      <trkpt lat="44.0419" lon="5.69586">
        <ele>850.4</ele>
        <time>2000-01-01T06:28:58.000Z</time>
      </trkpt>
      <trkpt lat="44.04205" lon="5.69586">
        <ele>851</ele>
        <time>2000-01-01T06:29:08.000Z</time>
      </trkpt>
      <trkpt lat="44.0421" lon="5.69585">
        <ele>852</ele>
        <time>2000-01-01T06:29:18.000Z</time>
      </trkpt>
      <trkpt lat="44.04224" lon="5.69586">
        <ele>852.9</ele>
        <time>2000-01-01T06:29:28.000Z</time>
      </trkpt>
      <trkpt lat="44.04242" lon="5.69582">
        <ele>853</ele>
        <time>2000-01-01T06:29:38.000Z</time>
      </trkpt>
      <trkpt lat="44.04247" lon="5.69583">
        <ele>853.9</ele>
        <time>2000-01-01T06:29:48.000Z</time>
      </trkpt>
      <trkpt lat="44.04254" lon="5.6958">
        <ele>854.3</ele>
        <time>2000-01-01T06:29:58.000Z</time>
      </trkpt>
      <trkpt lat="44.04259" lon="5.69579">
        <ele>854.6</ele>
        <time>2000-01-01T06:30:08.000Z</time>
      </trkpt>
      <trkpt lat="44.04268" lon="5.69575">
        <ele>854</ele>
        <time>2000-01-01T06:30:18.000Z</time>
      </trkpt>
      <trkpt lat="44.04273" lon="5.69574">
        <ele>855.4</ele>
        <time>2000-01-01T06:30:28.000Z</time>
      </trkpt>
      <trkpt lat="44.04277" lon="5.69572">
        <ele>855.5</ele>
        <time>2000-01-01T06:30:38.000Z</time>
      </trkpt>
      <trkpt lat="44.04286" lon="5.6957">
        <ele>856</ele>
        <time>2000-01-01T06:30:48.000Z</time>
      </trkpt>
      <trkpt lat="44.04295" lon="5.69565">
        <ele>856</ele>
        <time>2000-01-01T06:30:58.000Z</time>
      </trkpt>
      <trkpt lat="44.043" lon="5.69563">
        <ele>856.7</ele>
        <time>2000-01-01T06:31:08.000Z</time>
      </trkpt>
      <trkpt lat="44.0431" lon="5.69557">
        <ele>857</ele>
        <time>2000-01-01T06:31:18.000Z</time>
      </trkpt>
      <trkpt lat="44.04315" lon="5.69553">
        <ele>856</ele>
        <time>2000-01-01T06:31:28.000Z</time>
      </trkpt>
      <trkpt lat="44.04331" lon="5.69544">
        <ele>856.5</ele>
        <time>2000-01-01T06:31:38.000Z</time>
      </trkpt>
      <trkpt lat="44.04341" lon="5.69536">
        <ele>856</ele>
        <time>2000-01-01T06:31:48.000Z</time>
      </trkpt>
      <trkpt lat="44.04346" lon="5.69533">
        <ele>856.6</ele>
        <time>2000-01-01T06:31:58.000Z</time>
      </trkpt>
      <trkpt lat="44.04355" lon="5.69525">
        <ele>856.7</ele>
        <time>2000-01-01T06:32:08.000Z</time>
      </trkpt>
      <trkpt lat="44.04359" lon="5.6952">
        <ele>856</ele>
        <time>2000-01-01T06:32:18.000Z</time>
      </trkpt>
      <trkpt lat="44.04369" lon="5.69511">
        <ele>856.7</ele>
        <time>2000-01-01T06:32:28.000Z</time>
      </trkpt>
      <trkpt lat="44.04385" lon="5.69491">
        <ele>857</ele>
        <time>2000-01-01T06:32:38.000Z</time>
      </trkpt>
      <trkpt lat="44.04394" lon="5.69483">
        <ele>858.2</ele>
        <time>2000-01-01T06:32:48.000Z</time>
      </trkpt>
      <trkpt lat="44.04398" lon="5.69478">
        <ele>858.5</ele>
        <time>2000-01-01T06:32:58.000Z</time>
      </trkpt>
      <trkpt lat="44.04402" lon="5.69475">
        <ele>858</ele>
        <time>2000-01-01T06:33:08.000Z</time>
      </trkpt>
      <trkpt lat="44.0441" lon="5.69467">
        <ele>859.5</ele>
        <time>2000-01-01T06:33:18.000Z</time>
      </trkpt>
      <trkpt lat="44.04413" lon="5.69462">
        <ele>859.7</ele>
        <time>2000-01-01T06:33:28.000Z</time>
      </trkpt>
      <trkpt lat="44.04417" lon="5.69459">
        <ele>860</ele>
        <time>2000-01-01T06:33:38.000Z</time>
      </trkpt>
      <trkpt lat="44.04423" lon="5.69451">
        <ele>860</ele>
        <time>2000-01-01T06:33:48.000Z</time>
      </trkpt>
      <trkpt lat="44.04427" lon="5.69447">
        <ele>860.7</ele>
        <time>2000-01-01T06:33:58.000Z</time>
      </trkpt>
      <trkpt lat="44.04437" lon="5.69441">
        <ele>861.5</ele>
        <time>2000-01-01T06:34:08.000Z</time>
      </trkpt>
      <trkpt lat="44.04445" lon="5.69434">
        <ele>862</ele>
        <time>2000-01-01T06:34:18.000Z</time>
      </trkpt>
      <trkpt lat="44.04456" lon="5.6942">
        <ele>863.7</ele>
        <time>2000-01-01T06:34:28.000Z</time>
      </trkpt>
      <trkpt lat="44.0446" lon="5.69417">
        <ele>863</ele>
        <time>2000-01-01T06:34:38.000Z</time>
      </trkpt>
      <trkpt lat="44.04463" lon="5.69412">
        <ele>864.3</ele>
        <time>2000-01-01T06:34:48.000Z</time>
      </trkpt>
      <trkpt lat="44.04468" lon="5.69408">
        <ele>864.6</ele>
        <time>2000-01-01T06:34:58.000Z</time>
      </trkpt>
      <trkpt lat="44.04475" lon="5.69399">
        <ele>864</ele>
        <time>2000-01-01T06:35:08.000Z</time>
      </trkpt>
      <trkpt lat="44.04478" lon="5.69394">
        <ele>865.4</ele>
        <time>2000-01-01T06:35:18.000Z</time>
      </trkpt>
      <trkpt lat="44.04486" lon="5.69384">
        <ele>866</ele>
        <time>2000-01-01T06:35:28.000Z</time>
      </trkpt>
      <trkpt lat="44.04488" lon="5.6938">
        <ele>866.1</ele>
        <time>2000-01-01T06:35:38.000Z</time>
      </trkpt>
      <trkpt lat="44.04492" lon="5.69376">
        <ele>866</ele>
        <time>2000-01-01T06:35:48.000Z</time>
      </trkpt>
      <trkpt lat="44.04495" lon="5.69371">
        <ele>866.6</ele>
        <time>2000-01-01T06:35:58.000Z</time>
      </trkpt>
      <trkpt lat="44.04507" lon="5.69359">
        <ele>867</ele>
        <time>2000-01-01T06:36:08.000Z</time>
      </trkpt>
      <trkpt lat="44.0451" lon="5.69355">
        <ele>867.7</ele>
        <time>2000-01-01T06:36:18.000Z</time>
      </trkpt>
      <trkpt lat="44.04518" lon="5.69347">
        <ele>868.3</ele>
        <time>2000-01-01T06:36:28.000Z</time>
      </trkpt>
      <trkpt lat="44.04538" lon="5.69331">
        <ele>868</ele>
        <time>2000-01-01T06:36:38.000Z</time>
      </trkpt>
      <trkpt lat="44.04542" lon="5.69327">
        <ele>868.8</ele>
        <time>2000-01-01T06:36:48.000Z</time>
      </trkpt>
      <trkpt lat="44.04546" lon="5.69321">
        <ele>868.7</ele>
        <time>2000-01-01T06:36:58.000Z</time>
      </trkpt>
      <trkpt lat="44.0456" lon="5.69307">
        <ele>868</ele>
        <time>2000-01-01T06:37:08.000Z</time>
      </trkpt>
      <trkpt lat="44.04564" lon="5.69302">
        <ele>869.1</ele>
        <time>2000-01-01T06:37:18.000Z</time>
      </trkpt>
      <trkpt lat="44.04569" lon="5.69297">
        <ele>869</ele>
        <time>2000-01-01T06:37:28.000Z</time>
      </trkpt>
      <trkpt lat="44.04579" lon="5.69289">
        <ele>868</ele>
        <time>2000-01-01T06:37:38.000Z</time>
      </trkpt>
      <trkpt lat="44.0461" lon="5.69274">
        <ele>869</ele>
        <time>2000-01-01T06:37:48.000Z</time>
      </trkpt>
      <trkpt lat="44.04615" lon="5.6927">
        <ele>869.9</ele>
        <time>2000-01-01T06:37:58.000Z</time>
      </trkpt>
      <trkpt lat="44.04635" lon="5.69262">
        <ele>870</ele>
        <time>2000-01-01T06:38:08.000Z</time>
      </trkpt>
      <trkpt lat="44.0464" lon="5.69259">
        <ele>871</ele>
        <time>2000-01-01T06:38:18.000Z</time>
      </trkpt>
      <trkpt lat="44.04646" lon="5.69257">
        <ele>871.3</ele>
        <time>2000-01-01T06:38:28.000Z</time>
      </trkpt>
      <trkpt lat="44.04652" lon="5.69254">
        <ele>871.5</ele>
        <time>2000-01-01T06:38:38.000Z</time>
      </trkpt>
      <trkpt lat="44.04661" lon="5.69249">
        <ele>871</ele>
        <time>2000-01-01T06:38:48.000Z</time>
      </trkpt>
      <trkpt lat="44.04665" lon="5.69246">
        <ele>871.8</ele>
        <time>2000-01-01T06:38:58.000Z</time>
      </trkpt>
      <trkpt lat="44.04678" lon="5.6924">
        <ele>872.6</ele>
        <time>2000-01-01T06:39:08.000Z</time>
      </trkpt>
      <trkpt lat="44.04682" lon="5.69237">
        <ele>872</ele>
        <time>2000-01-01T06:39:18.000Z</time>
      </trkpt>
      <trkpt lat="44.04687" lon="5.69235">
        <ele>873.3</ele>
        <time>2000-01-01T06:39:28.000Z</time>
      </trkpt>
      <trkpt lat="44.04696" lon="5.6923">
        <ele>874.2</ele>
        <time>2000-01-01T06:39:38.000Z</time>
      </trkpt>
      <trkpt lat="44.047" lon="5.69227">
        <ele>873</ele>
        <time>2000-01-01T06:39:48.000Z</time>
      </trkpt>
      <trkpt lat="44.04705" lon="5.69225">
        <ele>875.1</ele>
        <time>2000-01-01T06:39:58.000Z</time>
      </trkpt>
      <trkpt lat="44.04708" lon="5.69223">
        <ele>875.5</ele>
        <time>2000-01-01T06:40:08.000Z</time>
      </trkpt>
      <trkpt lat="44.04714" lon="5.69221">
        <ele>876.1</ele>
        <time>2000-01-01T06:40:18.000Z</time>
      </trkpt>
      <trkpt lat="44.04722" lon="5.69215">
        <ele>876</ele>
        <time>2000-01-01T06:40:28.000Z</time>
      </trkpt>
      <trkpt lat="44.04734" lon="5.69211">
        <ele>878</ele>
        <time>2000-01-01T06:40:38.000Z</time>
      </trkpt>
      <trkpt lat="44.04745" lon="5.69202">
        <ele>878</ele>
        <time>2000-01-01T06:40:48.000Z</time>
      </trkpt>
      <trkpt lat="44.04749" lon="5.69201">
        <ele>879.9</ele>
        <time>2000-01-01T06:40:58.000Z</time>
      </trkpt>
      <trkpt lat="44.04755" lon="5.69195">
        <ele>880.7</ele>
        <time>2000-01-01T06:41:08.000Z</time>
      </trkpt>
      <trkpt lat="44.0476" lon="5.69192">
        <ele>881.4</ele>
        <time>2000-01-01T06:41:18.000Z</time>
      </trkpt>
      <trkpt lat="44.04764" lon="5.69191">
        <ele>881</ele>
        <time>2000-01-01T06:41:28.000Z</time>
      </trkpt>
      <trkpt lat="44.04768" lon="5.69189">
        <ele>882.4</ele>
        <time>2000-01-01T06:41:38.000Z</time>
      </trkpt>
      <trkpt lat="44.04778" lon="5.69187">
        <ele>883.8</ele>
        <time>2000-01-01T06:41:48.000Z</time>
      </trkpt>
      <trkpt lat="44.04786" lon="5.69183">
        <ele>884</ele>
        <time>2000-01-01T06:41:58.000Z</time>
      </trkpt>
      <trkpt lat="44.04795" lon="5.69181">
        <ele>885.4</ele>
        <time>2000-01-01T06:42:08.000Z</time>
      </trkpt>
      <trkpt lat="44.04802" lon="5.69177">
        <ele>886.2</ele>
        <time>2000-01-01T06:42:18.000Z</time>
      </trkpt>
      <trkpt lat="44.04814" lon="5.69174">
        <ele>887</ele>
        <time>2000-01-01T06:42:28.000Z</time>
      </trkpt>
      <trkpt lat="44.04819" lon="5.69172">
        <ele>887.9</ele>
        <time>2000-01-01T06:42:38.000Z</time>
      </trkpt>
      <trkpt lat="44.0484" lon="5.69167">
        <ele>888</ele>
        <time>2000-01-01T06:42:48.000Z</time>
      </trkpt>
      <trkpt lat="44.04849" lon="5.69166">
        <ele>890.1</ele>
        <time>2000-01-01T06:42:58.000Z</time>
      </trkpt>
      <trkpt lat="44.04858" lon="5.69166">
        <ele>890.8</ele>
        <time>2000-01-01T06:43:08.000Z</time>
      </trkpt>
      <trkpt lat="44.04864" lon="5.69167">
        <ele>890</ele>
        <time>2000-01-01T06:43:18.000Z</time>
      </trkpt>
      <trkpt lat="44.04869" lon="5.69167">
        <ele>891.3</ele>
        <time>2000-01-01T06:43:28.000Z</time>
      </trkpt>
      <trkpt lat="44.04887" lon="5.69171">
        <ele>892</ele>
        <time>2000-01-01T06:43:38.000Z</time>
      </trkpt>
      <trkpt lat="44.04896" lon="5.69175">
        <ele>892.6</ele>
        <time>2000-01-01T06:43:48.000Z</time>
      </trkpt>
      <trkpt lat="44.04921" lon="5.6918">
        <ele>893</ele>
        <time>2000-01-01T06:43:58.000Z</time>
      </trkpt>
      <trkpt lat="44.04926" lon="5.69182">
        <ele>893.9</ele>
        <time>2000-01-01T06:44:08.000Z</time>
      </trkpt>
      <trkpt lat="44.0494" lon="5.69191">
        <ele>894</ele>
        <time>2000-01-01T06:44:18.000Z</time>
      </trkpt>
      <trkpt lat="44.04959" lon="5.69199">
        <ele>894</ele>
        <time>2000-01-01T06:44:28.000Z</time>
      </trkpt>
      <trkpt lat="44.04964" lon="5.692">
        <ele>895.7</ele>
        <time>2000-01-01T06:44:38.000Z</time>
      </trkpt>
      <trkpt lat="44.0497" lon="5.69203">
        <ele>895.9</ele>
        <time>2000-01-01T06:44:48.000Z</time>
      </trkpt>
      <trkpt lat="44.04981" lon="5.69205">
        <ele>895</ele>
        <time>2000-01-01T06:44:58.000Z</time>
      </trkpt>
      <trkpt lat="44.04986" lon="5.69205">
        <ele>896.2</ele>
        <time>2000-01-01T06:45:08.000Z</time>
      </trkpt>
      <trkpt lat="44.05022" lon="5.6922">
        <ele>896</ele>
        <time>2000-01-01T06:45:18.000Z</time>
      </trkpt>
      <trkpt lat="44.05027" lon="5.6922">
        <ele>896.9</ele>
        <time>2000-01-01T06:45:28.000Z</time>
      </trkpt>
      <trkpt lat="44.05032" lon="5.69221">
        <ele>896.9</ele>
        <time>2000-01-01T06:45:38.000Z</time>
      </trkpt>
      <trkpt lat="44.05054" lon="5.69221">
        <ele>897</ele>
        <time>2000-01-01T06:45:48.000Z</time>
      </trkpt>
      <trkpt lat="44.05059" lon="5.69222">
        <ele>897</ele>
        <time>2000-01-01T06:45:58.000Z</time>
      </trkpt>
      <trkpt lat="44.05064" lon="5.69224">
        <ele>897.1</ele>
        <time>2000-01-01T06:46:08.000Z</time>
      </trkpt>
      <trkpt lat="44.05074" lon="5.69231">
        <ele>898</ele>
        <time>2000-01-01T06:46:18.000Z</time>
      </trkpt>
      <trkpt lat="44.05077" lon="5.69236">
        <ele>898</ele>
        <time>2000-01-01T06:46:28.000Z</time>
      </trkpt>
      <trkpt lat="44.05082" lon="5.69249">
        <ele>898.9</ele>
        <time>2000-01-01T06:46:38.000Z</time>
      </trkpt>
      <trkpt lat="44.05083" lon="5.69255">
        <ele>899</ele>
        <time>2000-01-01T06:46:48.000Z</time>
      </trkpt>
      <trkpt lat="44.05085" lon="5.69261">
        <ele>899.8</ele>
        <time>2000-01-01T06:46:58.000Z</time>
      </trkpt>
      <trkpt lat="44.05091" lon="5.69272">
        <ele>900.6</ele>
        <time>2000-01-01T06:47:08.000Z</time>
      </trkpt>
      <trkpt lat="44.05093" lon="5.69278">
        <ele>900</ele>
        <time>2000-01-01T06:47:18.000Z</time>
      </trkpt>
      <trkpt lat="44.05099" lon="5.69321">
        <ele>901</ele>
        <time>2000-01-01T06:47:28.000Z</time>
      </trkpt>
      <trkpt lat="44.05112" lon="5.69355">
        <ele>901</ele>
        <time>2000-01-01T06:47:38.000Z</time>
      </trkpt>
      <trkpt lat="44.05114" lon="5.69371">
        <ele>902.8</ele>
        <time>2000-01-01T06:47:48.000Z</time>
      </trkpt>
      <trkpt lat="44.05116" lon="5.6938">
        <ele>902.6</ele>
        <time>2000-01-01T06:47:58.000Z</time>
      </trkpt>
      <trkpt lat="44.05117" lon="5.69388">
        <ele>902</ele>
        <time>2000-01-01T06:48:08.000Z</time>
      </trkpt>
      <trkpt lat="44.0512" lon="5.69395">
        <ele>902.5</ele>
        <time>2000-01-01T06:48:18.000Z</time>
      </trkpt>
      <trkpt lat="44.05124" lon="5.694">
        <ele>902.7</ele>
        <time>2000-01-01T06:48:28.000Z</time>
      </trkpt>
      <trkpt lat="44.05129" lon="5.69404">
        <ele>903.1</ele>
        <time>2000-01-01T06:48:38.000Z</time>
      </trkpt>
      <trkpt lat="44.05132" lon="5.69408">
        <ele>903</ele>
        <time>2000-01-01T06:48:48.000Z</time>
      </trkpt>
      <trkpt lat="44.05137" lon="5.69411">
        <ele>903.8</ele>
        <time>2000-01-01T06:48:58.000Z</time>
      </trkpt>
      <trkpt lat="44.05145" lon="5.69419">
        <ele>904.2</ele>
        <time>2000-01-01T06:49:08.000Z</time>
      </trkpt>
      <trkpt lat="44.05153" lon="5.69429">
        <ele>904</ele>
        <time>2000-01-01T06:49:18.000Z</time>
      </trkpt>
      <trkpt lat="44.05157" lon="5.69435">
        <ele>904.4</ele>
        <time>2000-01-01T06:49:28.000Z</time>
      </trkpt>
      <trkpt lat="44.05161" lon="5.69439">
        <ele>904.6</ele>
        <time>2000-01-01T06:49:38.000Z</time>
      </trkpt>
      <trkpt lat="44.05174" lon="5.6945">
        <ele>905</ele>
        <time>2000-01-01T06:49:48.000Z</time>
      </trkpt>
      <trkpt lat="44.05183" lon="5.69455">
        <ele>905.8</ele>
        <time>2000-01-01T06:49:58.000Z</time>
      </trkpt>
      <trkpt lat="44.05192" lon="5.69462">
        <ele>905</ele>
        <time>2000-01-01T06:50:08.000Z</time>
      </trkpt>
      <trkpt lat="44.052" lon="5.69473">
        <ele>906.1</ele>
        <time>2000-01-01T06:50:18.000Z</time>
      </trkpt>
      <trkpt lat="44.05204" lon="5.69477">
        <ele>906.1</ele>
        <time>2000-01-01T06:50:28.000Z</time>
      </trkpt>
      <trkpt lat="44.05225" lon="5.69492">
        <ele>906</ele>
        <time>2000-01-01T06:50:38.000Z</time>
      </trkpt>
      <trkpt lat="44.05236" lon="5.69499">
        <ele>906.5</ele>
        <time>2000-01-01T06:50:48.000Z</time>
      </trkpt>
      <trkpt lat="44.05251" lon="5.69511">
        <ele>906</ele>
        <time>2000-01-01T06:50:58.000Z</time>
      </trkpt>
      <trkpt lat="44.05261" lon="5.69518">
        <ele>906.4</ele>
        <time>2000-01-01T06:51:08.000Z</time>
      </trkpt>
      <trkpt lat="44.05272" lon="5.69524">
        <ele>906</ele>
        <time>2000-01-01T06:51:18.000Z</time>
      </trkpt>
      <trkpt lat="44.05281" lon="5.69531">
        <ele>905.8</ele>
        <time>2000-01-01T06:51:28.000Z</time>
      </trkpt>
      <trkpt lat="44.0529" lon="5.6954">
        <ele>905</ele>
        <time>2000-01-01T06:51:38.000Z</time>
      </trkpt>
      <trkpt lat="44.05302" lon="5.69548">
        <ele>905.2</ele>
        <time>2000-01-01T06:51:48.000Z</time>
      </trkpt>
      <trkpt lat="44.05308" lon="5.69548">
        <ele>905.3</ele>
        <time>2000-01-01T06:51:58.000Z</time>
      </trkpt>
      <trkpt lat="44.05314" lon="5.69546">
        <ele>905</ele>
        <time>2000-01-01T06:52:08.000Z</time>
      </trkpt>
      <trkpt lat="44.0532" lon="5.69545">
        <ele>905.4</ele>
        <time>2000-01-01T06:52:18.000Z</time>
      </trkpt>
      <trkpt lat="44.05331" lon="5.69545">
        <ele>905.4</ele>
        <time>2000-01-01T06:52:28.000Z</time>
      </trkpt>
      <trkpt lat="44.05342" lon="5.69547">
        <ele>905</ele>
        <time>2000-01-01T06:52:38.000Z</time>
      </trkpt>
      <trkpt lat="44.05348" lon="5.69549">
        <ele>905.2</ele>
        <time>2000-01-01T06:52:48.000Z</time>
      </trkpt>
      <trkpt lat="44.05354" lon="5.69552">
        <ele>905.1</ele>
        <time>2000-01-01T06:52:58.000Z</time>
      </trkpt>
      <trkpt lat="44.05378" lon="5.69568">
        <ele>904</ele>
        <time>2000-01-01T06:53:08.000Z</time>
      </trkpt>
      <trkpt lat="44.05391" lon="5.69575">
        <ele>903.3</ele>
        <time>2000-01-01T06:53:18.000Z</time>
      </trkpt>
      <trkpt lat="44.05402" lon="5.69585">
        <ele>903</ele>
        <time>2000-01-01T06:53:28.000Z</time>
      </trkpt>
      <trkpt lat="44.05406" lon="5.69591">
        <ele>902.8</ele>
        <time>2000-01-01T06:53:38.000Z</time>
      </trkpt>
      <trkpt lat="44.05411" lon="5.69597">
        <ele>902.6</ele>
        <time>2000-01-01T06:53:48.000Z</time>
      </trkpt>
      <trkpt lat="44.0542" lon="5.69622">
        <ele>901</ele>
        <time>2000-01-01T06:53:58.000Z</time>
      </trkpt>
      <trkpt lat="44.05424" lon="5.69629">
        <ele>901.1</ele>
        <time>2000-01-01T06:54:08.000Z</time>
      </trkpt>
      <trkpt lat="44.05429" lon="5.69635">
        <ele>900.7</ele>
        <time>2000-01-01T06:54:18.000Z</time>
      </trkpt>
      <trkpt lat="44.05434" lon="5.69639">
        <ele>900.4</ele>
        <time>2000-01-01T06:54:28.000Z</time>
      </trkpt>
      <trkpt lat="44.05445" lon="5.6965">
        <ele>899</ele>
        <time>2000-01-01T06:54:38.000Z</time>
      </trkpt>
      <trkpt lat="44.05452" lon="5.69654">
        <ele>898.9</ele>
        <time>2000-01-01T06:54:48.000Z</time>
      </trkpt>
      <trkpt lat="44.05458" lon="5.69654">
        <ele>898.5</ele>
        <time>2000-01-01T06:54:58.000Z</time>
      </trkpt>
      <trkpt lat="44.05465" lon="5.69653">
        <ele>898</ele>
        <time>2000-01-01T06:55:08.000Z</time>
      </trkpt>
      <trkpt lat="44.05478" lon="5.69647">
        <ele>897.3</ele>
        <time>2000-01-01T06:55:18.000Z</time>
      </trkpt>
      <trkpt lat="44.05495" lon="5.69636">
        <ele>896</ele>
        <time>2000-01-01T06:55:28.000Z</time>
      </trkpt>
      <trkpt lat="44.05508" lon="5.6963">
        <ele>895.1</ele>
        <time>2000-01-01T06:55:38.000Z</time>
      </trkpt>
      <trkpt lat="44.05514" lon="5.69626">
        <ele>894</ele>
        <time>2000-01-01T06:55:48.000Z</time>
      </trkpt>
      <trkpt lat="44.0552" lon="5.6962">
        <ele>893.8</ele>
        <time>2000-01-01T06:55:58.000Z</time>
      </trkpt>
      <trkpt lat="44.05525" lon="5.69613">
        <ele>893.3</ele>
        <time>2000-01-01T06:56:08.000Z</time>
      </trkpt>
      <trkpt lat="44.05538" lon="5.69586">
        <ele>893</ele>
        <time>2000-01-01T06:56:18.000Z</time>
      </trkpt>
      <trkpt lat="44.05549" lon="5.69568">
        <ele>890.5</ele>
        <time>2000-01-01T06:56:28.000Z</time>
      </trkpt>
      <trkpt lat="44.05551" lon="5.69566">
        <ele>890</ele>
        <time>2000-01-01T06:56:38.000Z</time>
      </trkpt>
      <trkpt lat="44.05555" lon="5.69574">
        <ele>889.4</ele>
        <time>2000-01-01T06:56:48.000Z</time>
      </trkpt>
      <trkpt lat="44.05556" lon="5.6958">
        <ele>889.1</ele>
        <time>2000-01-01T06:56:58.000Z</time>
      </trkpt>
      <trkpt lat="44.05554" lon="5.69584">
        <ele>889.2</ele>
        <time>2000-01-01T06:57:08.000Z</time>
      </trkpt>
      <trkpt lat="44.05552" lon="5.69596">
        <ele>890</ele>
        <time>2000-01-01T06:57:18.000Z</time>
      </trkpt>
      <trkpt lat="44.05555" lon="5.69618">
        <ele>890.1</ele>
        <time>2000-01-01T06:57:28.000Z</time>
      </trkpt>
      <trkpt lat="44.05554" lon="5.69634">
        <ele>890</ele>
        <time>2000-01-01T06:57:38.000Z</time>
      </trkpt>
      <trkpt lat="44.05552" lon="5.69647">
        <ele>890.9</ele>
        <time>2000-01-01T06:57:48.000Z</time>
      </trkpt>
      <trkpt lat="44.05552" lon="5.69654">
        <ele>891.4</ele>
        <time>2000-01-01T06:57:58.000Z</time>
      </trkpt>
      <trkpt lat="44.05553" lon="5.6966">
        <ele>891.7</ele>
        <time>2000-01-01T06:58:08.000Z</time>
      </trkpt>
      <trkpt lat="44.05553" lon="5.69664">
        <ele>891</ele>
        <time>2000-01-01T06:58:18.000Z</time>
      </trkpt>
      <trkpt lat="44.05554" lon="5.69667">
        <ele>892.1</ele>
        <time>2000-01-01T06:58:28.000Z</time>
      </trkpt>
      <trkpt lat="44.05556" lon="5.69681">
        <ele>892</ele>
        <time>2000-01-01T06:58:38.000Z</time>
      </trkpt>
      <trkpt lat="44.05556" lon="5.69688">
        <ele>892</ele>
        <time>2000-01-01T06:58:48.000Z</time>
      </trkpt>
      <trkpt lat="44.0556" lon="5.69697">
        <ele>890</ele>
        <time>2000-01-01T06:58:58.000Z</time>
      </trkpt>
      <trkpt lat="44.05564" lon="5.69701">
        <ele>891.2</ele>
        <time>2000-01-01T06:59:08.000Z</time>
      </trkpt>
      <trkpt lat="44.05568" lon="5.69702">
        <ele>890.8</ele>
        <time>2000-01-01T06:59:18.000Z</time>
      </trkpt>
      <trkpt lat="44.05575" lon="5.69707">
        <ele>890.1</ele>
        <time>2000-01-01T06:59:28.000Z</time>
      </trkpt>
      <trkpt lat="44.0558" lon="5.69714">
        <ele>890</ele>
        <time>2000-01-01T06:59:38.000Z</time>
      </trkpt>
      <trkpt lat="44.05582" lon="5.69719">
        <ele>889.2</ele>
        <time>2000-01-01T06:59:48.000Z</time>
      </trkpt>
      <trkpt lat="44.05584" lon="5.69729">
        <ele>888</ele>
        <time>2000-01-01T06:59:58.000Z</time>
      </trkpt>
      <trkpt lat="44.05586" lon="5.69736">
        <ele>886.8</ele>
        <time>2000-01-01T07:00:08.000Z</time>
      </trkpt>
      <trkpt lat="44.05586" lon="5.69739">
        <ele>886.3</ele>
        <time>2000-01-01T07:00:18.000Z</time>
      </trkpt>
      <trkpt lat="44.05591" lon="5.6975">
        <ele>885</ele>
        <time>2000-01-01T07:00:28.000Z</time>
      </trkpt>
      <trkpt lat="44.05593" lon="5.69751">
        <ele>883.7</ele>
        <time>2000-01-01T07:00:38.000Z</time>
      </trkpt>
      <trkpt lat="44.05595" lon="5.69756">
        <ele>882.2</ele>
        <time>2000-01-01T07:00:48.000Z</time>
      </trkpt>
      <trkpt lat="44.05595" lon="5.6976">
        <ele>881.2</ele>
        <time>2000-01-01T07:00:58.000Z</time>
      </trkpt>
      <trkpt lat="44.05598" lon="5.69764">
        <ele>879.9</ele>
        <time>2000-01-01T07:01:08.000Z</time>
      </trkpt>
      <trkpt lat="44.05604" lon="5.69778">
        <ele>877</ele>
        <time>2000-01-01T07:01:18.000Z</time>
      </trkpt>
      <trkpt lat="44.05609" lon="5.69788">
        <ele>872.3</ele>
        <time>2000-01-01T07:01:28.000Z</time>
      </trkpt>
      <trkpt lat="44.0561" lon="5.69793">
        <ele>870.8</ele>
        <time>2000-01-01T07:01:38.000Z</time>
      </trkpt>
      <trkpt lat="44.05613" lon="5.69799">
        <ele>868.4</ele>
        <time>2000-01-01T07:01:48.000Z</time>
      </trkpt>
      <trkpt lat="44.05616" lon="5.69809">
        <ele>867</ele>
        <time>2000-01-01T07:01:58.000Z</time>
      </trkpt>
      <trkpt lat="44.05618" lon="5.69813">
        <ele>862.9</ele>
        <time>2000-01-01T07:02:08.000Z</time>
      </trkpt>
      <trkpt lat="44.05621" lon="5.69825">
        <ele>858.2</ele>
        <time>2000-01-01T07:02:18.000Z</time>
      </trkpt>
      <trkpt lat="44.05621" lon="5.69831">
        <ele>856.3</ele>
        <time>2000-01-01T07:02:28.000Z</time>
      </trkpt>
      <trkpt lat="44.05623" lon="5.69835">
        <ele>857</ele>
        <time>2000-01-01T07:02:38.000Z</time>
      </trkpt>
      <trkpt lat="44.05625" lon="5.69842">
        <ele>852</ele>
        <time>2000-01-01T07:02:48.000Z</time>
      </trkpt>
      <trkpt lat="44.05625" lon="5.69846">
        <ele>850.9</ele>
        <time>2000-01-01T07:02:58.000Z</time>
      </trkpt>
      <trkpt lat="44.05627" lon="5.69853">
        <ele>848.3</ele>
        <time>2000-01-01T07:03:08.000Z</time>
      </trkpt>
      <trkpt lat="44.05627" lon="5.69857">
        <ele>847.2</ele>
        <time>2000-01-01T07:03:18.000Z</time>
      </trkpt>
      <trkpt lat="44.05629" lon="5.69859">
        <ele>846.1</ele>
        <time>2000-01-01T07:03:28.000Z</time>
      </trkpt>
      <trkpt lat="44.0563" lon="5.69862">
        <ele>847</ele>
        <time>2000-01-01T07:03:38.000Z</time>
      </trkpt>
      <trkpt lat="44.0563" lon="5.6987">
        <ele>842.4</ele>
        <time>2000-01-01T07:03:48.000Z</time>
      </trkpt>
      <trkpt lat="44.05633" lon="5.6988">
        <ele>838.4</ele>
        <time>2000-01-01T07:03:58.000Z</time>
      </trkpt>
      <trkpt lat="44.05633" lon="5.69888">
        <ele>835.8</ele>
        <time>2000-01-01T07:04:08.000Z</time>
      </trkpt>
      <trkpt lat="44.05634" lon="5.69891">
        <ele>834</ele>
        <time>2000-01-01T07:04:18.000Z</time>
      </trkpt>
      <trkpt lat="44.05634" lon="5.69896">
        <ele>832.7</ele>
        <time>2000-01-01T07:04:28.000Z</time>
      </trkpt>
      <trkpt lat="44.05636" lon="5.69902">
        <ele>830</ele>
        <time>2000-01-01T07:04:38.000Z</time>
      </trkpt>
      <trkpt lat="44.05639" lon="5.69904">
        <ele>828.5</ele>
        <time>2000-01-01T07:04:48.000Z</time>
      </trkpt>
      <trkpt lat="44.0564" lon="5.69906">
        <ele>827.4</ele>
        <time>2000-01-01T07:04:58.000Z</time>
      </trkpt>
      <trkpt lat="44.05643" lon="5.69918">
        <ele>826</ele>
        <time>2000-01-01T07:05:08.000Z</time>
      </trkpt>
      <trkpt lat="44.05643" lon="5.69921">
        <ele>821.1</ele>
        <time>2000-01-01T07:05:18.000Z</time>
      </trkpt>
      <trkpt lat="44.05645" lon="5.69924">
        <ele>819.4</ele>
        <time>2000-01-01T07:05:28.000Z</time>
      </trkpt>
      <trkpt lat="44.05646" lon="5.69927">
        <ele>818.1</ele>
        <time>2000-01-01T07:05:38.000Z</time>
      </trkpt>
      <trkpt lat="44.05646" lon="5.6993">
        <ele>817.1</ele>
        <time>2000-01-01T07:05:48.000Z</time>
      </trkpt>
      <trkpt lat="44.05647" lon="5.69933">
        <ele>815.8</ele>
        <time>2000-01-01T07:05:58.000Z</time>
      </trkpt>
      <trkpt lat="44.05649" lon="5.69935">
        <ele>814.4</ele>
        <time>2000-01-01T07:06:08.000Z</time>
      </trkpt>
      <trkpt lat="44.05651" lon="5.69941">
        <ele>811.8</ele>
        <time>2000-01-01T07:06:18.000Z</time>
      </trkpt>
      <trkpt lat="44.05651" lon="5.69948">
        <ele>813</ele>
        <time>2000-01-01T07:06:28.000Z</time>
      </trkpt>
      <trkpt lat="44.05654" lon="5.69954">
        <ele>806.5</ele>
        <time>2000-01-01T07:06:38.000Z</time>
      </trkpt>
      <trkpt lat="44.05654" lon="5.6996">
        <ele>804.5</ele>
        <time>2000-01-01T07:06:48.000Z</time>
      </trkpt>
      <trkpt lat="44.05655" lon="5.69962">
        <ele>803.5</ele>
        <time>2000-01-01T07:06:58.000Z</time>
      </trkpt>
      <trkpt lat="44.05655" lon="5.69965">
        <ele>802.5</ele>
        <time>2000-01-01T07:07:08.000Z</time>
      </trkpt>
      <trkpt lat="44.05656" lon="5.69968">
        <ele>801.2</ele>
        <time>2000-01-01T07:07:18.000Z</time>
      </trkpt>
      <trkpt lat="44.0566" lon="5.69971">
        <ele>803</ele>
        <time>2000-01-01T07:07:28.000Z</time>
      </trkpt>
      <trkpt lat="44.05662" lon="5.69974">
        <ele>797.2</ele>
        <time>2000-01-01T07:07:38.000Z</time>
      </trkpt>
      <trkpt lat="44.05663" lon="5.69977">
        <ele>795.9</ele>
        <time>2000-01-01T07:07:48.000Z</time>
      </trkpt>
      <trkpt lat="44.05665" lon="5.69979">
        <ele>794.6</ele>
        <time>2000-01-01T07:07:58.000Z</time>
      </trkpt>
      <trkpt lat="44.05666" lon="5.69982">
        <ele>793.4</ele>
        <time>2000-01-01T07:08:08.000Z</time>
      </trkpt>
      <trkpt lat="44.0567" lon="5.69986">
        <ele>790.5</ele>
        <time>2000-01-01T07:08:18.000Z</time>
      </trkpt>
      <trkpt lat="44.05675" lon="5.69988">
        <ele>793</ele>
        <time>2000-01-01T07:08:28.000Z</time>
      </trkpt>
      <trkpt lat="44.05679" lon="5.69991">
        <ele>785</ele>
        <time>2000-01-01T07:08:38.000Z</time>
      </trkpt>
      <trkpt lat="44.05683" lon="5.69996">
        <ele>781.6</ele>
        <time>2000-01-01T07:08:48.000Z</time>
      </trkpt>
      <trkpt lat="44.05686" lon="5.69997">
        <ele>779.9</ele>
        <time>2000-01-01T07:08:58.000Z</time>
      </trkpt>
      <trkpt lat="44.0569" lon="5.69997">
        <ele>778</ele>
        <time>2000-01-01T07:09:08.000Z</time>
      </trkpt>
      <trkpt lat="44.05697" lon="5.7">
        <ele>779</ele>
        <time>2000-01-01T07:09:18.000Z</time>
      </trkpt>
      <trkpt lat="44.05701" lon="5.7">
        <ele>771.2</ele>
        <time>2000-01-01T07:09:28.000Z</time>
      </trkpt>
      <trkpt lat="44.05707" lon="5.70006">
        <ele>766</ele>
        <time>2000-01-01T07:09:38.000Z</time>
      </trkpt>
      <trkpt lat="44.05709" lon="5.70007">
        <ele>764.6</ele>
        <time>2000-01-01T07:09:48.000Z</time>
      </trkpt>
      <trkpt lat="44.05711" lon="5.70006">
        <ele>763.7</ele>
        <time>2000-01-01T07:09:58.000Z</time>
      </trkpt>
      <trkpt lat="44.05714" lon="5.70007">
        <ele>761.7</ele>
        <time>2000-01-01T07:10:08.000Z</time>
      </trkpt>
      <trkpt lat="44.05716" lon="5.70006">
        <ele>767</ele>
        <time>2000-01-01T07:10:18.000Z</time>
      </trkpt>
      <trkpt lat="44.05719" lon="5.70006">
        <ele>759.1</ele>
        <time>2000-01-01T07:10:28.000Z</time>
      </trkpt>
      <trkpt lat="44.05727" lon="5.70012">
        <ele>753.4</ele>
        <time>2000-01-01T07:10:38.000Z</time>
      </trkpt>
      <trkpt lat="44.05733" lon="5.70013">
        <ele>750.4</ele>
        <time>2000-01-01T07:10:48.000Z</time>
      </trkpt>
      <trkpt lat="44.05735" lon="5.70011">
        <ele>751</ele>
        <time>2000-01-01T07:10:58.000Z</time>
      </trkpt>
      <trkpt lat="44.05743" lon="5.70009">
        <ele>746.7</ele>
        <time>2000-01-01T07:11:08.000Z</time>
      </trkpt>
      <trkpt lat="44.0575" lon="5.70009">
        <ele>743.4</ele>
        <time>2000-01-01T07:11:18.000Z</time>
      </trkpt>
      <trkpt lat="44.05758" lon="5.70012">
        <ele>748</ele>
        <time>2000-01-01T07:11:28.000Z</time>
      </trkpt>
      <trkpt lat="44.05762" lon="5.70008">
        <ele>742.6</ele>
        <time>2000-01-01T07:11:38.000Z</time>
      </trkpt>
      <trkpt lat="44.05767" lon="5.69991">
        <ele>743.3</ele>
        <time>2000-01-01T07:11:48.000Z</time>
      </trkpt>
      <trkpt lat="44.05781" lon="5.69948">
        <ele>745</ele>
        <time>2000-01-01T07:11:58.000Z</time>
      </trkpt>
      <trkpt lat="44.05802" lon="5.69925">
        <ele>745</ele>
        <time>2000-01-01T07:12:08.000Z</time>
      </trkpt>
      <trkpt lat="44.05826" lon="5.69898">
        <ele>745</ele>
        <time>2000-01-01T07:12:18.000Z</time>
      </trkpt>
      <trkpt lat="44.05852" lon="5.69871">
        <ele>745</ele>
        <time>2000-01-01T07:12:28.000Z</time>
      </trkpt>
      <trkpt lat="44.05879" lon="5.69865">
        <ele>745</ele>
        <time>2000-01-01T07:12:38.000Z</time>
      </trkpt>
      <trkpt lat="44.05914" lon="5.69857">
        <ele>746</ele>
        <time>2000-01-01T07:12:48.000Z</time>
      </trkpt>
      <trkpt lat="44.05939" lon="5.69853">
        <ele>746</ele>
        <time>2000-01-01T07:12:58.000Z</time>
      </trkpt>
      <trkpt lat="44.05967" lon="5.69849">
        <ele>747</ele>
        <time>2000-01-01T07:13:08.000Z</time>
      </trkpt>
      <trkpt lat="44.06004" lon="5.69842">
        <ele>748</ele>
        <time>2000-01-01T07:13:18.000Z</time>
      </trkpt>
      <trkpt lat="44.06039" lon="5.69808">
        <ele>748</ele>
        <time>2000-01-01T07:13:28.000Z</time>
      </trkpt>
      <trkpt lat="44.0607" lon="5.69814">
        <ele>749</ele>
        <time>2000-01-01T07:13:38.000Z</time>
      </trkpt>
      <trkpt lat="44.06116" lon="5.69834">
        <ele>750</ele>
        <time>2000-01-01T07:13:48.000Z</time>
      </trkpt>
      <trkpt lat="44.06158" lon="5.69838">
        <ele>752</ele>
        <time>2000-01-01T07:13:58.000Z</time>
      </trkpt>
      <trkpt lat="44.06193" lon="5.69827">
        <ele>753</ele>
        <time>2000-01-01T07:14:08.000Z</time>
      </trkpt>
      <trkpt lat="44.0623" lon="5.69791">
        <ele>754</ele>
        <time>2000-01-01T07:14:18.000Z</time>
      </trkpt>
      <trkpt lat="44.06256" lon="5.69779">
        <ele>755</ele>
        <time>2000-01-01T07:14:28.000Z</time>
      </trkpt>
      <trkpt lat="44.06289" lon="5.69765">
        <ele>756</ele>
        <time>2000-01-01T07:14:38.000Z</time>
      </trkpt>
      <trkpt lat="44.06312" lon="5.69769">
        <ele>756</ele>
        <time>2000-01-01T07:14:48.000Z</time>
      </trkpt>
      <trkpt lat="44.06332" lon="5.69735">
        <ele>758</ele>
        <time>2000-01-01T07:14:58.000Z</time>
      </trkpt>
      <trkpt lat="44.06377" lon="5.69718">
        <ele>759</ele>
        <time>2000-01-01T07:15:08.000Z</time>
      </trkpt>
      <trkpt lat="44.06397" lon="5.69693">
        <ele>760</ele>
        <time>2000-01-01T07:15:18.000Z</time>
      </trkpt>
      <trkpt lat="44.0642" lon="5.69662">
        <ele>760</ele>
        <time>2000-01-01T07:15:28.000Z</time>
      </trkpt>
      <trkpt lat="44.06444" lon="5.69697">
        <ele>761</ele>
        <time>2000-01-01T07:15:38.000Z</time>
      </trkpt>
      <trkpt lat="44.06468" lon="5.6969">
        <ele>761</ele>
        <time>2000-01-01T07:15:48.000Z</time>
      </trkpt>
      <trkpt lat="44.06493" lon="5.69684">
        <ele>762</ele>
        <time>2000-01-01T07:15:58.000Z</time>
      </trkpt>
      <trkpt lat="44.06511" lon="5.69708">
        <ele>763</ele>
        <time>2000-01-01T07:16:08.000Z</time>
      </trkpt>
      <trkpt lat="44.0653" lon="5.69733">
        <ele>764</ele>
        <time>2000-01-01T07:16:18.000Z</time>
      </trkpt>
      <trkpt lat="44.06572" lon="5.69716">
        <ele>765</ele>
        <time>2000-01-01T07:16:28.000Z</time>
      </trkpt>
      <trkpt lat="44.06596" lon="5.6972">
        <ele>765</ele>
        <time>2000-01-01T07:16:38.000Z</time>
      </trkpt>
      <trkpt lat="44.06622" lon="5.69725">
        <ele>766</ele>
        <time>2000-01-01T07:16:48.000Z</time>
      </trkpt>
      <trkpt lat="44.06638" lon="5.69751">
        <ele>767</ele>
        <time>2000-01-01T07:16:58.000Z</time>
      </trkpt>
      <trkpt lat="44.06654" lon="5.6978">
        <ele>767</ele>
        <time>2000-01-01T07:17:08.000Z</time>
      </trkpt>
      <trkpt lat="44.06681" lon="5.69778">
        <ele>768</ele>
        <time>2000-01-01T07:17:18.000Z</time>
      </trkpt>
      <trkpt lat="44.06713" lon="5.69775">
        <ele>768</ele>
        <time>2000-01-01T07:17:28.000Z</time>
      </trkpt>
      <trkpt lat="44.06741" lon="5.69763">
        <ele>769</ele>
        <time>2000-01-01T07:17:38.000Z</time>
      </trkpt>
      <trkpt lat="44.06784" lon="5.69745">
        <ele>771</ele>
        <time>2000-01-01T07:17:48.000Z</time>
      </trkpt>
      <trkpt lat="44.06813" lon="5.69753">
        <ele>772</ele>
        <time>2000-01-01T07:17:58.000Z</time>
      </trkpt>
      <trkpt lat="44.06837" lon="5.6976">
        <ele>772</ele>
        <time>2000-01-01T07:18:08.000Z</time>
      </trkpt>
      <trkpt lat="44.06861" lon="5.69767">
        <ele>772</ele>
        <time>2000-01-01T07:18:18.000Z</time>
      </trkpt>
      <trkpt lat="44.0689" lon="5.69754">
        <ele>773</ele>
        <time>2000-01-01T07:18:28.000Z</time>
      </trkpt>
      <trkpt lat="44.06914" lon="5.69744">
        <ele>774</ele>
        <time>2000-01-01T07:18:38.000Z</time>
      </trkpt>
      <trkpt lat="44.06941" lon="5.69732">
        <ele>775</ele>
        <time>2000-01-01T07:18:48.000Z</time>
      </trkpt>
      <trkpt lat="44.06966" lon="5.69722">
        <ele>775</ele>
        <time>2000-01-01T07:18:58.000Z</time>
      </trkpt>
      <trkpt lat="44.06993" lon="5.69711">
        <ele>777</ele>
        <time>2000-01-01T07:19:08.000Z</time>
      </trkpt>
      <trkpt lat="44.07003" lon="5.69647">
        <ele>777</ele>
        <time>2000-01-01T07:19:18.000Z</time>
      </trkpt>
      <trkpt lat="44.07015" lon="5.6961">
        <ele>778</ele>
        <time>2000-01-01T07:19:28.000Z</time>
      </trkpt>
      <trkpt lat="44.07034" lon="5.69556">
        <ele>781</ele>
        <time>2000-01-01T07:19:38.000Z</time>
      </trkpt>
      <trkpt lat="44.07041" lon="5.69517">
        <ele>781</ele>
        <time>2000-01-01T07:19:48.000Z</time>
      </trkpt>
      <trkpt lat="44.07052" lon="5.69458">
        <ele>782</ele>
        <time>2000-01-01T07:19:58.000Z</time>
      </trkpt>
      <trkpt lat="44.07066" lon="5.69422">
        <ele>783</ele>
        <time>2000-01-01T07:20:08.000Z</time>
      </trkpt>
      <trkpt lat="44.07086" lon="5.69368">
        <ele>784</ele>
        <time>2000-01-01T07:20:18.000Z</time>
      </trkpt>
      <trkpt lat="44.07111" lon="5.69347">
        <ele>785</ele>
        <time>2000-01-01T07:20:28.000Z</time>
      </trkpt>
      <trkpt lat="44.07151" lon="5.69316">
        <ele>789</ele>
        <time>2000-01-01T07:20:38.000Z</time>
      </trkpt>
      <trkpt lat="44.07194" lon="5.69325">
        <ele>789</ele>
        <time>2000-01-01T07:20:48.000Z</time>
      </trkpt>
      <trkpt lat="44.07223" lon="5.69316">
        <ele>790</ele>
        <time>2000-01-01T07:20:58.000Z</time>
      </trkpt>
      <trkpt lat="44.07268" lon="5.69303">
        <ele>790</ele>
        <time>2000-01-01T07:21:08.000Z</time>
      </trkpt>
      <trkpt lat="44.07293" lon="5.69295">
        <ele>791</ele>
        <time>2000-01-01T07:21:18.000Z</time>
      </trkpt>
      <trkpt lat="44.0732" lon="5.69286">
        <ele>792</ele>
        <time>2000-01-01T07:21:28.000Z</time>
      </trkpt>
      <trkpt lat="44.07346" lon="5.69273">
        <ele>793</ele>
        <time>2000-01-01T07:21:38.000Z</time>
      </trkpt>
      <trkpt lat="44.07382" lon="5.69256">
        <ele>794</ele>
        <time>2000-01-01T07:21:48.000Z</time>
      </trkpt>
      <trkpt lat="44.07405" lon="5.69233">
        <ele>795</ele>
        <time>2000-01-01T07:21:58.000Z</time>
      </trkpt>
      <trkpt lat="44.07437" lon="5.692">
        <ele>800</ele>
        <time>2000-01-01T07:22:08.000Z</time>
      </trkpt>
      <trkpt lat="44.07468" lon="5.69171">
        <ele>800</ele>
        <time>2000-01-01T07:22:18.000Z</time>
      </trkpt>
      <trkpt lat="44.07493" lon="5.69149">
        <ele>799</ele>
        <time>2000-01-01T07:22:28.000Z</time>
      </trkpt>
      <trkpt lat="44.0752" lon="5.69124">
        <ele>799</ele>
        <time>2000-01-01T07:22:38.000Z</time>
      </trkpt>
      <trkpt lat="44.07547" lon="5.69099">
        <ele>800</ele>
        <time>2000-01-01T07:22:48.000Z</time>
      </trkpt>
      <trkpt lat="44.07576" lon="5.69072">
        <ele>801</ele>
        <time>2000-01-01T07:22:58.000Z</time>
      </trkpt>
      <trkpt lat="44.07543" lon="5.69053">
        <ele>806</ele>
        <time>2000-01-01T07:23:08.000Z</time>
      </trkpt>
      <trkpt lat="44.07516" lon="5.69072">
        <ele>809</ele>
        <time>2000-01-01T07:23:18.000Z</time>
      </trkpt>
      <trkpt lat="44.07494" lon="5.69088">
        <ele>813</ele>
        <time>2000-01-01T07:23:28.000Z</time>
      </trkpt>
      <trkpt lat="44.0747" lon="5.69105">
        <ele>815</ele>
        <time>2000-01-01T07:23:38.000Z</time>
      </trkpt>
      <trkpt lat="44.07445" lon="5.69113">
        <ele>818</ele>
        <time>2000-01-01T07:23:48.000Z</time>
      </trkpt>
      <trkpt lat="44.07415" lon="5.69124">
        <ele>820</ele>
        <time>2000-01-01T07:23:58.000Z</time>
      </trkpt>
      <trkpt lat="44.07382" lon="5.69124">
        <ele>824</ele>
        <time>2000-01-01T07:24:08.000Z</time>
      </trkpt>
      <trkpt lat="44.07344" lon="5.69122">
        <ele>829</ele>
        <time>2000-01-01T07:24:18.000Z</time>
      </trkpt>
      <trkpt lat="44.07317" lon="5.69118">
        <ele>832</ele>
        <time>2000-01-01T07:24:28.000Z</time>
      </trkpt>
      <trkpt lat="44.07282" lon="5.69113">
        <ele>834</ele>
        <time>2000-01-01T07:24:38.000Z</time>
      </trkpt>
      <trkpt lat="44.07244" lon="5.69096">
        <ele>837</ele>
        <time>2000-01-01T07:24:48.000Z</time>
      </trkpt>
      <trkpt lat="44.07205" lon="5.69081">
        <ele>840</ele>
        <time>2000-01-01T07:24:58.000Z</time>
      </trkpt>
      <trkpt lat="44.0717" lon="5.69077">
        <ele>841</ele>
        <time>2000-01-01T07:25:08.000Z</time>
      </trkpt>
      <trkpt lat="44.07131" lon="5.69094">
        <ele>842</ele>
        <time>2000-01-01T07:25:18.000Z</time>
      </trkpt>
      <trkpt lat="44.07091" lon="5.69083">
        <ele>847</ele>
        <time>2000-01-01T07:25:28.000Z</time>
      </trkpt>
      <trkpt lat="44.07049" lon="5.69096">
        <ele>850</ele>
        <time>2000-01-01T07:25:38.000Z</time>
      </trkpt>
      <trkpt lat="44.07005" lon="5.69102">
        <ele>850</ele>
        <time>2000-01-01T07:25:48.000Z</time>
      </trkpt>
      <trkpt lat="44.06963" lon="5.69096">
        <ele>850</ele>
        <time>2000-01-01T07:25:58.000Z</time>
      </trkpt>
      <trkpt lat="44.06937" lon="5.6909">
        <ele>849</ele>
        <time>2000-01-01T07:26:08.000Z</time>
      </trkpt>
      <trkpt lat="44.06905" lon="5.69083">
        <ele>849</ele>
        <time>2000-01-01T07:26:18.000Z</time>
      </trkpt>
      <trkpt lat="44.06864" lon="5.69068">
        <ele>856</ele>
        <time>2000-01-01T07:26:28.000Z</time>
      </trkpt>
      <trkpt lat="44.06833" lon="5.69049">
        <ele>862</ele>
        <time>2000-01-01T07:26:38.000Z</time>
      </trkpt>
      <trkpt lat="44.06799" lon="5.6903">
        <ele>868</ele>
        <time>2000-01-01T07:26:48.000Z</time>
      </trkpt>
      <trkpt lat="44.06775" lon="5.69028">
        <ele>871</ele>
        <time>2000-01-01T07:26:58.000Z</time>
      </trkpt>
      <trkpt lat="44.0675" lon="5.69026">
        <ele>874</ele>
        <time>2000-01-01T07:27:08.000Z</time>
      </trkpt>
      <trkpt lat="44.06708" lon="5.69015">
        <ele>878</ele>
        <time>2000-01-01T07:27:18.000Z</time>
      </trkpt>
      <trkpt lat="44.0668" lon="5.69013">
        <ele>883</ele>
        <time>2000-01-01T07:27:28.000Z</time>
      </trkpt>
      <trkpt lat="44.0664" lon="5.69011">
        <ele>887</ele>
        <time>2000-01-01T07:27:38.000Z</time>
      </trkpt>
      <trkpt lat="44.06616" lon="5.6902">
        <ele>888</ele>
        <time>2000-01-01T07:27:48.000Z</time>
      </trkpt>
      <trkpt lat="44.06589" lon="5.6903">
        <ele>888</ele>
        <time>2000-01-01T07:27:58.000Z</time>
      </trkpt>
      <trkpt lat="44.06565" lon="5.69011">
        <ele>888</ele>
        <time>2000-01-01T07:28:08.000Z</time>
      </trkpt>
      <trkpt lat="44.06578" lon="5.68978">
        <ele>890</ele>
        <time>2000-01-01T07:28:18.000Z</time>
      </trkpt>
      <trkpt lat="44.06594" lon="5.68936">
        <ele>892</ele>
        <time>2000-01-01T07:28:28.000Z</time>
      </trkpt>
      <trkpt lat="44.06631" lon="5.68893">
        <ele>897</ele>
        <time>2000-01-01T07:28:38.000Z</time>
      </trkpt>
      <trkpt lat="44.06656" lon="5.68881">
        <ele>899</ele>
        <time>2000-01-01T07:28:48.000Z</time>
      </trkpt>
      <trkpt lat="44.06688" lon="5.68867">
        <ele>905</ele>
        <time>2000-01-01T07:28:58.000Z</time>
      </trkpt>
      <trkpt lat="44.06722" lon="5.68855">
        <ele>910</ele>
        <time>2000-01-01T07:29:08.000Z</time>
      </trkpt>
      <trkpt lat="44.06748" lon="5.68845">
        <ele>913</ele>
        <time>2000-01-01T07:29:18.000Z</time>
      </trkpt>
      <trkpt lat="44.06779" lon="5.68833">
        <ele>917</ele>
        <time>2000-01-01T07:29:28.000Z</time>
      </trkpt>
      <trkpt lat="44.06812" lon="5.68821">
        <ele>922</ele>
        <time>2000-01-01T07:29:38.000Z</time>
      </trkpt>
      <trkpt lat="44.0685" lon="5.68787">
        <ele>934</ele>
        <time>2000-01-01T07:29:48.000Z</time>
      </trkpt>
      <trkpt lat="44.06876" lon="5.68782">
        <ele>934</ele>
        <time>2000-01-01T07:29:58.000Z</time>
      </trkpt>
      <trkpt lat="44.06907" lon="5.68776">
        <ele>938</ele>
        <time>2000-01-01T07:30:08.000Z</time>
      </trkpt>
      <trkpt lat="44.06939" lon="5.68777">
        <ele>939</ele>
        <time>2000-01-01T07:30:18.000Z</time>
      </trkpt>
      <trkpt lat="44.06972" lon="5.68778">
        <ele>940</ele>
        <time>2000-01-01T07:30:28.000Z</time>
      </trkpt>
      <trkpt lat="44.07005" lon="5.68779">
        <ele>940</ele>
        <time>2000-01-01T07:30:38.000Z</time>
      </trkpt>
      <trkpt lat="44.07039" lon="5.68781">
        <ele>940</ele>
        <time>2000-01-01T07:30:48.000Z</time>
      </trkpt>
      <trkpt lat="44.07064" lon="5.68748">
        <ele>954</ele>
        <time>2000-01-01T07:30:58.000Z</time>
      </trkpt>
      <trkpt lat="44.07077" lon="5.68701">
        <ele>968</ele>
        <time>2000-01-01T07:31:08.000Z</time>
      </trkpt>
      <trkpt lat="44.07073" lon="5.68656">
        <ele>980</ele>
        <time>2000-01-01T07:31:18.000Z</time>
      </trkpt>
      <trkpt lat="44.07062" lon="5.68628">
        <ele>982</ele>
        <time>2000-01-01T07:31:28.000Z</time>
      </trkpt>
      <trkpt lat="44.07033" lon="5.68624">
        <ele>980</ele>
        <time>2000-01-01T07:31:38.000Z</time>
      </trkpt>
      <trkpt lat="44.07005" lon="5.68631">
        <ele>979</ele>
        <time>2000-01-01T07:31:48.000Z</time>
      </trkpt>
      <trkpt lat="44.06967" lon="5.68641">
        <ele>974</ele>
        <time>2000-01-01T07:31:58.000Z</time>
      </trkpt>
      <trkpt lat="44.06924" lon="5.68632">
        <ele>974</ele>
        <time>2000-01-01T07:32:08.000Z</time>
      </trkpt>
      <trkpt lat="44.06878" lon="5.68617">
        <ele>974</ele>
        <time>2000-01-01T07:32:18.000Z</time>
      </trkpt>
      <trkpt lat="44.06866" lon="5.68557">
        <ele>983</ele>
        <time>2000-01-01T07:32:28.000Z</time>
      </trkpt>
      <trkpt lat="44.06872" lon="5.68517">
        <ele>987</ele>
        <time>2000-01-01T07:32:38.000Z</time>
      </trkpt>
      <trkpt lat="44.06884" lon="5.68475">
        <ele>987</ele>
        <time>2000-01-01T07:32:48.000Z</time>
      </trkpt>
      <trkpt lat="44.06909" lon="5.68461">
        <ele>990</ele>
        <time>2000-01-01T07:32:58.000Z</time>
      </trkpt>
      <trkpt lat="44.06933" lon="5.68454">
        <ele>994</ele>
        <time>2000-01-01T07:33:08.000Z</time>
      </trkpt>
      <trkpt lat="44.0696" lon="5.68446">
        <ele>995</ele>
        <time>2000-01-01T07:33:18.000Z</time>
      </trkpt>
      <trkpt lat="44.07" lon="5.68448">
        <ele>996</ele>
        <time>2000-01-01T07:33:28.000Z</time>
      </trkpt>
      <trkpt lat="44.07024" lon="5.6846">
        <ele>997</ele>
        <time>2000-01-01T07:33:38.000Z</time>
      </trkpt>
      <trkpt lat="44.07049" lon="5.68472">
        <ele>996</ele>
        <time>2000-01-01T07:33:48.000Z</time>
      </trkpt>
      <trkpt lat="44.07094" lon="5.68491">
        <ele>996</ele>
        <time>2000-01-01T07:33:58.000Z</time>
      </trkpt>
      <trkpt lat="44.07131" lon="5.68526">
        <ele>994</ele>
        <time>2000-01-01T07:34:08.000Z</time>
      </trkpt>
      <trkpt lat="44.07168" lon="5.68532">
        <ele>992</ele>
        <time>2000-01-01T07:34:18.000Z</time>
      </trkpt>
      <trkpt lat="44.07205" lon="5.68545">
        <ele>987</ele>
        <time>2000-01-01T07:34:28.000Z</time>
      </trkpt>
      <trkpt lat="44.07226" lon="5.68566">
        <ele>987</ele>
        <time>2000-01-01T07:34:38.000Z</time>
      </trkpt>
      <trkpt lat="44.07253" lon="5.68603">
        <ele>986</ele>
        <time>2000-01-01T07:34:48.000Z</time>
      </trkpt>
      <trkpt lat="44.0728" lon="5.68637">
        <ele>983</ele>
        <time>2000-01-01T07:34:58.000Z</time>
      </trkpt>
      <trkpt lat="44.07317" lon="5.6863">
        <ele>979</ele>
        <time>2000-01-01T07:35:08.000Z</time>
      </trkpt>
      <trkpt lat="44.0735" lon="5.68635">
        <ele>974</ele>
        <time>2000-01-01T07:35:18.000Z</time>
      </trkpt>
      <trkpt lat="44.07383" lon="5.68641">
        <ele>968</ele>
        <time>2000-01-01T07:35:28.000Z</time>
      </trkpt>
      <trkpt lat="44.0742" lon="5.68647">
        <ele>962</ele>
        <time>2000-01-01T07:35:38.000Z</time>
      </trkpt>
      <trkpt lat="44.07467" lon="5.68649">
        <ele>952</ele>
        <time>2000-01-01T07:35:48.000Z</time>
      </trkpt>
      <trkpt lat="44.07504" lon="5.68675">
        <ele>947</ele>
        <time>2000-01-01T07:35:58.000Z</time>
      </trkpt>
      <trkpt lat="44.07537" lon="5.68679">
        <ele>941</ele>
        <time>2000-01-01T07:36:08.000Z</time>
      </trkpt>
      <trkpt lat="44.07571" lon="5.68684">
        <ele>930</ele>
        <time>2000-01-01T07:36:18.000Z</time>
      </trkpt>
      <trkpt lat="44.07613" lon="5.68689">
        <ele>920</ele>
        <time>2000-01-01T07:36:28.000Z</time>
      </trkpt>
      <trkpt lat="44.07634" lon="5.68706">
        <ele>913</ele>
        <time>2000-01-01T07:36:38.000Z</time>
      </trkpt>
      <trkpt lat="44.07659" lon="5.6872">
        <ele>907</ele>
        <time>2000-01-01T07:36:48.000Z</time>
      </trkpt>
      <trkpt lat="44.07691" lon="5.68738">
        <ele>892</ele>
        <time>2000-01-01T07:36:58.000Z</time>
      </trkpt>
      <trkpt lat="44.07722" lon="5.68753">
        <ele>882</ele>
        <time>2000-01-01T07:37:08.000Z</time>
      </trkpt>
      <trkpt lat="44.07739" lon="5.68764">
        <ele>876.7</ele>
        <time>2000-01-01T07:37:18.000Z</time>
      </trkpt>
      <trkpt lat="44.07779" lon="5.68784">
        <ele>870</ele>
        <time>2000-01-01T07:37:28.000Z</time>
      </trkpt>
      <trkpt lat="44.07803" lon="5.6879">
        <ele>862</ele>
        <time>2000-01-01T07:37:38.000Z</time>
      </trkpt>
      <trkpt lat="44.07827" lon="5.68796">
        <ele>857</ele>
        <time>2000-01-01T07:37:48.000Z</time>
      </trkpt>
      <trkpt lat="44.07853" lon="5.68813">
        <ele>849</ele>
        <time>2000-01-01T07:37:58.000Z</time>
      </trkpt>
      <trkpt lat="44.07882" lon="5.68798">
        <ele>842</ele>
        <time>2000-01-01T07:38:08.000Z</time>
      </trkpt>
      <trkpt lat="44.07918" lon="5.68809">
        <ele>835</ele>
        <time>2000-01-01T07:38:18.000Z</time>
      </trkpt>
      <trkpt lat="44.07941" lon="5.68841">
        <ele>822</ele>
        <time>2000-01-01T07:38:28.000Z</time>
      </trkpt>
      <trkpt lat="44.07967" lon="5.6883">
        <ele>822</ele>
        <time>2000-01-01T07:38:38.000Z</time>
      </trkpt>
      <trkpt lat="44.08002" lon="5.68817">
        <ele>829</ele>
        <time>2000-01-01T07:38:48.000Z</time>
      </trkpt>
      <trkpt lat="44.08027" lon="5.6879">
        <ele>833</ele>
        <time>2000-01-01T07:38:58.000Z</time>
      </trkpt>
      <trkpt lat="44.08048" lon="5.68767">
        <ele>833</ele>
        <time>2000-01-01T07:39:08.000Z</time>
      </trkpt>
      <trkpt lat="44.08073" lon="5.68739">
        <ele>828</ele>
        <time>2000-01-01T07:39:18.000Z</time>
      </trkpt>
      <trkpt lat="44.08099" lon="5.68739">
        <ele>828</ele>
        <time>2000-01-01T07:39:28.000Z</time>
      </trkpt>
      <trkpt lat="44.08131" lon="5.68739">
        <ele>830</ele>
        <time>2000-01-01T07:39:38.000Z</time>
      </trkpt>
      <trkpt lat="44.08157" lon="5.68761">
        <ele>833</ele>
        <time>2000-01-01T07:39:48.000Z</time>
      </trkpt>
      <trkpt lat="44.08178" lon="5.68778">
        <ele>834</ele>
        <time>2000-01-01T07:39:58.000Z</time>
      </trkpt>
      <trkpt lat="44.08199" lon="5.68795">
        <ele>834</ele>
        <time>2000-01-01T07:40:08.000Z</time>
      </trkpt>
      <trkpt lat="44.08226" lon="5.68809">
        <ele>836</ele>
        <time>2000-01-01T07:40:18.000Z</time>
      </trkpt>
      <trkpt lat="44.08267" lon="5.68829">
        <ele>838</ele>
        <time>2000-01-01T07:40:28.000Z</time>
      </trkpt>
      <trkpt lat="44.08292" lon="5.68847">
        <ele>840</ele>
        <time>2000-01-01T07:40:38.000Z</time>
      </trkpt>
      <trkpt lat="44.08329" lon="5.68872">
        <ele>842</ele>
        <time>2000-01-01T07:40:48.000Z</time>
      </trkpt>
      <trkpt lat="44.08353" lon="5.68886">
        <ele>842</ele>
        <time>2000-01-01T07:40:58.000Z</time>
      </trkpt>
      <trkpt lat="44.08384" lon="5.68902">
        <ele>844</ele>
        <time>2000-01-01T07:41:08.000Z</time>
      </trkpt>
      <trkpt lat="44.08404" lon="5.68922">
        <ele>845</ele>
        <time>2000-01-01T07:41:18.000Z</time>
      </trkpt>
      <trkpt lat="44.08425" lon="5.68942">
        <ele>847</ele>
        <time>2000-01-01T07:41:28.000Z</time>
      </trkpt>
      <trkpt lat="44.0844" lon="5.68969">
        <ele>848</ele>
        <time>2000-01-01T07:41:38.000Z</time>
      </trkpt>
      <trkpt lat="44.08455" lon="5.68989">
        <ele>848</ele>
        <time>2000-01-01T07:41:48.000Z</time>
      </trkpt>
      <trkpt lat="44.0846" lon="5.68999">
        <ele>849.9</ele>
        <time>2000-01-01T07:41:58.000Z</time>
      </trkpt>
      <trkpt lat="44.08474" lon="5.68994">
        <ele>849</ele>
        <time>2000-01-01T07:42:08.000Z</time>
      </trkpt>
      <trkpt lat="44.08506" lon="5.68988">
        <ele>849</ele>
        <time>2000-01-01T07:42:18.000Z</time>
      </trkpt>
      <trkpt lat="44.08527" lon="5.68983">
        <ele>850</ele>
        <time>2000-01-01T07:42:28.000Z</time>
      </trkpt>
      <trkpt lat="44.08555" lon="5.68975">
        <ele>851</ele>
        <time>2000-01-01T07:42:38.000Z</time>
      </trkpt>
      <trkpt lat="44.08589" lon="5.68971">
        <ele>853</ele>
        <time>2000-01-01T07:42:48.000Z</time>
      </trkpt>
      <trkpt lat="44.08617" lon="5.68983">
        <ele>855</ele>
        <time>2000-01-01T07:42:58.000Z</time>
      </trkpt>
      <trkpt lat="44.08663" lon="5.69003">
        <ele>858</ele>
        <time>2000-01-01T07:43:08.000Z</time>
      </trkpt>
      <trkpt lat="44.087" lon="5.6902">
        <ele>859</ele>
        <time>2000-01-01T07:43:18.000Z</time>
      </trkpt>
      <trkpt lat="44.08729" lon="5.69032">
        <ele>860</ele>
        <time>2000-01-01T07:43:28.000Z</time>
      </trkpt>
      <trkpt lat="44.08753" lon="5.69042">
        <ele>861</ele>
        <time>2000-01-01T07:43:38.000Z</time>
      </trkpt>
      <trkpt lat="44.08778" lon="5.69053">
        <ele>862</ele>
        <time>2000-01-01T07:43:48.000Z</time>
      </trkpt>
      <trkpt lat="44.08815" lon="5.69067">
        <ele>864</ele>
        <time>2000-01-01T07:43:58.000Z</time>
      </trkpt>
      <trkpt lat="44.08852" lon="5.6908">
        <ele>868</ele>
        <time>2000-01-01T07:44:08.000Z</time>
      </trkpt>
      <trkpt lat="44.08889" lon="5.69094">
        <ele>870</ele>
        <time>2000-01-01T07:44:18.000Z</time>
      </trkpt>
      <trkpt lat="44.08916" lon="5.69104">
        <ele>871</ele>
        <time>2000-01-01T07:44:28.000Z</time>
      </trkpt>
      <trkpt lat="44.08954" lon="5.69118">
        <ele>873</ele>
        <time>2000-01-01T07:44:38.000Z</time>
      </trkpt>
      <trkpt lat="44.08986" lon="5.69105">
        <ele>874</ele>
        <time>2000-01-01T07:44:48.000Z</time>
      </trkpt>
      <trkpt lat="44.09018" lon="5.69091">
        <ele>875</ele>
        <time>2000-01-01T07:44:58.000Z</time>
      </trkpt>
      <trkpt lat="44.09058" lon="5.69075">
        <ele>874</ele>
        <time>2000-01-01T07:45:08.000Z</time>
      </trkpt>
      <trkpt lat="44.09095" lon="5.69071">
        <ele>874</ele>
        <time>2000-01-01T07:45:18.000Z</time>
      </trkpt>
      <trkpt lat="44.09131" lon="5.69067">
        <ele>874</ele>
        <time>2000-01-01T07:45:28.000Z</time>
      </trkpt>
      <trkpt lat="44.09168" lon="5.69063">
        <ele>875</ele>
        <time>2000-01-01T07:45:38.000Z</time>
      </trkpt>
      <trkpt lat="44.09212" lon="5.69058">
        <ele>877</ele>
        <time>2000-01-01T07:45:48.000Z</time>
      </trkpt>
      <trkpt lat="44.09227" lon="5.69029">
        <ele>880</ele>
        <time>2000-01-01T07:45:58.000Z</time>
      </trkpt>
      <trkpt lat="44.09243" lon="5.68998">
        <ele>878</ele>
        <time>2000-01-01T07:46:08.000Z</time>
      </trkpt>
      <trkpt lat="44.09238" lon="5.68951">
        <ele>879</ele>
        <time>2000-01-01T07:46:18.000Z</time>
      </trkpt>
      <trkpt lat="44.09232" lon="5.68904">
        <ele>880</ele>
        <time>2000-01-01T07:46:28.000Z</time>
      </trkpt>
      <trkpt lat="44.09225" lon="5.68839">
        <ele>882</ele>
        <time>2000-01-01T07:46:38.000Z</time>
      </trkpt>
      <trkpt lat="44.09241" lon="5.68803">
        <ele>885</ele>
        <time>2000-01-01T07:46:48.000Z</time>
      </trkpt>
      <trkpt lat="44.09254" lon="5.68772">
        <ele>885</ele>
        <time>2000-01-01T07:46:58.000Z</time>
      </trkpt>
      <trkpt lat="44.09268" lon="5.6874">
        <ele>885</ele>
        <time>2000-01-01T07:47:08.000Z</time>
      </trkpt>
      <trkpt lat="44.09269" lon="5.68701">
        <ele>889</ele>
        <time>2000-01-01T07:47:18.000Z</time>
      </trkpt>
      <trkpt lat="44.09271" lon="5.68646">
        <ele>896</ele>
        <time>2000-01-01T07:47:28.000Z</time>
      </trkpt>
      <trkpt lat="44.09253" lon="5.68613">
        <ele>901</ele>
        <time>2000-01-01T07:47:38.000Z</time>
      </trkpt>
      <trkpt lat="44.09225" lon="5.6856">
        <ele>910</ele>
        <time>2000-01-01T07:47:48.000Z</time>
      </trkpt>
      <trkpt lat="44.09211" lon="5.68523">
        <ele>917</ele>
        <time>2000-01-01T07:47:58.000Z</time>
      </trkpt>
      <trkpt lat="44.09188" lon="5.68465">
        <ele>924</ele>
        <time>2000-01-01T07:48:08.000Z</time>
      </trkpt>
      <trkpt lat="44.09177" lon="5.68425">
        <ele>932</ele>
        <time>2000-01-01T07:48:18.000Z</time>
      </trkpt>
      <trkpt lat="44.09167" lon="5.68392">
        <ele>937</ele>
        <time>2000-01-01T07:48:28.000Z</time>
      </trkpt>
      <trkpt lat="44.09157" lon="5.68354">
        <ele>947</ele>
        <time>2000-01-01T07:48:38.000Z</time>
      </trkpt>
      <trkpt lat="44.09144" lon="5.68319">
        <ele>960</ele>
        <time>2000-01-01T07:48:48.000Z</time>
      </trkpt>
      <trkpt lat="44.09126" lon="5.68268">
        <ele>970</ele>
        <time>2000-01-01T07:48:58.000Z</time>
      </trkpt>
      <trkpt lat="44.09126" lon="5.6823">
        <ele>978</ele>
        <time>2000-01-01T07:49:08.000Z</time>
      </trkpt>
      <trkpt lat="44.09126" lon="5.68182">
        <ele>986</ele>
        <time>2000-01-01T07:49:18.000Z</time>
      </trkpt>
      <trkpt lat="44.09162" lon="5.68137">
        <ele>998</ele>
        <time>2000-01-01T07:49:28.000Z</time>
      </trkpt>
      <trkpt lat="44.09173" lon="5.68106">
        <ele>1001</ele>
        <time>2000-01-01T07:49:38.000Z</time>
      </trkpt>
      <trkpt lat="44.09184" lon="5.68072">
        <ele>1006</ele>
        <time>2000-01-01T07:49:48.000Z</time>
      </trkpt>
      <trkpt lat="44.09155" lon="5.68023">
        <ele>1015</ele>
        <time>2000-01-01T07:49:58.000Z</time>
      </trkpt>
      <trkpt lat="44.09141" lon="5.67988">
        <ele>1026</ele>
        <time>2000-01-01T07:50:08.000Z</time>
      </trkpt>
      <trkpt lat="44.09119" lon="5.67939">
        <ele>1028</ele>
        <time>2000-01-01T07:50:18.000Z</time>
      </trkpt>
      <trkpt lat="44.09111" lon="5.67899">
        <ele>1035</ele>
        <time>2000-01-01T07:50:28.000Z</time>
      </trkpt>
      <trkpt lat="44.09098" lon="5.67836">
        <ele>1045</ele>
        <time>2000-01-01T07:50:38.000Z</time>
      </trkpt>
      <trkpt lat="44.09079" lon="5.67807">
        <ele>1049</ele>
        <time>2000-01-01T07:50:48.000Z</time>
      </trkpt>
      <trkpt lat="44.09054" lon="5.67767">
        <ele>1058</ele>
        <time>2000-01-01T07:50:58.000Z</time>
      </trkpt>
      <trkpt lat="44.09033" lon="5.67746">
        <ele>1061</ele>
        <time>2000-01-01T07:51:08.000Z</time>
      </trkpt>
      <trkpt lat="44.09009" lon="5.67723">
        <ele>1062</ele>
        <time>2000-01-01T07:51:18.000Z</time>
      </trkpt>
      <trkpt lat="44.08974" lon="5.6769">
        <ele>1061</ele>
        <time>2000-01-01T07:51:28.000Z</time>
      </trkpt>
      <trkpt lat="44.08956" lon="5.67663">
        <ele>1061</ele>
        <time>2000-01-01T07:51:38.000Z</time>
      </trkpt>
      <trkpt lat="44.08934" lon="5.6763">
        <ele>1061</ele>
        <time>2000-01-01T07:51:48.000Z</time>
      </trkpt>
      <trkpt lat="44.08916" lon="5.67598">
        <ele>1061</ele>
        <time>2000-01-01T07:51:58.000Z</time>
      </trkpt>
      <trkpt lat="44.08888" lon="5.67551">
        <ele>1062</ele>
        <time>2000-01-01T07:52:08.000Z</time>
      </trkpt>
      <trkpt lat="44.08862" lon="5.6755">
        <ele>1062</ele>
        <time>2000-01-01T07:52:18.000Z</time>
      </trkpt>
      <trkpt lat="44.08833" lon="5.67549">
        <ele>1061</ele>
        <time>2000-01-01T07:52:28.000Z</time>
      </trkpt>
      <trkpt lat="44.08808" lon="5.67535">
        <ele>1060</ele>
        <time>2000-01-01T07:52:38.000Z</time>
      </trkpt>
      <trkpt lat="44.08777" lon="5.67519">
        <ele>1060</ele>
        <time>2000-01-01T07:52:48.000Z</time>
      </trkpt>
      <trkpt lat="44.08751" lon="5.67504">
        <ele>1059</ele>
        <time>2000-01-01T07:52:58.000Z</time>
      </trkpt>
      <trkpt lat="44.08712" lon="5.67484">
        <ele>1053</ele>
        <time>2000-01-01T07:53:08.000Z</time>
      </trkpt>
      <trkpt lat="44.08695" lon="5.67459">
        <ele>1053</ele>
        <time>2000-01-01T07:53:18.000Z</time>
      </trkpt>
      <trkpt lat="44.08675" lon="5.67433">
        <ele>1050</ele>
        <time>2000-01-01T07:53:28.000Z</time>
      </trkpt>
      <trkpt lat="44.08645" lon="5.67398">
        <ele>1042</ele>
        <time>2000-01-01T07:53:38.000Z</time>
      </trkpt>
      <trkpt lat="44.0864" lon="5.67362">
        <ele>1039</ele>
        <time>2000-01-01T07:53:48.000Z</time>
      </trkpt>
      <trkpt lat="44.08635" lon="5.67317">
        <ele>1036</ele>
        <time>2000-01-01T07:53:58.000Z</time>
      </trkpt>
      <trkpt lat="44.0864" lon="5.6728">
        <ele>1031</ele>
        <time>2000-01-01T07:54:08.000Z</time>
      </trkpt>
      <trkpt lat="44.08645" lon="5.67235">
        <ele>1028</ele>
        <time>2000-01-01T07:54:18.000Z</time>
      </trkpt>
      <trkpt lat="44.08656" lon="5.67202">
        <ele>1025</ele>
        <time>2000-01-01T07:54:28.000Z</time>
      </trkpt>
      <trkpt lat="44.08669" lon="5.67162">
        <ele>1021</ele>
        <time>2000-01-01T07:54:38.000Z</time>
      </trkpt>
      <trkpt lat="44.08647" lon="5.67127">
        <ele>1007</ele>
        <time>2000-01-01T07:54:48.000Z</time>
      </trkpt>
      <trkpt lat="44.08625" lon="5.67091">
        <ele>994</ele>
        <time>2000-01-01T07:54:58.000Z</time>
      </trkpt>
      <trkpt lat="44.08597" lon="5.67046">
        <ele>978</ele>
        <time>2000-01-01T07:55:08.000Z</time>
      </trkpt>
      <trkpt lat="44.08575" lon="5.67011">
        <ele>969</ele>
        <time>2000-01-01T07:55:18.000Z</time>
      </trkpt>
      <trkpt lat="44.08552" lon="5.66976">
        <ele>960</ele>
        <time>2000-01-01T07:55:28.000Z</time>
      </trkpt>
      <trkpt lat="44.08524" lon="5.66931">
        <ele>955</ele>
        <time>2000-01-01T07:55:38.000Z</time>
      </trkpt>
      <trkpt lat="44.08525" lon="5.66884">
        <ele>953</ele>
        <time>2000-01-01T07:55:48.000Z</time>
      </trkpt>
      <trkpt lat="44.08553" lon="5.66841">
        <ele>945</ele>
        <time>2000-01-01T07:55:58.000Z</time>
      </trkpt>
      <trkpt lat="44.08572" lon="5.6682">
        <ele>937</ele>
        <time>2000-01-01T07:56:08.000Z</time>
      </trkpt>
      <trkpt lat="44.08593" lon="5.66798">
        <ele>930</ele>
        <time>2000-01-01T07:56:18.000Z</time>
      </trkpt>
      <trkpt lat="44.08606" lon="5.66768">
        <ele>923</ele>
        <time>2000-01-01T07:56:28.000Z</time>
      </trkpt>
      <trkpt lat="44.0862" lon="5.66734">
        <ele>916</ele>
        <time>2000-01-01T07:56:38.000Z</time>
      </trkpt>
      <trkpt lat="44.08616" lon="5.66697">
        <ele>906</ele>
        <time>2000-01-01T07:56:48.000Z</time>
      </trkpt>
      <trkpt lat="44.08611" lon="5.66652">
        <ele>895</ele>
        <time>2000-01-01T07:56:58.000Z</time>
      </trkpt>
      <trkpt lat="44.08598" lon="5.66589">
        <ele>878</ele>
        <time>2000-01-01T07:57:08.000Z</time>
      </trkpt>
      <trkpt lat="44.08574" lon="5.66532">
        <ele>875</ele>
        <time>2000-01-01T07:57:18.000Z</time>
      </trkpt>
      <trkpt lat="44.08556" lon="5.66497">
        <ele>873</ele>
        <time>2000-01-01T07:57:28.000Z</time>
      </trkpt>
      <trkpt lat="44.08541" lon="5.66469">
        <ele>872</ele>
        <time>2000-01-01T07:57:38.000Z</time>
      </trkpt>
      <trkpt lat="44.08525" lon="5.66438">
        <ele>871</ele>
        <time>2000-01-01T07:57:48.000Z</time>
      </trkpt>
      <trkpt lat="44.08517" lon="5.66406">
        <ele>870</ele>
        <time>2000-01-01T07:57:58.000Z</time>
      </trkpt>
      <trkpt lat="44.08509" lon="5.66373">
        <ele>870</ele>
        <time>2000-01-01T07:58:08.000Z</time>
      </trkpt>
      <trkpt lat="44.085" lon="5.66309">
        <ele>871</ele>
        <time>2000-01-01T07:58:18.000Z</time>
      </trkpt>
      <trkpt lat="44.08488" lon="5.66249">
        <ele>876</ele>
        <time>2000-01-01T07:58:28.000Z</time>
      </trkpt>
      <trkpt lat="44.08478" lon="5.66213">
        <ele>878</ele>
        <time>2000-01-01T07:58:38.000Z</time>
      </trkpt>
      <trkpt lat="44.08466" lon="5.66167">
        <ele>878</ele>
        <time>2000-01-01T07:58:48.000Z</time>
      </trkpt>
      <trkpt lat="44.08445" lon="5.66124">
        <ele>878</ele>
        <time>2000-01-01T07:58:58.000Z</time>
      </trkpt>
      <trkpt lat="44.08445" lon="5.66089">
        <ele>878</ele>
        <time>2000-01-01T07:59:08.000Z</time>
      </trkpt>
      <trkpt lat="44.08445" lon="5.66051">
        <ele>874</ele>
        <time>2000-01-01T07:59:18.000Z</time>
      </trkpt>
      <trkpt lat="44.08417" lon="5.66032">
        <ele>873</ele>
        <time>2000-01-01T07:59:28.000Z</time>
      </trkpt>
      <trkpt lat="44.08394" lon="5.66015">
        <ele>872</ele>
        <time>2000-01-01T07:59:38.000Z</time>
      </trkpt>
      <trkpt lat="44.08368" lon="5.65996">
        <ele>871</ele>
        <time>2000-01-01T07:59:48.000Z</time>
      </trkpt>
      <trkpt lat="44.08396" lon="5.65978">
        <ele>868</ele>
        <time>2000-01-01T07:59:58.000Z</time>
      </trkpt>
      <trkpt lat="44.08419" lon="5.65964">
        <ele>865</ele>
        <time>2000-01-01T08:00:08.000Z</time>
      </trkpt>
      <trkpt lat="44.08445" lon="5.65949">
        <ele>865</ele>
        <time>2000-01-01T08:00:18.000Z</time>
      </trkpt>
      <trkpt lat="44.0844" lon="5.65903">
        <ele>865</ele>
        <time>2000-01-01T08:00:28.000Z</time>
      </trkpt>
      <trkpt lat="44.08435" lon="5.65856">
        <ele>870</ele>
        <time>2000-01-01T08:00:38.000Z</time>
      </trkpt>
      <trkpt lat="44.08429" lon="5.65798">
        <ele>872</ele>
        <time>2000-01-01T08:00:48.000Z</time>
      </trkpt>
      <trkpt lat="44.08402" lon="5.65783">
        <ele>872</ele>
        <time>2000-01-01T08:00:58.000Z</time>
      </trkpt>
      <trkpt lat="44.08358" lon="5.6576">
        <ele>872</ele>
        <time>2000-01-01T08:01:08.000Z</time>
      </trkpt>
      <trkpt lat="44.08339" lon="5.65736">
        <ele>872</ele>
        <time>2000-01-01T08:01:18.000Z</time>
      </trkpt>
      <trkpt lat="44.08315" lon="5.65708">
        <ele>872</ele>
        <time>2000-01-01T08:01:28.000Z</time>
      </trkpt>
      <trkpt lat="44.08298" lon="5.65682">
        <ele>872</ele>
        <time>2000-01-01T08:01:38.000Z</time>
      </trkpt>
      <trkpt lat="44.08278" lon="5.65652">
        <ele>872</ele>
        <time>2000-01-01T08:01:48.000Z</time>
      </trkpt>
      <trkpt lat="44.08264" lon="5.65612">
        <ele>872</ele>
        <time>2000-01-01T08:01:58.000Z</time>
      </trkpt>
      <trkpt lat="44.08251" lon="5.65578">
        <ele>874</ele>
        <time>2000-01-01T08:02:08.000Z</time>
      </trkpt>
      <trkpt lat="44.08235" lon="5.65532">
        <ele>879</ele>
        <time>2000-01-01T08:02:18.000Z</time>
      </trkpt>
      <trkpt lat="44.08218" lon="5.65493">
        <ele>886</ele>
        <time>2000-01-01T08:02:28.000Z</time>
      </trkpt>
      <trkpt lat="44.08202" lon="5.65453">
        <ele>896</ele>
        <time>2000-01-01T08:02:38.000Z</time>
      </trkpt>
      <trkpt lat="44.08183" lon="5.65408">
        <ele>900</ele>
        <time>2000-01-01T08:02:48.000Z</time>
      </trkpt>
      <trkpt lat="44.08166" lon="5.65381">
        <ele>904</ele>
        <time>2000-01-01T08:02:58.000Z</time>
      </trkpt>
      <trkpt lat="44.08147" lon="5.65351">
        <ele>911</ele>
        <time>2000-01-01T08:03:08.000Z</time>
      </trkpt>
      <trkpt lat="44.0813" lon="5.65326">
        <ele>918</ele>
        <time>2000-01-01T08:03:18.000Z</time>
      </trkpt>
      <trkpt lat="44.08104" lon="5.65297">
        <ele>922</ele>
        <time>2000-01-01T08:03:28.000Z</time>
      </trkpt>
      <trkpt lat="44.08078" lon="5.65267">
        <ele>923</ele>
        <time>2000-01-01T08:03:38.000Z</time>
      </trkpt>
      <trkpt lat="44.08047" lon="5.65232">
        <ele>927</ele>
        <time>2000-01-01T08:03:48.000Z</time>
      </trkpt>
      <trkpt lat="44.08028" lon="5.65207">
        <ele>936</ele>
        <time>2000-01-01T08:03:58.000Z</time>
      </trkpt>
      <trkpt lat="44.08007" lon="5.65179">
        <ele>943</ele>
        <time>2000-01-01T08:04:08.000Z</time>
      </trkpt>
      <trkpt lat="44.07988" lon="5.65155">
        <ele>946</ele>
        <time>2000-01-01T08:04:18.000Z</time>
      </trkpt>
      <trkpt lat="44.07972" lon="5.65126">
        <ele>956</ele>
        <time>2000-01-01T08:04:28.000Z</time>
      </trkpt>
      <trkpt lat="44.07953" lon="5.65091">
        <ele>961</ele>
        <time>2000-01-01T08:04:38.000Z</time>
      </trkpt>
      <trkpt lat="44.07933" lon="5.65056">
        <ele>972</ele>
        <time>2000-01-01T08:04:48.000Z</time>
      </trkpt>
      <trkpt lat="44.0791" lon="5.65024">
        <ele>978</ele>
        <time>2000-01-01T08:04:58.000Z</time>
      </trkpt>
      <trkpt lat="44.07891" lon="5.64997">
        <ele>984</ele>
        <time>2000-01-01T08:05:08.000Z</time>
      </trkpt>
      <trkpt lat="44.07865" lon="5.64961">
        <ele>986</ele>
        <time>2000-01-01T08:05:18.000Z</time>
      </trkpt>
      <trkpt lat="44.07842" lon="5.64932">
        <ele>993</ele>
        <time>2000-01-01T08:05:28.000Z</time>
      </trkpt>
      <trkpt lat="44.07824" lon="5.64907">
        <ele>997</ele>
        <time>2000-01-01T08:05:38.000Z</time>
      </trkpt>
      <trkpt lat="44.07803" lon="5.6488">
        <ele>1001</ele>
        <time>2000-01-01T08:05:48.000Z</time>
      </trkpt>
      <trkpt lat="44.07789" lon="5.64841">
        <ele>1007</ele>
        <time>2000-01-01T08:05:58.000Z</time>
      </trkpt>
      <trkpt lat="44.07777" lon="5.64808">
        <ele>1016</ele>
        <time>2000-01-01T08:06:08.000Z</time>
      </trkpt>
      <trkpt lat="44.07763" lon="5.64768">
        <ele>1024</ele>
        <time>2000-01-01T08:06:18.000Z</time>
      </trkpt>
      <trkpt lat="44.0776" lon="5.64728">
        <ele>1031</ele>
        <time>2000-01-01T08:06:28.000Z</time>
      </trkpt>
      <trkpt lat="44.07754" lon="5.64665">
        <ele>1038</ele>
        <time>2000-01-01T08:06:38.000Z</time>
      </trkpt>
      <trkpt lat="44.07764" lon="5.6463">
        <ele>1038</ele>
        <time>2000-01-01T08:06:48.000Z</time>
      </trkpt>
      <trkpt lat="44.07776" lon="5.64584">
        <ele>1039</ele>
        <time>2000-01-01T08:06:58.000Z</time>
      </trkpt>
      <trkpt lat="44.07794" lon="5.64551">
        <ele>1044</ele>
        <time>2000-01-01T08:07:08.000Z</time>
      </trkpt>
      <trkpt lat="44.07822" lon="5.64498">
        <ele>1046</ele>
        <time>2000-01-01T08:07:18.000Z</time>
      </trkpt>
      <trkpt lat="44.07843" lon="5.64468">
        <ele>1047</ele>
        <time>2000-01-01T08:07:28.000Z</time>
      </trkpt>
      <trkpt lat="44.07876" lon="5.6445">
        <ele>1052</ele>
        <time>2000-01-01T08:07:38.000Z</time>
      </trkpt>
      <trkpt lat="44.07901" lon="5.64435">
        <ele>1053</ele>
        <time>2000-01-01T08:07:48.000Z</time>
      </trkpt>
      <trkpt lat="44.07932" lon="5.64416">
        <ele>1053</ele>
        <time>2000-01-01T08:07:58.000Z</time>
      </trkpt>
      <trkpt lat="44.07962" lon="5.64399">
        <ele>1053</ele>
        <time>2000-01-01T08:08:08.000Z</time>
      </trkpt>
      <trkpt lat="44.07952" lon="5.64354">
        <ele>1053</ele>
        <time>2000-01-01T08:08:18.000Z</time>
      </trkpt>
      <trkpt lat="44.07942" lon="5.64314">
        <ele>1058</ele>
        <time>2000-01-01T08:08:28.000Z</time>
      </trkpt>
      <trkpt lat="44.07935" lon="5.64282">
        <ele>1062</ele>
        <time>2000-01-01T08:08:38.000Z</time>
      </trkpt>
      <trkpt lat="44.07927" lon="5.64249">
        <ele>1068</ele>
        <time>2000-01-01T08:08:48.000Z</time>
      </trkpt>
      <trkpt lat="44.07919" lon="5.64214">
        <ele>1075</ele>
        <time>2000-01-01T08:08:58.000Z</time>
      </trkpt>
      <trkpt lat="44.0791" lon="5.64172">
        <ele>1083</ele>
        <time>2000-01-01T08:09:08.000Z</time>
      </trkpt>
      <trkpt lat="44.07877" lon="5.6415">
        <ele>1086</ele>
        <time>2000-01-01T08:09:18.000Z</time>
      </trkpt>
      <trkpt lat="44.07846" lon="5.6413">
        <ele>1087</ele>
        <time>2000-01-01T08:09:28.000Z</time>
      </trkpt>
      <trkpt lat="44.07816" lon="5.64111">
        <ele>1092</ele>
        <time>2000-01-01T08:09:38.000Z</time>
      </trkpt>
      <trkpt lat="44.07777" lon="5.64086">
        <ele>1102</ele>
        <time>2000-01-01T08:09:48.000Z</time>
      </trkpt>
      <trkpt lat="44.07741" lon="5.64069">
        <ele>1109</ele>
        <time>2000-01-01T08:09:58.000Z</time>
      </trkpt>
      <trkpt lat="44.07705" lon="5.64053">
        <ele>1114</ele>
        <time>2000-01-01T08:10:08.000Z</time>
      </trkpt>
      <trkpt lat="44.07669" lon="5.64036">
        <ele>1123</ele>
        <time>2000-01-01T08:10:18.000Z</time>
      </trkpt>
      <trkpt lat="44.07643" lon="5.64024">
        <ele>1126</ele>
        <time>2000-01-01T08:10:28.000Z</time>
      </trkpt>
      <trkpt lat="44.0761" lon="5.64009">
        <ele>1127</ele>
        <time>2000-01-01T08:10:38.000Z</time>
      </trkpt>
      <trkpt lat="44.07582" lon="5.64013">
        <ele>1129</ele>
        <time>2000-01-01T08:10:48.000Z</time>
      </trkpt>
      <trkpt lat="44.07541" lon="5.64019">
        <ele>1129</ele>
        <time>2000-01-01T08:10:58.000Z</time>
      </trkpt>
      <trkpt lat="44.07513" lon="5.64024">
        <ele>1129</ele>
        <time>2000-01-01T08:11:08.000Z</time>
      </trkpt>
      <trkpt lat="44.07474" lon="5.6403">
        <ele>1130</ele>
        <time>2000-01-01T08:11:18.000Z</time>
      </trkpt>
      <trkpt lat="44.07441" lon="5.64043">
        <ele>1131</ele>
        <time>2000-01-01T08:11:28.000Z</time>
      </trkpt>
      <trkpt lat="44.07409" lon="5.64056">
        <ele>1132</ele>
        <time>2000-01-01T08:11:38.000Z</time>
      </trkpt>
      <trkpt lat="44.07366" lon="5.64073">
        <ele>1132</ele>
        <time>2000-01-01T08:11:48.000Z</time>
      </trkpt>
      <trkpt lat="44.07341" lon="5.64082">
        <ele>1132</ele>
        <time>2000-01-01T08:11:58.000Z</time>
      </trkpt>
      <trkpt lat="44.07311" lon="5.64092">
        <ele>1132</ele>
        <time>2000-01-01T08:12:08.000Z</time>
      </trkpt>
      <trkpt lat="44.07271" lon="5.64107">
        <ele>1131</ele>
        <time>2000-01-01T08:12:18.000Z</time>
      </trkpt>
      <trkpt lat="44.07239" lon="5.64116">
        <ele>1128</ele>
        <time>2000-01-01T08:12:28.000Z</time>
      </trkpt>
      <trkpt lat="44.07206" lon="5.64126">
        <ele>1125</ele>
        <time>2000-01-01T08:12:38.000Z</time>
      </trkpt>
      <trkpt lat="44.07169" lon="5.64137">
        <ele>1120</ele>
        <time>2000-01-01T08:12:48.000Z</time>
      </trkpt>
      <trkpt lat="44.07143" lon="5.64143">
        <ele>1117</ele>
        <time>2000-01-01T08:12:58.000Z</time>
      </trkpt>
      <trkpt lat="44.07116" lon="5.6415">
        <ele>1112</ele>
        <time>2000-01-01T08:13:08.000Z</time>
      </trkpt>
      <trkpt lat="44.07083" lon="5.64159">
        <ele>1107</ele>
        <time>2000-01-01T08:13:18.000Z</time>
      </trkpt>
      <trkpt lat="44.07056" lon="5.64163">
        <ele>1103</ele>
        <time>2000-01-01T08:13:28.000Z</time>
      </trkpt>
      <trkpt lat="44.07024" lon="5.64168">
        <ele>1099</ele>
        <time>2000-01-01T08:13:38.000Z</time>
      </trkpt>
      <trkpt lat="44.06998" lon="5.6415">
        <ele>1092</ele>
        <time>2000-01-01T08:13:48.000Z</time>
      </trkpt>
      <trkpt lat="44.06962" lon="5.64125">
        <ele>1092</ele>
        <time>2000-01-01T08:13:58.000Z</time>
      </trkpt>
      <trkpt lat="44.06943" lon="5.64099">
        <ele>1089</ele>
        <time>2000-01-01T08:14:08.000Z</time>
      </trkpt>
      <trkpt lat="44.06919" lon="5.64069">
        <ele>1089</ele>
        <time>2000-01-01T08:14:18.000Z</time>
      </trkpt>
      <trkpt lat="44.06897" lon="5.64048">
        <ele>1089</ele>
        <time>2000-01-01T08:14:28.000Z</time>
      </trkpt>
      <trkpt lat="44.0687" lon="5.64022">
        <ele>1093</ele>
        <time>2000-01-01T08:14:38.000Z</time>
      </trkpt>
      <trkpt lat="44.06844" lon="5.6401">
        <ele>1098</ele>
        <time>2000-01-01T08:14:48.000Z</time>
      </trkpt>
      <trkpt lat="44.06809" lon="5.63994">
        <ele>1098</ele>
        <time>2000-01-01T08:14:58.000Z</time>
      </trkpt>
      <trkpt lat="44.06782" lon="5.63987">
        <ele>1096</ele>
        <time>2000-01-01T08:15:08.000Z</time>
      </trkpt>
      <trkpt lat="44.06746" lon="5.63979">
        <ele>1095</ele>
        <time>2000-01-01T08:15:18.000Z</time>
      </trkpt>
      <trkpt lat="44.0672" lon="5.6398">
        <ele>1088</ele>
        <time>2000-01-01T08:15:28.000Z</time>
      </trkpt>
      <trkpt lat="44.06688" lon="5.63982">
        <ele>1080</ele>
        <time>2000-01-01T08:15:38.000Z</time>
      </trkpt>
      <trkpt lat="44.06663" lon="5.63991">
        <ele>1078</ele>
        <time>2000-01-01T08:15:48.000Z</time>
      </trkpt>
      <trkpt lat="44.06636" lon="5.64001">
        <ele>1078</ele>
        <time>2000-01-01T08:15:58.000Z</time>
      </trkpt>
      <trkpt lat="44.06611" lon="5.64006">
        <ele>1079</ele>
        <time>2000-01-01T08:16:08.000Z</time>
      </trkpt>
      <trkpt lat="44.06582" lon="5.64012">
        <ele>1083</ele>
        <time>2000-01-01T08:16:18.000Z</time>
      </trkpt>
      <trkpt lat="44.06556" lon="5.64009">
        <ele>1085</ele>
        <time>2000-01-01T08:16:28.000Z</time>
      </trkpt>
      <trkpt lat="44.06528" lon="5.64006">
        <ele>1086</ele>
        <time>2000-01-01T08:16:38.000Z</time>
      </trkpt>
      <trkpt lat="44.06492" lon="5.63993">
        <ele>1088</ele>
        <time>2000-01-01T08:16:48.000Z</time>
      </trkpt>
      <trkpt lat="44.06462" lon="5.63978">
        <ele>1088</ele>
        <time>2000-01-01T08:16:58.000Z</time>
      </trkpt>
      <trkpt lat="44.06437" lon="5.63965">
        <ele>1088</ele>
        <time>2000-01-01T08:17:08.000Z</time>
      </trkpt>
      <trkpt lat="44.06405" lon="5.63949">
        <ele>1087</ele>
        <time>2000-01-01T08:17:18.000Z</time>
      </trkpt>
      <trkpt lat="44.06369" lon="5.63941">
        <ele>1086</ele>
        <time>2000-01-01T08:17:28.000Z</time>
      </trkpt>
      <trkpt lat="44.06346" lon="5.6393">
        <ele>1085</ele>
        <time>2000-01-01T08:17:38.000Z</time>
      </trkpt>
      <trkpt lat="44.063" lon="5.63913">
        <ele>1082</ele>
        <time>2000-01-01T08:17:48.000Z</time>
      </trkpt>
      <trkpt lat="44.06281" lon="5.63904">
        <ele>1082</ele>
        <time>2000-01-01T08:17:58.000Z</time>
      </trkpt>
      <trkpt lat="44.0625" lon="5.63894">
        <ele>1080</ele>
        <time>2000-01-01T08:18:08.000Z</time>
      </trkpt>
      <trkpt lat="44.06213" lon="5.63888">
        <ele>1079</ele>
        <time>2000-01-01T08:18:18.000Z</time>
      </trkpt>
      <trkpt lat="44.0619" lon="5.63875">
        <ele>1079</ele>
        <time>2000-01-01T08:18:28.000Z</time>
      </trkpt>
      <trkpt lat="44.06165" lon="5.63862">
        <ele>1079</ele>
        <time>2000-01-01T08:18:38.000Z</time>
      </trkpt>
      <trkpt lat="44.06141" lon="5.63851">
        <ele>1080</ele>
        <time>2000-01-01T08:18:48.000Z</time>
      </trkpt>
      <trkpt lat="44.06102" lon="5.63842">
        <ele>1083</ele>
        <time>2000-01-01T08:18:58.000Z</time>
      </trkpt>
      <trkpt lat="44.06058" lon="5.63833">
        <ele>1083</ele>
        <time>2000-01-01T08:19:08.000Z</time>
      </trkpt>
      <trkpt lat="44.06019" lon="5.6382">
        <ele>1083</ele>
        <time>2000-01-01T08:19:18.000Z</time>
      </trkpt>
      <trkpt lat="44.05979" lon="5.63812">
        <ele>1083</ele>
        <time>2000-01-01T08:19:28.000Z</time>
      </trkpt>
      <trkpt lat="44.0595" lon="5.63801">
        <ele>1082</ele>
        <time>2000-01-01T08:19:38.000Z</time>
      </trkpt>
      <trkpt lat="44.05916" lon="5.63799">
        <ele>1081</ele>
        <time>2000-01-01T08:19:48.000Z</time>
      </trkpt>
      <trkpt lat="44.05882" lon="5.63795">
        <ele>1081</ele>
        <time>2000-01-01T08:19:58.000Z</time>
      </trkpt>
      <trkpt lat="44.05854" lon="5.63786">
        <ele>1080</ele>
        <time>2000-01-01T08:20:08.000Z</time>
      </trkpt>
      <trkpt lat="44.05836" lon="5.63786">
        <ele>1079.2</ele>
        <time>2000-01-01T08:20:18.000Z</time>
      </trkpt>
      <trkpt lat="44.05779" lon="5.63754">
        <ele>1072</ele>
        <time>2000-01-01T08:20:28.000Z</time>
      </trkpt>
      <trkpt lat="44.05754" lon="5.63756">
        <ele>1071</ele>
        <time>2000-01-01T08:20:38.000Z</time>
      </trkpt>
      <trkpt lat="44.05723" lon="5.63754">
        <ele>1067</ele>
        <time>2000-01-01T08:20:48.000Z</time>
      </trkpt>
      <trkpt lat="44.05689" lon="5.63746">
        <ele>1066</ele>
        <time>2000-01-01T08:20:58.000Z</time>
      </trkpt>
      <trkpt lat="44.05657" lon="5.63742">
        <ele>1066</ele>
        <time>2000-01-01T08:21:08.000Z</time>
      </trkpt>
      <trkpt lat="44.05631" lon="5.63726">
        <ele>1066</ele>
        <time>2000-01-01T08:21:18.000Z</time>
      </trkpt>
      <trkpt lat="44.05598" lon="5.63714">
        <ele>1072</ele>
        <time>2000-01-01T08:21:28.000Z</time>
      </trkpt>
      <trkpt lat="44.05572" lon="5.63707">
        <ele>1074</ele>
        <time>2000-01-01T08:21:38.000Z</time>
      </trkpt>
      <trkpt lat="44.05552" lon="5.63688">
        <ele>1076</ele>
        <time>2000-01-01T08:21:48.000Z</time>
      </trkpt>
      <trkpt lat="44.05527" lon="5.63673">
        <ele>1080</ele>
        <time>2000-01-01T08:21:58.000Z</time>
      </trkpt>
      <trkpt lat="44.05495" lon="5.63653">
        <ele>1084</ele>
        <time>2000-01-01T08:22:08.000Z</time>
      </trkpt>
      <trkpt lat="44.05476" lon="5.63642">
        <ele>1087</ele>
        <time>2000-01-01T08:22:18.000Z</time>
      </trkpt>
      <trkpt lat="44.05441" lon="5.63637">
        <ele>1088</ele>
        <time>2000-01-01T08:22:28.000Z</time>
      </trkpt>
      <trkpt lat="44.05417" lon="5.63621">
        <ele>1090</ele>
        <time>2000-01-01T08:22:38.000Z</time>
      </trkpt>
      <trkpt lat="44.05387" lon="5.63602">
        <ele>1091</ele>
        <time>2000-01-01T08:22:48.000Z</time>
      </trkpt>
      <trkpt lat="44.05359" lon="5.63585">
        <ele>1092</ele>
        <time>2000-01-01T08:22:58.000Z</time>
      </trkpt>
      <trkpt lat="44.05336" lon="5.6357">
        <ele>1092</ele>
        <time>2000-01-01T08:23:08.000Z</time>
      </trkpt>
      <trkpt lat="44.0531" lon="5.63555">
        <ele>1090</ele>
        <time>2000-01-01T08:23:18.000Z</time>
      </trkpt>
      <trkpt lat="44.05275" lon="5.63557">
        <ele>1087</ele>
        <time>2000-01-01T08:23:28.000Z</time>
      </trkpt>
      <trkpt lat="44.05244" lon="5.63564">
        <ele>1083</ele>
        <time>2000-01-01T08:23:38.000Z</time>
      </trkpt>
      <trkpt lat="44.05223" lon="5.6355">
        <ele>1080</ele>
        <time>2000-01-01T08:23:48.000Z</time>
      </trkpt>
      <trkpt lat="44.05188" lon="5.63534">
        <ele>1074</ele>
        <time>2000-01-01T08:23:58.000Z</time>
      </trkpt>
      <trkpt lat="44.0516" lon="5.63554">
        <ele>1073</ele>
        <time>2000-01-01T08:24:08.000Z</time>
      </trkpt>
      <trkpt lat="44.05126" lon="5.63558">
        <ele>1072</ele>
        <time>2000-01-01T08:24:18.000Z</time>
      </trkpt>
      <trkpt lat="44.05097" lon="5.6355">
        <ele>1072</ele>
        <time>2000-01-01T08:24:28.000Z</time>
      </trkpt>
      <trkpt lat="44.05069" lon="5.6355">
        <ele>1069</ele>
        <time>2000-01-01T08:24:38.000Z</time>
      </trkpt>
      <trkpt lat="44.05051" lon="5.63536">
        <ele>1066</ele>
        <time>2000-01-01T08:24:48.000Z</time>
      </trkpt>
      <trkpt lat="44.05035" lon="5.63552">
        <ele>1060</ele>
        <time>2000-01-01T08:24:58.000Z</time>
      </trkpt>
      <trkpt lat="44.05009" lon="5.63531">
        <ele>1049</ele>
        <time>2000-01-01T08:25:08.000Z</time>
      </trkpt>
      <trkpt lat="44.04967" lon="5.63499">
        <ele>1034</ele>
        <time>2000-01-01T08:25:18.000Z</time>
      </trkpt>
      <trkpt lat="44.04938" lon="5.635">
        <ele>1023</ele>
        <time>2000-01-01T08:25:28.000Z</time>
      </trkpt>
      <trkpt lat="44.04914" lon="5.63481">
        <ele>1016</ele>
        <time>2000-01-01T08:25:38.000Z</time>
      </trkpt>
      <trkpt lat="44.0488" lon="5.63454">
        <ele>999</ele>
        <time>2000-01-01T08:25:48.000Z</time>
      </trkpt>
      <trkpt lat="44.04861" lon="5.63494">
        <ele>990</ele>
        <time>2000-01-01T08:25:58.000Z</time>
      </trkpt>
      <trkpt lat="44.04846" lon="5.63528">
        <ele>985</ele>
        <time>2000-01-01T08:26:08.000Z</time>
      </trkpt>
      <trkpt lat="44.04823" lon="5.63522">
        <ele>974</ele>
        <time>2000-01-01T08:26:18.000Z</time>
      </trkpt>
      <trkpt lat="44.04812" lon="5.63494">
        <ele>971</ele>
        <time>2000-01-01T08:26:28.000Z</time>
      </trkpt>
      <trkpt lat="44.04815" lon="5.63447">
        <ele>969</ele>
        <time>2000-01-01T08:26:38.000Z</time>
      </trkpt>
      <trkpt lat="44.04803" lon="5.63401">
        <ele>963</ele>
        <time>2000-01-01T08:26:48.000Z</time>
      </trkpt>
      <trkpt lat="44.04795" lon="5.63356">
        <ele>958</ele>
        <time>2000-01-01T08:26:58.000Z</time>
      </trkpt>
      <trkpt lat="44.04783" lon="5.63305">
        <ele>953</ele>
        <time>2000-01-01T08:27:08.000Z</time>
      </trkpt>
      <trkpt lat="44.04767" lon="5.63256">
        <ele>948</ele>
        <time>2000-01-01T08:27:18.000Z</time>
      </trkpt>
      <trkpt lat="44.04758" lon="5.63222">
        <ele>948</ele>
        <time>2000-01-01T08:27:28.000Z</time>
      </trkpt>
      <trkpt lat="44.04747" lon="5.63183">
        <ele>949</ele>
        <time>2000-01-01T08:27:38.000Z</time>
      </trkpt>
      <trkpt lat="44.04733" lon="5.63152">
        <ele>950</ele>
        <time>2000-01-01T08:27:48.000Z</time>
      </trkpt>
      <trkpt lat="44.04716" lon="5.63114">
        <ele>951</ele>
        <time>2000-01-01T08:27:58.000Z</time>
      </trkpt>
      <trkpt lat="44.04701" lon="5.63087">
        <ele>951</ele>
        <time>2000-01-01T08:28:08.000Z</time>
      </trkpt>
      <trkpt lat="44.04685" lon="5.63058">
        <ele>951</ele>
        <time>2000-01-01T08:28:18.000Z</time>
      </trkpt>
      <trkpt lat="44.04661" lon="5.63007">
        <ele>949</ele>
        <time>2000-01-01T08:28:28.000Z</time>
      </trkpt>
      <trkpt lat="44.0463" lon="5.62974">
        <ele>943</ele>
        <time>2000-01-01T08:28:38.000Z</time>
      </trkpt>
      <trkpt lat="44.04597" lon="5.62962">
        <ele>940</ele>
        <time>2000-01-01T08:28:48.000Z</time>
      </trkpt>
      <trkpt lat="44.04568" lon="5.62951">
        <ele>936</ele>
        <time>2000-01-01T08:28:58.000Z</time>
      </trkpt>
      <trkpt lat="44.04544" lon="5.62941">
        <ele>933</ele>
        <time>2000-01-01T08:29:08.000Z</time>
      </trkpt>
      <trkpt lat="44.04519" lon="5.62932">
        <ele>929</ele>
        <time>2000-01-01T08:29:18.000Z</time>
      </trkpt>
      <trkpt lat="44.04487" lon="5.62917">
        <ele>923</ele>
        <time>2000-01-01T08:29:28.000Z</time>
      </trkpt>
      <trkpt lat="44.04453" lon="5.62895">
        <ele>917</ele>
        <time>2000-01-01T08:29:38.000Z</time>
      </trkpt>
      <trkpt lat="44.04414" lon="5.62886">
        <ele>907</ele>
        <time>2000-01-01T08:29:48.000Z</time>
      </trkpt>
      <trkpt lat="44.0439" lon="5.62883">
        <ele>900</ele>
        <time>2000-01-01T08:29:58.000Z</time>
      </trkpt>
      <trkpt lat="44.04365" lon="5.6288">
        <ele>897</ele>
        <time>2000-01-01T08:30:08.000Z</time>
      </trkpt>
      <trkpt lat="44.04335" lon="5.62878">
        <ele>888</ele>
        <time>2000-01-01T08:30:18.000Z</time>
      </trkpt>
      <trkpt lat="44.04287" lon="5.62874">
        <ele>874</ele>
        <time>2000-01-01T08:30:28.000Z</time>
      </trkpt>
      <trkpt lat="44.04259" lon="5.62876">
        <ele>865</ele>
        <time>2000-01-01T08:30:38.000Z</time>
      </trkpt>
      <trkpt lat="44.04218" lon="5.6288">
        <ele>852</ele>
        <time>2000-01-01T08:30:48.000Z</time>
      </trkpt>
      <trkpt lat="44.04189" lon="5.62872">
        <ele>843</ele>
        <time>2000-01-01T08:30:58.000Z</time>
      </trkpt>
      <trkpt lat="44.04145" lon="5.62861">
        <ele>837</ele>
        <time>2000-01-01T08:31:08.000Z</time>
      </trkpt>
      <trkpt lat="44.04118" lon="5.62851">
        <ele>836</ele>
        <time>2000-01-01T08:31:18.000Z</time>
      </trkpt>
      <trkpt lat="44.04082" lon="5.62837">
        <ele>835</ele>
        <time>2000-01-01T08:31:28.000Z</time>
      </trkpt>
      <trkpt lat="44.0405" lon="5.62824">
        <ele>833</ele>
        <time>2000-01-01T08:31:38.000Z</time>
      </trkpt>
      <trkpt lat="44.04016" lon="5.6279">
        <ele>831</ele>
        <time>2000-01-01T08:31:48.000Z</time>
      </trkpt>
      <trkpt lat="44.03991" lon="5.62781">
        <ele>822</ele>
        <time>2000-01-01T08:31:58.000Z</time>
      </trkpt>
      <trkpt lat="44.03965" lon="5.62773">
        <ele>816</ele>
        <time>2000-01-01T08:32:08.000Z</time>
      </trkpt>
      <trkpt lat="44.03932" lon="5.62762">
        <ele>809</ele>
        <time>2000-01-01T08:32:18.000Z</time>
      </trkpt>
      <trkpt lat="44.03917" lon="5.62794">
        <ele>802</ele>
        <time>2000-01-01T08:32:28.000Z</time>
      </trkpt>
      <trkpt lat="44.03896" lon="5.62838">
        <ele>798</ele>
        <time>2000-01-01T08:32:38.000Z</time>
      </trkpt>
      <trkpt lat="44.03875" lon="5.6288">
        <ele>794</ele>
        <time>2000-01-01T08:32:48.000Z</time>
      </trkpt>
      <trkpt lat="44.03835" lon="5.62874">
        <ele>792</ele>
        <time>2000-01-01T08:32:58.000Z</time>
      </trkpt>
      <trkpt lat="44.03795" lon="5.62873">
        <ele>788</ele>
        <time>2000-01-01T08:33:08.000Z</time>
      </trkpt>
      <trkpt lat="44.03763" lon="5.62864">
        <ele>785</ele>
        <time>2000-01-01T08:33:18.000Z</time>
      </trkpt>
      <trkpt lat="44.03734" lon="5.62858">
        <ele>782</ele>
        <time>2000-01-01T08:33:28.000Z</time>
      </trkpt>
      <trkpt lat="44.03708" lon="5.6285">
        <ele>779</ele>
        <time>2000-01-01T08:33:38.000Z</time>
      </trkpt>
      <trkpt lat="44.03679" lon="5.6284">
        <ele>775</ele>
        <time>2000-01-01T08:33:48.000Z</time>
      </trkpt>
      <trkpt lat="44.03658" lon="5.6283">
        <ele>774</ele>
        <time>2000-01-01T08:33:58.000Z</time>
      </trkpt>
      <trkpt lat="44.03635" lon="5.62827">
        <ele>772</ele>
        <time>2000-01-01T08:34:08.000Z</time>
      </trkpt>
      <trkpt lat="44.03622" lon="5.6281">
        <ele>771.1</ele>
        <time>2000-01-01T08:34:18.000Z</time>
      </trkpt>
      <trkpt lat="44.03606" lon="5.62794">
        <ele>769</ele>
        <time>2000-01-01T08:34:28.000Z</time>
      </trkpt>
      <trkpt lat="44.03598" lon="5.62766">
        <ele>769</ele>
        <time>2000-01-01T08:34:38.000Z</time>
      </trkpt>
      <trkpt lat="44.03583" lon="5.62726">
        <ele>769</ele>
        <time>2000-01-01T08:34:48.000Z</time>
      </trkpt>
      <trkpt lat="44.0358" lon="5.62694">
        <ele>769</ele>
        <time>2000-01-01T08:34:58.000Z</time>
      </trkpt>
      <trkpt lat="44.03599" lon="5.62653">
        <ele>769</ele>
        <time>2000-01-01T08:35:08.000Z</time>
      </trkpt>
      <trkpt lat="44.03619" lon="5.62623">
        <ele>769</ele>
        <time>2000-01-01T08:35:18.000Z</time>
      </trkpt>
      <trkpt lat="44.03634" lon="5.6259">
        <ele>771</ele>
        <time>2000-01-01T08:35:28.000Z</time>
      </trkpt>
      <trkpt lat="44.03654" lon="5.62547">
        <ele>774</ele>
        <time>2000-01-01T08:35:38.000Z</time>
      </trkpt>
      <trkpt lat="44.03622" lon="5.62554">
        <ele>779</ele>
        <time>2000-01-01T08:35:48.000Z</time>
      </trkpt>
      <trkpt lat="44.03595" lon="5.6256">
        <ele>787</ele>
        <time>2000-01-01T08:35:58.000Z</time>
      </trkpt>
      <trkpt lat="44.03561" lon="5.62568">
        <ele>798</ele>
        <time>2000-01-01T08:36:08.000Z</time>
      </trkpt>
      <trkpt lat="44.03533" lon="5.62585">
        <ele>802</ele>
        <time>2000-01-01T08:36:18.000Z</time>
      </trkpt>
      <trkpt lat="44.03511" lon="5.626">
        <ele>799</ele>
        <time>2000-01-01T08:36:28.000Z</time>
      </trkpt>
      <trkpt lat="44.03487" lon="5.62615">
        <ele>801</ele>
        <time>2000-01-01T08:36:38.000Z</time>
      </trkpt>
      <trkpt lat="44.03463" lon="5.62601">
        <ele>803</ele>
        <time>2000-01-01T08:36:48.000Z</time>
      </trkpt>
      <trkpt lat="44.03435" lon="5.62585">
        <ele>805</ele>
        <time>2000-01-01T08:36:58.000Z</time>
      </trkpt>
      <trkpt lat="44.0341" lon="5.62591">
        <ele>805</ele>
        <time>2000-01-01T08:37:08.000Z</time>
      </trkpt>
      <trkpt lat="44.03385" lon="5.62598">
        <ele>806</ele>
        <time>2000-01-01T08:37:18.000Z</time>
      </trkpt>
      <trkpt lat="44.03362" lon="5.62582">
        <ele>809</ele>
        <time>2000-01-01T08:37:28.000Z</time>
      </trkpt>
      <trkpt lat="44.03336" lon="5.62563">
        <ele>815</ele>
        <time>2000-01-01T08:37:38.000Z</time>
      </trkpt>
      <trkpt lat="44.03308" lon="5.6255">
        <ele>819</ele>
        <time>2000-01-01T08:37:48.000Z</time>
      </trkpt>
      <trkpt lat="44.03274" lon="5.62512">
        <ele>827</ele>
        <time>2000-01-01T08:37:58.000Z</time>
      </trkpt>
      <trkpt lat="44.03251" lon="5.62501">
        <ele>828</ele>
        <time>2000-01-01T08:38:08.000Z</time>
      </trkpt>
      <trkpt lat="44.03228" lon="5.6249">
        <ele>830</ele>
        <time>2000-01-01T08:38:18.000Z</time>
      </trkpt>
      <trkpt lat="44.03215" lon="5.62465">
        <ele>829</ele>
        <time>2000-01-01T08:38:28.000Z</time>
      </trkpt>
      <trkpt lat="44.03195" lon="5.62488">
        <ele>828</ele>
        <time>2000-01-01T08:38:38.000Z</time>
      </trkpt>
      <trkpt lat="44.0317" lon="5.62475">
        <ele>827</ele>
        <time>2000-01-01T08:38:48.000Z</time>
      </trkpt>
      <trkpt lat="44.03139" lon="5.62458">
        <ele>825</ele>
        <time>2000-01-01T08:38:58.000Z</time>
      </trkpt>
      <trkpt lat="44.0312" lon="5.62428">
        <ele>824</ele>
        <time>2000-01-01T08:39:08.000Z</time>
      </trkpt>
      <trkpt lat="44.03093" lon="5.62385">
        <ele>820</ele>
        <time>2000-01-01T08:39:18.000Z</time>
      </trkpt>
      <trkpt lat="44.03078" lon="5.62355">
        <ele>815</ele>
        <time>2000-01-01T08:39:28.000Z</time>
      </trkpt>
      <trkpt lat="44.03062" lon="5.62321">
        <ele>810</ele>
        <time>2000-01-01T08:39:38.000Z</time>
      </trkpt>
      <trkpt lat="44.03045" lon="5.62292">
        <ele>805</ele>
        <time>2000-01-01T08:39:48.000Z</time>
      </trkpt>
      <trkpt lat="44.03025" lon="5.62257">
        <ele>801</ele>
        <time>2000-01-01T08:39:58.000Z</time>
      </trkpt>
      <trkpt lat="44.03003" lon="5.62227">
        <ele>797</ele>
        <time>2000-01-01T08:40:08.000Z</time>
      </trkpt>
      <trkpt lat="44.02969" lon="5.62218">
        <ele>790</ele>
        <time>2000-01-01T08:40:18.000Z</time>
      </trkpt>
      <trkpt lat="44.02945" lon="5.62198">
        <ele>785</ele>
        <time>2000-01-01T08:40:28.000Z</time>
      </trkpt>
      <trkpt lat="44.02914" lon="5.62171">
        <ele>778</ele>
        <time>2000-01-01T08:40:38.000Z</time>
      </trkpt>
      <trkpt lat="44.02874" lon="5.62158">
        <ele>773</ele>
        <time>2000-01-01T08:40:48.000Z</time>
      </trkpt>
      <trkpt lat="44.02858" lon="5.62122">
        <ele>767</ele>
        <time>2000-01-01T08:40:58.000Z</time>
      </trkpt>
      <trkpt lat="44.02846" lon="5.62093">
        <ele>760</ele>
        <time>2000-01-01T08:41:08.000Z</time>
      </trkpt>
      <trkpt lat="44.02834" lon="5.62063">
        <ele>754</ele>
        <time>2000-01-01T08:41:18.000Z</time>
      </trkpt>
      <trkpt lat="44.02812" lon="5.62063">
        <ele>752</ele>
        <time>2000-01-01T08:41:28.000Z</time>
      </trkpt>
      <trkpt lat="44.02787" lon="5.62046">
        <ele>746</ele>
        <time>2000-01-01T08:41:38.000Z</time>
      </trkpt>
      <trkpt lat="44.0278" lon="5.6201">
        <ele>744</ele>
        <time>2000-01-01T08:41:48.000Z</time>
      </trkpt>
      <trkpt lat="44.02772" lon="5.61965">
        <ele>743</ele>
        <time>2000-01-01T08:41:58.000Z</time>
      </trkpt>
      <trkpt lat="44.02752" lon="5.6194">
        <ele>741</ele>
        <time>2000-01-01T08:42:08.000Z</time>
      </trkpt>
      <trkpt lat="44.02726" lon="5.61908">
        <ele>738</ele>
        <time>2000-01-01T08:42:18.000Z</time>
      </trkpt>
      <trkpt lat="44.02684" lon="5.61876">
        <ele>733</ele>
        <time>2000-01-01T08:42:28.000Z</time>
      </trkpt>
      <trkpt lat="44.02669" lon="5.61848">
        <ele>733</ele>
        <time>2000-01-01T08:42:38.000Z</time>
      </trkpt>
      <trkpt lat="44.02652" lon="5.61819">
        <ele>733</ele>
        <time>2000-01-01T08:42:48.000Z</time>
      </trkpt>
      <trkpt lat="44.02633" lon="5.61795">
        <ele>731</ele>
        <time>2000-01-01T08:42:58.000Z</time>
      </trkpt>
      <trkpt lat="44.02611" lon="5.61767">
        <ele>728</ele>
        <time>2000-01-01T08:43:08.000Z</time>
      </trkpt>
      <trkpt lat="44.02587" lon="5.61744">
        <ele>724</ele>
        <time>2000-01-01T08:43:18.000Z</time>
      </trkpt>
      <trkpt lat="44.02553" lon="5.61712">
        <ele>720</ele>
        <time>2000-01-01T08:43:28.000Z</time>
      </trkpt>
      <trkpt lat="44.02516" lon="5.61673">
        <ele>712</ele>
        <time>2000-01-01T08:43:38.000Z</time>
      </trkpt>
      <trkpt lat="44.02503" lon="5.61634">
        <ele>707</ele>
        <time>2000-01-01T08:43:48.000Z</time>
      </trkpt>
      <trkpt lat="44.02491" lon="5.61591">
        <ele>701</ele>
        <time>2000-01-01T08:43:58.000Z</time>
      </trkpt>
      <trkpt lat="44.02491" lon="5.61553">
        <ele>701</ele>
        <time>2000-01-01T08:44:08.000Z</time>
      </trkpt>
      <trkpt lat="44.02466" lon="5.61523">
        <ele>701</ele>
        <time>2000-01-01T08:44:18.000Z</time>
      </trkpt>
      <trkpt lat="44.02466" lon="5.61488">
        <ele>705</ele>
        <time>2000-01-01T08:44:28.000Z</time>
      </trkpt>
      <trkpt lat="44.02451" lon="5.61437">
        <ele>711</ele>
        <time>2000-01-01T08:44:38.000Z</time>
      </trkpt>
      <trkpt lat="44.02416" lon="5.61432">
        <ele>711</ele>
        <time>2000-01-01T08:44:48.000Z</time>
      </trkpt>
      <trkpt lat="44.02381" lon="5.61428">
        <ele>712</ele>
        <time>2000-01-01T08:44:58.000Z</time>
      </trkpt>
      <trkpt lat="44.02354" lon="5.61424">
        <ele>712</ele>
        <time>2000-01-01T08:45:08.000Z</time>
      </trkpt>
      <trkpt lat="44.02321" lon="5.6142">
        <ele>712</ele>
        <time>2000-01-01T08:45:18.000Z</time>
      </trkpt>
      <trkpt lat="44.02335" lon="5.61382">
        <ele>713</ele>
        <time>2000-01-01T08:45:28.000Z</time>
      </trkpt>
      <trkpt lat="44.02347" lon="5.61352">
        <ele>715</ele>
        <time>2000-01-01T08:45:38.000Z</time>
      </trkpt>
      <trkpt lat="44.02358" lon="5.61321">
        <ele>718</ele>
        <time>2000-01-01T08:45:48.000Z</time>
      </trkpt>
      <trkpt lat="44.0235" lon="5.61282">
        <ele>721</ele>
        <time>2000-01-01T08:45:58.000Z</time>
      </trkpt>
      <trkpt lat="44.02337" lon="5.61222">
        <ele>727</ele>
        <time>2000-01-01T08:46:08.000Z</time>
      </trkpt>
      <trkpt lat="44.02325" lon="5.61184">
        <ele>732</ele>
        <time>2000-01-01T08:46:18.000Z</time>
      </trkpt>
      <trkpt lat="44.02305" lon="5.61124">
        <ele>735</ele>
        <time>2000-01-01T08:46:28.000Z</time>
      </trkpt>
      <trkpt lat="44.02278" lon="5.61114">
        <ele>738</ele>
        <time>2000-01-01T08:46:38.000Z</time>
      </trkpt>
      <trkpt lat="44.0224" lon="5.61099">
        <ele>741</ele>
        <time>2000-01-01T08:46:48.000Z</time>
      </trkpt>
      <trkpt lat="44.02215" lon="5.61095">
        <ele>741</ele>
        <time>2000-01-01T08:46:58.000Z</time>
      </trkpt>
      <trkpt lat="44.02188" lon="5.6109">
        <ele>741</ele>
        <time>2000-01-01T08:47:08.000Z</time>
      </trkpt>
      <trkpt lat="44.02155" lon="5.6109">
        <ele>740</ele>
        <time>2000-01-01T08:47:18.000Z</time>
      </trkpt>
      <trkpt lat="44.02122" lon="5.6109">
        <ele>739</ele>
        <time>2000-01-01T08:47:28.000Z</time>
      </trkpt>
      <trkpt lat="44.02086" lon="5.6109">
        <ele>736</ele>
        <time>2000-01-01T08:47:38.000Z</time>
      </trkpt>
      <trkpt lat="44.02058" lon="5.61082">
        <ele>734</ele>
        <time>2000-01-01T08:47:48.000Z</time>
      </trkpt>
      <trkpt lat="44.02015" lon="5.61069">
        <ele>733</ele>
        <time>2000-01-01T08:47:58.000Z</time>
      </trkpt>
      <trkpt lat="44.01989" lon="5.61054">
        <ele>730</ele>
        <time>2000-01-01T08:48:08.000Z</time>
      </trkpt>
      <trkpt lat="44.01953" lon="5.61034">
        <ele>730</ele>
        <time>2000-01-01T08:48:18.000Z</time>
      </trkpt>
      <trkpt lat="44.0191" lon="5.61039">
        <ele>728</ele>
        <time>2000-01-01T08:48:28.000Z</time>
      </trkpt>
      <trkpt lat="44.01885" lon="5.61019">
        <ele>727</ele>
        <time>2000-01-01T08:48:38.000Z</time>
      </trkpt>
      <trkpt lat="44.01848" lon="5.60991">
        <ele>726</ele>
        <time>2000-01-01T08:48:48.000Z</time>
      </trkpt>
      <trkpt lat="44.01805" lon="5.60987">
        <ele>726</ele>
        <time>2000-01-01T08:48:58.000Z</time>
      </trkpt>
      <trkpt lat="44.01777" lon="5.60948">
        <ele>728</ele>
        <time>2000-01-01T08:49:08.000Z</time>
      </trkpt>
      <trkpt lat="44.01758" lon="5.60923">
        <ele>727</ele>
        <time>2000-01-01T08:49:18.000Z</time>
      </trkpt>
      <trkpt lat="44.01734" lon="5.60893">
        <ele>726</ele>
        <time>2000-01-01T08:49:28.000Z</time>
      </trkpt>
      <trkpt lat="44.01727" lon="5.60851">
        <ele>726</ele>
        <time>2000-01-01T08:49:38.000Z</time>
      </trkpt>
      <trkpt lat="44.01722" lon="5.60816">
        <ele>725</ele>
        <time>2000-01-01T08:49:48.000Z</time>
      </trkpt>
      <trkpt lat="44.01716" lon="5.60777">
        <ele>725</ele>
        <time>2000-01-01T08:49:58.000Z</time>
      </trkpt>
      <trkpt lat="44.01692" lon="5.60759">
        <ele>723</ele>
        <time>2000-01-01T08:50:08.000Z</time>
      </trkpt>
      <trkpt lat="44.01663" lon="5.60738">
        <ele>719</ele>
        <time>2000-01-01T08:50:18.000Z</time>
      </trkpt>
      <trkpt lat="44.01623" lon="5.60725">
        <ele>713</ele>
        <time>2000-01-01T08:50:28.000Z</time>
      </trkpt>
      <trkpt lat="44.01598" lon="5.60721">
        <ele>710</ele>
        <time>2000-01-01T08:50:38.000Z</time>
      </trkpt>
      <trkpt lat="44.01555" lon="5.60721">
        <ele>708</ele>
        <time>2000-01-01T08:50:48.000Z</time>
      </trkpt>
      <trkpt lat="44.01529" lon="5.60732">
        <ele>704</ele>
        <time>2000-01-01T08:50:58.000Z</time>
      </trkpt>
      <trkpt lat="44.01496" lon="5.60747">
        <ele>700</ele>
        <time>2000-01-01T08:51:08.000Z</time>
      </trkpt>
      <trkpt lat="44.01472" lon="5.60755">
        <ele>696</ele>
        <time>2000-01-01T08:51:18.000Z</time>
      </trkpt>
      <trkpt lat="44.0145" lon="5.60751">
        <ele>695</ele>
        <time>2000-01-01T08:51:28.000Z</time>
      </trkpt>
      <trkpt lat="44.01416" lon="5.60751">
        <ele>694</ele>
        <time>2000-01-01T08:51:38.000Z</time>
      </trkpt>
      <trkpt lat="44.01392" lon="5.6076">
        <ele>694</ele>
        <time>2000-01-01T08:51:48.000Z</time>
      </trkpt>
      <trkpt lat="44.0137" lon="5.60773">
        <ele>691</ele>
        <time>2000-01-01T08:51:58.000Z</time>
      </trkpt>
      <trkpt lat="44.01333" lon="5.60755">
        <ele>691</ele>
        <time>2000-01-01T08:52:08.000Z</time>
      </trkpt>
      <trkpt lat="44.01299" lon="5.60755">
        <ele>688</ele>
        <time>2000-01-01T08:52:18.000Z</time>
      </trkpt>
      <trkpt lat="44.01269" lon="5.60754">
        <ele>688</ele>
        <time>2000-01-01T08:52:28.000Z</time>
      </trkpt>
      <trkpt lat="44.01246" lon="5.60736">
        <ele>688</ele>
        <time>2000-01-01T08:52:38.000Z</time>
      </trkpt>
      <trkpt lat="44.01242" lon="5.60698">
        <ele>690</ele>
        <time>2000-01-01T08:52:48.000Z</time>
      </trkpt>
      <trkpt lat="44.01236" lon="5.60646">
        <ele>692</ele>
        <time>2000-01-01T08:52:58.000Z</time>
      </trkpt>
      <trkpt lat="44.01234" lon="5.60605">
        <ele>695</ele>
        <time>2000-01-01T08:53:08.000Z</time>
      </trkpt>
      <trkpt lat="44.01231" lon="5.60539">
        <ele>700</ele>
        <time>2000-01-01T08:53:18.000Z</time>
      </trkpt>
      <trkpt lat="44.01266" lon="5.60547">
        <ele>702</ele>
        <time>2000-01-01T08:53:28.000Z</time>
      </trkpt>
      <trkpt lat="44.01308" lon="5.60552">
        <ele>718</ele>
        <time>2000-01-01T08:53:38.000Z</time>
      </trkpt>
      <trkpt lat="44.01329" lon="5.60567">
        <ele>725</ele>
        <time>2000-01-01T08:53:48.000Z</time>
      </trkpt>
      <trkpt lat="44.01357" lon="5.60573">
        <ele>734</ele>
        <time>2000-01-01T08:53:58.000Z</time>
      </trkpt>
      <trkpt lat="44.01397" lon="5.60579">
        <ele>735</ele>
        <time>2000-01-01T08:54:08.000Z</time>
      </trkpt>
      <trkpt lat="44.01422" lon="5.60594">
        <ele>736</ele>
        <time>2000-01-01T08:54:18.000Z</time>
      </trkpt>
      <trkpt lat="44.0146" lon="5.60596">
        <ele>737</ele>
        <time>2000-01-01T08:54:28.000Z</time>
      </trkpt>
      <trkpt lat="44.01498" lon="5.60598">
        <ele>741</ele>
        <time>2000-01-01T08:54:38.000Z</time>
      </trkpt>
      <trkpt lat="44.01536" lon="5.606">
        <ele>747</ele>
        <time>2000-01-01T08:54:48.000Z</time>
      </trkpt>
      <trkpt lat="44.01563" lon="5.60601">
        <ele>747</ele>
        <time>2000-01-01T08:54:58.000Z</time>
      </trkpt>
      <trkpt lat="44.01598" lon="5.60603">
        <ele>751</ele>
        <time>2000-01-01T08:55:08.000Z</time>
      </trkpt>
      <trkpt lat="44.01634" lon="5.60606">
        <ele>759</ele>
        <time>2000-01-01T08:55:18.000Z</time>
      </trkpt>
      <trkpt lat="44.01671" lon="5.60608">
        <ele>765</ele>
        <time>2000-01-01T08:55:28.000Z</time>
      </trkpt>
      <trkpt lat="44.01699" lon="5.60609">
        <ele>768</ele>
        <time>2000-01-01T08:55:38.000Z</time>
      </trkpt>
      <trkpt lat="44.01736" lon="5.6061">
        <ele>773</ele>
        <time>2000-01-01T08:55:48.000Z</time>
      </trkpt>
      <trkpt lat="44.01765" lon="5.60612">
        <ele>782</ele>
        <time>2000-01-01T08:55:58.000Z</time>
      </trkpt>
      <trkpt lat="44.01808" lon="5.60614">
        <ele>797</ele>
        <time>2000-01-01T08:56:08.000Z</time>
      </trkpt>
      <trkpt lat="44.01844" lon="5.60617">
        <ele>810</ele>
        <time>2000-01-01T08:56:18.000Z</time>
      </trkpt>
      <trkpt lat="44.01872" lon="5.60618">
        <ele>821</ele>
        <time>2000-01-01T08:56:28.000Z</time>
      </trkpt>
      <trkpt lat="44.0191" lon="5.60621">
        <ele>830</ele>
        <time>2000-01-01T08:56:38.000Z</time>
      </trkpt>
      <trkpt lat="44.01939" lon="5.60622">
        <ele>839</ele>
        <time>2000-01-01T08:56:48.000Z</time>
      </trkpt>
      <trkpt lat="44.01985" lon="5.60625">
        <ele>856</ele>
        <time>2000-01-01T08:56:58.000Z</time>
      </trkpt>
      <trkpt lat="44.02022" lon="5.60626">
        <ele>865</ele>
        <time>2000-01-01T08:57:08.000Z</time>
      </trkpt>
      <trkpt lat="44.02047" lon="5.60628">
        <ele>868</ele>
        <time>2000-01-01T08:57:18.000Z</time>
      </trkpt>
      <trkpt lat="44.02073" lon="5.60629">
        <ele>872</ele>
        <time>2000-01-01T08:57:28.000Z</time>
      </trkpt>
      <trkpt lat="44.02114" lon="5.60637">
        <ele>878</ele>
        <time>2000-01-01T08:57:38.000Z</time>
      </trkpt>
      <trkpt lat="44.02155" lon="5.60644">
        <ele>883</ele>
        <time>2000-01-01T08:57:48.000Z</time>
      </trkpt>
      <trkpt lat="44.02196" lon="5.60652">
        <ele>886</ele>
        <time>2000-01-01T08:57:58.000Z</time>
      </trkpt>
      <trkpt lat="44.02237" lon="5.6066">
        <ele>888</ele>
        <time>2000-01-01T08:58:08.000Z</time>
      </trkpt>
      <trkpt lat="44.02279" lon="5.60668">
        <ele>894</ele>
        <time>2000-01-01T08:58:18.000Z</time>
      </trkpt>
      <trkpt lat="44.02309" lon="5.60673">
        <ele>894</ele>
        <time>2000-01-01T08:58:28.000Z</time>
      </trkpt>
      <trkpt lat="44.02334" lon="5.60678">
        <ele>898</ele>
        <time>2000-01-01T08:58:38.000Z</time>
      </trkpt>
      <trkpt lat="44.0236" lon="5.60683">
        <ele>899</ele>
        <time>2000-01-01T08:58:48.000Z</time>
      </trkpt>
      <trkpt lat="44.02392" lon="5.60681">
        <ele>899</ele>
        <time>2000-01-01T08:58:58.000Z</time>
      </trkpt>
      <trkpt lat="44.02421" lon="5.60665">
        <ele>900</ele>
        <time>2000-01-01T08:59:08.000Z</time>
      </trkpt>
      <trkpt lat="44.02458" lon="5.60657">
        <ele>901</ele>
        <time>2000-01-01T08:59:18.000Z</time>
      </trkpt>
      <trkpt lat="44.02498" lon="5.6065">
        <ele>902</ele>
        <time>2000-01-01T08:59:28.000Z</time>
      </trkpt>
      <trkpt lat="44.02528" lon="5.60657">
        <ele>906</ele>
        <time>2000-01-01T08:59:38.000Z</time>
      </trkpt>
      <trkpt lat="44.02554" lon="5.60655">
        <ele>908</ele>
        <time>2000-01-01T08:59:48.000Z</time>
      </trkpt>
      <trkpt lat="44.02593" lon="5.60669">
        <ele>910</ele>
        <time>2000-01-01T08:59:58.000Z</time>
      </trkpt>
      <trkpt lat="44.02626" lon="5.60668">
        <ele>911</ele>
        <time>2000-01-01T09:00:08.000Z</time>
      </trkpt>
      <trkpt lat="44.02659" lon="5.60666">
        <ele>911</ele>
        <time>2000-01-01T09:00:18.000Z</time>
      </trkpt>
      <trkpt lat="44.02698" lon="5.60668">
        <ele>911</ele>
        <time>2000-01-01T09:00:28.000Z</time>
      </trkpt>
      <trkpt lat="44.02728" lon="5.60682">
        <ele>910</ele>
        <time>2000-01-01T09:00:38.000Z</time>
      </trkpt>
      <trkpt lat="44.02764" lon="5.60693">
        <ele>909</ele>
        <time>2000-01-01T09:00:48.000Z</time>
      </trkpt>
      <trkpt lat="44.02809" lon="5.60691">
        <ele>909</ele>
        <time>2000-01-01T09:00:58.000Z</time>
      </trkpt>
      <trkpt lat="44.02835" lon="5.60697">
        <ele>908</ele>
        <time>2000-01-01T09:01:08.000Z</time>
      </trkpt>
      <trkpt lat="44.02866" lon="5.60704">
        <ele>908</ele>
        <time>2000-01-01T09:01:18.000Z</time>
      </trkpt>
      <trkpt lat="44.02904" lon="5.60699">
        <ele>909</ele>
        <time>2000-01-01T09:01:28.000Z</time>
      </trkpt>
      <trkpt lat="44.02929" lon="5.60699">
        <ele>909</ele>
        <time>2000-01-01T09:01:38.000Z</time>
      </trkpt>
      <trkpt lat="44.02962" lon="5.60687">
        <ele>910</ele>
        <time>2000-01-01T09:01:48.000Z</time>
      </trkpt>
      <trkpt lat="44.02987" lon="5.60684">
        <ele>910</ele>
        <time>2000-01-01T09:01:58.000Z</time>
      </trkpt>
      <trkpt lat="44.02999" lon="5.60688">
        <ele>908.8</ele>
        <time>2000-01-01T09:02:08.000Z</time>
      </trkpt>
      <trkpt lat="44.03014" lon="5.60686">
        <ele>909</ele>
        <time>2000-01-01T09:02:18.000Z</time>
      </trkpt>
      <trkpt lat="44.0302" lon="5.60722">
        <ele>908</ele>
        <time>2000-01-01T09:02:28.000Z</time>
      </trkpt>
      <trkpt lat="44.03055" lon="5.60755">
        <ele>901</ele>
        <time>2000-01-01T09:02:38.000Z</time>
      </trkpt>
      <trkpt lat="44.0305" lon="5.60713">
        <ele>900</ele>
        <time>2000-01-01T09:02:48.000Z</time>
      </trkpt>
      <trkpt lat="44.03078" lon="5.60758">
        <ele>892</ele>
        <time>2000-01-01T09:02:58.000Z</time>
      </trkpt>
      <trkpt lat="44.03098" lon="5.60787">
        <ele>888</ele>
        <time>2000-01-01T09:03:08.000Z</time>
      </trkpt>
      <trkpt lat="44.03129" lon="5.60831">
        <ele>882</ele>
        <time>2000-01-01T09:03:18.000Z</time>
      </trkpt>
      <trkpt lat="44.03165" lon="5.60851">
        <ele>880</ele>
        <time>2000-01-01T09:03:28.000Z</time>
      </trkpt>
      <trkpt lat="44.03191" lon="5.60847">
        <ele>877</ele>
        <time>2000-01-01T09:03:38.000Z</time>
      </trkpt>
      <trkpt lat="44.03224" lon="5.60843">
        <ele>875</ele>
        <time>2000-01-01T09:03:48.000Z</time>
      </trkpt>
      <trkpt lat="44.0325" lon="5.60833">
        <ele>870</ele>
        <time>2000-01-01T09:03:58.000Z</time>
      </trkpt>
      <trkpt lat="44.03285" lon="5.60821">
        <ele>868</ele>
        <time>2000-01-01T09:04:08.000Z</time>
      </trkpt>
      <trkpt lat="44.03304" lon="5.6079">
        <ele>861</ele>
        <time>2000-01-01T09:04:18.000Z</time>
      </trkpt>
      <trkpt lat="44.03332" lon="5.60744">
        <ele>850</ele>
        <time>2000-01-01T09:04:28.000Z</time>
      </trkpt>
      <trkpt lat="44.03345" lon="5.60711">
        <ele>842</ele>
        <time>2000-01-01T09:04:38.000Z</time>
      </trkpt>
      <trkpt lat="44.0336" lon="5.60672">
        <ele>841</ele>
        <time>2000-01-01T09:04:48.000Z</time>
      </trkpt>
      <trkpt lat="44.03378" lon="5.60628">
        <ele>840</ele>
        <time>2000-01-01T09:04:58.000Z</time>
      </trkpt>
      <trkpt lat="44.03378" lon="5.60587">
        <ele>833</ele>
        <time>2000-01-01T09:05:08.000Z</time>
      </trkpt>
      <trkpt lat="44.03378" lon="5.60525">
        <ele>823</ele>
        <time>2000-01-01T09:05:18.000Z</time>
      </trkpt>
      <trkpt lat="44.0339" lon="5.60486">
        <ele>817</ele>
        <time>2000-01-01T09:05:28.000Z</time>
      </trkpt>
      <trkpt lat="44.03399" lon="5.60455">
        <ele>814</ele>
        <time>2000-01-01T09:05:38.000Z</time>
      </trkpt>
      <trkpt lat="44.03409" lon="5.60422">
        <ele>814</ele>
        <time>2000-01-01T09:05:48.000Z</time>
      </trkpt>
      <trkpt lat="44.03418" lon="5.60388">
        <ele>814</ele>
        <time>2000-01-01T09:05:58.000Z</time>
      </trkpt>
      <trkpt lat="44.03384" lon="5.60371">
        <ele>821</ele>
        <time>2000-01-01T09:06:08.000Z</time>
      </trkpt>
      <trkpt lat="44.03338" lon="5.60375">
        <ele>835</ele>
        <time>2000-01-01T09:06:18.000Z</time>
      </trkpt>
      <trkpt lat="44.03352" lon="5.60339">
        <ele>841</ele>
        <time>2000-01-01T09:06:28.000Z</time>
      </trkpt>
      <trkpt lat="44.03375" lon="5.60285">
        <ele>844</ele>
        <time>2000-01-01T09:06:38.000Z</time>
      </trkpt>
      <trkpt lat="44.03393" lon="5.60251">
        <ele>854</ele>
        <time>2000-01-01T09:06:48.000Z</time>
      </trkpt>
      <trkpt lat="44.03408" lon="5.60224">
        <ele>863</ele>
        <time>2000-01-01T09:06:58.000Z</time>
      </trkpt>
      <trkpt lat="44.03424" lon="5.60195">
        <ele>868</ele>
        <time>2000-01-01T09:07:08.000Z</time>
      </trkpt>
      <trkpt lat="44.03437" lon="5.6016">
        <ele>879</ele>
        <time>2000-01-01T09:07:18.000Z</time>
      </trkpt>
      <trkpt lat="44.03454" lon="5.60114">
        <ele>882</ele>
        <time>2000-01-01T09:07:28.000Z</time>
      </trkpt>
      <trkpt lat="44.03471" lon="5.6007">
        <ele>887</ele>
        <time>2000-01-01T09:07:38.000Z</time>
      </trkpt>
      <trkpt lat="44.03478" lon="5.60035">
        <ele>892</ele>
        <time>2000-01-01T09:07:48.000Z</time>
      </trkpt>
      <trkpt lat="44.03486" lon="5.59993">
        <ele>895</ele>
        <time>2000-01-01T09:07:58.000Z</time>
      </trkpt>
      <trkpt lat="44.03495" lon="5.5995">
        <ele>902</ele>
        <time>2000-01-01T09:08:08.000Z</time>
      </trkpt>
      <trkpt lat="44.03504" lon="5.59913">
        <ele>906</ele>
        <time>2000-01-01T09:08:18.000Z</time>
      </trkpt>
      <trkpt lat="44.03517" lon="5.5986">
        <ele>915</ele>
        <time>2000-01-01T09:08:28.000Z</time>
      </trkpt>
      <trkpt lat="44.03539" lon="5.59844">
        <ele>915</ele>
        <time>2000-01-01T09:08:38.000Z</time>
      </trkpt>
      <trkpt lat="44.03563" lon="5.59826">
        <ele>918</ele>
        <time>2000-01-01T09:08:48.000Z</time>
      </trkpt>
      <trkpt lat="44.03583" lon="5.59801">
        <ele>921</ele>
        <time>2000-01-01T09:08:58.000Z</time>
      </trkpt>
      <trkpt lat="44.03606" lon="5.5977">
        <ele>926</ele>
        <time>2000-01-01T09:09:08.000Z</time>
      </trkpt>
      <trkpt lat="44.0362" lon="5.59738">
        <ele>928</ele>
        <time>2000-01-01T09:09:18.000Z</time>
      </trkpt>
      <trkpt lat="44.03637" lon="5.59697">
        <ele>928</ele>
        <time>2000-01-01T09:09:28.000Z</time>
      </trkpt>
      <trkpt lat="44.0365" lon="5.59662">
        <ele>929</ele>
        <time>2000-01-01T09:09:38.000Z</time>
      </trkpt>
      <trkpt lat="44.03668" lon="5.59615">
        <ele>932</ele>
        <time>2000-01-01T09:09:48.000Z</time>
      </trkpt>
      <trkpt lat="44.03679" lon="5.59584">
        <ele>933</ele>
        <time>2000-01-01T09:09:58.000Z</time>
      </trkpt>
      <trkpt lat="44.0369" lon="5.59551">
        <ele>933</ele>
        <time>2000-01-01T09:10:08.000Z</time>
      </trkpt>
      <trkpt lat="44.03678" lon="5.59519">
        <ele>934</ele>
        <time>2000-01-01T09:10:18.000Z</time>
      </trkpt>
      <trkpt lat="44.03665" lon="5.59482">
        <ele>937</ele>
        <time>2000-01-01T09:10:28.000Z</time>
      </trkpt>
      <trkpt lat="44.03691" lon="5.59456">
        <ele>943</ele>
        <time>2000-01-01T09:10:38.000Z</time>
      </trkpt>
      <trkpt lat="44.03713" lon="5.59434">
        <ele>947</ele>
        <time>2000-01-01T09:10:48.000Z</time>
      </trkpt>
      <trkpt lat="44.03742" lon="5.59405">
        <ele>949</ele>
        <time>2000-01-01T09:10:58.000Z</time>
      </trkpt>
      <trkpt lat="44.03768" lon="5.59419">
        <ele>949</ele>
        <time>2000-01-01T09:11:08.000Z</time>
      </trkpt>
      <trkpt lat="44.03804" lon="5.59439">
        <ele>949</ele>
        <time>2000-01-01T09:11:18.000Z</time>
      </trkpt>
      <trkpt lat="44.03824" lon="5.59467">
        <ele>947</ele>
        <time>2000-01-01T09:11:28.000Z</time>
      </trkpt>
      <trkpt lat="44.03854" lon="5.59509">
        <ele>944</ele>
        <time>2000-01-01T09:11:38.000Z</time>
      </trkpt>
      <trkpt lat="44.03874" lon="5.59536">
        <ele>944</ele>
        <time>2000-01-01T09:11:48.000Z</time>
      </trkpt>
      <trkpt lat="44.03899" lon="5.59572">
        <ele>946</ele>
        <time>2000-01-01T09:11:58.000Z</time>
      </trkpt>
      <trkpt lat="44.03923" lon="5.59564">
        <ele>948</ele>
        <time>2000-01-01T09:12:08.000Z</time>
      </trkpt>
      <trkpt lat="44.03947" lon="5.59555">
        <ele>949</ele>
        <time>2000-01-01T09:12:18.000Z</time>
      </trkpt>
      <trkpt lat="44.03969" lon="5.59536">
        <ele>950</ele>
        <time>2000-01-01T09:12:28.000Z</time>
      </trkpt>
      <trkpt lat="44.03994" lon="5.59515">
        <ele>951</ele>
        <time>2000-01-01T09:12:38.000Z</time>
      </trkpt>
      <trkpt lat="44.04018" lon="5.59495">
        <ele>952</ele>
        <time>2000-01-01T09:12:48.000Z</time>
      </trkpt>
      <trkpt lat="44.04052" lon="5.59467">
        <ele>952</ele>
        <time>2000-01-01T09:12:58.000Z</time>
      </trkpt>
      <trkpt lat="44.04074" lon="5.59447">
        <ele>951</ele>
        <time>2000-01-01T09:13:08.000Z</time>
      </trkpt>
      <trkpt lat="44.04107" lon="5.5942">
        <ele>949</ele>
        <time>2000-01-01T09:13:18.000Z</time>
      </trkpt>
      <trkpt lat="44.04134" lon="5.59397">
        <ele>948</ele>
        <time>2000-01-01T09:13:28.000Z</time>
      </trkpt>
      <trkpt lat="44.04156" lon="5.59378">
        <ele>946</ele>
        <time>2000-01-01T09:13:38.000Z</time>
      </trkpt>
      <trkpt lat="44.04184" lon="5.59354">
        <ele>942</ele>
        <time>2000-01-01T09:13:48.000Z</time>
      </trkpt>
      <trkpt lat="44.04209" lon="5.59334">
        <ele>941</ele>
        <time>2000-01-01T09:13:58.000Z</time>
      </trkpt>
      <trkpt lat="44.04236" lon="5.5931">
        <ele>938</ele>
        <time>2000-01-01T09:14:08.000Z</time>
      </trkpt>
      <trkpt lat="44.0426" lon="5.5929">
        <ele>937</ele>
        <time>2000-01-01T09:14:18.000Z</time>
      </trkpt>
      <trkpt lat="44.04292" lon="5.59263">
        <ele>931</ele>
        <time>2000-01-01T09:14:28.000Z</time>
      </trkpt>
      <trkpt lat="44.04288" lon="5.59298">
        <ele>930</ele>
        <time>2000-01-01T09:14:38.000Z</time>
      </trkpt>
      <trkpt lat="44.04284" lon="5.59337">
        <ele>927</ele>
        <time>2000-01-01T09:14:48.000Z</time>
      </trkpt>
      <trkpt lat="44.04278" lon="5.59374">
        <ele>925</ele>
        <time>2000-01-01T09:14:58.000Z</time>
      </trkpt>
      <trkpt lat="44.04271" lon="5.59423">
        <ele>922</ele>
        <time>2000-01-01T09:15:08.000Z</time>
      </trkpt>
      <trkpt lat="44.04286" lon="5.59454">
        <ele>921</ele>
        <time>2000-01-01T09:15:18.000Z</time>
      </trkpt>
      <trkpt lat="44.04302" lon="5.59492">
        <ele>919</ele>
        <time>2000-01-01T09:15:28.000Z</time>
      </trkpt>
      <trkpt lat="44.04313" lon="5.59522">
        <ele>918</ele>
        <time>2000-01-01T09:15:38.000Z</time>
      </trkpt>
      <trkpt lat="44.04324" lon="5.59552">
        <ele>916</ele>
        <time>2000-01-01T09:15:48.000Z</time>
      </trkpt>
      <trkpt lat="44.04336" lon="5.59583">
        <ele>914</ele>
        <time>2000-01-01T09:15:58.000Z</time>
      </trkpt>
      <trkpt lat="44.04349" lon="5.59616">
        <ele>913</ele>
        <time>2000-01-01T09:16:08.000Z</time>
      </trkpt>
      <trkpt lat="44.04363" lon="5.59646">
        <ele>910</ele>
        <time>2000-01-01T09:16:18.000Z</time>
      </trkpt>
      <trkpt lat="44.04379" lon="5.59681">
        <ele>910</ele>
        <time>2000-01-01T09:16:28.000Z</time>
      </trkpt>
      <trkpt lat="44.04383" lon="5.59736">
        <ele>903</ele>
        <time>2000-01-01T09:16:38.000Z</time>
      </trkpt>
      <trkpt lat="44.04378" lon="5.59771">
        <ele>902</ele>
        <time>2000-01-01T09:16:48.000Z</time>
      </trkpt>
      <trkpt lat="44.04373" lon="5.59809">
        <ele>899</ele>
        <time>2000-01-01T09:16:58.000Z</time>
      </trkpt>
      <trkpt lat="44.04383" lon="5.59857">
        <ele>899</ele>
        <time>2000-01-01T09:17:08.000Z</time>
      </trkpt>
      <trkpt lat="44.04392" lon="5.59912">
        <ele>895</ele>
        <time>2000-01-01T09:17:18.000Z</time>
      </trkpt>
      <trkpt lat="44.044" lon="5.59946">
        <ele>890</ele>
        <time>2000-01-01T09:17:28.000Z</time>
      </trkpt>
      <trkpt lat="44.0441" lon="5.59985">
        <ele>890</ele>
        <time>2000-01-01T09:17:38.000Z</time>
      </trkpt>
      <trkpt lat="44.0443" lon="5.60008">
        <ele>886</ele>
        <time>2000-01-01T09:17:48.000Z</time>
      </trkpt>
      <trkpt lat="44.0445" lon="5.60033">
        <ele>884</ele>
        <time>2000-01-01T09:17:58.000Z</time>
      </trkpt>
      <trkpt lat="44.0446" lon="5.6008">
        <ele>881</ele>
        <time>2000-01-01T09:18:08.000Z</time>
      </trkpt>
      <trkpt lat="44.04466" lon="5.60131">
        <ele>877</ele>
        <time>2000-01-01T09:18:18.000Z</time>
      </trkpt>
      <trkpt lat="44.04476" lon="5.60163">
        <ele>876</ele>
        <time>2000-01-01T09:18:28.000Z</time>
      </trkpt>
      <trkpt lat="44.04487" lon="5.60196">
        <ele>873</ele>
        <time>2000-01-01T09:18:38.000Z</time>
      </trkpt>
      <trkpt lat="44.04487" lon="5.60247">
        <ele>870</ele>
        <time>2000-01-01T09:18:48.000Z</time>
      </trkpt>
      <trkpt lat="44.04481" lon="5.60299">
        <ele>868</ele>
        <time>2000-01-01T09:18:58.000Z</time>
      </trkpt>
      <trkpt lat="44.04491" lon="5.60346">
        <ele>868</ele>
        <time>2000-01-01T09:19:08.000Z</time>
      </trkpt>
      <trkpt lat="44.04506" lon="5.60393">
        <ele>867</ele>
        <time>2000-01-01T09:19:18.000Z</time>
      </trkpt>
      <trkpt lat="44.04482" lon="5.60425">
        <ele>867</ele>
        <time>2000-01-01T09:19:28.000Z</time>
      </trkpt>
      <trkpt lat="44.04458" lon="5.60457">
        <ele>867</ele>
        <time>2000-01-01T09:19:38.000Z</time>
      </trkpt>
      <trkpt lat="44.04429" lon="5.60496">
        <ele>859</ele>
        <time>2000-01-01T09:19:48.000Z</time>
      </trkpt>
      <trkpt lat="44.04454" lon="5.60525">
        <ele>859</ele>
        <time>2000-01-01T09:19:58.000Z</time>
      </trkpt>
      <trkpt lat="44.04475" lon="5.60549">
        <ele>861</ele>
        <time>2000-01-01T09:20:08.000Z</time>
      </trkpt>
      <trkpt lat="44.04503" lon="5.60582">
        <ele>864</ele>
        <time>2000-01-01T09:20:18.000Z</time>
      </trkpt>
      <trkpt lat="44.04525" lon="5.60605">
        <ele>868</ele>
        <time>2000-01-01T09:20:28.000Z</time>
      </trkpt>
      <trkpt lat="44.04555" lon="5.60638">
        <ele>870</ele>
        <time>2000-01-01T09:20:38.000Z</time>
      </trkpt>
      <trkpt lat="44.04562" lon="5.60673">
        <ele>872</ele>
        <time>2000-01-01T09:20:48.000Z</time>
      </trkpt>
      <trkpt lat="44.04571" lon="5.60715">
        <ele>875</ele>
        <time>2000-01-01T09:20:58.000Z</time>
      </trkpt>
      <trkpt lat="44.04569" lon="5.60752">
        <ele>877</ele>
        <time>2000-01-01T09:21:08.000Z</time>
      </trkpt>
      <trkpt lat="44.04568" lon="5.60796">
        <ele>879</ele>
        <time>2000-01-01T09:21:18.000Z</time>
      </trkpt>
      <trkpt lat="44.04571" lon="5.60857">
        <ele>886</ele>
        <time>2000-01-01T09:21:28.000Z</time>
      </trkpt>
      <trkpt lat="44.04598" lon="5.60891">
        <ele>886</ele>
        <time>2000-01-01T09:21:38.000Z</time>
      </trkpt>
      <trkpt lat="44.04621" lon="5.60907">
        <ele>889</ele>
        <time>2000-01-01T09:21:48.000Z</time>
      </trkpt>
      <trkpt lat="44.04645" lon="5.60925">
        <ele>891</ele>
        <time>2000-01-01T09:21:58.000Z</time>
      </trkpt>
      <trkpt lat="44.04671" lon="5.60929">
        <ele>895</ele>
        <time>2000-01-01T09:22:08.000Z</time>
      </trkpt>
      <trkpt lat="44.047" lon="5.60934">
        <ele>896</ele>
        <time>2000-01-01T09:22:18.000Z</time>
      </trkpt>
      <trkpt lat="44.04722" lon="5.60968">
        <ele>897</ele>
        <time>2000-01-01T09:22:28.000Z</time>
      </trkpt>
      <trkpt lat="44.04734" lon="5.61003">
        <ele>899</ele>
        <time>2000-01-01T09:22:38.000Z</time>
      </trkpt>
      <trkpt lat="44.0475" lon="5.6105">
        <ele>901</ele>
        <time>2000-01-01T09:22:48.000Z</time>
      </trkpt>
      <trkpt lat="44.04753" lon="5.61093">
        <ele>903</ele>
        <time>2000-01-01T09:22:58.000Z</time>
      </trkpt>
      <trkpt lat="44.04756" lon="5.61153">
        <ele>906</ele>
        <time>2000-01-01T09:23:08.000Z</time>
      </trkpt>
      <trkpt lat="44.04768" lon="5.61182">
        <ele>908</ele>
        <time>2000-01-01T09:23:18.000Z</time>
      </trkpt>
      <trkpt lat="44.04781" lon="5.61213">
        <ele>910</ele>
        <time>2000-01-01T09:23:28.000Z</time>
      </trkpt>
      <trkpt lat="44.04805" lon="5.61225">
        <ele>912</ele>
        <time>2000-01-01T09:23:38.000Z</time>
      </trkpt>
      <trkpt lat="44.04833" lon="5.61238">
        <ele>914</ele>
        <time>2000-01-01T09:23:48.000Z</time>
      </trkpt>
      <trkpt lat="44.0487" lon="5.61273">
        <ele>918</ele>
        <time>2000-01-01T09:23:58.000Z</time>
      </trkpt>
      <trkpt lat="44.04888" lon="5.61316">
        <ele>920</ele>
        <time>2000-01-01T09:24:08.000Z</time>
      </trkpt>
      <trkpt lat="44.04901" lon="5.6135">
        <ele>921</ele>
        <time>2000-01-01T09:24:18.000Z</time>
      </trkpt>
      <trkpt lat="44.04932" lon="5.61376">
        <ele>926</ele>
        <time>2000-01-01T09:24:28.000Z</time>
      </trkpt>
      <trkpt lat="44.04965" lon="5.61377">
        <ele>928</ele>
        <time>2000-01-01T09:24:38.000Z</time>
      </trkpt>
      <trkpt lat="44.04998" lon="5.61339">
        <ele>928</ele>
        <time>2000-01-01T09:24:48.000Z</time>
      </trkpt>
      <trkpt lat="44.05035" lon="5.61357">
        <ele>928</ele>
        <time>2000-01-01T09:24:58.000Z</time>
      </trkpt>
      <trkpt lat="44.05066" lon="5.61361">
        <ele>929</ele>
        <time>2000-01-01T09:25:08.000Z</time>
      </trkpt>
      <trkpt lat="44.05095" lon="5.61364">
        <ele>930</ele>
        <time>2000-01-01T09:25:18.000Z</time>
      </trkpt>
      <trkpt lat="44.0514" lon="5.61369">
        <ele>933</ele>
        <time>2000-01-01T09:25:28.000Z</time>
      </trkpt>
      <trkpt lat="44.05161" lon="5.61394">
        <ele>934</ele>
        <time>2000-01-01T09:25:38.000Z</time>
      </trkpt>
      <trkpt lat="44.05189" lon="5.61425">
        <ele>938</ele>
        <time>2000-01-01T09:25:48.000Z</time>
      </trkpt>
      <trkpt lat="44.05226" lon="5.61442">
        <ele>940</ele>
        <time>2000-01-01T09:25:58.000Z</time>
      </trkpt>
      <trkpt lat="44.05236" lon="5.61455">
        <ele>941.1</ele>
        <time>2000-01-01T09:26:08.000Z</time>
      </trkpt>
      <trkpt lat="44.05285" lon="5.61494">
        <ele>941</ele>
        <time>2000-01-01T09:26:18.000Z</time>
      </trkpt>
      <trkpt lat="44.053" lon="5.61524">
        <ele>944</ele>
        <time>2000-01-01T09:26:28.000Z</time>
      </trkpt>
      <trkpt lat="44.05305" lon="5.61543">
        <ele>944.9</ele>
        <time>2000-01-01T09:26:38.000Z</time>
      </trkpt>
      <trkpt lat="44.05309" lon="5.61549">
        <ele>944</ele>
        <time>2000-01-01T09:26:48.000Z</time>
      </trkpt>
      <trkpt lat="44.05343" lon="5.61564">
        <ele>944</ele>
        <time>2000-01-01T09:26:58.000Z</time>
      </trkpt>
      <trkpt lat="44.05384" lon="5.61576">
        <ele>944</ele>
        <time>2000-01-01T09:27:08.000Z</time>
      </trkpt>
      <trkpt lat="44.05417" lon="5.61585">
        <ele>947</ele>
        <time>2000-01-01T09:27:18.000Z</time>
      </trkpt>
      <trkpt lat="44.0545" lon="5.61594">
        <ele>952</ele>
        <time>2000-01-01T09:27:28.000Z</time>
      </trkpt>
      <trkpt lat="44.05493" lon="5.61606">
        <ele>959</ele>
        <time>2000-01-01T09:27:38.000Z</time>
      </trkpt>
      <trkpt lat="44.05525" lon="5.61599">
        <ele>963</ele>
        <time>2000-01-01T09:27:48.000Z</time>
      </trkpt>
      <trkpt lat="44.05557" lon="5.61592">
        <ele>966</ele>
        <time>2000-01-01T09:27:58.000Z</time>
      </trkpt>
      <trkpt lat="44.05589" lon="5.61585">
        <ele>968</ele>
        <time>2000-01-01T09:28:08.000Z</time>
      </trkpt>
      <trkpt lat="44.05624" lon="5.61583">
        <ele>971</ele>
        <time>2000-01-01T09:28:18.000Z</time>
      </trkpt>
      <trkpt lat="44.05659" lon="5.6158">
        <ele>974</ele>
        <time>2000-01-01T09:28:28.000Z</time>
      </trkpt>
      <trkpt lat="44.05686" lon="5.61578">
        <ele>976</ele>
        <time>2000-01-01T09:28:38.000Z</time>
      </trkpt>
      <trkpt lat="44.05719" lon="5.61576">
        <ele>977</ele>
        <time>2000-01-01T09:28:48.000Z</time>
      </trkpt>
      <trkpt lat="44.05747" lon="5.61589">
        <ele>979</ele>
        <time>2000-01-01T09:28:58.000Z</time>
      </trkpt>
      <trkpt lat="44.05789" lon="5.61608">
        <ele>982</ele>
        <time>2000-01-01T09:29:08.000Z</time>
      </trkpt>
      <trkpt lat="44.05824" lon="5.61625">
        <ele>984</ele>
        <time>2000-01-01T09:29:18.000Z</time>
      </trkpt>
      <trkpt lat="44.05854" lon="5.61638">
        <ele>985</ele>
        <time>2000-01-01T09:29:28.000Z</time>
      </trkpt>
      <trkpt lat="44.05878" lon="5.61649">
        <ele>986</ele>
        <time>2000-01-01T09:29:38.000Z</time>
      </trkpt>
      <trkpt lat="44.05907" lon="5.61662">
        <ele>989</ele>
        <time>2000-01-01T09:29:48.000Z</time>
      </trkpt>
      <trkpt lat="44.05939" lon="5.6166">
        <ele>990</ele>
        <time>2000-01-01T09:29:58.000Z</time>
      </trkpt>
      <trkpt lat="44.05967" lon="5.61659">
        <ele>990</ele>
        <time>2000-01-01T09:30:08.000Z</time>
      </trkpt>
      <trkpt lat="44.06003" lon="5.61657">
        <ele>991</ele>
        <time>2000-01-01T09:30:18.000Z</time>
      </trkpt>
      <trkpt lat="44.06036" lon="5.61655">
        <ele>992</ele>
        <time>2000-01-01T09:30:28.000Z</time>
      </trkpt>
      <trkpt lat="44.06068" lon="5.61653">
        <ele>994</ele>
        <time>2000-01-01T09:30:38.000Z</time>
      </trkpt>
      <trkpt lat="44.06103" lon="5.61651">
        <ele>996</ele>
        <time>2000-01-01T09:30:48.000Z</time>
      </trkpt>
      <trkpt lat="44.06129" lon="5.61649">
        <ele>996</ele>
        <time>2000-01-01T09:30:58.000Z</time>
      </trkpt>
      <trkpt lat="44.06158" lon="5.61647">
        <ele>996</ele>
        <time>2000-01-01T09:31:08.000Z</time>
      </trkpt>
      <trkpt lat="44.06185" lon="5.61646">
        <ele>996</ele>
        <time>2000-01-01T09:31:18.000Z</time>
      </trkpt>
      <trkpt lat="44.06221" lon="5.61644">
        <ele>996</ele>
        <time>2000-01-01T09:31:28.000Z</time>
      </trkpt>
      <trkpt lat="44.06247" lon="5.61635">
        <ele>996</ele>
        <time>2000-01-01T09:31:38.000Z</time>
      </trkpt>
      <trkpt lat="44.06273" lon="5.61625">
        <ele>996</ele>
        <time>2000-01-01T09:31:48.000Z</time>
      </trkpt>
      <trkpt lat="44.06306" lon="5.61613">
        <ele>996</ele>
        <time>2000-01-01T09:31:58.000Z</time>
      </trkpt>
      <trkpt lat="44.06338" lon="5.61602">
        <ele>996</ele>
        <time>2000-01-01T09:32:08.000Z</time>
      </trkpt>
      <trkpt lat="44.06371" lon="5.61592">
        <ele>994</ele>
        <time>2000-01-01T09:32:18.000Z</time>
      </trkpt>
      <trkpt lat="44.06409" lon="5.61579">
        <ele>993</ele>
        <time>2000-01-01T09:32:28.000Z</time>
      </trkpt>
      <trkpt lat="44.06443" lon="5.61567">
        <ele>992</ele>
        <time>2000-01-01T09:32:38.000Z</time>
      </trkpt>
      <trkpt lat="44.06469" lon="5.61557">
        <ele>992</ele>
        <time>2000-01-01T09:32:48.000Z</time>
      </trkpt>
      <trkpt lat="44.06507" lon="5.61556">
        <ele>996</ele>
        <time>2000-01-01T09:32:58.000Z</time>
      </trkpt>
      <trkpt lat="44.06544" lon="5.61555">
        <ele>999</ele>
        <time>2000-01-01T09:33:08.000Z</time>
      </trkpt>
      <trkpt lat="44.06582" lon="5.61554">
        <ele>1001</ele>
        <time>2000-01-01T09:33:18.000Z</time>
      </trkpt>
      <trkpt lat="44.06607" lon="5.61554">
        <ele>1003</ele>
        <time>2000-01-01T09:33:28.000Z</time>
      </trkpt>
      <trkpt lat="44.06636" lon="5.61553">
        <ele>1003</ele>
        <time>2000-01-01T09:33:38.000Z</time>
      </trkpt>
      <trkpt lat="44.06665" lon="5.61558">
        <ele>1003</ele>
        <time>2000-01-01T09:33:48.000Z</time>
      </trkpt>
      <trkpt lat="44.06707" lon="5.61565">
        <ele>1003</ele>
        <time>2000-01-01T09:33:58.000Z</time>
      </trkpt>
      <trkpt lat="44.06735" lon="5.61569">
        <ele>1003</ele>
        <time>2000-01-01T09:34:08.000Z</time>
      </trkpt>
      <trkpt lat="44.06773" lon="5.61575">
        <ele>1000</ele>
        <time>2000-01-01T09:34:18.000Z</time>
      </trkpt>
      <trkpt lat="44.06762" lon="5.61612">
        <ele>991</ele>
        <time>2000-01-01T09:34:28.000Z</time>
      </trkpt>
      <trkpt lat="44.06746" lon="5.61666">
        <ele>991</ele>
        <time>2000-01-01T09:34:38.000Z</time>
      </trkpt>
      <trkpt lat="44.06763" lon="5.61694">
        <ele>986</ele>
        <time>2000-01-01T09:34:48.000Z</time>
      </trkpt>
      <trkpt lat="44.06783" lon="5.61727">
        <ele>979</ele>
        <time>2000-01-01T09:34:58.000Z</time>
      </trkpt>
      <trkpt lat="44.06804" lon="5.6176">
        <ele>971</ele>
        <time>2000-01-01T09:35:08.000Z</time>
      </trkpt>
      <trkpt lat="44.06826" lon="5.61778">
        <ele>969</ele>
        <time>2000-01-01T09:35:18.000Z</time>
      </trkpt>
      <trkpt lat="44.0685" lon="5.61799">
        <ele>970</ele>
        <time>2000-01-01T09:35:28.000Z</time>
      </trkpt>
      <trkpt lat="44.06881" lon="5.61805">
        <ele>970</ele>
        <time>2000-01-01T09:35:38.000Z</time>
      </trkpt>
      <trkpt lat="44.06907" lon="5.6181">
        <ele>970</ele>
        <time>2000-01-01T09:35:48.000Z</time>
      </trkpt>
      <trkpt lat="44.06937" lon="5.61816">
        <ele>968</ele>
        <time>2000-01-01T09:35:58.000Z</time>
      </trkpt>
      <trkpt lat="44.06966" lon="5.61842">
        <ele>966</ele>
        <time>2000-01-01T09:36:08.000Z</time>
      </trkpt>
      <trkpt lat="44.06989" lon="5.61862">
        <ele>960</ele>
        <time>2000-01-01T09:36:18.000Z</time>
      </trkpt>
      <trkpt lat="44.07018" lon="5.61887">
        <ele>956</ele>
        <time>2000-01-01T09:36:28.000Z</time>
      </trkpt>
      <trkpt lat="44.0704" lon="5.61907">
        <ele>952</ele>
        <time>2000-01-01T09:36:38.000Z</time>
      </trkpt>
      <trkpt lat="44.07066" lon="5.61931">
        <ele>951</ele>
        <time>2000-01-01T09:36:48.000Z</time>
      </trkpt>
      <trkpt lat="44.07092" lon="5.61954">
        <ele>950</ele>
        <time>2000-01-01T09:36:58.000Z</time>
      </trkpt>
      <trkpt lat="44.07122" lon="5.61982">
        <ele>949</ele>
        <time>2000-01-01T09:37:08.000Z</time>
      </trkpt>
      <trkpt lat="44.0715" lon="5.61997">
        <ele>949</ele>
        <time>2000-01-01T09:37:18.000Z</time>
      </trkpt>
      <trkpt lat="44.07193" lon="5.6202">
        <ele>943</ele>
        <time>2000-01-01T09:37:28.000Z</time>
      </trkpt>
      <trkpt lat="44.07209" lon="5.62062">
        <ele>946</ele>
        <time>2000-01-01T09:37:38.000Z</time>
      </trkpt>
      <trkpt lat="44.07226" lon="5.62103">
        <ele>949</ele>
        <time>2000-01-01T09:37:48.000Z</time>
      </trkpt>
      <trkpt lat="44.07249" lon="5.62161">
        <ele>954</ele>
        <time>2000-01-01T09:37:58.000Z</time>
      </trkpt>
      <trkpt lat="44.07261" lon="5.62157">
        <ele>960.6</ele>
        <time>2000-01-01T09:38:08.000Z</time>
      </trkpt>
      <trkpt lat="44.07329" lon="5.62127">
        <ele>973</ele>
        <time>2000-01-01T09:38:18.000Z</time>
      </trkpt>
      <trkpt lat="44.07355" lon="5.62133">
        <ele>982</ele>
        <time>2000-01-01T09:38:28.000Z</time>
      </trkpt>
      <trkpt lat="44.07388" lon="5.6214">
        <ele>989</ele>
        <time>2000-01-01T09:38:38.000Z</time>
      </trkpt>
      <trkpt lat="44.07414" lon="5.62138">
        <ele>993</ele>
        <time>2000-01-01T09:38:48.000Z</time>
      </trkpt>
      <trkpt lat="44.07443" lon="5.62136">
        <ele>995</ele>
        <time>2000-01-01T09:38:58.000Z</time>
      </trkpt>
      <trkpt lat="44.07484" lon="5.6212">
        <ele>998</ele>
        <time>2000-01-01T09:39:08.000Z</time>
      </trkpt>
      <trkpt lat="44.07512" lon="5.62121">
        <ele>1003</ele>
        <time>2000-01-01T09:39:18.000Z</time>
      </trkpt>
      <trkpt lat="44.07551" lon="5.62122">
        <ele>1003</ele>
        <time>2000-01-01T09:39:28.000Z</time>
      </trkpt>
      <trkpt lat="44.07525" lon="5.6214">
        <ele>1005</ele>
        <time>2000-01-01T09:39:38.000Z</time>
      </trkpt>
      <trkpt lat="44.07488" lon="5.62167">
        <ele>1012</ele>
        <time>2000-01-01T09:39:48.000Z</time>
      </trkpt>
      <trkpt lat="44.07508" lon="5.62188">
        <ele>1019</ele>
        <time>2000-01-01T09:39:58.000Z</time>
      </trkpt>
      <trkpt lat="44.07529" lon="5.6221">
        <ele>1026</ele>
        <time>2000-01-01T09:40:08.000Z</time>
      </trkpt>
      <trkpt lat="44.07483" lon="5.6223">
        <ele>1032</ele>
        <time>2000-01-01T09:40:18.000Z</time>
      </trkpt>
      <trkpt lat="44.07509" lon="5.62251">
        <ele>1041</ele>
        <time>2000-01-01T09:40:28.000Z</time>
      </trkpt>
      <trkpt lat="44.07531" lon="5.62268">
        <ele>1046</ele>
        <time>2000-01-01T09:40:38.000Z</time>
      </trkpt>
      <trkpt lat="44.07553" lon="5.62285">
        <ele>1046</ele>
        <time>2000-01-01T09:40:48.000Z</time>
      </trkpt>
      <trkpt lat="44.07577" lon="5.6231">
        <ele>1049</ele>
        <time>2000-01-01T09:40:58.000Z</time>
      </trkpt>
      <trkpt lat="44.07597" lon="5.6233">
        <ele>1052</ele>
        <time>2000-01-01T09:41:08.000Z</time>
      </trkpt>
      <trkpt lat="44.07617" lon="5.6235">
        <ele>1055</ele>
        <time>2000-01-01T09:41:18.000Z</time>
      </trkpt>
      <trkpt lat="44.07652" lon="5.62364">
        <ele>1059</ele>
        <time>2000-01-01T09:41:28.000Z</time>
      </trkpt>
      <trkpt lat="44.07684" lon="5.62378">
        <ele>1061</ele>
        <time>2000-01-01T09:41:38.000Z</time>
      </trkpt>
      <trkpt lat="44.07717" lon="5.62392">
        <ele>1062</ele>
        <time>2000-01-01T09:41:48.000Z</time>
      </trkpt>
      <trkpt lat="44.07759" lon="5.6241">
        <ele>1064</ele>
        <time>2000-01-01T09:41:58.000Z</time>
      </trkpt>
      <trkpt lat="44.07793" lon="5.62408">
        <ele>1067</ele>
        <time>2000-01-01T09:42:08.000Z</time>
      </trkpt>
      <trkpt lat="44.07824" lon="5.62407">
        <ele>1070</ele>
        <time>2000-01-01T09:42:18.000Z</time>
      </trkpt>
      <trkpt lat="44.07851" lon="5.62406">
        <ele>1076</ele>
        <time>2000-01-01T09:42:28.000Z</time>
      </trkpt>
      <trkpt lat="44.07883" lon="5.62405">
        <ele>1079</ele>
        <time>2000-01-01T09:42:38.000Z</time>
      </trkpt>
      <trkpt lat="44.07914" lon="5.62397">
        <ele>1085</ele>
        <time>2000-01-01T09:42:48.000Z</time>
      </trkpt>
      <trkpt lat="44.07941" lon="5.6239">
        <ele>1090</ele>
        <time>2000-01-01T09:42:58.000Z</time>
      </trkpt>
      <trkpt lat="44.07974" lon="5.62382">
        <ele>1096</ele>
        <time>2000-01-01T09:43:08.000Z</time>
      </trkpt>
      <trkpt lat="44.08007" lon="5.62387">
        <ele>1101</ele>
        <time>2000-01-01T09:43:18.000Z</time>
      </trkpt>
      <trkpt lat="44.0804" lon="5.62393">
        <ele>1104</ele>
        <time>2000-01-01T09:43:28.000Z</time>
      </trkpt>
      <trkpt lat="44.08079" lon="5.62399">
        <ele>1107</ele>
        <time>2000-01-01T09:43:38.000Z</time>
      </trkpt>
      <trkpt lat="44.08106" lon="5.62405">
        <ele>1108</ele>
        <time>2000-01-01T09:43:48.000Z</time>
      </trkpt>
      <trkpt lat="44.08142" lon="5.62413">
        <ele>1110</ele>
        <time>2000-01-01T09:43:58.000Z</time>
      </trkpt>
      <trkpt lat="44.08174" lon="5.62421">
        <ele>1111</ele>
        <time>2000-01-01T09:44:08.000Z</time>
      </trkpt>
      <trkpt lat="44.08202" lon="5.62412">
        <ele>1113</ele>
        <time>2000-01-01T09:44:18.000Z</time>
      </trkpt>
      <trkpt lat="44.08242" lon="5.62399">
        <ele>1116</ele>
        <time>2000-01-01T09:44:28.000Z</time>
      </trkpt>
      <trkpt lat="44.08268" lon="5.62391">
        <ele>1118</ele>
        <time>2000-01-01T09:44:38.000Z</time>
      </trkpt>
      <trkpt lat="44.08298" lon="5.62382">
        <ele>1120</ele>
        <time>2000-01-01T09:44:48.000Z</time>
      </trkpt>
      <trkpt lat="44.08327" lon="5.6238">
        <ele>1122</ele>
        <time>2000-01-01T09:44:58.000Z</time>
      </trkpt>
      <trkpt lat="44.0837" lon="5.62378">
        <ele>1123</ele>
        <time>2000-01-01T09:45:08.000Z</time>
      </trkpt>
      <trkpt lat="44.08398" lon="5.62376">
        <ele>1124</ele>
        <time>2000-01-01T09:45:18.000Z</time>
      </trkpt>
      <trkpt lat="44.08439" lon="5.62373">
        <ele>1124</ele>
        <time>2000-01-01T09:45:28.000Z</time>
      </trkpt>
      <trkpt lat="44.08468" lon="5.62377">
        <ele>1124</ele>
        <time>2000-01-01T09:45:38.000Z</time>
      </trkpt>
      <trkpt lat="44.08509" lon="5.62384">
        <ele>1122</ele>
        <time>2000-01-01T09:45:48.000Z</time>
      </trkpt>
      <trkpt lat="44.08539" lon="5.62387">
        <ele>1121</ele>
        <time>2000-01-01T09:45:58.000Z</time>
      </trkpt>
      <trkpt lat="44.08586" lon="5.62391">
        <ele>1119</ele>
        <time>2000-01-01T09:46:08.000Z</time>
      </trkpt>
      <trkpt lat="44.08621" lon="5.6241">
        <ele>1119</ele>
        <time>2000-01-01T09:46:18.000Z</time>
      </trkpt>
      <trkpt lat="44.08661" lon="5.62423">
        <ele>1119</ele>
        <time>2000-01-01T09:46:28.000Z</time>
      </trkpt>
      <trkpt lat="44.08678" lon="5.62427">
        <ele>1121.6</ele>
        <time>2000-01-01T09:46:38.000Z</time>
      </trkpt>
      <trkpt lat="44.087" lon="5.62429">
        <ele>1120</ele>
        <time>2000-01-01T09:46:48.000Z</time>
      </trkpt>
      <trkpt lat="44.08713" lon="5.62437">
        <ele>1123.1</ele>
        <time>2000-01-01T09:46:58.000Z</time>
      </trkpt>
      <trkpt lat="44.0873" lon="5.62445">
        <ele>1123</ele>
        <time>2000-01-01T09:47:08.000Z</time>
      </trkpt>
      <trkpt lat="44.08747" lon="5.62449">
        <ele>1123.4</ele>
        <time>2000-01-01T09:47:18.000Z</time>
      </trkpt>
      <trkpt lat="44.08866" lon="5.62485">
        <ele>1127</ele>
        <time>2000-01-01T09:47:28.000Z</time>
      </trkpt>
      <trkpt lat="44.08894" lon="5.62493">
        <ele>1127</ele>
        <time>2000-01-01T09:47:38.000Z</time>
      </trkpt>
      <trkpt lat="44.08933" lon="5.62504">
        <ele>1129</ele>
        <time>2000-01-01T09:47:48.000Z</time>
      </trkpt>
      <trkpt lat="44.0897" lon="5.62516">
        <ele>1131</ele>
        <time>2000-01-01T09:47:58.000Z</time>
      </trkpt>
      <trkpt lat="44.08996" lon="5.62523">
        <ele>1132</ele>
        <time>2000-01-01T09:48:08.000Z</time>
      </trkpt>
      <trkpt lat="44.09029" lon="5.62513">
        <ele>1132</ele>
        <time>2000-01-01T09:48:18.000Z</time>
      </trkpt>
      <trkpt lat="44.09062" lon="5.62503">
        <ele>1131</ele>
        <time>2000-01-01T09:48:28.000Z</time>
      </trkpt>
      <trkpt lat="44.09107" lon="5.62489">
        <ele>1131</ele>
        <time>2000-01-01T09:48:38.000Z</time>
      </trkpt>
      <trkpt lat="44.09134" lon="5.62476">
        <ele>1131</ele>
        <time>2000-01-01T09:48:48.000Z</time>
      </trkpt>
      <trkpt lat="44.09158" lon="5.62463">
        <ele>1132</ele>
        <time>2000-01-01T09:48:58.000Z</time>
      </trkpt>
      <trkpt lat="44.09187" lon="5.62449">
        <ele>1135</ele>
        <time>2000-01-01T09:49:08.000Z</time>
      </trkpt>
      <trkpt lat="44.09213" lon="5.62435">
        <ele>1137</ele>
        <time>2000-01-01T09:49:18.000Z</time>
      </trkpt>
      <trkpt lat="44.09247" lon="5.62423">
        <ele>1138</ele>
        <time>2000-01-01T09:49:28.000Z</time>
      </trkpt>
      <trkpt lat="44.09282" lon="5.62411">
        <ele>1140</ele>
        <time>2000-01-01T09:49:38.000Z</time>
      </trkpt>
      <trkpt lat="44.09308" lon="5.62401">
        <ele>1140</ele>
        <time>2000-01-01T09:49:48.000Z</time>
      </trkpt>
      <trkpt lat="44.09343" lon="5.62389">
        <ele>1138</ele>
        <time>2000-01-01T09:49:58.000Z</time>
      </trkpt>
      <trkpt lat="44.09369" lon="5.62379">
        <ele>1138</ele>
        <time>2000-01-01T09:50:08.000Z</time>
      </trkpt>
      <trkpt lat="44.09404" lon="5.62366">
        <ele>1138</ele>
        <time>2000-01-01T09:50:18.000Z</time>
      </trkpt>
      <trkpt lat="44.09436" lon="5.62359">
        <ele>1138</ele>
        <time>2000-01-01T09:50:28.000Z</time>
      </trkpt>
      <trkpt lat="44.09468" lon="5.62352">
        <ele>1141</ele>
        <time>2000-01-01T09:50:38.000Z</time>
      </trkpt>
      <trkpt lat="44.09503" lon="5.62344">
        <ele>1143</ele>
        <time>2000-01-01T09:50:48.000Z</time>
      </trkpt>
      <trkpt lat="44.09531" lon="5.62334">
        <ele>1144</ele>
        <time>2000-01-01T09:50:58.000Z</time>
      </trkpt>
      <trkpt lat="44.09574" lon="5.62319">
        <ele>1145</ele>
        <time>2000-01-01T09:51:08.000Z</time>
      </trkpt>
      <trkpt lat="44.09604" lon="5.62312">
        <ele>1146</ele>
        <time>2000-01-01T09:51:18.000Z</time>
      </trkpt>
      <trkpt lat="44.09628" lon="5.62307">
        <ele>1148</ele>
        <time>2000-01-01T09:51:28.000Z</time>
      </trkpt>
      <trkpt lat="44.09654" lon="5.62302">
        <ele>1151</ele>
        <time>2000-01-01T09:51:38.000Z</time>
      </trkpt>
      <trkpt lat="44.09687" lon="5.62302">
        <ele>1153</ele>
        <time>2000-01-01T09:51:48.000Z</time>
      </trkpt>
      <trkpt lat="44.09721" lon="5.62302">
        <ele>1155</ele>
        <time>2000-01-01T09:51:58.000Z</time>
      </trkpt>
      <trkpt lat="44.09762" lon="5.62302">
        <ele>1155</ele>
        <time>2000-01-01T09:52:08.000Z</time>
      </trkpt>
      <trkpt lat="44.09791" lon="5.62307">
        <ele>1154</ele>
        <time>2000-01-01T09:52:18.000Z</time>
      </trkpt>
      <trkpt lat="44.09833" lon="5.62314">
        <ele>1151</ele>
        <time>2000-01-01T09:52:28.000Z</time>
      </trkpt>
      <trkpt lat="44.09859" lon="5.62332">
        <ele>1150</ele>
        <time>2000-01-01T09:52:38.000Z</time>
      </trkpt>
      <trkpt lat="44.09897" lon="5.62357">
        <ele>1145</ele>
        <time>2000-01-01T09:52:48.000Z</time>
      </trkpt>
      <trkpt lat="44.09924" lon="5.62371">
        <ele>1144</ele>
        <time>2000-01-01T09:52:58.000Z</time>
      </trkpt>
      <trkpt lat="44.09965" lon="5.62392">
        <ele>1145</ele>
        <time>2000-01-01T09:53:08.000Z</time>
      </trkpt>
      <trkpt lat="44.09995" lon="5.62392">
        <ele>1146</ele>
        <time>2000-01-01T09:53:18.000Z</time>
      </trkpt>
      <trkpt lat="44.1002" lon="5.62392">
        <ele>1147</ele>
        <time>2000-01-01T09:53:28.000Z</time>
      </trkpt>
      <trkpt lat="44.10045" lon="5.62392">
        <ele>1147</ele>
        <time>2000-01-01T09:53:38.000Z</time>
      </trkpt>
      <trkpt lat="44.10076" lon="5.6238">
        <ele>1151</ele>
        <time>2000-01-01T09:53:48.000Z</time>
      </trkpt>
      <trkpt lat="44.10102" lon="5.62369">
        <ele>1153</ele>
        <time>2000-01-01T09:53:58.000Z</time>
      </trkpt>
      <trkpt lat="44.10128" lon="5.62359">
        <ele>1155</ele>
        <time>2000-01-01T09:54:08.000Z</time>
      </trkpt>
      <trkpt lat="44.10163" lon="5.62346">
        <ele>1160</ele>
        <time>2000-01-01T09:54:18.000Z</time>
      </trkpt>
      <trkpt lat="44.10192" lon="5.62334">
        <ele>1160</ele>
        <time>2000-01-01T09:54:28.000Z</time>
      </trkpt>
      <trkpt lat="44.10215" lon="5.62325">
        <ele>1160</ele>
        <time>2000-01-01T09:54:38.000Z</time>
      </trkpt>
      <trkpt lat="44.10238" lon="5.62315">
        <ele>1158</ele>
        <time>2000-01-01T09:54:48.000Z</time>
      </trkpt>
      <trkpt lat="44.10271" lon="5.62303">
        <ele>1154</ele>
        <time>2000-01-01T09:54:58.000Z</time>
      </trkpt>
      <trkpt lat="44.10303" lon="5.6229">
        <ele>1151</ele>
        <time>2000-01-01T09:55:08.000Z</time>
      </trkpt>
      <trkpt lat="44.10346" lon="5.62274">
        <ele>1145</ele>
        <time>2000-01-01T09:55:18.000Z</time>
      </trkpt>
      <trkpt lat="44.10379" lon="5.6226">
        <ele>1141</ele>
        <time>2000-01-01T09:55:28.000Z</time>
      </trkpt>
      <trkpt lat="44.10404" lon="5.6225">
        <ele>1138</ele>
        <time>2000-01-01T09:55:38.000Z</time>
      </trkpt>
      <trkpt lat="44.10435" lon="5.62238">
        <ele>1134</ele>
        <time>2000-01-01T09:55:48.000Z</time>
      </trkpt>
      <trkpt lat="44.10459" lon="5.62224">
        <ele>1131</ele>
        <time>2000-01-01T09:55:58.000Z</time>
      </trkpt>
      <trkpt lat="44.10486" lon="5.62209">
        <ele>1128</ele>
        <time>2000-01-01T09:56:08.000Z</time>
      </trkpt>
      <trkpt lat="44.10509" lon="5.62195">
        <ele>1129</ele>
        <time>2000-01-01T09:56:18.000Z</time>
      </trkpt>
      <trkpt lat="44.10525" lon="5.62165">
        <ele>1128</ele>
        <time>2000-01-01T09:56:28.000Z</time>
      </trkpt>
      <trkpt lat="44.10546" lon="5.62126">
        <ele>1127</ele>
        <time>2000-01-01T09:56:38.000Z</time>
      </trkpt>
      <trkpt lat="44.10571" lon="5.62107">
        <ele>1127</ele>
        <time>2000-01-01T09:56:48.000Z</time>
      </trkpt>
      <trkpt lat="44.10605" lon="5.62079">
        <ele>1130</ele>
        <time>2000-01-01T09:56:58.000Z</time>
      </trkpt>
      <trkpt lat="44.10635" lon="5.62081">
        <ele>1131</ele>
        <time>2000-01-01T09:57:08.000Z</time>
      </trkpt>
      <trkpt lat="44.10682" lon="5.62084">
        <ele>1133</ele>
        <time>2000-01-01T09:57:18.000Z</time>
      </trkpt>
      <trkpt lat="44.10719" lon="5.62092">
        <ele>1133</ele>
        <time>2000-01-01T09:57:28.000Z</time>
      </trkpt>
      <trkpt lat="44.10743" lon="5.62102">
        <ele>1134</ele>
        <time>2000-01-01T09:57:38.000Z</time>
      </trkpt>
      <trkpt lat="44.10768" lon="5.62114">
        <ele>1136</ele>
        <time>2000-01-01T09:57:48.000Z</time>
      </trkpt>
      <trkpt lat="44.10786" lon="5.62137">
        <ele>1139</ele>
        <time>2000-01-01T09:57:58.000Z</time>
      </trkpt>
      <trkpt lat="44.10805" lon="5.62161">
        <ele>1143</ele>
        <time>2000-01-01T09:58:08.000Z</time>
      </trkpt>
      <trkpt lat="44.10828" lon="5.62183">
        <ele>1145</ele>
        <time>2000-01-01T09:58:18.000Z</time>
      </trkpt>
      <trkpt lat="44.10857" lon="5.62212">
        <ele>1147</ele>
        <time>2000-01-01T09:58:28.000Z</time>
      </trkpt>
      <trkpt lat="44.10881" lon="5.62228">
        <ele>1150</ele>
        <time>2000-01-01T09:58:38.000Z</time>
      </trkpt>
      <trkpt lat="44.1091" lon="5.62247">
        <ele>1152</ele>
        <time>2000-01-01T09:58:48.000Z</time>
      </trkpt>
      <trkpt lat="44.10939" lon="5.62255">
        <ele>1155</ele>
        <time>2000-01-01T09:58:58.000Z</time>
      </trkpt>
      <trkpt lat="44.10984" lon="5.62268">
        <ele>1160</ele>
        <time>2000-01-01T09:59:08.000Z</time>
      </trkpt>
      <trkpt lat="44.11011" lon="5.62283">
        <ele>1163</ele>
        <time>2000-01-01T09:59:18.000Z</time>
      </trkpt>
      <trkpt lat="44.11052" lon="5.62307">
        <ele>1169</ele>
        <time>2000-01-01T09:59:28.000Z</time>
      </trkpt>
      <trkpt lat="44.11077" lon="5.62328">
        <ele>1171</ele>
        <time>2000-01-01T09:59:38.000Z</time>
      </trkpt>
      <trkpt lat="44.11113" lon="5.62358">
        <ele>1178</ele>
        <time>2000-01-01T09:59:48.000Z</time>
      </trkpt>
      <trkpt lat="44.1114" lon="5.62372">
        <ele>1181</ele>
        <time>2000-01-01T09:59:58.000Z</time>
      </trkpt>
      <trkpt lat="44.11178" lon="5.62393">
        <ele>1185</ele>
        <time>2000-01-01T10:00:08.000Z</time>
      </trkpt>
      <trkpt lat="44.11204" lon="5.62394">
        <ele>1187</ele>
        <time>2000-01-01T10:00:18.000Z</time>
      </trkpt>
      <trkpt lat="44.11236" lon="5.62395">
        <ele>1188</ele>
        <time>2000-01-01T10:00:28.000Z</time>
      </trkpt>
      <trkpt lat="44.11267" lon="5.62397">
        <ele>1189</ele>
        <time>2000-01-01T10:00:38.000Z</time>
      </trkpt>
      <trkpt lat="44.11294" lon="5.62414">
        <ele>1191</ele>
        <time>2000-01-01T10:00:48.000Z</time>
      </trkpt>
      <trkpt lat="44.11335" lon="5.6244">
        <ele>1195</ele>
        <time>2000-01-01T10:00:58.000Z</time>
      </trkpt>
      <trkpt lat="44.11366" lon="5.62442">
        <ele>1197</ele>
        <time>2000-01-01T10:01:08.000Z</time>
      </trkpt>
      <trkpt lat="44.11391" lon="5.62444">
        <ele>1198</ele>
        <time>2000-01-01T10:01:18.000Z</time>
      </trkpt>
      <trkpt lat="44.1142" lon="5.62446">
        <ele>1200</ele>
        <time>2000-01-01T10:01:28.000Z</time>
      </trkpt>
      <trkpt lat="44.11451" lon="5.62457">
        <ele>1202</ele>
        <time>2000-01-01T10:01:38.000Z</time>
      </trkpt>
      <trkpt lat="44.11483" lon="5.62468">
        <ele>1203</ele>
        <time>2000-01-01T10:01:48.000Z</time>
      </trkpt>
      <trkpt lat="44.11516" lon="5.6248">
        <ele>1205</ele>
        <time>2000-01-01T10:01:58.000Z</time>
      </trkpt>
      <trkpt lat="44.11548" lon="5.62483">
        <ele>1207</ele>
        <time>2000-01-01T10:02:08.000Z</time>
      </trkpt>
      <trkpt lat="44.11575" lon="5.62486">
        <ele>1209</ele>
        <time>2000-01-01T10:02:18.000Z</time>
      </trkpt>
      <trkpt lat="44.1161" lon="5.6249">
        <ele>1211</ele>
        <time>2000-01-01T10:02:28.000Z</time>
      </trkpt>
      <trkpt lat="44.11645" lon="5.62493">
        <ele>1214</ele>
        <time>2000-01-01T10:02:38.000Z</time>
      </trkpt>
      <trkpt lat="44.11673" lon="5.62512">
        <ele>1218</ele>
        <time>2000-01-01T10:02:48.000Z</time>
      </trkpt>
      <trkpt lat="44.11695" lon="5.62528">
        <ele>1218</ele>
        <time>2000-01-01T10:02:58.000Z</time>
      </trkpt>
      <trkpt lat="44.11719" lon="5.62545">
        <ele>1221</ele>
        <time>2000-01-01T10:03:08.000Z</time>
      </trkpt>
      <trkpt lat="44.11742" lon="5.62577">
        <ele>1222</ele>
        <time>2000-01-01T10:03:18.000Z</time>
      </trkpt>
      <trkpt lat="44.11765" lon="5.62609">
        <ele>1224</ele>
        <time>2000-01-01T10:03:28.000Z</time>
      </trkpt>
      <trkpt lat="44.1179" lon="5.62643">
        <ele>1224</ele>
        <time>2000-01-01T10:03:38.000Z</time>
      </trkpt>
      <trkpt lat="44.11819" lon="5.62656">
        <ele>1223</ele>
        <time>2000-01-01T10:03:48.000Z</time>
      </trkpt>
      <trkpt lat="44.11842" lon="5.62667">
        <ele>1223</ele>
        <time>2000-01-01T10:03:58.000Z</time>
      </trkpt>
      <trkpt lat="44.11867" lon="5.62678">
        <ele>1224</ele>
        <time>2000-01-01T10:04:08.000Z</time>
      </trkpt>
      <trkpt lat="44.11889" lon="5.62703">
        <ele>1225</ele>
        <time>2000-01-01T10:04:18.000Z</time>
      </trkpt>
      <trkpt lat="44.11919" lon="5.62738">
        <ele>1225</ele>
        <time>2000-01-01T10:04:28.000Z</time>
      </trkpt>
      <trkpt lat="44.11952" lon="5.62746">
        <ele>1216</ele>
        <time>2000-01-01T10:04:38.000Z</time>
      </trkpt>
      <trkpt lat="44.11981" lon="5.62754">
        <ele>1210</ele>
        <time>2000-01-01T10:04:48.000Z</time>
      </trkpt>
      <trkpt lat="44.12024" lon="5.62766">
        <ele>1211</ele>
        <time>2000-01-01T10:04:58.000Z</time>
      </trkpt>
      <trkpt lat="44.12051" lon="5.62768">
        <ele>1212</ele>
        <time>2000-01-01T10:05:08.000Z</time>
      </trkpt>
      <trkpt lat="44.12084" lon="5.6277">
        <ele>1217</ele>
        <time>2000-01-01T10:05:18.000Z</time>
      </trkpt>
      <trkpt lat="44.12123" lon="5.62772">
        <ele>1219</ele>
        <time>2000-01-01T10:05:28.000Z</time>
      </trkpt>
      <trkpt lat="44.12145" lon="5.6275">
        <ele>1222</ele>
        <time>2000-01-01T10:05:38.000Z</time>
      </trkpt>
      <trkpt lat="44.12175" lon="5.62721">
        <ele>1226</ele>
        <time>2000-01-01T10:05:48.000Z</time>
      </trkpt>
      <trkpt lat="44.12206" lon="5.62709">
        <ele>1229</ele>
        <time>2000-01-01T10:05:58.000Z</time>
      </trkpt>
      <trkpt lat="44.12236" lon="5.62698">
        <ele>1235</ele>
        <time>2000-01-01T10:06:08.000Z</time>
      </trkpt>
      <trkpt lat="44.12262" lon="5.62689">
        <ele>1238</ele>
        <time>2000-01-01T10:06:18.000Z</time>
      </trkpt>
      <trkpt lat="44.12292" lon="5.62678">
        <ele>1238</ele>
        <time>2000-01-01T10:06:28.000Z</time>
      </trkpt>
      <trkpt lat="44.12324" lon="5.62661">
        <ele>1238</ele>
        <time>2000-01-01T10:06:38.000Z</time>
      </trkpt>
      <trkpt lat="44.12355" lon="5.62644">
        <ele>1240</ele>
        <time>2000-01-01T10:06:48.000Z</time>
      </trkpt>
      <trkpt lat="44.12397" lon="5.62622">
        <ele>1253</ele>
        <time>2000-01-01T10:06:58.000Z</time>
      </trkpt>
      <trkpt lat="44.12433" lon="5.62614">
        <ele>1264</ele>
        <time>2000-01-01T10:07:08.000Z</time>
      </trkpt>
      <trkpt lat="44.12468" lon="5.62607">
        <ele>1272</ele>
        <time>2000-01-01T10:07:18.000Z</time>
      </trkpt>
      <trkpt lat="44.12497" lon="5.62601">
        <ele>1278</ele>
        <time>2000-01-01T10:07:28.000Z</time>
      </trkpt>
      <trkpt lat="44.12538" lon="5.62592">
        <ele>1284</ele>
        <time>2000-01-01T10:07:38.000Z</time>
      </trkpt>
      <trkpt lat="44.12569" lon="5.62605">
        <ele>1287</ele>
        <time>2000-01-01T10:07:48.000Z</time>
      </trkpt>
      <trkpt lat="44.12595" lon="5.62616">
        <ele>1288</ele>
        <time>2000-01-01T10:07:58.000Z</time>
      </trkpt>
      <trkpt lat="44.12628" lon="5.6263">
        <ele>1288</ele>
        <time>2000-01-01T10:08:08.000Z</time>
      </trkpt>
      <trkpt lat="44.12657" lon="5.6263">
        <ele>1290</ele>
        <time>2000-01-01T10:08:18.000Z</time>
      </trkpt>
      <trkpt lat="44.12699" lon="5.62631">
        <ele>1290</ele>
        <time>2000-01-01T10:08:28.000Z</time>
      </trkpt>
      <trkpt lat="44.12733" lon="5.62621">
        <ele>1290</ele>
        <time>2000-01-01T10:08:38.000Z</time>
      </trkpt>
      <trkpt lat="44.12764" lon="5.62613">
        <ele>1290</ele>
        <time>2000-01-01T10:08:48.000Z</time>
      </trkpt>
      <trkpt lat="44.1279" lon="5.62606">
        <ele>1290</ele>
        <time>2000-01-01T10:08:58.000Z</time>
      </trkpt>
      <trkpt lat="44.12822" lon="5.62597">
        <ele>1290</ele>
        <time>2000-01-01T10:09:08.000Z</time>
      </trkpt>
      <trkpt lat="44.1285" lon="5.62592">
        <ele>1290</ele>
        <time>2000-01-01T10:09:18.000Z</time>
      </trkpt>
      <trkpt lat="44.1289" lon="5.62585">
        <ele>1290</ele>
        <time>2000-01-01T10:09:28.000Z</time>
      </trkpt>
      <trkpt lat="44.12919" lon="5.62579">
        <ele>1290</ele>
        <time>2000-01-01T10:09:38.000Z</time>
      </trkpt>
      <trkpt lat="44.12966" lon="5.6257">
        <ele>1290</ele>
        <time>2000-01-01T10:09:48.000Z</time>
      </trkpt>
      <trkpt lat="44.13013" lon="5.62562">
        <ele>1290</ele>
        <time>2000-01-01T10:09:58.000Z</time>
      </trkpt>
      <trkpt lat="44.1304" lon="5.62552">
        <ele>1289</ele>
        <time>2000-01-01T10:10:08.000Z</time>
      </trkpt>
      <trkpt lat="44.13077" lon="5.62538">
        <ele>1286</ele>
        <time>2000-01-01T10:10:18.000Z</time>
      </trkpt>
      <trkpt lat="44.13117" lon="5.62524">
        <ele>1285</ele>
        <time>2000-01-01T10:10:28.000Z</time>
      </trkpt>
      <trkpt lat="44.13147" lon="5.62503">
        <ele>1283</ele>
        <time>2000-01-01T10:10:38.000Z</time>
      </trkpt>
      <trkpt lat="44.13176" lon="5.62481">
        <ele>1279</ele>
        <time>2000-01-01T10:10:48.000Z</time>
      </trkpt>
      <trkpt lat="44.13213" lon="5.62455">
        <ele>1274</ele>
        <time>2000-01-01T10:10:58.000Z</time>
      </trkpt>
      <trkpt lat="44.13249" lon="5.62441">
        <ele>1274</ele>
        <time>2000-01-01T10:11:08.000Z</time>
      </trkpt>
      <trkpt lat="44.13286" lon="5.62427">
        <ele>1274</ele>
        <time>2000-01-01T10:11:18.000Z</time>
      </trkpt>
      <trkpt lat="44.13322" lon="5.62413">
        <ele>1275</ele>
        <time>2000-01-01T10:11:28.000Z</time>
      </trkpt>
      <trkpt lat="44.13348" lon="5.62403">
        <ele>1275</ele>
        <time>2000-01-01T10:11:38.000Z</time>
      </trkpt>
      <trkpt lat="44.13379" lon="5.62391">
        <ele>1277</ele>
        <time>2000-01-01T10:11:48.000Z</time>
      </trkpt>
      <trkpt lat="44.1341" lon="5.62398">
        <ele>1280</ele>
        <time>2000-01-01T10:11:58.000Z</time>
      </trkpt>
      <trkpt lat="44.13435" lon="5.62405">
        <ele>1283</ele>
        <time>2000-01-01T10:12:08.000Z</time>
      </trkpt>
      <trkpt lat="44.13464" lon="5.62412">
        <ele>1286</ele>
        <time>2000-01-01T10:12:18.000Z</time>
      </trkpt>
      <trkpt lat="44.1348" lon="5.62441">
        <ele>1290</ele>
        <time>2000-01-01T10:12:28.000Z</time>
      </trkpt>
      <trkpt lat="44.135" lon="5.62476">
        <ele>1293</ele>
        <time>2000-01-01T10:12:38.000Z</time>
      </trkpt>
      <trkpt lat="44.13521" lon="5.62511">
        <ele>1294</ele>
        <time>2000-01-01T10:12:48.000Z</time>
      </trkpt>
      <trkpt lat="44.13547" lon="5.62485">
        <ele>1293</ele>
        <time>2000-01-01T10:12:58.000Z</time>
      </trkpt>
      <trkpt lat="44.13568" lon="5.62462">
        <ele>1292</ele>
        <time>2000-01-01T10:13:08.000Z</time>
      </trkpt>
      <trkpt lat="44.13595" lon="5.62434">
        <ele>1290</ele>
        <time>2000-01-01T10:13:18.000Z</time>
      </trkpt>
      <trkpt lat="44.1361" lon="5.62387">
        <ele>1290</ele>
        <time>2000-01-01T10:13:28.000Z</time>
      </trkpt>
      <trkpt lat="44.13625" lon="5.62341">
        <ele>1292</ele>
        <time>2000-01-01T10:13:38.000Z</time>
      </trkpt>
      <trkpt lat="44.1364" lon="5.62294">
        <ele>1292</ele>
        <time>2000-01-01T10:13:48.000Z</time>
      </trkpt>
      <trkpt lat="44.13657" lon="5.62241">
        <ele>1292</ele>
        <time>2000-01-01T10:13:58.000Z</time>
      </trkpt>
      <trkpt lat="44.13674" lon="5.62209">
        <ele>1293</ele>
        <time>2000-01-01T10:14:08.000Z</time>
      </trkpt>
      <trkpt lat="44.13698" lon="5.62164">
        <ele>1294</ele>
        <time>2000-01-01T10:14:18.000Z</time>
      </trkpt>
      <trkpt lat="44.13712" lon="5.62136">
        <ele>1296</ele>
        <time>2000-01-01T10:14:28.000Z</time>
      </trkpt>
      <trkpt lat="44.13727" lon="5.62108">
        <ele>1299</ele>
        <time>2000-01-01T10:14:38.000Z</time>
      </trkpt>
      <trkpt lat="44.13755" lon="5.62101">
        <ele>1300</ele>
        <time>2000-01-01T10:14:48.000Z</time>
      </trkpt>
      <trkpt lat="44.13798" lon="5.62091">
        <ele>1302</ele>
        <time>2000-01-01T10:14:58.000Z</time>
      </trkpt>
      <trkpt lat="44.13818" lon="5.6213">
        <ele>1305</ele>
        <time>2000-01-01T10:15:08.000Z</time>
      </trkpt>
      <trkpt lat="44.13839" lon="5.62169">
        <ele>1309</ele>
        <time>2000-01-01T10:15:18.000Z</time>
      </trkpt>
      <trkpt lat="44.13853" lon="5.62197">
        <ele>1312</ele>
        <time>2000-01-01T10:15:28.000Z</time>
      </trkpt>
      <trkpt lat="44.13869" lon="5.62228">
        <ele>1315</ele>
        <time>2000-01-01T10:15:38.000Z</time>
      </trkpt>
      <trkpt lat="44.13877" lon="5.62263">
        <ele>1318</ele>
        <time>2000-01-01T10:15:48.000Z</time>
      </trkpt>
      <trkpt lat="44.13886" lon="5.62307">
        <ele>1320</ele>
        <time>2000-01-01T10:15:58.000Z</time>
      </trkpt>
      <trkpt lat="44.13894" lon="5.62341">
        <ele>1322</ele>
        <time>2000-01-01T10:16:08.000Z</time>
      </trkpt>
      <trkpt lat="44.13903" lon="5.62378">
        <ele>1322</ele>
        <time>2000-01-01T10:16:18.000Z</time>
      </trkpt>
      <trkpt lat="44.1391" lon="5.62416">
        <ele>1323</ele>
        <time>2000-01-01T10:16:28.000Z</time>
      </trkpt>
      <trkpt lat="44.13919" lon="5.6247">
        <ele>1324</ele>
        <time>2000-01-01T10:16:38.000Z</time>
      </trkpt>
      <trkpt lat="44.13931" lon="5.62533">
        <ele>1325</ele>
        <time>2000-01-01T10:16:48.000Z</time>
      </trkpt>
      <trkpt lat="44.13929" lon="5.62571">
        <ele>1326</ele>
        <time>2000-01-01T10:16:58.000Z</time>
      </trkpt>
      <trkpt lat="44.13928" lon="5.62623">
        <ele>1326</ele>
        <time>2000-01-01T10:17:08.000Z</time>
      </trkpt>
      <trkpt lat="44.13914" lon="5.6266">
        <ele>1325</ele>
        <time>2000-01-01T10:17:18.000Z</time>
      </trkpt>
      <trkpt lat="44.13894" lon="5.62717">
        <ele>1325</ele>
        <time>2000-01-01T10:17:28.000Z</time>
      </trkpt>
      <trkpt lat="44.13913" lon="5.62745">
        <ele>1325</ele>
        <time>2000-01-01T10:17:38.000Z</time>
      </trkpt>
      <trkpt lat="44.1394" lon="5.62782">
        <ele>1323</ele>
        <time>2000-01-01T10:17:48.000Z</time>
      </trkpt>
      <trkpt lat="44.1396" lon="5.62815">
        <ele>1321</ele>
        <time>2000-01-01T10:17:58.000Z</time>
      </trkpt>
      <trkpt lat="44.13976" lon="5.62843">
        <ele>1320</ele>
        <time>2000-01-01T10:18:08.000Z</time>
      </trkpt>
      <trkpt lat="44.13995" lon="5.62876">
        <ele>1319</ele>
        <time>2000-01-01T10:18:18.000Z</time>
      </trkpt>
      <trkpt lat="44.14014" lon="5.62912">
        <ele>1317</ele>
        <time>2000-01-01T10:18:28.000Z</time>
      </trkpt>
      <trkpt lat="44.1403" lon="5.62943">
        <ele>1316</ele>
        <time>2000-01-01T10:18:38.000Z</time>
      </trkpt>
      <trkpt lat="44.14051" lon="5.62983">
        <ele>1314</ele>
        <time>2000-01-01T10:18:48.000Z</time>
      </trkpt>
      <trkpt lat="44.14065" lon="5.63019">
        <ele>1314</ele>
        <time>2000-01-01T10:18:58.000Z</time>
      </trkpt>
      <trkpt lat="44.14088" lon="5.63074">
        <ele>1313</ele>
        <time>2000-01-01T10:19:08.000Z</time>
      </trkpt>
      <trkpt lat="44.141" lon="5.63112">
        <ele>1312</ele>
        <time>2000-01-01T10:19:18.000Z</time>
      </trkpt>
      <trkpt lat="44.14119" lon="5.63172">
        <ele>1312</ele>
        <time>2000-01-01T10:19:28.000Z</time>
      </trkpt>
      <trkpt lat="44.14135" lon="5.63201">
        <ele>1311</ele>
        <time>2000-01-01T10:19:38.000Z</time>
      </trkpt>
      <trkpt lat="44.14156" lon="5.63237">
        <ele>1311</ele>
        <time>2000-01-01T10:19:48.000Z</time>
      </trkpt>
      <trkpt lat="44.14158" lon="5.6328">
        <ele>1310</ele>
        <time>2000-01-01T10:19:58.000Z</time>
      </trkpt>
      <trkpt lat="44.1416" lon="5.63316">
        <ele>1310</ele>
        <time>2000-01-01T10:20:08.000Z</time>
      </trkpt>
      <trkpt lat="44.14162" lon="5.63357">
        <ele>1310</ele>
        <time>2000-01-01T10:20:18.000Z</time>
      </trkpt>
      <trkpt lat="44.14146" lon="5.63397">
        <ele>1309</ele>
        <time>2000-01-01T10:20:28.000Z</time>
      </trkpt>
      <trkpt lat="44.14131" lon="5.63437">
        <ele>1307</ele>
        <time>2000-01-01T10:20:38.000Z</time>
      </trkpt>
      <trkpt lat="44.14114" lon="5.6348">
        <ele>1307</ele>
        <time>2000-01-01T10:20:48.000Z</time>
      </trkpt>
      <trkpt lat="44.14095" lon="5.63531">
        <ele>1307</ele>
        <time>2000-01-01T10:20:58.000Z</time>
      </trkpt>
      <trkpt lat="44.14079" lon="5.63576">
        <ele>1307</ele>
        <time>2000-01-01T10:21:08.000Z</time>
      </trkpt>
      <trkpt lat="44.1411" lon="5.6356">
        <ele>1305</ele>
        <time>2000-01-01T10:21:18.000Z</time>
      </trkpt>
      <trkpt lat="44.1414" lon="5.63544">
        <ele>1305</ele>
        <time>2000-01-01T10:21:28.000Z</time>
      </trkpt>
      <trkpt lat="44.14173" lon="5.63526">
        <ele>1306</ele>
        <time>2000-01-01T10:21:38.000Z</time>
      </trkpt>
      <trkpt lat="44.14207" lon="5.63507">
        <ele>1306</ele>
        <time>2000-01-01T10:21:48.000Z</time>
      </trkpt>
      <trkpt lat="44.14233" lon="5.63494">
        <ele>1308</ele>
        <time>2000-01-01T10:21:58.000Z</time>
      </trkpt>
      <trkpt lat="44.14266" lon="5.63476">
        <ele>1310</ele>
        <time>2000-01-01T10:22:08.000Z</time>
      </trkpt>
      <trkpt lat="44.14291" lon="5.63464">
        <ele>1312</ele>
        <time>2000-01-01T10:22:18.000Z</time>
      </trkpt>
      <trkpt lat="44.14322" lon="5.63457">
        <ele>1313</ele>
        <time>2000-01-01T10:22:28.000Z</time>
      </trkpt>
      <trkpt lat="44.14348" lon="5.6345">
        <ele>1313</ele>
        <time>2000-01-01T10:22:38.000Z</time>
      </trkpt>
      <trkpt lat="44.1438" lon="5.63443">
        <ele>1314</ele>
        <time>2000-01-01T10:22:48.000Z</time>
      </trkpt>
      <trkpt lat="44.14413" lon="5.63456">
        <ele>1314</ele>
        <time>2000-01-01T10:22:58.000Z</time>
      </trkpt>
      <trkpt lat="44.14442" lon="5.63468">
        <ele>1315</ele>
        <time>2000-01-01T10:23:08.000Z</time>
      </trkpt>
      <trkpt lat="44.14467" lon="5.63479">
        <ele>1317</ele>
        <time>2000-01-01T10:23:18.000Z</time>
      </trkpt>
      <trkpt lat="44.14494" lon="5.6349">
        <ele>1319</ele>
        <time>2000-01-01T10:23:28.000Z</time>
      </trkpt>
      <trkpt lat="44.14525" lon="5.635">
        <ele>1322</ele>
        <time>2000-01-01T10:23:38.000Z</time>
      </trkpt>
      <trkpt lat="44.14552" lon="5.63509">
        <ele>1325</ele>
        <time>2000-01-01T10:23:48.000Z</time>
      </trkpt>
      <trkpt lat="44.14587" lon="5.6352">
        <ele>1329</ele>
        <time>2000-01-01T10:23:58.000Z</time>
      </trkpt>
      <trkpt lat="44.14619" lon="5.63531">
        <ele>1332</ele>
        <time>2000-01-01T10:24:08.000Z</time>
      </trkpt>
      <trkpt lat="44.1465" lon="5.63542">
        <ele>1336</ele>
        <time>2000-01-01T10:24:18.000Z</time>
      </trkpt>
      <trkpt lat="44.14685" lon="5.63554">
        <ele>1339</ele>
        <time>2000-01-01T10:24:28.000Z</time>
      </trkpt>
      <trkpt lat="44.14717" lon="5.63564">
        <ele>1341</ele>
        <time>2000-01-01T10:24:38.000Z</time>
      </trkpt>
      <trkpt lat="44.14748" lon="5.63574">
        <ele>1344</ele>
        <time>2000-01-01T10:24:48.000Z</time>
      </trkpt>
      <trkpt lat="44.14781" lon="5.63584">
        <ele>1348</ele>
        <time>2000-01-01T10:24:58.000Z</time>
      </trkpt>
      <trkpt lat="44.14808" lon="5.63584">
        <ele>1349</ele>
        <time>2000-01-01T10:25:08.000Z</time>
      </trkpt>
      <trkpt lat="44.14842" lon="5.63584">
        <ele>1355</ele>
        <time>2000-01-01T10:25:18.000Z</time>
      </trkpt>
      <trkpt lat="44.14872" lon="5.63574">
        <ele>1359</ele>
        <time>2000-01-01T10:25:28.000Z</time>
      </trkpt>
      <trkpt lat="44.14896" lon="5.63566">
        <ele>1362</ele>
        <time>2000-01-01T10:25:38.000Z</time>
      </trkpt>
      <trkpt lat="44.14922" lon="5.63557">
        <ele>1365</ele>
        <time>2000-01-01T10:25:48.000Z</time>
      </trkpt>
      <trkpt lat="44.14933" lon="5.63606">
        <ele>1366</ele>
        <time>2000-01-01T10:25:58.000Z</time>
      </trkpt>
      <trkpt lat="44.14942" lon="5.63644">
        <ele>1366</ele>
        <time>2000-01-01T10:26:08.000Z</time>
      </trkpt>
      <trkpt lat="44.14956" lon="5.63702">
        <ele>1366</ele>
        <time>2000-01-01T10:26:18.000Z</time>
      </trkpt>
      <trkpt lat="44.14966" lon="5.63749">
        <ele>1366</ele>
        <time>2000-01-01T10:26:28.000Z</time>
      </trkpt>
      <trkpt lat="44.14974" lon="5.63784">
        <ele>1367</ele>
        <time>2000-01-01T10:26:38.000Z</time>
      </trkpt>
      <trkpt lat="44.14965" lon="5.63802">
        <ele>1368.7</ele>
        <time>2000-01-01T10:26:48.000Z</time>
      </trkpt>
      <trkpt lat="44.14966" lon="5.63834">
        <ele>1370</ele>
        <time>2000-01-01T10:26:58.000Z</time>
      </trkpt>
      <trkpt lat="44.14962" lon="5.63868">
        <ele>1373</ele>
        <time>2000-01-01T10:27:08.000Z</time>
      </trkpt>
      <trkpt lat="44.14957" lon="5.63898">
        <ele>1375</ele>
        <time>2000-01-01T10:27:18.000Z</time>
      </trkpt>
      <trkpt lat="44.14953" lon="5.63944">
        <ele>1382</ele>
        <time>2000-01-01T10:27:28.000Z</time>
      </trkpt>
      <trkpt lat="44.14945" lon="5.6398">
        <ele>1385</ele>
        <time>2000-01-01T10:27:38.000Z</time>
      </trkpt>
      <trkpt lat="44.1494" lon="5.6403">
        <ele>1391</ele>
        <time>2000-01-01T10:27:48.000Z</time>
      </trkpt>
      <trkpt lat="44.14937" lon="5.6407">
        <ele>1398</ele>
        <time>2000-01-01T10:27:58.000Z</time>
      </trkpt>
      <trkpt lat="44.14933" lon="5.64103">
        <ele>1402</ele>
        <time>2000-01-01T10:28:08.000Z</time>
      </trkpt>
      <trkpt lat="44.14931" lon="5.64158">
        <ele>1407</ele>
        <time>2000-01-01T10:28:18.000Z</time>
      </trkpt>
      <trkpt lat="44.14919" lon="5.64221">
        <ele>1410</ele>
        <time>2000-01-01T10:28:28.000Z</time>
      </trkpt>
      <trkpt lat="44.14919" lon="5.64246">
        <ele>1411.4</ele>
        <time>2000-01-01T10:28:38.000Z</time>
      </trkpt>
      <trkpt lat="44.14917" lon="5.64272">
        <ele>1410</ele>
        <time>2000-01-01T10:28:48.000Z</time>
      </trkpt>
      <trkpt lat="44.14913" lon="5.64305">
        <ele>1409</ele>
        <time>2000-01-01T10:28:58.000Z</time>
      </trkpt>
      <trkpt lat="44.14906" lon="5.64362">
        <ele>1407</ele>
        <time>2000-01-01T10:29:08.000Z</time>
      </trkpt>
      <trkpt lat="44.14891" lon="5.6441">
        <ele>1407</ele>
        <time>2000-01-01T10:29:18.000Z</time>
      </trkpt>
      <trkpt lat="44.14874" lon="5.64459">
        <ele>1413</ele>
        <time>2000-01-01T10:29:28.000Z</time>
      </trkpt>
      <trkpt lat="44.1486" lon="5.64502">
        <ele>1418</ele>
        <time>2000-01-01T10:29:38.000Z</time>
      </trkpt>
      <trkpt lat="44.14843" lon="5.64554">
        <ele>1422</ele>
        <time>2000-01-01T10:29:48.000Z</time>
      </trkpt>
      <trkpt lat="44.14828" lon="5.64607">
        <ele>1422</ele>
        <time>2000-01-01T10:29:58.000Z</time>
      </trkpt>
      <trkpt lat="44.1482" lon="5.64648">
        <ele>1420</ele>
        <time>2000-01-01T10:30:08.000Z</time>
      </trkpt>
      <trkpt lat="44.14809" lon="5.64689">
        <ele>1419</ele>
        <time>2000-01-01T10:30:18.000Z</time>
      </trkpt>
      <trkpt lat="44.14803" lon="5.64719">
        <ele>1416</ele>
        <time>2000-01-01T10:30:28.000Z</time>
      </trkpt>
      <trkpt lat="44.148" lon="5.64764">
        <ele>1409</ele>
        <time>2000-01-01T10:30:38.000Z</time>
      </trkpt>
      <trkpt lat="44.14805" lon="5.64792">
        <ele>1404</ele>
        <time>2000-01-01T10:30:48.000Z</time>
      </trkpt>
      <trkpt lat="44.14806" lon="5.64848">
        <ele>1396</ele>
        <time>2000-01-01T10:30:58.000Z</time>
      </trkpt>
      <trkpt lat="44.14811" lon="5.64904">
        <ele>1391</ele>
        <time>2000-01-01T10:31:08.000Z</time>
      </trkpt>
      <trkpt lat="44.14814" lon="5.64962">
        <ele>1386</ele>
        <time>2000-01-01T10:31:18.000Z</time>
      </trkpt>
      <trkpt lat="44.14812" lon="5.65016">
        <ele>1386</ele>
        <time>2000-01-01T10:31:28.000Z</time>
      </trkpt>
      <trkpt lat="44.14811" lon="5.65059">
        <ele>1387</ele>
        <time>2000-01-01T10:31:38.000Z</time>
      </trkpt>
      <trkpt lat="44.14806" lon="5.65112">
        <ele>1388</ele>
        <time>2000-01-01T10:31:48.000Z</time>
      </trkpt>
      <trkpt lat="44.14808" lon="5.65157">
        <ele>1389</ele>
        <time>2000-01-01T10:31:58.000Z</time>
      </trkpt>
      <trkpt lat="44.14805" lon="5.65187">
        <ele>1390</ele>
        <time>2000-01-01T10:32:08.000Z</time>
      </trkpt>
      <trkpt lat="44.14805" lon="5.65252">
        <ele>1393</ele>
        <time>2000-01-01T10:32:18.000Z</time>
      </trkpt>
      <trkpt lat="44.14803" lon="5.65286">
        <ele>1395</ele>
        <time>2000-01-01T10:32:28.000Z</time>
      </trkpt>
      <trkpt lat="44.14805" lon="5.65318">
        <ele>1397</ele>
        <time>2000-01-01T10:32:38.000Z</time>
      </trkpt>
      <trkpt lat="44.14797" lon="5.65361">
        <ele>1401</ele>
        <time>2000-01-01T10:32:48.000Z</time>
      </trkpt>
      <trkpt lat="44.14783" lon="5.65402">
        <ele>1405</ele>
        <time>2000-01-01T10:32:58.000Z</time>
      </trkpt>
      <trkpt lat="44.14766" lon="5.65445">
        <ele>1409</ele>
        <time>2000-01-01T10:33:08.000Z</time>
      </trkpt>
      <trkpt lat="44.14751" lon="5.65499">
        <ele>1417</ele>
        <time>2000-01-01T10:33:18.000Z</time>
      </trkpt>
      <trkpt lat="44.14734" lon="5.65533">
        <ele>1422</ele>
        <time>2000-01-01T10:33:28.000Z</time>
      </trkpt>
      <trkpt lat="44.14725" lon="5.65572">
        <ele>1427</ele>
        <time>2000-01-01T10:33:38.000Z</time>
      </trkpt>
      <trkpt lat="44.14697" lon="5.65609">
        <ele>1426</ele>
        <time>2000-01-01T10:33:48.000Z</time>
      </trkpt>
      <trkpt lat="44.14666" lon="5.65616">
        <ele>1425</ele>
        <time>2000-01-01T10:33:58.000Z</time>
      </trkpt>
      <trkpt lat="44.14641" lon="5.65623">
        <ele>1424</ele>
        <time>2000-01-01T10:34:08.000Z</time>
      </trkpt>
      <trkpt lat="44.14611" lon="5.6563">
        <ele>1423</ele>
        <time>2000-01-01T10:34:18.000Z</time>
      </trkpt>
      <trkpt lat="44.14608" lon="5.65669">
        <ele>1420</ele>
        <time>2000-01-01T10:34:28.000Z</time>
      </trkpt>
      <trkpt lat="44.14605" lon="5.65725">
        <ele>1410</ele>
        <time>2000-01-01T10:34:38.000Z</time>
      </trkpt>
      <trkpt lat="44.14625" lon="5.6575">
        <ele>1408</ele>
        <time>2000-01-01T10:34:48.000Z</time>
      </trkpt>
      <trkpt lat="44.14648" lon="5.65779">
        <ele>1402</ele>
        <time>2000-01-01T10:34:58.000Z</time>
      </trkpt>
      <trkpt lat="44.14672" lon="5.65811">
        <ele>1392</ele>
        <time>2000-01-01T10:35:08.000Z</time>
      </trkpt>
      <trkpt lat="44.1469" lon="5.6585">
        <ele>1383</ele>
        <time>2000-01-01T10:35:18.000Z</time>
      </trkpt>
      <trkpt lat="44.14705" lon="5.65885">
        <ele>1373</ele>
        <time>2000-01-01T10:35:28.000Z</time>
      </trkpt>
      <trkpt lat="44.14727" lon="5.65936">
        <ele>1357</ele>
        <time>2000-01-01T10:35:38.000Z</time>
      </trkpt>
      <trkpt lat="44.14749" lon="5.65966">
        <ele>1347</ele>
        <time>2000-01-01T10:35:48.000Z</time>
      </trkpt>
      <trkpt lat="44.14768" lon="5.6599">
        <ele>1341</ele>
        <time>2000-01-01T10:35:58.000Z</time>
      </trkpt>
      <trkpt lat="44.14774" lon="5.66028">
        <ele>1330</ele>
        <time>2000-01-01T10:36:08.000Z</time>
      </trkpt>
      <trkpt lat="44.1478" lon="5.66072">
        <ele>1319</ele>
        <time>2000-01-01T10:36:18.000Z</time>
      </trkpt>
      <trkpt lat="44.14788" lon="5.661">
        <ele>1314</ele>
        <time>2000-01-01T10:36:28.000Z</time>
      </trkpt>
      <trkpt lat="44.14788" lon="5.66158">
        <ele>1311</ele>
        <time>2000-01-01T10:36:38.000Z</time>
      </trkpt>
      <trkpt lat="44.14793" lon="5.66196">
        <ele>1308</ele>
        <time>2000-01-01T10:36:48.000Z</time>
      </trkpt>
      <trkpt lat="44.14777" lon="5.66238">
        <ele>1308</ele>
        <time>2000-01-01T10:36:58.000Z</time>
      </trkpt>
      <trkpt lat="44.14783" lon="5.66272">
        <ele>1312</ele>
        <time>2000-01-01T10:37:08.000Z</time>
      </trkpt>
      <trkpt lat="44.14789" lon="5.66307">
        <ele>1314</ele>
        <time>2000-01-01T10:37:18.000Z</time>
      </trkpt>
      <trkpt lat="44.14791" lon="5.66347">
        <ele>1319</ele>
        <time>2000-01-01T10:37:28.000Z</time>
      </trkpt>
      <trkpt lat="44.14792" lon="5.66405">
        <ele>1326</ele>
        <time>2000-01-01T10:37:38.000Z</time>
      </trkpt>
      <trkpt lat="44.14802" lon="5.66439">
        <ele>1330</ele>
        <time>2000-01-01T10:37:48.000Z</time>
      </trkpt>
      <trkpt lat="44.14814" lon="5.66478">
        <ele>1335</ele>
        <time>2000-01-01T10:37:58.000Z</time>
      </trkpt>
      <trkpt lat="44.14817" lon="5.66516">
        <ele>1339</ele>
        <time>2000-01-01T10:38:08.000Z</time>
      </trkpt>
      <trkpt lat="44.1482" lon="5.66564">
        <ele>1342</ele>
        <time>2000-01-01T10:38:18.000Z</time>
      </trkpt>
      <trkpt lat="44.14848" lon="5.66573">
        <ele>1346</ele>
        <time>2000-01-01T10:38:28.000Z</time>
      </trkpt>
      <trkpt lat="44.14873" lon="5.6658">
        <ele>1347</ele>
        <time>2000-01-01T10:38:38.000Z</time>
      </trkpt>
      <trkpt lat="44.14881" lon="5.66614">
        <ele>1352</ele>
        <time>2000-01-01T10:38:48.000Z</time>
      </trkpt>
      <trkpt lat="44.14887" lon="5.66645">
        <ele>1355</ele>
        <time>2000-01-01T10:38:58.000Z</time>
      </trkpt>
      <trkpt lat="44.1489" lon="5.6668">
        <ele>1358</ele>
        <time>2000-01-01T10:39:08.000Z</time>
      </trkpt>
      <trkpt lat="44.14888" lon="5.66718">
        <ele>1361</ele>
        <time>2000-01-01T10:39:18.000Z</time>
      </trkpt>
      <trkpt lat="44.14894" lon="5.66748">
        <ele>1364</ele>
        <time>2000-01-01T10:39:28.000Z</time>
      </trkpt>
      <trkpt lat="44.14882" lon="5.66777">
        <ele>1367</ele>
        <time>2000-01-01T10:39:38.000Z</time>
      </trkpt>
      <trkpt lat="44.14869" lon="5.66807">
        <ele>1370</ele>
        <time>2000-01-01T10:39:48.000Z</time>
      </trkpt>
      <trkpt lat="44.14861" lon="5.6684">
        <ele>1375</ele>
        <time>2000-01-01T10:39:58.000Z</time>
      </trkpt>
      <trkpt lat="44.14852" lon="5.66873">
        <ele>1381</ele>
        <time>2000-01-01T10:40:08.000Z</time>
      </trkpt>
      <trkpt lat="44.14836" lon="5.66913">
        <ele>1382</ele>
        <time>2000-01-01T10:40:18.000Z</time>
      </trkpt>
      <trkpt lat="44.14825" lon="5.66961">
        <ele>1386</ele>
        <time>2000-01-01T10:40:28.000Z</time>
      </trkpt>
      <trkpt lat="44.14816" lon="5.67014">
        <ele>1387</ele>
        <time>2000-01-01T10:40:38.000Z</time>
      </trkpt>
      <trkpt lat="44.14807" lon="5.6707">
        <ele>1389</ele>
        <time>2000-01-01T10:40:48.000Z</time>
      </trkpt>
      <trkpt lat="44.14796" lon="5.67121">
        <ele>1390</ele>
        <time>2000-01-01T10:40:58.000Z</time>
      </trkpt>
      <trkpt lat="44.14783" lon="5.67175">
        <ele>1394</ele>
        <time>2000-01-01T10:41:08.000Z</time>
      </trkpt>
      <trkpt lat="44.14774" lon="5.67226">
        <ele>1400</ele>
        <time>2000-01-01T10:41:18.000Z</time>
      </trkpt>
      <trkpt lat="44.14765" lon="5.67266">
        <ele>1406</ele>
        <time>2000-01-01T10:41:28.000Z</time>
      </trkpt>
      <trkpt lat="44.14755" lon="5.67305">
        <ele>1415</ele>
        <time>2000-01-01T10:41:38.000Z</time>
      </trkpt>
      <trkpt lat="44.14745" lon="5.67349">
        <ele>1427</ele>
        <time>2000-01-01T10:41:48.000Z</time>
      </trkpt>
      <trkpt lat="44.1474" lon="5.67384">
        <ele>1441</ele>
        <time>2000-01-01T10:41:58.000Z</time>
      </trkpt>
      <trkpt lat="44.14736" lon="5.67422">
        <ele>1450</ele>
        <time>2000-01-01T10:42:08.000Z</time>
      </trkpt>
      <trkpt lat="44.14729" lon="5.67461">
        <ele>1464</ele>
        <time>2000-01-01T10:42:18.000Z</time>
      </trkpt>
      <trkpt lat="44.1472" lon="5.67503">
        <ele>1476</ele>
        <time>2000-01-01T10:42:28.000Z</time>
      </trkpt>
      <trkpt lat="44.14705" lon="5.67547">
        <ele>1486</ele>
        <time>2000-01-01T10:42:38.000Z</time>
      </trkpt>
      <trkpt lat="44.14695" lon="5.6759">
        <ele>1495</ele>
        <time>2000-01-01T10:42:48.000Z</time>
      </trkpt>
      <trkpt lat="44.14683" lon="5.67629">
        <ele>1506</ele>
        <time>2000-01-01T10:42:58.000Z</time>
      </trkpt>
      <trkpt lat="44.14671" lon="5.67671">
        <ele>1511</ele>
        <time>2000-01-01T10:43:08.000Z</time>
      </trkpt>
      <trkpt lat="44.14653" lon="5.6773">
        <ele>1516</ele>
        <time>2000-01-01T10:43:18.000Z</time>
      </trkpt>
      <trkpt lat="44.14635" lon="5.67761">
        <ele>1520</ele>
        <time>2000-01-01T10:43:28.000Z</time>
      </trkpt>
      <trkpt lat="44.14609" lon="5.67804">
        <ele>1526</ele>
        <time>2000-01-01T10:43:38.000Z</time>
      </trkpt>
      <trkpt lat="44.14602" lon="5.67844">
        <ele>1532</ele>
        <time>2000-01-01T10:43:48.000Z</time>
      </trkpt>
      <trkpt lat="44.14591" lon="5.67907">
        <ele>1532</ele>
        <time>2000-01-01T10:43:58.000Z</time>
      </trkpt>
      <trkpt lat="44.14578" lon="5.67943">
        <ele>1532</ele>
        <time>2000-01-01T10:44:08.000Z</time>
      </trkpt>
      <trkpt lat="44.1456" lon="5.67994">
        <ele>1527</ele>
        <time>2000-01-01T10:44:18.000Z</time>
      </trkpt>
      <trkpt lat="44.14548" lon="5.68026">
        <ele>1523</ele>
        <time>2000-01-01T10:44:28.000Z</time>
      </trkpt>
      <trkpt lat="44.14535" lon="5.68062">
        <ele>1516</ele>
        <time>2000-01-01T10:44:38.000Z</time>
      </trkpt>
      <trkpt lat="44.14549" lon="5.68104">
        <ele>1509</ele>
        <time>2000-01-01T10:44:48.000Z</time>
      </trkpt>
      <trkpt lat="44.1456" lon="5.68141">
        <ele>1494</ele>
        <time>2000-01-01T10:44:58.000Z</time>
      </trkpt>
      <trkpt lat="44.14578" lon="5.68199">
        <ele>1466</ele>
        <time>2000-01-01T10:45:08.000Z</time>
      </trkpt>
      <trkpt lat="44.14567" lon="5.68235">
        <ele>1438</ele>
        <time>2000-01-01T10:45:18.000Z</time>
      </trkpt>
      <trkpt lat="44.14552" lon="5.68284">
        <ele>1437</ele>
        <time>2000-01-01T10:45:28.000Z</time>
      </trkpt>
      <trkpt lat="44.1454" lon="5.68321">
        <ele>1437</ele>
        <time>2000-01-01T10:45:38.000Z</time>
      </trkpt>
      <trkpt lat="44.14521" lon="5.68379">
        <ele>1441</ele>
        <time>2000-01-01T10:45:48.000Z</time>
      </trkpt>
      <trkpt lat="44.14506" lon="5.68422">
        <ele>1449</ele>
        <time>2000-01-01T10:45:58.000Z</time>
      </trkpt>
      <trkpt lat="44.14486" lon="5.68482">
        <ele>1468</ele>
        <time>2000-01-01T10:46:08.000Z</time>
      </trkpt>
      <trkpt lat="44.14476" lon="5.68526">
        <ele>1468</ele>
        <time>2000-01-01T10:46:18.000Z</time>
      </trkpt>
      <trkpt lat="44.14466" lon="5.6857">
        <ele>1468</ele>
        <time>2000-01-01T10:46:28.000Z</time>
      </trkpt>
      <trkpt lat="44.14455" lon="5.6862">
        <ele>1466</ele>
        <time>2000-01-01T10:46:38.000Z</time>
      </trkpt>
      <trkpt lat="44.14457" lon="5.68655">
        <ele>1466</ele>
        <time>2000-01-01T10:46:48.000Z</time>
      </trkpt>
      <trkpt lat="44.14459" lon="5.68695">
        <ele>1464</ele>
        <time>2000-01-01T10:46:58.000Z</time>
      </trkpt>
      <trkpt lat="44.14434" lon="5.68698">
        <ele>1462</ele>
        <time>2000-01-01T10:47:08.000Z</time>
      </trkpt>
      <trkpt lat="44.14406" lon="5.68702">
        <ele>1461</ele>
        <time>2000-01-01T10:47:18.000Z</time>
      </trkpt>
      <trkpt lat="44.14422" lon="5.6874">
        <ele>1460</ele>
        <time>2000-01-01T10:47:28.000Z</time>
      </trkpt>
      <trkpt lat="44.14435" lon="5.68771">
        <ele>1458</ele>
        <time>2000-01-01T10:47:38.000Z</time>
      </trkpt>
      <trkpt lat="44.1445" lon="5.68808">
        <ele>1455</ele>
        <time>2000-01-01T10:47:48.000Z</time>
      </trkpt>
      <trkpt lat="44.14447" lon="5.68847">
        <ele>1453</ele>
        <time>2000-01-01T10:47:58.000Z</time>
      </trkpt>
      <trkpt lat="44.14442" lon="5.68901">
        <ele>1450</ele>
        <time>2000-01-01T10:48:08.000Z</time>
      </trkpt>
      <trkpt lat="44.14441" lon="5.68937">
        <ele>1450</ele>
        <time>2000-01-01T10:48:18.000Z</time>
      </trkpt>
      <trkpt lat="44.14439" lon="5.68978">
        <ele>1446</ele>
        <time>2000-01-01T10:48:28.000Z</time>
      </trkpt>
      <trkpt lat="44.1443" lon="5.6904">
        <ele>1443</ele>
        <time>2000-01-01T10:48:38.000Z</time>
      </trkpt>
      <trkpt lat="44.14413" lon="5.69079">
        <ele>1437</ele>
        <time>2000-01-01T10:48:48.000Z</time>
      </trkpt>
      <trkpt lat="44.14396" lon="5.69117">
        <ele>1428</ele>
        <time>2000-01-01T10:48:58.000Z</time>
      </trkpt>
      <trkpt lat="44.14377" lon="5.69159">
        <ele>1420</ele>
        <time>2000-01-01T10:49:08.000Z</time>
      </trkpt>
      <trkpt lat="44.14356" lon="5.69208">
        <ele>1407</ele>
        <time>2000-01-01T10:49:18.000Z</time>
      </trkpt>
      <trkpt lat="44.14338" lon="5.6924">
        <ele>1398</ele>
        <time>2000-01-01T10:49:28.000Z</time>
      </trkpt>
      <trkpt lat="44.1431" lon="5.69289">
        <ele>1389</ele>
        <time>2000-01-01T10:49:38.000Z</time>
      </trkpt>
      <trkpt lat="44.14302" lon="5.69327">
        <ele>1384</ele>
        <time>2000-01-01T10:49:48.000Z</time>
      </trkpt>
      <trkpt lat="44.14291" lon="5.69381">
        <ele>1383</ele>
        <time>2000-01-01T10:49:58.000Z</time>
      </trkpt>
      <trkpt lat="44.14287" lon="5.69437">
        <ele>1383</ele>
        <time>2000-01-01T10:50:08.000Z</time>
      </trkpt>
      <trkpt lat="44.14297" lon="5.69474">
        <ele>1383</ele>
        <time>2000-01-01T10:50:18.000Z</time>
      </trkpt>
      <trkpt lat="44.14311" lon="5.69525">
        <ele>1383</ele>
        <time>2000-01-01T10:50:28.000Z</time>
      </trkpt>
      <trkpt lat="44.14326" lon="5.69556">
        <ele>1383</ele>
        <time>2000-01-01T10:50:38.000Z</time>
      </trkpt>
      <trkpt lat="44.14345" lon="5.69596">
        <ele>1383</ele>
        <time>2000-01-01T10:50:48.000Z</time>
      </trkpt>
      <trkpt lat="44.14365" lon="5.69656">
        <ele>1383</ele>
        <time>2000-01-01T10:50:58.000Z</time>
      </trkpt>
      <trkpt lat="44.14385" lon="5.69705">
        <ele>1382</ele>
        <time>2000-01-01T10:51:08.000Z</time>
      </trkpt>
      <trkpt lat="44.14395" lon="5.69739">
        <ele>1381</ele>
        <time>2000-01-01T10:51:18.000Z</time>
      </trkpt>
      <trkpt lat="44.14407" lon="5.69778">
        <ele>1380</ele>
        <time>2000-01-01T10:51:28.000Z</time>
      </trkpt>
      <trkpt lat="44.14414" lon="5.69815">
        <ele>1380</ele>
        <time>2000-01-01T10:51:38.000Z</time>
      </trkpt>
      <trkpt lat="44.14424" lon="5.6986">
        <ele>1383</ele>
        <time>2000-01-01T10:51:48.000Z</time>
      </trkpt>
      <trkpt lat="44.14427" lon="5.6992">
        <ele>1382</ele>
        <time>2000-01-01T10:51:58.000Z</time>
      </trkpt>
      <trkpt lat="44.14416" lon="5.69957">
        <ele>1382</ele>
        <time>2000-01-01T10:52:08.000Z</time>
      </trkpt>
      <trkpt lat="44.14392" lon="5.69977">
        <ele>1375</ele>
        <time>2000-01-01T10:52:18.000Z</time>
      </trkpt>
      <trkpt lat="44.14361" lon="5.70004">
        <ele>1364</ele>
        <time>2000-01-01T10:52:28.000Z</time>
      </trkpt>
      <trkpt lat="44.14334" lon="5.70016">
        <ele>1356</ele>
        <time>2000-01-01T10:52:38.000Z</time>
      </trkpt>
      <trkpt lat="44.14296" lon="5.70034">
        <ele>1346</ele>
        <time>2000-01-01T10:52:48.000Z</time>
      </trkpt>
      <trkpt lat="44.14269" lon="5.70041">
        <ele>1339</ele>
        <time>2000-01-01T10:52:58.000Z</time>
      </trkpt>
      <trkpt lat="44.14233" lon="5.70051">
        <ele>1335</ele>
        <time>2000-01-01T10:53:08.000Z</time>
      </trkpt>
      <trkpt lat="44.14205" lon="5.70069">
        <ele>1335</ele>
        <time>2000-01-01T10:53:18.000Z</time>
      </trkpt>
      <trkpt lat="44.14182" lon="5.70084">
        <ele>1337</ele>
        <time>2000-01-01T10:53:28.000Z</time>
      </trkpt>
      <trkpt lat="44.14157" lon="5.701">
        <ele>1339</ele>
        <time>2000-01-01T10:53:38.000Z</time>
      </trkpt>
      <trkpt lat="44.14113" lon="5.701">
        <ele>1342</ele>
        <time>2000-01-01T10:53:48.000Z</time>
      </trkpt>
      <trkpt lat="44.14083" lon="5.70124">
        <ele>1344</ele>
        <time>2000-01-01T10:53:58.000Z</time>
      </trkpt>
      <trkpt lat="44.14063" lon="5.70167">
        <ele>1344</ele>
        <time>2000-01-01T10:54:08.000Z</time>
      </trkpt>
      <trkpt lat="44.1404" lon="5.70214">
        <ele>1343</ele>
        <time>2000-01-01T10:54:18.000Z</time>
      </trkpt>
      <trkpt lat="44.14016" lon="5.7024">
        <ele>1341</ele>
        <time>2000-01-01T10:54:28.000Z</time>
      </trkpt>
      <trkpt lat="44.13988" lon="5.70263">
        <ele>1338</ele>
        <time>2000-01-01T10:54:38.000Z</time>
      </trkpt>
      <trkpt lat="44.13974" lon="5.70291">
        <ele>1337</ele>
        <time>2000-01-01T10:54:48.000Z</time>
      </trkpt>
      <trkpt lat="44.13951" lon="5.70319">
        <ele>1336</ele>
        <time>2000-01-01T10:54:58.000Z</time>
      </trkpt>
      <trkpt lat="44.13942" lon="5.70338">
        <ele>1335.3</ele>
        <time>2000-01-01T10:55:08.000Z</time>
      </trkpt>
      <trkpt lat="44.13925" lon="5.7036">
        <ele>1334</ele>
        <time>2000-01-01T10:55:18.000Z</time>
      </trkpt>
      <trkpt lat="44.13906" lon="5.70383">
        <ele>1330</ele>
        <time>2000-01-01T10:55:28.000Z</time>
      </trkpt>
      <trkpt lat="44.13888" lon="5.70403">
        <ele>1327</ele>
        <time>2000-01-01T10:55:38.000Z</time>
      </trkpt>
      <trkpt lat="44.13852" lon="5.70441">
        <ele>1317</ele>
        <time>2000-01-01T10:55:48.000Z</time>
      </trkpt>
      <trkpt lat="44.13823" lon="5.70463">
        <ele>1312</ele>
        <time>2000-01-01T10:55:58.000Z</time>
      </trkpt>
      <trkpt lat="44.13785" lon="5.70504">
        <ele>1299</ele>
        <time>2000-01-01T10:56:08.000Z</time>
      </trkpt>
      <trkpt lat="44.1375" lon="5.70517">
        <ele>1295</ele>
        <time>2000-01-01T10:56:18.000Z</time>
      </trkpt>
      <trkpt lat="44.13729" lon="5.70543">
        <ele>1293</ele>
        <time>2000-01-01T10:56:28.000Z</time>
      </trkpt>
      <trkpt lat="44.13707" lon="5.70568">
        <ele>1295</ele>
        <time>2000-01-01T10:56:38.000Z</time>
      </trkpt>
      <trkpt lat="44.13677" lon="5.70604">
        <ele>1298</ele>
        <time>2000-01-01T10:56:48.000Z</time>
      </trkpt>
      <trkpt lat="44.13653" lon="5.70631">
        <ele>1304</ele>
        <time>2000-01-01T10:56:58.000Z</time>
      </trkpt>
      <trkpt lat="44.13633" lon="5.70654">
        <ele>1309</ele>
        <time>2000-01-01T10:57:08.000Z</time>
      </trkpt>
      <trkpt lat="44.13611" lon="5.70679">
        <ele>1315</ele>
        <time>2000-01-01T10:57:18.000Z</time>
      </trkpt>
      <trkpt lat="44.13612" lon="5.70721">
        <ele>1332</ele>
        <time>2000-01-01T10:57:28.000Z</time>
      </trkpt>
      <trkpt lat="44.13613" lon="5.70755">
        <ele>1343</ele>
        <time>2000-01-01T10:57:38.000Z</time>
      </trkpt>
      <trkpt lat="44.13614" lon="5.70791">
        <ele>1356</ele>
        <time>2000-01-01T10:57:48.000Z</time>
      </trkpt>
      <trkpt lat="44.13609" lon="5.7084">
        <ele>1372</ele>
        <time>2000-01-01T10:57:58.000Z</time>
      </trkpt>
      <trkpt lat="44.13604" lon="5.70889">
        <ele>1390</ele>
        <time>2000-01-01T10:58:08.000Z</time>
      </trkpt>
      <trkpt lat="44.136" lon="5.70926">
        <ele>1408</ele>
        <time>2000-01-01T10:58:18.000Z</time>
      </trkpt>
      <trkpt lat="44.13595" lon="5.70975">
        <ele>1430</ele>
        <time>2000-01-01T10:58:28.000Z</time>
      </trkpt>
      <trkpt lat="44.13593" lon="5.71012">
        <ele>1444</ele>
        <time>2000-01-01T10:58:38.000Z</time>
      </trkpt>
      <trkpt lat="44.1359" lon="5.7105">
        <ele>1456</ele>
        <time>2000-01-01T10:58:48.000Z</time>
      </trkpt>
      <trkpt lat="44.13587" lon="5.71098">
        <ele>1472</ele>
        <time>2000-01-01T10:58:58.000Z</time>
      </trkpt>
      <trkpt lat="44.13582" lon="5.71156">
        <ele>1489</ele>
        <time>2000-01-01T10:59:08.000Z</time>
      </trkpt>
      <trkpt lat="44.13577" lon="5.71204">
        <ele>1505</ele>
        <time>2000-01-01T10:59:18.000Z</time>
      </trkpt>
      <trkpt lat="44.13574" lon="5.71239">
        <ele>1514</ele>
        <time>2000-01-01T10:59:28.000Z</time>
      </trkpt>
      <trkpt lat="44.13571" lon="5.71276">
        <ele>1522</ele>
        <time>2000-01-01T10:59:38.000Z</time>
      </trkpt>
      <trkpt lat="44.13581" lon="5.71309">
        <ele>1524</ele>
        <time>2000-01-01T10:59:48.000Z</time>
      </trkpt>
      <trkpt lat="44.13593" lon="5.71349">
        <ele>1525</ele>
        <time>2000-01-01T10:59:58.000Z</time>
      </trkpt>
      <trkpt lat="44.13605" lon="5.71387">
        <ele>1527</ele>
        <time>2000-01-01T11:00:08.000Z</time>
      </trkpt>
      <trkpt lat="44.1362" lon="5.71429">
        <ele>1528</ele>
        <time>2000-01-01T11:00:18.000Z</time>
      </trkpt>
      <trkpt lat="44.13634" lon="5.71465">
        <ele>1528</ele>
        <time>2000-01-01T11:00:28.000Z</time>
      </trkpt>
      <trkpt lat="44.13657" lon="5.71524">
        <ele>1526</ele>
        <time>2000-01-01T11:00:38.000Z</time>
      </trkpt>
      <trkpt lat="44.13667" lon="5.71564">
        <ele>1525</ele>
        <time>2000-01-01T11:00:48.000Z</time>
      </trkpt>
      <trkpt lat="44.13676" lon="5.71597">
        <ele>1523</ele>
        <time>2000-01-01T11:00:58.000Z</time>
      </trkpt>
      <trkpt lat="44.13685" lon="5.71632">
        <ele>1520</ele>
        <time>2000-01-01T11:01:08.000Z</time>
      </trkpt>
      <trkpt lat="44.13699" lon="5.71672">
        <ele>1517</ele>
        <time>2000-01-01T11:01:18.000Z</time>
      </trkpt>
      <trkpt lat="44.13712" lon="5.71707">
        <ele>1513</ele>
        <time>2000-01-01T11:01:28.000Z</time>
      </trkpt>
      <trkpt lat="44.1373" lon="5.71755">
        <ele>1505</ele>
        <time>2000-01-01T11:01:38.000Z</time>
      </trkpt>
      <trkpt lat="44.13744" lon="5.71791">
        <ele>1499</ele>
        <time>2000-01-01T11:01:48.000Z</time>
      </trkpt>
      <trkpt lat="44.13767" lon="5.71849">
        <ele>1491</ele>
        <time>2000-01-01T11:01:58.000Z</time>
      </trkpt>
      <trkpt lat="44.13743" lon="5.7188">
        <ele>1486</ele>
        <time>2000-01-01T11:02:08.000Z</time>
      </trkpt>
      <trkpt lat="44.13723" lon="5.71907">
        <ele>1484</ele>
        <time>2000-01-01T11:02:18.000Z</time>
      </trkpt>
      <trkpt lat="44.13695" lon="5.71944">
        <ele>1486</ele>
        <time>2000-01-01T11:02:28.000Z</time>
      </trkpt>
      <trkpt lat="44.13674" lon="5.71971">
        <ele>1488</ele>
        <time>2000-01-01T11:02:38.000Z</time>
      </trkpt>
      <trkpt lat="44.13645" lon="5.72008">
        <ele>1496</ele>
        <time>2000-01-01T11:02:48.000Z</time>
      </trkpt>
      <trkpt lat="44.13626" lon="5.72034">
        <ele>1504</ele>
        <time>2000-01-01T11:02:58.000Z</time>
      </trkpt>
      <trkpt lat="44.13603" lon="5.72064">
        <ele>1512</ele>
        <time>2000-01-01T11:03:08.000Z</time>
      </trkpt>
      <trkpt lat="44.13576" lon="5.72095">
        <ele>1526</ele>
        <time>2000-01-01T11:03:18.000Z</time>
      </trkpt>
      <trkpt lat="44.13549" lon="5.72126">
        <ele>1541</ele>
        <time>2000-01-01T11:03:28.000Z</time>
      </trkpt>
      <trkpt lat="44.13529" lon="5.72149">
        <ele>1550</ele>
        <time>2000-01-01T11:03:38.000Z</time>
      </trkpt>
      <trkpt lat="44.13505" lon="5.72176">
        <ele>1561</ele>
        <time>2000-01-01T11:03:48.000Z</time>
      </trkpt>
      <trkpt lat="44.13482" lon="5.72198">
        <ele>1568</ele>
        <time>2000-01-01T11:03:58.000Z</time>
      </trkpt>
      <trkpt lat="44.1345" lon="5.72227">
        <ele>1577</ele>
        <time>2000-01-01T11:04:08.000Z</time>
      </trkpt>
      <trkpt lat="44.13419" lon="5.72257">
        <ele>1584</ele>
        <time>2000-01-01T11:04:18.000Z</time>
      </trkpt>
      <trkpt lat="44.13397" lon="5.72283">
        <ele>1588</ele>
        <time>2000-01-01T11:04:28.000Z</time>
      </trkpt>
      <trkpt lat="44.13366" lon="5.72322">
        <ele>1598</ele>
        <time>2000-01-01T11:04:38.000Z</time>
      </trkpt>
      <trkpt lat="44.13344" lon="5.72346">
        <ele>1602</ele>
        <time>2000-01-01T11:04:48.000Z</time>
      </trkpt>
      <trkpt lat="44.13315" lon="5.7238">
        <ele>1609</ele>
        <time>2000-01-01T11:04:58.000Z</time>
      </trkpt>
      <trkpt lat="44.13286" lon="5.72412">
        <ele>1616</ele>
        <time>2000-01-01T11:05:08.000Z</time>
      </trkpt>
      <trkpt lat="44.13269" lon="5.72442">
        <ele>1621</ele>
        <time>2000-01-01T11:05:18.000Z</time>
      </trkpt>
      <trkpt lat="44.13245" lon="5.72483">
        <ele>1623</ele>
        <time>2000-01-01T11:05:28.000Z</time>
      </trkpt>
      <trkpt lat="44.13221" lon="5.72523">
        <ele>1622</ele>
        <time>2000-01-01T11:05:38.000Z</time>
      </trkpt>
      <trkpt lat="44.1321" lon="5.72559">
        <ele>1621</ele>
        <time>2000-01-01T11:05:48.000Z</time>
      </trkpt>
      <trkpt lat="44.13194" lon="5.72609">
        <ele>1613</ele>
        <time>2000-01-01T11:05:58.000Z</time>
      </trkpt>
      <trkpt lat="44.13181" lon="5.72646">
        <ele>1609</ele>
        <time>2000-01-01T11:06:08.000Z</time>
      </trkpt>
      <trkpt lat="44.1316" lon="5.72703">
        <ele>1601</ele>
        <time>2000-01-01T11:06:18.000Z</time>
      </trkpt>
      <trkpt lat="44.13132" lon="5.72723">
        <ele>1600</ele>
        <time>2000-01-01T11:06:28.000Z</time>
      </trkpt>
      <trkpt lat="44.13108" lon="5.72739">
        <ele>1598</ele>
        <time>2000-01-01T11:06:38.000Z</time>
      </trkpt>
      <trkpt lat="44.1308" lon="5.72759">
        <ele>1598</ele>
        <time>2000-01-01T11:06:48.000Z</time>
      </trkpt>
      <trkpt lat="44.13055" lon="5.72776">
        <ele>1599</ele>
        <time>2000-01-01T11:06:58.000Z</time>
      </trkpt>
      <trkpt lat="44.13021" lon="5.72798">
        <ele>1603</ele>
        <time>2000-01-01T11:07:08.000Z</time>
      </trkpt>
      <trkpt lat="44.12998" lon="5.72817">
        <ele>1608</ele>
        <time>2000-01-01T11:07:18.000Z</time>
      </trkpt>
      <trkpt lat="44.12969" lon="5.72841">
        <ele>1614</ele>
        <time>2000-01-01T11:07:28.000Z</time>
      </trkpt>
      <trkpt lat="44.12926" lon="5.72858">
        <ele>1615</ele>
        <time>2000-01-01T11:07:38.000Z</time>
      </trkpt>
      <trkpt lat="44.12899" lon="5.72862">
        <ele>1616</ele>
        <time>2000-01-01T11:07:48.000Z</time>
      </trkpt>
      <trkpt lat="44.12867" lon="5.72867">
        <ele>1616</ele>
        <time>2000-01-01T11:07:58.000Z</time>
      </trkpt>
      <trkpt lat="44.12821" lon="5.72879">
        <ele>1615</ele>
        <time>2000-01-01T11:08:08.000Z</time>
      </trkpt>
      <trkpt lat="44.12789" lon="5.72876">
        <ele>1613</ele>
        <time>2000-01-01T11:08:18.000Z</time>
      </trkpt>
      <trkpt lat="44.12762" lon="5.72874">
        <ele>1610</ele>
        <time>2000-01-01T11:08:28.000Z</time>
      </trkpt>
      <trkpt lat="44.12726" lon="5.72871">
        <ele>1606</ele>
        <time>2000-01-01T11:08:38.000Z</time>
      </trkpt>
      <trkpt lat="44.12682" lon="5.72875">
        <ele>1601</ele>
        <time>2000-01-01T11:08:48.000Z</time>
      </trkpt>
      <trkpt lat="44.1265" lon="5.72889">
        <ele>1598</ele>
        <time>2000-01-01T11:08:58.000Z</time>
      </trkpt>
      <trkpt lat="44.12619" lon="5.72903">
        <ele>1592</ele>
        <time>2000-01-01T11:09:08.000Z</time>
      </trkpt>
      <trkpt lat="44.12581" lon="5.7292">
        <ele>1588</ele>
        <time>2000-01-01T11:09:18.000Z</time>
      </trkpt>
      <trkpt lat="44.12588" lon="5.72933">
        <ele>1587.2</ele>
        <time>2000-01-01T11:09:28.000Z</time>
      </trkpt>
      <trkpt lat="44.12597" lon="5.72955">
        <ele>1585</ele>
        <time>2000-01-01T11:09:38.000Z</time>
      </trkpt>
      <trkpt lat="44.12601" lon="5.72962">
        <ele>1585.7</ele>
        <time>2000-01-01T11:09:48.000Z</time>
      </trkpt>
      <trkpt lat="44.12607" lon="5.72976">
        <ele>1583.9</ele>
        <time>2000-01-01T11:09:58.000Z</time>
      </trkpt>
      <trkpt lat="44.1261" lon="5.72985">
        <ele>1582</ele>
        <time>2000-01-01T11:10:08.000Z</time>
      </trkpt>
      <trkpt lat="44.12619" lon="5.73023">
        <ele>1581</ele>
        <time>2000-01-01T11:10:18.000Z</time>
      </trkpt>
      <trkpt lat="44.12625" lon="5.73038">
        <ele>1579.4</ele>
        <time>2000-01-01T11:10:28.000Z</time>
      </trkpt>
      <trkpt lat="44.12629" lon="5.73046">
        <ele>1578</ele>
        <time>2000-01-01T11:10:38.000Z</time>
      </trkpt>
      <trkpt lat="44.12631" lon="5.73054">
        <ele>1576</ele>
        <time>2000-01-01T11:10:48.000Z</time>
      </trkpt>
      <trkpt lat="44.12634" lon="5.73062">
        <ele>1575</ele>
        <time>2000-01-01T11:10:58.000Z</time>
      </trkpt>
      <trkpt lat="44.12635" lon="5.73071">
        <ele>1573.6</ele>
        <time>2000-01-01T11:11:08.000Z</time>
      </trkpt>
      <trkpt lat="44.12635" lon="5.7309">
        <ele>1572</ele>
        <time>2000-01-01T11:11:18.000Z</time>
      </trkpt>
      <trkpt lat="44.12636" lon="5.73099">
        <ele>1570.7</ele>
        <time>2000-01-01T11:11:28.000Z</time>
      </trkpt>
      <trkpt lat="44.1264" lon="5.73115">
        <ele>1568.6</ele>
        <time>2000-01-01T11:11:38.000Z</time>
      </trkpt>
      <trkpt lat="44.12643" lon="5.73123">
        <ele>1567</ele>
        <time>2000-01-01T11:11:48.000Z</time>
      </trkpt>
      <trkpt lat="44.12647" lon="5.73131">
        <ele>1566.1</ele>
        <time>2000-01-01T11:11:58.000Z</time>
      </trkpt>
      <trkpt lat="44.12649" lon="5.73139">
        <ele>1564.8</ele>
        <time>2000-01-01T11:12:08.000Z</time>
      </trkpt>
      <trkpt lat="44.12653" lon="5.73146">
        <ele>1564</ele>
        <time>2000-01-01T11:12:18.000Z</time>
      </trkpt>
      <trkpt lat="44.1266" lon="5.73161">
        <ele>1559.6</ele>
        <time>2000-01-01T11:12:28.000Z</time>
      </trkpt>
      <trkpt lat="44.12669" lon="5.73185">
        <ele>1557</ele>
        <time>2000-01-01T11:12:38.000Z</time>
      </trkpt>
      <trkpt lat="44.12681" lon="5.73214">
        <ele>1550</ele>
        <time>2000-01-01T11:12:48.000Z</time>
      </trkpt>
      <trkpt lat="44.12685" lon="5.7323">
        <ele>1547.6</ele>
        <time>2000-01-01T11:12:58.000Z</time>
      </trkpt>
      <trkpt lat="44.12688" lon="5.73238">
        <ele>1546.1</ele>
        <time>2000-01-01T11:13:08.000Z</time>
      </trkpt>
      <trkpt lat="44.12692" lon="5.73253">
        <ele>1543</ele>
        <time>2000-01-01T11:13:18.000Z</time>
      </trkpt>
      <trkpt lat="44.12695" lon="5.73261">
        <ele>1541.7</ele>
        <time>2000-01-01T11:13:28.000Z</time>
      </trkpt>
      <trkpt lat="44.12702" lon="5.73274">
        <ele>1539.2</ele>
        <time>2000-01-01T11:13:38.000Z</time>
      </trkpt>
      <trkpt lat="44.12708" lon="5.73288">
        <ele>1538</ele>
        <time>2000-01-01T11:13:48.000Z</time>
      </trkpt>
      <trkpt lat="44.12709" lon="5.73296">
        <ele>1534.4</ele>
        <time>2000-01-01T11:13:58.000Z</time>
      </trkpt>
      <trkpt lat="44.12711" lon="5.73303">
        <ele>1532.8</ele>
        <time>2000-01-01T11:14:08.000Z</time>
      </trkpt>
      <trkpt lat="44.12717" lon="5.73315">
        <ele>1532</ele>
        <time>2000-01-01T11:14:18.000Z</time>
      </trkpt>
      <trkpt lat="44.12719" lon="5.73322">
        <ele>1527.8</ele>
        <time>2000-01-01T11:14:28.000Z</time>
      </trkpt>
      <trkpt lat="44.12725" lon="5.73335">
        <ele>1524.4</ele>
        <time>2000-01-01T11:14:38.000Z</time>
      </trkpt>
      <trkpt lat="44.12727" lon="5.73342">
        <ele>1524</ele>
        <time>2000-01-01T11:14:48.000Z</time>
      </trkpt>
      <trkpt lat="44.12733" lon="5.73357">
        <ele>1519.2</ele>
        <time>2000-01-01T11:14:58.000Z</time>
      </trkpt>
      <trkpt lat="44.12735" lon="5.73364">
        <ele>1517.7</ele>
        <time>2000-01-01T11:15:08.000Z</time>
      </trkpt>
      <trkpt lat="44.12736" lon="5.73373">
        <ele>1517</ele>
        <time>2000-01-01T11:15:18.000Z</time>
      </trkpt>
      <trkpt lat="44.12738" lon="5.7338">
        <ele>1514.6</ele>
        <time>2000-01-01T11:15:28.000Z</time>
      </trkpt>
      <trkpt lat="44.12744" lon="5.73394">
        <ele>1511.2</ele>
        <time>2000-01-01T11:15:38.000Z</time>
      </trkpt>
      <trkpt lat="44.12749" lon="5.73409">
        <ele>1511</ele>
        <time>2000-01-01T11:15:48.000Z</time>
      </trkpt>
      <trkpt lat="44.1275" lon="5.73416">
        <ele>1506.1</ele>
        <time>2000-01-01T11:15:58.000Z</time>
      </trkpt>
      <trkpt lat="44.1275" lon="5.73423">
        <ele>1504.6</ele>
        <time>2000-01-01T11:16:08.000Z</time>
      </trkpt>
      <trkpt lat="44.12753" lon="5.73445">
        <ele>1500</ele>
        <time>2000-01-01T11:16:18.000Z</time>
      </trkpt>
      <trkpt lat="44.12755" lon="5.73453">
        <ele>1497.1</ele>
        <time>2000-01-01T11:16:28.000Z</time>
      </trkpt>
      <trkpt lat="44.12758" lon="5.73474">
        <ele>1493</ele>
        <time>2000-01-01T11:16:38.000Z</time>
      </trkpt>
      <trkpt lat="44.1276" lon="5.73482">
        <ele>1489.1</ele>
        <time>2000-01-01T11:16:48.000Z</time>
      </trkpt>
      <trkpt lat="44.12761" lon="5.7349">
        <ele>1486.9</ele>
        <time>2000-01-01T11:16:58.000Z</time>
      </trkpt>
      <trkpt lat="44.12763" lon="5.73497">
        <ele>1484.9</ele>
        <time>2000-01-01T11:17:08.000Z</time>
      </trkpt>
      <trkpt lat="44.12771" lon="5.73514">
        <ele>1480</ele>
        <time>2000-01-01T11:17:18.000Z</time>
      </trkpt>
      <trkpt lat="44.12775" lon="5.73521">
        <ele>1476.4</ele>
        <time>2000-01-01T11:17:28.000Z</time>
      </trkpt>
      <trkpt lat="44.12778" lon="5.73529">
        <ele>1473.7</ele>
        <time>2000-01-01T11:17:38.000Z</time>
      </trkpt>
      <trkpt lat="44.12783" lon="5.73565">
        <ele>1465</ele>
        <time>2000-01-01T11:17:48.000Z</time>
      </trkpt>
      <trkpt lat="44.12783" lon="5.73572">
        <ele>1462</ele>
        <time>2000-01-01T11:17:58.000Z</time>
      </trkpt>
      <trkpt lat="44.12784" lon="5.73578">
        <ele>1460.3</ele>
        <time>2000-01-01T11:18:08.000Z</time>
      </trkpt>
      <trkpt lat="44.12784" lon="5.73586">
        <ele>1458.1</ele>
        <time>2000-01-01T11:18:18.000Z</time>
      </trkpt>
      <trkpt lat="44.1278" lon="5.73599">
        <ele>1459</ele>
        <time>2000-01-01T11:18:28.000Z</time>
      </trkpt>
      <trkpt lat="44.12777" lon="5.73614">
        <ele>1451.2</ele>
        <time>2000-01-01T11:18:38.000Z</time>
      </trkpt>
      <trkpt lat="44.12773" lon="5.73625">
        <ele>1450</ele>
        <time>2000-01-01T11:18:48.000Z</time>
      </trkpt>
      <trkpt lat="44.12769" lon="5.73641">
        <ele>1444</ele>
        <time>2000-01-01T11:18:58.000Z</time>
      </trkpt>
      <trkpt lat="44.12766" lon="5.73649">
        <ele>1442.2</ele>
        <time>2000-01-01T11:19:08.000Z</time>
      </trkpt>
      <trkpt lat="44.12767" lon="5.73656">
        <ele>1442</ele>
        <time>2000-01-01T11:19:18.000Z</time>
      </trkpt>
      <trkpt lat="44.12769" lon="5.73661">
        <ele>1438.2</ele>
        <time>2000-01-01T11:19:28.000Z</time>
      </trkpt>
      <trkpt lat="44.12772" lon="5.73666">
        <ele>1436.2</ele>
        <time>2000-01-01T11:19:38.000Z</time>
      </trkpt>
      <trkpt lat="44.12774" lon="5.73672">
        <ele>1434.3</ele>
        <time>2000-01-01T11:19:48.000Z</time>
      </trkpt>
      <trkpt lat="44.1278" lon="5.73682">
        <ele>1432</ele>
        <time>2000-01-01T11:19:58.000Z</time>
      </trkpt>
      <trkpt lat="44.12786" lon="5.73691">
        <ele>1428</ele>
        <time>2000-01-01T11:20:08.000Z</time>
      </trkpt>
      <trkpt lat="44.1279" lon="5.73695">
        <ele>1426.5</ele>
        <time>2000-01-01T11:20:18.000Z</time>
      </trkpt>
      <trkpt lat="44.12792" lon="5.73699">
        <ele>1425.4</ele>
        <time>2000-01-01T11:20:28.000Z</time>
      </trkpt>
      <trkpt lat="44.12796" lon="5.73703">
        <ele>1425</ele>
        <time>2000-01-01T11:20:38.000Z</time>
      </trkpt>
      <trkpt lat="44.12799" lon="5.73708">
        <ele>1422.7</ele>
        <time>2000-01-01T11:20:48.000Z</time>
      </trkpt>
      <trkpt lat="44.12803" lon="5.73713">
        <ele>1421.2</ele>
        <time>2000-01-01T11:20:58.000Z</time>
      </trkpt>
      <trkpt lat="44.12808" lon="5.73724">
        <ele>1420</ele>
        <time>2000-01-01T11:21:08.000Z</time>
      </trkpt>
      <trkpt lat="44.12811" lon="5.73732">
        <ele>1416</ele>
        <time>2000-01-01T11:21:18.000Z</time>
      </trkpt>
      <trkpt lat="44.12814" lon="5.73738">
        <ele>1414.3</ele>
        <time>2000-01-01T11:21:28.000Z</time>
      </trkpt>
      <trkpt lat="44.12816" lon="5.73753">
        <ele>1411</ele>
        <time>2000-01-01T11:21:38.000Z</time>
      </trkpt>
      <trkpt lat="44.12818" lon="5.7376">
        <ele>1408</ele>
        <time>2000-01-01T11:21:48.000Z</time>
      </trkpt>
      <trkpt lat="44.12823" lon="5.73773">
        <ele>1403.8</ele>
        <time>2000-01-01T11:21:58.000Z</time>
      </trkpt>
      <trkpt lat="44.12825" lon="5.7378">
        <ele>1404</ele>
        <time>2000-01-01T11:22:08.000Z</time>
      </trkpt>
      <trkpt lat="44.12831" lon="5.73793">
        <ele>1397.2</ele>
        <time>2000-01-01T11:22:18.000Z</time>
      </trkpt>
      <trkpt lat="44.12833" lon="5.73799">
        <ele>1395.1</ele>
        <time>2000-01-01T11:22:28.000Z</time>
      </trkpt>
      <trkpt lat="44.12834" lon="5.73806">
        <ele>1394</ele>
        <time>2000-01-01T11:22:38.000Z</time>
      </trkpt>
      <trkpt lat="44.12836" lon="5.73814">
        <ele>1390.3</ele>
        <time>2000-01-01T11:22:48.000Z</time>
      </trkpt>
      <trkpt lat="44.12841" lon="5.73824">
        <ele>1386.9</ele>
        <time>2000-01-01T11:22:58.000Z</time>
      </trkpt>
      <trkpt lat="44.12841" lon="5.73828">
        <ele>1385.7</ele>
        <time>2000-01-01T11:23:08.000Z</time>
      </trkpt>
      <trkpt lat="44.12847" lon="5.73837">
        <ele>1384</ele>
        <time>2000-01-01T11:23:18.000Z</time>
      </trkpt>
      <trkpt lat="44.12855" lon="5.73845">
        <ele>1380.4</ele>
        <time>2000-01-01T11:23:28.000Z</time>
      </trkpt>
      <trkpt lat="44.1286" lon="5.73851">
        <ele>1378.9</ele>
        <time>2000-01-01T11:23:38.000Z</time>
      </trkpt>
      <trkpt lat="44.12865" lon="5.7386">
        <ele>1379</ele>
        <time>2000-01-01T11:23:48.000Z</time>
      </trkpt>
      <trkpt lat="44.12887" lon="5.73878">
        <ele>1374</ele>
        <time>2000-01-01T11:23:58.000Z</time>
      </trkpt>
      <trkpt lat="44.12891" lon="5.73884">
        <ele>1371.9</ele>
        <time>2000-01-01T11:24:08.000Z</time>
      </trkpt>
      <trkpt lat="44.12902" lon="5.73913">
        <ele>1369</ele>
        <time>2000-01-01T11:24:18.000Z</time>
      </trkpt>
      <trkpt lat="44.12911" lon="5.73956">
        <ele>1369</ele>
        <time>2000-01-01T11:24:28.000Z</time>
      </trkpt>
      <trkpt lat="44.12917" lon="5.73989">
        <ele>1370</ele>
        <time>2000-01-01T11:24:38.000Z</time>
      </trkpt>
      <trkpt lat="44.12925" lon="5.74028">
        <ele>1375</ele>
        <time>2000-01-01T11:24:48.000Z</time>
      </trkpt>
      <trkpt lat="44.12937" lon="5.74087">
        <ele>1393</ele>
        <time>2000-01-01T11:24:58.000Z</time>
      </trkpt>
      <trkpt lat="44.12945" lon="5.74129">
        <ele>1409</ele>
        <time>2000-01-01T11:25:08.000Z</time>
      </trkpt>
      <trkpt lat="44.12952" lon="5.74165">
        <ele>1422</ele>
        <time>2000-01-01T11:25:18.000Z</time>
      </trkpt>
      <trkpt lat="44.12961" lon="5.7421">
        <ele>1436</ele>
        <time>2000-01-01T11:25:28.000Z</time>
      </trkpt>
      <trkpt lat="44.12971" lon="5.74266">
        <ele>1456</ele>
        <time>2000-01-01T11:25:38.000Z</time>
      </trkpt>
      <trkpt lat="44.12978" lon="5.74304">
        <ele>1470</ele>
        <time>2000-01-01T11:25:48.000Z</time>
      </trkpt>
      <trkpt lat="44.12989" lon="5.7436">
        <ele>1487</ele>
        <time>2000-01-01T11:25:58.000Z</time>
      </trkpt>
      <trkpt lat="44.12995" lon="5.74394">
        <ele>1498</ele>
        <time>2000-01-01T11:26:08.000Z</time>
      </trkpt>
      <trkpt lat="44.13002" lon="5.7443">
        <ele>1512</ele>
        <time>2000-01-01T11:26:18.000Z</time>
      </trkpt>
      <trkpt lat="44.13011" lon="5.74476">
        <ele>1527</ele>
        <time>2000-01-01T11:26:28.000Z</time>
      </trkpt>
      <trkpt lat="44.13017" lon="5.7451">
        <ele>1537</ele>
        <time>2000-01-01T11:26:38.000Z</time>
      </trkpt>
      <trkpt lat="44.13024" lon="5.74549">
        <ele>1546</ele>
        <time>2000-01-01T11:26:48.000Z</time>
      </trkpt>
      <trkpt lat="44.13037" lon="5.74584">
        <ele>1555</ele>
        <time>2000-01-01T11:26:58.000Z</time>
      </trkpt>
      <trkpt lat="44.13056" lon="5.74632">
        <ele>1568</ele>
        <time>2000-01-01T11:27:08.000Z</time>
      </trkpt>
      <trkpt lat="44.13078" lon="5.74687">
        <ele>1580</ele>
        <time>2000-01-01T11:27:18.000Z</time>
      </trkpt>
      <trkpt lat="44.1309" lon="5.74719">
        <ele>1584</ele>
        <time>2000-01-01T11:27:28.000Z</time>
      </trkpt>
      <trkpt lat="44.13104" lon="5.74755">
        <ele>1592</ele>
        <time>2000-01-01T11:27:38.000Z</time>
      </trkpt>
      <trkpt lat="44.13127" lon="5.74795">
        <ele>1600</ele>
        <time>2000-01-01T11:27:48.000Z</time>
      </trkpt>
      <trkpt lat="44.13149" lon="5.74835">
        <ele>1607</ele>
        <time>2000-01-01T11:27:58.000Z</time>
      </trkpt>
      <trkpt lat="44.13168" lon="5.74867">
        <ele>1612</ele>
        <time>2000-01-01T11:28:08.000Z</time>
      </trkpt>
      <trkpt lat="44.13197" lon="5.74918">
        <ele>1614</ele>
        <time>2000-01-01T11:28:18.000Z</time>
      </trkpt>
      <trkpt lat="44.13188" lon="5.74971">
        <ele>1621</ele>
        <time>2000-01-01T11:28:28.000Z</time>
      </trkpt>
      <trkpt lat="44.13182" lon="5.75012">
        <ele>1626</ele>
        <time>2000-01-01T11:28:38.000Z</time>
      </trkpt>
      <trkpt lat="44.13177" lon="5.75045">
        <ele>1628</ele>
        <time>2000-01-01T11:28:48.000Z</time>
      </trkpt>
      <trkpt lat="44.13172" lon="5.75078">
        <ele>1631</ele>
        <time>2000-01-01T11:28:58.000Z</time>
      </trkpt>
      <trkpt lat="44.13163" lon="5.75131">
        <ele>1632</ele>
        <time>2000-01-01T11:29:08.000Z</time>
      </trkpt>
      <trkpt lat="44.13154" lon="5.75193">
        <ele>1632</ele>
        <time>2000-01-01T11:29:18.000Z</time>
      </trkpt>
      <trkpt lat="44.13131" lon="5.75219">
        <ele>1632</ele>
        <time>2000-01-01T11:29:28.000Z</time>
      </trkpt>
      <trkpt lat="44.13106" lon="5.7525">
        <ele>1628</ele>
        <time>2000-01-01T11:29:38.000Z</time>
      </trkpt>
      <trkpt lat="44.1308" lon="5.7528">
        <ele>1622</ele>
        <time>2000-01-01T11:29:48.000Z</time>
      </trkpt>
      <trkpt lat="44.13048" lon="5.75319">
        <ele>1621</ele>
        <time>2000-01-01T11:29:58.000Z</time>
      </trkpt>
      <trkpt lat="44.13024" lon="5.75347">
        <ele>1618</ele>
        <time>2000-01-01T11:30:08.000Z</time>
      </trkpt>
      <trkpt lat="44.13012" lon="5.75385">
        <ele>1614</ele>
        <time>2000-01-01T11:30:18.000Z</time>
      </trkpt>
      <trkpt lat="44.12992" lon="5.75446">
        <ele>1605</ele>
        <time>2000-01-01T11:30:28.000Z</time>
      </trkpt>
      <trkpt lat="44.1298" lon="5.75484">
        <ele>1597</ele>
        <time>2000-01-01T11:30:38.000Z</time>
      </trkpt>
      <trkpt lat="44.12961" lon="5.75545">
        <ele>1582</ele>
        <time>2000-01-01T11:30:48.000Z</time>
      </trkpt>
      <trkpt lat="44.12944" lon="5.75596">
        <ele>1573</ele>
        <time>2000-01-01T11:30:58.000Z</time>
      </trkpt>
      <trkpt lat="44.1293" lon="5.75634">
        <ele>1571</ele>
        <time>2000-01-01T11:31:08.000Z</time>
      </trkpt>
      <trkpt lat="44.12919" lon="5.75666">
        <ele>1573</ele>
        <time>2000-01-01T11:31:18.000Z</time>
      </trkpt>
      <trkpt lat="44.12907" lon="5.75701">
        <ele>1575</ele>
        <time>2000-01-01T11:31:28.000Z</time>
      </trkpt>
      <trkpt lat="44.12889" lon="5.75751">
        <ele>1585</ele>
        <time>2000-01-01T11:31:38.000Z</time>
      </trkpt>
      <trkpt lat="44.12871" lon="5.75801">
        <ele>1596</ele>
        <time>2000-01-01T11:31:48.000Z</time>
      </trkpt>
      <trkpt lat="44.12853" lon="5.7585">
        <ele>1604</ele>
        <time>2000-01-01T11:31:58.000Z</time>
      </trkpt>
      <trkpt lat="44.12835" lon="5.759">
        <ele>1614</ele>
        <time>2000-01-01T11:32:08.000Z</time>
      </trkpt>
      <trkpt lat="44.12822" lon="5.75936">
        <ele>1618</ele>
        <time>2000-01-01T11:32:18.000Z</time>
      </trkpt>
      <trkpt lat="44.12802" lon="5.75991">
        <ele>1622</ele>
        <time>2000-01-01T11:32:28.000Z</time>
      </trkpt>
      <trkpt lat="44.12773" lon="5.76026">
        <ele>1628</ele>
        <time>2000-01-01T11:32:38.000Z</time>
      </trkpt>
      <trkpt lat="44.12751" lon="5.76052">
        <ele>1628</ele>
        <time>2000-01-01T11:32:48.000Z</time>
      </trkpt>
      <trkpt lat="44.12717" lon="5.7609">
        <ele>1638</ele>
        <time>2000-01-01T11:32:58.000Z</time>
      </trkpt>
      <trkpt lat="44.12694" lon="5.76117">
        <ele>1639</ele>
        <time>2000-01-01T11:33:08.000Z</time>
      </trkpt>
      <trkpt lat="44.12675" lon="5.76139">
        <ele>1637</ele>
        <time>2000-01-01T11:33:18.000Z</time>
      </trkpt>
      <trkpt lat="44.12655" lon="5.76163">
        <ele>1636</ele>
        <time>2000-01-01T11:33:28.000Z</time>
      </trkpt>
      <trkpt lat="44.12641" lon="5.76213">
        <ele>1634</ele>
        <time>2000-01-01T11:33:38.000Z</time>
      </trkpt>
      <trkpt lat="44.12628" lon="5.76263">
        <ele>1634</ele>
        <time>2000-01-01T11:33:48.000Z</time>
      </trkpt>
      <trkpt lat="44.12618" lon="5.76299">
        <ele>1638</ele>
        <time>2000-01-01T11:33:58.000Z</time>
      </trkpt>
      <trkpt lat="44.12604" lon="5.76349">
        <ele>1646</ele>
        <time>2000-01-01T11:34:08.000Z</time>
      </trkpt>
      <trkpt lat="44.1259" lon="5.76401">
        <ele>1658</ele>
        <time>2000-01-01T11:34:18.000Z</time>
      </trkpt>
      <trkpt lat="44.12581" lon="5.76437">
        <ele>1664</ele>
        <time>2000-01-01T11:34:28.000Z</time>
      </trkpt>
      <trkpt lat="44.12558" lon="5.76486">
        <ele>1675</ele>
        <time>2000-01-01T11:34:38.000Z</time>
      </trkpt>
      <trkpt lat="44.12542" lon="5.76522">
        <ele>1681</ele>
        <time>2000-01-01T11:34:48.000Z</time>
      </trkpt>
      <trkpt lat="44.12528" lon="5.76551">
        <ele>1686</ele>
        <time>2000-01-01T11:34:58.000Z</time>
      </trkpt>
      <trkpt lat="44.12514" lon="5.76583">
        <ele>1686</ele>
        <time>2000-01-01T11:35:08.000Z</time>
      </trkpt>
      <trkpt lat="44.12491" lon="5.76631">
        <ele>1691</ele>
        <time>2000-01-01T11:35:18.000Z</time>
      </trkpt>
      <trkpt lat="44.12473" lon="5.76672">
        <ele>1691</ele>
        <time>2000-01-01T11:35:28.000Z</time>
      </trkpt>
      <trkpt lat="44.12454" lon="5.76712">
        <ele>1691</ele>
        <time>2000-01-01T11:35:38.000Z</time>
      </trkpt>
      <trkpt lat="44.12441" lon="5.76741">
        <ele>1691</ele>
        <time>2000-01-01T11:35:48.000Z</time>
      </trkpt>
      <trkpt lat="44.12427" lon="5.76772">
        <ele>1690</ele>
        <time>2000-01-01T11:35:58.000Z</time>
      </trkpt>
      <trkpt lat="44.12423" lon="5.76813">
        <ele>1690</ele>
        <time>2000-01-01T11:36:08.000Z</time>
      </trkpt>
      <trkpt lat="44.1242" lon="5.76847">
        <ele>1686</ele>
        <time>2000-01-01T11:36:18.000Z</time>
      </trkpt>
      <trkpt lat="44.12417" lon="5.76881">
        <ele>1678</ele>
        <time>2000-01-01T11:36:28.000Z</time>
      </trkpt>
      <trkpt lat="44.12414" lon="5.7692">
        <ele>1674</ele>
        <time>2000-01-01T11:36:38.000Z</time>
      </trkpt>
      <trkpt lat="44.1241" lon="5.76973">
        <ele>1663</ele>
        <time>2000-01-01T11:36:48.000Z</time>
      </trkpt>
      <trkpt lat="44.12405" lon="5.77025">
        <ele>1663</ele>
        <time>2000-01-01T11:36:58.000Z</time>
      </trkpt>
      <trkpt lat="44.12402" lon="5.77064">
        <ele>1667</ele>
        <time>2000-01-01T11:37:08.000Z</time>
      </trkpt>
      <trkpt lat="44.12404" lon="5.77105">
        <ele>1674</ele>
        <time>2000-01-01T11:37:18.000Z</time>
      </trkpt>
      <trkpt lat="44.12406" lon="5.77139">
        <ele>1678</ele>
        <time>2000-01-01T11:37:28.000Z</time>
      </trkpt>
      <trkpt lat="44.12408" lon="5.77173">
        <ele>1685</ele>
        <time>2000-01-01T11:37:38.000Z</time>
      </trkpt>
      <trkpt lat="44.1241" lon="5.77228">
        <ele>1693</ele>
        <time>2000-01-01T11:37:48.000Z</time>
      </trkpt>
      <trkpt lat="44.12412" lon="5.77272">
        <ele>1694</ele>
        <time>2000-01-01T11:37:58.000Z</time>
      </trkpt>
      <trkpt lat="44.12414" lon="5.7731">
        <ele>1691</ele>
        <time>2000-01-01T11:38:08.000Z</time>
      </trkpt>
      <trkpt lat="44.12417" lon="5.7736">
        <ele>1689</ele>
        <time>2000-01-01T11:38:18.000Z</time>
      </trkpt>
      <trkpt lat="44.12419" lon="5.77419">
        <ele>1676</ele>
        <time>2000-01-01T11:38:28.000Z</time>
      </trkpt>
      <trkpt lat="44.12422" lon="5.77479">
        <ele>1663</ele>
        <time>2000-01-01T11:38:38.000Z</time>
      </trkpt>
      <trkpt lat="44.12424" lon="5.77516">
        <ele>1652</ele>
        <time>2000-01-01T11:38:48.000Z</time>
      </trkpt>
      <trkpt lat="44.12427" lon="5.77562">
        <ele>1639</ele>
        <time>2000-01-01T11:38:58.000Z</time>
      </trkpt>
      <trkpt lat="44.1242" lon="5.7761">
        <ele>1629</ele>
        <time>2000-01-01T11:39:08.000Z</time>
      </trkpt>
      <trkpt lat="44.12428" lon="5.77653">
        <ele>1619</ele>
        <time>2000-01-01T11:39:18.000Z</time>
      </trkpt>
      <trkpt lat="44.12432" lon="5.77703">
        <ele>1609</ele>
        <time>2000-01-01T11:39:28.000Z</time>
      </trkpt>
      <trkpt lat="44.12432" lon="5.77733">
        <ele>1607</ele>
        <time>2000-01-01T11:39:38.000Z</time>
      </trkpt>
      <trkpt lat="44.12411" lon="5.77784">
        <ele>1612</ele>
        <time>2000-01-01T11:39:48.000Z</time>
      </trkpt>
      <trkpt lat="44.12389" lon="5.77825">
        <ele>1617</ele>
        <time>2000-01-01T11:39:58.000Z</time>
      </trkpt>
      <trkpt lat="44.12375" lon="5.77866">
        <ele>1629</ele>
        <time>2000-01-01T11:40:08.000Z</time>
      </trkpt>
      <trkpt lat="44.12363" lon="5.77895">
        <ele>1636</ele>
        <time>2000-01-01T11:40:18.000Z</time>
      </trkpt>
      <trkpt lat="44.12349" lon="5.77926">
        <ele>1644</ele>
        <time>2000-01-01T11:40:28.000Z</time>
      </trkpt>
      <trkpt lat="44.12341" lon="5.7796">
        <ele>1646</ele>
        <time>2000-01-01T11:40:38.000Z</time>
      </trkpt>
      <trkpt lat="44.12331" lon="5.78">
        <ele>1649</ele>
        <time>2000-01-01T11:40:48.000Z</time>
      </trkpt>
      <trkpt lat="44.12349" lon="5.78061">
        <ele>1652</ele>
        <time>2000-01-01T11:40:58.000Z</time>
      </trkpt>
      <trkpt lat="44.12352" lon="5.78098">
        <ele>1652</ele>
        <time>2000-01-01T11:41:08.000Z</time>
      </trkpt>
      <trkpt lat="44.12355" lon="5.78143">
        <ele>1652</ele>
        <time>2000-01-01T11:41:18.000Z</time>
      </trkpt>
      <trkpt lat="44.1235" lon="5.78158">
        <ele>1654</ele>
        <time>2000-01-01T11:41:28.000Z</time>
      </trkpt>
      <trkpt lat="44.12349" lon="5.78173">
        <ele>1658</ele>
        <time>2000-01-01T11:41:38.000Z</time>
      </trkpt>
      <trkpt lat="44.12351" lon="5.78181">
        <ele>1657.6</ele>
        <time>2000-01-01T11:41:48.000Z</time>
      </trkpt>
      <trkpt lat="44.12346" lon="5.78192">
        <ele>1660.8</ele>
        <time>2000-01-01T11:41:58.000Z</time>
      </trkpt>
      <trkpt lat="44.1234" lon="5.78211">
        <ele>1667</ele>
        <time>2000-01-01T11:42:08.000Z</time>
      </trkpt>
      <trkpt lat="44.12342" lon="5.78231">
        <ele>1670.9</ele>
        <time>2000-01-01T11:42:18.000Z</time>
      </trkpt>
      <trkpt lat="44.1234" lon="5.78263">
        <ele>1680</ele>
        <time>2000-01-01T11:42:28.000Z</time>
      </trkpt>
      <trkpt lat="44.12337" lon="5.78299">
        <ele>1686</ele>
        <time>2000-01-01T11:42:38.000Z</time>
      </trkpt>
      <trkpt lat="44.12334" lon="5.78325">
        <ele>1693.3</ele>
        <time>2000-01-01T11:42:48.000Z</time>
      </trkpt>
      <trkpt lat="44.12326" lon="5.78349">
        <ele>1696</ele>
        <time>2000-01-01T11:42:58.000Z</time>
      </trkpt>
      <trkpt lat="44.12315" lon="5.78372">
        <ele>1703</ele>
        <time>2000-01-01T11:43:08.000Z</time>
      </trkpt>
      <trkpt lat="44.12295" lon="5.78409">
        <ele>1709</ele>
        <time>2000-01-01T11:43:18.000Z</time>
      </trkpt>
      <trkpt lat="44.12271" lon="5.78439">
        <ele>1715</ele>
        <time>2000-01-01T11:43:28.000Z</time>
      </trkpt>
      <trkpt lat="44.12249" lon="5.78471">
        <ele>1722</ele>
        <time>2000-01-01T11:43:38.000Z</time>
      </trkpt>
      <trkpt lat="44.12241" lon="5.7852">
        <ele>1725</ele>
        <time>2000-01-01T11:43:48.000Z</time>
      </trkpt>
      <trkpt lat="44.12252" lon="5.7858">
        <ele>1724</ele>
        <time>2000-01-01T11:43:58.000Z</time>
      </trkpt>
      <trkpt lat="44.12237" lon="5.78617">
        <ele>1724</ele>
        <time>2000-01-01T11:44:08.000Z</time>
      </trkpt>
      <trkpt lat="44.12206" lon="5.7863">
        <ele>1719</ele>
        <time>2000-01-01T11:44:18.000Z</time>
      </trkpt>
      <trkpt lat="44.12181" lon="5.78615">
        <ele>1716</ele>
        <time>2000-01-01T11:44:28.000Z</time>
      </trkpt>
      <trkpt lat="44.12138" lon="5.78591">
        <ele>1708</ele>
        <time>2000-01-01T11:44:38.000Z</time>
      </trkpt>
      <trkpt lat="44.1209" lon="5.78587">
        <ele>1702</ele>
        <time>2000-01-01T11:44:48.000Z</time>
      </trkpt>
      <trkpt lat="44.12054" lon="5.78565">
        <ele>1696</ele>
        <time>2000-01-01T11:44:58.000Z</time>
      </trkpt>
      <trkpt lat="44.12052" lon="5.78505">
        <ele>1692</ele>
        <time>2000-01-01T11:45:08.000Z</time>
      </trkpt>
      <trkpt lat="44.12038" lon="5.78469">
        <ele>1684</ele>
        <time>2000-01-01T11:45:18.000Z</time>
      </trkpt>
      <trkpt lat="44.12026" lon="5.78437">
        <ele>1679</ele>
        <time>2000-01-01T11:45:28.000Z</time>
      </trkpt>
      <trkpt lat="44.12013" lon="5.78402">
        <ele>1673</ele>
        <time>2000-01-01T11:45:38.000Z</time>
      </trkpt>
      <trkpt lat="44.11992" lon="5.78371">
        <ele>1666</ele>
        <time>2000-01-01T11:45:48.000Z</time>
      </trkpt>
      <trkpt lat="44.11978" lon="5.78338">
        <ele>1658</ele>
        <time>2000-01-01T11:45:58.000Z</time>
      </trkpt>
      <trkpt lat="44.11965" lon="5.78299">
        <ele>1654</ele>
        <time>2000-01-01T11:46:08.000Z</time>
      </trkpt>
      <trkpt lat="44.11946" lon="5.78258">
        <ele>1650</ele>
        <time>2000-01-01T11:46:18.000Z</time>
      </trkpt>
      <trkpt lat="44.11918" lon="5.78269">
        <ele>1650</ele>
        <time>2000-01-01T11:46:28.000Z</time>
      </trkpt>
      <trkpt lat="44.11874" lon="5.78287">
        <ele>1647</ele>
        <time>2000-01-01T11:46:38.000Z</time>
      </trkpt>
      <trkpt lat="44.11845" lon="5.78286">
        <ele>1646</ele>
        <time>2000-01-01T11:46:48.000Z</time>
      </trkpt>
      <trkpt lat="44.11804" lon="5.78284">
        <ele>1642</ele>
        <time>2000-01-01T11:46:58.000Z</time>
      </trkpt>
      <trkpt lat="44.11773" lon="5.78279">
        <ele>1642</ele>
        <time>2000-01-01T11:47:08.000Z</time>
      </trkpt>
      <trkpt lat="44.11747" lon="5.78275">
        <ele>1639</ele>
        <time>2000-01-01T11:47:18.000Z</time>
      </trkpt>
      <trkpt lat="44.11718" lon="5.78271">
        <ele>1634</ele>
        <time>2000-01-01T11:47:28.000Z</time>
      </trkpt>
      <trkpt lat="44.11677" lon="5.78256">
        <ele>1628</ele>
        <time>2000-01-01T11:47:38.000Z</time>
      </trkpt>
      <trkpt lat="44.11635" lon="5.78226">
        <ele>1624</ele>
        <time>2000-01-01T11:47:48.000Z</time>
      </trkpt>
      <trkpt lat="44.11607" lon="5.78218">
        <ele>1617</ele>
        <time>2000-01-01T11:47:58.000Z</time>
      </trkpt>
      <trkpt lat="44.11573" lon="5.78186">
        <ele>1613</ele>
        <time>2000-01-01T11:48:08.000Z</time>
      </trkpt>
      <trkpt lat="44.11537" lon="5.7816">
        <ele>1604</ele>
        <time>2000-01-01T11:48:18.000Z</time>
      </trkpt>
      <trkpt lat="44.11519" lon="5.78145">
        <ele>1600</ele>
        <time>2000-01-01T11:48:28.000Z</time>
      </trkpt>
      <trkpt lat="44.11499" lon="5.78132">
        <ele>1596</ele>
        <time>2000-01-01T11:48:38.000Z</time>
      </trkpt>
      <trkpt lat="44.11479" lon="5.78133">
        <ele>1593</ele>
        <time>2000-01-01T11:48:48.000Z</time>
      </trkpt>
      <trkpt lat="44.11464" lon="5.78139">
        <ele>1592.1</ele>
        <time>2000-01-01T11:48:58.000Z</time>
      </trkpt>
      <trkpt lat="44.11444" lon="5.78145">
        <ele>1589</ele>
        <time>2000-01-01T11:49:08.000Z</time>
      </trkpt>
      <trkpt lat="44.11418" lon="5.78149">
        <ele>1587</ele>
        <time>2000-01-01T11:49:18.000Z</time>
      </trkpt>
      <trkpt lat="44.11404" lon="5.78153">
        <ele>1585.8</ele>
        <time>2000-01-01T11:49:28.000Z</time>
      </trkpt>
      <trkpt lat="44.11365" lon="5.78147">
        <ele>1585</ele>
        <time>2000-01-01T11:49:38.000Z</time>
      </trkpt>
      <trkpt lat="44.11339" lon="5.78144">
        <ele>1583</ele>
        <time>2000-01-01T11:49:48.000Z</time>
      </trkpt>
      <trkpt lat="44.11307" lon="5.78153">
        <ele>1582</ele>
        <time>2000-01-01T11:49:58.000Z</time>
      </trkpt>
      <trkpt lat="44.11338" lon="5.78159">
        <ele>1582</ele>
        <time>2000-01-01T11:50:08.000Z</time>
      </trkpt>
      <trkpt lat="44.11364" lon="5.78164">
        <ele>1582</ele>
        <time>2000-01-01T11:50:18.000Z</time>
      </trkpt>
      <trkpt lat="44.11396" lon="5.7817">
        <ele>1583</ele>
        <time>2000-01-01T11:50:28.000Z</time>
      </trkpt>
      <trkpt lat="44.11427" lon="5.78162">
        <ele>1586</ele>
        <time>2000-01-01T11:50:38.000Z</time>
      </trkpt>
      <trkpt lat="44.11453" lon="5.78156">
        <ele>1590</ele>
        <time>2000-01-01T11:50:48.000Z</time>
      </trkpt>
      <trkpt lat="44.11485" lon="5.78148">
        <ele>1594</ele>
        <time>2000-01-01T11:50:58.000Z</time>
      </trkpt>
      <trkpt lat="44.11522" lon="5.78174">
        <ele>1601</ele>
        <time>2000-01-01T11:51:08.000Z</time>
      </trkpt>
      <trkpt lat="44.11552" lon="5.78196">
        <ele>1607</ele>
        <time>2000-01-01T11:51:18.000Z</time>
      </trkpt>
      <trkpt lat="44.11582" lon="5.78217">
        <ele>1612</ele>
        <time>2000-01-01T11:51:28.000Z</time>
      </trkpt>
      <trkpt lat="44.11621" lon="5.78246">
        <ele>1617</ele>
        <time>2000-01-01T11:51:38.000Z</time>
      </trkpt>
      <trkpt lat="44.11643" lon="5.78261">
        <ele>1619</ele>
        <time>2000-01-01T11:51:48.000Z</time>
      </trkpt>
      <trkpt lat="44.11665" lon="5.78277">
        <ele>1620</ele>
        <time>2000-01-01T11:51:58.000Z</time>
      </trkpt>
      <trkpt lat="44.11688" lon="5.78294">
        <ele>1621</ele>
        <time>2000-01-01T11:52:08.000Z</time>
      </trkpt>
      <trkpt lat="44.11713" lon="5.78311">
        <ele>1621</ele>
        <time>2000-01-01T11:52:18.000Z</time>
      </trkpt>
      <trkpt lat="44.1175" lon="5.78311">
        <ele>1627</ele>
        <time>2000-01-01T11:52:28.000Z</time>
      </trkpt>
      <trkpt lat="44.11787" lon="5.78311">
        <ele>1633</ele>
        <time>2000-01-01T11:52:38.000Z</time>
      </trkpt>
      <trkpt lat="44.11824" lon="5.78311">
        <ele>1638</ele>
        <time>2000-01-01T11:52:48.000Z</time>
      </trkpt>
      <trkpt lat="44.1187" lon="5.78311">
        <ele>1642</ele>
        <time>2000-01-01T11:52:58.000Z</time>
      </trkpt>
      <trkpt lat="44.11898" lon="5.78304">
        <ele>1646</ele>
        <time>2000-01-01T11:53:08.000Z</time>
      </trkpt>
      <trkpt lat="44.11938" lon="5.78294">
        <ele>1651</ele>
        <time>2000-01-01T11:53:18.000Z</time>
      </trkpt>
      <trkpt lat="44.11953" lon="5.7833">
        <ele>1653</ele>
        <time>2000-01-01T11:53:28.000Z</time>
      </trkpt>
      <trkpt lat="44.11977" lon="5.78387">
        <ele>1660</ele>
        <time>2000-01-01T11:53:38.000Z</time>
      </trkpt>
      <trkpt lat="44.11997" lon="5.78433">
        <ele>1670</ele>
        <time>2000-01-01T11:53:48.000Z</time>
      </trkpt>
      <trkpt lat="44.12011" lon="5.78468">
        <ele>1677</ele>
        <time>2000-01-01T11:53:58.000Z</time>
      </trkpt>
      <trkpt lat="44.12034" lon="5.78522">
        <ele>1688</ele>
        <time>2000-01-01T11:54:08.000Z</time>
      </trkpt>
      <trkpt lat="44.12047" lon="5.78583">
        <ele>1695</ele>
        <time>2000-01-01T11:54:18.000Z</time>
      </trkpt>
      <trkpt lat="44.12086" lon="5.786">
        <ele>1701</ele>
        <time>2000-01-01T11:54:28.000Z</time>
      </trkpt>
      <trkpt lat="44.12117" lon="5.78594">
        <ele>1706</ele>
        <time>2000-01-01T11:54:38.000Z</time>
      </trkpt>
      <trkpt lat="44.12148" lon="5.7862">
        <ele>1708</ele>
        <time>2000-01-01T11:54:48.000Z</time>
      </trkpt>
      <trkpt lat="44.12173" lon="5.7863">
        <ele>1712</ele>
        <time>2000-01-01T11:54:58.000Z</time>
      </trkpt>
      <trkpt lat="44.122" lon="5.78641">
        <ele>1715</ele>
        <time>2000-01-01T11:55:08.000Z</time>
      </trkpt>
      <trkpt lat="44.12225" lon="5.7865">
        <ele>1722</ele>
        <time>2000-01-01T11:55:18.000Z</time>
      </trkpt>
      <trkpt lat="44.12229" lon="5.78683">
        <ele>1724</ele>
        <time>2000-01-01T11:55:28.000Z</time>
      </trkpt>
      <trkpt lat="44.12233" lon="5.78717">
        <ele>1728</ele>
        <time>2000-01-01T11:55:38.000Z</time>
      </trkpt>
      <trkpt lat="44.12236" lon="5.78757">
        <ele>1732</ele>
        <time>2000-01-01T11:55:48.000Z</time>
      </trkpt>
      <trkpt lat="44.12242" lon="5.78815">
        <ele>1737</ele>
        <time>2000-01-01T11:55:58.000Z</time>
      </trkpt>
      <trkpt lat="44.12267" lon="5.78838">
        <ele>1741</ele>
        <time>2000-01-01T11:56:08.000Z</time>
      </trkpt>
      <trkpt lat="44.12288" lon="5.78856">
        <ele>1742</ele>
        <time>2000-01-01T11:56:18.000Z</time>
      </trkpt>
      <trkpt lat="44.12309" lon="5.78875">
        <ele>1740</ele>
        <time>2000-01-01T11:56:28.000Z</time>
      </trkpt>
      <trkpt lat="44.12321" lon="5.78919">
        <ele>1738</ele>
        <time>2000-01-01T11:56:38.000Z</time>
      </trkpt>
      <trkpt lat="44.12334" lon="5.78964">
        <ele>1730</ele>
        <time>2000-01-01T11:56:48.000Z</time>
      </trkpt>
      <trkpt lat="44.12351" lon="5.79026">
        <ele>1715</ele>
        <time>2000-01-01T11:56:58.000Z</time>
      </trkpt>
      <trkpt lat="44.12361" lon="5.79064">
        <ele>1710</ele>
        <time>2000-01-01T11:57:08.000Z</time>
      </trkpt>
      <trkpt lat="44.12377" lon="5.79124">
        <ele>1709</ele>
        <time>2000-01-01T11:57:18.000Z</time>
      </trkpt>
      <trkpt lat="44.12376" lon="5.79175">
        <ele>1709</ele>
        <time>2000-01-01T11:57:28.000Z</time>
      </trkpt>
      <trkpt lat="44.12375" lon="5.79227">
        <ele>1719</ele>
        <time>2000-01-01T11:57:38.000Z</time>
      </trkpt>
      <trkpt lat="44.12374" lon="5.79278">
        <ele>1731</ele>
        <time>2000-01-01T11:57:48.000Z</time>
      </trkpt>
      <trkpt lat="44.12373" lon="5.79342">
        <ele>1749</ele>
        <time>2000-01-01T11:57:58.000Z</time>
      </trkpt>
      <trkpt lat="44.12372" lon="5.79409">
        <ele>1762</ele>
        <time>2000-01-01T11:58:08.000Z</time>
      </trkpt>
      <trkpt lat="44.12372" lon="5.79446">
        <ele>1770</ele>
        <time>2000-01-01T11:58:18.000Z</time>
      </trkpt>
      <trkpt lat="44.12371" lon="5.79486">
        <ele>1775</ele>
        <time>2000-01-01T11:58:28.000Z</time>
      </trkpt>
      <trkpt lat="44.1237" lon="5.79546">
        <ele>1784</ele>
        <time>2000-01-01T11:58:38.000Z</time>
      </trkpt>
      <trkpt lat="44.12368" lon="5.79599">
        <ele>1789</ele>
        <time>2000-01-01T11:58:48.000Z</time>
      </trkpt>
      <trkpt lat="44.12367" lon="5.79645">
        <ele>1793</ele>
        <time>2000-01-01T11:58:58.000Z</time>
      </trkpt>
      <trkpt lat="44.12366" lon="5.7969">
        <ele>1796</ele>
        <time>2000-01-01T11:59:08.000Z</time>
      </trkpt>
      <trkpt lat="44.12365" lon="5.79742">
        <ele>1799</ele>
        <time>2000-01-01T11:59:18.000Z</time>
      </trkpt>
      <trkpt lat="44.12365" lon="5.79789">
        <ele>1804</ele>
        <time>2000-01-01T11:59:28.000Z</time>
      </trkpt>
      <trkpt lat="44.12365" lon="5.79836">
        <ele>1804</ele>
        <time>2000-01-01T11:59:38.000Z</time>
      </trkpt>
      <trkpt lat="44.12365" lon="5.79896">
        <ele>1804</ele>
        <time>2000-01-01T11:59:48.000Z</time>
      </trkpt>
      <trkpt lat="44.12361" lon="5.79945">
        <ele>1800</ele>
        <time>2000-01-01T11:59:58.000Z</time>
      </trkpt>
      <trkpt lat="44.12358" lon="5.79993">
        <ele>1799</ele>
        <time>2000-01-01T12:00:08.000Z</time>
      </trkpt>
      <trkpt lat="44.12355" lon="5.80028">
        <ele>1799</ele>
        <time>2000-01-01T12:00:18.000Z</time>
      </trkpt>
      <trkpt lat="44.12353" lon="5.80068">
        <ele>1802</ele>
        <time>2000-01-01T12:00:28.000Z</time>
      </trkpt>
      <trkpt lat="44.12338" lon="5.80115">
        <ele>1805</ele>
        <time>2000-01-01T12:00:38.000Z</time>
      </trkpt>
      <trkpt lat="44.12324" lon="5.80163">
        <ele>1810</ele>
        <time>2000-01-01T12:00:48.000Z</time>
      </trkpt>
      <trkpt lat="44.12309" lon="5.8021">
        <ele>1813</ele>
        <time>2000-01-01T12:00:58.000Z</time>
      </trkpt>
      <trkpt lat="44.12292" lon="5.80268">
        <ele>1815</ele>
        <time>2000-01-01T12:01:08.000Z</time>
      </trkpt>
      <trkpt lat="44.12273" lon="5.80326">
        <ele>1815</ele>
        <time>2000-01-01T12:01:18.000Z</time>
      </trkpt>
      <trkpt lat="44.12272" lon="5.80334">
        <ele>1816.3</ele>
        <time>2000-01-01T12:01:28.000Z</time>
      </trkpt>
      <trkpt lat="44.12272" lon="5.80348">
        <ele>1814.5</ele>
        <time>2000-01-01T12:01:38.000Z</time>
      </trkpt>
      <trkpt lat="44.1227" lon="5.80368">
        <ele>1814</ele>
        <time>2000-01-01T12:01:48.000Z</time>
      </trkpt>
      <trkpt lat="44.1227" lon="5.80375">
        <ele>1812.8</ele>
        <time>2000-01-01T12:01:58.000Z</time>
      </trkpt>
      <trkpt lat="44.12272" lon="5.80388">
        <ele>1812.4</ele>
        <time>2000-01-01T12:02:08.000Z</time>
      </trkpt>
      <trkpt lat="44.12272" lon="5.80395">
        <ele>1814</ele>
        <time>2000-01-01T12:02:18.000Z</time>
      </trkpt>
      <trkpt lat="44.12277" lon="5.80429">
        <ele>1814</ele>
        <time>2000-01-01T12:02:28.000Z</time>
      </trkpt>
      <trkpt lat="44.12286" lon="5.80463">
        <ele>1810</ele>
        <time>2000-01-01T12:02:38.000Z</time>
      </trkpt>
      <trkpt lat="44.1229" lon="5.80491">
        <ele>1806</ele>
        <time>2000-01-01T12:02:48.000Z</time>
      </trkpt>
      <trkpt lat="44.12294" lon="5.80505">
        <ele>1801.2</ele>
        <time>2000-01-01T12:02:58.000Z</time>
      </trkpt>
      <trkpt lat="44.12297" lon="5.80512">
        <ele>1800.5</ele>
        <time>2000-01-01T12:03:08.000Z</time>
      </trkpt>
      <trkpt lat="44.12303" lon="5.80534">
        <ele>1800</ele>
        <time>2000-01-01T12:03:18.000Z</time>
      </trkpt>
      <trkpt lat="44.12311" lon="5.80558">
        <ele>1794.1</ele>
        <time>2000-01-01T12:03:28.000Z</time>
      </trkpt>
      <trkpt lat="44.12321" lon="5.80594">
        <ele>1792</ele>
        <time>2000-01-01T12:03:38.000Z</time>
      </trkpt>
      <trkpt lat="44.12324" lon="5.80601">
        <ele>1789.1</ele>
        <time>2000-01-01T12:03:48.000Z</time>
      </trkpt>
      <trkpt lat="44.12326" lon="5.80608">
        <ele>1789.1</ele>
        <time>2000-01-01T12:03:58.000Z</time>
      </trkpt>
      <trkpt lat="44.12335" lon="5.80628">
        <ele>1791</ele>
        <time>2000-01-01T12:04:08.000Z</time>
      </trkpt>
      <trkpt lat="44.12341" lon="5.80637">
        <ele>1788.5</ele>
        <time>2000-01-01T12:04:18.000Z</time>
      </trkpt>
      <trkpt lat="44.12343" lon="5.80642">
        <ele>1788.3</ele>
        <time>2000-01-01T12:04:28.000Z</time>
      </trkpt>
      <trkpt lat="44.12346" lon="5.80647">
        <ele>1787.6</ele>
        <time>2000-01-01T12:04:38.000Z</time>
      </trkpt>
      <trkpt lat="44.12347" lon="5.80652">
        <ele>1791</ele>
        <time>2000-01-01T12:04:48.000Z</time>
      </trkpt>
      <trkpt lat="44.12349" lon="5.80658">
        <ele>1787.4</ele>
        <time>2000-01-01T12:04:58.000Z</time>
      </trkpt>
      <trkpt lat="44.12349" lon="5.80664">
        <ele>1787.6</ele>
        <time>2000-01-01T12:05:08.000Z</time>
      </trkpt>
      <trkpt lat="44.12348" lon="5.8067">
        <ele>1787.7</ele>
        <time>2000-01-01T12:05:18.000Z</time>
      </trkpt>
      <trkpt lat="44.12348" lon="5.80677">
        <ele>1787.2</ele>
        <time>2000-01-01T12:05:28.000Z</time>
      </trkpt>
      <trkpt lat="44.12346" lon="5.80684">
        <ele>1789</ele>
        <time>2000-01-01T12:05:38.000Z</time>
      </trkpt>
      <trkpt lat="44.12345" lon="5.80692">
        <ele>1786.4</ele>
        <time>2000-01-01T12:05:48.000Z</time>
      </trkpt>
      <trkpt lat="44.12339" lon="5.80714">
        <ele>1785</ele>
        <time>2000-01-01T12:05:58.000Z</time>
      </trkpt>
      <trkpt lat="44.12338" lon="5.80721">
        <ele>1784.3</ele>
        <time>2000-01-01T12:06:08.000Z</time>
      </trkpt>
      <trkpt lat="44.12338" lon="5.80728">
        <ele>1783.2</ele>
        <time>2000-01-01T12:06:18.000Z</time>
      </trkpt>
      <trkpt lat="44.12336" lon="5.80743">
        <ele>1782</ele>
        <time>2000-01-01T12:06:28.000Z</time>
      </trkpt>
      <trkpt lat="44.12332" lon="5.80759">
        <ele>1778.9</ele>
        <time>2000-01-01T12:06:38.000Z</time>
      </trkpt>
      <trkpt lat="44.12329" lon="5.80767">
        <ele>1777.2</ele>
        <time>2000-01-01T12:06:48.000Z</time>
      </trkpt>
      <trkpt lat="44.12325" lon="5.80782">
        <ele>1777</ele>
        <time>2000-01-01T12:06:58.000Z</time>
      </trkpt>
      <trkpt lat="44.12322" lon="5.80789">
        <ele>1773.9</ele>
        <time>2000-01-01T12:07:08.000Z</time>
      </trkpt>
      <trkpt lat="44.12316" lon="5.80812">
        <ele>1773</ele>
        <time>2000-01-01T12:07:18.000Z</time>
      </trkpt>
      <trkpt lat="44.12312" lon="5.80843">
        <ele>1772</ele>
        <time>2000-01-01T12:07:28.000Z</time>
      </trkpt>
      <trkpt lat="44.12312" lon="5.80851">
        <ele>1769.9</ele>
        <time>2000-01-01T12:07:38.000Z</time>
      </trkpt>
      <trkpt lat="44.12314" lon="5.80865">
        <ele>1769.4</ele>
        <time>2000-01-01T12:07:48.000Z</time>
      </trkpt>
      <trkpt lat="44.12317" lon="5.80872">
        <ele>1772</ele>
        <time>2000-01-01T12:07:58.000Z</time>
      </trkpt>
      <trkpt lat="44.12326" lon="5.809">
        <ele>1772</ele>
        <time>2000-01-01T12:08:08.000Z</time>
      </trkpt>
      <trkpt lat="44.12328" lon="5.80904">
        <ele>1771.4</ele>
        <time>2000-01-01T12:08:18.000Z</time>
      </trkpt>
      <trkpt lat="44.12328" lon="5.80911">
        <ele>1772</ele>
        <time>2000-01-01T12:08:28.000Z</time>
      </trkpt>
      <trkpt lat="44.12331" lon="5.80925">
        <ele>1771.6</ele>
        <time>2000-01-01T12:08:38.000Z</time>
      </trkpt>
      <trkpt lat="44.1233" lon="5.8093">
        <ele>1770</ele>
        <time>2000-01-01T12:08:48.000Z</time>
      </trkpt>
      <trkpt lat="44.1233" lon="5.80937">
        <ele>1769.8</ele>
        <time>2000-01-01T12:08:58.000Z</time>
      </trkpt>
      <trkpt lat="44.12328" lon="5.8095">
        <ele>1767.7</ele>
        <time>2000-01-01T12:09:08.000Z</time>
      </trkpt>
      <trkpt lat="44.12323" lon="5.80967">
        <ele>1768</ele>
        <time>2000-01-01T12:09:18.000Z</time>
      </trkpt>
      <trkpt lat="44.12315" lon="5.80991">
        <ele>1761.3</ele>
        <time>2000-01-01T12:09:28.000Z</time>
      </trkpt>
      <trkpt lat="44.12314" lon="5.80996">
        <ele>1763</ele>
        <time>2000-01-01T12:09:38.000Z</time>
      </trkpt>
      <trkpt lat="44.1231" lon="5.81007">
        <ele>1759.2</ele>
        <time>2000-01-01T12:09:48.000Z</time>
      </trkpt>
      <trkpt lat="44.12309" lon="5.81012">
        <ele>1758.5</ele>
        <time>2000-01-01T12:09:58.000Z</time>
      </trkpt>
      <trkpt lat="44.12309" lon="5.81018">
        <ele>1757.5</ele>
        <time>2000-01-01T12:10:08.000Z</time>
      </trkpt>
      <trkpt lat="44.12307" lon="5.81031">
        <ele>1755</ele>
        <time>2000-01-01T12:10:18.000Z</time>
      </trkpt>
      <trkpt lat="44.12307" lon="5.81037">
        <ele>1754.9</ele>
        <time>2000-01-01T12:10:28.000Z</time>
      </trkpt>
      <trkpt lat="44.12306" lon="5.81044">
        <ele>1753.9</ele>
        <time>2000-01-01T12:10:38.000Z</time>
      </trkpt>
      <trkpt lat="44.12306" lon="5.81059">
        <ele>1752</ele>
        <time>2000-01-01T12:10:48.000Z</time>
      </trkpt>
      <trkpt lat="44.12305" lon="5.81066">
        <ele>1750.8</ele>
        <time>2000-01-01T12:10:58.000Z</time>
      </trkpt>
      <trkpt lat="44.123" lon="5.81084">
        <ele>1748.1</ele>
        <time>2000-01-01T12:11:08.000Z</time>
      </trkpt>
      <trkpt lat="44.12297" lon="5.81104">
        <ele>1746</ele>
        <time>2000-01-01T12:11:18.000Z</time>
      </trkpt>
      <trkpt lat="44.12293" lon="5.81114">
        <ele>1743</ele>
        <time>2000-01-01T12:11:28.000Z</time>
      </trkpt>
      <trkpt lat="44.12288" lon="5.8113">
        <ele>1742</ele>
        <time>2000-01-01T12:11:38.000Z</time>
      </trkpt>
      <trkpt lat="44.12285" lon="5.81136">
        <ele>1739.4</ele>
        <time>2000-01-01T12:11:48.000Z</time>
      </trkpt>
      <trkpt lat="44.12276" lon="5.81146">
        <ele>1738.3</ele>
        <time>2000-01-01T12:11:58.000Z</time>
      </trkpt>
      <trkpt lat="44.12269" lon="5.81156">
        <ele>1737</ele>
        <time>2000-01-01T12:12:08.000Z</time>
      </trkpt>
      <trkpt lat="44.12266" lon="5.81161">
        <ele>1734.9</ele>
        <time>2000-01-01T12:12:18.000Z</time>
      </trkpt>
      <trkpt lat="44.12264" lon="5.81167">
        <ele>1733.9</ele>
        <time>2000-01-01T12:12:28.000Z</time>
      </trkpt>
      <trkpt lat="44.12261" lon="5.81172">
        <ele>1733.2</ele>
        <time>2000-01-01T12:12:38.000Z</time>
      </trkpt>
      <trkpt lat="44.12259" lon="5.81179">
        <ele>1733</ele>
        <time>2000-01-01T12:12:48.000Z</time>
      </trkpt>
      <trkpt lat="44.12258" lon="5.81185">
        <ele>1731.5</ele>
        <time>2000-01-01T12:12:58.000Z</time>
      </trkpt>
      <trkpt lat="44.12258" lon="5.81192">
        <ele>1730.6</ele>
        <time>2000-01-01T12:13:08.000Z</time>
      </trkpt>
      <trkpt lat="44.12256" lon="5.81199">
        <ele>1730.2</ele>
        <time>2000-01-01T12:13:18.000Z</time>
      </trkpt>
      <trkpt lat="44.12254" lon="5.81213">
        <ele>1730</ele>
        <time>2000-01-01T12:13:28.000Z</time>
      </trkpt>
      <trkpt lat="44.12252" lon="5.81221">
        <ele>1729.3</ele>
        <time>2000-01-01T12:13:38.000Z</time>
      </trkpt>
      <trkpt lat="44.12249" lon="5.81228">
        <ele>1729.5</ele>
        <time>2000-01-01T12:13:48.000Z</time>
      </trkpt>
      <trkpt lat="44.12247" lon="5.81239">
        <ele>1730</ele>
        <time>2000-01-01T12:13:58.000Z</time>
      </trkpt>
      <trkpt lat="44.12244" lon="5.81246">
        <ele>1728.4</ele>
        <time>2000-01-01T12:14:08.000Z</time>
      </trkpt>
      <trkpt lat="44.12243" lon="5.8125">
        <ele>1728.3</ele>
        <time>2000-01-01T12:14:18.000Z</time>
      </trkpt>
      <trkpt lat="44.12241" lon="5.81254">
        <ele>1728.5</ele>
        <time>2000-01-01T12:14:28.000Z</time>
      </trkpt>
      <trkpt lat="44.12239" lon="5.81261">
        <ele>1728.9</ele>
        <time>2000-01-01T12:14:38.000Z</time>
      </trkpt>
      <trkpt lat="44.12236" lon="5.81268">
        <ele>1730</ele>
        <time>2000-01-01T12:14:48.000Z</time>
      </trkpt>
      <trkpt lat="44.12234" lon="5.81271">
        <ele>1729.9</ele>
        <time>2000-01-01T12:14:58.000Z</time>
      </trkpt>
      <trkpt lat="44.12233" lon="5.81275">
        <ele>1730.3</ele>
        <time>2000-01-01T12:15:08.000Z</time>
      </trkpt>
      <trkpt lat="44.12231" lon="5.81278">
        <ele>1730.7</ele>
        <time>2000-01-01T12:15:18.000Z</time>
      </trkpt>
      <trkpt lat="44.1223" lon="5.81282">
        <ele>1731.1</ele>
        <time>2000-01-01T12:15:28.000Z</time>
      </trkpt>
      <trkpt lat="44.12228" lon="5.81285">
        <ele>1731.5</ele>
        <time>2000-01-01T12:15:38.000Z</time>
      </trkpt>
      <trkpt lat="44.12215" lon="5.81316">
        <ele>1734</ele>
        <time>2000-01-01T12:15:48.000Z</time>
      </trkpt>
      <trkpt lat="44.12213" lon="5.81319">
        <ele>1734</ele>
        <time>2000-01-01T12:15:58.000Z</time>
      </trkpt>
      <trkpt lat="44.12211" lon="5.81325">
        <ele>1734.3</ele>
        <time>2000-01-01T12:16:08.000Z</time>
      </trkpt>
      <trkpt lat="44.12209" lon="5.81328">
        <ele>1734.6</ele>
        <time>2000-01-01T12:16:18.000Z</time>
      </trkpt>
      <trkpt lat="44.12205" lon="5.81337">
        <ele>1735.2</ele>
        <time>2000-01-01T12:16:28.000Z</time>
      </trkpt>
      <trkpt lat="44.12196" lon="5.81353">
        <ele>1738</ele>
        <time>2000-01-01T12:16:38.000Z</time>
      </trkpt>
      <trkpt lat="44.12194" lon="5.81359">
        <ele>1737.8</ele>
        <time>2000-01-01T12:16:48.000Z</time>
      </trkpt>
      <trkpt lat="44.12189" lon="5.81368">
        <ele>1737.6</ele>
        <time>2000-01-01T12:16:58.000Z</time>
      </trkpt>
      <trkpt lat="44.12188" lon="5.81372">
        <ele>1737.5</ele>
        <time>2000-01-01T12:17:08.000Z</time>
      </trkpt>
      <trkpt lat="44.12183" lon="5.81381">
        <ele>1740</ele>
        <time>2000-01-01T12:17:18.000Z</time>
      </trkpt>
      <trkpt lat="44.12181" lon="5.81387">
        <ele>1738.4</ele>
        <time>2000-01-01T12:17:28.000Z</time>
      </trkpt>
      <trkpt lat="44.12179" lon="5.8139">
        <ele>1738.8</ele>
        <time>2000-01-01T12:17:38.000Z</time>
      </trkpt>
      <trkpt lat="44.12178" lon="5.81393">
        <ele>1738.9</ele>
        <time>2000-01-01T12:17:48.000Z</time>
      </trkpt>
      <trkpt lat="44.12174" lon="5.81399">
        <ele>1739.9</ele>
        <time>2000-01-01T12:17:58.000Z</time>
      </trkpt>
      <trkpt lat="44.12171" lon="5.81408">
        <ele>1742</ele>
        <time>2000-01-01T12:18:08.000Z</time>
      </trkpt>
      <trkpt lat="44.12167" lon="5.81414">
        <ele>1742.8</ele>
        <time>2000-01-01T12:18:18.000Z</time>
      </trkpt>
      <trkpt lat="44.12164" lon="5.81421">
        <ele>1742.8</ele>
        <time>2000-01-01T12:18:28.000Z</time>
      </trkpt>
      <trkpt lat="44.12161" lon="5.81424">
        <ele>1742.6</ele>
        <time>2000-01-01T12:18:38.000Z</time>
      </trkpt>
      <trkpt lat="44.1216" lon="5.81427">
        <ele>1742.6</ele>
        <time>2000-01-01T12:18:48.000Z</time>
      </trkpt>
      <trkpt lat="44.12157" lon="5.81431">
        <ele>1741</ele>
        <time>2000-01-01T12:18:58.000Z</time>
      </trkpt>
      <trkpt lat="44.1215" lon="5.81438">
        <ele>1742.6</ele>
        <time>2000-01-01T12:19:08.000Z</time>
      </trkpt>
      <trkpt lat="44.12139" lon="5.81453">
        <ele>1741</ele>
        <time>2000-01-01T12:19:18.000Z</time>
      </trkpt>
      <trkpt lat="44.12136" lon="5.81459">
        <ele>1742</ele>
        <time>2000-01-01T12:19:28.000Z</time>
      </trkpt>
      <trkpt lat="44.12134" lon="5.81466">
        <ele>1741.5</ele>
        <time>2000-01-01T12:19:38.000Z</time>
      </trkpt>
      <trkpt lat="44.12131" lon="5.81472">
        <ele>1740.9</ele>
        <time>2000-01-01T12:19:48.000Z</time>
      </trkpt>
      <trkpt lat="44.12125" lon="5.81482">
        <ele>1739</ele>
        <time>2000-01-01T12:19:58.000Z</time>
      </trkpt>
      <trkpt lat="44.12123" lon="5.81484">
        <ele>1738.6</ele>
        <time>2000-01-01T12:20:08.000Z</time>
      </trkpt>
      <trkpt lat="44.1212" lon="5.81489">
        <ele>1737.9</ele>
        <time>2000-01-01T12:20:18.000Z</time>
      </trkpt>
      <trkpt lat="44.12119" lon="5.81493">
        <ele>1737.5</ele>
        <time>2000-01-01T12:20:28.000Z</time>
      </trkpt>
      <trkpt lat="44.12119" lon="5.81497">
        <ele>1737.2</ele>
        <time>2000-01-01T12:20:38.000Z</time>
      </trkpt>
      <trkpt lat="44.12115" lon="5.81509">
        <ele>1737</ele>
        <time>2000-01-01T12:20:48.000Z</time>
      </trkpt>
      <trkpt lat="44.1211" lon="5.8152">
        <ele>1734.7</ele>
        <time>2000-01-01T12:20:58.000Z</time>
      </trkpt>
      <trkpt lat="44.12107" lon="5.81525">
        <ele>1733.7</ele>
        <time>2000-01-01T12:21:08.000Z</time>
      </trkpt>
      <trkpt lat="44.12102" lon="5.81537">
        <ele>1732</ele>
        <time>2000-01-01T12:21:18.000Z</time>
      </trkpt>
      <trkpt lat="44.12098" lon="5.8155">
        <ele>1729.2</ele>
        <time>2000-01-01T12:21:28.000Z</time>
      </trkpt>
      <trkpt lat="44.12096" lon="5.81562">
        <ele>1727.8</ele>
        <time>2000-01-01T12:21:38.000Z</time>
      </trkpt>
      <trkpt lat="44.12094" lon="5.81569">
        <ele>1729</ele>
        <time>2000-01-01T12:21:48.000Z</time>
      </trkpt>
      <trkpt lat="44.12092" lon="5.81583">
        <ele>1725.8</ele>
        <time>2000-01-01T12:21:58.000Z</time>
      </trkpt>
      <trkpt lat="44.1209" lon="5.81591">
        <ele>1725.6</ele>
        <time>2000-01-01T12:22:08.000Z</time>
      </trkpt>
      <trkpt lat="44.12089" lon="5.81598">
        <ele>1726</ele>
        <time>2000-01-01T12:22:18.000Z</time>
      </trkpt>
      <trkpt lat="44.12087" lon="5.81605">
        <ele>1725.4</ele>
        <time>2000-01-01T12:22:28.000Z</time>
      </trkpt>
      <trkpt lat="44.12086" lon="5.81612">
        <ele>1725.3</ele>
        <time>2000-01-01T12:22:38.000Z</time>
      </trkpt>
      <trkpt lat="44.12086" lon="5.81619">
        <ele>1724.7</ele>
        <time>2000-01-01T12:22:48.000Z</time>
      </trkpt>
      <trkpt lat="44.12085" lon="5.81626">
        <ele>1725</ele>
        <time>2000-01-01T12:22:58.000Z</time>
      </trkpt>
      <trkpt lat="44.12085" lon="5.81634">
        <ele>1723.8</ele>
        <time>2000-01-01T12:23:08.000Z</time>
      </trkpt>
      <trkpt lat="44.12083" lon="5.81649">
        <ele>1722.5</ele>
        <time>2000-01-01T12:23:18.000Z</time>
      </trkpt>
      <trkpt lat="44.12078" lon="5.81664">
        <ele>1720</ele>
        <time>2000-01-01T12:23:28.000Z</time>
      </trkpt>
      <trkpt lat="44.1206" lon="5.81705">
        <ele>1716</ele>
        <time>2000-01-01T12:23:38.000Z</time>
      </trkpt>
      <trkpt lat="44.12054" lon="5.81725">
        <ele>1714.4</ele>
        <time>2000-01-01T12:23:48.000Z</time>
      </trkpt>
      <trkpt lat="44.12051" lon="5.81732">
        <ele>1714</ele>
        <time>2000-01-01T12:23:58.000Z</time>
      </trkpt>
      <trkpt lat="44.12041" lon="5.81768">
        <ele>1713</ele>
        <time>2000-01-01T12:24:08.000Z</time>
      </trkpt>
      <trkpt lat="44.12027" lon="5.81802">
        <ele>1710</ele>
        <time>2000-01-01T12:24:18.000Z</time>
      </trkpt>
      <trkpt lat="44.12018" lon="5.8182">
        <ele>1707.8</ele>
        <time>2000-01-01T12:24:28.000Z</time>
      </trkpt>
      <trkpt lat="44.12011" lon="5.81839">
        <ele>1708</ele>
        <time>2000-01-01T12:24:38.000Z</time>
      </trkpt>
      <trkpt lat="44.12002" lon="5.81858">
        <ele>1706.5</ele>
        <time>2000-01-01T12:24:48.000Z</time>
      </trkpt>
      <trkpt lat="44.11995" lon="5.81868">
        <ele>1708</ele>
        <time>2000-01-01T12:24:58.000Z</time>
      </trkpt>
      <trkpt lat="44.1199" lon="5.81872">
        <ele>1706.3</ele>
        <time>2000-01-01T12:25:08.000Z</time>
      </trkpt>
      <trkpt lat="44.11983" lon="5.8188">
        <ele>1706.8</ele>
        <time>2000-01-01T12:25:18.000Z</time>
      </trkpt>
      <trkpt lat="44.11981" lon="5.81884">
        <ele>1707.1</ele>
        <time>2000-01-01T12:25:28.000Z</time>
      </trkpt>
      <trkpt lat="44.11977" lon="5.81888">
        <ele>1708</ele>
        <time>2000-01-01T12:25:38.000Z</time>
      </trkpt>
      <trkpt lat="44.1197" lon="5.81898">
        <ele>1709.1</ele>
        <time>2000-01-01T12:25:48.000Z</time>
      </trkpt>
      <trkpt lat="44.11965" lon="5.81903">
        <ele>1709.5</ele>
        <time>2000-01-01T12:25:58.000Z</time>
      </trkpt>
      <trkpt lat="44.11962" lon="5.81905">
        <ele>1694</ele>
        <time>2000-01-01T12:26:08.000Z</time>
      </trkpt>
      <trkpt lat="44.1196" lon="5.81905">
        <ele>1710</ele>
        <time>2000-01-01T12:26:18.000Z</time>
      </trkpt>
      <trkpt lat="44.11906" lon="5.82102">
        <ele>1680</ele>
        <time>2000-01-01T12:26:28.000Z</time>
      </trkpt>
      <trkpt lat="44.11891" lon="5.82152">
        <ele>1674</ele>
        <time>2000-01-01T12:26:38.000Z</time>
      </trkpt>
      <trkpt lat="44.11879" lon="5.8219">
        <ele>1667</ele>
        <time>2000-01-01T12:26:48.000Z</time>
      </trkpt>
      <trkpt lat="44.11869" lon="5.82221">
        <ele>1663</ele>
        <time>2000-01-01T12:26:58.000Z</time>
      </trkpt>
      <trkpt lat="44.11859" lon="5.82253">
        <ele>1663</ele>
        <time>2000-01-01T12:27:08.000Z</time>
      </trkpt>
      <trkpt lat="44.11844" lon="5.82303">
        <ele>1663</ele>
        <time>2000-01-01T12:27:18.000Z</time>
      </trkpt>
      <trkpt lat="44.11834" lon="5.82334">
        <ele>1662</ele>
        <time>2000-01-01T12:27:28.000Z</time>
      </trkpt>
      <trkpt lat="44.11823" lon="5.82368">
        <ele>1662</ele>
        <time>2000-01-01T12:27:38.000Z</time>
      </trkpt>
      <trkpt lat="44.11806" lon="5.82404">
        <ele>1656</ele>
        <time>2000-01-01T12:27:48.000Z</time>
      </trkpt>
      <trkpt lat="44.11792" lon="5.82434">
        <ele>1654</ele>
        <time>2000-01-01T12:27:58.000Z</time>
      </trkpt>
      <trkpt lat="44.11777" lon="5.82467">
        <ele>1646</ele>
        <time>2000-01-01T12:28:08.000Z</time>
      </trkpt>
      <trkpt lat="44.11753" lon="5.82516">
        <ele>1640</ele>
        <time>2000-01-01T12:28:18.000Z</time>
      </trkpt>
      <trkpt lat="44.11733" lon="5.82559">
        <ele>1631</ele>
        <time>2000-01-01T12:28:28.000Z</time>
      </trkpt>
      <trkpt lat="44.11712" lon="5.82602">
        <ele>1629</ele>
        <time>2000-01-01T12:28:38.000Z</time>
      </trkpt>
      <trkpt lat="44.11695" lon="5.82638">
        <ele>1628</ele>
        <time>2000-01-01T12:28:48.000Z</time>
      </trkpt>
      <trkpt lat="44.11682" lon="5.82667">
        <ele>1628</ele>
        <time>2000-01-01T12:28:58.000Z</time>
      </trkpt>
      <trkpt lat="44.11667" lon="5.82699">
        <ele>1625</ele>
        <time>2000-01-01T12:29:08.000Z</time>
      </trkpt>
      <trkpt lat="44.11653" lon="5.82728">
        <ele>1624</ele>
        <time>2000-01-01T12:29:18.000Z</time>
      </trkpt>
      <trkpt lat="44.11638" lon="5.82759">
        <ele>1625</ele>
        <time>2000-01-01T12:29:28.000Z</time>
      </trkpt>
      <trkpt lat="44.11625" lon="5.82794">
        <ele>1626</ele>
        <time>2000-01-01T12:29:38.000Z</time>
      </trkpt>
      <trkpt lat="44.11606" lon="5.82845">
        <ele>1632</ele>
        <time>2000-01-01T12:29:48.000Z</time>
      </trkpt>
      <trkpt lat="44.11591" lon="5.82882">
        <ele>1633</ele>
        <time>2000-01-01T12:29:58.000Z</time>
      </trkpt>
      <trkpt lat="44.11579" lon="5.82913">
        <ele>1631</ele>
        <time>2000-01-01T12:30:08.000Z</time>
      </trkpt>
      <trkpt lat="44.11566" lon="5.82947">
        <ele>1630</ele>
        <time>2000-01-01T12:30:18.000Z</time>
      </trkpt>
      <trkpt lat="44.11551" lon="5.82989">
        <ele>1628</ele>
        <time>2000-01-01T12:30:28.000Z</time>
      </trkpt>
      <trkpt lat="44.11531" lon="5.83042">
        <ele>1619</ele>
        <time>2000-01-01T12:30:38.000Z</time>
      </trkpt>
      <trkpt lat="44.11528" lon="5.83092">
        <ele>1612</ele>
        <time>2000-01-01T12:30:48.000Z</time>
      </trkpt>
      <trkpt lat="44.11526" lon="5.83142">
        <ele>1610</ele>
        <time>2000-01-01T12:30:58.000Z</time>
      </trkpt>
      <trkpt lat="44.11524" lon="5.83181">
        <ele>1606</ele>
        <time>2000-01-01T12:31:08.000Z</time>
      </trkpt>
      <trkpt lat="44.11521" lon="5.83235">
        <ele>1600</ele>
        <time>2000-01-01T12:31:18.000Z</time>
      </trkpt>
      <trkpt lat="44.11522" lon="5.83273">
        <ele>1598</ele>
        <time>2000-01-01T12:31:28.000Z</time>
      </trkpt>
      <trkpt lat="44.1153" lon="5.83282">
        <ele>1597.1</ele>
        <time>2000-01-01T12:31:38.000Z</time>
      </trkpt>
      <trkpt lat="44.11545" lon="5.83288">
        <ele>1594</ele>
        <time>2000-01-01T12:31:48.000Z</time>
      </trkpt>
      <trkpt lat="44.11577" lon="5.83276">
        <ele>1579</ele>
        <time>2000-01-01T12:31:58.000Z</time>
      </trkpt>
      <trkpt lat="44.11602" lon="5.83251">
        <ele>1555</ele>
        <time>2000-01-01T12:32:08.000Z</time>
      </trkpt>
      <trkpt lat="44.11622" lon="5.8323">
        <ele>1540</ele>
        <time>2000-01-01T12:32:18.000Z</time>
      </trkpt>
      <trkpt lat="44.11645" lon="5.83207">
        <ele>1524</ele>
        <time>2000-01-01T12:32:28.000Z</time>
      </trkpt>
      <trkpt lat="44.11664" lon="5.83176">
        <ele>1516</ele>
        <time>2000-01-01T12:32:38.000Z</time>
      </trkpt>
      <trkpt lat="44.11691" lon="5.83131">
        <ele>1516</ele>
        <time>2000-01-01T12:32:48.000Z</time>
      </trkpt>
      <trkpt lat="44.1171" lon="5.83101">
        <ele>1516</ele>
        <time>2000-01-01T12:32:58.000Z</time>
      </trkpt>
      <trkpt lat="44.11737" lon="5.83057">
        <ele>1512</ele>
        <time>2000-01-01T12:33:08.000Z</time>
      </trkpt>
      <trkpt lat="44.11764" lon="5.83029">
        <ele>1498</ele>
        <time>2000-01-01T12:33:18.000Z</time>
      </trkpt>
      <trkpt lat="44.1179" lon="5.83001">
        <ele>1482</ele>
        <time>2000-01-01T12:33:28.000Z</time>
      </trkpt>
      <trkpt lat="44.11823" lon="5.82967">
        <ele>1472</ele>
        <time>2000-01-01T12:33:38.000Z</time>
      </trkpt>
      <trkpt lat="44.11853" lon="5.82938">
        <ele>1462</ele>
        <time>2000-01-01T12:33:48.000Z</time>
      </trkpt>
      <trkpt lat="44.11883" lon="5.82909">
        <ele>1454</ele>
        <time>2000-01-01T12:33:58.000Z</time>
      </trkpt>
      <trkpt lat="44.11913" lon="5.82879">
        <ele>1448</ele>
        <time>2000-01-01T12:34:08.000Z</time>
      </trkpt>
      <trkpt lat="44.11946" lon="5.82847">
        <ele>1444</ele>
        <time>2000-01-01T12:34:18.000Z</time>
      </trkpt>
      <trkpt lat="44.11979" lon="5.82822">
        <ele>1436</ele>
        <time>2000-01-01T12:34:28.000Z</time>
      </trkpt>
      <trkpt lat="44.12011" lon="5.82798">
        <ele>1428</ele>
        <time>2000-01-01T12:34:38.000Z</time>
      </trkpt>
      <trkpt lat="44.12044" lon="5.82773">
        <ele>1422</ele>
        <time>2000-01-01T12:34:48.000Z</time>
      </trkpt>
      <trkpt lat="44.12085" lon="5.82742">
        <ele>1414</ele>
        <time>2000-01-01T12:34:58.000Z</time>
      </trkpt>
      <trkpt lat="44.12113" lon="5.8272">
        <ele>1407</ele>
        <time>2000-01-01T12:35:08.000Z</time>
      </trkpt>
      <trkpt lat="44.12136" lon="5.82702">
        <ele>1405</ele>
        <time>2000-01-01T12:35:18.000Z</time>
      </trkpt>
      <trkpt lat="44.12165" lon="5.82679">
        <ele>1398</ele>
        <time>2000-01-01T12:35:28.000Z</time>
      </trkpt>
      <trkpt lat="44.1219" lon="5.82651">
        <ele>1392</ele>
        <time>2000-01-01T12:35:38.000Z</time>
      </trkpt>
      <trkpt lat="44.12211" lon="5.82626">
        <ele>1385</ele>
        <time>2000-01-01T12:35:48.000Z</time>
      </trkpt>
      <trkpt lat="44.12239" lon="5.82594">
        <ele>1382</ele>
        <time>2000-01-01T12:35:58.000Z</time>
      </trkpt>
      <trkpt lat="44.12264" lon="5.82564">
        <ele>1375</ele>
        <time>2000-01-01T12:36:08.000Z</time>
      </trkpt>
      <trkpt lat="44.12285" lon="5.82538">
        <ele>1375</ele>
        <time>2000-01-01T12:36:18.000Z</time>
      </trkpt>
      <trkpt lat="44.12313" lon="5.82503">
        <ele>1370</ele>
        <time>2000-01-01T12:36:28.000Z</time>
      </trkpt>
      <trkpt lat="44.12329" lon="5.82477">
        <ele>1367</ele>
        <time>2000-01-01T12:36:38.000Z</time>
      </trkpt>
      <trkpt lat="44.12347" lon="5.82448">
        <ele>1357</ele>
        <time>2000-01-01T12:36:48.000Z</time>
      </trkpt>
      <trkpt lat="44.12372" lon="5.82411">
        <ele>1337</ele>
        <time>2000-01-01T12:36:58.000Z</time>
      </trkpt>
      <trkpt lat="44.12397" lon="5.82374">
        <ele>1336</ele>
        <time>2000-01-01T12:37:08.000Z</time>
      </trkpt>
      <trkpt lat="44.12422" lon="5.82337">
        <ele>1333</ele>
        <time>2000-01-01T12:37:18.000Z</time>
      </trkpt>
      <trkpt lat="44.12449" lon="5.82297">
        <ele>1333</ele>
        <time>2000-01-01T12:37:28.000Z</time>
      </trkpt>
      <trkpt lat="44.12473" lon="5.82274">
        <ele>1324</ele>
        <time>2000-01-01T12:37:38.000Z</time>
      </trkpt>
      <trkpt lat="44.1251" lon="5.82238">
        <ele>1320</ele>
        <time>2000-01-01T12:37:48.000Z</time>
      </trkpt>
      <trkpt lat="44.12541" lon="5.82209">
        <ele>1313</ele>
        <time>2000-01-01T12:37:58.000Z</time>
      </trkpt>
      <trkpt lat="44.12561" lon="5.82189">
        <ele>1310</ele>
        <time>2000-01-01T12:38:08.000Z</time>
      </trkpt>
      <trkpt lat="44.12584" lon="5.82167">
        <ele>1308</ele>
        <time>2000-01-01T12:38:18.000Z</time>
      </trkpt>
      <trkpt lat="44.12616" lon="5.82137">
        <ele>1305</ele>
        <time>2000-01-01T12:38:28.000Z</time>
      </trkpt>
      <trkpt lat="44.12636" lon="5.82117">
        <ele>1296</ele>
        <time>2000-01-01T12:38:38.000Z</time>
      </trkpt>
      <trkpt lat="44.12658" lon="5.82096">
        <ele>1296</ele>
        <time>2000-01-01T12:38:48.000Z</time>
      </trkpt>
      <trkpt lat="44.1269" lon="5.82069">
        <ele>1294</ele>
        <time>2000-01-01T12:38:58.000Z</time>
      </trkpt>
      <trkpt lat="44.12724" lon="5.82041">
        <ele>1292</ele>
        <time>2000-01-01T12:39:08.000Z</time>
      </trkpt>
      <trkpt lat="44.12759" lon="5.82013">
        <ele>1283</ele>
        <time>2000-01-01T12:39:18.000Z</time>
      </trkpt>
      <trkpt lat="44.12793" lon="5.81985">
        <ele>1264</ele>
        <time>2000-01-01T12:39:28.000Z</time>
      </trkpt>
      <trkpt lat="44.12828" lon="5.81957">
        <ele>1252</ele>
        <time>2000-01-01T12:39:38.000Z</time>
      </trkpt>
      <trkpt lat="44.12853" lon="5.81936">
        <ele>1240</ele>
        <time>2000-01-01T12:39:48.000Z</time>
      </trkpt>
      <trkpt lat="44.12889" lon="5.81907">
        <ele>1232</ele>
        <time>2000-01-01T12:39:58.000Z</time>
      </trkpt>
      <trkpt lat="44.12923" lon="5.81876">
        <ele>1222</ele>
        <time>2000-01-01T12:40:08.000Z</time>
      </trkpt>
      <trkpt lat="44.12956" lon="5.81844">
        <ele>1217</ele>
        <time>2000-01-01T12:40:18.000Z</time>
      </trkpt>
      <trkpt lat="44.12984" lon="5.81818">
        <ele>1209</ele>
        <time>2000-01-01T12:40:28.000Z</time>
      </trkpt>
      <trkpt lat="44.13012" lon="5.81792">
        <ele>1198</ele>
        <time>2000-01-01T12:40:38.000Z</time>
      </trkpt>
      <trkpt lat="44.13048" lon="5.81758">
        <ele>1186</ele>
        <time>2000-01-01T12:40:48.000Z</time>
      </trkpt>
      <trkpt lat="44.13068" lon="5.81738">
        <ele>1177</ele>
        <time>2000-01-01T12:40:58.000Z</time>
      </trkpt>
      <trkpt lat="44.13089" lon="5.81718">
        <ele>1169</ele>
        <time>2000-01-01T12:41:08.000Z</time>
      </trkpt>
      <trkpt lat="44.13112" lon="5.81676">
        <ele>1159</ele>
        <time>2000-01-01T12:41:18.000Z</time>
      </trkpt>
      <trkpt lat="44.13135" lon="5.81634">
        <ele>1154</ele>
        <time>2000-01-01T12:41:28.000Z</time>
      </trkpt>
      <trkpt lat="44.13158" lon="5.81592">
        <ele>1147</ele>
        <time>2000-01-01T12:41:38.000Z</time>
      </trkpt>
      <trkpt lat="44.13175" lon="5.81561">
        <ele>1140</ele>
        <time>2000-01-01T12:41:48.000Z</time>
      </trkpt>
      <trkpt lat="44.13197" lon="5.81521">
        <ele>1136</ele>
        <time>2000-01-01T12:41:58.000Z</time>
      </trkpt>
      <trkpt lat="44.1323" lon="5.81512">
        <ele>1128</ele>
        <time>2000-01-01T12:42:08.000Z</time>
      </trkpt>
      <trkpt lat="44.13264" lon="5.81504">
        <ele>1125</ele>
        <time>2000-01-01T12:42:18.000Z</time>
      </trkpt>
      <trkpt lat="44.13308" lon="5.81492">
        <ele>1123</ele>
        <time>2000-01-01T12:42:28.000Z</time>
      </trkpt>
      <trkpt lat="44.13334" lon="5.81486">
        <ele>1123</ele>
        <time>2000-01-01T12:42:38.000Z</time>
      </trkpt>
      <trkpt lat="44.13363" lon="5.81478">
        <ele>1122</ele>
        <time>2000-01-01T12:42:48.000Z</time>
      </trkpt>
      <trkpt lat="44.13376" lon="5.81515">
        <ele>1122</ele>
        <time>2000-01-01T12:42:58.000Z</time>
      </trkpt>
      <trkpt lat="44.13397" lon="5.81572">
        <ele>1126</ele>
        <time>2000-01-01T12:43:08.000Z</time>
      </trkpt>
      <trkpt lat="44.13412" lon="5.81618">
        <ele>1130</ele>
        <time>2000-01-01T12:43:18.000Z</time>
      </trkpt>
      <trkpt lat="44.13425" lon="5.81654">
        <ele>1132</ele>
        <time>2000-01-01T12:43:28.000Z</time>
      </trkpt>
      <trkpt lat="44.13443" lon="5.81708">
        <ele>1138</ele>
        <time>2000-01-01T12:43:38.000Z</time>
      </trkpt>
      <trkpt lat="44.13456" lon="5.81744">
        <ele>1142</ele>
        <time>2000-01-01T12:43:48.000Z</time>
      </trkpt>
      <trkpt lat="44.13461" lon="5.81798">
        <ele>1147</ele>
        <time>2000-01-01T12:43:58.000Z</time>
      </trkpt>
      <trkpt lat="44.13467" lon="5.81852">
        <ele>1149</ele>
        <time>2000-01-01T12:44:08.000Z</time>
      </trkpt>
      <trkpt lat="44.13471" lon="5.81893">
        <ele>1154</ele>
        <time>2000-01-01T12:44:18.000Z</time>
      </trkpt>
      <trkpt lat="44.13477" lon="5.81959">
        <ele>1154</ele>
        <time>2000-01-01T12:44:28.000Z</time>
      </trkpt>
      <trkpt lat="44.13484" lon="5.82023">
        <ele>1154</ele>
        <time>2000-01-01T12:44:38.000Z</time>
      </trkpt>
      <trkpt lat="44.13468" lon="5.82071">
        <ele>1152</ele>
        <time>2000-01-01T12:44:48.000Z</time>
      </trkpt>
      <trkpt lat="44.13451" lon="5.82118">
        <ele>1150</ele>
        <time>2000-01-01T12:44:58.000Z</time>
      </trkpt>
      <trkpt lat="44.13437" lon="5.82159">
        <ele>1148</ele>
        <time>2000-01-01T12:45:08.000Z</time>
      </trkpt>
      <trkpt lat="44.13425" lon="5.82194">
        <ele>1147</ele>
        <time>2000-01-01T12:45:18.000Z</time>
      </trkpt>
      <trkpt lat="44.1341" lon="5.82242">
        <ele>1146</ele>
        <time>2000-01-01T12:45:28.000Z</time>
      </trkpt>
      <trkpt lat="44.13397" lon="5.82279">
        <ele>1146</ele>
        <time>2000-01-01T12:45:38.000Z</time>
      </trkpt>
      <trkpt lat="44.13376" lon="5.82339">
        <ele>1145</ele>
        <time>2000-01-01T12:45:48.000Z</time>
      </trkpt>
      <trkpt lat="44.13358" lon="5.82387">
        <ele>1145</ele>
        <time>2000-01-01T12:45:58.000Z</time>
      </trkpt>
      <trkpt lat="44.13345" lon="5.82425">
        <ele>1145</ele>
        <time>2000-01-01T12:46:08.000Z</time>
      </trkpt>
      <trkpt lat="44.13334" lon="5.82455">
        <ele>1145</ele>
        <time>2000-01-01T12:46:18.000Z</time>
      </trkpt>
      <trkpt lat="44.13323" lon="5.82486">
        <ele>1143</ele>
        <time>2000-01-01T12:46:28.000Z</time>
      </trkpt>
      <trkpt lat="44.13313" lon="5.8253">
        <ele>1140</ele>
        <time>2000-01-01T12:46:38.000Z</time>
      </trkpt>
      <trkpt lat="44.13302" lon="5.82573">
        <ele>1136</ele>
        <time>2000-01-01T12:46:48.000Z</time>
      </trkpt>
      <trkpt lat="44.1329" lon="5.82624">
        <ele>1129</ele>
        <time>2000-01-01T12:46:58.000Z</time>
      </trkpt>
      <trkpt lat="44.13266" lon="5.82639">
        <ele>1124</ele>
        <time>2000-01-01T12:47:08.000Z</time>
      </trkpt>
      <trkpt lat="44.13237" lon="5.82657">
        <ele>1115</ele>
        <time>2000-01-01T12:47:18.000Z</time>
      </trkpt>
      <trkpt lat="44.1321" lon="5.82675">
        <ele>1108</ele>
        <time>2000-01-01T12:47:28.000Z</time>
      </trkpt>
      <trkpt lat="44.13182" lon="5.82681">
        <ele>1104</ele>
        <time>2000-01-01T12:47:38.000Z</time>
      </trkpt>
      <trkpt lat="44.1314" lon="5.8269">
        <ele>1086</ele>
        <time>2000-01-01T12:47:48.000Z</time>
      </trkpt>
      <trkpt lat="44.13106" lon="5.82696">
        <ele>1076</ele>
        <time>2000-01-01T12:47:58.000Z</time>
      </trkpt>
      <trkpt lat="44.13062" lon="5.82705">
        <ele>1060</ele>
        <time>2000-01-01T12:48:08.000Z</time>
      </trkpt>
      <trkpt lat="44.13039" lon="5.82724">
        <ele>1052</ele>
        <time>2000-01-01T12:48:18.000Z</time>
      </trkpt>
      <trkpt lat="44.13012" lon="5.82748">
        <ele>1051</ele>
        <time>2000-01-01T12:48:28.000Z</time>
      </trkpt>
      <trkpt lat="44.13019" lon="5.82788">
        <ele>1051</ele>
        <time>2000-01-01T12:48:38.000Z</time>
      </trkpt>
      <trkpt lat="44.13031" lon="5.82851">
        <ele>1048</ele>
        <time>2000-01-01T12:48:48.000Z</time>
      </trkpt>
      <trkpt lat="44.13015" lon="5.82895">
        <ele>1046</ele>
        <time>2000-01-01T12:48:58.000Z</time>
      </trkpt>
      <trkpt lat="44.12998" lon="5.82939">
        <ele>1043</ele>
        <time>2000-01-01T12:49:08.000Z</time>
      </trkpt>
      <trkpt lat="44.12986" lon="5.82973">
        <ele>1042</ele>
        <time>2000-01-01T12:49:18.000Z</time>
      </trkpt>
      <trkpt lat="44.12969" lon="5.83018">
        <ele>1042</ele>
        <time>2000-01-01T12:49:28.000Z</time>
      </trkpt>
      <trkpt lat="44.12954" lon="5.83062">
        <ele>1046</ele>
        <time>2000-01-01T12:49:38.000Z</time>
      </trkpt>
      <trkpt lat="44.1294" lon="5.83106">
        <ele>1052</ele>
        <time>2000-01-01T12:49:48.000Z</time>
      </trkpt>
      <trkpt lat="44.12929" lon="5.83138">
        <ele>1054</ele>
        <time>2000-01-01T12:49:58.000Z</time>
      </trkpt>
      <trkpt lat="44.12917" lon="5.83173">
        <ele>1055</ele>
        <time>2000-01-01T12:50:08.000Z</time>
      </trkpt>
      <trkpt lat="44.12904" lon="5.83208">
        <ele>1055</ele>
        <time>2000-01-01T12:50:18.000Z</time>
      </trkpt>
      <trkpt lat="44.12886" lon="5.83256">
        <ele>1056</ele>
        <time>2000-01-01T12:50:28.000Z</time>
      </trkpt>
      <trkpt lat="44.12868" lon="5.83306">
        <ele>1055</ele>
        <time>2000-01-01T12:50:38.000Z</time>
      </trkpt>
      <trkpt lat="44.12828" lon="5.8334">
        <ele>1054</ele>
        <time>2000-01-01T12:50:48.000Z</time>
      </trkpt>
      <trkpt lat="44.128" lon="5.8333">
        <ele>1055</ele>
        <time>2000-01-01T12:50:58.000Z</time>
      </trkpt>
      <trkpt lat="44.12757" lon="5.83315">
        <ele>1049</ele>
        <time>2000-01-01T12:51:08.000Z</time>
      </trkpt>
      <trkpt lat="44.12754" lon="5.83373">
        <ele>1044</ele>
        <time>2000-01-01T12:51:18.000Z</time>
      </trkpt>
      <trkpt lat="44.12751" lon="5.8343">
        <ele>1034</ele>
        <time>2000-01-01T12:51:28.000Z</time>
      </trkpt>
      <trkpt lat="44.12748" lon="5.83488">
        <ele>1028</ele>
        <time>2000-01-01T12:51:38.000Z</time>
      </trkpt>
      <trkpt lat="44.12745" lon="5.83546">
        <ele>1022</ele>
        <time>2000-01-01T12:51:48.000Z</time>
      </trkpt>
      <trkpt lat="44.12742" lon="5.83604">
        <ele>1019</ele>
        <time>2000-01-01T12:51:58.000Z</time>
      </trkpt>
      <trkpt lat="44.12739" lon="5.83661">
        <ele>1017</ele>
        <time>2000-01-01T12:52:08.000Z</time>
      </trkpt>
      <trkpt lat="44.12736" lon="5.83726">
        <ele>1017</ele>
        <time>2000-01-01T12:52:18.000Z</time>
      </trkpt>
      <trkpt lat="44.12734" lon="5.8376">
        <ele>1013</ele>
        <time>2000-01-01T12:52:28.000Z</time>
      </trkpt>
      <trkpt lat="44.12732" lon="5.83795">
        <ele>1005</ele>
        <time>2000-01-01T12:52:38.000Z</time>
      </trkpt>
      <trkpt lat="44.12708" lon="5.83827">
        <ele>997</ele>
        <time>2000-01-01T12:52:48.000Z</time>
      </trkpt>
      <trkpt lat="44.12684" lon="5.83859">
        <ele>988</ele>
        <time>2000-01-01T12:52:58.000Z</time>
      </trkpt>
      <trkpt lat="44.12655" lon="5.83898">
        <ele>978</ele>
        <time>2000-01-01T12:53:08.000Z</time>
      </trkpt>
      <trkpt lat="44.12665" lon="5.83944">
        <ele>976</ele>
        <time>2000-01-01T12:53:18.000Z</time>
      </trkpt>
      <trkpt lat="44.12673" lon="5.83979">
        <ele>973</ele>
        <time>2000-01-01T12:53:28.000Z</time>
      </trkpt>
      <trkpt lat="44.12684" lon="5.84023">
        <ele>973</ele>
        <time>2000-01-01T12:53:38.000Z</time>
      </trkpt>
      <trkpt lat="44.12692" lon="5.8406">
        <ele>973</ele>
        <time>2000-01-01T12:53:48.000Z</time>
      </trkpt>
      <trkpt lat="44.12705" lon="5.84114">
        <ele>981</ele>
        <time>2000-01-01T12:53:58.000Z</time>
      </trkpt>
      <trkpt lat="44.12713" lon="5.84151">
        <ele>981</ele>
        <time>2000-01-01T12:54:08.000Z</time>
      </trkpt>
      <trkpt lat="44.12724" lon="5.842">
        <ele>981</ele>
        <time>2000-01-01T12:54:18.000Z</time>
      </trkpt>
      <trkpt lat="44.12732" lon="5.84233">
        <ele>985</ele>
        <time>2000-01-01T12:54:28.000Z</time>
      </trkpt>
      <trkpt lat="44.1273" lon="5.84287">
        <ele>985</ele>
        <time>2000-01-01T12:54:38.000Z</time>
      </trkpt>
      <trkpt lat="44.12728" lon="5.84327">
        <ele>982</ele>
        <time>2000-01-01T12:54:48.000Z</time>
      </trkpt>
      <trkpt lat="44.12725" lon="5.84383">
        <ele>979</ele>
        <time>2000-01-01T12:54:58.000Z</time>
      </trkpt>
      <trkpt lat="44.12723" lon="5.8445">
        <ele>978</ele>
        <time>2000-01-01T12:55:08.000Z</time>
      </trkpt>
      <trkpt lat="44.1272" lon="5.84516">
        <ele>977</ele>
        <time>2000-01-01T12:55:18.000Z</time>
      </trkpt>
      <trkpt lat="44.12707" lon="5.84562">
        <ele>970</ele>
        <time>2000-01-01T12:55:28.000Z</time>
      </trkpt>
      <trkpt lat="44.12693" lon="5.84608">
        <ele>964</ele>
        <time>2000-01-01T12:55:38.000Z</time>
      </trkpt>
      <trkpt lat="44.12683" lon="5.84643">
        <ele>956</ele>
        <time>2000-01-01T12:55:48.000Z</time>
      </trkpt>
      <trkpt lat="44.1267" lon="5.84688">
        <ele>954</ele>
        <time>2000-01-01T12:55:58.000Z</time>
      </trkpt>
      <trkpt lat="44.12637" lon="5.84702">
        <ele>954</ele>
        <time>2000-01-01T12:56:08.000Z</time>
      </trkpt>
      <trkpt lat="44.12605" lon="5.84717">
        <ele>954</ele>
        <time>2000-01-01T12:56:18.000Z</time>
      </trkpt>
      <trkpt lat="44.12581" lon="5.84727">
        <ele>955</ele>
        <time>2000-01-01T12:56:28.000Z</time>
      </trkpt>
      <trkpt lat="44.12558" lon="5.84737">
        <ele>957</ele>
        <time>2000-01-01T12:56:38.000Z</time>
      </trkpt>
      <trkpt lat="44.12528" lon="5.8475">
        <ele>958</ele>
        <time>2000-01-01T12:56:48.000Z</time>
      </trkpt>
      <trkpt lat="44.12504" lon="5.84761">
        <ele>958</ele>
        <time>2000-01-01T12:56:58.000Z</time>
      </trkpt>
      <trkpt lat="44.12476" lon="5.84774">
        <ele>959</ele>
        <time>2000-01-01T12:57:08.000Z</time>
      </trkpt>
      <trkpt lat="44.12478" lon="5.84813">
        <ele>960</ele>
        <time>2000-01-01T12:57:18.000Z</time>
      </trkpt>
      <trkpt lat="44.1248" lon="5.8487">
        <ele>960</ele>
        <time>2000-01-01T12:57:28.000Z</time>
      </trkpt>
      <trkpt lat="44.12481" lon="5.84905">
        <ele>961</ele>
        <time>2000-01-01T12:57:38.000Z</time>
      </trkpt>
      <trkpt lat="44.12482" lon="5.84945">
        <ele>961</ele>
        <time>2000-01-01T12:57:48.000Z</time>
      </trkpt>
      <trkpt lat="44.12489" lon="5.84985">
        <ele>963</ele>
        <time>2000-01-01T12:57:58.000Z</time>
      </trkpt>
      <trkpt lat="44.125" lon="5.85046">
        <ele>966</ele>
        <time>2000-01-01T12:58:08.000Z</time>
      </trkpt>
      <trkpt lat="44.12508" lon="5.85097">
        <ele>969</ele>
        <time>2000-01-01T12:58:18.000Z</time>
      </trkpt>
      <trkpt lat="44.12514" lon="5.8513">
        <ele>970</ele>
        <time>2000-01-01T12:58:28.000Z</time>
      </trkpt>
      <trkpt lat="44.12519" lon="5.85164">
        <ele>969</ele>
        <time>2000-01-01T12:58:38.000Z</time>
      </trkpt>
      <trkpt lat="44.12537" lon="5.85196">
        <ele>969</ele>
        <time>2000-01-01T12:58:48.000Z</time>
      </trkpt>
      <trkpt lat="44.12564" lon="5.85243">
        <ele>969</ele>
        <time>2000-01-01T12:58:58.000Z</time>
      </trkpt>
      <trkpt lat="44.12581" lon="5.85275">
        <ele>969</ele>
        <time>2000-01-01T12:59:08.000Z</time>
      </trkpt>
      <trkpt lat="44.12606" lon="5.85319">
        <ele>967</ele>
        <time>2000-01-01T12:59:18.000Z</time>
      </trkpt>
      <trkpt lat="44.1262" lon="5.85365">
        <ele>964</ele>
        <time>2000-01-01T12:59:28.000Z</time>
      </trkpt>
      <trkpt lat="44.12634" lon="5.8541">
        <ele>960</ele>
        <time>2000-01-01T12:59:38.000Z</time>
      </trkpt>
      <trkpt lat="44.12644" lon="5.85445">
        <ele>956</ele>
        <time>2000-01-01T12:59:48.000Z</time>
      </trkpt>
      <trkpt lat="44.12658" lon="5.8549">
        <ele>954</ele>
        <time>2000-01-01T12:59:58.000Z</time>
      </trkpt>
      <trkpt lat="44.12663" lon="5.8553">
        <ele>952</ele>
        <time>2000-01-01T13:00:08.000Z</time>
      </trkpt>
      <trkpt lat="44.12672" lon="5.85591">
        <ele>948</ele>
        <time>2000-01-01T13:00:18.000Z</time>
      </trkpt>
      <trkpt lat="44.12678" lon="5.85641">
        <ele>943</ele>
        <time>2000-01-01T13:00:28.000Z</time>
      </trkpt>
      <trkpt lat="44.12686" lon="5.85696">
        <ele>941</ele>
        <time>2000-01-01T13:00:38.000Z</time>
      </trkpt>
      <trkpt lat="44.12681" lon="5.85736">
        <ele>939</ele>
        <time>2000-01-01T13:00:48.000Z</time>
      </trkpt>
      <trkpt lat="44.12673" lon="5.85799">
        <ele>932</ele>
        <time>2000-01-01T13:00:58.000Z</time>
      </trkpt>
      <trkpt lat="44.12652" lon="5.85773">
        <ele>926</ele>
        <time>2000-01-01T13:01:08.000Z</time>
      </trkpt>
      <trkpt lat="44.12621" lon="5.85735">
        <ele>926</ele>
        <time>2000-01-01T13:01:18.000Z</time>
      </trkpt>
      <trkpt lat="44.12617" lon="5.85777">
        <ele>925</ele>
        <time>2000-01-01T13:01:28.000Z</time>
      </trkpt>
      <trkpt lat="44.12614" lon="5.85811">
        <ele>923</ele>
        <time>2000-01-01T13:01:38.000Z</time>
      </trkpt>
      <trkpt lat="44.12611" lon="5.85848">
        <ele>920</ele>
        <time>2000-01-01T13:01:48.000Z</time>
      </trkpt>
      <trkpt lat="44.12605" lon="5.85904">
        <ele>918</ele>
        <time>2000-01-01T13:01:58.000Z</time>
      </trkpt>
      <trkpt lat="44.12601" lon="5.85946">
        <ele>920</ele>
        <time>2000-01-01T13:02:08.000Z</time>
      </trkpt>
      <trkpt lat="44.12598" lon="5.8598">
        <ele>922</ele>
        <time>2000-01-01T13:02:18.000Z</time>
      </trkpt>
      <trkpt lat="44.12595" lon="5.86017">
        <ele>922</ele>
        <time>2000-01-01T13:02:28.000Z</time>
      </trkpt>
      <trkpt lat="44.12591" lon="5.86053">
        <ele>923</ele>
        <time>2000-01-01T13:02:38.000Z</time>
      </trkpt>
      <trkpt lat="44.12587" lon="5.86096">
        <ele>921</ele>
        <time>2000-01-01T13:02:48.000Z</time>
      </trkpt>
      <trkpt lat="44.12587" lon="5.86145">
        <ele>920</ele>
        <time>2000-01-01T13:02:58.000Z</time>
      </trkpt>
      <trkpt lat="44.12587" lon="5.86195">
        <ele>916</ele>
        <time>2000-01-01T13:03:08.000Z</time>
      </trkpt>
      <trkpt lat="44.12587" lon="5.86232">
        <ele>913</ele>
        <time>2000-01-01T13:03:18.000Z</time>
      </trkpt>
      <trkpt lat="44.12587" lon="5.8628">
        <ele>909</ele>
        <time>2000-01-01T13:03:28.000Z</time>
      </trkpt>
      <trkpt lat="44.12575" lon="5.86313">
        <ele>908</ele>
        <time>2000-01-01T13:03:38.000Z</time>
      </trkpt>
      <trkpt lat="44.1256" lon="5.86353">
        <ele>908</ele>
        <time>2000-01-01T13:03:48.000Z</time>
      </trkpt>
      <trkpt lat="44.12523" lon="5.86379">
        <ele>908</ele>
        <time>2000-01-01T13:03:58.000Z</time>
      </trkpt>
      <trkpt lat="44.12519" lon="5.86418">
        <ele>905</ele>
        <time>2000-01-01T13:04:08.000Z</time>
      </trkpt>
      <trkpt lat="44.12513" lon="5.86473">
        <ele>895</ele>
        <time>2000-01-01T13:04:18.000Z</time>
      </trkpt>
      <trkpt lat="44.12507" lon="5.86538">
        <ele>889</ele>
        <time>2000-01-01T13:04:28.000Z</time>
      </trkpt>
      <trkpt lat="44.12528" lon="5.86571">
        <ele>889</ele>
        <time>2000-01-01T13:04:38.000Z</time>
      </trkpt>
      <trkpt lat="44.12546" lon="5.866">
        <ele>887</ele>
        <time>2000-01-01T13:04:48.000Z</time>
      </trkpt>
      <trkpt lat="44.12569" lon="5.86636">
        <ele>887</ele>
        <time>2000-01-01T13:04:58.000Z</time>
      </trkpt>
      <trkpt lat="44.12592" lon="5.86662">
        <ele>887</ele>
        <time>2000-01-01T13:05:08.000Z</time>
      </trkpt>
      <trkpt lat="44.12611" lon="5.86684">
        <ele>887</ele>
        <time>2000-01-01T13:05:18.000Z</time>
      </trkpt>
      <trkpt lat="44.1263" lon="5.86705">
        <ele>884</ele>
        <time>2000-01-01T13:05:28.000Z</time>
      </trkpt>
      <trkpt lat="44.12611" lon="5.86744">
        <ele>884</ele>
        <time>2000-01-01T13:05:38.000Z</time>
      </trkpt>
      <trkpt lat="44.12595" lon="5.86778">
        <ele>884</ele>
        <time>2000-01-01T13:05:48.000Z</time>
      </trkpt>
      <trkpt lat="44.1257" lon="5.86831">
        <ele>894</ele>
        <time>2000-01-01T13:05:58.000Z</time>
      </trkpt>
      <trkpt lat="44.12549" lon="5.86874">
        <ele>900</ele>
        <time>2000-01-01T13:06:08.000Z</time>
      </trkpt>
      <trkpt lat="44.12547" lon="5.86921">
        <ele>905</ele>
        <time>2000-01-01T13:06:18.000Z</time>
      </trkpt>
      <trkpt lat="44.12546" lon="5.86962">
        <ele>909</ele>
        <time>2000-01-01T13:06:28.000Z</time>
      </trkpt>
      <trkpt lat="44.12544" lon="5.87026">
        <ele>910</ele>
        <time>2000-01-01T13:06:38.000Z</time>
      </trkpt>
      <trkpt lat="44.12531" lon="5.87073">
        <ele>911</ele>
        <time>2000-01-01T13:06:48.000Z</time>
      </trkpt>
      <trkpt lat="44.12526" lon="5.87123">
        <ele>913</ele>
        <time>2000-01-01T13:06:58.000Z</time>
      </trkpt>
      <trkpt lat="44.12519" lon="5.87183">
        <ele>912</ele>
        <time>2000-01-01T13:07:08.000Z</time>
      </trkpt>
      <trkpt lat="44.12514" lon="5.87221">
        <ele>911</ele>
        <time>2000-01-01T13:07:18.000Z</time>
      </trkpt>
      <trkpt lat="44.12508" lon="5.87275">
        <ele>908</ele>
        <time>2000-01-01T13:07:28.000Z</time>
      </trkpt>
      <trkpt lat="44.12506" lon="5.87331">
        <ele>905</ele>
        <time>2000-01-01T13:07:38.000Z</time>
      </trkpt>
      <trkpt lat="44.12516" lon="5.87361">
        <ele>903</ele>
        <time>2000-01-01T13:07:48.000Z</time>
      </trkpt>
      <trkpt lat="44.12517" lon="5.87402">
        <ele>900</ele>
        <time>2000-01-01T13:07:58.000Z</time>
      </trkpt>
      <trkpt lat="44.12503" lon="5.87444">
        <ele>897</ele>
        <time>2000-01-01T13:08:08.000Z</time>
      </trkpt>
      <trkpt lat="44.12494" lon="5.87479">
        <ele>897</ele>
        <time>2000-01-01T13:08:18.000Z</time>
      </trkpt>
      <trkpt lat="44.12482" lon="5.87524">
        <ele>895</ele>
        <time>2000-01-01T13:08:28.000Z</time>
      </trkpt>
      <trkpt lat="44.12473" lon="5.8756">
        <ele>895</ele>
        <time>2000-01-01T13:08:38.000Z</time>
      </trkpt>
      <trkpt lat="44.12465" lon="5.87601">
        <ele>896</ele>
        <time>2000-01-01T13:08:48.000Z</time>
      </trkpt>
      <trkpt lat="44.1244" lon="5.87602">
        <ele>898</ele>
        <time>2000-01-01T13:08:58.000Z</time>
      </trkpt>
      <trkpt lat="44.12417" lon="5.87573">
        <ele>904</ele>
        <time>2000-01-01T13:09:08.000Z</time>
      </trkpt>
      <trkpt lat="44.12391" lon="5.87565">
        <ele>907</ele>
        <time>2000-01-01T13:09:18.000Z</time>
      </trkpt>
      <trkpt lat="44.12367" lon="5.87549">
        <ele>910</ele>
        <time>2000-01-01T13:09:28.000Z</time>
      </trkpt>
      <trkpt lat="44.12337" lon="5.87528">
        <ele>913</ele>
        <time>2000-01-01T13:09:38.000Z</time>
      </trkpt>
      <trkpt lat="44.12317" lon="5.87513">
        <ele>917</ele>
        <time>2000-01-01T13:09:48.000Z</time>
      </trkpt>
      <trkpt lat="44.12295" lon="5.87494">
        <ele>921</ele>
        <time>2000-01-01T13:09:58.000Z</time>
      </trkpt>
      <trkpt lat="44.12277" lon="5.87483">
        <ele>925</ele>
        <time>2000-01-01T13:10:08.000Z</time>
      </trkpt>
      <trkpt lat="44.12249" lon="5.87455">
        <ele>932</ele>
        <time>2000-01-01T13:10:18.000Z</time>
      </trkpt>
      <trkpt lat="44.12249" lon="5.87414">
        <ele>939</ele>
        <time>2000-01-01T13:10:28.000Z</time>
      </trkpt>
      <trkpt lat="44.12277" lon="5.87382">
        <ele>943</ele>
        <time>2000-01-01T13:10:38.000Z</time>
      </trkpt>
      <trkpt lat="44.12266" lon="5.87357">
        <ele>949</ele>
        <time>2000-01-01T13:10:48.000Z</time>
      </trkpt>
      <trkpt lat="44.12243" lon="5.87376">
        <ele>950</ele>
        <time>2000-01-01T13:10:58.000Z</time>
      </trkpt>
      <trkpt lat="44.12211" lon="5.87369">
        <ele>957</ele>
        <time>2000-01-01T13:11:08.000Z</time>
      </trkpt>
      <trkpt lat="44.1218" lon="5.87365">
        <ele>960</ele>
        <time>2000-01-01T13:11:18.000Z</time>
      </trkpt>
      <trkpt lat="44.12194" lon="5.87352">
        <ele>960.3</ele>
        <time>2000-01-01T13:11:28.000Z</time>
      </trkpt>
      <trkpt lat="44.12214" lon="5.87331">
        <ele>965</ele>
        <time>2000-01-01T13:11:38.000Z</time>
      </trkpt>
      <trkpt lat="44.12194" lon="5.87297">
        <ele>973</ele>
        <time>2000-01-01T13:11:48.000Z</time>
      </trkpt>
      <trkpt lat="44.12197" lon="5.87279">
        <ele>971.1</ele>
        <time>2000-01-01T13:11:58.000Z</time>
      </trkpt>
      <trkpt lat="44.12183" lon="5.87253">
        <ele>976</ele>
        <time>2000-01-01T13:12:08.000Z</time>
      </trkpt>
      <trkpt lat="44.12157" lon="5.87208">
        <ele>983</ele>
        <time>2000-01-01T13:12:18.000Z</time>
      </trkpt>
      <trkpt lat="44.1214" lon="5.87172">
        <ele>992</ele>
        <time>2000-01-01T13:12:28.000Z</time>
      </trkpt>
      <trkpt lat="44.12123" lon="5.8712">
        <ele>999</ele>
        <time>2000-01-01T13:12:38.000Z</time>
      </trkpt>
      <trkpt lat="44.12114" lon="5.87065">
        <ele>1001</ele>
        <time>2000-01-01T13:12:48.000Z</time>
      </trkpt>
      <trkpt lat="44.12089" lon="5.87078">
        <ele>1013</ele>
        <time>2000-01-01T13:12:58.000Z</time>
      </trkpt>
      <trkpt lat="44.12069" lon="5.8709">
        <ele>1021</ele>
        <time>2000-01-01T13:13:08.000Z</time>
      </trkpt>
      <trkpt lat="44.12044" lon="5.87109">
        <ele>1030</ele>
        <time>2000-01-01T13:13:18.000Z</time>
      </trkpt>
      <trkpt lat="44.12009" lon="5.87136">
        <ele>1046</ele>
        <time>2000-01-01T13:13:28.000Z</time>
      </trkpt>
      <trkpt lat="44.11995" lon="5.87165">
        <ele>1048</ele>
        <time>2000-01-01T13:13:38.000Z</time>
      </trkpt>
      <trkpt lat="44.11981" lon="5.87197">
        <ele>1051</ele>
        <time>2000-01-01T13:13:48.000Z</time>
      </trkpt>
      <trkpt lat="44.11958" lon="5.87218">
        <ele>1064</ele>
        <time>2000-01-01T13:13:58.000Z</time>
      </trkpt>
      <trkpt lat="44.11927" lon="5.87246">
        <ele>1076</ele>
        <time>2000-01-01T13:14:08.000Z</time>
      </trkpt>
      <trkpt lat="44.11912" lon="5.87284">
        <ele>1076</ele>
        <time>2000-01-01T13:14:18.000Z</time>
      </trkpt>
      <trkpt lat="44.11895" lon="5.87311">
        <ele>1088</ele>
        <time>2000-01-01T13:14:28.000Z</time>
      </trkpt>
      <trkpt lat="44.11876" lon="5.87335">
        <ele>1100</ele>
        <time>2000-01-01T13:14:38.000Z</time>
      </trkpt>
      <trkpt lat="44.11851" lon="5.87369">
        <ele>1116</ele>
        <time>2000-01-01T13:14:48.000Z</time>
      </trkpt>
      <trkpt lat="44.11825" lon="5.87348">
        <ele>1135</ele>
        <time>2000-01-01T13:14:58.000Z</time>
      </trkpt>
      <trkpt lat="44.11804" lon="5.87307">
        <ele>1146</ele>
        <time>2000-01-01T13:15:08.000Z</time>
      </trkpt>
      <trkpt lat="44.11783" lon="5.87314">
        <ele>1158</ele>
        <time>2000-01-01T13:15:18.000Z</time>
      </trkpt>
      <trkpt lat="44.11771" lon="5.87343">
        <ele>1168</ele>
        <time>2000-01-01T13:15:28.000Z</time>
      </trkpt>
      <trkpt lat="44.11759" lon="5.87374">
        <ele>1179</ele>
        <time>2000-01-01T13:15:38.000Z</time>
      </trkpt>
      <trkpt lat="44.11734" lon="5.87421">
        <ele>1192</ele>
        <time>2000-01-01T13:15:48.000Z</time>
      </trkpt>
      <trkpt lat="44.11708" lon="5.8738">
        <ele>1210</ele>
        <time>2000-01-01T13:15:58.000Z</time>
      </trkpt>
      <trkpt lat="44.11691" lon="5.87419">
        <ele>1216</ele>
        <time>2000-01-01T13:16:08.000Z</time>
      </trkpt>
      <trkpt lat="44.11672" lon="5.87425">
        <ele>1229</ele>
        <time>2000-01-01T13:16:18.000Z</time>
      </trkpt>
      <trkpt lat="44.11659" lon="5.87399">
        <ele>1242</ele>
        <time>2000-01-01T13:16:28.000Z</time>
      </trkpt>
      <trkpt lat="44.11639" lon="5.8742">
        <ele>1253</ele>
        <time>2000-01-01T13:16:38.000Z</time>
      </trkpt>
      <trkpt lat="44.11617" lon="5.87442">
        <ele>1267</ele>
        <time>2000-01-01T13:16:48.000Z</time>
      </trkpt>
      <trkpt lat="44.11617" lon="5.87494">
        <ele>1267</ele>
        <time>2000-01-01T13:16:58.000Z</time>
      </trkpt>
      <trkpt lat="44.11604" lon="5.87558">
        <ele>1272</ele>
        <time>2000-01-01T13:17:08.000Z</time>
      </trkpt>
      <trkpt lat="44.11596" lon="5.87594">
        <ele>1278</ele>
        <time>2000-01-01T13:17:18.000Z</time>
      </trkpt>
      <trkpt lat="44.11586" lon="5.8764">
        <ele>1282</ele>
        <time>2000-01-01T13:17:28.000Z</time>
      </trkpt>
      <trkpt lat="44.11571" lon="5.87671">
        <ele>1285</ele>
        <time>2000-01-01T13:17:38.000Z</time>
      </trkpt>
      <trkpt lat="44.11553" lon="5.87709">
        <ele>1295</ele>
        <time>2000-01-01T13:17:48.000Z</time>
      </trkpt>
      <trkpt lat="44.11534" lon="5.87751">
        <ele>1305</ele>
        <time>2000-01-01T13:17:58.000Z</time>
      </trkpt>
      <trkpt lat="44.11519" lon="5.87786">
        <ele>1314</ele>
        <time>2000-01-01T13:18:08.000Z</time>
      </trkpt>
      <trkpt lat="44.11497" lon="5.87841">
        <ele>1327</ele>
        <time>2000-01-01T13:18:18.000Z</time>
      </trkpt>
      <trkpt lat="44.11492" lon="5.87875">
        <ele>1328</ele>
        <time>2000-01-01T13:18:28.000Z</time>
      </trkpt>
      <trkpt lat="44.11487" lon="5.8791">
        <ele>1330</ele>
        <time>2000-01-01T13:18:38.000Z</time>
      </trkpt>
      <trkpt lat="44.11484" lon="5.87951">
        <ele>1332</ele>
        <time>2000-01-01T13:18:48.000Z</time>
      </trkpt>
      <trkpt lat="44.11478" lon="5.88013">
        <ele>1342</ele>
        <time>2000-01-01T13:18:58.000Z</time>
      </trkpt>
      <trkpt lat="44.11473" lon="5.88053">
        <ele>1343</ele>
        <time>2000-01-01T13:19:08.000Z</time>
      </trkpt>
      <trkpt lat="44.11466" lon="5.88112">
        <ele>1357</ele>
        <time>2000-01-01T13:19:18.000Z</time>
      </trkpt>
      <trkpt lat="44.11463" lon="5.88149">
        <ele>1358</ele>
        <time>2000-01-01T13:19:28.000Z</time>
      </trkpt>
      <trkpt lat="44.1146" lon="5.88193">
        <ele>1359</ele>
        <time>2000-01-01T13:19:38.000Z</time>
      </trkpt>
      <trkpt lat="44.1142" lon="5.88176">
        <ele>1397</ele>
        <time>2000-01-01T13:19:48.000Z</time>
      </trkpt>
      <trkpt lat="44.11406" lon="5.88215">
        <ele>1399</ele>
        <time>2000-01-01T13:19:58.000Z</time>
      </trkpt>
      <trkpt lat="44.11394" lon="5.88248">
        <ele>1402</ele>
        <time>2000-01-01T13:20:08.000Z</time>
      </trkpt>
      <trkpt lat="44.1138" lon="5.88288">
        <ele>1406</ele>
        <time>2000-01-01T13:20:18.000Z</time>
      </trkpt>
      <trkpt lat="44.11375" lon="5.88329">
        <ele>1411</ele>
        <time>2000-01-01T13:20:28.000Z</time>
      </trkpt>
      <trkpt lat="44.11367" lon="5.88395">
        <ele>1418</ele>
        <time>2000-01-01T13:20:38.000Z</time>
      </trkpt>
      <trkpt lat="44.11353" lon="5.88437">
        <ele>1423</ele>
        <time>2000-01-01T13:20:48.000Z</time>
      </trkpt>
      <trkpt lat="44.11338" lon="5.88478">
        <ele>1431</ele>
        <time>2000-01-01T13:20:58.000Z</time>
      </trkpt>
      <trkpt lat="44.11321" lon="5.88528">
        <ele>1431</ele>
        <time>2000-01-01T13:21:08.000Z</time>
      </trkpt>
      <trkpt lat="44.11314" lon="5.88477">
        <ele>1431</ele>
        <time>2000-01-01T13:21:18.000Z</time>
      </trkpt>
      <trkpt lat="44.11306" lon="5.88425">
        <ele>1431</ele>
        <time>2000-01-01T13:21:28.000Z</time>
      </trkpt>
      <trkpt lat="44.11299" lon="5.88375">
        <ele>1432</ele>
        <time>2000-01-01T13:21:38.000Z</time>
      </trkpt>
      <trkpt lat="44.11292" lon="5.88325">
        <ele>1435</ele>
        <time>2000-01-01T13:21:48.000Z</time>
      </trkpt>
      <trkpt lat="44.11285" lon="5.88275">
        <ele>1439</ele>
        <time>2000-01-01T13:21:58.000Z</time>
      </trkpt>
      <trkpt lat="44.11277" lon="5.88218">
        <ele>1446</ele>
        <time>2000-01-01T13:22:08.000Z</time>
      </trkpt>
      <trkpt lat="44.1127" lon="5.88174">
        <ele>1450</ele>
        <time>2000-01-01T13:22:18.000Z</time>
      </trkpt>
      <trkpt lat="44.11264" lon="5.88129">
        <ele>1458</ele>
        <time>2000-01-01T13:22:28.000Z</time>
      </trkpt>
      <trkpt lat="44.11257" lon="5.88083">
        <ele>1463</ele>
        <time>2000-01-01T13:22:38.000Z</time>
      </trkpt>
      <trkpt lat="44.11268" lon="5.88052">
        <ele>1468</ele>
        <time>2000-01-01T13:22:48.000Z</time>
      </trkpt>
      <trkpt lat="44.11268" lon="5.88038">
        <ele>1468.9</ele>
        <time>2000-01-01T13:22:58.000Z</time>
      </trkpt>
      <trkpt lat="44.11262" lon="5.87996">
        <ele>1473</ele>
        <time>2000-01-01T13:23:08.000Z</time>
      </trkpt>
      <trkpt lat="44.11255" lon="5.87955">
        <ele>1479</ele>
        <time>2000-01-01T13:23:18.000Z</time>
      </trkpt>
      <trkpt lat="44.11244" lon="5.87923">
        <ele>1485</ele>
        <time>2000-01-01T13:23:28.000Z</time>
      </trkpt>
      <trkpt lat="44.11239" lon="5.87886">
        <ele>1496</ele>
        <time>2000-01-01T13:23:38.000Z</time>
      </trkpt>
      <trkpt lat="44.11238" lon="5.87843">
        <ele>1498</ele>
        <time>2000-01-01T13:23:48.000Z</time>
      </trkpt>
      <trkpt lat="44.1123" lon="5.87796">
        <ele>1500</ele>
        <time>2000-01-01T13:23:58.000Z</time>
      </trkpt>
      <trkpt lat="44.11226" lon="5.87745">
        <ele>1510</ele>
        <time>2000-01-01T13:24:08.000Z</time>
      </trkpt>
      <trkpt lat="44.11218" lon="5.87706">
        <ele>1517</ele>
        <time>2000-01-01T13:24:18.000Z</time>
      </trkpt>
      <trkpt lat="44.11212" lon="5.8765">
        <ele>1523</ele>
        <time>2000-01-01T13:24:28.000Z</time>
      </trkpt>
      <trkpt lat="44.11212" lon="5.87609">
        <ele>1527</ele>
        <time>2000-01-01T13:24:38.000Z</time>
      </trkpt>
      <trkpt lat="44.11207" lon="5.87551">
        <ele>1530</ele>
        <time>2000-01-01T13:24:48.000Z</time>
      </trkpt>
      <trkpt lat="44.1121" lon="5.87506">
        <ele>1530</ele>
        <time>2000-01-01T13:24:58.000Z</time>
      </trkpt>
      <trkpt lat="44.11209" lon="5.87463">
        <ele>1529</ele>
        <time>2000-01-01T13:25:08.000Z</time>
      </trkpt>
      <trkpt lat="44.11201" lon="5.87412">
        <ele>1529</ele>
        <time>2000-01-01T13:25:18.000Z</time>
      </trkpt>
      <trkpt lat="44.11201" lon="5.87369">
        <ele>1531</ele>
        <time>2000-01-01T13:25:28.000Z</time>
      </trkpt>
      <trkpt lat="44.11198" lon="5.87322">
        <ele>1532</ele>
        <time>2000-01-01T13:25:38.000Z</time>
      </trkpt>
      <trkpt lat="44.11195" lon="5.87281">
        <ele>1533</ele>
        <time>2000-01-01T13:25:48.000Z</time>
      </trkpt>
      <trkpt lat="44.11198" lon="5.87232">
        <ele>1533</ele>
        <time>2000-01-01T13:25:58.000Z</time>
      </trkpt>
      <trkpt lat="44.11202" lon="5.87197">
        <ele>1534</ele>
        <time>2000-01-01T13:26:08.000Z</time>
      </trkpt>
      <trkpt lat="44.11207" lon="5.87146">
        <ele>1535</ele>
        <time>2000-01-01T13:26:18.000Z</time>
      </trkpt>
      <trkpt lat="44.11216" lon="5.87101">
        <ele>1537</ele>
        <time>2000-01-01T13:26:28.000Z</time>
      </trkpt>
      <trkpt lat="44.11221" lon="5.87058">
        <ele>1540</ele>
        <time>2000-01-01T13:26:38.000Z</time>
      </trkpt>
      <trkpt lat="44.11227" lon="5.8703">
        <ele>1540</ele>
        <time>2000-01-01T13:26:48.000Z</time>
      </trkpt>
      <trkpt lat="44.11223" lon="5.86994">
        <ele>1540</ele>
        <time>2000-01-01T13:26:58.000Z</time>
      </trkpt>
      <trkpt lat="44.11219" lon="5.86953">
        <ele>1540</ele>
        <time>2000-01-01T13:27:08.000Z</time>
      </trkpt>
      <trkpt lat="44.11215" lon="5.86923">
        <ele>1540</ele>
        <time>2000-01-01T13:27:18.000Z</time>
      </trkpt>
      <trkpt lat="44.11216" lon="5.86882">
        <ele>1540</ele>
        <time>2000-01-01T13:27:28.000Z</time>
      </trkpt>
      <trkpt lat="44.11209" lon="5.86835">
        <ele>1541</ele>
        <time>2000-01-01T13:27:38.000Z</time>
      </trkpt>
      <trkpt lat="44.11215" lon="5.868">
        <ele>1541</ele>
        <time>2000-01-01T13:27:48.000Z</time>
      </trkpt>
      <trkpt lat="44.11227" lon="5.86764">
        <ele>1540</ele>
        <time>2000-01-01T13:27:58.000Z</time>
      </trkpt>
      <trkpt lat="44.11233" lon="5.8673">
        <ele>1538</ele>
        <time>2000-01-01T13:28:08.000Z</time>
      </trkpt>
      <trkpt lat="44.11236" lon="5.86672">
        <ele>1530</ele>
        <time>2000-01-01T13:28:18.000Z</time>
      </trkpt>
      <trkpt lat="44.11242" lon="5.86627">
        <ele>1519</ele>
        <time>2000-01-01T13:28:28.000Z</time>
      </trkpt>
      <trkpt lat="44.11249" lon="5.86584">
        <ele>1517</ele>
        <time>2000-01-01T13:28:38.000Z</time>
      </trkpt>
      <trkpt lat="44.11256" lon="5.86547">
        <ele>1513</ele>
        <time>2000-01-01T13:28:48.000Z</time>
      </trkpt>
      <trkpt lat="44.11264" lon="5.86499">
        <ele>1505</ele>
        <time>2000-01-01T13:28:58.000Z</time>
      </trkpt>
      <trkpt lat="44.11259" lon="5.86465">
        <ele>1504</ele>
        <time>2000-01-01T13:29:08.000Z</time>
      </trkpt>
      <trkpt lat="44.11253" lon="5.86429">
        <ele>1499</ele>
        <time>2000-01-01T13:29:18.000Z</time>
      </trkpt>
      <trkpt lat="44.11249" lon="5.86405">
        <ele>1499.5</ele>
        <time>2000-01-01T13:29:28.000Z</time>
      </trkpt>
      <trkpt lat="44.11253" lon="5.86391">
        <ele>1499</ele>
        <time>2000-01-01T13:29:38.000Z</time>
      </trkpt>
      <trkpt lat="44.11256" lon="5.8638">
        <ele>1499.2</ele>
        <time>2000-01-01T13:29:48.000Z</time>
      </trkpt>
      <trkpt lat="44.11253" lon="5.86373">
        <ele>1499.5</ele>
        <time>2000-01-01T13:29:58.000Z</time>
      </trkpt>
      <trkpt lat="44.11261" lon="5.86358">
        <ele>1500</ele>
        <time>2000-01-01T13:30:08.000Z</time>
      </trkpt>
      <trkpt lat="44.11254" lon="5.86339">
        <ele>1501.5</ele>
        <time>2000-01-01T13:30:18.000Z</time>
      </trkpt>
      <trkpt lat="44.11244" lon="5.86305">
        <ele>1504</ele>
        <time>2000-01-01T13:30:28.000Z</time>
      </trkpt>
      <trkpt lat="44.11232" lon="5.86264">
        <ele>1509</ele>
        <time>2000-01-01T13:30:38.000Z</time>
      </trkpt>
      <trkpt lat="44.1122" lon="5.86228">
        <ele>1516</ele>
        <time>2000-01-01T13:30:48.000Z</time>
      </trkpt>
      <trkpt lat="44.11206" lon="5.86187">
        <ele>1522</ele>
        <time>2000-01-01T13:30:58.000Z</time>
      </trkpt>
      <trkpt lat="44.11192" lon="5.86147">
        <ele>1527</ele>
        <time>2000-01-01T13:31:08.000Z</time>
      </trkpt>
      <trkpt lat="44.11177" lon="5.86105">
        <ele>1534</ele>
        <time>2000-01-01T13:31:18.000Z</time>
      </trkpt>
      <trkpt lat="44.11179" lon="5.86051">
        <ele>1543</ele>
        <time>2000-01-01T13:31:28.000Z</time>
      </trkpt>
      <trkpt lat="44.11182" lon="5.85997">
        <ele>1552</ele>
        <time>2000-01-01T13:31:38.000Z</time>
      </trkpt>
      <trkpt lat="44.11184" lon="5.85951">
        <ele>1558</ele>
        <time>2000-01-01T13:31:48.000Z</time>
      </trkpt>
      <trkpt lat="44.11186" lon="5.85905">
        <ele>1566</ele>
        <time>2000-01-01T13:31:58.000Z</time>
      </trkpt>
      <trkpt lat="44.11188" lon="5.85851">
        <ele>1572</ele>
        <time>2000-01-01T13:32:08.000Z</time>
      </trkpt>
      <trkpt lat="44.11191" lon="5.85794">
        <ele>1576</ele>
        <time>2000-01-01T13:32:18.000Z</time>
      </trkpt>
      <trkpt lat="44.11194" lon="5.85749">
        <ele>1580</ele>
        <time>2000-01-01T13:32:28.000Z</time>
      </trkpt>
      <trkpt lat="44.11196" lon="5.85702">
        <ele>1582</ele>
        <time>2000-01-01T13:32:38.000Z</time>
      </trkpt>
      <trkpt lat="44.11168" lon="5.85668">
        <ele>1587</ele>
        <time>2000-01-01T13:32:48.000Z</time>
      </trkpt>
      <trkpt lat="44.11154" lon="5.85649">
        <ele>1588</ele>
        <time>2000-01-01T13:32:58.000Z</time>
      </trkpt>
      <trkpt lat="44.11132" lon="5.85645">
        <ele>1590</ele>
        <time>2000-01-01T13:33:08.000Z</time>
      </trkpt>
      <trkpt lat="44.11107" lon="5.85629">
        <ele>1589</ele>
        <time>2000-01-01T13:33:18.000Z</time>
      </trkpt>
      <trkpt lat="44.1108" lon="5.85593">
        <ele>1588</ele>
        <time>2000-01-01T13:33:28.000Z</time>
      </trkpt>
      <trkpt lat="44.1105" lon="5.85563">
        <ele>1582</ele>
        <time>2000-01-01T13:33:38.000Z</time>
      </trkpt>
      <trkpt lat="44.11025" lon="5.85527">
        <ele>1577</ele>
        <time>2000-01-01T13:33:48.000Z</time>
      </trkpt>
      <trkpt lat="44.11" lon="5.85492">
        <ele>1570</ele>
        <time>2000-01-01T13:33:58.000Z</time>
      </trkpt>
      <trkpt lat="44.1098" lon="5.85464">
        <ele>1565</ele>
        <time>2000-01-01T13:34:08.000Z</time>
      </trkpt>
      <trkpt lat="44.10954" lon="5.85427">
        <ele>1557</ele>
        <time>2000-01-01T13:34:18.000Z</time>
      </trkpt>
      <trkpt lat="44.10936" lon="5.854">
        <ele>1553</ele>
        <time>2000-01-01T13:34:28.000Z</time>
      </trkpt>
      <trkpt lat="44.10919" lon="5.85364">
        <ele>1549</ele>
        <time>2000-01-01T13:34:38.000Z</time>
      </trkpt>
      <trkpt lat="44.10904" lon="5.85334">
        <ele>1548</ele>
        <time>2000-01-01T13:34:48.000Z</time>
      </trkpt>
      <trkpt lat="44.10887" lon="5.85297">
        <ele>1548</ele>
        <time>2000-01-01T13:34:58.000Z</time>
      </trkpt>
      <trkpt lat="44.1087" lon="5.85265">
        <ele>1548</ele>
        <time>2000-01-01T13:35:08.000Z</time>
      </trkpt>
      <trkpt lat="44.10852" lon="5.85229">
        <ele>1548</ele>
        <time>2000-01-01T13:35:18.000Z</time>
      </trkpt>
      <trkpt lat="44.10837" lon="5.85199">
        <ele>1544</ele>
        <time>2000-01-01T13:35:28.000Z</time>
      </trkpt>
      <trkpt lat="44.10819" lon="5.85164">
        <ele>1540</ele>
        <time>2000-01-01T13:35:38.000Z</time>
      </trkpt>
      <trkpt lat="44.10796" lon="5.85129">
        <ele>1536</ele>
        <time>2000-01-01T13:35:48.000Z</time>
      </trkpt>
      <trkpt lat="44.10773" lon="5.85093">
        <ele>1533</ele>
        <time>2000-01-01T13:35:58.000Z</time>
      </trkpt>
      <trkpt lat="44.10741" lon="5.85044">
        <ele>1528</ele>
        <time>2000-01-01T13:36:08.000Z</time>
      </trkpt>
      <trkpt lat="44.10716" lon="5.85003">
        <ele>1524</ele>
        <time>2000-01-01T13:36:18.000Z</time>
      </trkpt>
      <trkpt lat="44.10689" lon="5.84963">
        <ele>1519</ele>
        <time>2000-01-01T13:36:28.000Z</time>
      </trkpt>
      <trkpt lat="44.10673" lon="5.84931">
        <ele>1516</ele>
        <time>2000-01-01T13:36:38.000Z</time>
      </trkpt>
      <trkpt lat="44.10651" lon="5.84886">
        <ele>1507</ele>
        <time>2000-01-01T13:36:48.000Z</time>
      </trkpt>
      <trkpt lat="44.10628" lon="5.84838">
        <ele>1499</ele>
        <time>2000-01-01T13:36:58.000Z</time>
      </trkpt>
      <trkpt lat="44.10589" lon="5.84841">
        <ele>1497</ele>
        <time>2000-01-01T13:37:08.000Z</time>
      </trkpt>
      <trkpt lat="44.10551" lon="5.84843">
        <ele>1495</ele>
        <time>2000-01-01T13:37:18.000Z</time>
      </trkpt>
      <trkpt lat="44.10512" lon="5.84846">
        <ele>1490</ele>
        <time>2000-01-01T13:37:28.000Z</time>
      </trkpt>
      <trkpt lat="44.10483" lon="5.84848">
        <ele>1485</ele>
        <time>2000-01-01T13:37:38.000Z</time>
      </trkpt>
      <trkpt lat="44.10437" lon="5.84851">
        <ele>1477</ele>
        <time>2000-01-01T13:37:48.000Z</time>
      </trkpt>
      <trkpt lat="44.10401" lon="5.84851">
        <ele>1470</ele>
        <time>2000-01-01T13:37:58.000Z</time>
      </trkpt>
      <trkpt lat="44.10366" lon="5.84851">
        <ele>1461</ele>
        <time>2000-01-01T13:38:08.000Z</time>
      </trkpt>
      <trkpt lat="44.10338" lon="5.84851">
        <ele>1455</ele>
        <time>2000-01-01T13:38:18.000Z</time>
      </trkpt>
      <trkpt lat="44.10301" lon="5.84851">
        <ele>1448</ele>
        <time>2000-01-01T13:38:28.000Z</time>
      </trkpt>
      <trkpt lat="44.10264" lon="5.84834">
        <ele>1439</ele>
        <time>2000-01-01T13:38:38.000Z</time>
      </trkpt>
      <trkpt lat="44.10227" lon="5.84818">
        <ele>1428</ele>
        <time>2000-01-01T13:38:48.000Z</time>
      </trkpt>
      <trkpt lat="44.1019" lon="5.84801">
        <ele>1420</ele>
        <time>2000-01-01T13:38:58.000Z</time>
      </trkpt>
      <trkpt lat="44.10153" lon="5.84784">
        <ele>1411</ele>
        <time>2000-01-01T13:39:08.000Z</time>
      </trkpt>
      <trkpt lat="44.1011" lon="5.84765">
        <ele>1401</ele>
        <time>2000-01-01T13:39:18.000Z</time>
      </trkpt>
      <trkpt lat="44.10074" lon="5.84754">
        <ele>1397</ele>
        <time>2000-01-01T13:39:28.000Z</time>
      </trkpt>
      <trkpt lat="44.10038" lon="5.84743">
        <ele>1391</ele>
        <time>2000-01-01T13:39:38.000Z</time>
      </trkpt>
      <trkpt lat="44.10002" lon="5.84731">
        <ele>1386</ele>
        <time>2000-01-01T13:39:48.000Z</time>
      </trkpt>
      <trkpt lat="44.09959" lon="5.84718">
        <ele>1377</ele>
        <time>2000-01-01T13:39:58.000Z</time>
      </trkpt>
      <trkpt lat="44.09941" lon="5.84683">
        <ele>1374</ele>
        <time>2000-01-01T13:40:08.000Z</time>
      </trkpt>
      <trkpt lat="44.09927" lon="5.84653">
        <ele>1368</ele>
        <time>2000-01-01T13:40:18.000Z</time>
      </trkpt>
      <trkpt lat="44.0991" lon="5.84619">
        <ele>1366</ele>
        <time>2000-01-01T13:40:28.000Z</time>
      </trkpt>
      <trkpt lat="44.09894" lon="5.84647">
        <ele>1364</ele>
        <time>2000-01-01T13:40:38.000Z</time>
      </trkpt>
      <trkpt lat="44.09876" lon="5.84679">
        <ele>1363</ele>
        <time>2000-01-01T13:40:48.000Z</time>
      </trkpt>
      <trkpt lat="44.0986" lon="5.84724">
        <ele>1360</ele>
        <time>2000-01-01T13:40:58.000Z</time>
      </trkpt>
      <trkpt lat="44.09844" lon="5.84768">
        <ele>1357</ele>
        <time>2000-01-01T13:41:08.000Z</time>
      </trkpt>
      <trkpt lat="44.09831" lon="5.84803">
        <ele>1353</ele>
        <time>2000-01-01T13:41:18.000Z</time>
      </trkpt>
      <trkpt lat="44.09814" lon="5.84851">
        <ele>1349</ele>
        <time>2000-01-01T13:41:28.000Z</time>
      </trkpt>
      <trkpt lat="44.09812" lon="5.84896">
        <ele>1347</ele>
        <time>2000-01-01T13:41:38.000Z</time>
      </trkpt>
      <trkpt lat="44.0981" lon="5.84934">
        <ele>1346</ele>
        <time>2000-01-01T13:41:48.000Z</time>
      </trkpt>
      <trkpt lat="44.09808" lon="5.84984">
        <ele>1341</ele>
        <time>2000-01-01T13:41:58.000Z</time>
      </trkpt>
      <trkpt lat="44.09793" lon="5.85033">
        <ele>1338</ele>
        <time>2000-01-01T13:42:08.000Z</time>
      </trkpt>
      <trkpt lat="44.09777" lon="5.85082">
        <ele>1332</ele>
        <time>2000-01-01T13:42:18.000Z</time>
      </trkpt>
      <trkpt lat="44.09766" lon="5.85118">
        <ele>1330</ele>
        <time>2000-01-01T13:42:28.000Z</time>
      </trkpt>
      <trkpt lat="44.09751" lon="5.85167">
        <ele>1328</ele>
        <time>2000-01-01T13:42:38.000Z</time>
      </trkpt>
      <trkpt lat="44.09734" lon="5.8522">
        <ele>1323</ele>
        <time>2000-01-01T13:42:48.000Z</time>
      </trkpt>
      <trkpt lat="44.09731" lon="5.85266">
        <ele>1321</ele>
        <time>2000-01-01T13:42:58.000Z</time>
      </trkpt>
      <trkpt lat="44.09728" lon="5.85311">
        <ele>1317</ele>
        <time>2000-01-01T13:43:08.000Z</time>
      </trkpt>
      <trkpt lat="44.09725" lon="5.85362">
        <ele>1313</ele>
        <time>2000-01-01T13:43:18.000Z</time>
      </trkpt>
      <trkpt lat="44.09726" lon="5.85427">
        <ele>1306</ele>
        <time>2000-01-01T13:43:28.000Z</time>
      </trkpt>
      <trkpt lat="44.097" lon="5.85428">
        <ele>1303</ele>
        <time>2000-01-01T13:43:38.000Z</time>
      </trkpt>
      <trkpt lat="44.09668" lon="5.8543">
        <ele>1299</ele>
        <time>2000-01-01T13:43:48.000Z</time>
      </trkpt>
      <trkpt lat="44.09638" lon="5.85392">
        <ele>1297</ele>
        <time>2000-01-01T13:43:58.000Z</time>
      </trkpt>
      <trkpt lat="44.09633" lon="5.85345">
        <ele>1296</ele>
        <time>2000-01-01T13:44:08.000Z</time>
      </trkpt>
      <trkpt lat="44.09627" lon="5.85299">
        <ele>1295</ele>
        <time>2000-01-01T13:44:18.000Z</time>
      </trkpt>
      <trkpt lat="44.0962" lon="5.85237">
        <ele>1295</ele>
        <time>2000-01-01T13:44:28.000Z</time>
      </trkpt>
      <trkpt lat="44.09615" lon="5.85203">
        <ele>1297</ele>
        <time>2000-01-01T13:44:38.000Z</time>
      </trkpt>
      <trkpt lat="44.09611" lon="5.85164">
        <ele>1297</ele>
        <time>2000-01-01T13:44:48.000Z</time>
      </trkpt>
      <trkpt lat="44.09602" lon="5.85118">
        <ele>1295</ele>
        <time>2000-01-01T13:44:58.000Z</time>
      </trkpt>
      <trkpt lat="44.09594" lon="5.85073">
        <ele>1294</ele>
        <time>2000-01-01T13:45:08.000Z</time>
      </trkpt>
      <trkpt lat="44.09582" lon="5.85011">
        <ele>1292</ele>
        <time>2000-01-01T13:45:18.000Z</time>
      </trkpt>
      <trkpt lat="44.09576" lon="5.84975">
        <ele>1290</ele>
        <time>2000-01-01T13:45:28.000Z</time>
      </trkpt>
      <trkpt lat="44.09568" lon="5.8493">
        <ele>1288</ele>
        <time>2000-01-01T13:45:38.000Z</time>
      </trkpt>
      <trkpt lat="44.09538" lon="5.84902">
        <ele>1281</ele>
        <time>2000-01-01T13:45:48.000Z</time>
      </trkpt>
      <trkpt lat="44.09515" lon="5.84879">
        <ele>1278</ele>
        <time>2000-01-01T13:45:58.000Z</time>
      </trkpt>
      <trkpt lat="44.09483" lon="5.84848">
        <ele>1274</ele>
        <time>2000-01-01T13:46:08.000Z</time>
      </trkpt>
      <trkpt lat="44.09447" lon="5.84814">
        <ele>1266</ele>
        <time>2000-01-01T13:46:18.000Z</time>
      </trkpt>
      <trkpt lat="44.09413" lon="5.84796">
        <ele>1262</ele>
        <time>2000-01-01T13:46:28.000Z</time>
      </trkpt>
      <trkpt lat="44.09382" lon="5.84778">
        <ele>1257</ele>
        <time>2000-01-01T13:46:38.000Z</time>
      </trkpt>
      <trkpt lat="44.0935" lon="5.8476">
        <ele>1251</ele>
        <time>2000-01-01T13:46:48.000Z</time>
      </trkpt>
      <trkpt lat="44.09309" lon="5.84737">
        <ele>1239</ele>
        <time>2000-01-01T13:46:58.000Z</time>
      </trkpt>
      <trkpt lat="44.09285" lon="5.84705">
        <ele>1233</ele>
        <time>2000-01-01T13:47:08.000Z</time>
      </trkpt>
      <trkpt lat="44.09265" lon="5.84676">
        <ele>1229</ele>
        <time>2000-01-01T13:47:18.000Z</time>
      </trkpt>
      <trkpt lat="44.09235" lon="5.84634">
        <ele>1223</ele>
        <time>2000-01-01T13:47:28.000Z</time>
      </trkpt>
      <trkpt lat="44.092" lon="5.84637">
        <ele>1214</ele>
        <time>2000-01-01T13:47:38.000Z</time>
      </trkpt>
      <trkpt lat="44.09169" lon="5.84639">
        <ele>1209</ele>
        <time>2000-01-01T13:47:48.000Z</time>
      </trkpt>
      <trkpt lat="44.09142" lon="5.84641">
        <ele>1204</ele>
        <time>2000-01-01T13:47:58.000Z</time>
      </trkpt>
      <trkpt lat="44.09111" lon="5.84643">
        <ele>1202</ele>
        <time>2000-01-01T13:48:08.000Z</time>
      </trkpt>
      <trkpt lat="44.09081" lon="5.84616">
        <ele>1201</ele>
        <time>2000-01-01T13:48:18.000Z</time>
      </trkpt>
      <trkpt lat="44.09053" lon="5.84592">
        <ele>1198</ele>
        <time>2000-01-01T13:48:28.000Z</time>
      </trkpt>
      <trkpt lat="44.09025" lon="5.84567">
        <ele>1193</ele>
        <time>2000-01-01T13:48:38.000Z</time>
      </trkpt>
      <trkpt lat="44.08994" lon="5.8454">
        <ele>1186</ele>
        <time>2000-01-01T13:48:48.000Z</time>
      </trkpt>
      <trkpt lat="44.08976" lon="5.845">
        <ele>1181</ele>
        <time>2000-01-01T13:48:58.000Z</time>
      </trkpt>
      <trkpt lat="44.08957" lon="5.8446">
        <ele>1179</ele>
        <time>2000-01-01T13:49:08.000Z</time>
      </trkpt>
      <trkpt lat="44.08933" lon="5.84407">
        <ele>1174</ele>
        <time>2000-01-01T13:49:18.000Z</time>
      </trkpt>
      <trkpt lat="44.08947" lon="5.84379">
        <ele>1171</ele>
        <time>2000-01-01T13:49:28.000Z</time>
      </trkpt>
      <trkpt lat="44.08961" lon="5.8435">
        <ele>1166</ele>
        <time>2000-01-01T13:49:38.000Z</time>
      </trkpt>
      <trkpt lat="44.08983" lon="5.8431">
        <ele>1162</ele>
        <time>2000-01-01T13:49:48.000Z</time>
      </trkpt>
      <trkpt lat="44.0901" lon="5.84303">
        <ele>1158</ele>
        <time>2000-01-01T13:49:58.000Z</time>
      </trkpt>
      <trkpt lat="44.09044" lon="5.84295">
        <ele>1157</ele>
        <time>2000-01-01T13:50:08.000Z</time>
      </trkpt>
      <trkpt lat="44.0907" lon="5.84296">
        <ele>1156</ele>
        <time>2000-01-01T13:50:18.000Z</time>
      </trkpt>
      <trkpt lat="44.09098" lon="5.84297">
        <ele>1156</ele>
        <time>2000-01-01T13:50:28.000Z</time>
      </trkpt>
      <trkpt lat="44.09137" lon="5.84312">
        <ele>1156</ele>
        <time>2000-01-01T13:50:38.000Z</time>
      </trkpt>
      <trkpt lat="44.09158" lon="5.84307">
        <ele>1148</ele>
        <time>2000-01-01T13:50:48.000Z</time>
      </trkpt>
      <trkpt lat="44.09164" lon="5.84267">
        <ele>1137</ele>
        <time>2000-01-01T13:50:58.000Z</time>
      </trkpt>
      <trkpt lat="44.09154" lon="5.84217">
        <ele>1137</ele>
        <time>2000-01-01T13:51:08.000Z</time>
      </trkpt>
      <trkpt lat="44.0918" lon="5.8421">
        <ele>1138</ele>
        <time>2000-01-01T13:51:18.000Z</time>
      </trkpt>
      <trkpt lat="44.09211" lon="5.84202">
        <ele>1145</ele>
        <time>2000-01-01T13:51:28.000Z</time>
      </trkpt>
      <trkpt lat="44.09245" lon="5.84194">
        <ele>1149</ele>
        <time>2000-01-01T13:51:38.000Z</time>
      </trkpt>
      <trkpt lat="44.09273" lon="5.8418">
        <ele>1154</ele>
        <time>2000-01-01T13:51:48.000Z</time>
      </trkpt>
      <trkpt lat="44.09297" lon="5.84169">
        <ele>1157</ele>
        <time>2000-01-01T13:51:58.000Z</time>
      </trkpt>
      <trkpt lat="44.09322" lon="5.84157">
        <ele>1161</ele>
        <time>2000-01-01T13:52:08.000Z</time>
      </trkpt>
      <trkpt lat="44.09333" lon="5.84097">
        <ele>1167</ele>
        <time>2000-01-01T13:52:18.000Z</time>
      </trkpt>
      <trkpt lat="44.09356" lon="5.8407">
        <ele>1170</ele>
        <time>2000-01-01T13:52:28.000Z</time>
      </trkpt>
      <trkpt lat="44.09374" lon="5.84048">
        <ele>1171</ele>
        <time>2000-01-01T13:52:38.000Z</time>
      </trkpt>
      <trkpt lat="44.09393" lon="5.84026">
        <ele>1174</ele>
        <time>2000-01-01T13:52:48.000Z</time>
      </trkpt>
      <trkpt lat="44.09417" lon="5.83996">
        <ele>1179</ele>
        <time>2000-01-01T13:52:58.000Z</time>
      </trkpt>
      <trkpt lat="44.09454" lon="5.83993">
        <ele>1183</ele>
        <time>2000-01-01T13:53:08.000Z</time>
      </trkpt>
      <trkpt lat="44.09492" lon="5.83991">
        <ele>1186</ele>
        <time>2000-01-01T13:53:18.000Z</time>
      </trkpt>
      <trkpt lat="44.09526" lon="5.83988">
        <ele>1190</ele>
        <time>2000-01-01T13:53:28.000Z</time>
      </trkpt>
      <trkpt lat="44.0956" lon="5.83986">
        <ele>1193</ele>
        <time>2000-01-01T13:53:38.000Z</time>
      </trkpt>
      <trkpt lat="44.09585" lon="5.83984">
        <ele>1196</ele>
        <time>2000-01-01T13:53:48.000Z</time>
      </trkpt>
      <trkpt lat="44.09609" lon="5.83982">
        <ele>1199</ele>
        <time>2000-01-01T13:53:58.000Z</time>
      </trkpt>
      <trkpt lat="44.0964" lon="5.83979">
        <ele>1203</ele>
        <time>2000-01-01T13:54:08.000Z</time>
      </trkpt>
      <trkpt lat="44.09668" lon="5.83977">
        <ele>1208</ele>
        <time>2000-01-01T13:54:18.000Z</time>
      </trkpt>
      <trkpt lat="44.09704" lon="5.83975">
        <ele>1213</ele>
        <time>2000-01-01T13:54:28.000Z</time>
      </trkpt>
      <trkpt lat="44.0973" lon="5.83972">
        <ele>1215</ele>
        <time>2000-01-01T13:54:38.000Z</time>
      </trkpt>
      <trkpt lat="44.09762" lon="5.8397">
        <ele>1220</ele>
        <time>2000-01-01T13:54:48.000Z</time>
      </trkpt>
      <trkpt lat="44.09789" lon="5.83968">
        <ele>1223</ele>
        <time>2000-01-01T13:54:58.000Z</time>
      </trkpt>
      <trkpt lat="44.09825" lon="5.83966">
        <ele>1227</ele>
        <time>2000-01-01T13:55:08.000Z</time>
      </trkpt>
      <trkpt lat="44.09868" lon="5.83962">
        <ele>1232</ele>
        <time>2000-01-01T13:55:18.000Z</time>
      </trkpt>
      <trkpt lat="44.09899" lon="5.8396">
        <ele>1236</ele>
        <time>2000-01-01T13:55:28.000Z</time>
      </trkpt>
      <trkpt lat="44.09925" lon="5.83958">
        <ele>1241</ele>
        <time>2000-01-01T13:55:38.000Z</time>
      </trkpt>
      <trkpt lat="44.09955" lon="5.83956">
        <ele>1246</ele>
        <time>2000-01-01T13:55:48.000Z</time>
      </trkpt>
      <trkpt lat="44.09981" lon="5.83941">
        <ele>1249</ele>
        <time>2000-01-01T13:55:58.000Z</time>
      </trkpt>
      <trkpt lat="44.10017" lon="5.83921">
        <ele>1254</ele>
        <time>2000-01-01T13:56:08.000Z</time>
      </trkpt>
      <trkpt lat="44.10047" lon="5.83912">
        <ele>1260</ele>
        <time>2000-01-01T13:56:18.000Z</time>
      </trkpt>
      <trkpt lat="44.10071" lon="5.83904">
        <ele>1265</ele>
        <time>2000-01-01T13:56:28.000Z</time>
      </trkpt>
      <trkpt lat="44.10098" lon="5.83895">
        <ele>1269</ele>
        <time>2000-01-01T13:56:38.000Z</time>
      </trkpt>
      <trkpt lat="44.10129" lon="5.83883">
        <ele>1275</ele>
        <time>2000-01-01T13:56:48.000Z</time>
      </trkpt>
      <trkpt lat="44.1016" lon="5.83871">
        <ele>1278</ele>
        <time>2000-01-01T13:56:58.000Z</time>
      </trkpt>
      <trkpt lat="44.10192" lon="5.83859">
        <ele>1280</ele>
        <time>2000-01-01T13:57:08.000Z</time>
      </trkpt>
      <trkpt lat="44.10222" lon="5.83841">
        <ele>1283</ele>
        <time>2000-01-01T13:57:18.000Z</time>
      </trkpt>
      <trkpt lat="44.10247" lon="5.83827">
        <ele>1288</ele>
        <time>2000-01-01T13:57:28.000Z</time>
      </trkpt>
      <trkpt lat="44.10279" lon="5.83807">
        <ele>1290</ele>
        <time>2000-01-01T13:57:38.000Z</time>
      </trkpt>
      <trkpt lat="44.10302" lon="5.83783">
        <ele>1291</ele>
        <time>2000-01-01T13:57:48.000Z</time>
      </trkpt>
      <trkpt lat="44.10336" lon="5.83747">
        <ele>1298</ele>
        <time>2000-01-01T13:57:58.000Z</time>
      </trkpt>
      <trkpt lat="44.10365" lon="5.83734">
        <ele>1302</ele>
        <time>2000-01-01T13:58:08.000Z</time>
      </trkpt>
      <trkpt lat="44.10388" lon="5.83722">
        <ele>1304</ele>
        <time>2000-01-01T13:58:18.000Z</time>
      </trkpt>
      <trkpt lat="44.10414" lon="5.83711">
        <ele>1308</ele>
        <time>2000-01-01T13:58:28.000Z</time>
      </trkpt>
      <trkpt lat="44.1044" lon="5.83698">
        <ele>1312</ele>
        <time>2000-01-01T13:58:38.000Z</time>
      </trkpt>
      <trkpt lat="44.10468" lon="5.83685">
        <ele>1313</ele>
        <time>2000-01-01T13:58:48.000Z</time>
      </trkpt>
      <trkpt lat="44.10513" lon="5.83664">
        <ele>1322</ele>
        <time>2000-01-01T13:58:58.000Z</time>
      </trkpt>
      <trkpt lat="44.10547" lon="5.83659">
        <ele>1322</ele>
        <time>2000-01-01T13:59:08.000Z</time>
      </trkpt>
      <trkpt lat="44.1058" lon="5.83655">
        <ele>1322</ele>
        <time>2000-01-01T13:59:18.000Z</time>
      </trkpt>
      <trkpt lat="44.10625" lon="5.83649">
        <ele>1328</ele>
        <time>2000-01-01T13:59:28.000Z</time>
      </trkpt>
      <trkpt lat="44.10658" lon="5.83643">
        <ele>1330</ele>
        <time>2000-01-01T13:59:38.000Z</time>
      </trkpt>
      <trkpt lat="44.10691" lon="5.83638">
        <ele>1335</ele>
        <time>2000-01-01T13:59:48.000Z</time>
      </trkpt>
      <trkpt lat="44.10729" lon="5.83631">
        <ele>1338</ele>
        <time>2000-01-01T13:59:58.000Z</time>
      </trkpt>
      <trkpt lat="44.10759" lon="5.83624">
        <ele>1342</ele>
        <time>2000-01-01T14:00:08.000Z</time>
      </trkpt>
      <trkpt lat="44.10784" lon="5.83617">
        <ele>1349</ele>
        <time>2000-01-01T14:00:18.000Z</time>
      </trkpt>
      <trkpt lat="44.10812" lon="5.8361">
        <ele>1353</ele>
        <time>2000-01-01T14:00:28.000Z</time>
      </trkpt>
      <trkpt lat="44.10843" lon="5.83561">
        <ele>1361</ele>
        <time>2000-01-01T14:00:38.000Z</time>
      </trkpt>
      <trkpt lat="44.1087" lon="5.83551">
        <ele>1364</ele>
        <time>2000-01-01T14:00:48.000Z</time>
      </trkpt>
      <trkpt lat="44.10905" lon="5.83537">
        <ele>1366</ele>
        <time>2000-01-01T14:00:58.000Z</time>
      </trkpt>
      <trkpt lat="44.10882" lon="5.83577">
        <ele>1366</ele>
        <time>2000-01-01T14:01:08.000Z</time>
      </trkpt>
      <trkpt lat="44.10859" lon="5.83616">
        <ele>1367</ele>
        <time>2000-01-01T14:01:18.000Z</time>
      </trkpt>
      <trkpt lat="44.10836" lon="5.83656">
        <ele>1368</ele>
        <time>2000-01-01T14:01:28.000Z</time>
      </trkpt>
      <trkpt lat="44.10809" lon="5.83702">
        <ele>1369</ele>
        <time>2000-01-01T14:01:38.000Z</time>
      </trkpt>
      <trkpt lat="44.10818" lon="5.83737">
        <ele>1384</ele>
        <time>2000-01-01T14:01:48.000Z</time>
      </trkpt>
      <trkpt lat="44.10847" lon="5.83704">
        <ele>1391</ele>
        <time>2000-01-01T14:01:58.000Z</time>
      </trkpt>
      <trkpt lat="44.10875" lon="5.8367">
        <ele>1393</ele>
        <time>2000-01-01T14:02:08.000Z</time>
      </trkpt>
      <trkpt lat="44.10896" lon="5.83646">
        <ele>1393</ele>
        <time>2000-01-01T14:02:18.000Z</time>
      </trkpt>
      <trkpt lat="44.10923" lon="5.83615">
        <ele>1396</ele>
        <time>2000-01-01T14:02:28.000Z</time>
      </trkpt>
      <trkpt lat="44.10943" lon="5.83591">
        <ele>1399</ele>
        <time>2000-01-01T14:02:38.000Z</time>
      </trkpt>
      <trkpt lat="44.10967" lon="5.83573">
        <ele>1402</ele>
        <time>2000-01-01T14:02:48.000Z</time>
      </trkpt>
      <trkpt lat="44.10998" lon="5.8355">
        <ele>1405</ele>
        <time>2000-01-01T14:02:58.000Z</time>
      </trkpt>
      <trkpt lat="44.11026" lon="5.83527">
        <ele>1413</ele>
        <time>2000-01-01T14:03:08.000Z</time>
      </trkpt>
      <trkpt lat="44.11049" lon="5.83507">
        <ele>1413</ele>
        <time>2000-01-01T14:03:18.000Z</time>
      </trkpt>
      <trkpt lat="44.1108" lon="5.83481">
        <ele>1420</ele>
        <time>2000-01-01T14:03:28.000Z</time>
      </trkpt>
      <trkpt lat="44.11106" lon="5.8346">
        <ele>1427</ele>
        <time>2000-01-01T14:03:38.000Z</time>
      </trkpt>
      <trkpt lat="44.11126" lon="5.83425">
        <ele>1430</ele>
        <time>2000-01-01T14:03:48.000Z</time>
      </trkpt>
      <trkpt lat="44.11147" lon="5.8339">
        <ele>1434</ele>
        <time>2000-01-01T14:03:58.000Z</time>
      </trkpt>
      <trkpt lat="44.11168" lon="5.83353">
        <ele>1441</ele>
        <time>2000-01-01T14:04:08.000Z</time>
      </trkpt>
      <trkpt lat="44.11174" lon="5.83317">
        <ele>1447</ele>
        <time>2000-01-01T14:04:18.000Z</time>
      </trkpt>
      <trkpt lat="44.11181" lon="5.83274">
        <ele>1452</ele>
        <time>2000-01-01T14:04:28.000Z</time>
      </trkpt>
      <trkpt lat="44.11181" lon="5.83239">
        <ele>1454</ele>
        <time>2000-01-01T14:04:38.000Z</time>
      </trkpt>
      <trkpt lat="44.1118" lon="5.832">
        <ele>1458</ele>
        <time>2000-01-01T14:04:48.000Z</time>
      </trkpt>
      <trkpt lat="44.112" lon="5.83162">
        <ele>1459</ele>
        <time>2000-01-01T14:04:58.000Z</time>
      </trkpt>
      <trkpt lat="44.11208" lon="5.8312">
        <ele>1464</ele>
        <time>2000-01-01T14:05:08.000Z</time>
      </trkpt>
      <trkpt lat="44.11215" lon="5.83086">
        <ele>1466</ele>
        <time>2000-01-01T14:05:18.000Z</time>
      </trkpt>
      <trkpt lat="44.11223" lon="5.83048">
        <ele>1470</ele>
        <time>2000-01-01T14:05:28.000Z</time>
      </trkpt>
      <trkpt lat="44.11237" lon="5.83005">
        <ele>1473</ele>
        <time>2000-01-01T14:05:38.000Z</time>
      </trkpt>
      <trkpt lat="44.11251" lon="5.82963">
        <ele>1475</ele>
        <time>2000-01-01T14:05:48.000Z</time>
      </trkpt>
      <trkpt lat="44.11268" lon="5.8291">
        <ele>1486</ele>
        <time>2000-01-01T14:05:58.000Z</time>
      </trkpt>
      <trkpt lat="44.11291" lon="5.82877">
        <ele>1486</ele>
        <time>2000-01-01T14:06:08.000Z</time>
      </trkpt>
      <trkpt lat="44.11314" lon="5.82844">
        <ele>1490</ele>
        <time>2000-01-01T14:06:18.000Z</time>
      </trkpt>
      <trkpt lat="44.1134" lon="5.82807">
        <ele>1496</ele>
        <time>2000-01-01T14:06:28.000Z</time>
      </trkpt>
      <trkpt lat="44.11356" lon="5.82782">
        <ele>1498</ele>
        <time>2000-01-01T14:06:38.000Z</time>
      </trkpt>
      <trkpt lat="44.11373" lon="5.82758">
        <ele>1502</ele>
        <time>2000-01-01T14:06:48.000Z</time>
      </trkpt>
      <trkpt lat="44.11403" lon="5.82731">
        <ele>1505</ele>
        <time>2000-01-01T14:06:58.000Z</time>
      </trkpt>
      <trkpt lat="44.11432" lon="5.82703">
        <ele>1510</ele>
        <time>2000-01-01T14:07:08.000Z</time>
      </trkpt>
      <trkpt lat="44.11455" lon="5.82682">
        <ele>1515</ele>
        <time>2000-01-01T14:07:18.000Z</time>
      </trkpt>
      <trkpt lat="44.11485" lon="5.82655">
        <ele>1522</ele>
        <time>2000-01-01T14:07:28.000Z</time>
      </trkpt>
      <trkpt lat="44.11502" lon="5.82625">
        <ele>1528</ele>
        <time>2000-01-01T14:07:38.000Z</time>
      </trkpt>
      <trkpt lat="44.11526" lon="5.82584">
        <ele>1531</ele>
        <time>2000-01-01T14:07:48.000Z</time>
      </trkpt>
      <trkpt lat="44.1155" lon="5.82544">
        <ele>1533</ele>
        <time>2000-01-01T14:07:58.000Z</time>
      </trkpt>
      <trkpt lat="44.1156" lon="5.82505">
        <ele>1535</ele>
        <time>2000-01-01T14:08:08.000Z</time>
      </trkpt>
      <trkpt lat="44.11568" lon="5.82473">
        <ele>1535</ele>
        <time>2000-01-01T14:08:18.000Z</time>
      </trkpt>
      <trkpt lat="44.11576" lon="5.82441">
        <ele>1537</ele>
        <time>2000-01-01T14:08:28.000Z</time>
      </trkpt>
      <trkpt lat="44.11592" lon="5.82407">
        <ele>1544</ele>
        <time>2000-01-01T14:08:38.000Z</time>
      </trkpt>
      <trkpt lat="44.11616" lon="5.82357">
        <ele>1549</ele>
        <time>2000-01-01T14:08:48.000Z</time>
      </trkpt>
      <trkpt lat="44.11631" lon="5.82323">
        <ele>1553</ele>
        <time>2000-01-01T14:08:58.000Z</time>
      </trkpt>
      <trkpt lat="44.11654" lon="5.82275">
        <ele>1554</ele>
        <time>2000-01-01T14:09:08.000Z</time>
      </trkpt>
      <trkpt lat="44.11668" lon="5.82235">
        <ele>1558</ele>
        <time>2000-01-01T14:09:18.000Z</time>
      </trkpt>
      <trkpt lat="44.11683" lon="5.82194">
        <ele>1564</ele>
        <time>2000-01-01T14:09:28.000Z</time>
      </trkpt>
      <trkpt lat="44.11698" lon="5.82153">
        <ele>1568</ele>
        <time>2000-01-01T14:09:38.000Z</time>
      </trkpt>
      <trkpt lat="44.11715" lon="5.82106">
        <ele>1575</ele>
        <time>2000-01-01T14:09:48.000Z</time>
      </trkpt>
      <trkpt lat="44.11709" lon="5.82065">
        <ele>1575</ele>
        <time>2000-01-01T14:09:58.000Z</time>
      </trkpt>
      <trkpt lat="44.11704" lon="5.82024">
        <ele>1576</ele>
        <time>2000-01-01T14:10:08.000Z</time>
      </trkpt>
      <trkpt lat="44.11699" lon="5.8199">
        <ele>1577</ele>
        <time>2000-01-01T14:10:18.000Z</time>
      </trkpt>
      <trkpt lat="44.11695" lon="5.81956">
        <ele>1577</ele>
        <time>2000-01-01T14:10:28.000Z</time>
      </trkpt>
      <trkpt lat="44.11688" lon="5.81912">
        <ele>1581</ele>
        <time>2000-01-01T14:10:38.000Z</time>
      </trkpt>
      <trkpt lat="44.11682" lon="5.81868">
        <ele>1581</ele>
        <time>2000-01-01T14:10:48.000Z</time>
      </trkpt>
      <trkpt lat="44.11675" lon="5.81824">
        <ele>1585</ele>
        <time>2000-01-01T14:10:58.000Z</time>
      </trkpt>
      <trkpt lat="44.11668" lon="5.81786">
        <ele>1589</ele>
        <time>2000-01-01T14:11:08.000Z</time>
      </trkpt>
      <trkpt lat="44.11659" lon="5.81732">
        <ele>1594</ele>
        <time>2000-01-01T14:11:18.000Z</time>
      </trkpt>
      <trkpt lat="44.1165" lon="5.81692">
        <ele>1597</ele>
        <time>2000-01-01T14:11:28.000Z</time>
      </trkpt>
      <trkpt lat="44.11642" lon="5.81659">
        <ele>1599</ele>
        <time>2000-01-01T14:11:38.000Z</time>
      </trkpt>
      <trkpt lat="44.11633" lon="5.81623">
        <ele>1603</ele>
        <time>2000-01-01T14:11:48.000Z</time>
      </trkpt>
      <trkpt lat="44.11626" lon="5.81584">
        <ele>1608</ele>
        <time>2000-01-01T14:11:58.000Z</time>
      </trkpt>
      <trkpt lat="44.11614" lon="5.81526">
        <ele>1608</ele>
        <time>2000-01-01T14:12:08.000Z</time>
      </trkpt>
      <trkpt lat="44.11617" lon="5.81491">
        <ele>1608</ele>
        <time>2000-01-01T14:12:18.000Z</time>
      </trkpt>
      <trkpt lat="44.11619" lon="5.81451">
        <ele>1615</ele>
        <time>2000-01-01T14:12:28.000Z</time>
      </trkpt>
      <trkpt lat="44.11636" lon="5.81427">
        <ele>1616</ele>
        <time>2000-01-01T14:12:38.000Z</time>
      </trkpt>
      <trkpt lat="44.11653" lon="5.81402">
        <ele>1618</ele>
        <time>2000-01-01T14:12:48.000Z</time>
      </trkpt>
      <trkpt lat="44.11675" lon="5.81386">
        <ele>1622</ele>
        <time>2000-01-01T14:12:58.000Z</time>
      </trkpt>
      <trkpt lat="44.11697" lon="5.8137">
        <ele>1627</ele>
        <time>2000-01-01T14:13:08.000Z</time>
      </trkpt>
      <trkpt lat="44.11727" lon="5.81342">
        <ele>1627</ele>
        <time>2000-01-01T14:13:18.000Z</time>
      </trkpt>
      <trkpt lat="44.11747" lon="5.81318">
        <ele>1631</ele>
        <time>2000-01-01T14:13:28.000Z</time>
      </trkpt>
      <trkpt lat="44.11767" lon="5.81288">
        <ele>1636</ele>
        <time>2000-01-01T14:13:38.000Z</time>
      </trkpt>
      <trkpt lat="44.11785" lon="5.81263">
        <ele>1638</ele>
        <time>2000-01-01T14:13:48.000Z</time>
      </trkpt>
      <trkpt lat="44.11807" lon="5.81233">
        <ele>1642</ele>
        <time>2000-01-01T14:13:58.000Z</time>
      </trkpt>
      <trkpt lat="44.11827" lon="5.81204">
        <ele>1644</ele>
        <time>2000-01-01T14:14:08.000Z</time>
      </trkpt>
      <trkpt lat="44.1184" lon="5.8117">
        <ele>1649</ele>
        <time>2000-01-01T14:14:18.000Z</time>
      </trkpt>
      <trkpt lat="44.11799" lon="5.812">
        <ele>1655</ele>
        <time>2000-01-01T14:14:28.000Z</time>
      </trkpt>
      <trkpt lat="44.11776" lon="5.81213">
        <ele>1655</ele>
        <time>2000-01-01T14:14:38.000Z</time>
      </trkpt>
      <trkpt lat="44.11753" lon="5.81221">
        <ele>1655</ele>
        <time>2000-01-01T14:14:48.000Z</time>
      </trkpt>
      <trkpt lat="44.11725" lon="5.81193">
        <ele>1655</ele>
        <time>2000-01-01T14:14:58.000Z</time>
      </trkpt>
      <trkpt lat="44.11705" lon="5.81187">
        <ele>1656</ele>
        <time>2000-01-01T14:15:08.000Z</time>
      </trkpt>
      <trkpt lat="44.11693" lon="5.81154">
        <ele>1657</ele>
        <time>2000-01-01T14:15:18.000Z</time>
      </trkpt>
      <trkpt lat="44.11691" lon="5.81121">
        <ele>1659</ele>
        <time>2000-01-01T14:15:28.000Z</time>
      </trkpt>
      <trkpt lat="44.11685" lon="5.81072">
        <ele>1660</ele>
        <time>2000-01-01T14:15:38.000Z</time>
      </trkpt>
      <trkpt lat="44.11678" lon="5.81024">
        <ele>1660</ele>
        <time>2000-01-01T14:15:48.000Z</time>
      </trkpt>
      <trkpt lat="44.11673" lon="5.80987">
        <ele>1659</ele>
        <time>2000-01-01T14:15:58.000Z</time>
      </trkpt>
      <trkpt lat="44.11667" lon="5.80939">
        <ele>1655</ele>
        <time>2000-01-01T14:16:08.000Z</time>
      </trkpt>
      <trkpt lat="44.11659" lon="5.80883">
        <ele>1648</ele>
        <time>2000-01-01T14:16:18.000Z</time>
      </trkpt>
      <trkpt lat="44.11653" lon="5.80818">
        <ele>1644</ele>
        <time>2000-01-01T14:16:28.000Z</time>
      </trkpt>
      <trkpt lat="44.11641" lon="5.80781">
        <ele>1642</ele>
        <time>2000-01-01T14:16:38.000Z</time>
      </trkpt>
      <trkpt lat="44.11624" lon="5.80726">
        <ele>1638</ele>
        <time>2000-01-01T14:16:48.000Z</time>
      </trkpt>
      <trkpt lat="44.11609" lon="5.80699">
        <ele>1638</ele>
        <time>2000-01-01T14:16:58.000Z</time>
      </trkpt>
      <trkpt lat="44.11594" lon="5.80672">
        <ele>1641</ele>
        <time>2000-01-01T14:17:08.000Z</time>
      </trkpt>
      <trkpt lat="44.11551" lon="5.8066">
        <ele>1641</ele>
        <time>2000-01-01T14:17:18.000Z</time>
      </trkpt>
      <trkpt lat="44.11521" lon="5.80617">
        <ele>1646</ele>
        <time>2000-01-01T14:17:28.000Z</time>
      </trkpt>
      <trkpt lat="44.11514" lon="5.80578">
        <ele>1651</ele>
        <time>2000-01-01T14:17:38.000Z</time>
      </trkpt>
      <trkpt lat="44.11505" lon="5.8052">
        <ele>1658</ele>
        <time>2000-01-01T14:17:48.000Z</time>
      </trkpt>
      <trkpt lat="44.11496" lon="5.80479">
        <ele>1659</ele>
        <time>2000-01-01T14:17:58.000Z</time>
      </trkpt>
      <trkpt lat="44.11488" lon="5.80446">
        <ele>1660</ele>
        <time>2000-01-01T14:18:08.000Z</time>
      </trkpt>
      <trkpt lat="44.11479" lon="5.80409">
        <ele>1660</ele>
        <time>2000-01-01T14:18:18.000Z</time>
      </trkpt>
      <trkpt lat="44.1146" lon="5.80375">
        <ele>1660</ele>
        <time>2000-01-01T14:18:28.000Z</time>
      </trkpt>
      <trkpt lat="44.11445" lon="5.80346">
        <ele>1660</ele>
        <time>2000-01-01T14:18:38.000Z</time>
      </trkpt>
      <trkpt lat="44.11428" lon="5.80314">
        <ele>1658</ele>
        <time>2000-01-01T14:18:48.000Z</time>
      </trkpt>
      <trkpt lat="44.114" lon="5.80302">
        <ele>1651</ele>
        <time>2000-01-01T14:18:58.000Z</time>
      </trkpt>
      <trkpt lat="44.11356" lon="5.80284">
        <ele>1643</ele>
        <time>2000-01-01T14:19:08.000Z</time>
      </trkpt>
      <trkpt lat="44.11334" lon="5.80263">
        <ele>1640</ele>
        <time>2000-01-01T14:19:18.000Z</time>
      </trkpt>
      <trkpt lat="44.11308" lon="5.80237">
        <ele>1634</ele>
        <time>2000-01-01T14:19:28.000Z</time>
      </trkpt>
      <trkpt lat="44.11288" lon="5.80211">
        <ele>1629</ele>
        <time>2000-01-01T14:19:38.000Z</time>
      </trkpt>
      <trkpt lat="44.11262" lon="5.80177">
        <ele>1625</ele>
        <time>2000-01-01T14:19:48.000Z</time>
      </trkpt>
      <trkpt lat="44.11251" lon="5.80139">
        <ele>1624</ele>
        <time>2000-01-01T14:19:58.000Z</time>
      </trkpt>
      <trkpt lat="44.11234" lon="5.80078">
        <ele>1619</ele>
        <time>2000-01-01T14:20:08.000Z</time>
      </trkpt>
      <trkpt lat="44.11227" lon="5.80041">
        <ele>1614</ele>
        <time>2000-01-01T14:20:18.000Z</time>
      </trkpt>
      <trkpt lat="44.11219" lon="5.79994">
        <ele>1604</ele>
        <time>2000-01-01T14:20:28.000Z</time>
      </trkpt>
      <trkpt lat="44.11229" lon="5.79936">
        <ele>1591</ele>
        <time>2000-01-01T14:20:38.000Z</time>
      </trkpt>
      <trkpt lat="44.11247" lon="5.79909">
        <ele>1587</ele>
        <time>2000-01-01T14:20:48.000Z</time>
      </trkpt>
      <trkpt lat="44.11268" lon="5.79876">
        <ele>1583</ele>
        <time>2000-01-01T14:20:58.000Z</time>
      </trkpt>
      <trkpt lat="44.11287" lon="5.79853">
        <ele>1580</ele>
        <time>2000-01-01T14:21:08.000Z</time>
      </trkpt>
      <trkpt lat="44.11306" lon="5.79829">
        <ele>1575</ele>
        <time>2000-01-01T14:21:18.000Z</time>
      </trkpt>
      <trkpt lat="44.11328" lon="5.79801">
        <ele>1573</ele>
        <time>2000-01-01T14:21:28.000Z</time>
      </trkpt>
      <trkpt lat="44.1136" lon="5.79758">
        <ele>1558</ele>
        <time>2000-01-01T14:21:38.000Z</time>
      </trkpt>
      <trkpt lat="44.11383" lon="5.79734">
        <ele>1553</ele>
        <time>2000-01-01T14:21:48.000Z</time>
      </trkpt>
      <trkpt lat="44.11416" lon="5.79698">
        <ele>1538</ele>
        <time>2000-01-01T14:21:58.000Z</time>
      </trkpt>
      <trkpt lat="44.11437" lon="5.79678">
        <ele>1530</ele>
        <time>2000-01-01T14:22:08.000Z</time>
      </trkpt>
      <trkpt lat="44.11462" lon="5.79654">
        <ele>1526</ele>
        <time>2000-01-01T14:22:18.000Z</time>
      </trkpt>
      <trkpt lat="44.11469" lon="5.79627">
        <ele>1519</ele>
        <time>2000-01-01T14:22:28.000Z</time>
      </trkpt>
      <trkpt lat="44.11472" lon="5.79587">
        <ele>1517</ele>
        <time>2000-01-01T14:22:38.000Z</time>
      </trkpt>
      <trkpt lat="44.11494" lon="5.79539">
        <ele>1515</ele>
        <time>2000-01-01T14:22:48.000Z</time>
      </trkpt>
      <trkpt lat="44.11505" lon="5.79506">
        <ele>1515</ele>
        <time>2000-01-01T14:22:58.000Z</time>
      </trkpt>
      <trkpt lat="44.115" lon="5.79482">
        <ele>1513.7</ele>
        <time>2000-01-01T14:23:08.000Z</time>
      </trkpt>
      <trkpt lat="44.11455" lon="5.79485">
        <ele>1515</ele>
        <time>2000-01-01T14:23:18.000Z</time>
      </trkpt>
      <trkpt lat="44.11418" lon="5.79492">
        <ele>1518</ele>
        <time>2000-01-01T14:23:28.000Z</time>
      </trkpt>
      <trkpt lat="44.11394" lon="5.79484">
        <ele>1523</ele>
        <time>2000-01-01T14:23:38.000Z</time>
      </trkpt>
      <trkpt lat="44.11369" lon="5.79475">
        <ele>1529</ele>
        <time>2000-01-01T14:23:48.000Z</time>
      </trkpt>
      <trkpt lat="44.11328" lon="5.79463">
        <ele>1535</ele>
        <time>2000-01-01T14:23:58.000Z</time>
      </trkpt>
      <trkpt lat="44.11294" lon="5.7945">
        <ele>1542</ele>
        <time>2000-01-01T14:24:08.000Z</time>
      </trkpt>
      <trkpt lat="44.11273" lon="5.79438">
        <ele>1547</ele>
        <time>2000-01-01T14:24:18.000Z</time>
      </trkpt>
      <trkpt lat="44.1125" lon="5.79427">
        <ele>1551</ele>
        <time>2000-01-01T14:24:28.000Z</time>
      </trkpt>
      <trkpt lat="44.11227" lon="5.79417">
        <ele>1554</ele>
        <time>2000-01-01T14:24:38.000Z</time>
      </trkpt>
      <trkpt lat="44.11199" lon="5.79395">
        <ele>1563</ele>
        <time>2000-01-01T14:24:48.000Z</time>
      </trkpt>
      <trkpt lat="44.11175" lon="5.7938">
        <ele>1568</ele>
        <time>2000-01-01T14:24:58.000Z</time>
      </trkpt>
      <trkpt lat="44.11147" lon="5.79362">
        <ele>1571</ele>
        <time>2000-01-01T14:25:08.000Z</time>
      </trkpt>
      <trkpt lat="44.11127" lon="5.79347">
        <ele>1572</ele>
        <time>2000-01-01T14:25:18.000Z</time>
      </trkpt>
      <trkpt lat="44.11122" lon="5.79329">
        <ele>1573.3</ele>
        <time>2000-01-01T14:25:28.000Z</time>
      </trkpt>
      <trkpt lat="44.11135" lon="5.79314">
        <ele>1573</ele>
        <time>2000-01-01T14:25:38.000Z</time>
      </trkpt>
      <trkpt lat="44.11158" lon="5.79314">
        <ele>1575</ele>
        <time>2000-01-01T14:25:48.000Z</time>
      </trkpt>
      <trkpt lat="44.1118" lon="5.79308">
        <ele>1577</ele>
        <time>2000-01-01T14:25:58.000Z</time>
      </trkpt>
      <trkpt lat="44.11191" lon="5.79271">
        <ele>1579</ele>
        <time>2000-01-01T14:26:08.000Z</time>
      </trkpt>
      <trkpt lat="44.1121" lon="5.79262">
        <ele>1582</ele>
        <time>2000-01-01T14:26:18.000Z</time>
      </trkpt>
      <trkpt lat="44.11238" lon="5.79247">
        <ele>1589</ele>
        <time>2000-01-01T14:26:28.000Z</time>
      </trkpt>
      <trkpt lat="44.1125" lon="5.79236">
        <ele>1593.5</ele>
        <time>2000-01-01T14:26:38.000Z</time>
      </trkpt>
      <trkpt lat="44.11271" lon="5.79229">
        <ele>1599</ele>
        <time>2000-01-01T14:26:48.000Z</time>
      </trkpt>
      <trkpt lat="44.11284" lon="5.79212">
        <ele>1602.9</ele>
        <time>2000-01-01T14:26:58.000Z</time>
      </trkpt>
      <trkpt lat="44.113" lon="5.79207">
        <ele>1605</ele>
        <time>2000-01-01T14:27:08.000Z</time>
      </trkpt>
      <trkpt lat="44.11335" lon="5.7917">
        <ele>1618</ele>
        <time>2000-01-01T14:27:18.000Z</time>
      </trkpt>
      <trkpt lat="44.11357" lon="5.79135">
        <ele>1626</ele>
        <time>2000-01-01T14:27:28.000Z</time>
      </trkpt>
      <trkpt lat="44.11376" lon="5.79107">
        <ele>1634</ele>
        <time>2000-01-01T14:27:38.000Z</time>
      </trkpt>
      <trkpt lat="44.11396" lon="5.79101">
        <ele>1639</ele>
        <time>2000-01-01T14:27:48.000Z</time>
      </trkpt>
      <trkpt lat="44.11406" lon="5.79088">
        <ele>1642.2</ele>
        <time>2000-01-01T14:27:58.000Z</time>
      </trkpt>
      <trkpt lat="44.11422" lon="5.79073">
        <ele>1646</ele>
        <time>2000-01-01T14:28:08.000Z</time>
      </trkpt>
      <trkpt lat="44.11428" lon="5.79046">
        <ele>1649</ele>
        <time>2000-01-01T14:28:18.000Z</time>
      </trkpt>
      <trkpt lat="44.11432" lon="5.79004">
        <ele>1653</ele>
        <time>2000-01-01T14:28:28.000Z</time>
      </trkpt>
      <trkpt lat="44.11432" lon="5.78961">
        <ele>1656</ele>
        <time>2000-01-01T14:28:38.000Z</time>
      </trkpt>
      <trkpt lat="44.11439" lon="5.78929">
        <ele>1657</ele>
        <time>2000-01-01T14:28:48.000Z</time>
      </trkpt>
      <trkpt lat="44.11467" lon="5.78891">
        <ele>1660</ele>
        <time>2000-01-01T14:28:58.000Z</time>
      </trkpt>
      <trkpt lat="44.11465" lon="5.78858">
        <ele>1661</ele>
        <time>2000-01-01T14:29:08.000Z</time>
      </trkpt>
      <trkpt lat="44.11456" lon="5.78826">
        <ele>1659</ele>
        <time>2000-01-01T14:29:18.000Z</time>
      </trkpt>
      <trkpt lat="44.11447" lon="5.78791">
        <ele>1657</ele>
        <time>2000-01-01T14:29:28.000Z</time>
      </trkpt>
      <trkpt lat="44.1146" lon="5.78759">
        <ele>1650</ele>
        <time>2000-01-01T14:29:38.000Z</time>
      </trkpt>
      <trkpt lat="44.11479" lon="5.78732">
        <ele>1648</ele>
        <time>2000-01-01T14:29:48.000Z</time>
      </trkpt>
      <trkpt lat="44.11512" lon="5.78695">
        <ele>1643</ele>
        <time>2000-01-01T14:29:58.000Z</time>
      </trkpt>
      <trkpt lat="44.11535" lon="5.78667">
        <ele>1638</ele>
        <time>2000-01-01T14:30:08.000Z</time>
      </trkpt>
      <trkpt lat="44.11526" lon="5.78651">
        <ele>1635.8</ele>
        <time>2000-01-01T14:30:18.000Z</time>
      </trkpt>
      <trkpt lat="44.11543" lon="5.78632">
        <ele>1632</ele>
        <time>2000-01-01T14:30:28.000Z</time>
      </trkpt>
      <trkpt lat="44.11515" lon="5.78625">
        <ele>1624</ele>
        <time>2000-01-01T14:30:38.000Z</time>
      </trkpt>
      <trkpt lat="44.11545" lon="5.78595">
        <ele>1619</ele>
        <time>2000-01-01T14:30:48.000Z</time>
      </trkpt>
      <trkpt lat="44.11578" lon="5.78546">
        <ele>1606</ele>
        <time>2000-01-01T14:30:58.000Z</time>
      </trkpt>
      <trkpt lat="44.11601" lon="5.78526">
        <ele>1603</ele>
        <time>2000-01-01T14:31:08.000Z</time>
      </trkpt>
      <trkpt lat="44.11613" lon="5.78498">
        <ele>1593</ele>
        <time>2000-01-01T14:31:18.000Z</time>
      </trkpt>
      <trkpt lat="44.1164" lon="5.78448">
        <ele>1587</ele>
        <time>2000-01-01T14:31:28.000Z</time>
      </trkpt>
      <trkpt lat="44.11677" lon="5.78422">
        <ele>1585</ele>
        <time>2000-01-01T14:31:38.000Z</time>
      </trkpt>
      <trkpt lat="44.11679" lon="5.78402">
        <ele>1586.4</ele>
        <time>2000-01-01T14:31:48.000Z</time>
      </trkpt>
      <trkpt lat="44.11629" lon="5.78375">
        <ele>1586</ele>
        <time>2000-01-01T14:31:58.000Z</time>
      </trkpt>
      <trkpt lat="44.11603" lon="5.7836">
        <ele>1588</ele>
        <time>2000-01-01T14:32:08.000Z</time>
      </trkpt>
      <trkpt lat="44.11574" lon="5.7834">
        <ele>1588</ele>
        <time>2000-01-01T14:32:18.000Z</time>
      </trkpt>
      <trkpt lat="44.11545" lon="5.7832">
        <ele>1587</ele>
        <time>2000-01-01T14:32:28.000Z</time>
      </trkpt>
      <trkpt lat="44.11515" lon="5.783">
        <ele>1586</ele>
        <time>2000-01-01T14:32:38.000Z</time>
      </trkpt>
      <trkpt lat="44.11488" lon="5.78279">
        <ele>1582</ele>
        <time>2000-01-01T14:32:48.000Z</time>
      </trkpt>
      <trkpt lat="44.11464" lon="5.78262">
        <ele>1580</ele>
        <time>2000-01-01T14:32:58.000Z</time>
      </trkpt>
      <trkpt lat="44.11434" lon="5.78239">
        <ele>1579</ele>
        <time>2000-01-01T14:33:08.000Z</time>
      </trkpt>
      <trkpt lat="44.11408" lon="5.7823">
        <ele>1575</ele>
        <time>2000-01-01T14:33:18.000Z</time>
      </trkpt>
      <trkpt lat="44.11377" lon="5.7822">
        <ele>1575</ele>
        <time>2000-01-01T14:33:28.000Z</time>
      </trkpt>
      <trkpt lat="44.11367" lon="5.78181">
        <ele>1579</ele>
        <time>2000-01-01T14:33:38.000Z</time>
      </trkpt>
      <trkpt lat="44.1134" lon="5.78175">
        <ele>1579</ele>
        <time>2000-01-01T14:33:48.000Z</time>
      </trkpt>
      <trkpt lat="44.11306" lon="5.78168">
        <ele>1577</ele>
        <time>2000-01-01T14:33:58.000Z</time>
      </trkpt>
      <trkpt lat="44.11293" lon="5.78198">
        <ele>1573</ele>
        <time>2000-01-01T14:34:08.000Z</time>
      </trkpt>
      <trkpt lat="44.11274" lon="5.7825">
        <ele>1566</ele>
        <time>2000-01-01T14:34:18.000Z</time>
      </trkpt>
      <trkpt lat="44.11269" lon="5.78308">
        <ele>1555</ele>
        <time>2000-01-01T14:34:28.000Z</time>
      </trkpt>
      <trkpt lat="44.11261" lon="5.78344">
        <ele>1545</ele>
        <time>2000-01-01T14:34:38.000Z</time>
      </trkpt>
      <trkpt lat="44.11249" lon="5.78392">
        <ele>1532</ele>
        <time>2000-01-01T14:34:48.000Z</time>
      </trkpt>
      <trkpt lat="44.11221" lon="5.78411">
        <ele>1526</ele>
        <time>2000-01-01T14:34:58.000Z</time>
      </trkpt>
      <trkpt lat="44.11199" lon="5.78426">
        <ele>1525</ele>
        <time>2000-01-01T14:35:08.000Z</time>
      </trkpt>
      <trkpt lat="44.11174" lon="5.78443">
        <ele>1522</ele>
        <time>2000-01-01T14:35:18.000Z</time>
      </trkpt>
      <trkpt lat="44.1115" lon="5.7847">
        <ele>1518</ele>
        <time>2000-01-01T14:35:28.000Z</time>
      </trkpt>
      <trkpt lat="44.11131" lon="5.78492">
        <ele>1516</ele>
        <time>2000-01-01T14:35:38.000Z</time>
      </trkpt>
      <trkpt lat="44.11109" lon="5.78517">
        <ele>1515</ele>
        <time>2000-01-01T14:35:48.000Z</time>
      </trkpt>
      <trkpt lat="44.11088" lon="5.78542">
        <ele>1508</ele>
        <time>2000-01-01T14:35:58.000Z</time>
      </trkpt>
      <trkpt lat="44.11073" lon="5.78571">
        <ele>1501</ele>
        <time>2000-01-01T14:36:08.000Z</time>
      </trkpt>
      <trkpt lat="44.11055" lon="5.78604">
        <ele>1494</ele>
        <time>2000-01-01T14:36:18.000Z</time>
      </trkpt>
      <trkpt lat="44.11025" lon="5.78643">
        <ele>1486</ele>
        <time>2000-01-01T14:36:28.000Z</time>
      </trkpt>
      <trkpt lat="44.11002" lon="5.78671">
        <ele>1479</ele>
        <time>2000-01-01T14:36:38.000Z</time>
      </trkpt>
      <trkpt lat="44.10983" lon="5.78695">
        <ele>1474</ele>
        <time>2000-01-01T14:36:48.000Z</time>
      </trkpt>
      <trkpt lat="44.10963" lon="5.7872">
        <ele>1469</ele>
        <time>2000-01-01T14:36:58.000Z</time>
      </trkpt>
      <trkpt lat="44.10939" lon="5.78751">
        <ele>1460</ele>
        <time>2000-01-01T14:37:08.000Z</time>
      </trkpt>
      <trkpt lat="44.10915" lon="5.78782">
        <ele>1452</ele>
        <time>2000-01-01T14:37:18.000Z</time>
      </trkpt>
      <trkpt lat="44.10889" lon="5.78815">
        <ele>1444</ele>
        <time>2000-01-01T14:37:28.000Z</time>
      </trkpt>
      <trkpt lat="44.10869" lon="5.7884">
        <ele>1436</ele>
        <time>2000-01-01T14:37:38.000Z</time>
      </trkpt>
      <trkpt lat="44.10843" lon="5.78872">
        <ele>1431</ele>
        <time>2000-01-01T14:37:48.000Z</time>
      </trkpt>
      <trkpt lat="44.10831" lon="5.78908">
        <ele>1427</ele>
        <time>2000-01-01T14:37:58.000Z</time>
      </trkpt>
      <trkpt lat="44.10815" lon="5.78961">
        <ele>1415</ele>
        <time>2000-01-01T14:38:08.000Z</time>
      </trkpt>
      <trkpt lat="44.10804" lon="5.78994">
        <ele>1409</ele>
        <time>2000-01-01T14:38:18.000Z</time>
      </trkpt>
      <trkpt lat="44.10792" lon="5.79033">
        <ele>1405</ele>
        <time>2000-01-01T14:38:28.000Z</time>
      </trkpt>
      <trkpt lat="44.10767" lon="5.79051">
        <ele>1400</ele>
        <time>2000-01-01T14:38:38.000Z</time>
      </trkpt>
      <trkpt lat="44.1073" lon="5.79077">
        <ele>1394</ele>
        <time>2000-01-01T14:38:48.000Z</time>
      </trkpt>
      <trkpt lat="44.10707" lon="5.79094">
        <ele>1390</ele>
        <time>2000-01-01T14:38:58.000Z</time>
      </trkpt>
      <trkpt lat="44.10681" lon="5.79113">
        <ele>1387</ele>
        <time>2000-01-01T14:39:08.000Z</time>
      </trkpt>
      <trkpt lat="44.10651" lon="5.7913">
        <ele>1382</ele>
        <time>2000-01-01T14:39:18.000Z</time>
      </trkpt>
      <trkpt lat="44.10626" lon="5.79145">
        <ele>1378</ele>
        <time>2000-01-01T14:39:28.000Z</time>
      </trkpt>
      <trkpt lat="44.10594" lon="5.79164">
        <ele>1374</ele>
        <time>2000-01-01T14:39:38.000Z</time>
      </trkpt>
      <trkpt lat="44.10561" lon="5.7918">
        <ele>1369</ele>
        <time>2000-01-01T14:39:48.000Z</time>
      </trkpt>
      <trkpt lat="44.10532" lon="5.79195">
        <ele>1365</ele>
        <time>2000-01-01T14:39:58.000Z</time>
      </trkpt>
      <trkpt lat="44.10507" lon="5.79207">
        <ele>1362</ele>
        <time>2000-01-01T14:40:08.000Z</time>
      </trkpt>
      <trkpt lat="44.10478" lon="5.79222">
        <ele>1360</ele>
        <time>2000-01-01T14:40:18.000Z</time>
      </trkpt>
      <trkpt lat="44.10444" lon="5.79228">
        <ele>1356</ele>
        <time>2000-01-01T14:40:28.000Z</time>
      </trkpt>
      <trkpt lat="44.10411" lon="5.79235">
        <ele>1354</ele>
        <time>2000-01-01T14:40:38.000Z</time>
      </trkpt>
      <trkpt lat="44.10367" lon="5.79243">
        <ele>1348</ele>
        <time>2000-01-01T14:40:48.000Z</time>
      </trkpt>
      <trkpt lat="44.10343" lon="5.79229">
        <ele>1347</ele>
        <time>2000-01-01T14:40:58.000Z</time>
      </trkpt>
      <trkpt lat="44.10317" lon="5.79213">
        <ele>1347</ele>
        <time>2000-01-01T14:41:08.000Z</time>
      </trkpt>
      <trkpt lat="44.10291" lon="5.79219">
        <ele>1346</ele>
        <time>2000-01-01T14:41:18.000Z</time>
      </trkpt>
      <trkpt lat="44.10262" lon="5.79226">
        <ele>1339</ele>
        <time>2000-01-01T14:41:28.000Z</time>
      </trkpt>
      <trkpt lat="44.10236" lon="5.79233">
        <ele>1336</ele>
        <time>2000-01-01T14:41:38.000Z</time>
      </trkpt>
      <trkpt lat="44.10195" lon="5.79242">
        <ele>1331</ele>
        <time>2000-01-01T14:41:48.000Z</time>
      </trkpt>
      <trkpt lat="44.10158" lon="5.79251">
        <ele>1324</ele>
        <time>2000-01-01T14:41:58.000Z</time>
      </trkpt>
      <trkpt lat="44.10122" lon="5.7926">
        <ele>1323</ele>
        <time>2000-01-01T14:42:08.000Z</time>
      </trkpt>
      <trkpt lat="44.10085" lon="5.79269">
        <ele>1319</ele>
        <time>2000-01-01T14:42:18.000Z</time>
      </trkpt>
      <trkpt lat="44.10038" lon="5.7928">
        <ele>1315</ele>
        <time>2000-01-01T14:42:28.000Z</time>
      </trkpt>
      <trkpt lat="44.10001" lon="5.79295">
        <ele>1306</ele>
        <time>2000-01-01T14:42:38.000Z</time>
      </trkpt>
      <trkpt lat="44.09964" lon="5.7931">
        <ele>1295</ele>
        <time>2000-01-01T14:42:48.000Z</time>
      </trkpt>
      <trkpt lat="44.09927" lon="5.79325">
        <ele>1289</ele>
        <time>2000-01-01T14:42:58.000Z</time>
      </trkpt>
      <trkpt lat="44.09898" lon="5.79337">
        <ele>1282</ele>
        <time>2000-01-01T14:43:08.000Z</time>
      </trkpt>
      <trkpt lat="44.09853" lon="5.79355">
        <ele>1272</ele>
        <time>2000-01-01T14:43:18.000Z</time>
      </trkpt>
      <trkpt lat="44.09823" lon="5.79351">
        <ele>1265</ele>
        <time>2000-01-01T14:43:28.000Z</time>
      </trkpt>
      <trkpt lat="44.09776" lon="5.79346">
        <ele>1253</ele>
        <time>2000-01-01T14:43:38.000Z</time>
      </trkpt>
      <trkpt lat="44.09748" lon="5.79337">
        <ele>1247</ele>
        <time>2000-01-01T14:43:48.000Z</time>
      </trkpt>
      <trkpt lat="44.09708" lon="5.79324">
        <ele>1242</ele>
        <time>2000-01-01T14:43:58.000Z</time>
      </trkpt>
      <trkpt lat="44.09683" lon="5.79315">
        <ele>1240</ele>
        <time>2000-01-01T14:44:08.000Z</time>
      </trkpt>
      <trkpt lat="44.09653" lon="5.79306">
        <ele>1235</ele>
        <time>2000-01-01T14:44:18.000Z</time>
      </trkpt>
      <trkpt lat="44.09633" lon="5.79278">
        <ele>1227</ele>
        <time>2000-01-01T14:44:28.000Z</time>
      </trkpt>
      <trkpt lat="44.09605" lon="5.79239">
        <ele>1226</ele>
        <time>2000-01-01T14:44:38.000Z</time>
      </trkpt>
      <trkpt lat="44.09574" lon="5.79194">
        <ele>1225</ele>
        <time>2000-01-01T14:44:48.000Z</time>
      </trkpt>
      <trkpt lat="44.09541" lon="5.79227">
        <ele>1218</ele>
        <time>2000-01-01T14:44:58.000Z</time>
      </trkpt>
      <trkpt lat="44.09508" lon="5.7926">
        <ele>1214</ele>
        <time>2000-01-01T14:45:08.000Z</time>
      </trkpt>
      <trkpt lat="44.09475" lon="5.79292">
        <ele>1212</ele>
        <time>2000-01-01T14:45:18.000Z</time>
      </trkpt>
      <trkpt lat="44.09442" lon="5.79325">
        <ele>1207</ele>
        <time>2000-01-01T14:45:28.000Z</time>
      </trkpt>
      <trkpt lat="44.09409" lon="5.79358">
        <ele>1203</ele>
        <time>2000-01-01T14:45:38.000Z</time>
      </trkpt>
      <trkpt lat="44.09371" lon="5.79396">
        <ele>1197</ele>
        <time>2000-01-01T14:45:48.000Z</time>
      </trkpt>
      <trkpt lat="44.09341" lon="5.79409">
        <ele>1189</ele>
        <time>2000-01-01T14:45:58.000Z</time>
      </trkpt>
      <trkpt lat="44.09315" lon="5.79421">
        <ele>1182</ele>
        <time>2000-01-01T14:46:08.000Z</time>
      </trkpt>
      <trkpt lat="44.0928" lon="5.79438">
        <ele>1178</ele>
        <time>2000-01-01T14:46:18.000Z</time>
      </trkpt>
      <trkpt lat="44.09243" lon="5.79454">
        <ele>1174</ele>
        <time>2000-01-01T14:46:28.000Z</time>
      </trkpt>
      <trkpt lat="44.09211" lon="5.79469">
        <ele>1171</ele>
        <time>2000-01-01T14:46:38.000Z</time>
      </trkpt>
      <trkpt lat="44.0918" lon="5.79483">
        <ele>1167</ele>
        <time>2000-01-01T14:46:48.000Z</time>
      </trkpt>
      <trkpt lat="44.09141" lon="5.79501">
        <ele>1164</ele>
        <time>2000-01-01T14:46:58.000Z</time>
      </trkpt>
      <trkpt lat="44.0911" lon="5.79508">
        <ele>1159</ele>
        <time>2000-01-01T14:47:08.000Z</time>
      </trkpt>
      <trkpt lat="44.09083" lon="5.79513">
        <ele>1159</ele>
        <time>2000-01-01T14:47:18.000Z</time>
      </trkpt>
      <trkpt lat="44.09049" lon="5.7952">
        <ele>1159</ele>
        <time>2000-01-01T14:47:28.000Z</time>
      </trkpt>
      <trkpt lat="44.09024" lon="5.79542">
        <ele>1151</ele>
        <time>2000-01-01T14:47:38.000Z</time>
      </trkpt>
      <trkpt lat="44.08984" lon="5.79576">
        <ele>1149</ele>
        <time>2000-01-01T14:47:48.000Z</time>
      </trkpt>
      <trkpt lat="44.08959" lon="5.79608">
        <ele>1148</ele>
        <time>2000-01-01T14:47:58.000Z</time>
      </trkpt>
      <trkpt lat="44.08933" lon="5.79641">
        <ele>1143</ele>
        <time>2000-01-01T14:48:08.000Z</time>
      </trkpt>
      <trkpt lat="44.08915" lon="5.79664">
        <ele>1143</ele>
        <time>2000-01-01T14:48:18.000Z</time>
      </trkpt>
      <trkpt lat="44.08896" lon="5.79688">
        <ele>1142</ele>
        <time>2000-01-01T14:48:28.000Z</time>
      </trkpt>
      <trkpt lat="44.08876" lon="5.79724">
        <ele>1134</ele>
        <time>2000-01-01T14:48:38.000Z</time>
      </trkpt>
      <trkpt lat="44.08856" lon="5.7976">
        <ele>1131</ele>
        <time>2000-01-01T14:48:48.000Z</time>
      </trkpt>
      <trkpt lat="44.08834" lon="5.79799">
        <ele>1126</ele>
        <time>2000-01-01T14:48:58.000Z</time>
      </trkpt>
      <trkpt lat="44.08809" lon="5.79833">
        <ele>1121</ele>
        <time>2000-01-01T14:49:08.000Z</time>
      </trkpt>
      <trkpt lat="44.08784" lon="5.79866">
        <ele>1119</ele>
        <time>2000-01-01T14:49:18.000Z</time>
      </trkpt>
      <trkpt lat="44.08766" lon="5.79891">
        <ele>1116</ele>
        <time>2000-01-01T14:49:28.000Z</time>
      </trkpt>
      <trkpt lat="44.08745" lon="5.79919">
        <ele>1113</ele>
        <time>2000-01-01T14:49:38.000Z</time>
      </trkpt>
      <trkpt lat="44.0873" lon="5.7991">
        <ele>1113.6</ele>
        <time>2000-01-01T14:49:48.000Z</time>
      </trkpt>
      <trkpt lat="44.08727" lon="5.7991">
        <ele>1113.4</ele>
        <time>2000-01-01T14:49:58.000Z</time>
      </trkpt>
      <trkpt lat="44.08724" lon="5.79911">
        <ele>1114</ele>
        <time>2000-01-01T14:50:08.000Z</time>
      </trkpt>
      <trkpt lat="44.08721" lon="5.79911">
        <ele>1113</ele>
        <time>2000-01-01T14:50:18.000Z</time>
      </trkpt>
      <trkpt lat="44.08718" lon="5.7991">
        <ele>1113.5</ele>
        <time>2000-01-01T14:50:28.000Z</time>
      </trkpt>
      <trkpt lat="44.08708" lon="5.79918">
        <ele>1112.9</ele>
        <time>2000-01-01T14:50:38.000Z</time>
      </trkpt>
      <trkpt lat="44.08705" lon="5.79919">
        <ele>1115</ele>
        <time>2000-01-01T14:50:48.000Z</time>
      </trkpt>
      <trkpt lat="44.08701" lon="5.79923">
        <ele>1112.7</ele>
        <time>2000-01-01T14:50:58.000Z</time>
      </trkpt>
      <trkpt lat="44.08696" lon="5.79925">
        <ele>1112.5</ele>
        <time>2000-01-01T14:51:08.000Z</time>
      </trkpt>
      <trkpt lat="44.08689" lon="5.79929">
        <ele>1112.8</ele>
        <time>2000-01-01T14:51:18.000Z</time>
      </trkpt>
      <trkpt lat="44.0868" lon="5.79932">
        <ele>1115</ele>
        <time>2000-01-01T14:51:28.000Z</time>
      </trkpt>
      <trkpt lat="44.08672" lon="5.79933">
        <ele>1114.7</ele>
        <time>2000-01-01T14:51:38.000Z</time>
      </trkpt>
      <trkpt lat="44.08669" lon="5.79935">
        <ele>1114.4</ele>
        <time>2000-01-01T14:51:48.000Z</time>
      </trkpt>
      <trkpt lat="44.08667" lon="5.79935">
        <ele>1114.7</ele>
        <time>2000-01-01T14:51:58.000Z</time>
      </trkpt>
      <trkpt lat="44.08664" lon="5.79937">
        <ele>1114.8</ele>
        <time>2000-01-01T14:52:08.000Z</time>
      </trkpt>
      <trkpt lat="44.08655" lon="5.7994">
        <ele>1122</ele>
        <time>2000-01-01T14:52:18.000Z</time>
      </trkpt>
      <trkpt lat="44.08646" lon="5.79945">
        <ele>1117.5</ele>
        <time>2000-01-01T14:52:28.000Z</time>
      </trkpt>
      <trkpt lat="44.08643" lon="5.79945">
        <ele>1118.5</ele>
        <time>2000-01-01T14:52:38.000Z</time>
      </trkpt>
      <trkpt lat="44.08638" lon="5.79947">
        <ele>1119.2</ele>
        <time>2000-01-01T14:52:48.000Z</time>
      </trkpt>
      <trkpt lat="44.08635" lon="5.79947">
        <ele>1124</ele>
        <time>2000-01-01T14:52:58.000Z</time>
      </trkpt>
      <trkpt lat="44.0863" lon="5.79949">
        <ele>1120.8</ele>
        <time>2000-01-01T14:53:08.000Z</time>
      </trkpt>
      <trkpt lat="44.08628" lon="5.79951">
        <ele>1120.7</ele>
        <time>2000-01-01T14:53:18.000Z</time>
      </trkpt>
      <trkpt lat="44.08625" lon="5.79952">
        <ele>1121.3</ele>
        <time>2000-01-01T14:53:28.000Z</time>
      </trkpt>
      <trkpt lat="44.08623" lon="5.79954">
        <ele>1121.2</ele>
        <time>2000-01-01T14:53:38.000Z</time>
      </trkpt>
      <trkpt lat="44.08617" lon="5.79955">
        <ele>1122.9</ele>
        <time>2000-01-01T14:53:48.000Z</time>
      </trkpt>
      <trkpt lat="44.08613" lon="5.79959">
        <ele>1123</ele>
        <time>2000-01-01T14:53:58.000Z</time>
      </trkpt>
      <trkpt lat="44.0861" lon="5.79961">
        <ele>1123.3</ele>
        <time>2000-01-01T14:54:08.000Z</time>
      </trkpt>
      <trkpt lat="44.08603" lon="5.79962">
        <ele>1123.3</ele>
        <time>2000-01-01T14:54:18.000Z</time>
      </trkpt>
      <trkpt lat="44.08595" lon="5.7996">
        <ele>1124</ele>
        <time>2000-01-01T14:54:28.000Z</time>
      </trkpt>
      <trkpt lat="44.08576" lon="5.79951">
        <ele>1123</ele>
        <time>2000-01-01T14:54:38.000Z</time>
      </trkpt>
      <trkpt lat="44.0857" lon="5.79947">
        <ele>1123.4</ele>
        <time>2000-01-01T14:54:48.000Z</time>
      </trkpt>
      <trkpt lat="44.08565" lon="5.79941">
        <ele>1123.1</ele>
        <time>2000-01-01T14:54:58.000Z</time>
      </trkpt>
      <trkpt lat="44.08557" lon="5.79935">
        <ele>1121</ele>
        <time>2000-01-01T14:55:08.000Z</time>
      </trkpt>
      <trkpt lat="44.08546" lon="5.79928">
        <ele>1121.1</ele>
        <time>2000-01-01T14:55:18.000Z</time>
      </trkpt>
      <trkpt lat="44.08536" lon="5.79918">
        <ele>1120</ele>
        <time>2000-01-01T14:55:28.000Z</time>
      </trkpt>
      <trkpt lat="44.0853" lon="5.79914">
        <ele>1119.8</ele>
        <time>2000-01-01T14:55:38.000Z</time>
      </trkpt>
      <trkpt lat="44.08525" lon="5.79912">
        <ele>1119.3</ele>
        <time>2000-01-01T14:55:48.000Z</time>
      </trkpt>
      <trkpt lat="44.08516" lon="5.79905">
        <ele>1118</ele>
        <time>2000-01-01T14:55:58.000Z</time>
      </trkpt>
      <trkpt lat="44.08509" lon="5.79902">
        <ele>1118.1</ele>
        <time>2000-01-01T14:56:08.000Z</time>
      </trkpt>
      <trkpt lat="44.08501" lon="5.799">
        <ele>1117</ele>
        <time>2000-01-01T14:56:18.000Z</time>
      </trkpt>
      <trkpt lat="44.08496" lon="5.79897">
        <ele>1116</ele>
        <time>2000-01-01T14:56:28.000Z</time>
      </trkpt>
      <trkpt lat="44.08481" lon="5.79886">
        <ele>1115.6</ele>
        <time>2000-01-01T14:56:38.000Z</time>
      </trkpt>
      <trkpt lat="44.0847" lon="5.79881">
        <ele>1113</ele>
        <time>2000-01-01T14:56:48.000Z</time>
      </trkpt>
      <trkpt lat="44.08463" lon="5.79877">
        <ele>1113.8</ele>
        <time>2000-01-01T14:56:58.000Z</time>
      </trkpt>
      <trkpt lat="44.08461" lon="5.79875">
        <ele>1113.7</ele>
        <time>2000-01-01T14:57:08.000Z</time>
      </trkpt>
      <trkpt lat="44.0846" lon="5.79872">
        <ele>1113.8</ele>
        <time>2000-01-01T14:57:18.000Z</time>
      </trkpt>
      <trkpt lat="44.08447" lon="5.79868">
        <ele>1110</ele>
        <time>2000-01-01T14:57:28.000Z</time>
      </trkpt>
      <trkpt lat="44.08443" lon="5.79866">
        <ele>1111.3</ele>
        <time>2000-01-01T14:57:38.000Z</time>
      </trkpt>
      <trkpt lat="44.08434" lon="5.79864">
        <ele>1109.6</ele>
        <time>2000-01-01T14:57:48.000Z</time>
      </trkpt>
      <trkpt lat="44.0843" lon="5.79864">
        <ele>1108.7</ele>
        <time>2000-01-01T14:57:58.000Z</time>
      </trkpt>
      <trkpt lat="44.08421" lon="5.79866">
        <ele>1106</ele>
        <time>2000-01-01T14:58:08.000Z</time>
      </trkpt>
      <trkpt lat="44.08406" lon="5.79871">
        <ele>1104.5</ele>
        <time>2000-01-01T14:58:18.000Z</time>
      </trkpt>
      <trkpt lat="44.08398" lon="5.79877">
        <ele>1103</ele>
        <time>2000-01-01T14:58:28.000Z</time>
      </trkpt>
      <trkpt lat="44.08397" lon="5.7988">
        <ele>1102.5</ele>
        <time>2000-01-01T14:58:38.000Z</time>
      </trkpt>
      <trkpt lat="44.08387" lon="5.79892">
        <ele>1099.7</ele>
        <time>2000-01-01T14:58:48.000Z</time>
      </trkpt>
      <trkpt lat="44.08376" lon="5.79899">
        <ele>1098</ele>
        <time>2000-01-01T14:58:58.000Z</time>
      </trkpt>
      <trkpt lat="44.08372" lon="5.79903">
        <ele>1097.8</ele>
        <time>2000-01-01T14:59:08.000Z</time>
      </trkpt>
      <trkpt lat="44.08369" lon="5.79909">
        <ele>1096.8</ele>
        <time>2000-01-01T14:59:18.000Z</time>
      </trkpt>
      <trkpt lat="44.08362" lon="5.7992">
        <ele>1095</ele>
        <time>2000-01-01T14:59:28.000Z</time>
      </trkpt>
      <trkpt lat="44.0836" lon="5.79928">
        <ele>1093.7</ele>
        <time>2000-01-01T14:59:38.000Z</time>
      </trkpt>
      <trkpt lat="44.0836" lon="5.79948">
        <ele>1091</ele>
        <time>2000-01-01T14:59:48.000Z</time>
      </trkpt>
      <trkpt lat="44.08362" lon="5.79955">
        <ele>1091.4</ele>
        <time>2000-01-01T14:59:58.000Z</time>
      </trkpt>
      <trkpt lat="44.08362" lon="5.79967">
        <ele>1090.5</ele>
        <time>2000-01-01T15:00:08.000Z</time>
      </trkpt>
      <trkpt lat="44.08358" lon="5.79978">
        <ele>1089</ele>
        <time>2000-01-01T15:00:18.000Z</time>
      </trkpt>
      <trkpt lat="44.08353" lon="5.79982">
        <ele>1089.7</ele>
        <time>2000-01-01T15:00:28.000Z</time>
      </trkpt>
      <trkpt lat="44.08346" lon="5.79984">
        <ele>1089</ele>
        <time>2000-01-01T15:00:38.000Z</time>
      </trkpt>
      <trkpt lat="44.08341" lon="5.79987">
        <ele>1088.5</ele>
        <time>2000-01-01T15:00:48.000Z</time>
      </trkpt>
      <trkpt lat="44.08337" lon="5.79993">
        <ele>1087</ele>
        <time>2000-01-01T15:00:58.000Z</time>
      </trkpt>
      <trkpt lat="44.08333" lon="5.79996">
        <ele>1087.8</ele>
        <time>2000-01-01T15:01:08.000Z</time>
      </trkpt>
      <trkpt lat="44.08309" lon="5.80008">
        <ele>1083</ele>
        <time>2000-01-01T15:01:18.000Z</time>
      </trkpt>
      <trkpt lat="44.08299" lon="5.80014">
        <ele>1085.1</ele>
        <time>2000-01-01T15:01:28.000Z</time>
      </trkpt>
      <trkpt lat="44.08294" lon="5.80015">
        <ele>1084.4</ele>
        <time>2000-01-01T15:01:38.000Z</time>
      </trkpt>
      <trkpt lat="44.08287" lon="5.80012">
        <ele>1082</ele>
        <time>2000-01-01T15:01:48.000Z</time>
      </trkpt>
      <trkpt lat="44.08281" lon="5.80011">
        <ele>1082.3</ele>
        <time>2000-01-01T15:01:58.000Z</time>
      </trkpt>
      <trkpt lat="44.08269" lon="5.79999">
        <ele>1077</ele>
        <time>2000-01-01T15:02:08.000Z</time>
      </trkpt>
      <trkpt lat="44.08265" lon="5.79993">
        <ele>1078.8</ele>
        <time>2000-01-01T15:02:18.000Z</time>
      </trkpt>
      <trkpt lat="44.0826" lon="5.7999">
        <ele>1078</ele>
        <time>2000-01-01T15:02:28.000Z</time>
      </trkpt>
      <trkpt lat="44.08256" lon="5.79986">
        <ele>1077.3</ele>
        <time>2000-01-01T15:02:38.000Z</time>
      </trkpt>
      <trkpt lat="44.08244" lon="5.79982">
        <ele>1072</ele>
        <time>2000-01-01T15:02:48.000Z</time>
      </trkpt>
      <trkpt lat="44.08238" lon="5.79981">
        <ele>1074.7</ele>
        <time>2000-01-01T15:02:58.000Z</time>
      </trkpt>
      <trkpt lat="44.08234" lon="5.79979">
        <ele>1074.1</ele>
        <time>2000-01-01T15:03:08.000Z</time>
      </trkpt>
      <trkpt lat="44.08217" lon="5.79979">
        <ele>1071</ele>
        <time>2000-01-01T15:03:18.000Z</time>
      </trkpt>
      <trkpt lat="44.08211" lon="5.79976">
        <ele>1071</ele>
        <time>2000-01-01T15:03:28.000Z</time>
      </trkpt>
      <trkpt lat="44.08207" lon="5.79977">
        <ele>1070.6</ele>
        <time>2000-01-01T15:03:38.000Z</time>
      </trkpt>
      <trkpt lat="44.08203" lon="5.79977">
        <ele>1070.1</ele>
        <time>2000-01-01T15:03:48.000Z</time>
      </trkpt>
      <trkpt lat="44.08199" lon="5.79976">
        <ele>1069.7</ele>
        <time>2000-01-01T15:03:58.000Z</time>
      </trkpt>
      <trkpt lat="44.08195" lon="5.79974">
        <ele>1069</ele>
        <time>2000-01-01T15:04:08.000Z</time>
      </trkpt>
      <trkpt lat="44.08191" lon="5.79971">
        <ele>1068.8</ele>
        <time>2000-01-01T15:04:18.000Z</time>
      </trkpt>
      <trkpt lat="44.08186" lon="5.79969">
        <ele>1068.7</ele>
        <time>2000-01-01T15:04:28.000Z</time>
      </trkpt>
      <trkpt lat="44.08181" lon="5.79969">
        <ele>1068.1</ele>
        <time>2000-01-01T15:04:38.000Z</time>
      </trkpt>
      <trkpt lat="44.08175" lon="5.79968">
        <ele>1069</ele>
        <time>2000-01-01T15:04:48.000Z</time>
      </trkpt>
      <trkpt lat="44.08171" lon="5.79966">
        <ele>1067.6</ele>
        <time>2000-01-01T15:04:58.000Z</time>
      </trkpt>
      <trkpt lat="44.08161" lon="5.79966">
        <ele>1066.5</ele>
        <time>2000-01-01T15:05:08.000Z</time>
      </trkpt>
      <trkpt lat="44.08148" lon="5.79964">
        <ele>1068</ele>
        <time>2000-01-01T15:05:18.000Z</time>
      </trkpt>
      <trkpt lat="44.08138" lon="5.79957">
        <ele>1065.7</ele>
        <time>2000-01-01T15:05:28.000Z</time>
      </trkpt>
      <trkpt lat="44.08126" lon="5.79946">
        <ele>1068</ele>
        <time>2000-01-01T15:05:38.000Z</time>
      </trkpt>
      <trkpt lat="44.08122" lon="5.79944">
        <ele>1066.9</ele>
        <time>2000-01-01T15:05:48.000Z</time>
      </trkpt>
      <trkpt lat="44.08118" lon="5.7994">
        <ele>1067.3</ele>
        <time>2000-01-01T15:05:58.000Z</time>
      </trkpt>
      <trkpt lat="44.08116" lon="5.79936">
        <ele>1067.9</ele>
        <time>2000-01-01T15:06:08.000Z</time>
      </trkpt>
      <trkpt lat="44.08108" lon="5.79928">
        <ele>1068</ele>
        <time>2000-01-01T15:06:18.000Z</time>
      </trkpt>
      <trkpt lat="44.08103" lon="5.79926">
        <ele>1068.6</ele>
        <time>2000-01-01T15:06:28.000Z</time>
      </trkpt>
      <trkpt lat="44.08097" lon="5.79922">
        <ele>1068.9</ele>
        <time>2000-01-01T15:06:38.000Z</time>
      </trkpt>
      <trkpt lat="44.08085" lon="5.79911">
        <ele>1070</ele>
        <time>2000-01-01T15:06:48.000Z</time>
      </trkpt>
      <trkpt lat="44.08077" lon="5.79905">
        <ele>1070.5</ele>
        <time>2000-01-01T15:06:58.000Z</time>
      </trkpt>
      <trkpt lat="44.08072" lon="5.79902">
        <ele>1070.6</ele>
        <time>2000-01-01T15:07:08.000Z</time>
      </trkpt>
      <trkpt lat="44.08068" lon="5.79901">
        <ele>1070.5</ele>
        <time>2000-01-01T15:07:18.000Z</time>
      </trkpt>
      <trkpt lat="44.08066" lon="5.79898">
        <ele>1071</ele>
        <time>2000-01-01T15:07:28.000Z</time>
      </trkpt>
      <trkpt lat="44.0806" lon="5.79894">
        <ele>1071.2</ele>
        <time>2000-01-01T15:07:38.000Z</time>
      </trkpt>
      <trkpt lat="44.08051" lon="5.7989">
        <ele>1071.4</ele>
        <time>2000-01-01T15:07:48.000Z</time>
      </trkpt>
      <trkpt lat="44.08046" lon="5.79886">
        <ele>1072</ele>
        <time>2000-01-01T15:07:58.000Z</time>
      </trkpt>
      <trkpt lat="44.0804" lon="5.7988">
        <ele>1072.5</ele>
        <time>2000-01-01T15:08:08.000Z</time>
      </trkpt>
      <trkpt lat="44.0803" lon="5.79876">
        <ele>1072.5</ele>
        <time>2000-01-01T15:08:18.000Z</time>
      </trkpt>
      <trkpt lat="44.08008" lon="5.79872">
        <ele>1072</ele>
        <time>2000-01-01T15:08:28.000Z</time>
      </trkpt>
      <trkpt lat="44.07997" lon="5.79872">
        <ele>1071.5</ele>
        <time>2000-01-01T15:08:38.000Z</time>
      </trkpt>
      <trkpt lat="44.07984" lon="5.79869">
        <ele>1072</ele>
        <time>2000-01-01T15:08:48.000Z</time>
      </trkpt>
      <trkpt lat="44.07979" lon="5.79866">
        <ele>1072.2</ele>
        <time>2000-01-01T15:08:58.000Z</time>
      </trkpt>
      <trkpt lat="44.07932" lon="5.79869">
        <ele>1072</ele>
        <time>2000-01-01T15:09:08.000Z</time>
      </trkpt>
      <trkpt lat="44.07926" lon="5.7987">
        <ele>1071</ele>
        <time>2000-01-01T15:09:18.000Z</time>
      </trkpt>
      <trkpt lat="44.07914" lon="5.79874">
        <ele>1070.3</ele>
        <time>2000-01-01T15:09:28.000Z</time>
      </trkpt>
      <trkpt lat="44.07909" lon="5.79874">
        <ele>1072</ele>
        <time>2000-01-01T15:09:38.000Z</time>
      </trkpt>
      <trkpt lat="44.07904" lon="5.79875">
        <ele>1070.5</ele>
        <time>2000-01-01T15:09:48.000Z</time>
      </trkpt>
      <trkpt lat="44.07895" lon="5.79874">
        <ele>1071</ele>
        <time>2000-01-01T15:09:58.000Z</time>
      </trkpt>
      <trkpt lat="44.07892" lon="5.79873">
        <ele>1071.3</ele>
        <time>2000-01-01T15:10:08.000Z</time>
      </trkpt>
      <trkpt lat="44.0788" lon="5.79873">
        <ele>1073</ele>
        <time>2000-01-01T15:10:18.000Z</time>
      </trkpt>
      <trkpt lat="44.07877" lon="5.79874">
        <ele>1071.6</ele>
        <time>2000-01-01T15:10:28.000Z</time>
      </trkpt>
      <trkpt lat="44.07873" lon="5.79874">
        <ele>1071.8</ele>
        <time>2000-01-01T15:10:38.000Z</time>
      </trkpt>
      <trkpt lat="44.07865" lon="5.79872">
        <ele>1072.5</ele>
        <time>2000-01-01T15:10:48.000Z</time>
      </trkpt>
      <trkpt lat="44.07856" lon="5.79875">
        <ele>1073</ele>
        <time>2000-01-01T15:10:58.000Z</time>
      </trkpt>
      <trkpt lat="44.07848" lon="5.79873">
        <ele>1072.8</ele>
        <time>2000-01-01T15:11:08.000Z</time>
      </trkpt>
      <trkpt lat="44.07834" lon="5.79876">
        <ele>1073</ele>
        <time>2000-01-01T15:11:18.000Z</time>
      </trkpt>
      <trkpt lat="44.07829" lon="5.79876">
        <ele>1072.7</ele>
        <time>2000-01-01T15:11:28.000Z</time>
      </trkpt>
      <trkpt lat="44.07815" lon="5.7987">
        <ele>1073</ele>
        <time>2000-01-01T15:11:38.000Z</time>
      </trkpt>
      <trkpt lat="44.07811" lon="5.79866">
        <ele>1073</ele>
        <time>2000-01-01T15:11:48.000Z</time>
      </trkpt>
      <trkpt lat="44.07803" lon="5.79856">
        <ele>1072.2</ele>
        <time>2000-01-01T15:11:58.000Z</time>
      </trkpt>
      <trkpt lat="44.07801" lon="5.7985">
        <ele>1070</ele>
        <time>2000-01-01T15:12:08.000Z</time>
      </trkpt>
      <trkpt lat="44.07802" lon="5.79842">
        <ele>1071</ele>
        <time>2000-01-01T15:12:18.000Z</time>
      </trkpt>
      <trkpt lat="44.07804" lon="5.79835">
        <ele>1070.8</ele>
        <time>2000-01-01T15:12:28.000Z</time>
      </trkpt>
      <trkpt lat="44.07807" lon="5.7983">
        <ele>1070.9</ele>
        <time>2000-01-01T15:12:38.000Z</time>
      </trkpt>
      <trkpt lat="44.07808" lon="5.79824">
        <ele>1068</ele>
        <time>2000-01-01T15:12:48.000Z</time>
      </trkpt>
      <trkpt lat="44.07816" lon="5.79802">
        <ele>1069.5</ele>
        <time>2000-01-01T15:12:58.000Z</time>
      </trkpt>
      <trkpt lat="44.07814" lon="5.79798">
        <ele>1067</ele>
        <time>2000-01-01T15:13:08.000Z</time>
      </trkpt>
      <trkpt lat="44.07809" lon="5.79793">
        <ele>1067.3</ele>
        <time>2000-01-01T15:13:18.000Z</time>
      </trkpt>
      <trkpt lat="44.07807" lon="5.79787">
        <ele>1066.3</ele>
        <time>2000-01-01T15:13:28.000Z</time>
      </trkpt>
      <trkpt lat="44.07805" lon="5.79785">
        <ele>1065.7</ele>
        <time>2000-01-01T15:13:38.000Z</time>
      </trkpt>
      <trkpt lat="44.07801" lon="5.79783">
        <ele>1064.6</ele>
        <time>2000-01-01T15:13:48.000Z</time>
      </trkpt>
      <trkpt lat="44.07798" lon="5.79784">
        <ele>1061</ele>
        <time>2000-01-01T15:13:58.000Z</time>
      </trkpt>
      <trkpt lat="44.07796" lon="5.79783">
        <ele>1063.6</ele>
        <time>2000-01-01T15:14:08.000Z</time>
      </trkpt>
      <trkpt lat="44.07793" lon="5.79777">
        <ele>1062.2</ele>
        <time>2000-01-01T15:14:18.000Z</time>
      </trkpt>
      <trkpt lat="44.07793" lon="5.79754">
        <ele>1057</ele>
        <time>2000-01-01T15:14:28.000Z</time>
      </trkpt>
      <trkpt lat="44.07794" lon="5.79747">
        <ele>1058</ele>
        <time>2000-01-01T15:14:38.000Z</time>
      </trkpt>
      <trkpt lat="44.07794" lon="5.79739">
        <ele>1056.8</ele>
        <time>2000-01-01T15:14:48.000Z</time>
      </trkpt>
      <trkpt lat="44.07796" lon="5.79725">
        <ele>1052</ele>
        <time>2000-01-01T15:14:58.000Z</time>
      </trkpt>
      <trkpt lat="44.07796" lon="5.79717">
        <ele>1053.7</ele>
        <time>2000-01-01T15:15:08.000Z</time>
      </trkpt>
      <trkpt lat="44.07799" lon="5.79709">
        <ele>1053</ele>
        <time>2000-01-01T15:15:18.000Z</time>
      </trkpt>
      <trkpt lat="44.07798" lon="5.79704">
        <ele>1051.8</ele>
        <time>2000-01-01T15:15:28.000Z</time>
      </trkpt>
      <trkpt lat="44.07795" lon="5.79702">
        <ele>1050.7</ele>
        <time>2000-01-01T15:15:38.000Z</time>
      </trkpt>
      <trkpt lat="44.07789" lon="5.79703">
        <ele>1046</ele>
        <time>2000-01-01T15:15:48.000Z</time>
      </trkpt>
      <trkpt lat="44.07771" lon="5.79702">
        <ele>1044.4</ele>
        <time>2000-01-01T15:15:58.000Z</time>
      </trkpt>
      <trkpt lat="44.07769" lon="5.79701">
        <ele>1040</ele>
        <time>2000-01-01T15:16:08.000Z</time>
      </trkpt>
      <trkpt lat="44.07766" lon="5.79696">
        <ele>1041.9</ele>
        <time>2000-01-01T15:16:18.000Z</time>
      </trkpt>
      <trkpt lat="44.07767" lon="5.7969">
        <ele>1041.1</ele>
        <time>2000-01-01T15:16:28.000Z</time>
      </trkpt>
      <trkpt lat="44.07767" lon="5.79684">
        <ele>1040</ele>
        <time>2000-01-01T15:16:38.000Z</time>
      </trkpt>
      <trkpt lat="44.07769" lon="5.79672">
        <ele>1035</ele>
        <time>2000-01-01T15:16:48.000Z</time>
      </trkpt>
      <trkpt lat="44.07768" lon="5.79669">
        <ele>1037.6</ele>
        <time>2000-01-01T15:16:58.000Z</time>
      </trkpt>
      <trkpt lat="44.07768" lon="5.79667">
        <ele>1037.2</ele>
        <time>2000-01-01T15:17:08.000Z</time>
      </trkpt>
      <trkpt lat="44.07765" lon="5.79664">
        <ele>1035.8</ele>
        <time>2000-01-01T15:17:18.000Z</time>
      </trkpt>
      <trkpt lat="44.07762" lon="5.79663">
        <ele>1034.8</ele>
        <time>2000-01-01T15:17:28.000Z</time>
      </trkpt>
      <trkpt lat="44.07759" lon="5.79659">
        <ele>1033.2</ele>
        <time>2000-01-01T15:17:38.000Z</time>
      </trkpt>
      <trkpt lat="44.07758" lon="5.79653">
        <ele>1031.8</ele>
        <time>2000-01-01T15:17:48.000Z</time>
      </trkpt>
      <trkpt lat="44.07756" lon="5.79647">
        <ele>1027</ele>
        <time>2000-01-01T15:17:58.000Z</time>
      </trkpt>
      <trkpt lat="44.07756" lon="5.79641">
        <ele>1029.1</ele>
        <time>2000-01-01T15:18:08.000Z</time>
      </trkpt>
      <trkpt lat="44.07755" lon="5.79634">
        <ele>1027.7</ele>
        <time>2000-01-01T15:18:18.000Z</time>
      </trkpt>
      <trkpt lat="44.07759" lon="5.79603">
        <ele>1022</ele>
        <time>2000-01-01T15:18:28.000Z</time>
      </trkpt>
      <trkpt lat="44.07756" lon="5.79598">
        <ele>1023.3</ele>
        <time>2000-01-01T15:18:38.000Z</time>
      </trkpt>
      <trkpt lat="44.07749" lon="5.79592">
        <ele>1020.6</ele>
        <time>2000-01-01T15:18:48.000Z</time>
      </trkpt>
      <trkpt lat="44.07747" lon="5.79584">
        <ele>1019.1</ele>
        <time>2000-01-01T15:18:58.000Z</time>
      </trkpt>
      <trkpt lat="44.07747" lon="5.79578">
        <ele>1016</ele>
        <time>2000-01-01T15:19:08.000Z</time>
      </trkpt>
      <trkpt lat="44.07744" lon="5.79575">
        <ele>1017.7</ele>
        <time>2000-01-01T15:19:18.000Z</time>
      </trkpt>
      <trkpt lat="44.07742" lon="5.79577">
        <ele>1017.1</ele>
        <time>2000-01-01T15:19:28.000Z</time>
      </trkpt>
      <trkpt lat="44.07738" lon="5.79578">
        <ele>1016</ele>
        <time>2000-01-01T15:19:38.000Z</time>
      </trkpt>
      <trkpt lat="44.07734" lon="5.79581">
        <ele>1014.8</ele>
        <time>2000-01-01T15:19:48.000Z</time>
      </trkpt>
      <trkpt lat="44.07729" lon="5.79588">
        <ele>1010</ele>
        <time>2000-01-01T15:19:58.000Z</time>
      </trkpt>
      <trkpt lat="44.07728" lon="5.79591">
        <ele>1013.5</ele>
        <time>2000-01-01T15:20:08.000Z</time>
      </trkpt>
      <trkpt lat="44.07723" lon="5.79591">
        <ele>1011.8</ele>
        <time>2000-01-01T15:20:18.000Z</time>
      </trkpt>
      <trkpt lat="44.07721" lon="5.7959">
        <ele>1011.4</ele>
        <time>2000-01-01T15:20:28.000Z</time>
      </trkpt>
      <trkpt lat="44.07718" lon="5.79587">
        <ele>1011.1</ele>
        <time>2000-01-01T15:20:38.000Z</time>
      </trkpt>
      <trkpt lat="44.07716" lon="5.79581">
        <ele>1011.2</ele>
        <time>2000-01-01T15:20:48.000Z</time>
      </trkpt>
      <trkpt lat="44.0771" lon="5.79591">
        <ele>1009</ele>
        <time>2000-01-01T15:20:58.000Z</time>
      </trkpt>
      <trkpt lat="44.07706" lon="5.79593">
        <ele>1010.5</ele>
        <time>2000-01-01T15:21:08.000Z</time>
      </trkpt>
      <trkpt lat="44.07704" lon="5.79593">
        <ele>1010.3</ele>
        <time>2000-01-01T15:21:18.000Z</time>
      </trkpt>
      <trkpt lat="44.07703" lon="5.79595">
        <ele>1010.1</ele>
        <time>2000-01-01T15:21:28.000Z</time>
      </trkpt>
      <trkpt lat="44.077" lon="5.79597">
        <ele>1009.6</ele>
        <time>2000-01-01T15:21:38.000Z</time>
      </trkpt>
      <trkpt lat="44.07697" lon="5.79598">
        <ele>1009.2</ele>
        <time>2000-01-01T15:21:48.000Z</time>
      </trkpt>
      <trkpt lat="44.07693" lon="5.79601">
        <ele>1008.5</ele>
        <time>2000-01-01T15:21:58.000Z</time>
      </trkpt>
      <trkpt lat="44.07685" lon="5.79603">
        <ele>1009</ele>
        <time>2000-01-01T15:22:08.000Z</time>
      </trkpt>
      <trkpt lat="44.07678" lon="5.79603">
        <ele>1009.1</ele>
        <time>2000-01-01T15:22:18.000Z</time>
      </trkpt>
      <trkpt lat="44.07676" lon="5.79602">
        <ele>1009.4</ele>
        <time>2000-01-01T15:22:28.000Z</time>
      </trkpt>
      <trkpt lat="44.07673" lon="5.79602">
        <ele>1009.6</ele>
        <time>2000-01-01T15:22:38.000Z</time>
      </trkpt>
      <trkpt lat="44.0767" lon="5.79604">
        <ele>1009.4</ele>
        <time>2000-01-01T15:22:48.000Z</time>
      </trkpt>
      <trkpt lat="44.07665" lon="5.79606">
        <ele>1009</ele>
        <time>2000-01-01T15:22:58.000Z</time>
      </trkpt>
      <trkpt lat="44.07657" lon="5.79606">
        <ele>1010.5</ele>
        <time>2000-01-01T15:23:08.000Z</time>
      </trkpt>
      <trkpt lat="44.07654" lon="5.79607">
        <ele>1010.7</ele>
        <time>2000-01-01T15:23:18.000Z</time>
      </trkpt>
      <trkpt lat="44.07652" lon="5.7961">
        <ele>1010.4</ele>
        <time>2000-01-01T15:23:28.000Z</time>
      </trkpt>
      <trkpt lat="44.07629" lon="5.79624">
        <ele>1009</ele>
        <time>2000-01-01T15:23:38.000Z</time>
      </trkpt>
      <trkpt lat="44.07607" lon="5.79632">
        <ele>1009</ele>
        <time>2000-01-01T15:23:48.000Z</time>
      </trkpt>
      <trkpt lat="44.07603" lon="5.79633">
        <ele>1009.1</ele>
        <time>2000-01-01T15:23:58.000Z</time>
      </trkpt>
      <trkpt lat="44.07599" lon="5.79633">
        <ele>1009.4</ele>
        <time>2000-01-01T15:24:08.000Z</time>
      </trkpt>
      <trkpt lat="44.07593" lon="5.79636">
        <ele>1009</ele>
        <time>2000-01-01T15:24:18.000Z</time>
      </trkpt>
      <trkpt lat="44.07587" lon="5.79638">
        <ele>1008</ele>
        <time>2000-01-01T15:24:28.000Z</time>
      </trkpt>
      <trkpt lat="44.07571" lon="5.79649">
        <ele>1007.2</ele>
        <time>2000-01-01T15:24:38.000Z</time>
      </trkpt>
      <trkpt lat="44.07561" lon="5.79655">
        <ele>1007</ele>
        <time>2000-01-01T15:24:48.000Z</time>
      </trkpt>
      <trkpt lat="44.07557" lon="5.7966">
        <ele>1004.9</ele>
        <time>2000-01-01T15:24:58.000Z</time>
      </trkpt>
      <trkpt lat="44.07536" lon="5.79679">
        <ele>1005</ele>
        <time>2000-01-01T15:25:08.000Z</time>
      </trkpt>
      <trkpt lat="44.0753" lon="5.79681">
        <ele>1002.1</ele>
        <time>2000-01-01T15:25:18.000Z</time>
      </trkpt>
      <trkpt lat="44.07521" lon="5.79688">
        <ele>1001.4</ele>
        <time>2000-01-01T15:25:28.000Z</time>
      </trkpt>
      <trkpt lat="44.07518" lon="5.79692">
        <ele>1004</ele>
        <time>2000-01-01T15:25:38.000Z</time>
      </trkpt>
      <trkpt lat="44.07514" lon="5.79695">
        <ele>1000.3</ele>
        <time>2000-01-01T15:25:48.000Z</time>
      </trkpt>
      <trkpt lat="44.07509" lon="5.79696">
        <ele>1000.6</ele>
        <time>2000-01-01T15:25:58.000Z</time>
      </trkpt>
      <trkpt lat="44.07504" lon="5.79698">
        <ele>1000.7</ele>
        <time>2000-01-01T15:26:08.000Z</time>
      </trkpt>
      <trkpt lat="44.07498" lon="5.79698">
        <ele>1004</ele>
        <time>2000-01-01T15:26:18.000Z</time>
      </trkpt>
      <trkpt lat="44.07479" lon="5.79702">
        <ele>1001.8</ele>
        <time>2000-01-01T15:26:28.000Z</time>
      </trkpt>
      <trkpt lat="44.07468" lon="5.79708">
        <ele>1003</ele>
        <time>2000-01-01T15:26:38.000Z</time>
      </trkpt>
      <trkpt lat="44.07458" lon="5.79712">
        <ele>1000.2</ele>
        <time>2000-01-01T15:26:48.000Z</time>
      </trkpt>
      <trkpt lat="44.07448" lon="5.79714">
        <ele>1000</ele>
        <time>2000-01-01T15:26:58.000Z</time>
      </trkpt>
      <trkpt lat="44.07428" lon="5.7972">
        <ele>1000</ele>
        <time>2000-01-01T15:27:08.000Z</time>
      </trkpt>
      <trkpt lat="44.07422" lon="5.7972">
        <ele>998.5</ele>
        <time>2000-01-01T15:27:18.000Z</time>
      </trkpt>
      <trkpt lat="44.07417" lon="5.79718">
        <ele>998.9</ele>
        <time>2000-01-01T15:27:28.000Z</time>
      </trkpt>
      <trkpt lat="44.07398" lon="5.79714">
        <ele>1000</ele>
        <time>2000-01-01T15:27:38.000Z</time>
      </trkpt>
      <trkpt lat="44.0739" lon="5.79713">
        <ele>999</ele>
        <time>2000-01-01T15:27:48.000Z</time>
      </trkpt>
      <trkpt lat="44.07373" lon="5.79709">
        <ele>1000</ele>
        <time>2000-01-01T15:27:58.000Z</time>
      </trkpt>
      <trkpt lat="44.07371" lon="5.79708">
        <ele>998.5</ele>
        <time>2000-01-01T15:28:08.000Z</time>
      </trkpt>
      <trkpt lat="44.0736" lon="5.79712">
        <ele>996.7</ele>
        <time>2000-01-01T15:28:18.000Z</time>
      </trkpt>
      <trkpt lat="44.07354" lon="5.79713">
        <ele>995</ele>
        <time>2000-01-01T15:28:28.000Z</time>
      </trkpt>
      <trkpt lat="44.07349" lon="5.79713">
        <ele>994.9</ele>
        <time>2000-01-01T15:28:38.000Z</time>
      </trkpt>
      <trkpt lat="44.07334" lon="5.7971">
        <ele>994</ele>
        <time>2000-01-01T15:28:48.000Z</time>
      </trkpt>
      <trkpt lat="44.07328" lon="5.79715">
        <ele>991.5</ele>
        <time>2000-01-01T15:28:58.000Z</time>
      </trkpt>
      <trkpt lat="44.07323" lon="5.79716">
        <ele>990.5</ele>
        <time>2000-01-01T15:29:08.000Z</time>
      </trkpt>
      <trkpt lat="44.07319" lon="5.79718">
        <ele>989.6</ele>
        <time>2000-01-01T15:29:18.000Z</time>
      </trkpt>
      <trkpt lat="44.07314" lon="5.79722">
        <ele>987</ele>
        <time>2000-01-01T15:29:28.000Z</time>
      </trkpt>
      <trkpt lat="44.07312" lon="5.79727">
        <ele>987.1</ele>
        <time>2000-01-01T15:29:38.000Z</time>
      </trkpt>
      <trkpt lat="44.07306" lon="5.79729">
        <ele>985.8</ele>
        <time>2000-01-01T15:29:48.000Z</time>
      </trkpt>
      <trkpt lat="44.073" lon="5.79729">
        <ele>985</ele>
        <time>2000-01-01T15:29:58.000Z</time>
      </trkpt>
      <trkpt lat="44.07294" lon="5.79728">
        <ele>985</ele>
        <time>2000-01-01T15:30:08.000Z</time>
      </trkpt>
      <trkpt lat="44.07288" lon="5.79725">
        <ele>984</ele>
        <time>2000-01-01T15:30:18.000Z</time>
      </trkpt>
      <trkpt lat="44.07285" lon="5.79725">
        <ele>983.5</ele>
        <time>2000-01-01T15:30:28.000Z</time>
      </trkpt>
      <trkpt lat="44.07273" lon="5.7973">
        <ele>982</ele>
        <time>2000-01-01T15:30:38.000Z</time>
      </trkpt>
      <trkpt lat="44.07266" lon="5.79728">
        <ele>980.3</ele>
        <time>2000-01-01T15:30:48.000Z</time>
      </trkpt>
      <trkpt lat="44.0726" lon="5.79728">
        <ele>979.4</ele>
        <time>2000-01-01T15:30:58.000Z</time>
      </trkpt>
      <trkpt lat="44.07254" lon="5.7973">
        <ele>978.2</ele>
        <time>2000-01-01T15:31:08.000Z</time>
      </trkpt>
      <trkpt lat="44.07247" lon="5.79729">
        <ele>977</ele>
        <time>2000-01-01T15:31:18.000Z</time>
      </trkpt>
      <trkpt lat="44.07241" lon="5.79727">
        <ele>976.6</ele>
        <time>2000-01-01T15:31:28.000Z</time>
      </trkpt>
      <trkpt lat="44.07237" lon="5.79729">
        <ele>975.6</ele>
        <time>2000-01-01T15:31:38.000Z</time>
      </trkpt>
      <trkpt lat="44.07234" lon="5.79733">
        <ele>974.4</ele>
        <time>2000-01-01T15:31:48.000Z</time>
      </trkpt>
      <trkpt lat="44.0723" lon="5.79735">
        <ele>973.4</ele>
        <time>2000-01-01T15:31:58.000Z</time>
      </trkpt>
      <trkpt lat="44.07225" lon="5.79736">
        <ele>973</ele>
        <time>2000-01-01T15:32:08.000Z</time>
      </trkpt>
      <trkpt lat="44.07212" lon="5.79729">
        <ele>971.8</ele>
        <time>2000-01-01T15:32:18.000Z</time>
      </trkpt>
      <trkpt lat="44.07208" lon="5.79725">
        <ele>972</ele>
        <time>2000-01-01T15:32:28.000Z</time>
      </trkpt>
      <trkpt lat="44.07203" lon="5.79722">
        <ele>971</ele>
        <time>2000-01-01T15:32:38.000Z</time>
      </trkpt>
      <trkpt lat="44.072" lon="5.79717">
        <ele>972.4</ele>
        <time>2000-01-01T15:32:48.000Z</time>
      </trkpt>
      <trkpt lat="44.07192" lon="5.79711">
        <ele>972.4</ele>
        <time>2000-01-01T15:32:58.000Z</time>
      </trkpt>
      <trkpt lat="44.07187" lon="5.79709">
        <ele>972.2</ele>
        <time>2000-01-01T15:33:08.000Z</time>
      </trkpt>
      <trkpt lat="44.07169" lon="5.79704">
        <ele>971</ele>
        <time>2000-01-01T15:33:18.000Z</time>
      </trkpt>
      <trkpt lat="44.07157" lon="5.79697">
        <ele>970.9</ele>
        <time>2000-01-01T15:33:28.000Z</time>
      </trkpt>
      <trkpt lat="44.07151" lon="5.79697">
        <ele>969.8</ele>
        <time>2000-01-01T15:33:38.000Z</time>
      </trkpt>
      <trkpt lat="44.07145" lon="5.79696">
        <ele>969</ele>
        <time>2000-01-01T15:33:48.000Z</time>
      </trkpt>
      <trkpt lat="44.07139" lon="5.79697">
        <ele>967.7</ele>
        <time>2000-01-01T15:33:58.000Z</time>
      </trkpt>
      <trkpt lat="44.07127" lon="5.79691">
        <ele>966.7</ele>
        <time>2000-01-01T15:34:08.000Z</time>
      </trkpt>
      <trkpt lat="44.07116" lon="5.79684">
        <ele>966</ele>
        <time>2000-01-01T15:34:18.000Z</time>
      </trkpt>
      <trkpt lat="44.0711" lon="5.79681">
        <ele>965.3</ele>
        <time>2000-01-01T15:34:28.000Z</time>
      </trkpt>
      <trkpt lat="44.07085" lon="5.79657">
        <ele>963</ele>
        <time>2000-01-01T15:34:38.000Z</time>
      </trkpt>
      <trkpt lat="44.07075" lon="5.79649">
        <ele>962.1</ele>
        <time>2000-01-01T15:34:48.000Z</time>
      </trkpt>
      <trkpt lat="44.07071" lon="5.79644">
        <ele>961.6</ele>
        <time>2000-01-01T15:34:58.000Z</time>
      </trkpt>
      <trkpt lat="44.07058" lon="5.79636">
        <ele>957</ele>
        <time>2000-01-01T15:35:08.000Z</time>
      </trkpt>
      <trkpt lat="44.07056" lon="5.79629">
        <ele>958.4</ele>
        <time>2000-01-01T15:35:18.000Z</time>
      </trkpt>
      <trkpt lat="44.07054" lon="5.79613">
        <ele>956.7</ele>
        <time>2000-01-01T15:35:28.000Z</time>
      </trkpt>
      <trkpt lat="44.07051" lon="5.79607">
        <ele>954</ele>
        <time>2000-01-01T15:35:38.000Z</time>
      </trkpt>
      <trkpt lat="44.07049" lon="5.79595">
        <ele>953.5</ele>
        <time>2000-01-01T15:35:48.000Z</time>
      </trkpt>
      <trkpt lat="44.07049" lon="5.7955">
        <ele>943</ele>
        <time>2000-01-01T15:35:58.000Z</time>
      </trkpt>
      <trkpt lat="44.07048" lon="5.79547">
        <ele>949.1</ele>
        <time>2000-01-01T15:36:08.000Z</time>
      </trkpt>
      <trkpt lat="44.07041" lon="5.79546">
        <ele>946.9</ele>
        <time>2000-01-01T15:36:18.000Z</time>
      </trkpt>
      <trkpt lat="44.07033" lon="5.79542">
        <ele>944.1</ele>
        <time>2000-01-01T15:36:28.000Z</time>
      </trkpt>
      <trkpt lat="44.07024" lon="5.79542">
        <ele>940</ele>
        <time>2000-01-01T15:36:38.000Z</time>
      </trkpt>
      <trkpt lat="44.07021" lon="5.79541">
        <ele>940.4</ele>
        <time>2000-01-01T15:36:48.000Z</time>
      </trkpt>
      <trkpt lat="44.07013" lon="5.79549">
        <ele>938.1</ele>
        <time>2000-01-01T15:36:58.000Z</time>
      </trkpt>
      <trkpt lat="44.07011" lon="5.79549">
        <ele>937.4</ele>
        <time>2000-01-01T15:37:08.000Z</time>
      </trkpt>
      <trkpt lat="44.07007" lon="5.79546">
        <ele>932</ele>
        <time>2000-01-01T15:37:18.000Z</time>
      </trkpt>
      <trkpt lat="44.07002" lon="5.79548">
        <ele>934.2</ele>
        <time>2000-01-01T15:37:28.000Z</time>
      </trkpt>
      <trkpt lat="44.06998" lon="5.79551">
        <ele>933</ele>
        <time>2000-01-01T15:37:38.000Z</time>
      </trkpt>
      <trkpt lat="44.06989" lon="5.79556">
        <ele>930</ele>
        <time>2000-01-01T15:37:48.000Z</time>
      </trkpt>
      <trkpt lat="44.06982" lon="5.79558">
        <ele>930.1</ele>
        <time>2000-01-01T15:37:58.000Z</time>
      </trkpt>
      <trkpt lat="44.06974" lon="5.79563">
        <ele>928.9</ele>
        <time>2000-01-01T15:38:08.000Z</time>
      </trkpt>
      <trkpt lat="44.06968" lon="5.79565">
        <ele>925</ele>
        <time>2000-01-01T15:38:18.000Z</time>
      </trkpt>
      <trkpt lat="44.06962" lon="5.79562">
        <ele>926.9</ele>
        <time>2000-01-01T15:38:28.000Z</time>
      </trkpt>
      <trkpt lat="44.06957" lon="5.79558">
        <ele>926.3</ele>
        <time>2000-01-01T15:38:38.000Z</time>
      </trkpt>
      <trkpt lat="44.06945" lon="5.79552">
        <ele>925</ele>
        <time>2000-01-01T15:38:48.000Z</time>
      </trkpt>
      <trkpt lat="44.0694" lon="5.79548">
        <ele>925.4</ele>
        <time>2000-01-01T15:38:58.000Z</time>
      </trkpt>
      <trkpt lat="44.06934" lon="5.79545">
        <ele>924.9</ele>
        <time>2000-01-01T15:39:08.000Z</time>
      </trkpt>
      <trkpt lat="44.06928" lon="5.79541">
        <ele>924.4</ele>
        <time>2000-01-01T15:39:18.000Z</time>
      </trkpt>
      <trkpt lat="44.06925" lon="5.79536">
        <ele>924</ele>
        <time>2000-01-01T15:39:28.000Z</time>
      </trkpt>
      <trkpt lat="44.06921" lon="5.79532">
        <ele>924.3</ele>
        <time>2000-01-01T15:39:38.000Z</time>
      </trkpt>
      <trkpt lat="44.06916" lon="5.7953">
        <ele>923.7</ele>
        <time>2000-01-01T15:39:48.000Z</time>
      </trkpt>
      <trkpt lat="44.06912" lon="5.79531">
        <ele>923</ele>
        <time>2000-01-01T15:39:58.000Z</time>
      </trkpt>
      <trkpt lat="44.06906" lon="5.7953">
        <ele>923</ele>
        <time>2000-01-01T15:40:08.000Z</time>
      </trkpt>
      <trkpt lat="44.06899" lon="5.79526">
        <ele>921.7</ele>
        <time>2000-01-01T15:40:18.000Z</time>
      </trkpt>
      <trkpt lat="44.06884" lon="5.7952">
        <ele>921</ele>
        <time>2000-01-01T15:40:28.000Z</time>
      </trkpt>
      <trkpt lat="44.06879" lon="5.79521">
        <ele>919.5</ele>
        <time>2000-01-01T15:40:38.000Z</time>
      </trkpt>
      <trkpt lat="44.06874" lon="5.79523">
        <ele>918.5</ele>
        <time>2000-01-01T15:40:48.000Z</time>
      </trkpt>
      <trkpt lat="44.06867" lon="5.79527">
        <ele>916.9</ele>
        <time>2000-01-01T15:40:58.000Z</time>
      </trkpt>
      <trkpt lat="44.06861" lon="5.79528">
        <ele>916</ele>
        <time>2000-01-01T15:41:08.000Z</time>
      </trkpt>
      <trkpt lat="44.06841" lon="5.7952">
        <ele>915</ele>
        <time>2000-01-01T15:41:18.000Z</time>
      </trkpt>
      <trkpt lat="44.06836" lon="5.7952">
        <ele>913.2</ele>
        <time>2000-01-01T15:41:28.000Z</time>
      </trkpt>
      <trkpt lat="44.0683" lon="5.79518">
        <ele>912.6</ele>
        <time>2000-01-01T15:41:38.000Z</time>
      </trkpt>
      <trkpt lat="44.06821" lon="5.79513">
        <ele>912</ele>
        <time>2000-01-01T15:41:48.000Z</time>
      </trkpt>
      <trkpt lat="44.06818" lon="5.79512">
        <ele>911.5</ele>
        <time>2000-01-01T15:41:58.000Z</time>
      </trkpt>
      <trkpt lat="44.06815" lon="5.79512">
        <ele>911.1</ele>
        <time>2000-01-01T15:42:08.000Z</time>
      </trkpt>
      <trkpt lat="44.06814" lon="5.79514">
        <ele>910.7</ele>
        <time>2000-01-01T15:42:18.000Z</time>
      </trkpt>
      <trkpt lat="44.06808" lon="5.79516">
        <ele>909.6</ele>
        <time>2000-01-01T15:42:28.000Z</time>
      </trkpt>
      <trkpt lat="44.0679" lon="5.79516">
        <ele>905</ele>
        <time>2000-01-01T15:42:38.000Z</time>
      </trkpt>
      <trkpt lat="44.06783" lon="5.79514">
        <ele>905.4</ele>
        <time>2000-01-01T15:42:48.000Z</time>
      </trkpt>
      <trkpt lat="44.06778" lon="5.79507">
        <ele>905.3</ele>
        <time>2000-01-01T15:42:58.000Z</time>
      </trkpt>
      <trkpt lat="44.06775" lon="5.79498">
        <ele>905</ele>
        <time>2000-01-01T15:43:08.000Z</time>
      </trkpt>
      <trkpt lat="44.06765" lon="5.79485">
        <ele>904.8</ele>
        <time>2000-01-01T15:43:18.000Z</time>
      </trkpt>
      <trkpt lat="44.06761" lon="5.79477">
        <ele>904</ele>
        <time>2000-01-01T15:43:28.000Z</time>
      </trkpt>
      <trkpt lat="44.06759" lon="5.79469">
        <ele>904.7</ele>
        <time>2000-01-01T15:43:38.000Z</time>
      </trkpt>
      <trkpt lat="44.06755" lon="5.79469">
        <ele>903.9</ele>
        <time>2000-01-01T15:43:48.000Z</time>
      </trkpt>
      <trkpt lat="44.0675" lon="5.79466">
        <ele>903</ele>
        <time>2000-01-01T15:43:58.000Z</time>
      </trkpt>
      <trkpt lat="44.06747" lon="5.79465">
        <ele>902.2</ele>
        <time>2000-01-01T15:44:08.000Z</time>
      </trkpt>
      <trkpt lat="44.06743" lon="5.79462">
        <ele>902</ele>
        <time>2000-01-01T15:44:18.000Z</time>
      </trkpt>
      <trkpt lat="44.06736" lon="5.79449">
        <ele>900.2</ele>
        <time>2000-01-01T15:44:28.000Z</time>
      </trkpt>
      <trkpt lat="44.06733" lon="5.79441">
        <ele>900.3</ele>
        <time>2000-01-01T15:44:38.000Z</time>
      </trkpt>
      <trkpt lat="44.06732" lon="5.79435">
        <ele>901</ele>
        <time>2000-01-01T15:44:48.000Z</time>
      </trkpt>
      <trkpt lat="44.0673" lon="5.7943">
        <ele>901.2</ele>
        <time>2000-01-01T15:44:58.000Z</time>
      </trkpt>
      <trkpt lat="44.0673" lon="5.79428">
        <ele>901.4</ele>
        <time>2000-01-01T15:45:08.000Z</time>
      </trkpt>
      <trkpt lat="44.06723" lon="5.79424">
        <ele>901</ele>
        <time>2000-01-01T15:45:18.000Z</time>
      </trkpt>
      <trkpt lat="44.06721" lon="5.79424">
        <ele>900.8</ele>
        <time>2000-01-01T15:45:28.000Z</time>
      </trkpt>
      <trkpt lat="44.06719" lon="5.79423">
        <ele>900.7</ele>
        <time>2000-01-01T15:45:38.000Z</time>
      </trkpt>
      <trkpt lat="44.06717" lon="5.7942">
        <ele>900</ele>
        <time>2000-01-01T15:45:48.000Z</time>
      </trkpt>
      <trkpt lat="44.06715" lon="5.79419">
        <ele>900.6</ele>
        <time>2000-01-01T15:45:58.000Z</time>
      </trkpt>
      <trkpt lat="44.06709" lon="5.79413">
        <ele>900.6</ele>
        <time>2000-01-01T15:46:08.000Z</time>
      </trkpt>
      <trkpt lat="44.06704" lon="5.79411">
        <ele>900.1</ele>
        <time>2000-01-01T15:46:18.000Z</time>
      </trkpt>
      <trkpt lat="44.067" lon="5.79407">
        <ele>900</ele>
        <time>2000-01-01T15:46:28.000Z</time>
      </trkpt>
      <trkpt lat="44.06697" lon="5.79406">
        <ele>899.9</ele>
        <time>2000-01-01T15:46:38.000Z</time>
      </trkpt>
      <trkpt lat="44.06692" lon="5.79401">
        <ele>899.9</ele>
        <time>2000-01-01T15:46:48.000Z</time>
      </trkpt>
      <trkpt lat="44.06689" lon="5.79399">
        <ele>899.8</ele>
        <time>2000-01-01T15:46:58.000Z</time>
      </trkpt>
      <trkpt lat="44.06679" lon="5.79397">
        <ele>898</ele>
        <time>2000-01-01T15:47:08.000Z</time>
      </trkpt>
      <trkpt lat="44.06669" lon="5.79391">
        <ele>898</ele>
        <time>2000-01-01T15:47:18.000Z</time>
      </trkpt>
      <trkpt lat="44.06666" lon="5.79386">
        <ele>898.3</ele>
        <time>2000-01-01T15:47:28.000Z</time>
      </trkpt>
      <trkpt lat="44.06661" lon="5.79382">
        <ele>898</ele>
        <time>2000-01-01T15:47:38.000Z</time>
      </trkpt>
      <trkpt lat="44.06658" lon="5.79381">
        <ele>898.1</ele>
        <time>2000-01-01T15:47:48.000Z</time>
      </trkpt>
      <trkpt lat="44.06655" lon="5.79381">
        <ele>897.8</ele>
        <time>2000-01-01T15:47:58.000Z</time>
      </trkpt>
      <trkpt lat="44.06654" lon="5.79383">
        <ele>897.4</ele>
        <time>2000-01-01T15:48:08.000Z</time>
      </trkpt>
      <trkpt lat="44.0665" lon="5.79385">
        <ele>896.7</ele>
        <time>2000-01-01T15:48:18.000Z</time>
      </trkpt>
      <trkpt lat="44.06644" lon="5.79385">
        <ele>896</ele>
        <time>2000-01-01T15:48:28.000Z</time>
      </trkpt>
      <trkpt lat="44.06637" lon="5.79387">
        <ele>894</ele>
        <time>2000-01-01T15:48:38.000Z</time>
      </trkpt>
      <trkpt lat="44.06634" lon="5.79387">
        <ele>894.5</ele>
        <time>2000-01-01T15:48:48.000Z</time>
      </trkpt>
      <trkpt lat="44.06629" lon="5.79385">
        <ele>894</ele>
        <time>2000-01-01T15:48:58.000Z</time>
      </trkpt>
      <trkpt lat="44.06624" lon="5.79384">
        <ele>893.5</ele>
        <time>2000-01-01T15:49:08.000Z</time>
      </trkpt>
      <trkpt lat="44.06622" lon="5.79385">
        <ele>893.1</ele>
        <time>2000-01-01T15:49:18.000Z</time>
      </trkpt>
      <trkpt lat="44.06617" lon="5.79385">
        <ele>891</ele>
        <time>2000-01-01T15:49:28.000Z</time>
      </trkpt>
      <trkpt lat="44.0661" lon="5.79381">
        <ele>892</ele>
        <time>2000-01-01T15:49:38.000Z</time>
      </trkpt>
      <trkpt lat="44.06594" lon="5.79375">
        <ele>889</ele>
        <time>2000-01-01T15:49:48.000Z</time>
      </trkpt>
      <trkpt lat="44.06591" lon="5.79376">
        <ele>890</ele>
        <time>2000-01-01T15:49:58.000Z</time>
      </trkpt>
      <trkpt lat="44.06587" lon="5.7938">
        <ele>888.8</ele>
        <time>2000-01-01T15:50:08.000Z</time>
      </trkpt>
      <trkpt lat="44.06583" lon="5.79381">
        <ele>888.1</ele>
        <time>2000-01-01T15:50:18.000Z</time>
      </trkpt>
      <trkpt lat="44.06576" lon="5.79379">
        <ele>887.5</ele>
        <time>2000-01-01T15:50:28.000Z</time>
      </trkpt>
      <trkpt lat="44.06567" lon="5.79371">
        <ele>886</ele>
        <time>2000-01-01T15:50:38.000Z</time>
      </trkpt>
      <trkpt lat="44.06562" lon="5.79365">
        <ele>887.5</ele>
        <time>2000-01-01T15:50:48.000Z</time>
      </trkpt>
      <trkpt lat="44.06556" lon="5.79362">
        <ele>887</ele>
        <time>2000-01-01T15:50:58.000Z</time>
      </trkpt>
      <trkpt lat="44.06538" lon="5.79358">
        <ele>885</ele>
        <time>2000-01-01T15:51:08.000Z</time>
      </trkpt>
      <trkpt lat="44.06534" lon="5.79355">
        <ele>885.6</ele>
        <time>2000-01-01T15:51:18.000Z</time>
      </trkpt>
      <trkpt lat="44.06528" lon="5.79349">
        <ele>885.8</ele>
        <time>2000-01-01T15:51:28.000Z</time>
      </trkpt>
      <trkpt lat="44.06522" lon="5.79347">
        <ele>885.5</ele>
        <time>2000-01-01T15:51:38.000Z</time>
      </trkpt>
      <trkpt lat="44.06518" lon="5.79347">
        <ele>885</ele>
        <time>2000-01-01T15:51:48.000Z</time>
      </trkpt>
      <trkpt lat="44.06516" lon="5.79346">
        <ele>885.1</ele>
        <time>2000-01-01T15:51:58.000Z</time>
      </trkpt>
      <trkpt lat="44.06508" lon="5.79345">
        <ele>884.5</ele>
        <time>2000-01-01T15:52:08.000Z</time>
      </trkpt>
      <trkpt lat="44.06504" lon="5.79342">
        <ele>884.5</ele>
        <time>2000-01-01T15:52:18.000Z</time>
      </trkpt>
      <trkpt lat="44.06499" lon="5.79337">
        <ele>884</ele>
        <time>2000-01-01T15:52:28.000Z</time>
      </trkpt>
      <trkpt lat="44.06498" lon="5.79335">
        <ele>884.7</ele>
        <time>2000-01-01T15:52:38.000Z</time>
      </trkpt>
      <trkpt lat="44.06496" lon="5.79333">
        <ele>884.8</ele>
        <time>2000-01-01T15:52:48.000Z</time>
      </trkpt>
      <trkpt lat="44.06488" lon="5.79333">
        <ele>884.2</ele>
        <time>2000-01-01T15:52:58.000Z</time>
      </trkpt>
      <trkpt lat="44.06474" lon="5.79331">
        <ele>883</ele>
        <time>2000-01-01T15:53:08.000Z</time>
      </trkpt>
      <trkpt lat="44.06465" lon="5.79331">
        <ele>882.7</ele>
        <time>2000-01-01T15:53:18.000Z</time>
      </trkpt>
      <trkpt lat="44.06454" lon="5.79327">
        <ele>882</ele>
        <time>2000-01-01T15:53:28.000Z</time>
      </trkpt>
      <trkpt lat="44.06451" lon="5.79325">
        <ele>882.4</ele>
        <time>2000-01-01T15:53:38.000Z</time>
      </trkpt>
      <trkpt lat="44.0645" lon="5.79323">
        <ele>882.5</ele>
        <time>2000-01-01T15:53:48.000Z</time>
      </trkpt>
      <trkpt lat="44.06447" lon="5.79321">
        <ele>882.5</ele>
        <time>2000-01-01T15:53:58.000Z</time>
      </trkpt>
      <trkpt lat="44.06437" lon="5.79317">
        <ele>882.2</ele>
        <time>2000-01-01T15:54:08.000Z</time>
      </trkpt>
      <trkpt lat="44.06429" lon="5.79311">
        <ele>881</ele>
        <time>2000-01-01T15:54:18.000Z</time>
      </trkpt>
      <trkpt lat="44.06425" lon="5.79307">
        <ele>882.4</ele>
        <time>2000-01-01T15:54:28.000Z</time>
      </trkpt>
      <trkpt lat="44.06423" lon="5.79304">
        <ele>882.6</ele>
        <time>2000-01-01T15:54:38.000Z</time>
      </trkpt>
      <trkpt lat="44.06421" lon="5.79303">
        <ele>882.6</ele>
        <time>2000-01-01T15:54:48.000Z</time>
      </trkpt>
      <trkpt lat="44.06419" lon="5.79303">
        <ele>882.4</ele>
        <time>2000-01-01T15:54:58.000Z</time>
      </trkpt>
      <trkpt lat="44.06414" lon="5.79305">
        <ele>882</ele>
        <time>2000-01-01T15:55:08.000Z</time>
      </trkpt>
      <trkpt lat="44.06398" lon="5.79303">
        <ele>881</ele>
        <time>2000-01-01T15:55:18.000Z</time>
      </trkpt>
      <trkpt lat="44.06388" lon="5.79305">
        <ele>881.1</ele>
        <time>2000-01-01T15:55:28.000Z</time>
      </trkpt>
      <trkpt lat="44.06382" lon="5.79303">
        <ele>881.3</ele>
        <time>2000-01-01T15:55:38.000Z</time>
      </trkpt>
      <trkpt lat="44.06378" lon="5.79299">
        <ele>880</ele>
        <time>2000-01-01T15:55:48.000Z</time>
      </trkpt>
      <trkpt lat="44.06373" lon="5.79297">
        <ele>881.7</ele>
        <time>2000-01-01T15:55:58.000Z</time>
      </trkpt>
      <trkpt lat="44.06368" lon="5.79297">
        <ele>881.7</ele>
        <time>2000-01-01T15:56:08.000Z</time>
      </trkpt>
      <trkpt lat="44.06355" lon="5.79302">
        <ele>880</ele>
        <time>2000-01-01T15:56:18.000Z</time>
      </trkpt>
      <trkpt lat="44.06348" lon="5.79303">
        <ele>880.2</ele>
        <time>2000-01-01T15:56:28.000Z</time>
      </trkpt>
      <trkpt lat="44.06324" lon="5.79295">
        <ele>879</ele>
        <time>2000-01-01T15:56:38.000Z</time>
      </trkpt>
      <trkpt lat="44.06311" lon="5.79297">
        <ele>878</ele>
        <time>2000-01-01T15:56:48.000Z</time>
      </trkpt>
      <trkpt lat="44.06299" lon="5.79297">
        <ele>877</ele>
        <time>2000-01-01T15:56:58.000Z</time>
      </trkpt>
      <trkpt lat="44.06294" lon="5.79294">
        <ele>877.4</ele>
        <time>2000-01-01T15:57:08.000Z</time>
      </trkpt>
      <trkpt lat="44.06289" lon="5.79292">
        <ele>877.4</ele>
        <time>2000-01-01T15:57:18.000Z</time>
      </trkpt>
      <trkpt lat="44.06283" lon="5.79292">
        <ele>877.2</ele>
        <time>2000-01-01T15:57:28.000Z</time>
      </trkpt>
      <trkpt lat="44.06279" lon="5.79293">
        <ele>877</ele>
        <time>2000-01-01T15:57:38.000Z</time>
      </trkpt>
      <trkpt lat="44.06273" lon="5.79293">
        <ele>876.7</ele>
        <time>2000-01-01T15:57:48.000Z</time>
      </trkpt>
      <trkpt lat="44.06261" lon="5.79295">
        <ele>876.2</ele>
        <time>2000-01-01T15:57:58.000Z</time>
      </trkpt>
      <trkpt lat="44.06255" lon="5.79295">
        <ele>875</ele>
        <time>2000-01-01T15:58:08.000Z</time>
      </trkpt>
      <trkpt lat="44.06245" lon="5.79299">
        <ele>875.1</ele>
        <time>2000-01-01T15:58:18.000Z</time>
      </trkpt>
      <trkpt lat="44.0624" lon="5.793">
        <ele>874.7</ele>
        <time>2000-01-01T15:58:28.000Z</time>
      </trkpt>
      <trkpt lat="44.06233" lon="5.79299">
        <ele>874</ele>
        <time>2000-01-01T15:58:38.000Z</time>
      </trkpt>
      <trkpt lat="44.062" lon="5.7927">
        <ele>871</ele>
        <time>2000-01-01T15:58:48.000Z</time>
      </trkpt>
      <trkpt lat="44.06194" lon="5.7926">
        <ele>872.6</ele>
        <time>2000-01-01T15:58:58.000Z</time>
      </trkpt>
      <trkpt lat="44.0618" lon="5.79249">
        <ele>869</ele>
        <time>2000-01-01T15:59:08.000Z</time>
      </trkpt>
      <trkpt lat="44.06176" lon="5.79245">
        <ele>870.5</ele>
        <time>2000-01-01T15:59:18.000Z</time>
      </trkpt>
      <trkpt lat="44.06167" lon="5.79241">
        <ele>869.4</ele>
        <time>2000-01-01T15:59:28.000Z</time>
      </trkpt>
      <trkpt lat="44.06158" lon="5.79236">
        <ele>866</ele>
        <time>2000-01-01T15:59:38.000Z</time>
      </trkpt>
      <trkpt lat="44.06152" lon="5.79234">
        <ele>866.9</ele>
        <time>2000-01-01T15:59:48.000Z</time>
      </trkpt>
      <trkpt lat="44.06146" lon="5.79241">
        <ele>865.6</ele>
        <time>2000-01-01T15:59:58.000Z</time>
      </trkpt>
      <trkpt lat="44.06143" lon="5.79247">
        <ele>864.8</ele>
        <time>2000-01-01T16:00:08.000Z</time>
      </trkpt>
      <trkpt lat="44.06135" lon="5.79258">
        <ele>863</ele>
        <time>2000-01-01T16:00:18.000Z</time>
      </trkpt>
      <trkpt lat="44.06125" lon="5.79279">
        <ele>863.4</ele>
        <time>2000-01-01T16:00:28.000Z</time>
      </trkpt>
      <trkpt lat="44.06122" lon="5.79288">
        <ele>862</ele>
        <time>2000-01-01T16:00:38.000Z</time>
      </trkpt>
      <trkpt lat="44.0612" lon="5.79296">
        <ele>862.5</ele>
        <time>2000-01-01T16:00:48.000Z</time>
      </trkpt>
      <trkpt lat="44.06117" lon="5.79304">
        <ele>861.9</ele>
        <time>2000-01-01T16:00:58.000Z</time>
      </trkpt>
      <trkpt lat="44.06114" lon="5.7931">
        <ele>861.3</ele>
        <time>2000-01-01T16:01:08.000Z</time>
      </trkpt>
      <trkpt lat="44.06111" lon="5.79313">
        <ele>862</ele>
        <time>2000-01-01T16:01:18.000Z</time>
      </trkpt>
      <trkpt lat="44.06105" lon="5.79316">
        <ele>860.9</ele>
        <time>2000-01-01T16:01:28.000Z</time>
      </trkpt>
      <trkpt lat="44.06097" lon="5.79316">
        <ele>861.4</ele>
        <time>2000-01-01T16:01:38.000Z</time>
      </trkpt>
      <trkpt lat="44.0609" lon="5.79314">
        <ele>862</ele>
        <time>2000-01-01T16:01:48.000Z</time>
      </trkpt>
      <trkpt lat="44.06084" lon="5.7931">
        <ele>862.6</ele>
        <time>2000-01-01T16:01:58.000Z</time>
      </trkpt>
      <trkpt lat="44.06069" lon="5.79298">
        <ele>862</ele>
        <time>2000-01-01T16:02:08.000Z</time>
      </trkpt>
      <trkpt lat="44.06064" lon="5.79293">
        <ele>862.5</ele>
        <time>2000-01-01T16:02:18.000Z</time>
      </trkpt>
      <trkpt lat="44.06039" lon="5.79273">
        <ele>860</ele>
        <time>2000-01-01T16:02:28.000Z</time>
      </trkpt>
      <trkpt lat="44.06033" lon="5.79269">
        <ele>860.8</ele>
        <time>2000-01-01T16:02:38.000Z</time>
      </trkpt>
      <trkpt lat="44.06028" lon="5.79264">
        <ele>860.5</ele>
        <time>2000-01-01T16:02:48.000Z</time>
      </trkpt>
      <trkpt lat="44.06007" lon="5.79248">
        <ele>858</ele>
        <time>2000-01-01T16:02:58.000Z</time>
      </trkpt>
      <trkpt lat="44.05992" lon="5.79234">
        <ele>858.1</ele>
        <time>2000-01-01T16:03:08.000Z</time>
      </trkpt>
      <trkpt lat="44.05981" lon="5.79226">
        <ele>857</ele>
        <time>2000-01-01T16:03:18.000Z</time>
      </trkpt>
      <trkpt lat="44.05976" lon="5.79221">
        <ele>856.7</ele>
        <time>2000-01-01T16:03:28.000Z</time>
      </trkpt>
      <trkpt lat="44.05971" lon="5.79218">
        <ele>856.3</ele>
        <time>2000-01-01T16:03:38.000Z</time>
      </trkpt>
      <trkpt lat="44.05966" lon="5.79213">
        <ele>856</ele>
        <time>2000-01-01T16:03:48.000Z</time>
      </trkpt>
      <trkpt lat="44.05962" lon="5.79207">
        <ele>856</ele>
        <time>2000-01-01T16:03:58.000Z</time>
      </trkpt>
      <trkpt lat="44.05957" lon="5.79201">
        <ele>855.7</ele>
        <time>2000-01-01T16:04:08.000Z</time>
      </trkpt>
      <trkpt lat="44.05954" lon="5.79195">
        <ele>855.7</ele>
        <time>2000-01-01T16:04:18.000Z</time>
      </trkpt>
      <trkpt lat="44.05952" lon="5.79188">
        <ele>855.8</ele>
        <time>2000-01-01T16:04:28.000Z</time>
      </trkpt>
      <trkpt lat="44.05948" lon="5.79182">
        <ele>854</ele>
        <time>2000-01-01T16:04:38.000Z</time>
      </trkpt>
      <trkpt lat="44.05945" lon="5.79174">
        <ele>855.6</ele>
        <time>2000-01-01T16:04:48.000Z</time>
      </trkpt>
      <trkpt lat="44.05929" lon="5.79151">
        <ele>854</ele>
        <time>2000-01-01T16:04:58.000Z</time>
      </trkpt>
      <trkpt lat="44.05921" lon="5.79141">
        <ele>855.4</ele>
        <time>2000-01-01T16:05:08.000Z</time>
      </trkpt>
      <trkpt lat="44.05917" lon="5.79134">
        <ele>855.2</ele>
        <time>2000-01-01T16:05:18.000Z</time>
      </trkpt>
      <trkpt lat="44.05916" lon="5.79131">
        <ele>854</ele>
        <time>2000-01-01T16:05:28.000Z</time>
      </trkpt>
      <trkpt lat="44.05908" lon="5.79118">
        <ele>855.1</ele>
        <time>2000-01-01T16:05:38.000Z</time>
      </trkpt>
      <trkpt lat="44.05905" lon="5.79111">
        <ele>855.2</ele>
        <time>2000-01-01T16:05:48.000Z</time>
      </trkpt>
      <trkpt lat="44.05901" lon="5.79105">
        <ele>853</ele>
        <time>2000-01-01T16:05:58.000Z</time>
      </trkpt>
      <trkpt lat="44.05889" lon="5.79077">
        <ele>853</ele>
        <time>2000-01-01T16:06:08.000Z</time>
      </trkpt>
      <trkpt lat="44.05878" lon="5.79057">
        <ele>853.2</ele>
        <time>2000-01-01T16:06:18.000Z</time>
      </trkpt>
      <trkpt lat="44.05853" lon="5.79025">
        <ele>851</ele>
        <time>2000-01-01T16:06:28.000Z</time>
      </trkpt>
      <trkpt lat="44.05849" lon="5.79021">
        <ele>851.3</ele>
        <time>2000-01-01T16:06:38.000Z</time>
      </trkpt>
      <trkpt lat="44.05828" lon="5.78986">
        <ele>849</ele>
        <time>2000-01-01T16:06:48.000Z</time>
      </trkpt>
      <trkpt lat="44.05825" lon="5.78979">
        <ele>850.2</ele>
        <time>2000-01-01T16:06:58.000Z</time>
      </trkpt>
      <trkpt lat="44.05817" lon="5.78964">
        <ele>849.6</ele>
        <time>2000-01-01T16:07:08.000Z</time>
      </trkpt>
      <trkpt lat="44.05808" lon="5.78941">
        <ele>847</ele>
        <time>2000-01-01T16:07:18.000Z</time>
      </trkpt>
      <trkpt lat="44.058" lon="5.78929">
        <ele>847.4</ele>
        <time>2000-01-01T16:07:28.000Z</time>
      </trkpt>
      <trkpt lat="44.05795" lon="5.78923">
        <ele>846.9</ele>
        <time>2000-01-01T16:07:38.000Z</time>
      </trkpt>
      <trkpt lat="44.05782" lon="5.78912">
        <ele>845</ele>
        <time>2000-01-01T16:07:48.000Z</time>
      </trkpt>
      <trkpt lat="44.05777" lon="5.78906">
        <ele>844.5</ele>
        <time>2000-01-01T16:07:58.000Z</time>
      </trkpt>
      <trkpt lat="44.0577" lon="5.78901">
        <ele>843.5</ele>
        <time>2000-01-01T16:08:08.000Z</time>
      </trkpt>
      <trkpt lat="44.05747" lon="5.78882">
        <ele>840</ele>
        <time>2000-01-01T16:08:18.000Z</time>
      </trkpt>
      <trkpt lat="44.05738" lon="5.78876">
        <ele>840.1</ele>
        <time>2000-01-01T16:08:28.000Z</time>
      </trkpt>
      <trkpt lat="44.05725" lon="5.78858">
        <ele>838</ele>
        <time>2000-01-01T16:08:38.000Z</time>
      </trkpt>
      <trkpt lat="44.0572" lon="5.78854">
        <ele>838.4</ele>
        <time>2000-01-01T16:08:48.000Z</time>
      </trkpt>
      <trkpt lat="44.05715" lon="5.78848">
        <ele>837.6</ele>
        <time>2000-01-01T16:08:58.000Z</time>
      </trkpt>
      <trkpt lat="44.05703" lon="5.78839">
        <ele>835</ele>
        <time>2000-01-01T16:09:08.000Z</time>
      </trkpt>
      <trkpt lat="44.05691" lon="5.78821">
        <ele>834.1</ele>
        <time>2000-01-01T16:09:18.000Z</time>
      </trkpt>
      <trkpt lat="44.05687" lon="5.78813">
        <ele>832</ele>
        <time>2000-01-01T16:09:28.000Z</time>
      </trkpt>
      <trkpt lat="44.05684" lon="5.78804">
        <ele>832.8</ele>
        <time>2000-01-01T16:09:38.000Z</time>
      </trkpt>
      <trkpt lat="44.05684" lon="5.78795">
        <ele>832.3</ele>
        <time>2000-01-01T16:09:48.000Z</time>
      </trkpt>
      <trkpt lat="44.05685" lon="5.78787">
        <ele>831</ele>
        <time>2000-01-01T16:09:58.000Z</time>
      </trkpt>
      <trkpt lat="44.05687" lon="5.7878">
        <ele>832</ele>
        <time>2000-01-01T16:10:08.000Z</time>
      </trkpt>
      <trkpt lat="44.05684" lon="5.78753">
        <ele>829</ele>
        <time>2000-01-01T16:10:18.000Z</time>
      </trkpt>
      <trkpt lat="44.0568" lon="5.78736">
        <ele>829.2</ele>
        <time>2000-01-01T16:10:28.000Z</time>
      </trkpt>
      <trkpt lat="44.05671" lon="5.78727">
        <ele>826</ele>
        <time>2000-01-01T16:10:38.000Z</time>
      </trkpt>
      <trkpt lat="44.05668" lon="5.7872">
        <ele>827.1</ele>
        <time>2000-01-01T16:10:48.000Z</time>
      </trkpt>
      <trkpt lat="44.05667" lon="5.7871">
        <ele>827</ele>
        <time>2000-01-01T16:10:58.000Z</time>
      </trkpt>
      <trkpt lat="44.05667" lon="5.78694">
        <ele>826</ele>
        <time>2000-01-01T16:11:08.000Z</time>
      </trkpt>
      <trkpt lat="44.05668" lon="5.78687">
        <ele>827.2</ele>
        <time>2000-01-01T16:11:18.000Z</time>
      </trkpt>
      <trkpt lat="44.05667" lon="5.78681">
        <ele>827</ele>
        <time>2000-01-01T16:11:28.000Z</time>
      </trkpt>
      <trkpt lat="44.05659" lon="5.78671">
        <ele>823</ele>
        <time>2000-01-01T16:11:38.000Z</time>
      </trkpt>
      <trkpt lat="44.05656" lon="5.78663">
        <ele>825.3</ele>
        <time>2000-01-01T16:11:48.000Z</time>
      </trkpt>
      <trkpt lat="44.0565" lon="5.78643">
        <ele>821</ele>
        <time>2000-01-01T16:11:58.000Z</time>
      </trkpt>
      <trkpt lat="44.05646" lon="5.78627">
        <ele>822.7</ele>
        <time>2000-01-01T16:12:08.000Z</time>
      </trkpt>
      <trkpt lat="44.05647" lon="5.78614">
        <ele>821</ele>
        <time>2000-01-01T16:12:18.000Z</time>
      </trkpt>
      <trkpt lat="44.05648" lon="5.78611">
        <ele>822.6</ele>
        <time>2000-01-01T16:12:28.000Z</time>
      </trkpt>
      <trkpt lat="44.05646" lon="5.786">
        <ele>822.2</ele>
        <time>2000-01-01T16:12:38.000Z</time>
      </trkpt>
      <trkpt lat="44.05646" lon="5.78593">
        <ele>822.1</ele>
        <time>2000-01-01T16:12:48.000Z</time>
      </trkpt>
      <trkpt lat="44.05644" lon="5.78588">
        <ele>820</ele>
        <time>2000-01-01T16:12:58.000Z</time>
      </trkpt>
      <trkpt lat="44.05639" lon="5.78584">
        <ele>821</ele>
        <time>2000-01-01T16:13:08.000Z</time>
      </trkpt>
      <trkpt lat="44.05635" lon="5.78579">
        <ele>820.2</ele>
        <time>2000-01-01T16:13:18.000Z</time>
      </trkpt>
      <trkpt lat="44.05631" lon="5.78571">
        <ele>819.4</ele>
        <time>2000-01-01T16:13:28.000Z</time>
      </trkpt>
      <trkpt lat="44.05624" lon="5.78554">
        <ele>817</ele>
        <time>2000-01-01T16:13:38.000Z</time>
      </trkpt>
      <trkpt lat="44.0562" lon="5.78536">
        <ele>818</ele>
        <time>2000-01-01T16:13:48.000Z</time>
      </trkpt>
      <trkpt lat="44.05623" lon="5.78512">
        <ele>817</ele>
        <time>2000-01-01T16:13:58.000Z</time>
      </trkpt>
      <trkpt lat="44.05627" lon="5.78498">
        <ele>818.6</ele>
        <time>2000-01-01T16:14:08.000Z</time>
      </trkpt>
      <trkpt lat="44.05626" lon="5.7849">
        <ele>818.2</ele>
        <time>2000-01-01T16:14:18.000Z</time>
      </trkpt>
      <trkpt lat="44.05622" lon="5.78485">
        <ele>816</ele>
        <time>2000-01-01T16:14:28.000Z</time>
      </trkpt>
      <trkpt lat="44.05609" lon="5.78479">
        <ele>816</ele>
        <time>2000-01-01T16:14:38.000Z</time>
      </trkpt>
      <trkpt lat="44.05604" lon="5.78475">
        <ele>814</ele>
        <time>2000-01-01T16:14:48.000Z</time>
      </trkpt>
      <trkpt lat="44.05593" lon="5.78464">
        <ele>813.6</ele>
        <time>2000-01-01T16:14:58.000Z</time>
      </trkpt>
      <trkpt lat="44.05587" lon="5.7846">
        <ele>811</ele>
        <time>2000-01-01T16:15:08.000Z</time>
      </trkpt>
      <trkpt lat="44.05576" lon="5.78456">
        <ele>811.6</ele>
        <time>2000-01-01T16:15:18.000Z</time>
      </trkpt>
      <trkpt lat="44.05572" lon="5.7845">
        <ele>811</ele>
        <time>2000-01-01T16:15:28.000Z</time>
      </trkpt>
      <trkpt lat="44.05573" lon="5.78445">
        <ele>810</ele>
        <time>2000-01-01T16:15:38.000Z</time>
      </trkpt>
      <trkpt lat="44.05573" lon="5.7844">
        <ele>810.6</ele>
        <time>2000-01-01T16:15:48.000Z</time>
      </trkpt>
      <trkpt lat="44.05574" lon="5.78435">
        <ele>810.3</ele>
        <time>2000-01-01T16:15:58.000Z</time>
      </trkpt>
      <trkpt lat="44.05574" lon="5.78429">
        <ele>809.9</ele>
        <time>2000-01-01T16:16:08.000Z</time>
      </trkpt>
      <trkpt lat="44.05577" lon="5.78419">
        <ele>808</ele>
        <time>2000-01-01T16:16:18.000Z</time>
      </trkpt>
      <trkpt lat="44.0558" lon="5.78414">
        <ele>809.4</ele>
        <time>2000-01-01T16:16:28.000Z</time>
      </trkpt>
      <trkpt lat="44.05582" lon="5.78407">
        <ele>809.2</ele>
        <time>2000-01-01T16:16:38.000Z</time>
      </trkpt>
      <trkpt lat="44.05588" lon="5.78394">
        <ele>808</ele>
        <time>2000-01-01T16:16:48.000Z</time>
      </trkpt>
      <trkpt lat="44.05594" lon="5.78375">
        <ele>809</ele>
        <time>2000-01-01T16:16:58.000Z</time>
      </trkpt>
      <trkpt lat="44.05595" lon="5.78374">
        <ele>809.1</ele>
        <time>2000-01-01T16:17:08.000Z</time>
      </trkpt>
      <trkpt lat="44.05596" lon="5.78368">
        <ele>808</ele>
        <time>2000-01-01T16:17:18.000Z</time>
      </trkpt>
      <trkpt lat="44.05594" lon="5.78362">
        <ele>808.6</ele>
        <time>2000-01-01T16:17:28.000Z</time>
      </trkpt>
      <trkpt lat="44.0559" lon="5.78358">
        <ele>807.6</ele>
        <time>2000-01-01T16:17:38.000Z</time>
      </trkpt>
      <trkpt lat="44.05588" lon="5.78351">
        <ele>806.6</ele>
        <time>2000-01-01T16:17:48.000Z</time>
      </trkpt>
      <trkpt lat="44.05584" lon="5.78346">
        <ele>804</ele>
        <time>2000-01-01T16:17:58.000Z</time>
      </trkpt>
      <trkpt lat="44.05578" lon="5.78333">
        <ele>803.2</ele>
        <time>2000-01-01T16:18:08.000Z</time>
      </trkpt>
      <trkpt lat="44.05577" lon="5.78325">
        <ele>802.1</ele>
        <time>2000-01-01T16:18:18.000Z</time>
      </trkpt>
      <trkpt lat="44.05577" lon="5.78316">
        <ele>802</ele>
        <time>2000-01-01T16:18:28.000Z</time>
      </trkpt>
      <trkpt lat="44.05578" lon="5.78307">
        <ele>800</ele>
        <time>2000-01-01T16:18:38.000Z</time>
      </trkpt>
      <trkpt lat="44.05581" lon="5.78294">
        <ele>800.7</ele>
        <time>2000-01-01T16:18:48.000Z</time>
      </trkpt>
      <trkpt lat="44.05577" lon="5.78292">
        <ele>800</ele>
        <time>2000-01-01T16:18:58.000Z</time>
      </trkpt>
      <trkpt lat="44.05569" lon="5.7829">
        <ele>800.3</ele>
        <time>2000-01-01T16:19:08.000Z</time>
      </trkpt>
      <trkpt lat="44.05564" lon="5.78287">
        <ele>800.2</ele>
        <time>2000-01-01T16:19:18.000Z</time>
      </trkpt>
      <trkpt lat="44.05558" lon="5.78282">
        <ele>798</ele>
        <time>2000-01-01T16:19:28.000Z</time>
      </trkpt>
      <trkpt lat="44.05554" lon="5.78277">
        <ele>799.9</ele>
        <time>2000-01-01T16:19:38.000Z</time>
      </trkpt>
      <trkpt lat="44.0554" lon="5.78264">
        <ele>798</ele>
        <time>2000-01-01T16:19:48.000Z</time>
      </trkpt>
      <trkpt lat="44.05534" lon="5.7826">
        <ele>799</ele>
        <time>2000-01-01T16:19:58.000Z</time>
      </trkpt>
      <trkpt lat="44.05523" lon="5.78251">
        <ele>798</ele>
        <time>2000-01-01T16:20:08.000Z</time>
      </trkpt>
      <trkpt lat="44.05518" lon="5.78248">
        <ele>798.2</ele>
        <time>2000-01-01T16:20:18.000Z</time>
      </trkpt>
      <trkpt lat="44.05513" lon="5.78243">
        <ele>798.2</ele>
        <time>2000-01-01T16:20:28.000Z</time>
      </trkpt>
      <trkpt lat="44.05493" lon="5.78227">
        <ele>797</ele>
        <time>2000-01-01T16:20:38.000Z</time>
      </trkpt>
      <trkpt lat="44.05483" lon="5.7822">
        <ele>796.7</ele>
        <time>2000-01-01T16:20:48.000Z</time>
      </trkpt>
      <trkpt lat="44.05472" lon="5.78209">
        <ele>796</ele>
        <time>2000-01-01T16:20:58.000Z</time>
      </trkpt>
      <trkpt lat="44.05464" lon="5.78203">
        <ele>795.5</ele>
        <time>2000-01-01T16:21:08.000Z</time>
      </trkpt>
      <trkpt lat="44.05451" lon="5.78192">
        <ele>794</ele>
        <time>2000-01-01T16:21:18.000Z</time>
      </trkpt>
      <trkpt lat="44.05446" lon="5.78187">
        <ele>794.5</ele>
        <time>2000-01-01T16:21:28.000Z</time>
      </trkpt>
      <trkpt lat="44.0544" lon="5.78183">
        <ele>793.8</ele>
        <time>2000-01-01T16:21:38.000Z</time>
      </trkpt>
      <trkpt lat="44.05435" lon="5.78178">
        <ele>793.2</ele>
        <time>2000-01-01T16:21:48.000Z</time>
      </trkpt>
      <trkpt lat="44.05423" lon="5.78168">
        <ele>791</ele>
        <time>2000-01-01T16:21:58.000Z</time>
      </trkpt>
      <trkpt lat="44.05403" lon="5.78147">
        <ele>789</ele>
        <time>2000-01-01T16:22:08.000Z</time>
      </trkpt>
      <trkpt lat="44.05398" lon="5.78143">
        <ele>789.2</ele>
        <time>2000-01-01T16:22:18.000Z</time>
      </trkpt>
      <trkpt lat="44.05385" lon="5.78137">
        <ele>786</ele>
        <time>2000-01-01T16:22:28.000Z</time>
      </trkpt>
      <trkpt lat="44.05375" lon="5.78131">
        <ele>786.1</ele>
        <time>2000-01-01T16:22:38.000Z</time>
      </trkpt>
      <trkpt lat="44.05369" lon="5.78127">
        <ele>785.4</ele>
        <time>2000-01-01T16:22:48.000Z</time>
      </trkpt>
      <trkpt lat="44.05358" lon="5.78118">
        <ele>782</ele>
        <time>2000-01-01T16:22:58.000Z</time>
      </trkpt>
      <trkpt lat="44.05349" lon="5.78107">
        <ele>783.3</ele>
        <time>2000-01-01T16:23:08.000Z</time>
      </trkpt>
      <trkpt lat="44.0534" lon="5.78098">
        <ele>780</ele>
        <time>2000-01-01T16:23:18.000Z</time>
      </trkpt>
      <trkpt lat="44.05334" lon="5.78091">
        <ele>781.1</ele>
        <time>2000-01-01T16:23:28.000Z</time>
      </trkpt>
      <trkpt lat="44.05329" lon="5.78084">
        <ele>780.4</ele>
        <time>2000-01-01T16:23:38.000Z</time>
      </trkpt>
      <trkpt lat="44.05324" lon="5.78076">
        <ele>778</ele>
        <time>2000-01-01T16:23:48.000Z</time>
      </trkpt>
      <trkpt lat="44.0532" lon="5.78068">
        <ele>779.1</ele>
        <time>2000-01-01T16:23:58.000Z</time>
      </trkpt>
      <trkpt lat="44.05315" lon="5.78061">
        <ele>778.4</ele>
        <time>2000-01-01T16:24:08.000Z</time>
      </trkpt>
      <trkpt lat="44.05307" lon="5.78047">
        <ele>776</ele>
        <time>2000-01-01T16:24:18.000Z</time>
      </trkpt>
      <trkpt lat="44.05303" lon="5.78039">
        <ele>777.9</ele>
        <time>2000-01-01T16:24:28.000Z</time>
      </trkpt>
      <trkpt lat="44.05301" lon="5.78033">
        <ele>778.1</ele>
        <time>2000-01-01T16:24:38.000Z</time>
      </trkpt>
      <trkpt lat="44.05298" lon="5.78028">
        <ele>778.2</ele>
        <time>2000-01-01T16:24:48.000Z</time>
      </trkpt>
      <trkpt lat="44.05277" lon="5.78012">
        <ele>776</ele>
        <time>2000-01-01T16:24:58.000Z</time>
      </trkpt>
      <trkpt lat="44.05263" lon="5.77996">
        <ele>776.2</ele>
        <time>2000-01-01T16:25:08.000Z</time>
      </trkpt>
      <trkpt lat="44.05259" lon="5.7799">
        <ele>775</ele>
        <time>2000-01-01T16:25:18.000Z</time>
      </trkpt>
      <trkpt lat="44.05254" lon="5.77985">
        <ele>775.7</ele>
        <time>2000-01-01T16:25:28.000Z</time>
      </trkpt>
      <trkpt lat="44.05249" lon="5.77981">
        <ele>775.3</ele>
        <time>2000-01-01T16:25:38.000Z</time>
      </trkpt>
      <trkpt lat="44.05238" lon="5.77974">
        <ele>773</ele>
        <time>2000-01-01T16:25:48.000Z</time>
      </trkpt>
      <trkpt lat="44.05226" lon="5.7797">
        <ele>773.5</ele>
        <time>2000-01-01T16:25:58.000Z</time>
      </trkpt>
      <trkpt lat="44.0522" lon="5.77969">
        <ele>772.8</ele>
        <time>2000-01-01T16:26:08.000Z</time>
      </trkpt>
      <trkpt lat="44.05213" lon="5.77965">
        <ele>771</ele>
        <time>2000-01-01T16:26:18.000Z</time>
      </trkpt>
      <trkpt lat="44.05204" lon="5.77955">
        <ele>771</ele>
        <time>2000-01-01T16:26:28.000Z</time>
      </trkpt>
      <trkpt lat="44.05198" lon="5.77953">
        <ele>770.2</ele>
        <time>2000-01-01T16:26:38.000Z</time>
      </trkpt>
      <trkpt lat="44.05192" lon="5.7795">
        <ele>769</ele>
        <time>2000-01-01T16:26:48.000Z</time>
      </trkpt>
      <trkpt lat="44.05177" lon="5.77934">
        <ele>767.9</ele>
        <time>2000-01-01T16:26:58.000Z</time>
      </trkpt>
      <trkpt lat="44.05143" lon="5.77906">
        <ele>764</ele>
        <time>2000-01-01T16:27:08.000Z</time>
      </trkpt>
      <trkpt lat="44.05132" lon="5.77899">
        <ele>762.7</ele>
        <time>2000-01-01T16:27:18.000Z</time>
      </trkpt>
      <trkpt lat="44.05127" lon="5.77897">
        <ele>762.1</ele>
        <time>2000-01-01T16:27:28.000Z</time>
      </trkpt>
      <trkpt lat="44.05122" lon="5.77892">
        <ele>761</ele>
        <time>2000-01-01T16:27:38.000Z</time>
      </trkpt>
      <trkpt lat="44.05116" lon="5.77889">
        <ele>760.7</ele>
        <time>2000-01-01T16:27:48.000Z</time>
      </trkpt>
      <trkpt lat="44.05106" lon="5.77882">
        <ele>759</ele>
        <time>2000-01-01T16:27:58.000Z</time>
      </trkpt>
      <trkpt lat="44.05089" lon="5.77874">
        <ele>754</ele>
        <time>2000-01-01T16:28:08.000Z</time>
      </trkpt>
      <trkpt lat="44.05083" lon="5.77872">
        <ele>754.3</ele>
        <time>2000-01-01T16:28:18.000Z</time>
      </trkpt>
      <trkpt lat="44.05078" lon="5.77872">
        <ele>753.4</ele>
        <time>2000-01-01T16:28:28.000Z</time>
      </trkpt>
      <trkpt lat="44.05073" lon="5.77873">
        <ele>752.5</ele>
        <time>2000-01-01T16:28:38.000Z</time>
      </trkpt>
      <trkpt lat="44.05058" lon="5.77884">
        <ele>750</ele>
        <time>2000-01-01T16:28:48.000Z</time>
      </trkpt>
      <trkpt lat="44.05053" lon="5.77889">
        <ele>750.5</ele>
        <time>2000-01-01T16:28:58.000Z</time>
      </trkpt>
      <trkpt lat="44.05047" lon="5.77901">
        <ele>749.9</ele>
        <time>2000-01-01T16:29:08.000Z</time>
      </trkpt>
      <trkpt lat="44.05041" lon="5.77908">
        <ele>748</ele>
        <time>2000-01-01T16:29:18.000Z</time>
      </trkpt>
      <trkpt lat="44.05036" lon="5.77911">
        <ele>748.3</ele>
        <time>2000-01-01T16:29:28.000Z</time>
      </trkpt>
      <trkpt lat="44.05023" lon="5.77917">
        <ele>746.3</ele>
        <time>2000-01-01T16:29:38.000Z</time>
      </trkpt>
      <trkpt lat="44.05012" lon="5.77927">
        <ele>744</ele>
        <time>2000-01-01T16:29:48.000Z</time>
      </trkpt>
      <trkpt lat="44.05002" lon="5.77943">
        <ele>743.3</ele>
        <time>2000-01-01T16:29:58.000Z</time>
      </trkpt>
      <trkpt lat="44.04999" lon="5.7795">
        <ele>741</ele>
        <time>2000-01-01T16:30:08.000Z</time>
      </trkpt>
      <trkpt lat="44.04997" lon="5.77958">
        <ele>742.1</ele>
        <time>2000-01-01T16:30:18.000Z</time>
      </trkpt>
      <trkpt lat="44.0499" lon="5.77971">
        <ele>740.6</ele>
        <time>2000-01-01T16:30:28.000Z</time>
      </trkpt>
      <trkpt lat="44.04982" lon="5.77984">
        <ele>739</ele>
        <time>2000-01-01T16:30:38.000Z</time>
      </trkpt>
      <trkpt lat="44.04978" lon="5.77989">
        <ele>738.7</ele>
        <time>2000-01-01T16:30:48.000Z</time>
      </trkpt>
      <trkpt lat="44.04972" lon="5.77992">
        <ele>738</ele>
        <time>2000-01-01T16:30:58.000Z</time>
      </trkpt>
      <trkpt lat="44.04967" lon="5.77993">
        <ele>737.3</ele>
        <time>2000-01-01T16:31:08.000Z</time>
      </trkpt>
      <trkpt lat="44.04962" lon="5.77995">
        <ele>736</ele>
        <time>2000-01-01T16:31:18.000Z</time>
      </trkpt>
      <trkpt lat="44.04956" lon="5.77995">
        <ele>735.8</ele>
        <time>2000-01-01T16:31:28.000Z</time>
      </trkpt>
      <trkpt lat="44.0495" lon="5.77998">
        <ele>734.9</ele>
        <time>2000-01-01T16:31:38.000Z</time>
      </trkpt>
      <trkpt lat="44.04939" lon="5.78007">
        <ele>732</ele>
        <time>2000-01-01T16:31:48.000Z</time>
      </trkpt>
      <trkpt lat="44.04933" lon="5.78013">
        <ele>732.6</ele>
        <time>2000-01-01T16:31:58.000Z</time>
      </trkpt>
      <trkpt lat="44.04929" lon="5.7802">
        <ele>731.9</ele>
        <time>2000-01-01T16:32:08.000Z</time>
      </trkpt>
      <trkpt lat="44.04927" lon="5.78028">
        <ele>730</ele>
        <time>2000-01-01T16:32:18.000Z</time>
      </trkpt>
      <trkpt lat="44.04923" lon="5.78035">
        <ele>730.7</ele>
        <time>2000-01-01T16:32:28.000Z</time>
      </trkpt>
      <trkpt lat="44.04922" lon="5.78039">
        <ele>730.4</ele>
        <time>2000-01-01T16:32:38.000Z</time>
      </trkpt>
      <trkpt lat="44.04917" lon="5.78046">
        <ele>729.4</ele>
        <time>2000-01-01T16:32:48.000Z</time>
      </trkpt>
      <trkpt lat="44.04912" lon="5.78051">
        <ele>728</ele>
        <time>2000-01-01T16:32:58.000Z</time>
      </trkpt>
      <trkpt lat="44.04908" lon="5.78059">
        <ele>727.8</ele>
        <time>2000-01-01T16:33:08.000Z</time>
      </trkpt>
      <trkpt lat="44.04905" lon="5.78086">
        <ele>727</ele>
        <time>2000-01-01T16:33:18.000Z</time>
      </trkpt>
      <trkpt lat="44.04902" lon="5.78097">
        <ele>726.7</ele>
        <time>2000-01-01T16:33:28.000Z</time>
      </trkpt>
      <trkpt lat="44.04898" lon="5.78101">
        <ele>726.1</ele>
        <time>2000-01-01T16:33:38.000Z</time>
      </trkpt>
      <trkpt lat="44.04892" lon="5.78104">
        <ele>725</ele>
        <time>2000-01-01T16:33:48.000Z</time>
      </trkpt>
      <trkpt lat="44.04888" lon="5.78109">
        <ele>724.9</ele>
        <time>2000-01-01T16:33:58.000Z</time>
      </trkpt>
      <trkpt lat="44.04883" lon="5.78133">
        <ele>724</ele>
        <time>2000-01-01T16:34:08.000Z</time>
      </trkpt>
      <trkpt lat="44.04875" lon="5.78153">
        <ele>724</ele>
        <time>2000-01-01T16:34:18.000Z</time>
      </trkpt>
      <trkpt lat="44.0487" lon="5.78158">
        <ele>722</ele>
        <time>2000-01-01T16:34:28.000Z</time>
      </trkpt>
      <trkpt lat="44.04864" lon="5.78158">
        <ele>723</ele>
        <time>2000-01-01T16:34:38.000Z</time>
      </trkpt>
      <trkpt lat="44.04816" lon="5.78137">
        <ele>718</ele>
        <time>2000-01-01T16:34:48.000Z</time>
      </trkpt>
      <trkpt lat="44.04796" lon="5.78131">
        <ele>716</ele>
        <time>2000-01-01T16:34:58.000Z</time>
      </trkpt>
      <trkpt lat="44.04784" lon="5.78125">
        <ele>715.4</ele>
        <time>2000-01-01T16:35:08.000Z</time>
      </trkpt>
      <trkpt lat="44.04778" lon="5.78123">
        <ele>715</ele>
        <time>2000-01-01T16:35:18.000Z</time>
      </trkpt>
      <trkpt lat="44.0476" lon="5.78114">
        <ele>712</ele>
        <time>2000-01-01T16:35:28.000Z</time>
      </trkpt>
      <trkpt lat="44.04747" lon="5.78111">
        <ele>712.6</ele>
        <time>2000-01-01T16:35:38.000Z</time>
      </trkpt>
      <trkpt lat="44.0474" lon="5.78108">
        <ele>710</ele>
        <time>2000-01-01T16:35:48.000Z</time>
      </trkpt>
      <trkpt lat="44.04734" lon="5.78107">
        <ele>710.7</ele>
        <time>2000-01-01T16:35:58.000Z</time>
      </trkpt>
      <trkpt lat="44.04721" lon="5.78101">
        <ele>710</ele>
        <time>2000-01-01T16:36:08.000Z</time>
      </trkpt>
      <trkpt lat="44.04714" lon="5.78099">
        <ele>708.7</ele>
        <time>2000-01-01T16:36:18.000Z</time>
      </trkpt>
      <trkpt lat="44.04701" lon="5.78093">
        <ele>707</ele>
        <time>2000-01-01T16:36:28.000Z</time>
      </trkpt>
      <trkpt lat="44.04683" lon="5.78082">
        <ele>705</ele>
        <time>2000-01-01T16:36:38.000Z</time>
      </trkpt>
      <trkpt lat="44.04676" lon="5.78079">
        <ele>704.8</ele>
        <time>2000-01-01T16:36:48.000Z</time>
      </trkpt>
      <trkpt lat="44.0467" lon="5.78075">
        <ele>704</ele>
        <time>2000-01-01T16:36:58.000Z</time>
      </trkpt>
      <trkpt lat="44.04657" lon="5.78065">
        <ele>702</ele>
        <time>2000-01-01T16:37:08.000Z</time>
      </trkpt>
      <trkpt lat="44.04648" lon="5.78057">
        <ele>701.7</ele>
        <time>2000-01-01T16:37:18.000Z</time>
      </trkpt>
      <trkpt lat="44.04619" lon="5.78038">
        <ele>697</ele>
        <time>2000-01-01T16:37:28.000Z</time>
      </trkpt>
      <trkpt lat="44.04613" lon="5.78035">
        <ele>698.2</ele>
        <time>2000-01-01T16:37:38.000Z</time>
      </trkpt>
      <trkpt lat="44.04606" lon="5.78033">
        <ele>697.5</ele>
        <time>2000-01-01T16:37:48.000Z</time>
      </trkpt>
      <trkpt lat="44.04595" lon="5.78027">
        <ele>695</ele>
        <time>2000-01-01T16:37:58.000Z</time>
      </trkpt>
      <trkpt lat="44.04582" lon="5.78022">
        <ele>694.7</ele>
        <time>2000-01-01T16:38:08.000Z</time>
      </trkpt>
      <trkpt lat="44.04575" lon="5.78018">
        <ele>693</ele>
        <time>2000-01-01T16:38:18.000Z</time>
      </trkpt>
      <trkpt lat="44.04571" lon="5.78014">
        <ele>693.8</ele>
        <time>2000-01-01T16:38:28.000Z</time>
      </trkpt>
      <trkpt lat="44.0456" lon="5.78007">
        <ele>692.8</ele>
        <time>2000-01-01T16:38:38.000Z</time>
      </trkpt>
      <trkpt lat="44.04547" lon="5.78002">
        <ele>691</ele>
        <time>2000-01-01T16:38:48.000Z</time>
      </trkpt>
      <trkpt lat="44.04542" lon="5.78001">
        <ele>691.1</ele>
        <time>2000-01-01T16:38:58.000Z</time>
      </trkpt>
      <trkpt lat="44.04538" lon="5.78001">
        <ele>690.8</ele>
        <time>2000-01-01T16:39:08.000Z</time>
      </trkpt>
      <trkpt lat="44.04535" lon="5.78002">
        <ele>690.6</ele>
        <time>2000-01-01T16:39:18.000Z</time>
      </trkpt>
      <trkpt lat="44.04531" lon="5.78005">
        <ele>690.3</ele>
        <time>2000-01-01T16:39:28.000Z</time>
      </trkpt>
      <trkpt lat="44.04518" lon="5.78011">
        <ele>688</ele>
        <time>2000-01-01T16:39:38.000Z</time>
      </trkpt>
      <trkpt lat="44.04509" lon="5.78017">
        <ele>688.2</ele>
        <time>2000-01-01T16:39:48.000Z</time>
      </trkpt>
      <trkpt lat="44.04504" lon="5.78019">
        <ele>687.7</ele>
        <time>2000-01-01T16:39:58.000Z</time>
      </trkpt>
      <trkpt lat="44.04491" lon="5.78022">
        <ele>686</ele>
        <time>2000-01-01T16:40:08.000Z</time>
      </trkpt>
      <trkpt lat="44.04473" lon="5.78022">
        <ele>686</ele>
        <time>2000-01-01T16:40:18.000Z</time>
      </trkpt>
      <trkpt lat="44.04465" lon="5.78025">
        <ele>684</ele>
        <time>2000-01-01T16:40:28.000Z</time>
      </trkpt>
      <trkpt lat="44.04457" lon="5.7803">
        <ele>684.9</ele>
        <time>2000-01-01T16:40:38.000Z</time>
      </trkpt>
      <trkpt lat="44.04443" lon="5.78048">
        <ele>683</ele>
        <time>2000-01-01T16:40:48.000Z</time>
      </trkpt>
      <trkpt lat="44.04441" lon="5.78048">
        <ele>683.8</ele>
        <time>2000-01-01T16:40:58.000Z</time>
      </trkpt>
      <trkpt lat="44.0443" lon="5.78055">
        <ele>683</ele>
        <time>2000-01-01T16:41:08.000Z</time>
      </trkpt>
      <trkpt lat="44.04424" lon="5.78057">
        <ele>682</ele>
        <time>2000-01-01T16:41:18.000Z</time>
      </trkpt>
      <trkpt lat="44.04414" lon="5.78063">
        <ele>681.8</ele>
        <time>2000-01-01T16:41:28.000Z</time>
      </trkpt>
      <trkpt lat="44.04404" lon="5.78065">
        <ele>680</ele>
        <time>2000-01-01T16:41:38.000Z</time>
      </trkpt>
      <trkpt lat="44.04395" lon="5.78071">
        <ele>680.4</ele>
        <time>2000-01-01T16:41:48.000Z</time>
      </trkpt>
      <trkpt lat="44.0439" lon="5.78077">
        <ele>680.1</ele>
        <time>2000-01-01T16:41:58.000Z</time>
      </trkpt>
      <trkpt lat="44.04383" lon="5.7808">
        <ele>679</ele>
        <time>2000-01-01T16:42:08.000Z</time>
      </trkpt>
      <trkpt lat="44.04371" lon="5.78088">
        <ele>678.7</ele>
        <time>2000-01-01T16:42:18.000Z</time>
      </trkpt>
      <trkpt lat="44.04351" lon="5.78094">
        <ele>677</ele>
        <time>2000-01-01T16:42:28.000Z</time>
      </trkpt>
      <trkpt lat="44.04339" lon="5.78103">
        <ele>677.2</ele>
        <time>2000-01-01T16:42:38.000Z</time>
      </trkpt>
      <trkpt lat="44.04329" lon="5.78113">
        <ele>675</ele>
        <time>2000-01-01T16:42:48.000Z</time>
      </trkpt>
      <trkpt lat="44.04325" lon="5.78118">
        <ele>676.4</ele>
        <time>2000-01-01T16:42:58.000Z</time>
      </trkpt>
      <trkpt lat="44.0431" lon="5.78129">
        <ele>674</ele>
        <time>2000-01-01T16:43:08.000Z</time>
      </trkpt>
      <trkpt lat="44.04298" lon="5.78135">
        <ele>674.5</ele>
        <time>2000-01-01T16:43:18.000Z</time>
      </trkpt>
      <trkpt lat="44.04289" lon="5.78143">
        <ele>673</ele>
        <time>2000-01-01T16:43:28.000Z</time>
      </trkpt>
      <trkpt lat="44.0428" lon="5.78154">
        <ele>673.7</ele>
        <time>2000-01-01T16:43:38.000Z</time>
      </trkpt>
      <trkpt lat="44.04272" lon="5.78165">
        <ele>673</ele>
        <time>2000-01-01T16:43:48.000Z</time>
      </trkpt>
      <trkpt lat="44.0426" lon="5.78184">
        <ele>673.4</ele>
        <time>2000-01-01T16:43:58.000Z</time>
      </trkpt>
      <trkpt lat="44.04254" lon="5.78197">
        <ele>673</ele>
        <time>2000-01-01T16:44:08.000Z</time>
      </trkpt>
      <trkpt lat="44.04246" lon="5.78208">
        <ele>672.6</ele>
        <time>2000-01-01T16:44:18.000Z</time>
      </trkpt>
      <trkpt lat="44.04243" lon="5.78214">
        <ele>672.4</ele>
        <time>2000-01-01T16:44:28.000Z</time>
      </trkpt>
      <trkpt lat="44.04241" lon="5.78221">
        <ele>672</ele>
        <time>2000-01-01T16:44:38.000Z</time>
      </trkpt>
      <trkpt lat="44.04236" lon="5.78223">
        <ele>672</ele>
        <time>2000-01-01T16:44:48.000Z</time>
      </trkpt>
      <trkpt lat="44.04234" lon="5.78222">
        <ele>671.8</ele>
        <time>2000-01-01T16:44:58.000Z</time>
      </trkpt>
      <trkpt lat="44.0423" lon="5.78225">
        <ele>671.7</ele>
        <time>2000-01-01T16:45:08.000Z</time>
      </trkpt>
      <trkpt lat="44.04227" lon="5.78234">
        <ele>671.8</ele>
        <time>2000-01-01T16:45:18.000Z</time>
      </trkpt>
      <trkpt lat="44.04223" lon="5.78239">
        <ele>671</ele>
        <time>2000-01-01T16:45:28.000Z</time>
      </trkpt>
      <trkpt lat="44.04218" lon="5.78243">
        <ele>671.3</ele>
        <time>2000-01-01T16:45:38.000Z</time>
      </trkpt>
      <trkpt lat="44.04215" lon="5.78249">
        <ele>671.2</ele>
        <time>2000-01-01T16:45:48.000Z</time>
      </trkpt>
      <trkpt lat="44.0421" lon="5.78275">
        <ele>670</ele>
        <time>2000-01-01T16:45:58.000Z</time>
      </trkpt>
      <trkpt lat="44.04208" lon="5.7829">
        <ele>670.5</ele>
        <time>2000-01-01T16:46:08.000Z</time>
      </trkpt>
      <trkpt lat="44.04203" lon="5.78314">
        <ele>669</ele>
        <time>2000-01-01T16:46:18.000Z</time>
      </trkpt>
      <trkpt lat="44.04201" lon="5.7833">
        <ele>669.5</ele>
        <time>2000-01-01T16:46:28.000Z</time>
      </trkpt>
      <trkpt lat="44.04197" lon="5.78346">
        <ele>668</ele>
        <time>2000-01-01T16:46:38.000Z</time>
      </trkpt>
      <trkpt lat="44.04196" lon="5.78354">
        <ele>668.4</ele>
        <time>2000-01-01T16:46:48.000Z</time>
      </trkpt>
      <trkpt lat="44.0419" lon="5.78378">
        <ele>667</ele>
        <time>2000-01-01T16:46:58.000Z</time>
      </trkpt>
      <trkpt lat="44.04187" lon="5.78403">
        <ele>667.2</ele>
        <time>2000-01-01T16:47:08.000Z</time>
      </trkpt>
      <trkpt lat="44.04175" lon="5.78448">
        <ele>666</ele>
        <time>2000-01-01T16:47:18.000Z</time>
      </trkpt>
      <trkpt lat="44.04172" lon="5.78455">
        <ele>667</ele>
        <time>2000-01-01T16:47:28.000Z</time>
      </trkpt>
      <trkpt lat="44.04156" lon="5.78475">
        <ele>666</ele>
        <time>2000-01-01T16:47:38.000Z</time>
      </trkpt>
      <trkpt lat="44.04151" lon="5.7848">
        <ele>666.3</ele>
        <time>2000-01-01T16:47:48.000Z</time>
      </trkpt>
      <trkpt lat="44.04143" lon="5.78493">
        <ele>666.7</ele>
        <time>2000-01-01T16:47:58.000Z</time>
      </trkpt>
      <trkpt lat="44.04137" lon="5.78505">
        <ele>665</ele>
        <time>2000-01-01T16:48:08.000Z</time>
      </trkpt>
      <trkpt lat="44.04129" lon="5.78529">
        <ele>666</ele>
        <time>2000-01-01T16:48:18.000Z</time>
      </trkpt>
      <trkpt lat="44.04127" lon="5.78544">
        <ele>665</ele>
        <time>2000-01-01T16:48:28.000Z</time>
      </trkpt>
      <trkpt lat="44.04125" lon="5.78552">
        <ele>666.4</ele>
        <time>2000-01-01T16:48:38.000Z</time>
      </trkpt>
      <trkpt lat="44.04123" lon="5.78567">
        <ele>666.9</ele>
        <time>2000-01-01T16:48:48.000Z</time>
      </trkpt>
      <trkpt lat="44.04123" lon="5.78574">
        <ele>667</ele>
        <time>2000-01-01T16:48:58.000Z</time>
      </trkpt>
      <trkpt lat="44.04121" lon="5.78589">
        <ele>667.9</ele>
        <time>2000-01-01T16:49:08.000Z</time>
      </trkpt>
      <trkpt lat="44.04121" lon="5.786">
        <ele>668.3</ele>
        <time>2000-01-01T16:49:18.000Z</time>
      </trkpt>
      <trkpt lat="44.04122" lon="5.78607">
        <ele>668</ele>
        <time>2000-01-01T16:49:28.000Z</time>
      </trkpt>
      <trkpt lat="44.04122" lon="5.78614">
        <ele>668.8</ele>
        <time>2000-01-01T16:49:38.000Z</time>
      </trkpt>
      <trkpt lat="44.04123" lon="5.78621">
        <ele>669</ele>
        <time>2000-01-01T16:49:48.000Z</time>
      </trkpt>
      <trkpt lat="44.04123" lon="5.78625">
        <ele>669.1</ele>
        <time>2000-01-01T16:49:58.000Z</time>
      </trkpt>
      <trkpt lat="44.04126" lon="5.78646">
        <ele>669</ele>
        <time>2000-01-01T16:50:08.000Z</time>
      </trkpt>
      <trkpt lat="44.04126" lon="5.78653">
        <ele>669.8</ele>
        <time>2000-01-01T16:50:18.000Z</time>
      </trkpt>
      <trkpt lat="44.04128" lon="5.78661">
        <ele>670.1</ele>
        <time>2000-01-01T16:50:28.000Z</time>
      </trkpt>
      <trkpt lat="44.04132" lon="5.7869">
        <ele>669</ele>
        <time>2000-01-01T16:50:38.000Z</time>
      </trkpt>
      <trkpt lat="44.04134" lon="5.78697">
        <ele>670.4</ele>
        <time>2000-01-01T16:50:48.000Z</time>
      </trkpt>
      <trkpt lat="44.04137" lon="5.7872">
        <ele>668</ele>
        <time>2000-01-01T16:50:58.000Z</time>
      </trkpt>
      <trkpt lat="44.04137" lon="5.78728">
        <ele>669.6</ele>
        <time>2000-01-01T16:51:08.000Z</time>
      </trkpt>
      <trkpt lat="44.04138" lon="5.78735">
        <ele>669.4</ele>
        <time>2000-01-01T16:51:18.000Z</time>
      </trkpt>
      <trkpt lat="44.04138" lon="5.78743">
        <ele>669.2</ele>
        <time>2000-01-01T16:51:28.000Z</time>
      </trkpt>
      <trkpt lat="44.04137" lon="5.78751">
        <ele>667</ele>
        <time>2000-01-01T16:51:38.000Z</time>
      </trkpt>
      <trkpt lat="44.04135" lon="5.78759">
        <ele>668.9</ele>
        <time>2000-01-01T16:51:48.000Z</time>
      </trkpt>
      <trkpt lat="44.04131" lon="5.78765">
        <ele>668.7</ele>
        <time>2000-01-01T16:51:58.000Z</time>
      </trkpt>
      <trkpt lat="44.04116" lon="5.7878">
        <ele>666</ele>
        <time>2000-01-01T16:52:08.000Z</time>
      </trkpt>
      <trkpt lat="44.04111" lon="5.78784">
        <ele>667.2</ele>
        <time>2000-01-01T16:52:18.000Z</time>
      </trkpt>
      <trkpt lat="44.04105" lon="5.78785">
        <ele>666.6</ele>
        <time>2000-01-01T16:52:28.000Z</time>
      </trkpt>
      <trkpt lat="44.04099" lon="5.78785">
        <ele>666</ele>
        <time>2000-01-01T16:52:38.000Z</time>
      </trkpt>
      <trkpt lat="44.04085" lon="5.78781">
        <ele>664</ele>
        <time>2000-01-01T16:52:48.000Z</time>
      </trkpt>
      <trkpt lat="44.04066" lon="5.78772">
        <ele>662</ele>
        <time>2000-01-01T16:52:58.000Z</time>
      </trkpt>
      <trkpt lat="44.04028" lon="5.7876">
        <ele>659</ele>
        <time>2000-01-01T16:53:08.000Z</time>
      </trkpt>
      <trkpt lat="44.03991" lon="5.78744">
        <ele>656</ele>
        <time>2000-01-01T16:53:18.000Z</time>
      </trkpt>
      <trkpt lat="44.03974" lon="5.7874">
        <ele>656.2</ele>
        <time>2000-01-01T16:53:28.000Z</time>
      </trkpt>
      <trkpt lat="44.03968" lon="5.78739">
        <ele>655</ele>
        <time>2000-01-01T16:53:38.000Z</time>
      </trkpt>
      <trkpt lat="44.03962" lon="5.78739">
        <ele>655.3</ele>
        <time>2000-01-01T16:53:48.000Z</time>
      </trkpt>
      <trkpt lat="44.03945" lon="5.78736">
        <ele>653</ele>
        <time>2000-01-01T16:53:58.000Z</time>
      </trkpt>
      <trkpt lat="44.03926" lon="5.78735">
        <ele>652.4</ele>
        <time>2000-01-01T16:54:08.000Z</time>
      </trkpt>
      <trkpt lat="44.03919" lon="5.78734">
        <ele>651</ele>
        <time>2000-01-01T16:54:18.000Z</time>
      </trkpt>
      <trkpt lat="44.03912" lon="5.78734">
        <ele>651.4</ele>
        <time>2000-01-01T16:54:28.000Z</time>
      </trkpt>
      <trkpt lat="44.03899" lon="5.78736">
        <ele>650</ele>
        <time>2000-01-01T16:54:38.000Z</time>
      </trkpt>
      <trkpt lat="44.03893" lon="5.78738">
        <ele>650.6</ele>
        <time>2000-01-01T16:54:48.000Z</time>
      </trkpt>
      <trkpt lat="44.03887" lon="5.78738">
        <ele>650.3</ele>
        <time>2000-01-01T16:54:58.000Z</time>
      </trkpt>
      <trkpt lat="44.03881" lon="5.7874">
        <ele>649.8</ele>
        <time>2000-01-01T16:55:08.000Z</time>
      </trkpt>
      <trkpt lat="44.03875" lon="5.78741">
        <ele>648</ele>
        <time>2000-01-01T16:55:18.000Z</time>
      </trkpt>
      <trkpt lat="44.03849" lon="5.78749">
        <ele>647</ele>
        <time>2000-01-01T16:55:28.000Z</time>
      </trkpt>
      <trkpt lat="44.03843" lon="5.7875">
        <ele>647.3</ele>
        <time>2000-01-01T16:55:38.000Z</time>
      </trkpt>
      <trkpt lat="44.03831" lon="5.78754">
        <ele>646.6</ele>
        <time>2000-01-01T16:55:48.000Z</time>
      </trkpt>
      <trkpt lat="44.03825" lon="5.78755">
        <ele>645</ele>
        <time>2000-01-01T16:55:58.000Z</time>
      </trkpt>
      <trkpt lat="44.03819" lon="5.78757">
        <ele>645.6</ele>
        <time>2000-01-01T16:56:08.000Z</time>
      </trkpt>
      <trkpt lat="44.038" lon="5.7876">
        <ele>643</ele>
        <time>2000-01-01T16:56:18.000Z</time>
      </trkpt>
      <trkpt lat="44.03782" lon="5.7876">
        <ele>642.9</ele>
        <time>2000-01-01T16:56:28.000Z</time>
      </trkpt>
      <trkpt lat="44.03775" lon="5.78759">
        <ele>642</ele>
        <time>2000-01-01T16:56:38.000Z</time>
      </trkpt>
      <trkpt lat="44.03769" lon="5.78759">
        <ele>642</ele>
        <time>2000-01-01T16:56:48.000Z</time>
      </trkpt>
      <trkpt lat="44.03762" lon="5.78757">
        <ele>641.6</ele>
        <time>2000-01-01T16:56:58.000Z</time>
      </trkpt>
      <trkpt lat="44.03737" lon="5.78753">
        <ele>639</ele>
        <time>2000-01-01T16:57:08.000Z</time>
      </trkpt>
      <trkpt lat="44.03731" lon="5.78751">
        <ele>639.6</ele>
        <time>2000-01-01T16:57:18.000Z</time>
      </trkpt>
      <trkpt lat="44.03725" lon="5.7875">
        <ele>639.2</ele>
        <time>2000-01-01T16:57:28.000Z</time>
      </trkpt>
      <trkpt lat="44.03707" lon="5.7875">
        <ele>637</ele>
        <time>2000-01-01T16:57:38.000Z</time>
      </trkpt>
      <trkpt lat="44.03695" lon="5.78754">
        <ele>636.9</ele>
        <time>2000-01-01T16:57:48.000Z</time>
      </trkpt>
      <trkpt lat="44.03683" lon="5.7876">
        <ele>635</ele>
        <time>2000-01-01T16:57:58.000Z</time>
      </trkpt>
      <trkpt lat="44.03677" lon="5.78762">
        <ele>635.2</ele>
        <time>2000-01-01T16:58:08.000Z</time>
      </trkpt>
      <trkpt lat="44.03671" lon="5.78765">
        <ele>634.8</ele>
        <time>2000-01-01T16:58:18.000Z</time>
      </trkpt>
      <trkpt lat="44.03665" lon="5.78769">
        <ele>634.6</ele>
        <time>2000-01-01T16:58:28.000Z</time>
      </trkpt>
      <trkpt lat="44.03634" lon="5.78784">
        <ele>632</ele>
        <time>2000-01-01T16:58:38.000Z</time>
      </trkpt>
      <trkpt lat="44.03628" lon="5.78788">
        <ele>632.4</ele>
        <time>2000-01-01T16:58:48.000Z</time>
      </trkpt>
      <trkpt lat="44.03613" lon="5.78795">
        <ele>630</ele>
        <time>2000-01-01T16:58:58.000Z</time>
      </trkpt>
      <trkpt lat="44.03607" lon="5.78799">
        <ele>631.4</ele>
        <time>2000-01-01T16:59:08.000Z</time>
      </trkpt>
      <trkpt lat="44.03595" lon="5.78805">
        <ele>630.3</ele>
        <time>2000-01-01T16:59:18.000Z</time>
      </trkpt>
      <trkpt lat="44.03589" lon="5.78807">
        <ele>628</ele>
        <time>2000-01-01T16:59:28.000Z</time>
      </trkpt>
      <trkpt lat="44.03583" lon="5.7881">
        <ele>629.1</ele>
        <time>2000-01-01T16:59:38.000Z</time>
      </trkpt>
      <trkpt lat="44.03565" lon="5.78819">
        <ele>627</ele>
        <time>2000-01-01T16:59:48.000Z</time>
      </trkpt>
      <trkpt lat="44.03559" lon="5.78823">
        <ele>627.9</ele>
        <time>2000-01-01T16:59:58.000Z</time>
      </trkpt>
      <trkpt lat="44.03553" lon="5.78825">
        <ele>627.6</ele>
        <time>2000-01-01T17:00:08.000Z</time>
      </trkpt>
      <trkpt lat="44.03546" lon="5.78826">
        <ele>626</ele>
        <time>2000-01-01T17:00:18.000Z</time>
      </trkpt>
      <trkpt lat="44.03534" lon="5.78826">
        <ele>627</ele>
        <time>2000-01-01T17:00:28.000Z</time>
      </trkpt>
      <trkpt lat="44.03516" lon="5.78823">
        <ele>625</ele>
        <time>2000-01-01T17:00:38.000Z</time>
      </trkpt>
      <trkpt lat="44.03492" lon="5.78816">
        <ele>624</ele>
        <time>2000-01-01T17:00:48.000Z</time>
      </trkpt>
      <trkpt lat="44.03467" lon="5.78809">
        <ele>622</ele>
        <time>2000-01-01T17:00:58.000Z</time>
      </trkpt>
      <trkpt lat="44.03449" lon="5.78806">
        <ele>623</ele>
        <time>2000-01-01T17:01:08.000Z</time>
      </trkpt>
      <trkpt lat="44.03443" lon="5.78808">
        <ele>622</ele>
        <time>2000-01-01T17:01:18.000Z</time>
      </trkpt>
      <trkpt lat="44.03438" lon="5.78812">
        <ele>622.9</ele>
        <time>2000-01-01T17:01:28.000Z</time>
      </trkpt>
      <trkpt lat="44.0343" lon="5.78822">
        <ele>622.8</ele>
        <time>2000-01-01T17:01:38.000Z</time>
      </trkpt>
      <trkpt lat="44.03418" lon="5.78839">
        <ele>621</ele>
        <time>2000-01-01T17:01:48.000Z</time>
      </trkpt>
      <trkpt lat="44.03413" lon="5.78844">
        <ele>622.6</ele>
        <time>2000-01-01T17:01:58.000Z</time>
      </trkpt>
      <trkpt lat="44.03409" lon="5.7885">
        <ele>622.8</ele>
        <time>2000-01-01T17:02:08.000Z</time>
      </trkpt>
      <trkpt lat="44.03399" lon="5.78857">
        <ele>621</ele>
        <time>2000-01-01T17:02:18.000Z</time>
      </trkpt>
      <trkpt lat="44.03388" lon="5.78859">
        <ele>621.9</ele>
        <time>2000-01-01T17:02:28.000Z</time>
      </trkpt>
      <trkpt lat="44.03375" lon="5.78863">
        <ele>620</ele>
        <time>2000-01-01T17:02:38.000Z</time>
      </trkpt>
      <trkpt lat="44.03369" lon="5.78864">
        <ele>620.8</ele>
        <time>2000-01-01T17:02:48.000Z</time>
      </trkpt>
      <trkpt lat="44.03345" lon="5.78872">
        <ele>619</ele>
        <time>2000-01-01T17:02:58.000Z</time>
      </trkpt>
      <trkpt lat="44.03339" lon="5.78873">
        <ele>619.3</ele>
        <time>2000-01-01T17:03:08.000Z</time>
      </trkpt>
      <trkpt lat="44.03327" lon="5.78877">
        <ele>618.9</ele>
        <time>2000-01-01T17:03:18.000Z</time>
      </trkpt>
      <trkpt lat="44.03315" lon="5.78879">
        <ele>617</ele>
        <time>2000-01-01T17:03:28.000Z</time>
      </trkpt>
      <trkpt lat="44.03286" lon="5.78887">
        <ele>617</ele>
        <time>2000-01-01T17:03:38.000Z</time>
      </trkpt>
      <trkpt lat="44.03281" lon="5.7889">
        <ele>617.3</ele>
        <time>2000-01-01T17:03:48.000Z</time>
      </trkpt>
      <trkpt lat="44.03261" lon="5.78906">
        <ele>616</ele>
        <time>2000-01-01T17:03:58.000Z</time>
      </trkpt>
      <trkpt lat="44.0325" lon="5.78914">
        <ele>617.7</ele>
        <time>2000-01-01T17:04:08.000Z</time>
      </trkpt>
      <trkpt lat="44.03241" lon="5.78924">
        <ele>616</ele>
        <time>2000-01-01T17:04:18.000Z</time>
      </trkpt>
      <trkpt lat="44.03229" lon="5.78944">
        <ele>615.7</ele>
        <time>2000-01-01T17:04:28.000Z</time>
      </trkpt>
      <trkpt lat="44.03216" lon="5.78961">
        <ele>613</ele>
        <time>2000-01-01T17:04:38.000Z</time>
      </trkpt>
      <trkpt lat="44.03206" lon="5.7897">
        <ele>613</ele>
        <time>2000-01-01T17:04:48.000Z</time>
      </trkpt>
      <trkpt lat="44.03201" lon="5.78976">
        <ele>612.1</ele>
        <time>2000-01-01T17:04:58.000Z</time>
      </trkpt>
      <trkpt lat="44.03194" lon="5.7898">
        <ele>612</ele>
        <time>2000-01-01T17:05:08.000Z</time>
      </trkpt>
      <trkpt lat="44.03182" lon="5.78989">
        <ele>609</ele>
        <time>2000-01-01T17:05:18.000Z</time>
      </trkpt>
      <trkpt lat="44.03172" lon="5.78998">
        <ele>608</ele>
        <time>2000-01-01T17:05:28.000Z</time>
      </trkpt>
      <trkpt lat="44.03164" lon="5.79012">
        <ele>605.6</ele>
        <time>2000-01-01T17:05:38.000Z</time>
      </trkpt>
      <trkpt lat="44.03163" lon="5.79019">
        <ele>605.4</ele>
        <time>2000-01-01T17:05:48.000Z</time>
      </trkpt>
      <trkpt lat="44.03163" lon="5.79026">
        <ele>605</ele>
        <time>2000-01-01T17:05:58.000Z</time>
      </trkpt>
      <trkpt lat="44.03165" lon="5.7903">
        <ele>605.2</ele>
        <time>2000-01-01T17:06:08.000Z</time>
      </trkpt>
      <trkpt lat="44.03168" lon="5.79032">
        <ele>605.4</ele>
        <time>2000-01-01T17:06:18.000Z</time>
      </trkpt>
      <trkpt lat="44.03172" lon="5.79037">
        <ele>606</ele>
        <time>2000-01-01T17:06:28.000Z</time>
      </trkpt>
      <trkpt lat="44.03178" lon="5.79055">
        <ele>605</ele>
        <time>2000-01-01T17:06:38.000Z</time>
      </trkpt>
      <trkpt lat="44.03178" lon="5.79061">
        <ele>606.9</ele>
        <time>2000-01-01T17:06:48.000Z</time>
      </trkpt>
      <trkpt lat="44.03179" lon="5.79065">
        <ele>607.1</ele>
        <time>2000-01-01T17:06:58.000Z</time>
      </trkpt>
      <trkpt lat="44.03183" lon="5.79074">
        <ele>607.3</ele>
        <time>2000-01-01T17:07:08.000Z</time>
      </trkpt>
      <trkpt lat="44.03186" lon="5.79078">
        <ele>607.4</ele>
        <time>2000-01-01T17:07:18.000Z</time>
      </trkpt>
      <trkpt lat="44.03188" lon="5.79083">
        <ele>607</ele>
        <time>2000-01-01T17:07:28.000Z</time>
      </trkpt>
      <trkpt lat="44.03192" lon="5.79088">
        <ele>607.5</ele>
        <time>2000-01-01T17:07:38.000Z</time>
      </trkpt>
      <trkpt lat="44.03193" lon="5.79093">
        <ele>607.8</ele>
        <time>2000-01-01T17:07:48.000Z</time>
      </trkpt>
      <trkpt lat="44.03195" lon="5.79098">
        <ele>608.1</ele>
        <time>2000-01-01T17:07:58.000Z</time>
      </trkpt>
      <trkpt lat="44.03198" lon="5.79111">
        <ele>609</ele>
        <time>2000-01-01T17:08:08.000Z</time>
      </trkpt>
      <trkpt lat="44.03198" lon="5.79115">
        <ele>609.1</ele>
        <time>2000-01-01T17:08:18.000Z</time>
      </trkpt>
      <trkpt lat="44.03203" lon="5.79141">
        <ele>609</ele>
        <time>2000-01-01T17:08:28.000Z</time>
      </trkpt>
      <trkpt lat="44.03203" lon="5.79146">
        <ele>610.3</ele>
        <time>2000-01-01T17:08:38.000Z</time>
      </trkpt>
      <trkpt lat="44.03207" lon="5.79157">
        <ele>610</ele>
        <time>2000-01-01T17:08:48.000Z</time>
      </trkpt>
      <trkpt lat="44.03209" lon="5.79166">
        <ele>609.9</ele>
        <time>2000-01-01T17:08:58.000Z</time>
      </trkpt>
      <trkpt lat="44.03211" lon="5.7917">
        <ele>609</ele>
        <time>2000-01-01T17:09:08.000Z</time>
      </trkpt>
      <trkpt lat="44.03213" lon="5.79177">
        <ele>610.3</ele>
        <time>2000-01-01T17:09:18.000Z</time>
      </trkpt>
      <trkpt lat="44.03213" lon="5.79203">
        <ele>613</ele>
        <time>2000-01-01T17:09:28.000Z</time>
      </trkpt>
      <trkpt lat="44.03211" lon="5.79215">
        <ele>613.7</ele>
        <time>2000-01-01T17:09:38.000Z</time>
      </trkpt>
      <trkpt lat="44.03211" lon="5.7923">
        <ele>614</ele>
        <time>2000-01-01T17:09:48.000Z</time>
      </trkpt>
      <trkpt lat="44.0321" lon="5.79235">
        <ele>614.7</ele>
        <time>2000-01-01T17:09:58.000Z</time>
      </trkpt>
      <trkpt lat="44.0321" lon="5.79239">
        <ele>614.8</ele>
        <time>2000-01-01T17:10:08.000Z</time>
      </trkpt>
      <trkpt lat="44.03208" lon="5.79245">
        <ele>615.4</ele>
        <time>2000-01-01T17:10:18.000Z</time>
      </trkpt>
      <trkpt lat="44.03208" lon="5.79252">
        <ele>615.7</ele>
        <time>2000-01-01T17:10:28.000Z</time>
      </trkpt>
      <trkpt lat="44.03205" lon="5.79263">
        <ele>618</ele>
        <time>2000-01-01T17:10:38.000Z</time>
      </trkpt>
      <trkpt lat="44.03194" lon="5.79284">
        <ele>619.3</ele>
        <time>2000-01-01T17:10:48.000Z</time>
      </trkpt>
      <trkpt lat="44.03193" lon="5.79288">
        <ele>619</ele>
        <time>2000-01-01T17:10:58.000Z</time>
      </trkpt>
      <trkpt lat="44.03188" lon="5.79298">
        <ele>621.1</ele>
        <time>2000-01-01T17:11:08.000Z</time>
      </trkpt>
      <trkpt lat="44.03178" lon="5.79305">
        <ele>625</ele>
        <time>2000-01-01T17:11:18.000Z</time>
      </trkpt>
      <trkpt lat="44.03174" lon="5.79312">
        <ele>623.5</ele>
        <time>2000-01-01T17:11:28.000Z</time>
      </trkpt>
      <trkpt lat="44.03173" lon="5.79316">
        <ele>623.6</ele>
        <time>2000-01-01T17:11:38.000Z</time>
      </trkpt>
      <trkpt lat="44.03171" lon="5.7932">
        <ele>623.8</ele>
        <time>2000-01-01T17:11:48.000Z</time>
      </trkpt>
      <trkpt lat="44.03164" lon="5.7935">
        <ele>625</ele>
        <time>2000-01-01T17:11:58.000Z</time>
      </trkpt>
      <trkpt lat="44.03162" lon="5.79352">
        <ele>625.2</ele>
        <time>2000-01-01T17:12:08.000Z</time>
      </trkpt>
      <trkpt lat="44.03154" lon="5.79357">
        <ele>626.9</ele>
        <time>2000-01-01T17:12:18.000Z</time>
      </trkpt>
      <trkpt lat="44.0315" lon="5.79364">
        <ele>627.3</ele>
        <time>2000-01-01T17:12:28.000Z</time>
      </trkpt>
      <trkpt lat="44.03147" lon="5.79371">
        <ele>628</ele>
        <time>2000-01-01T17:12:38.000Z</time>
      </trkpt>
      <trkpt lat="44.03134" lon="5.79387">
        <ele>629.9</ele>
        <time>2000-01-01T17:12:48.000Z</time>
      </trkpt>
      <trkpt lat="44.03131" lon="5.79397">
        <ele>630</ele>
        <time>2000-01-01T17:12:58.000Z</time>
      </trkpt>
      <trkpt lat="44.03129" lon="5.794">
        <ele>631.1</ele>
        <time>2000-01-01T17:13:08.000Z</time>
      </trkpt>
      <trkpt lat="44.03129" lon="5.79403">
        <ele>630.8</ele>
        <time>2000-01-01T17:13:18.000Z</time>
      </trkpt>
      <trkpt lat="44.03127" lon="5.79411">
        <ele>631</ele>
        <time>2000-01-01T17:13:28.000Z</time>
      </trkpt>
      <trkpt lat="44.03125" lon="5.79416">
        <ele>631.6</ele>
        <time>2000-01-01T17:13:38.000Z</time>
      </trkpt>
      <trkpt lat="44.0312" lon="5.79436">
        <ele>639</ele>
        <time>2000-01-01T17:13:48.000Z</time>
      </trkpt>
      <trkpt lat="44.03117" lon="5.79442">
        <ele>632.4</ele>
        <time>2000-01-01T17:13:58.000Z</time>
      </trkpt>
      <trkpt lat="44.03116" lon="5.79446">
        <ele>632.3</ele>
        <time>2000-01-01T17:14:08.000Z</time>
      </trkpt>
      <trkpt lat="44.03111" lon="5.79455">
        <ele>633.1</ele>
        <time>2000-01-01T17:14:18.000Z</time>
      </trkpt>
      <trkpt lat="44.03108" lon="5.79458">
        <ele>638</ele>
        <time>2000-01-01T17:14:28.000Z</time>
      </trkpt>
      <trkpt lat="44.03107" lon="5.79462">
        <ele>633.5</ele>
        <time>2000-01-01T17:14:38.000Z</time>
      </trkpt>
      <trkpt lat="44.03101" lon="5.79473">
        <ele>633.9</ele>
        <time>2000-01-01T17:14:48.000Z</time>
      </trkpt>
      <trkpt lat="44.03097" lon="5.79479">
        <ele>634.5</ele>
        <time>2000-01-01T17:14:58.000Z</time>
      </trkpt>
      <trkpt lat="44.03094" lon="5.79482">
        <ele>637</ele>
        <time>2000-01-01T17:15:08.000Z</time>
      </trkpt>
      <trkpt lat="44.03088" lon="5.79491">
        <ele>636.3</ele>
        <time>2000-01-01T17:15:18.000Z</time>
      </trkpt>
      <trkpt lat="44.03086" lon="5.79495">
        <ele>636.6</ele>
        <time>2000-01-01T17:15:28.000Z</time>
      </trkpt>
      <trkpt lat="44.03084" lon="5.79496">
        <ele>637.3</ele>
        <time>2000-01-01T17:15:38.000Z</time>
      </trkpt>
      <trkpt lat="44.03081" lon="5.79502">
        <ele>637</ele>
        <time>2000-01-01T17:15:48.000Z</time>
      </trkpt>
      <trkpt lat="44.03078" lon="5.79506">
        <ele>637.6</ele>
        <time>2000-01-01T17:15:58.000Z</time>
      </trkpt>
      <trkpt lat="44.03075" lon="5.79515">
        <ele>636.7</ele>
        <time>2000-01-01T17:16:08.000Z</time>
      </trkpt>
      <trkpt lat="44.03068" lon="5.79528">
        <ele>638</ele>
        <time>2000-01-01T17:16:18.000Z</time>
      </trkpt>
      <trkpt lat="44.03061" lon="5.79538">
        <ele>638.2</ele>
        <time>2000-01-01T17:16:28.000Z</time>
      </trkpt>
      <trkpt lat="44.03056" lon="5.79548">
        <ele>638.2</ele>
        <time>2000-01-01T17:16:38.000Z</time>
      </trkpt>
      <trkpt lat="44.03054" lon="5.79551">
        <ele>640</ele>
        <time>2000-01-01T17:16:48.000Z</time>
      </trkpt>
      <trkpt lat="44.03051" lon="5.79553">
        <ele>639.3</ele>
        <time>2000-01-01T17:16:58.000Z</time>
      </trkpt>
      <trkpt lat="44.03049" lon="5.79556">
        <ele>639.5</ele>
        <time>2000-01-01T17:17:08.000Z</time>
      </trkpt>
      <trkpt lat="44.0304" lon="5.79564">
        <ele>641.9</ele>
        <time>2000-01-01T17:17:18.000Z</time>
      </trkpt>
      <trkpt lat="44.03038" lon="5.79567">
        <ele>645</ele>
        <time>2000-01-01T17:17:28.000Z</time>
      </trkpt>
      <trkpt lat="44.03032" lon="5.79571">
        <ele>643.3</ele>
        <time>2000-01-01T17:17:38.000Z</time>
      </trkpt>
      <trkpt lat="44.03028" lon="5.79575">
        <ele>643.7</ele>
        <time>2000-01-01T17:17:48.000Z</time>
      </trkpt>
      <trkpt lat="44.03024" lon="5.79581">
        <ele>644</ele>
        <time>2000-01-01T17:17:58.000Z</time>
      </trkpt>
      <trkpt lat="44.03021" lon="5.79583">
        <ele>646</ele>
        <time>2000-01-01T17:18:08.000Z</time>
      </trkpt>
      <trkpt lat="44.03019" lon="5.79586">
        <ele>645.2</ele>
        <time>2000-01-01T17:18:18.000Z</time>
      </trkpt>
      <trkpt lat="44.03018" lon="5.79589">
        <ele>645.3</ele>
        <time>2000-01-01T17:18:28.000Z</time>
      </trkpt>
      <trkpt lat="44.03008" lon="5.79603">
        <ele>650</ele>
        <time>2000-01-01T17:18:38.000Z</time>
      </trkpt>
      <trkpt lat="44.03001" lon="5.79609">
        <ele>649.8</ele>
        <time>2000-01-01T17:18:48.000Z</time>
      </trkpt>
      <trkpt lat="44.02997" lon="5.79611">
        <ele>650.6</ele>
        <time>2000-01-01T17:18:58.000Z</time>
      </trkpt>
      <trkpt lat="44.02991" lon="5.79617">
        <ele>652</ele>
        <time>2000-01-01T17:19:08.000Z</time>
      </trkpt>
      <trkpt lat="44.02983" lon="5.79629">
        <ele>652.7</ele>
        <time>2000-01-01T17:19:18.000Z</time>
      </trkpt>
      <trkpt lat="44.02981" lon="5.79633">
        <ele>652.9</ele>
        <time>2000-01-01T17:19:28.000Z</time>
      </trkpt>
      <trkpt lat="44.02974" lon="5.7964">
        <ele>654</ele>
        <time>2000-01-01T17:19:38.000Z</time>
      </trkpt>
      <trkpt lat="44.02968" lon="5.79651">
        <ele>654.7</ele>
        <time>2000-01-01T17:19:48.000Z</time>
      </trkpt>
      <trkpt lat="44.02962" lon="5.79658">
        <ele>655.2</ele>
        <time>2000-01-01T17:19:58.000Z</time>
      </trkpt>
      <trkpt lat="44.02961" lon="5.7966">
        <ele>654</ele>
        <time>2000-01-01T17:20:08.000Z</time>
      </trkpt>
      <trkpt lat="44.02955" lon="5.7966">
        <ele>655.5</ele>
        <time>2000-01-01T17:20:18.000Z</time>
      </trkpt>
      <trkpt lat="44.02952" lon="5.79659">
        <ele>655.7</ele>
        <time>2000-01-01T17:20:28.000Z</time>
      </trkpt>
      <trkpt lat="44.02941" lon="5.79652">
        <ele>653</ele>
        <time>2000-01-01T17:20:38.000Z</time>
      </trkpt>
      <trkpt lat="44.02937" lon="5.79651">
        <ele>655.8</ele>
        <time>2000-01-01T17:20:48.000Z</time>
      </trkpt>
      <trkpt lat="44.02936" lon="5.7965">
        <ele>655.8</ele>
        <time>2000-01-01T17:20:58.000Z</time>
      </trkpt>
      <trkpt lat="44.02929" lon="5.79647">
        <ele>655.6</ele>
        <time>2000-01-01T17:21:08.000Z</time>
      </trkpt>
      <trkpt lat="44.02909" lon="5.79632">
        <ele>653</ele>
        <time>2000-01-01T17:21:18.000Z</time>
      </trkpt>
      <trkpt lat="44.02906" lon="5.79629">
        <ele>653.9</ele>
        <time>2000-01-01T17:21:28.000Z</time>
      </trkpt>
      <trkpt lat="44.02904" lon="5.79626">
        <ele>653.6</ele>
        <time>2000-01-01T17:21:38.000Z</time>
      </trkpt>
      <trkpt lat="44.02893" lon="5.79617">
        <ele>652</ele>
        <time>2000-01-01T17:21:48.000Z</time>
      </trkpt>
      <trkpt lat="44.0289" lon="5.79616">
        <ele>652.3</ele>
        <time>2000-01-01T17:21:58.000Z</time>
      </trkpt>
      <trkpt lat="44.02888" lon="5.79618">
        <ele>652.2</ele>
        <time>2000-01-01T17:22:08.000Z</time>
      </trkpt>
      <trkpt lat="44.0289" lon="5.79625">
        <ele>652.6</ele>
        <time>2000-01-01T17:22:18.000Z</time>
      </trkpt>
      <trkpt lat="44.02892" lon="5.79629">
        <ele>652.9</ele>
        <time>2000-01-01T17:22:28.000Z</time>
      </trkpt>
      <trkpt lat="44.02894" lon="5.79638">
        <ele>652</ele>
        <time>2000-01-01T17:22:38.000Z</time>
      </trkpt>
      <trkpt lat="44.02894" lon="5.79643">
        <ele>653.5</ele>
        <time>2000-01-01T17:22:48.000Z</time>
      </trkpt>
      <trkpt lat="44.02893" lon="5.79649">
        <ele>653.7</ele>
        <time>2000-01-01T17:22:58.000Z</time>
      </trkpt>
      <trkpt lat="44.02887" lon="5.79667">
        <ele>652</ele>
        <time>2000-01-01T17:23:08.000Z</time>
      </trkpt>
      <trkpt lat="44.02881" lon="5.79679">
        <ele>654</ele>
        <time>2000-01-01T17:23:18.000Z</time>
      </trkpt>
      <trkpt lat="44.02879" lon="5.79691">
        <ele>654.5</ele>
        <time>2000-01-01T17:23:28.000Z</time>
      </trkpt>
      <trkpt lat="44.02876" lon="5.79697">
        <ele>653</ele>
        <time>2000-01-01T17:23:38.000Z</time>
      </trkpt>
      <trkpt lat="44.02875" lon="5.79702">
        <ele>654.9</ele>
        <time>2000-01-01T17:23:48.000Z</time>
      </trkpt>
      <trkpt lat="44.02871" lon="5.79714">
        <ele>655.5</ele>
        <time>2000-01-01T17:23:58.000Z</time>
      </trkpt>
      <trkpt lat="44.02858" lon="5.79737">
        <ele>653</ele>
        <time>2000-01-01T17:24:08.000Z</time>
      </trkpt>
      <trkpt lat="44.0285" lon="5.79747">
        <ele>655.7</ele>
        <time>2000-01-01T17:24:18.000Z</time>
      </trkpt>
      <trkpt lat="44.02846" lon="5.79753">
        <ele>655.4</ele>
        <time>2000-01-01T17:24:28.000Z</time>
      </trkpt>
      <trkpt lat="44.02836" lon="5.79772">
        <ele>653</ele>
        <time>2000-01-01T17:24:38.000Z</time>
      </trkpt>
      <trkpt lat="44.02832" lon="5.79776">
        <ele>654.9</ele>
        <time>2000-01-01T17:24:48.000Z</time>
      </trkpt>
      <trkpt lat="44.02827" lon="5.79778">
        <ele>654.8</ele>
        <time>2000-01-01T17:24:58.000Z</time>
      </trkpt>
      <trkpt lat="44.02816" lon="5.79775">
        <ele>653</ele>
        <time>2000-01-01T17:25:08.000Z</time>
      </trkpt>
      <trkpt lat="44.02797" lon="5.79761">
        <ele>652</ele>
        <time>2000-01-01T17:25:18.000Z</time>
      </trkpt>
      <trkpt lat="44.02795" lon="5.79758">
        <ele>652.8</ele>
        <time>2000-01-01T17:25:28.000Z</time>
      </trkpt>
      <trkpt lat="44.02786" lon="5.79752">
        <ele>652.2</ele>
        <time>2000-01-01T17:25:38.000Z</time>
      </trkpt>
      <trkpt lat="44.02776" lon="5.79748">
        <ele>651</ele>
        <time>2000-01-01T17:25:48.000Z</time>
      </trkpt>
      <trkpt lat="44.02771" lon="5.79744">
        <ele>651.4</ele>
        <time>2000-01-01T17:25:58.000Z</time>
      </trkpt>
      <trkpt lat="44.02759" lon="5.79746">
        <ele>651.6</ele>
        <time>2000-01-01T17:26:08.000Z</time>
      </trkpt>
      <trkpt lat="44.02754" lon="5.79746">
        <ele>651</ele>
        <time>2000-01-01T17:26:18.000Z</time>
      </trkpt>
      <trkpt lat="44.02739" lon="5.79754">
        <ele>651.5</ele>
        <time>2000-01-01T17:26:28.000Z</time>
      </trkpt>
      <trkpt lat="44.02735" lon="5.79757">
        <ele>651</ele>
        <time>2000-01-01T17:26:38.000Z</time>
      </trkpt>
      <trkpt lat="44.02726" lon="5.79757">
        <ele>650.6</ele>
        <time>2000-01-01T17:26:48.000Z</time>
      </trkpt>
      <trkpt lat="44.02715" lon="5.79755">
        <ele>648</ele>
        <time>2000-01-01T17:26:58.000Z</time>
      </trkpt>
      <trkpt lat="44.0271" lon="5.79755">
        <ele>648.3</ele>
        <time>2000-01-01T17:27:08.000Z</time>
      </trkpt>
      <trkpt lat="44.02701" lon="5.79759">
        <ele>647</ele>
        <time>2000-01-01T17:27:18.000Z</time>
      </trkpt>
      <trkpt lat="44.02696" lon="5.7976">
        <ele>646</ele>
        <time>2000-01-01T17:27:28.000Z</time>
      </trkpt>
      <trkpt lat="44.02692" lon="5.79764">
        <ele>645.2</ele>
        <time>2000-01-01T17:27:38.000Z</time>
      </trkpt>
      <trkpt lat="44.02691" lon="5.79772">
        <ele>644.9</ele>
        <time>2000-01-01T17:27:48.000Z</time>
      </trkpt>
      <trkpt lat="44.02688" lon="5.7978">
        <ele>643.6</ele>
        <time>2000-01-01T17:27:58.000Z</time>
      </trkpt>
      <trkpt lat="44.02684" lon="5.79785">
        <ele>641</ele>
        <time>2000-01-01T17:28:08.000Z</time>
      </trkpt>
      <trkpt lat="44.02681" lon="5.79792">
        <ele>640.1</ele>
        <time>2000-01-01T17:28:18.000Z</time>
      </trkpt>
      <trkpt lat="44.02671" lon="5.798">
        <ele>636.6</ele>
        <time>2000-01-01T17:28:28.000Z</time>
      </trkpt>
      <trkpt lat="44.02665" lon="5.79808">
        <ele>633</ele>
        <time>2000-01-01T17:28:38.000Z</time>
      </trkpt>
      <trkpt lat="44.02662" lon="5.79811">
        <ele>633.7</ele>
        <time>2000-01-01T17:28:48.000Z</time>
      </trkpt>
      <trkpt lat="44.02659" lon="5.79818">
        <ele>632.8</ele>
        <time>2000-01-01T17:28:58.000Z</time>
      </trkpt>
      <trkpt lat="44.02658" lon="5.79828">
        <ele>632</ele>
        <time>2000-01-01T17:29:08.000Z</time>
      </trkpt>
      <trkpt lat="44.02657" lon="5.7983">
        <ele>631.8</ele>
        <time>2000-01-01T17:29:18.000Z</time>
      </trkpt>
      <trkpt lat="44.02654" lon="5.79833">
        <ele>632</ele>
        <time>2000-01-01T17:29:28.000Z</time>
      </trkpt>
      <trkpt lat="44.0265" lon="5.79832">
        <ele>631.4</ele>
        <time>2000-01-01T17:29:38.000Z</time>
      </trkpt>
      <trkpt lat="44.02644" lon="5.79829">
        <ele>631.1</ele>
        <time>2000-01-01T17:29:48.000Z</time>
      </trkpt>
      <trkpt lat="44.02638" lon="5.79828">
        <ele>631</ele>
        <time>2000-01-01T17:29:58.000Z</time>
      </trkpt>
      <trkpt lat="44.02636" lon="5.79827">
        <ele>631.5</ele>
        <time>2000-01-01T17:30:08.000Z</time>
      </trkpt>
      <trkpt lat="44.02633" lon="5.79824">
        <ele>632</ele>
        <time>2000-01-01T17:30:18.000Z</time>
      </trkpt>
      <trkpt lat="44.0262" lon="5.79786">
        <ele>634</ele>
        <time>2000-01-01T17:30:28.000Z</time>
      </trkpt>
      <trkpt lat="44.0261" lon="5.79754">
        <ele>636</ele>
        <time>2000-01-01T17:30:38.000Z</time>
      </trkpt>
      <trkpt lat="44.02599" lon="5.79721">
        <ele>635</ele>
        <time>2000-01-01T17:30:48.000Z</time>
      </trkpt>
      <trkpt lat="44.02608" lon="5.79697">
        <ele>635</ele>
        <time>2000-01-01T17:30:58.000Z</time>
      </trkpt>
      <trkpt lat="44.02597" lon="5.79681">
        <ele>634.7</ele>
        <time>2000-01-01T17:31:08.000Z</time>
      </trkpt>
      <trkpt lat="44.02583" lon="5.79667">
        <ele>632</ele>
        <time>2000-01-01T17:31:18.000Z</time>
      </trkpt>
      <trkpt lat="44.02572" lon="5.79654">
        <ele>635.6</ele>
        <time>2000-01-01T17:31:28.000Z</time>
      </trkpt>
      <trkpt lat="44.02578" lon="5.79625">
        <ele>631</ele>
        <time>2000-01-01T17:31:38.000Z</time>
      </trkpt>
      <trkpt lat="44.02567" lon="5.79605">
        <ele>630.7</ele>
        <time>2000-01-01T17:31:48.000Z</time>
      </trkpt>
      <trkpt lat="44.02547" lon="5.79583">
        <ele>630</ele>
        <time>2000-01-01T17:31:58.000Z</time>
      </trkpt>
      <trkpt lat="44.02534" lon="5.79552">
        <ele>628</ele>
        <time>2000-01-01T17:32:08.000Z</time>
      </trkpt>
      <trkpt lat="44.02518" lon="5.79528">
        <ele>627</ele>
        <time>2000-01-01T17:32:18.000Z</time>
      </trkpt>
      <trkpt lat="44.02493" lon="5.79511">
        <ele>627</ele>
        <time>2000-01-01T17:32:28.000Z</time>
      </trkpt>
      <trkpt lat="44.02468" lon="5.79503">
        <ele>622</ele>
        <time>2000-01-01T17:32:38.000Z</time>
      </trkpt>
      <trkpt lat="44.02439" lon="5.79492">
        <ele>621</ele>
        <time>2000-01-01T17:32:48.000Z</time>
      </trkpt>
      <trkpt lat="44.02453" lon="5.79511">
        <ele>621</ele>
        <time>2000-01-01T17:32:58.000Z</time>
      </trkpt>
      <trkpt lat="44.02473" lon="5.79506">
        <ele>624</ele>
        <time>2000-01-01T17:33:08.000Z</time>
      </trkpt>
      <trkpt lat="44.02495" lon="5.79523">
        <ele>630</ele>
        <time>2000-01-01T17:33:18.000Z</time>
      </trkpt>
      <trkpt lat="44.02504" lon="5.7955">
        <ele>635</ele>
        <time>2000-01-01T17:33:28.000Z</time>
      </trkpt>
      <trkpt lat="44.02493" lon="5.79585">
        <ele>640</ele>
        <time>2000-01-01T17:33:38.000Z</time>
      </trkpt>
      <trkpt lat="44.02506" lon="5.79614">
        <ele>645</ele>
        <time>2000-01-01T17:33:48.000Z</time>
      </trkpt>
      <trkpt lat="44.02518" lon="5.79632">
        <ele>650.7</ele>
        <time>2000-01-01T17:33:58.000Z</time>
      </trkpt>
      <trkpt lat="44.02528" lon="5.7964">
        <ele>651</ele>
        <time>2000-01-01T17:34:08.000Z</time>
      </trkpt>
      <trkpt lat="44.02528" lon="5.79664">
        <ele>655.6</ele>
        <time>2000-01-01T17:34:18.000Z</time>
      </trkpt>
      <trkpt lat="44.02523" lon="5.79679">
        <ele>659</ele>
        <time>2000-01-01T17:34:28.000Z</time>
      </trkpt>
      <trkpt lat="44.02507" lon="5.79699">
        <ele>661</ele>
        <time>2000-01-01T17:34:38.000Z</time>
      </trkpt>
      <trkpt lat="44.02498" lon="5.79713">
        <ele>664.1</ele>
        <time>2000-01-01T17:34:48.000Z</time>
      </trkpt>
      <trkpt lat="44.02491" lon="5.79774">
        <ele>671</ele>
        <time>2000-01-01T17:34:58.000Z</time>
      </trkpt>
      <trkpt lat="44.0249" lon="5.79792">
        <ele>674.1</ele>
        <time>2000-01-01T17:35:08.000Z</time>
      </trkpt>
      <trkpt lat="44.02488" lon="5.79803">
        <ele>676</ele>
        <time>2000-01-01T17:35:18.000Z</time>
      </trkpt>
      <trkpt lat="44.02489" lon="5.79813">
        <ele>676.3</ele>
        <time>2000-01-01T17:35:28.000Z</time>
      </trkpt>
      <trkpt lat="44.02484" lon="5.79817">
        <ele>677</ele>
        <time>2000-01-01T17:35:38.000Z</time>
      </trkpt>
      <trkpt lat="44.02481" lon="5.79822">
        <ele>677.8</ele>
        <time>2000-01-01T17:35:48.000Z</time>
      </trkpt>
      <trkpt lat="44.02469" lon="5.79835">
        <ele>680</ele>
        <time>2000-01-01T17:35:58.000Z</time>
      </trkpt>
      <trkpt lat="44.02465" lon="5.79842">
        <ele>680.4</ele>
        <time>2000-01-01T17:36:08.000Z</time>
      </trkpt>
      <trkpt lat="44.02461" lon="5.79848">
        <ele>680.7</ele>
        <time>2000-01-01T17:36:18.000Z</time>
      </trkpt>
      <trkpt lat="44.02458" lon="5.79851">
        <ele>681</ele>
        <time>2000-01-01T17:36:28.000Z</time>
      </trkpt>
      <trkpt lat="44.02448" lon="5.79867">
        <ele>684</ele>
        <time>2000-01-01T17:36:38.000Z</time>
      </trkpt>
      <trkpt lat="44.02434" lon="5.79882">
        <ele>684</ele>
        <time>2000-01-01T17:36:48.000Z</time>
      </trkpt>
      <trkpt lat="44.02432" lon="5.79885">
        <ele>685</ele>
        <time>2000-01-01T17:36:58.000Z</time>
      </trkpt>
      <trkpt lat="44.02426" lon="5.7989">
        <ele>685.1</ele>
        <time>2000-01-01T17:37:08.000Z</time>
      </trkpt>
      <trkpt lat="44.02421" lon="5.79892">
        <ele>685.6</ele>
        <time>2000-01-01T17:37:18.000Z</time>
      </trkpt>
      <trkpt lat="44.0237" lon="5.79988">
        <ele>681</ele>
        <time>2000-01-01T17:37:28.000Z</time>
      </trkpt>
      <trkpt lat="44.0239" lon="5.80001">
        <ele>677</ele>
        <time>2000-01-01T17:37:38.000Z</time>
      </trkpt>
      <trkpt lat="44.02402" lon="5.80016">
        <ele>674.4</ele>
        <time>2000-01-01T17:37:48.000Z</time>
      </trkpt>
      <trkpt lat="44.02405" lon="5.80045">
        <ele>674</ele>
        <time>2000-01-01T17:37:58.000Z</time>
      </trkpt>
      <trkpt lat="44.02395" lon="5.80072">
        <ele>675</ele>
        <time>2000-01-01T17:38:08.000Z</time>
      </trkpt>
      <trkpt lat="44.02389" lon="5.80097">
        <ele>669</ele>
        <time>2000-01-01T17:38:18.000Z</time>
      </trkpt>
      <trkpt lat="44.02386" lon="5.80122">
        <ele>670</ele>
        <time>2000-01-01T17:38:28.000Z</time>
      </trkpt>
      <trkpt lat="44.02391" lon="5.80148">
        <ele>666.6</ele>
        <time>2000-01-01T17:38:38.000Z</time>
      </trkpt>
      <trkpt lat="44.02397" lon="5.80196">
        <ele>665</ele>
        <time>2000-01-01T17:38:48.000Z</time>
      </trkpt>
      <trkpt lat="44.02421" lon="5.80196">
        <ele>665</ele>
        <time>2000-01-01T17:38:58.000Z</time>
      </trkpt>
      <trkpt lat="44.02436" lon="5.80168">
        <ele>665</ele>
        <time>2000-01-01T17:39:08.000Z</time>
      </trkpt>
      <trkpt lat="44.0245" lon="5.80137">
        <ele>667</ele>
        <time>2000-01-01T17:39:18.000Z</time>
      </trkpt>
      <trkpt lat="44.02473" lon="5.80135">
        <ele>668</ele>
        <time>2000-01-01T17:39:28.000Z</time>
      </trkpt>
      <trkpt lat="44.02509" lon="5.80104">
        <ele>670</ele>
        <time>2000-01-01T17:39:38.000Z</time>
      </trkpt>
      <trkpt lat="44.02532" lon="5.80083">
        <ele>676</ele>
        <time>2000-01-01T17:39:48.000Z</time>
      </trkpt>
      <trkpt lat="44.02557" lon="5.80078">
        <ele>677</ele>
        <time>2000-01-01T17:39:58.000Z</time>
      </trkpt>
      <trkpt lat="44.02579" lon="5.80097">
        <ele>680</ele>
        <time>2000-01-01T17:40:08.000Z</time>
      </trkpt>
      <trkpt lat="44.02602" lon="5.80104">
        <ele>681</ele>
        <time>2000-01-01T17:40:18.000Z</time>
      </trkpt>
      <trkpt lat="44.02625" lon="5.80118">
        <ele>683</ele>
        <time>2000-01-01T17:40:28.000Z</time>
      </trkpt>
      <trkpt lat="44.02658" lon="5.80142">
        <ele>688</ele>
        <time>2000-01-01T17:40:38.000Z</time>
      </trkpt>
      <trkpt lat="44.02682" lon="5.80147">
        <ele>689</ele>
        <time>2000-01-01T17:40:48.000Z</time>
      </trkpt>
      <trkpt lat="44.027" lon="5.80189">
        <ele>693</ele>
        <time>2000-01-01T17:40:58.000Z</time>
      </trkpt>
      <trkpt lat="44.02708" lon="5.80216">
        <ele>695</ele>
        <time>2000-01-01T17:41:08.000Z</time>
      </trkpt>
      <trkpt lat="44.02705" lon="5.80245">
        <ele>695</ele>
        <time>2000-01-01T17:41:18.000Z</time>
      </trkpt>
      <trkpt lat="44.02705" lon="5.8031">
        <ele>695</ele>
        <time>2000-01-01T17:41:28.000Z</time>
      </trkpt>
      <trkpt lat="44.02702" lon="5.80349">
        <ele>696</ele>
        <time>2000-01-01T17:41:38.000Z</time>
      </trkpt>
      <trkpt lat="44.02696" lon="5.80386">
        <ele>696</ele>
        <time>2000-01-01T17:41:48.000Z</time>
      </trkpt>
      <trkpt lat="44.02728" lon="5.80396">
        <ele>695</ele>
        <time>2000-01-01T17:41:58.000Z</time>
      </trkpt>
      <trkpt lat="44.02739" lon="5.80419">
        <ele>695</ele>
        <time>2000-01-01T17:42:08.000Z</time>
      </trkpt>
      <trkpt lat="44.02754" lon="5.80446">
        <ele>695</ele>
        <time>2000-01-01T17:42:18.000Z</time>
      </trkpt>
      <trkpt lat="44.02764" lon="5.8047">
        <ele>696</ele>
        <time>2000-01-01T17:42:28.000Z</time>
      </trkpt>
      <trkpt lat="44.02774" lon="5.80492">
        <ele>690.8</ele>
        <time>2000-01-01T17:42:38.000Z</time>
      </trkpt>
      <trkpt lat="44.02764" lon="5.8052">
        <ele>693</ele>
        <time>2000-01-01T17:42:48.000Z</time>
      </trkpt>
      <trkpt lat="44.02763" lon="5.8055">
        <ele>692</ele>
        <time>2000-01-01T17:42:58.000Z</time>
      </trkpt>
      <trkpt lat="44.02778" lon="5.80552">
        <ele>695.8</ele>
        <time>2000-01-01T17:43:08.000Z</time>
      </trkpt>
      <trkpt lat="44.02788" lon="5.80543">
        <ele>692</ele>
        <time>2000-01-01T17:43:18.000Z</time>
      </trkpt>
      <trkpt lat="44.02796" lon="5.80564">
        <ele>691.7</ele>
        <time>2000-01-01T17:43:28.000Z</time>
      </trkpt>
      <trkpt lat="44.02796" lon="5.8058">
        <ele>691</ele>
        <time>2000-01-01T17:43:38.000Z</time>
      </trkpt>
      <trkpt lat="44.02801" lon="5.80597">
        <ele>695.8</ele>
        <time>2000-01-01T17:43:48.000Z</time>
      </trkpt>
      <trkpt lat="44.02813" lon="5.806">
        <ele>691</ele>
        <time>2000-01-01T17:43:58.000Z</time>
      </trkpt>
      <trkpt lat="44.02823" lon="5.80623">
        <ele>695.7</ele>
        <time>2000-01-01T17:44:08.000Z</time>
      </trkpt>
      <trkpt lat="44.02836" lon="5.80644">
        <ele>692</ele>
        <time>2000-01-01T17:44:18.000Z</time>
      </trkpt>
      <trkpt lat="44.02841" lon="5.80666">
        <ele>697.8</ele>
        <time>2000-01-01T17:44:28.000Z</time>
      </trkpt>
      <trkpt lat="44.0285" lon="5.80695">
        <ele>697</ele>
        <time>2000-01-01T17:44:38.000Z</time>
      </trkpt>
      <trkpt lat="44.02862" lon="5.80724">
        <ele>701</ele>
        <time>2000-01-01T17:44:48.000Z</time>
      </trkpt>
      <trkpt lat="44.02886" lon="5.80742">
        <ele>707</ele>
        <time>2000-01-01T17:44:58.000Z</time>
      </trkpt>
      <trkpt lat="44.02898" lon="5.80756">
        <ele>713.5</ele>
        <time>2000-01-01T17:45:08.000Z</time>
      </trkpt>
      <trkpt lat="44.02908" lon="5.80766">
        <ele>713</ele>
        <time>2000-01-01T17:45:18.000Z</time>
      </trkpt>
      <trkpt lat="44.02914" lon="5.80774">
        <ele>719.3</ele>
        <time>2000-01-01T17:45:28.000Z</time>
      </trkpt>
      <trkpt lat="44.02919" lon="5.80787">
        <ele>721.8</ele>
        <time>2000-01-01T17:45:38.000Z</time>
      </trkpt>
      <trkpt lat="44.02929" lon="5.80807">
        <ele>725</ele>
        <time>2000-01-01T17:45:48.000Z</time>
      </trkpt>
      <trkpt lat="44.02931" lon="5.80827">
        <ele>726.4</ele>
        <time>2000-01-01T17:45:58.000Z</time>
      </trkpt>
      <trkpt lat="44.02936" lon="5.80842">
        <ele>725</ele>
        <time>2000-01-01T17:46:08.000Z</time>
      </trkpt>
      <trkpt lat="44.02929" lon="5.80851">
        <ele>724.8</ele>
        <time>2000-01-01T17:46:18.000Z</time>
      </trkpt>
      <trkpt lat="44.02919" lon="5.80862">
        <ele>724</ele>
        <time>2000-01-01T17:46:28.000Z</time>
      </trkpt>
      <trkpt lat="44.02916" lon="5.809">
        <ele>724</ele>
        <time>2000-01-01T17:46:38.000Z</time>
      </trkpt>
      <trkpt lat="44.02913" lon="5.80952">
        <ele>719</ele>
        <time>2000-01-01T17:46:48.000Z</time>
      </trkpt>
      <trkpt lat="44.02931" lon="5.80984">
        <ele>718</ele>
        <time>2000-01-01T17:46:58.000Z</time>
      </trkpt>
      <trkpt lat="44.02935" lon="5.81021">
        <ele>715</ele>
        <time>2000-01-01T17:47:08.000Z</time>
      </trkpt>
      <trkpt lat="44.02938" lon="5.81058">
        <ele>714</ele>
        <time>2000-01-01T17:47:18.000Z</time>
      </trkpt>
      <trkpt lat="44.02951" lon="5.81076">
        <ele>713.7</ele>
        <time>2000-01-01T17:47:28.000Z</time>
      </trkpt>
      <trkpt lat="44.02959" lon="5.81089">
        <ele>714</ele>
        <time>2000-01-01T17:47:38.000Z</time>
      </trkpt>
      <trkpt lat="44.02979" lon="5.81084">
        <ele>713</ele>
        <time>2000-01-01T17:47:48.000Z</time>
      </trkpt>
      <trkpt lat="44.03021" lon="5.81095">
        <ele>710</ele>
        <time>2000-01-01T17:47:58.000Z</time>
      </trkpt>
      <trkpt lat="44.03037" lon="5.81114">
        <ele>710</ele>
        <time>2000-01-01T17:48:08.000Z</time>
      </trkpt>
      <trkpt lat="44.0306" lon="5.81131">
        <ele>708</ele>
        <time>2000-01-01T17:48:18.000Z</time>
      </trkpt>
      <trkpt lat="44.03091" lon="5.81162">
        <ele>706</ele>
        <time>2000-01-01T17:48:28.000Z</time>
      </trkpt>
      <trkpt lat="44.03119" lon="5.81176">
        <ele>704</ele>
        <time>2000-01-01T17:48:38.000Z</time>
      </trkpt>
      <trkpt lat="44.03147" lon="5.81189">
        <ele>698</ele>
        <time>2000-01-01T17:48:48.000Z</time>
      </trkpt>
      <trkpt lat="44.0319" lon="5.81208">
        <ele>694</ele>
        <time>2000-01-01T17:48:58.000Z</time>
      </trkpt>
      <trkpt lat="44.03193" lon="5.81234">
        <ele>691.3</ele>
        <time>2000-01-01T17:49:08.000Z</time>
      </trkpt>
      <trkpt lat="44.03211" lon="5.81236">
        <ele>689</ele>
        <time>2000-01-01T17:49:18.000Z</time>
      </trkpt>
      <trkpt lat="44.03228" lon="5.81224">
        <ele>685</ele>
        <time>2000-01-01T17:49:28.000Z</time>
      </trkpt>
      <trkpt lat="44.03232" lon="5.81217">
        <ele>683</ele>
        <time>2000-01-01T17:49:38.000Z</time>
      </trkpt>
      <trkpt lat="44.03234" lon="5.81206">
        <ele>680.6</ele>
        <time>2000-01-01T17:49:48.000Z</time>
      </trkpt>
      <trkpt lat="44.03222" lon="5.81191">
        <ele>680</ele>
        <time>2000-01-01T17:49:58.000Z</time>
      </trkpt>
      <trkpt lat="44.03197" lon="5.81143">
        <ele>681</ele>
        <time>2000-01-01T17:50:08.000Z</time>
      </trkpt>
      <trkpt lat="44.0321" lon="5.81121">
        <ele>682</ele>
        <time>2000-01-01T17:50:18.000Z</time>
      </trkpt>
      <trkpt lat="44.03225" lon="5.81118">
        <ele>684.3</ele>
        <time>2000-01-01T17:50:28.000Z</time>
      </trkpt>
      <trkpt lat="44.03245" lon="5.81109">
        <ele>690</ele>
        <time>2000-01-01T17:50:38.000Z</time>
      </trkpt>
      <trkpt lat="44.03269" lon="5.81083">
        <ele>691</ele>
        <time>2000-01-01T17:50:48.000Z</time>
      </trkpt>
      <trkpt lat="44.03301" lon="5.8109">
        <ele>694</ele>
        <time>2000-01-01T17:50:58.000Z</time>
      </trkpt>
      <trkpt lat="44.0331" lon="5.81072">
        <ele>693.7</ele>
        <time>2000-01-01T17:51:08.000Z</time>
      </trkpt>
      <trkpt lat="44.03305" lon="5.81039">
        <ele>700</ele>
        <time>2000-01-01T17:51:18.000Z</time>
      </trkpt>
      <trkpt lat="44.03324" lon="5.81015">
        <ele>700</ele>
        <time>2000-01-01T17:51:28.000Z</time>
      </trkpt>
      <trkpt lat="44.03357" lon="5.8104">
        <ele>700</ele>
        <time>2000-01-01T17:51:38.000Z</time>
      </trkpt>
      <trkpt lat="44.03387" lon="5.81079">
        <ele>699</ele>
        <time>2000-01-01T17:51:48.000Z</time>
      </trkpt>
      <trkpt lat="44.03421" lon="5.81126">
        <ele>699</ele>
        <time>2000-01-01T17:51:58.000Z</time>
      </trkpt>
      <trkpt lat="44.03457" lon="5.81168">
        <ele>699</ele>
        <time>2000-01-01T17:52:08.000Z</time>
      </trkpt>
      <trkpt lat="44.03493" lon="5.81194">
        <ele>701</ele>
        <time>2000-01-01T17:52:18.000Z</time>
      </trkpt>
      <trkpt lat="44.03526" lon="5.81236">
        <ele>700</ele>
        <time>2000-01-01T17:52:28.000Z</time>
      </trkpt>
      <trkpt lat="44.03563" lon="5.81265">
        <ele>699</ele>
        <time>2000-01-01T17:52:38.000Z</time>
      </trkpt>
      <trkpt lat="44.03584" lon="5.8127">
        <ele>689</ele>
        <time>2000-01-01T17:52:48.000Z</time>
      </trkpt>
      <trkpt lat="44.0361" lon="5.81285">
        <ele>678</ele>
        <time>2000-01-01T17:52:58.000Z</time>
      </trkpt>
      <trkpt lat="44.03633" lon="5.81295">
        <ele>668</ele>
        <time>2000-01-01T17:53:08.000Z</time>
      </trkpt>
      <trkpt lat="44.03666" lon="5.81326">
        <ele>665</ele>
        <time>2000-01-01T17:53:18.000Z</time>
      </trkpt>
      <trkpt lat="44.03685" lon="5.81265">
        <ele>666</ele>
        <time>2000-01-01T17:53:28.000Z</time>
      </trkpt>
      <trkpt lat="44.03691" lon="5.8123">
        <ele>667</ele>
        <time>2000-01-01T17:53:38.000Z</time>
      </trkpt>
      <trkpt lat="44.03708" lon="5.81207">
        <ele>669</ele>
        <time>2000-01-01T17:53:48.000Z</time>
      </trkpt>
      <trkpt lat="44.037" lon="5.81172">
        <ele>670</ele>
        <time>2000-01-01T17:53:58.000Z</time>
      </trkpt>
      <trkpt lat="44.03723" lon="5.81154">
        <ele>671</ele>
        <time>2000-01-01T17:54:08.000Z</time>
      </trkpt>
      <trkpt lat="44.03746" lon="5.81145">
        <ele>671</ele>
        <time>2000-01-01T17:54:18.000Z</time>
      </trkpt>
      <trkpt lat="44.03772" lon="5.81153">
        <ele>673</ele>
        <time>2000-01-01T17:54:28.000Z</time>
      </trkpt>
      <trkpt lat="44.03808" lon="5.81166">
        <ele>673</ele>
        <time>2000-01-01T17:54:38.000Z</time>
      </trkpt>
      <trkpt lat="44.03827" lon="5.81123">
        <ele>670</ele>
        <time>2000-01-01T17:54:48.000Z</time>
      </trkpt>
      <trkpt lat="44.03841" lon="5.8109">
        <ele>663</ele>
        <time>2000-01-01T17:54:58.000Z</time>
      </trkpt>
      <trkpt lat="44.03859" lon="5.81046">
        <ele>652</ele>
        <time>2000-01-01T17:55:08.000Z</time>
      </trkpt>
      <trkpt lat="44.03859" lon="5.81021">
        <ele>646.8</ele>
        <time>2000-01-01T17:55:18.000Z</time>
      </trkpt>
      <trkpt lat="44.03867" lon="5.81003">
        <ele>641</ele>
        <time>2000-01-01T17:55:28.000Z</time>
      </trkpt>
      <trkpt lat="44.03901" lon="5.81023">
        <ele>641</ele>
        <time>2000-01-01T17:55:38.000Z</time>
      </trkpt>
      <trkpt lat="44.03939" lon="5.81034">
        <ele>641</ele>
        <time>2000-01-01T17:55:48.000Z</time>
      </trkpt>
      <trkpt lat="44.03961" lon="5.81038">
        <ele>638</ele>
        <time>2000-01-01T17:55:58.000Z</time>
      </trkpt>
      <trkpt lat="44.04007" lon="5.81027">
        <ele>624</ele>
        <time>2000-01-01T17:56:08.000Z</time>
      </trkpt>
      <trkpt lat="44.04013" lon="5.81004">
        <ele>622</ele>
        <time>2000-01-01T17:56:18.000Z</time>
      </trkpt>
      <trkpt lat="44.04045" lon="5.81013">
        <ele>623</ele>
        <time>2000-01-01T17:56:28.000Z</time>
      </trkpt>
      <trkpt lat="44.04049" lon="5.81062">
        <ele>622</ele>
        <time>2000-01-01T17:56:38.000Z</time>
      </trkpt>
      <trkpt lat="44.04074" lon="5.81096">
        <ele>619</ele>
        <time>2000-01-01T17:56:48.000Z</time>
      </trkpt>
      <trkpt lat="44.04086" lon="5.81146">
        <ele>617</ele>
        <time>2000-01-01T17:56:58.000Z</time>
      </trkpt>
      <trkpt lat="44.04106" lon="5.81168">
        <ele>615</ele>
        <time>2000-01-01T17:57:08.000Z</time>
      </trkpt>
      <trkpt lat="44.04128" lon="5.81189">
        <ele>614</ele>
        <time>2000-01-01T17:57:18.000Z</time>
      </trkpt>
      <trkpt lat="44.04139" lon="5.81225">
        <ele>613</ele>
        <time>2000-01-01T17:57:28.000Z</time>
      </trkpt>
      <trkpt lat="44.04154" lon="5.81275">
        <ele>612</ele>
        <time>2000-01-01T17:57:38.000Z</time>
      </trkpt>
      <trkpt lat="44.04153" lon="5.81335">
        <ele>611</ele>
        <time>2000-01-01T17:57:48.000Z</time>
      </trkpt>
      <trkpt lat="44.04153" lon="5.81378">
        <ele>610</ele>
        <time>2000-01-01T17:57:58.000Z</time>
      </trkpt>
      <trkpt lat="44.0416" lon="5.81405">
        <ele>609</ele>
        <time>2000-01-01T17:58:08.000Z</time>
      </trkpt>
      <trkpt lat="44.04165" lon="5.8146">
        <ele>610</ele>
        <time>2000-01-01T17:58:18.000Z</time>
      </trkpt>
      <trkpt lat="44.04138" lon="5.81488">
        <ele>607</ele>
        <time>2000-01-01T17:58:28.000Z</time>
      </trkpt>
      <trkpt lat="44.04142" lon="5.81523">
        <ele>606</ele>
        <time>2000-01-01T17:58:38.000Z</time>
      </trkpt>
      <trkpt lat="44.04124" lon="5.81553">
        <ele>605</ele>
        <time>2000-01-01T17:58:48.000Z</time>
      </trkpt>
      <trkpt lat="44.04099" lon="5.81595">
        <ele>605</ele>
        <time>2000-01-01T17:58:58.000Z</time>
      </trkpt>
      <trkpt lat="44.04087" lon="5.81588">
        <ele>605.2</ele>
        <time>2000-01-01T17:59:08.000Z</time>
      </trkpt>
      <trkpt lat="44.04061" lon="5.81609">
        <ele>604</ele>
        <time>2000-01-01T17:59:18.000Z</time>
      </trkpt>
      <trkpt lat="44.04045" lon="5.81627">
        <ele>604</ele>
        <time>2000-01-01T17:59:28.000Z</time>
      </trkpt>
      <trkpt lat="44.0402" lon="5.81671">
        <ele>611</ele>
        <time>2000-01-01T17:59:38.000Z</time>
      </trkpt>
      <trkpt lat="44.03998" lon="5.8169">
        <ele>615</ele>
        <time>2000-01-01T17:59:48.000Z</time>
      </trkpt>
      <trkpt lat="44.0398" lon="5.81725">
        <ele>619</ele>
        <time>2000-01-01T17:59:58.000Z</time>
      </trkpt>
      <trkpt lat="44.03965" lon="5.81754">
        <ele>622</ele>
        <time>2000-01-01T18:00:08.000Z</time>
      </trkpt>
      <trkpt lat="44.03948" lon="5.81787">
        <ele>621</ele>
        <time>2000-01-01T18:00:18.000Z</time>
      </trkpt>
      <trkpt lat="44.03929" lon="5.81809">
        <ele>620</ele>
        <time>2000-01-01T18:00:28.000Z</time>
      </trkpt>
      <trkpt lat="44.03896" lon="5.81802">
        <ele>618</ele>
        <time>2000-01-01T18:00:38.000Z</time>
      </trkpt>
      <trkpt lat="44.03864" lon="5.81794">
        <ele>616</ele>
        <time>2000-01-01T18:00:48.000Z</time>
      </trkpt>
      <trkpt lat="44.03835" lon="5.81779">
        <ele>616</ele>
        <time>2000-01-01T18:00:58.000Z</time>
      </trkpt>
      <trkpt lat="44.03824" lon="5.81767">
        <ele>616.5</ele>
        <time>2000-01-01T18:01:08.000Z</time>
      </trkpt>
      <trkpt lat="44.03796" lon="5.81754">
        <ele>617</ele>
        <time>2000-01-01T18:01:18.000Z</time>
      </trkpt>
      <trkpt lat="44.03769" lon="5.81756">
        <ele>617</ele>
        <time>2000-01-01T18:01:28.000Z</time>
      </trkpt>
      <trkpt lat="44.03747" lon="5.81768">
        <ele>618</ele>
        <time>2000-01-01T18:01:38.000Z</time>
      </trkpt>
      <trkpt lat="44.0374" lon="5.81788">
        <ele>619.1</ele>
        <time>2000-01-01T18:01:48.000Z</time>
      </trkpt>
      <trkpt lat="44.03731" lon="5.81809">
        <ele>619</ele>
        <time>2000-01-01T18:01:58.000Z</time>
      </trkpt>
      <trkpt lat="44.03721" lon="5.8183">
        <ele>626.1</ele>
        <time>2000-01-01T18:02:08.000Z</time>
      </trkpt>
      <trkpt lat="44.03714" lon="5.81852">
        <ele>626</ele>
        <time>2000-01-01T18:02:18.000Z</time>
      </trkpt>
      <trkpt lat="44.03741" lon="5.81868">
        <ele>629</ele>
        <time>2000-01-01T18:02:28.000Z</time>
      </trkpt>
      <trkpt lat="44.0374" lon="5.81887">
        <ele>630.9</ele>
        <time>2000-01-01T18:02:38.000Z</time>
      </trkpt>
      <trkpt lat="44.03731" lon="5.8193">
        <ele>634</ele>
        <time>2000-01-01T18:02:48.000Z</time>
      </trkpt>
      <trkpt lat="44.03709" lon="5.81974">
        <ele>641</ele>
        <time>2000-01-01T18:02:58.000Z</time>
      </trkpt>
      <trkpt lat="44.03674" lon="5.81969">
        <ele>641</ele>
        <time>2000-01-01T18:03:08.000Z</time>
      </trkpt>
      <trkpt lat="44.03644" lon="5.81955">
        <ele>641</ele>
        <time>2000-01-01T18:03:18.000Z</time>
      </trkpt>
      <trkpt lat="44.03606" lon="5.81941">
        <ele>640</ele>
        <time>2000-01-01T18:03:28.000Z</time>
      </trkpt>
      <trkpt lat="44.03582" lon="5.8193">
        <ele>640</ele>
        <time>2000-01-01T18:03:38.000Z</time>
      </trkpt>
      <trkpt lat="44.03554" lon="5.81917">
        <ele>637</ele>
        <time>2000-01-01T18:03:48.000Z</time>
      </trkpt>
      <trkpt lat="44.0354" lon="5.81922">
        <ele>638</ele>
        <time>2000-01-01T18:03:58.000Z</time>
      </trkpt>
      <trkpt lat="44.03511" lon="5.8194">
        <ele>637</ele>
        <time>2000-01-01T18:04:08.000Z</time>
      </trkpt>
      <trkpt lat="44.03475" lon="5.81942">
        <ele>637</ele>
        <time>2000-01-01T18:04:18.000Z</time>
      </trkpt>
      <trkpt lat="44.03456" lon="5.81947">
        <ele>637</ele>
        <time>2000-01-01T18:04:28.000Z</time>
      </trkpt>
      <trkpt lat="44.03462" lon="5.81966">
        <ele>642</ele>
        <time>2000-01-01T18:04:38.000Z</time>
      </trkpt>
      <trkpt lat="44.03469" lon="5.81979">
        <ele>641</ele>
        <time>2000-01-01T18:04:48.000Z</time>
      </trkpt>
      <trkpt lat="44.03486" lon="5.81996">
        <ele>644</ele>
        <time>2000-01-01T18:04:58.000Z</time>
      </trkpt>
      <trkpt lat="44.035" lon="5.82003">
        <ele>643.4</ele>
        <time>2000-01-01T18:05:08.000Z</time>
      </trkpt>
      <trkpt lat="44.03515" lon="5.82015">
        <ele>646</ele>
        <time>2000-01-01T18:05:18.000Z</time>
      </trkpt>
      <trkpt lat="44.03522" lon="5.82034">
        <ele>649</ele>
        <time>2000-01-01T18:05:28.000Z</time>
      </trkpt>
      <trkpt lat="44.03544" lon="5.82038">
        <ele>649</ele>
        <time>2000-01-01T18:05:38.000Z</time>
      </trkpt>
      <trkpt lat="44.03559" lon="5.82056">
        <ele>651</ele>
        <time>2000-01-01T18:05:48.000Z</time>
      </trkpt>
      <trkpt lat="44.03577" lon="5.82066">
        <ele>655</ele>
        <time>2000-01-01T18:05:58.000Z</time>
      </trkpt>
      <trkpt lat="44.03594" lon="5.8207">
        <ele>660.6</ele>
        <time>2000-01-01T18:06:08.000Z</time>
      </trkpt>
      <trkpt lat="44.03646" lon="5.82078">
        <ele>666</ele>
        <time>2000-01-01T18:06:18.000Z</time>
      </trkpt>
      <trkpt lat="44.03669" lon="5.82098">
        <ele>671</ele>
        <time>2000-01-01T18:06:28.000Z</time>
      </trkpt>
      <trkpt lat="44.03699" lon="5.82124">
        <ele>676</ele>
        <time>2000-01-01T18:06:38.000Z</time>
      </trkpt>
      <trkpt lat="44.03712" lon="5.82162">
        <ele>681</ele>
        <time>2000-01-01T18:06:48.000Z</time>
      </trkpt>
      <trkpt lat="44.03735" lon="5.82177">
        <ele>681</ele>
        <time>2000-01-01T18:06:58.000Z</time>
      </trkpt>
      <trkpt lat="44.03747" lon="5.82191">
        <ele>685.5</ele>
        <time>2000-01-01T18:07:08.000Z</time>
      </trkpt>
      <trkpt lat="44.0378" lon="5.82216">
        <ele>688</ele>
        <time>2000-01-01T18:07:18.000Z</time>
      </trkpt>
      <trkpt lat="44.03793" lon="5.82231">
        <ele>693.1</ele>
        <time>2000-01-01T18:07:28.000Z</time>
      </trkpt>
      <trkpt lat="44.03826" lon="5.82237">
        <ele>690</ele>
        <time>2000-01-01T18:07:38.000Z</time>
      </trkpt>
      <trkpt lat="44.03844" lon="5.82245">
        <ele>690.9</ele>
        <time>2000-01-01T18:07:48.000Z</time>
      </trkpt>
      <trkpt lat="44.03859" lon="5.82318">
        <ele>692</ele>
        <time>2000-01-01T18:07:58.000Z</time>
      </trkpt>
      <trkpt lat="44.03856" lon="5.82374">
        <ele>697</ele>
        <time>2000-01-01T18:08:08.000Z</time>
      </trkpt>
      <trkpt lat="44.03843" lon="5.82405">
        <ele>703</ele>
        <time>2000-01-01T18:08:18.000Z</time>
      </trkpt>
      <trkpt lat="44.03828" lon="5.8244">
        <ele>709</ele>
        <time>2000-01-01T18:08:28.000Z</time>
      </trkpt>
      <trkpt lat="44.03825" lon="5.82478">
        <ele>709</ele>
        <time>2000-01-01T18:08:38.000Z</time>
      </trkpt>
      <trkpt lat="44.03822" lon="5.82526">
        <ele>710</ele>
        <time>2000-01-01T18:08:48.000Z</time>
      </trkpt>
      <trkpt lat="44.0382" lon="5.82573">
        <ele>714</ele>
        <time>2000-01-01T18:08:58.000Z</time>
      </trkpt>
      <trkpt lat="44.03819" lon="5.82612">
        <ele>715</ele>
        <time>2000-01-01T18:09:08.000Z</time>
      </trkpt>
      <trkpt lat="44.03818" lon="5.82668">
        <ele>718</ele>
        <time>2000-01-01T18:09:18.000Z</time>
      </trkpt>
      <trkpt lat="44.03816" lon="5.82711">
        <ele>719</ele>
        <time>2000-01-01T18:09:28.000Z</time>
      </trkpt>
      <trkpt lat="44.03815" lon="5.82746">
        <ele>720</ele>
        <time>2000-01-01T18:09:38.000Z</time>
      </trkpt>
      <trkpt lat="44.03814" lon="5.82784">
        <ele>720</ele>
        <time>2000-01-01T18:09:48.000Z</time>
      </trkpt>
      <trkpt lat="44.03813" lon="5.82835">
        <ele>722</ele>
        <time>2000-01-01T18:09:58.000Z</time>
      </trkpt>
      <trkpt lat="44.03811" lon="5.82889">
        <ele>724</ele>
        <time>2000-01-01T18:10:08.000Z</time>
      </trkpt>
      <trkpt lat="44.038" lon="5.82926">
        <ele>737</ele>
        <time>2000-01-01T18:10:18.000Z</time>
      </trkpt>
      <trkpt lat="44.03783" lon="5.82983">
        <ele>738</ele>
        <time>2000-01-01T18:10:28.000Z</time>
      </trkpt>
      <trkpt lat="44.03763" lon="5.83014">
        <ele>744</ele>
        <time>2000-01-01T18:10:38.000Z</time>
      </trkpt>
      <trkpt lat="44.03746" lon="5.83039">
        <ele>744</ele>
        <time>2000-01-01T18:10:48.000Z</time>
      </trkpt>
      <trkpt lat="44.03729" lon="5.83065">
        <ele>742</ele>
        <time>2000-01-01T18:10:58.000Z</time>
      </trkpt>
      <trkpt lat="44.03711" lon="5.83098">
        <ele>741</ele>
        <time>2000-01-01T18:11:08.000Z</time>
      </trkpt>
      <trkpt lat="44.03696" lon="5.83124">
        <ele>741</ele>
        <time>2000-01-01T18:11:18.000Z</time>
      </trkpt>
      <trkpt lat="44.03681" lon="5.83151">
        <ele>739</ele>
        <time>2000-01-01T18:11:28.000Z</time>
      </trkpt>
      <trkpt lat="44.03673" lon="5.83185">
        <ele>736</ele>
        <time>2000-01-01T18:11:38.000Z</time>
      </trkpt>
      <trkpt lat="44.03664" lon="5.83222">
        <ele>732</ele>
        <time>2000-01-01T18:11:48.000Z</time>
      </trkpt>
      <trkpt lat="44.03661" lon="5.83274">
        <ele>728</ele>
        <time>2000-01-01T18:11:58.000Z</time>
      </trkpt>
      <trkpt lat="44.03657" lon="5.83319">
        <ele>726</ele>
        <time>2000-01-01T18:12:08.000Z</time>
      </trkpt>
      <trkpt lat="44.03654" lon="5.83363">
        <ele>723</ele>
        <time>2000-01-01T18:12:18.000Z</time>
      </trkpt>
      <trkpt lat="44.0365" lon="5.83408">
        <ele>720</ele>
        <time>2000-01-01T18:12:28.000Z</time>
      </trkpt>
      <trkpt lat="44.03647" lon="5.83452">
        <ele>718</ele>
        <time>2000-01-01T18:12:38.000Z</time>
      </trkpt>
      <trkpt lat="44.03616" lon="5.83429">
        <ele>717</ele>
        <time>2000-01-01T18:12:48.000Z</time>
      </trkpt>
      <trkpt lat="44.03586" lon="5.83406">
        <ele>714</ele>
        <time>2000-01-01T18:12:58.000Z</time>
      </trkpt>
      <trkpt lat="44.03563" lon="5.83389">
        <ele>710</ele>
        <time>2000-01-01T18:13:08.000Z</time>
      </trkpt>
      <trkpt lat="44.03538" lon="5.8337">
        <ele>705</ele>
        <time>2000-01-01T18:13:18.000Z</time>
      </trkpt>
      <trkpt lat="44.03518" lon="5.83326">
        <ele>702</ele>
        <time>2000-01-01T18:13:28.000Z</time>
      </trkpt>
      <trkpt lat="44.03498" lon="5.83282">
        <ele>698</ele>
        <time>2000-01-01T18:13:38.000Z</time>
      </trkpt>
      <trkpt lat="44.03478" lon="5.83238">
        <ele>697</ele>
        <time>2000-01-01T18:13:48.000Z</time>
      </trkpt>
      <trkpt lat="44.03464" lon="5.83208">
        <ele>697</ele>
        <time>2000-01-01T18:13:58.000Z</time>
      </trkpt>
      <trkpt lat="44.03449" lon="5.83175">
        <ele>697</ele>
        <time>2000-01-01T18:14:08.000Z</time>
      </trkpt>
      <trkpt lat="44.03414" lon="5.83151">
        <ele>697</ele>
        <time>2000-01-01T18:14:18.000Z</time>
      </trkpt>
      <trkpt lat="44.03378" lon="5.83127">
        <ele>698</ele>
        <time>2000-01-01T18:14:28.000Z</time>
      </trkpt>
      <trkpt lat="44.03343" lon="5.83104">
        <ele>699</ele>
        <time>2000-01-01T18:14:38.000Z</time>
      </trkpt>
      <trkpt lat="44.03308" lon="5.8308">
        <ele>702</ele>
        <time>2000-01-01T18:14:48.000Z</time>
      </trkpt>
      <trkpt lat="44.03286" lon="5.83065">
        <ele>706</ele>
        <time>2000-01-01T18:14:58.000Z</time>
      </trkpt>
      <trkpt lat="44.03263" lon="5.8305">
        <ele>708</ele>
        <time>2000-01-01T18:15:08.000Z</time>
      </trkpt>
      <trkpt lat="44.03239" lon="5.83036">
        <ele>711</ele>
        <time>2000-01-01T18:15:18.000Z</time>
      </trkpt>
      <trkpt lat="44.03212" lon="5.83021">
        <ele>714</ele>
        <time>2000-01-01T18:15:28.000Z</time>
      </trkpt>
      <trkpt lat="44.03189" lon="5.83007">
        <ele>717</ele>
        <time>2000-01-01T18:15:38.000Z</time>
      </trkpt>
      <trkpt lat="44.0318" lon="5.8296">
        <ele>721</ele>
        <time>2000-01-01T18:15:48.000Z</time>
      </trkpt>
      <trkpt lat="44.0317" lon="5.82913">
        <ele>724</ele>
        <time>2000-01-01T18:15:58.000Z</time>
      </trkpt>
      <trkpt lat="44.03163" lon="5.82877">
        <ele>727</ele>
        <time>2000-01-01T18:16:08.000Z</time>
      </trkpt>
      <trkpt lat="44.03155" lon="5.82833">
        <ele>730</ele>
        <time>2000-01-01T18:16:18.000Z</time>
      </trkpt>
      <trkpt lat="44.03119" lon="5.82829">
        <ele>733</ele>
        <time>2000-01-01T18:16:28.000Z</time>
      </trkpt>
      <trkpt lat="44.03088" lon="5.82827">
        <ele>737</ele>
        <time>2000-01-01T18:16:38.000Z</time>
      </trkpt>
      <trkpt lat="44.03063" lon="5.82825">
        <ele>741</ele>
        <time>2000-01-01T18:16:48.000Z</time>
      </trkpt>
      <trkpt lat="44.03035" lon="5.82823">
        <ele>741</ele>
        <time>2000-01-01T18:16:58.000Z</time>
      </trkpt>
      <trkpt lat="44.03008" lon="5.82834">
        <ele>746</ele>
        <time>2000-01-01T18:17:08.000Z</time>
      </trkpt>
      <trkpt lat="44.02972" lon="5.82848">
        <ele>750</ele>
        <time>2000-01-01T18:17:18.000Z</time>
      </trkpt>
      <trkpt lat="44.02939" lon="5.82862">
        <ele>750</ele>
        <time>2000-01-01T18:17:28.000Z</time>
      </trkpt>
      <trkpt lat="44.02892" lon="5.82862">
        <ele>750</ele>
        <time>2000-01-01T18:17:38.000Z</time>
      </trkpt>
      <trkpt lat="44.02874" lon="5.82818">
        <ele>759</ele>
        <time>2000-01-01T18:17:48.000Z</time>
      </trkpt>
      <trkpt lat="44.0287" lon="5.82767">
        <ele>758</ele>
        <time>2000-01-01T18:17:58.000Z</time>
      </trkpt>
      <trkpt lat="44.02837" lon="5.8273">
        <ele>758</ele>
        <time>2000-01-01T18:18:08.000Z</time>
      </trkpt>
      <trkpt lat="44.02819" lon="5.82686">
        <ele>762</ele>
        <time>2000-01-01T18:18:18.000Z</time>
      </trkpt>
      <trkpt lat="44.02797" lon="5.82676">
        <ele>764</ele>
        <time>2000-01-01T18:18:28.000Z</time>
      </trkpt>
      <trkpt lat="44.02773" lon="5.82693">
        <ele>767</ele>
        <time>2000-01-01T18:18:38.000Z</time>
      </trkpt>
      <trkpt lat="44.02756" lon="5.82713">
        <ele>766</ele>
        <time>2000-01-01T18:18:48.000Z</time>
      </trkpt>
      <trkpt lat="44.02758" lon="5.82735">
        <ele>766.4</ele>
        <time>2000-01-01T18:18:58.000Z</time>
      </trkpt>
      <trkpt lat="44.0276" lon="5.82775">
        <ele>766</ele>
        <time>2000-01-01T18:19:08.000Z</time>
      </trkpt>
      <trkpt lat="44.02753" lon="5.82809">
        <ele>765</ele>
        <time>2000-01-01T18:19:18.000Z</time>
      </trkpt>
      <trkpt lat="44.02751" lon="5.82858">
        <ele>765</ele>
        <time>2000-01-01T18:19:28.000Z</time>
      </trkpt>
      <trkpt lat="44.02746" lon="5.82909">
        <ele>765</ele>
        <time>2000-01-01T18:19:38.000Z</time>
      </trkpt>
      <trkpt lat="44.02724" lon="5.82941">
        <ele>766</ele>
        <time>2000-01-01T18:19:48.000Z</time>
      </trkpt>
      <trkpt lat="44.02714" lon="5.82986">
        <ele>768</ele>
        <time>2000-01-01T18:19:58.000Z</time>
      </trkpt>
      <trkpt lat="44.02705" lon="5.83037">
        <ele>769</ele>
        <time>2000-01-01T18:20:08.000Z</time>
      </trkpt>
      <trkpt lat="44.02688" lon="5.83078">
        <ele>774</ele>
        <time>2000-01-01T18:20:18.000Z</time>
      </trkpt>
      <trkpt lat="44.02666" lon="5.83135">
        <ele>773</ele>
        <time>2000-01-01T18:20:28.000Z</time>
      </trkpt>
      <trkpt lat="44.02647" lon="5.83165">
        <ele>772</ele>
        <time>2000-01-01T18:20:38.000Z</time>
      </trkpt>
      <trkpt lat="44.02629" lon="5.83195">
        <ele>771</ele>
        <time>2000-01-01T18:20:48.000Z</time>
      </trkpt>
      <trkpt lat="44.02604" lon="5.83236">
        <ele>768</ele>
        <time>2000-01-01T18:20:58.000Z</time>
      </trkpt>
      <trkpt lat="44.02581" lon="5.83254">
        <ele>769</ele>
        <time>2000-01-01T18:21:08.000Z</time>
      </trkpt>
      <trkpt lat="44.0257" lon="5.83267">
        <ele>768.5</ele>
        <time>2000-01-01T18:21:18.000Z</time>
      </trkpt>
      <trkpt lat="44.02554" lon="5.83283">
        <ele>768</ele>
        <time>2000-01-01T18:21:28.000Z</time>
      </trkpt>
      <trkpt lat="44.02543" lon="5.83336">
        <ele>768</ele>
        <time>2000-01-01T18:21:38.000Z</time>
      </trkpt>
      <trkpt lat="44.02531" lon="5.83379">
        <ele>765</ele>
        <time>2000-01-01T18:21:48.000Z</time>
      </trkpt>
      <trkpt lat="44.0252" lon="5.83424">
        <ele>765</ele>
        <time>2000-01-01T18:21:58.000Z</time>
      </trkpt>
      <trkpt lat="44.02505" lon="5.83452">
        <ele>765</ele>
        <time>2000-01-01T18:22:08.000Z</time>
      </trkpt>
      <trkpt lat="44.02482" lon="5.83474">
        <ele>772</ele>
        <time>2000-01-01T18:22:18.000Z</time>
      </trkpt>
      <trkpt lat="44.02465" lon="5.83504">
        <ele>774</ele>
        <time>2000-01-01T18:22:28.000Z</time>
      </trkpt>
      <trkpt lat="44.02432" lon="5.83514">
        <ele>774</ele>
        <time>2000-01-01T18:22:38.000Z</time>
      </trkpt>
      <trkpt lat="44.02402" lon="5.83509">
        <ele>772</ele>
        <time>2000-01-01T18:22:48.000Z</time>
      </trkpt>
      <trkpt lat="44.02363" lon="5.83507">
        <ele>771</ele>
        <time>2000-01-01T18:22:58.000Z</time>
      </trkpt>
      <trkpt lat="44.02335" lon="5.83498">
        <ele>769</ele>
        <time>2000-01-01T18:23:08.000Z</time>
      </trkpt>
      <trkpt lat="44.02304" lon="5.8349">
        <ele>769</ele>
        <time>2000-01-01T18:23:18.000Z</time>
      </trkpt>
      <trkpt lat="44.02269" lon="5.83487">
        <ele>769</ele>
        <time>2000-01-01T18:23:28.000Z</time>
      </trkpt>
      <trkpt lat="44.02244" lon="5.83479">
        <ele>769</ele>
        <time>2000-01-01T18:23:38.000Z</time>
      </trkpt>
      <trkpt lat="44.02212" lon="5.83463">
        <ele>768</ele>
        <time>2000-01-01T18:23:48.000Z</time>
      </trkpt>
      <trkpt lat="44.02176" lon="5.8346">
        <ele>765</ele>
        <time>2000-01-01T18:23:58.000Z</time>
      </trkpt>
      <trkpt lat="44.02147" lon="5.83461">
        <ele>761</ele>
        <time>2000-01-01T18:24:08.000Z</time>
      </trkpt>
      <trkpt lat="44.02113" lon="5.83439">
        <ele>759</ele>
        <time>2000-01-01T18:24:18.000Z</time>
      </trkpt>
      <trkpt lat="44.02077" lon="5.83407">
        <ele>755</ele>
        <time>2000-01-01T18:24:28.000Z</time>
      </trkpt>
      <trkpt lat="44.02061" lon="5.83379">
        <ele>755</ele>
        <time>2000-01-01T18:24:38.000Z</time>
      </trkpt>
      <trkpt lat="44.02043" lon="5.83346">
        <ele>752</ele>
        <time>2000-01-01T18:24:48.000Z</time>
      </trkpt>
      <trkpt lat="44.02017" lon="5.83318">
        <ele>750</ele>
        <time>2000-01-01T18:24:58.000Z</time>
      </trkpt>
      <trkpt lat="44.01983" lon="5.83322">
        <ele>745</ele>
        <time>2000-01-01T18:25:08.000Z</time>
      </trkpt>
      <trkpt lat="44.01973" lon="5.83317">
        <ele>744.7</ele>
        <time>2000-01-01T18:25:18.000Z</time>
      </trkpt>
      <trkpt lat="44.01961" lon="5.83306">
        <ele>744</ele>
        <time>2000-01-01T18:25:28.000Z</time>
      </trkpt>
      <trkpt lat="44.01946" lon="5.83294">
        <ele>744.9</ele>
        <time>2000-01-01T18:25:38.000Z</time>
      </trkpt>
      <trkpt lat="44.01924" lon="5.83284">
        <ele>743</ele>
        <time>2000-01-01T18:25:48.000Z</time>
      </trkpt>
      <trkpt lat="44.01916" lon="5.83314">
        <ele>740</ele>
        <time>2000-01-01T18:25:58.000Z</time>
      </trkpt>
      <trkpt lat="44.01909" lon="5.83344">
        <ele>737</ele>
        <time>2000-01-01T18:26:08.000Z</time>
      </trkpt>
      <trkpt lat="44.01885" lon="5.83392">
        <ele>731</ele>
        <time>2000-01-01T18:26:18.000Z</time>
      </trkpt>
      <trkpt lat="44.01864" lon="5.83416">
        <ele>727</ele>
        <time>2000-01-01T18:26:28.000Z</time>
      </trkpt>
      <trkpt lat="44.01837" lon="5.83448">
        <ele>721</ele>
        <time>2000-01-01T18:26:38.000Z</time>
      </trkpt>
      <trkpt lat="44.01816" lon="5.83498">
        <ele>715</ele>
        <time>2000-01-01T18:26:48.000Z</time>
      </trkpt>
      <trkpt lat="44.01794" lon="5.83523">
        <ele>709</ele>
        <time>2000-01-01T18:26:58.000Z</time>
      </trkpt>
      <trkpt lat="44.01775" lon="5.83564">
        <ele>704</ele>
        <time>2000-01-01T18:27:08.000Z</time>
      </trkpt>
      <trkpt lat="44.01757" lon="5.83607">
        <ele>699</ele>
        <time>2000-01-01T18:27:18.000Z</time>
      </trkpt>
      <trkpt lat="44.01739" lon="5.83664">
        <ele>692</ele>
        <time>2000-01-01T18:27:28.000Z</time>
      </trkpt>
      <trkpt lat="44.01726" lon="5.83688">
        <ele>690</ele>
        <time>2000-01-01T18:27:38.000Z</time>
      </trkpt>
      <trkpt lat="44.01717" lon="5.837">
        <ele>688.2</ele>
        <time>2000-01-01T18:27:48.000Z</time>
      </trkpt>
      <trkpt lat="44.01702" lon="5.83729">
        <ele>684</ele>
        <time>2000-01-01T18:27:58.000Z</time>
      </trkpt>
      <trkpt lat="44.01686" lon="5.83746">
        <ele>680</ele>
        <time>2000-01-01T18:28:08.000Z</time>
      </trkpt>
      <trkpt lat="44.01665" lon="5.83782">
        <ele>674</ele>
        <time>2000-01-01T18:28:18.000Z</time>
      </trkpt>
      <trkpt lat="44.0164" lon="5.83808">
        <ele>670</ele>
        <time>2000-01-01T18:28:28.000Z</time>
      </trkpt>
      <trkpt lat="44.0166" lon="5.83853">
        <ele>667</ele>
        <time>2000-01-01T18:28:38.000Z</time>
      </trkpt>
      <trkpt lat="44.01644" lon="5.83886">
        <ele>665</ele>
        <time>2000-01-01T18:28:48.000Z</time>
      </trkpt>
      <trkpt lat="44.01622" lon="5.83933">
        <ele>664</ele>
        <time>2000-01-01T18:28:58.000Z</time>
      </trkpt>
      <trkpt lat="44.01606" lon="5.83951">
        <ele>661</ele>
        <time>2000-01-01T18:29:08.000Z</time>
      </trkpt>
      <trkpt lat="44.0159" lon="5.83982">
        <ele>658</ele>
        <time>2000-01-01T18:29:18.000Z</time>
      </trkpt>
      <trkpt lat="44.01564" lon="5.84013">
        <ele>657</ele>
        <time>2000-01-01T18:29:28.000Z</time>
      </trkpt>
      <trkpt lat="44.01534" lon="5.84035">
        <ele>656</ele>
        <time>2000-01-01T18:29:38.000Z</time>
      </trkpt>
      <trkpt lat="44.01501" lon="5.84068">
        <ele>656</ele>
        <time>2000-01-01T18:29:48.000Z</time>
      </trkpt>
      <trkpt lat="44.01456" lon="5.84071">
        <ele>654</ele>
        <time>2000-01-01T18:29:58.000Z</time>
      </trkpt>
      <trkpt lat="44.01429" lon="5.84075">
        <ele>652</ele>
        <time>2000-01-01T18:30:08.000Z</time>
      </trkpt>
      <trkpt lat="44.01394" lon="5.8408">
        <ele>647</ele>
        <time>2000-01-01T18:30:18.000Z</time>
      </trkpt>
      <trkpt lat="44.01365" lon="5.84068">
        <ele>642</ele>
        <time>2000-01-01T18:30:28.000Z</time>
      </trkpt>
      <trkpt lat="44.01335" lon="5.84061">
        <ele>637</ele>
        <time>2000-01-01T18:30:38.000Z</time>
      </trkpt>
      <trkpt lat="44.01296" lon="5.84067">
        <ele>632</ele>
        <time>2000-01-01T18:30:48.000Z</time>
      </trkpt>
      <trkpt lat="44.0127" lon="5.84073">
        <ele>627</ele>
        <time>2000-01-01T18:30:58.000Z</time>
      </trkpt>
      <trkpt lat="44.01241" lon="5.8408">
        <ele>622</ele>
        <time>2000-01-01T18:31:08.000Z</time>
      </trkpt>
      <trkpt lat="44.01213" lon="5.84079">
        <ele>616</ele>
        <time>2000-01-01T18:31:18.000Z</time>
      </trkpt>
      <trkpt lat="44.01176" lon="5.84078">
        <ele>610</ele>
        <time>2000-01-01T18:31:28.000Z</time>
      </trkpt>
      <trkpt lat="44.01155" lon="5.84091">
        <ele>607</ele>
        <time>2000-01-01T18:31:38.000Z</time>
      </trkpt>
      <trkpt lat="44.01118" lon="5.84079">
        <ele>603</ele>
        <time>2000-01-01T18:31:48.000Z</time>
      </trkpt>
      <trkpt lat="44.01095" lon="5.84063">
        <ele>597</ele>
        <time>2000-01-01T18:31:58.000Z</time>
      </trkpt>
      <trkpt lat="44.01076" lon="5.8406">
        <ele>595</ele>
        <time>2000-01-01T18:32:08.000Z</time>
      </trkpt>
      <trkpt lat="44.01038" lon="5.84063">
        <ele>589</ele>
        <time>2000-01-01T18:32:18.000Z</time>
      </trkpt>
      <trkpt lat="44.00994" lon="5.84064">
        <ele>585</ele>
        <time>2000-01-01T18:32:28.000Z</time>
      </trkpt>
      <trkpt lat="44.00968" lon="5.84053">
        <ele>585</ele>
        <time>2000-01-01T18:32:38.000Z</time>
      </trkpt>
      <trkpt lat="44.00942" lon="5.84033">
        <ele>580</ele>
        <time>2000-01-01T18:32:48.000Z</time>
      </trkpt>
      <trkpt lat="44.00912" lon="5.84012">
        <ele>573</ele>
        <time>2000-01-01T18:32:58.000Z</time>
      </trkpt>
      <trkpt lat="44.00884" lon="5.83994">
        <ele>564</ele>
        <time>2000-01-01T18:33:08.000Z</time>
      </trkpt>
      <trkpt lat="44.00856" lon="5.83978">
        <ele>557</ele>
        <time>2000-01-01T18:33:18.000Z</time>
      </trkpt>
      <trkpt lat="44.00838" lon="5.83959">
        <ele>557</ele>
        <time>2000-01-01T18:33:28.000Z</time>
      </trkpt>
      <trkpt lat="44.00807" lon="5.83954">
        <ele>557</ele>
        <time>2000-01-01T18:33:38.000Z</time>
      </trkpt>
      <trkpt lat="44.00789" lon="5.83959">
        <ele>556.1</ele>
        <time>2000-01-01T18:33:48.000Z</time>
      </trkpt>
      <trkpt lat="44.00771" lon="5.83962">
        <ele>556</ele>
        <time>2000-01-01T18:33:58.000Z</time>
      </trkpt>
      <trkpt lat="44.00757" lon="5.83949">
        <ele>556.1</ele>
        <time>2000-01-01T18:34:08.000Z</time>
      </trkpt>
      <trkpt lat="44.00739" lon="5.83943">
        <ele>555</ele>
        <time>2000-01-01T18:34:18.000Z</time>
      </trkpt>
      <trkpt lat="44.00692" lon="5.8394">
        <ele>554</ele>
        <time>2000-01-01T18:34:28.000Z</time>
      </trkpt>
      <trkpt lat="44.00652" lon="5.83946">
        <ele>547</ele>
        <time>2000-01-01T18:34:38.000Z</time>
      </trkpt>
      <trkpt lat="44.00621" lon="5.83945">
        <ele>544</ele>
        <time>2000-01-01T18:34:48.000Z</time>
      </trkpt>
      <trkpt lat="44.00591" lon="5.8393">
        <ele>539</ele>
        <time>2000-01-01T18:34:58.000Z</time>
      </trkpt>
      <trkpt lat="44.00581" lon="5.83922">
        <ele>537.2</ele>
        <time>2000-01-01T18:35:08.000Z</time>
      </trkpt>
      <trkpt lat="44.00534" lon="5.83926">
        <ele>526</ele>
        <time>2000-01-01T18:35:18.000Z</time>
      </trkpt>
      <trkpt lat="44.0051" lon="5.83908">
        <ele>516</ele>
        <time>2000-01-01T18:35:28.000Z</time>
      </trkpt>
      <trkpt lat="44.00471" lon="5.83924">
        <ele>514</ele>
        <time>2000-01-01T18:35:38.000Z</time>
      </trkpt>
      <trkpt lat="44.0046" lon="5.8391">
        <ele>513.3</ele>
        <time>2000-01-01T18:35:48.000Z</time>
      </trkpt>
      <trkpt lat="44.00453" lon="5.83891">
        <ele>514</ele>
        <time>2000-01-01T18:35:58.000Z</time>
      </trkpt>
      <trkpt lat="44.00471" lon="5.83878">
        <ele>522</ele>
        <time>2000-01-01T18:36:08.000Z</time>
      </trkpt>
      <trkpt lat="44.00486" lon="5.83865">
        <ele>521</ele>
        <time>2000-01-01T18:36:18.000Z</time>
      </trkpt>
      <trkpt lat="44.00505" lon="5.83843">
        <ele>527</ele>
        <time>2000-01-01T18:36:28.000Z</time>
      </trkpt>
      <trkpt lat="44.00537" lon="5.83815">
        <ele>527</ele>
        <time>2000-01-01T18:36:38.000Z</time>
      </trkpt>
      <trkpt lat="44.00558" lon="5.83795">
        <ele>527</ele>
        <time>2000-01-01T18:36:48.000Z</time>
      </trkpt>
      <trkpt lat="44.00579" lon="5.83772">
        <ele>524</ele>
        <time>2000-01-01T18:36:58.000Z</time>
      </trkpt>
      <trkpt lat="44.00591" lon="5.83742">
        <ele>522</ele>
        <time>2000-01-01T18:37:08.000Z</time>
      </trkpt>
      <trkpt lat="44.00595" lon="5.83708">
        <ele>522</ele>
        <time>2000-01-01T18:37:18.000Z</time>
      </trkpt>
      <trkpt lat="44.00608" lon="5.83669">
        <ele>524</ele>
        <time>2000-01-01T18:37:28.000Z</time>
      </trkpt>
      <trkpt lat="44.00598" lon="5.83634">
        <ele>524</ele>
        <time>2000-01-01T18:37:38.000Z</time>
      </trkpt>
      <trkpt lat="44.00602" lon="5.83598">
        <ele>527</ele>
        <time>2000-01-01T18:37:48.000Z</time>
      </trkpt>
      <trkpt lat="44.00598" lon="5.83557">
        <ele>527</ele>
        <time>2000-01-01T18:37:58.000Z</time>
      </trkpt>
      <trkpt lat="44.00586" lon="5.8351">
        <ele>528</ele>
        <time>2000-01-01T18:38:08.000Z</time>
      </trkpt>
      <trkpt lat="44.00589" lon="5.83482">
        <ele>528</ele>
        <time>2000-01-01T18:38:18.000Z</time>
      </trkpt>
      <trkpt lat="44.00598" lon="5.83461">
        <ele>534.4</ele>
        <time>2000-01-01T18:38:28.000Z</time>
      </trkpt>
      <trkpt lat="44.00613" lon="5.8343">
        <ele>533</ele>
        <time>2000-01-01T18:38:38.000Z</time>
      </trkpt>
      <trkpt lat="44.00619" lon="5.83392">
        <ele>533</ele>
        <time>2000-01-01T18:38:48.000Z</time>
      </trkpt>
      <trkpt lat="44.00621" lon="5.83347">
        <ele>536</ele>
        <time>2000-01-01T18:38:58.000Z</time>
      </trkpt>
      <trkpt lat="44.00615" lon="5.83307">
        <ele>536</ele>
        <time>2000-01-01T18:39:08.000Z</time>
      </trkpt>
      <trkpt lat="44.00627" lon="5.83262">
        <ele>536</ele>
        <time>2000-01-01T18:39:18.000Z</time>
      </trkpt>
      <trkpt lat="44.00642" lon="5.83229">
        <ele>541</ele>
        <time>2000-01-01T18:39:28.000Z</time>
      </trkpt>
      <trkpt lat="44.0067" lon="5.83208">
        <ele>546</ele>
        <time>2000-01-01T18:39:38.000Z</time>
      </trkpt>
      <trkpt lat="44.00704" lon="5.83177">
        <ele>553</ele>
        <time>2000-01-01T18:39:48.000Z</time>
      </trkpt>
      <trkpt lat="44.00732" lon="5.83158">
        <ele>559</ele>
        <time>2000-01-01T18:39:58.000Z</time>
      </trkpt>
      <trkpt lat="44.00755" lon="5.83141">
        <ele>563</ele>
        <time>2000-01-01T18:40:08.000Z</time>
      </trkpt>
      <trkpt lat="44.00781" lon="5.83123">
        <ele>571</ele>
        <time>2000-01-01T18:40:18.000Z</time>
      </trkpt>
      <trkpt lat="44.00815" lon="5.83127">
        <ele>577</ele>
        <time>2000-01-01T18:40:28.000Z</time>
      </trkpt>
      <trkpt lat="44.00841" lon="5.83117">
        <ele>583</ele>
        <time>2000-01-01T18:40:38.000Z</time>
      </trkpt>
      <trkpt lat="44.00879" lon="5.83095">
        <ele>590</ele>
        <time>2000-01-01T18:40:48.000Z</time>
      </trkpt>
      <trkpt lat="44.00892" lon="5.8306">
        <ele>595</ele>
        <time>2000-01-01T18:40:58.000Z</time>
      </trkpt>
      <trkpt lat="44.0091" lon="5.83011">
        <ele>600</ele>
        <time>2000-01-01T18:41:08.000Z</time>
      </trkpt>
      <trkpt lat="44.00925" lon="5.8298">
        <ele>608</ele>
        <time>2000-01-01T18:41:18.000Z</time>
      </trkpt>
      <trkpt lat="44.00944" lon="5.82943">
        <ele>613</ele>
        <time>2000-01-01T18:41:28.000Z</time>
      </trkpt>
      <trkpt lat="44.00962" lon="5.82906">
        <ele>619</ele>
        <time>2000-01-01T18:41:38.000Z</time>
      </trkpt>
      <trkpt lat="44.0098" lon="5.82868">
        <ele>626</ele>
        <time>2000-01-01T18:41:48.000Z</time>
      </trkpt>
      <trkpt lat="44.00998" lon="5.82831">
        <ele>632</ele>
        <time>2000-01-01T18:41:58.000Z</time>
      </trkpt>
      <trkpt lat="44.01013" lon="5.82796">
        <ele>638</ele>
        <time>2000-01-01T18:42:08.000Z</time>
      </trkpt>
      <trkpt lat="44.01013" lon="5.8277">
        <ele>641.9</ele>
        <time>2000-01-01T18:42:18.000Z</time>
      </trkpt>
      <trkpt lat="44.00993" lon="5.82758">
        <ele>646</ele>
        <time>2000-01-01T18:42:28.000Z</time>
      </trkpt>
      <trkpt lat="44.00991" lon="5.82738">
        <ele>647.6</ele>
        <time>2000-01-01T18:42:38.000Z</time>
      </trkpt>
      <trkpt lat="44.01002" lon="5.82722">
        <ele>649</ele>
        <time>2000-01-01T18:42:48.000Z</time>
      </trkpt>
      <trkpt lat="44.01007" lon="5.82685">
        <ele>652</ele>
        <time>2000-01-01T18:42:58.000Z</time>
      </trkpt>
      <trkpt lat="44.00984" lon="5.82661">
        <ele>652</ele>
        <time>2000-01-01T18:43:08.000Z</time>
      </trkpt>
      <trkpt lat="44.00963" lon="5.82627">
        <ele>652</ele>
        <time>2000-01-01T18:43:18.000Z</time>
      </trkpt>
      <trkpt lat="44.00946" lon="5.82598">
        <ele>649</ele>
        <time>2000-01-01T18:43:28.000Z</time>
      </trkpt>
      <trkpt lat="44.00924" lon="5.82562">
        <ele>646</ele>
        <time>2000-01-01T18:43:38.000Z</time>
      </trkpt>
      <trkpt lat="44.00899" lon="5.82522">
        <ele>644</ele>
        <time>2000-01-01T18:43:48.000Z</time>
      </trkpt>
      <trkpt lat="44.00874" lon="5.8251">
        <ele>642</ele>
        <time>2000-01-01T18:43:58.000Z</time>
      </trkpt>
      <trkpt lat="44.00844" lon="5.82494">
        <ele>640</ele>
        <time>2000-01-01T18:44:08.000Z</time>
      </trkpt>
      <trkpt lat="44.00828" lon="5.82462">
        <ele>637</ele>
        <time>2000-01-01T18:44:18.000Z</time>
      </trkpt>
      <trkpt lat="44.00807" lon="5.82419">
        <ele>637</ele>
        <time>2000-01-01T18:44:28.000Z</time>
      </trkpt>
      <trkpt lat="44.00822" lon="5.82391">
        <ele>636</ele>
        <time>2000-01-01T18:44:38.000Z</time>
      </trkpt>
      <trkpt lat="44.00838" lon="5.82361">
        <ele>633</ele>
        <time>2000-01-01T18:44:48.000Z</time>
      </trkpt>
      <trkpt lat="44.00847" lon="5.82327">
        <ele>631</ele>
        <time>2000-01-01T18:44:58.000Z</time>
      </trkpt>
      <trkpt lat="44.00862" lon="5.82302">
        <ele>629</ele>
        <time>2000-01-01T18:45:08.000Z</time>
      </trkpt>
      <trkpt lat="44.00862" lon="5.82253">
        <ele>626</ele>
        <time>2000-01-01T18:45:18.000Z</time>
      </trkpt>
      <trkpt lat="44.00867" lon="5.82215">
        <ele>627</ele>
        <time>2000-01-01T18:45:28.000Z</time>
      </trkpt>
      <trkpt lat="44.00879" lon="5.82172">
        <ele>628</ele>
        <time>2000-01-01T18:45:38.000Z</time>
      </trkpt>
      <trkpt lat="44.00892" lon="5.8213">
        <ele>628</ele>
        <time>2000-01-01T18:45:48.000Z</time>
      </trkpt>
      <trkpt lat="44.00905" lon="5.82084">
        <ele>628</ele>
        <time>2000-01-01T18:45:58.000Z</time>
      </trkpt>
      <trkpt lat="44.00888" lon="5.82039">
        <ele>630</ele>
        <time>2000-01-01T18:46:08.000Z</time>
      </trkpt>
      <trkpt lat="44.00872" lon="5.82009">
        <ele>631</ele>
        <time>2000-01-01T18:46:18.000Z</time>
      </trkpt>
      <trkpt lat="44.00851" lon="5.81971">
        <ele>631</ele>
        <time>2000-01-01T18:46:28.000Z</time>
      </trkpt>
      <trkpt lat="44.00837" lon="5.81932">
        <ele>631</ele>
        <time>2000-01-01T18:46:38.000Z</time>
      </trkpt>
      <trkpt lat="44.00825" lon="5.81899">
        <ele>632</ele>
        <time>2000-01-01T18:46:48.000Z</time>
      </trkpt>
      <trkpt lat="44.00811" lon="5.81861">
        <ele>633</ele>
        <time>2000-01-01T18:46:58.000Z</time>
      </trkpt>
      <trkpt lat="44.00793" lon="5.81827">
        <ele>634</ele>
        <time>2000-01-01T18:47:08.000Z</time>
      </trkpt>
      <trkpt lat="44.00778" lon="5.81799">
        <ele>634</ele>
        <time>2000-01-01T18:47:18.000Z</time>
      </trkpt>
      <trkpt lat="44.00762" lon="5.81769">
        <ele>635</ele>
        <time>2000-01-01T18:47:28.000Z</time>
      </trkpt>
      <trkpt lat="44.00748" lon="5.81733">
        <ele>635</ele>
        <time>2000-01-01T18:47:38.000Z</time>
      </trkpt>
      <trkpt lat="44.00726" lon="5.81679">
        <ele>638</ele>
        <time>2000-01-01T18:47:48.000Z</time>
      </trkpt>
      <trkpt lat="44.00712" lon="5.81651">
        <ele>640</ele>
        <time>2000-01-01T18:47:58.000Z</time>
      </trkpt>
      <trkpt lat="44.00694" lon="5.81617">
        <ele>643</ele>
        <time>2000-01-01T18:48:08.000Z</time>
      </trkpt>
      <trkpt lat="44.00666" lon="5.81563">
        <ele>645</ele>
        <time>2000-01-01T18:48:18.000Z</time>
      </trkpt>
      <trkpt lat="44.0066" lon="5.81533">
        <ele>647</ele>
        <time>2000-01-01T18:48:28.000Z</time>
      </trkpt>
      <trkpt lat="44.0066" lon="5.81499">
        <ele>647</ele>
        <time>2000-01-01T18:48:38.000Z</time>
      </trkpt>
      <trkpt lat="44.00666" lon="5.81456">
        <ele>649</ele>
        <time>2000-01-01T18:48:48.000Z</time>
      </trkpt>
      <trkpt lat="44.00685" lon="5.814">
        <ele>651</ele>
        <time>2000-01-01T18:48:58.000Z</time>
      </trkpt>
      <trkpt lat="44.00714" lon="5.81372">
        <ele>655</ele>
        <time>2000-01-01T18:49:08.000Z</time>
      </trkpt>
      <trkpt lat="44.00733" lon="5.81361">
        <ele>658</ele>
        <time>2000-01-01T18:49:18.000Z</time>
      </trkpt>
      <trkpt lat="44.00741" lon="5.81329">
        <ele>659</ele>
        <time>2000-01-01T18:49:28.000Z</time>
      </trkpt>
      <trkpt lat="44.0075" lon="5.81295">
        <ele>660</ele>
        <time>2000-01-01T18:49:38.000Z</time>
      </trkpt>
      <trkpt lat="44.00762" lon="5.81344">
        <ele>663</ele>
        <time>2000-01-01T18:49:48.000Z</time>
      </trkpt>
      <trkpt lat="44.00784" lon="5.8132">
        <ele>665</ele>
        <time>2000-01-01T18:49:58.000Z</time>
      </trkpt>
      <trkpt lat="44.00807" lon="5.81353">
        <ele>667</ele>
        <time>2000-01-01T18:50:08.000Z</time>
      </trkpt>
      <trkpt lat="44.00831" lon="5.81335">
        <ele>670</ele>
        <time>2000-01-01T18:50:18.000Z</time>
      </trkpt>
      <trkpt lat="44.00849" lon="5.81305">
        <ele>672</ele>
        <time>2000-01-01T18:50:28.000Z</time>
      </trkpt>
      <trkpt lat="44.00875" lon="5.81263">
        <ele>674</ele>
        <time>2000-01-01T18:50:38.000Z</time>
      </trkpt>
      <trkpt lat="44.0085" lon="5.81224">
        <ele>676</ele>
        <time>2000-01-01T18:50:48.000Z</time>
      </trkpt>
      <trkpt lat="44.00845" lon="5.81187">
        <ele>678</ele>
        <time>2000-01-01T18:50:58.000Z</time>
      </trkpt>
      <trkpt lat="44.00839" lon="5.81138">
        <ele>679</ele>
        <time>2000-01-01T18:51:08.000Z</time>
      </trkpt>
      <trkpt lat="44.00838" lon="5.81089">
        <ele>683</ele>
        <time>2000-01-01T18:51:18.000Z</time>
      </trkpt>
      <trkpt lat="44.00835" lon="5.81053">
        <ele>684</ele>
        <time>2000-01-01T18:51:28.000Z</time>
      </trkpt>
      <trkpt lat="44.00833" lon="5.8101">
        <ele>686</ele>
        <time>2000-01-01T18:51:38.000Z</time>
      </trkpt>
      <trkpt lat="44.0083" lon="5.80967">
        <ele>685</ele>
        <time>2000-01-01T18:51:48.000Z</time>
      </trkpt>
      <trkpt lat="44.00828" lon="5.80931">
        <ele>684</ele>
        <time>2000-01-01T18:51:58.000Z</time>
      </trkpt>
      <trkpt lat="44.00825" lon="5.80891">
        <ele>688</ele>
        <time>2000-01-01T18:52:08.000Z</time>
      </trkpt>
      <trkpt lat="44.0081" lon="5.80859">
        <ele>692</ele>
        <time>2000-01-01T18:52:18.000Z</time>
      </trkpt>
      <trkpt lat="44.0079" lon="5.80816">
        <ele>697</ele>
        <time>2000-01-01T18:52:28.000Z</time>
      </trkpt>
      <trkpt lat="44.00781" lon="5.8078">
        <ele>706</ele>
        <time>2000-01-01T18:52:38.000Z</time>
      </trkpt>
      <trkpt lat="44.0077" lon="5.8073">
        <ele>715</ele>
        <time>2000-01-01T18:52:48.000Z</time>
      </trkpt>
      <trkpt lat="44.00753" lon="5.80683">
        <ele>724</ele>
        <time>2000-01-01T18:52:58.000Z</time>
      </trkpt>
      <trkpt lat="44.00773" lon="5.80656">
        <ele>730</ele>
        <time>2000-01-01T18:53:08.000Z</time>
      </trkpt>
      <trkpt lat="44.00792" lon="5.80629">
        <ele>735</ele>
        <time>2000-01-01T18:53:18.000Z</time>
      </trkpt>
      <trkpt lat="44.00818" lon="5.80593">
        <ele>740</ele>
        <time>2000-01-01T18:53:28.000Z</time>
      </trkpt>
      <trkpt lat="44.00839" lon="5.80565">
        <ele>744</ele>
        <time>2000-01-01T18:53:38.000Z</time>
      </trkpt>
      <trkpt lat="44.00861" lon="5.80542">
        <ele>749</ele>
        <time>2000-01-01T18:53:48.000Z</time>
      </trkpt>
      <trkpt lat="44.00888" lon="5.80512">
        <ele>755</ele>
        <time>2000-01-01T18:53:58.000Z</time>
      </trkpt>
      <trkpt lat="44.00879" lon="5.80469">
        <ele>759</ele>
        <time>2000-01-01T18:54:08.000Z</time>
      </trkpt>
      <trkpt lat="44.00856" lon="5.80442">
        <ele>759</ele>
        <time>2000-01-01T18:54:18.000Z</time>
      </trkpt>
      <trkpt lat="44.00821" lon="5.804">
        <ele>756</ele>
        <time>2000-01-01T18:54:28.000Z</time>
      </trkpt>
      <trkpt lat="44.00812" lon="5.80365">
        <ele>755</ele>
        <time>2000-01-01T18:54:38.000Z</time>
      </trkpt>
      <trkpt lat="44.00802" lon="5.80322">
        <ele>752</ele>
        <time>2000-01-01T18:54:48.000Z</time>
      </trkpt>
      <trkpt lat="44.00799" lon="5.80282">
        <ele>749</ele>
        <time>2000-01-01T18:54:58.000Z</time>
      </trkpt>
      <trkpt lat="44.00796" lon="5.80227">
        <ele>747</ele>
        <time>2000-01-01T18:55:08.000Z</time>
      </trkpt>
      <trkpt lat="44.00813" lon="5.80184">
        <ele>747</ele>
        <time>2000-01-01T18:55:18.000Z</time>
      </trkpt>
      <trkpt lat="44.00816" lon="5.80146">
        <ele>741</ele>
        <time>2000-01-01T18:55:28.000Z</time>
      </trkpt>
      <trkpt lat="44.00819" lon="5.80094">
        <ele>735</ele>
        <time>2000-01-01T18:55:38.000Z</time>
      </trkpt>
      <trkpt lat="44.00819" lon="5.80045">
        <ele>733</ele>
        <time>2000-01-01T18:55:48.000Z</time>
      </trkpt>
      <trkpt lat="44.00816" lon="5.80001">
        <ele>731</ele>
        <time>2000-01-01T18:55:58.000Z</time>
      </trkpt>
      <trkpt lat="44.00813" lon="5.79963">
        <ele>731</ele>
        <time>2000-01-01T18:56:08.000Z</time>
      </trkpt>
      <trkpt lat="44.0081" lon="5.79916">
        <ele>729</ele>
        <time>2000-01-01T18:56:18.000Z</time>
      </trkpt>
      <trkpt lat="44.00817" lon="5.79881">
        <ele>727</ele>
        <time>2000-01-01T18:56:28.000Z</time>
      </trkpt>
      <trkpt lat="44.00824" lon="5.79842">
        <ele>724</ele>
        <time>2000-01-01T18:56:38.000Z</time>
      </trkpt>
      <trkpt lat="44.00832" lon="5.79804">
        <ele>723</ele>
        <time>2000-01-01T18:56:48.000Z</time>
      </trkpt>
      <trkpt lat="44.00844" lon="5.79751">
        <ele>723</ele>
        <time>2000-01-01T18:56:58.000Z</time>
      </trkpt>
      <trkpt lat="44.00859" lon="5.79711">
        <ele>720</ele>
        <time>2000-01-01T18:57:08.000Z</time>
      </trkpt>
      <trkpt lat="44.00871" lon="5.79677">
        <ele>717</ele>
        <time>2000-01-01T18:57:18.000Z</time>
      </trkpt>
      <trkpt lat="44.00888" lon="5.79631">
        <ele>709</ele>
        <time>2000-01-01T18:57:28.000Z</time>
      </trkpt>
      <trkpt lat="44.00882" lon="5.79589">
        <ele>705</ele>
        <time>2000-01-01T18:57:38.000Z</time>
      </trkpt>
      <trkpt lat="44.00848" lon="5.79587">
        <ele>703</ele>
        <time>2000-01-01T18:57:48.000Z</time>
      </trkpt>
      <trkpt lat="44.00856" lon="5.79528">
        <ele>701</ele>
        <time>2000-01-01T18:57:58.000Z</time>
      </trkpt>
      <trkpt lat="44.00851" lon="5.79493">
        <ele>701</ele>
        <time>2000-01-01T18:58:08.000Z</time>
      </trkpt>
      <trkpt lat="44.00844" lon="5.79452">
        <ele>702</ele>
        <time>2000-01-01T18:58:18.000Z</time>
      </trkpt>
      <trkpt lat="44.00865" lon="5.79416">
        <ele>707</ele>
        <time>2000-01-01T18:58:28.000Z</time>
      </trkpt>
      <trkpt lat="44.00851" lon="5.79375">
        <ele>709</ele>
        <time>2000-01-01T18:58:38.000Z</time>
      </trkpt>
      <trkpt lat="44.00862" lon="5.79358">
        <ele>712</ele>
        <time>2000-01-01T18:58:48.000Z</time>
      </trkpt>
      <trkpt lat="44.00888" lon="5.79354">
        <ele>711</ele>
        <time>2000-01-01T18:58:58.000Z</time>
      </trkpt>
      <trkpt lat="44.00893" lon="5.79326">
        <ele>711</ele>
        <time>2000-01-01T18:59:08.000Z</time>
      </trkpt>
      <trkpt lat="44.00889" lon="5.79316">
        <ele>715</ele>
        <time>2000-01-01T18:59:18.000Z</time>
      </trkpt>
      <trkpt lat="44.00867" lon="5.79309">
        <ele>711</ele>
        <time>2000-01-01T18:59:28.000Z</time>
      </trkpt>
      <trkpt lat="44.00843" lon="5.79304">
        <ele>711</ele>
        <time>2000-01-01T18:59:38.000Z</time>
      </trkpt>
      <trkpt lat="44.00817" lon="5.79297">
        <ele>711</ele>
        <time>2000-01-01T18:59:48.000Z</time>
      </trkpt>
      <trkpt lat="44.00784" lon="5.79289">
        <ele>712</ele>
        <time>2000-01-01T18:59:58.000Z</time>
      </trkpt>
      <trkpt lat="44.00761" lon="5.79267">
        <ele>713</ele>
        <time>2000-01-01T19:00:08.000Z</time>
      </trkpt>
      <trkpt lat="44.0073" lon="5.79236">
        <ele>713</ele>
        <time>2000-01-01T19:00:18.000Z</time>
      </trkpt>
      <trkpt lat="44.00703" lon="5.79257">
        <ele>710</ele>
        <time>2000-01-01T19:00:28.000Z</time>
      </trkpt>
      <trkpt lat="44.00681" lon="5.79275">
        <ele>709</ele>
        <time>2000-01-01T19:00:38.000Z</time>
      </trkpt>
      <trkpt lat="44.00656" lon="5.79295">
        <ele>709</ele>
        <time>2000-01-01T19:00:48.000Z</time>
      </trkpt>
      <trkpt lat="44.00632" lon="5.79306">
        <ele>708</ele>
        <time>2000-01-01T19:00:58.000Z</time>
      </trkpt>
      <trkpt lat="44.00605" lon="5.79318">
        <ele>707</ele>
        <time>2000-01-01T19:01:08.000Z</time>
      </trkpt>
      <trkpt lat="44.00573" lon="5.79323">
        <ele>704</ele>
        <time>2000-01-01T19:01:18.000Z</time>
      </trkpt>
      <trkpt lat="44.00537" lon="5.79327">
        <ele>704</ele>
        <time>2000-01-01T19:01:28.000Z</time>
      </trkpt>
      <trkpt lat="44.00505" lon="5.79331">
        <ele>704</ele>
        <time>2000-01-01T19:01:38.000Z</time>
      </trkpt>
      <trkpt lat="44.00472" lon="5.79335">
        <ele>704</ele>
        <time>2000-01-01T19:01:48.000Z</time>
      </trkpt>
      <trkpt lat="44.00438" lon="5.7934">
        <ele>703</ele>
        <time>2000-01-01T19:01:58.000Z</time>
      </trkpt>
      <trkpt lat="44.004" lon="5.79329">
        <ele>697</ele>
        <time>2000-01-01T19:02:08.000Z</time>
      </trkpt>
      <trkpt lat="44.00369" lon="5.79295">
        <ele>694</ele>
        <time>2000-01-01T19:02:18.000Z</time>
      </trkpt>
      <trkpt lat="44.00347" lon="5.79265">
        <ele>694</ele>
        <time>2000-01-01T19:02:28.000Z</time>
      </trkpt>
      <trkpt lat="44.00328" lon="5.79241">
        <ele>694</ele>
        <time>2000-01-01T19:02:38.000Z</time>
      </trkpt>
      <trkpt lat="44.00307" lon="5.79213">
        <ele>694</ele>
        <time>2000-01-01T19:02:48.000Z</time>
      </trkpt>
      <trkpt lat="44.00287" lon="5.79189">
        <ele>695</ele>
        <time>2000-01-01T19:02:58.000Z</time>
      </trkpt>
      <trkpt lat="44.00262" lon="5.7916">
        <ele>695</ele>
        <time>2000-01-01T19:03:08.000Z</time>
      </trkpt>
      <trkpt lat="44.00231" lon="5.79152">
        <ele>695</ele>
        <time>2000-01-01T19:03:18.000Z</time>
      </trkpt>
      <trkpt lat="44.00205" lon="5.79146">
        <ele>698</ele>
        <time>2000-01-01T19:03:28.000Z</time>
      </trkpt>
      <trkpt lat="44.00174" lon="5.79138">
        <ele>698</ele>
        <time>2000-01-01T19:03:38.000Z</time>
      </trkpt>
      <trkpt lat="44.00145" lon="5.79136">
        <ele>696</ele>
        <time>2000-01-01T19:03:48.000Z</time>
      </trkpt>
      <trkpt lat="44.00103" lon="5.79132">
        <ele>695</ele>
        <time>2000-01-01T19:03:58.000Z</time>
      </trkpt>
      <trkpt lat="44.00067" lon="5.79167">
        <ele>686</ele>
        <time>2000-01-01T19:04:08.000Z</time>
      </trkpt>
      <trkpt lat="44.00066" lon="5.79174">
        <ele>684.8</ele>
        <time>2000-01-01T19:04:18.000Z</time>
      </trkpt>
      <trkpt lat="44.00064" lon="5.79219">
        <ele>672</ele>
        <time>2000-01-01T19:04:28.000Z</time>
      </trkpt>
      <trkpt lat="44.00061" lon="5.79266">
        <ele>662</ele>
        <time>2000-01-01T19:04:38.000Z</time>
      </trkpt>
      <trkpt lat="44.00034" lon="5.79283">
        <ele>661</ele>
        <time>2000-01-01T19:04:48.000Z</time>
      </trkpt>
      <trkpt lat="43.99993" lon="5.79309">
        <ele>659</ele>
        <time>2000-01-01T19:04:58.000Z</time>
      </trkpt>
      <trkpt lat="43.99959" lon="5.79315">
        <ele>658</ele>
        <time>2000-01-01T19:05:08.000Z</time>
      </trkpt>
      <trkpt lat="43.99928" lon="5.79321">
        <ele>656</ele>
        <time>2000-01-01T19:05:18.000Z</time>
      </trkpt>
      <trkpt lat="43.99902" lon="5.79326">
        <ele>656</ele>
        <time>2000-01-01T19:05:28.000Z</time>
      </trkpt>
      <trkpt lat="43.99873" lon="5.79332">
        <ele>652</ele>
        <time>2000-01-01T19:05:38.000Z</time>
      </trkpt>
      <trkpt lat="43.99839" lon="5.79332">
        <ele>648</ele>
        <time>2000-01-01T19:05:48.000Z</time>
      </trkpt>
      <trkpt lat="43.99806" lon="5.79332">
        <ele>646</ele>
        <time>2000-01-01T19:05:58.000Z</time>
      </trkpt>
      <trkpt lat="43.99763" lon="5.79332">
        <ele>643</ele>
        <time>2000-01-01T19:06:08.000Z</time>
      </trkpt>
      <trkpt lat="43.99736" lon="5.79337">
        <ele>641</ele>
        <time>2000-01-01T19:06:18.000Z</time>
      </trkpt>
      <trkpt lat="43.99703" lon="5.79343">
        <ele>637</ele>
        <time>2000-01-01T19:06:28.000Z</time>
      </trkpt>
      <trkpt lat="43.99664" lon="5.79349">
        <ele>636</ele>
        <time>2000-01-01T19:06:38.000Z</time>
      </trkpt>
      <trkpt lat="43.99635" lon="5.79351">
        <ele>633</ele>
        <time>2000-01-01T19:06:48.000Z</time>
      </trkpt>
      <trkpt lat="43.99589" lon="5.79354">
        <ele>629</ele>
        <time>2000-01-01T19:06:58.000Z</time>
      </trkpt>
      <trkpt lat="43.99541" lon="5.79351">
        <ele>628</ele>
        <time>2000-01-01T19:07:08.000Z</time>
      </trkpt>
      <trkpt lat="43.99513" lon="5.79362">
        <ele>625</ele>
        <time>2000-01-01T19:07:18.000Z</time>
      </trkpt>
      <trkpt lat="43.99471" lon="5.79377">
        <ele>624</ele>
        <time>2000-01-01T19:07:28.000Z</time>
      </trkpt>
      <trkpt lat="43.99445" lon="5.79391">
        <ele>622</ele>
        <time>2000-01-01T19:07:38.000Z</time>
      </trkpt>
      <trkpt lat="43.99409" lon="5.79411">
        <ele>621</ele>
        <time>2000-01-01T19:07:48.000Z</time>
      </trkpt>
      <trkpt lat="43.99374" lon="5.79431">
        <ele>621</ele>
        <time>2000-01-01T19:07:58.000Z</time>
      </trkpt>
      <trkpt lat="43.99347" lon="5.79443">
        <ele>621</ele>
        <time>2000-01-01T19:08:08.000Z</time>
      </trkpt>
      <trkpt lat="43.99307" lon="5.79461">
        <ele>618</ele>
        <time>2000-01-01T19:08:18.000Z</time>
      </trkpt>
      <trkpt lat="43.99287" lon="5.79488">
        <ele>614</ele>
        <time>2000-01-01T19:08:28.000Z</time>
      </trkpt>
      <trkpt lat="43.99259" lon="5.79526">
        <ele>607</ele>
        <time>2000-01-01T19:08:38.000Z</time>
      </trkpt>
      <trkpt lat="43.99231" lon="5.79565">
        <ele>599</ele>
        <time>2000-01-01T19:08:48.000Z</time>
      </trkpt>
      <trkpt lat="43.99205" lon="5.79588">
        <ele>593</ele>
        <time>2000-01-01T19:08:58.000Z</time>
      </trkpt>
      <trkpt lat="43.99185" lon="5.79607">
        <ele>589</ele>
        <time>2000-01-01T19:09:08.000Z</time>
      </trkpt>
      <trkpt lat="43.99164" lon="5.79626">
        <ele>583</ele>
        <time>2000-01-01T19:09:18.000Z</time>
      </trkpt>
      <trkpt lat="43.99138" lon="5.79636">
        <ele>578</ele>
        <time>2000-01-01T19:09:28.000Z</time>
      </trkpt>
      <trkpt lat="43.99108" lon="5.79647">
        <ele>574</ele>
        <time>2000-01-01T19:09:38.000Z</time>
      </trkpt>
      <trkpt lat="43.99079" lon="5.79659">
        <ele>569</ele>
        <time>2000-01-01T19:09:48.000Z</time>
      </trkpt>
      <trkpt lat="43.99054" lon="5.7966">
        <ele>566</ele>
        <time>2000-01-01T19:09:58.000Z</time>
      </trkpt>
      <trkpt lat="43.99028" lon="5.79661">
        <ele>560</ele>
        <time>2000-01-01T19:10:08.000Z</time>
      </trkpt>
      <trkpt lat="43.99003" lon="5.79679">
        <ele>557</ele>
        <time>2000-01-01T19:10:18.000Z</time>
      </trkpt>
      <trkpt lat="43.98971" lon="5.79704">
        <ele>549</ele>
        <time>2000-01-01T19:10:28.000Z</time>
      </trkpt>
      <trkpt lat="43.9895" lon="5.79713">
        <ele>544</ele>
        <time>2000-01-01T19:10:38.000Z</time>
      </trkpt>
      <trkpt lat="43.98943" lon="5.79704">
        <ele>544.9</ele>
        <time>2000-01-01T19:10:48.000Z</time>
      </trkpt>
      <trkpt lat="43.98923" lon="5.79683">
        <ele>543</ele>
        <time>2000-01-01T19:10:58.000Z</time>
      </trkpt>
      <trkpt lat="43.98892" lon="5.79694">
        <ele>536</ele>
        <time>2000-01-01T19:11:08.000Z</time>
      </trkpt>
      <trkpt lat="43.98859" lon="5.79723">
        <ele>529</ele>
        <time>2000-01-01T19:11:18.000Z</time>
      </trkpt>
      <trkpt lat="43.9884" lon="5.79734">
        <ele>524</ele>
        <time>2000-01-01T19:11:28.000Z</time>
      </trkpt>
      <trkpt lat="43.9883" lon="5.79774">
        <ele>520</ele>
        <time>2000-01-01T19:11:38.000Z</time>
      </trkpt>
      <trkpt lat="43.98822" lon="5.79785">
        <ele>520.3</ele>
        <time>2000-01-01T19:11:48.000Z</time>
      </trkpt>
      <trkpt lat="43.98839" lon="5.79811">
        <ele>518</ele>
        <time>2000-01-01T19:11:58.000Z</time>
      </trkpt>
      <trkpt lat="43.98805" lon="5.79824">
        <ele>517</ele>
        <time>2000-01-01T19:12:08.000Z</time>
      </trkpt>
      <trkpt lat="43.98767" lon="5.79847">
        <ele>517</ele>
        <time>2000-01-01T19:12:18.000Z</time>
      </trkpt>
      <trkpt lat="43.98744" lon="5.79868">
        <ele>516</ele>
        <time>2000-01-01T19:12:28.000Z</time>
      </trkpt>
      <trkpt lat="43.98713" lon="5.79895">
        <ele>514</ele>
        <time>2000-01-01T19:12:38.000Z</time>
      </trkpt>
      <trkpt lat="43.987" lon="5.79903">
        <ele>514.1</ele>
        <time>2000-01-01T19:12:48.000Z</time>
      </trkpt>
      <trkpt lat="43.9868" lon="5.79908">
        <ele>513</ele>
        <time>2000-01-01T19:12:58.000Z</time>
      </trkpt>
      <trkpt lat="43.98671" lon="5.79908">
        <ele>513.4</ele>
        <time>2000-01-01T19:13:08.000Z</time>
      </trkpt>
      <trkpt lat="43.98659" lon="5.79916">
        <ele>512</ele>
        <time>2000-01-01T19:13:18.000Z</time>
      </trkpt>
      <trkpt lat="43.98659" lon="5.7991">
        <ele>513</ele>
        <time>2000-01-01T19:13:28.000Z</time>
      </trkpt>
      <trkpt lat="43.98652" lon="5.79918">
        <ele>512.4</ele>
        <time>2000-01-01T19:13:38.000Z</time>
      </trkpt>
      <trkpt lat="43.98649" lon="5.79917">
        <ele>512.4</ele>
        <time>2000-01-01T19:13:48.000Z</time>
      </trkpt>
      <trkpt lat="43.98647" lon="5.79921">
        <ele>512</ele>
        <time>2000-01-01T19:13:58.000Z</time>
      </trkpt>
      <trkpt lat="43.98642" lon="5.79923">
        <ele>511.9</ele>
        <time>2000-01-01T19:14:08.000Z</time>
      </trkpt>
      <trkpt lat="43.98628" lon="5.79926">
        <ele>511.7</ele>
        <time>2000-01-01T19:14:18.000Z</time>
      </trkpt>
      <trkpt lat="43.98608" lon="5.79926">
        <ele>511</ele>
        <time>2000-01-01T19:14:28.000Z</time>
      </trkpt>
      <trkpt lat="43.98604" lon="5.79927">
        <ele>511.6</ele>
        <time>2000-01-01T19:14:38.000Z</time>
      </trkpt>
      <trkpt lat="43.98592" lon="5.79927">
        <ele>511.6</ele>
        <time>2000-01-01T19:14:48.000Z</time>
      </trkpt>
      <trkpt lat="43.9859" lon="5.79926">
        <ele>511.7</ele>
        <time>2000-01-01T19:14:58.000Z</time>
      </trkpt>
      <trkpt lat="43.98583" lon="5.79925">
        <ele>511</ele>
        <time>2000-01-01T19:15:08.000Z</time>
      </trkpt>
      <trkpt lat="43.98572" lon="5.79925">
        <ele>511.3</ele>
        <time>2000-01-01T19:15:18.000Z</time>
      </trkpt>
      <trkpt lat="43.98568" lon="5.79923">
        <ele>511.2</ele>
        <time>2000-01-01T19:15:28.000Z</time>
      </trkpt>
      <trkpt lat="43.98565" lon="5.7992">
        <ele>511.2</ele>
        <time>2000-01-01T19:15:38.000Z</time>
      </trkpt>
      <trkpt lat="43.98563" lon="5.79912">
        <ele>512</ele>
        <time>2000-01-01T19:15:48.000Z</time>
      </trkpt>
      <trkpt lat="43.98563" lon="5.79907">
        <ele>512.5</ele>
        <time>2000-01-01T19:15:58.000Z</time>
      </trkpt>
      <trkpt lat="43.98566" lon="5.79901">
        <ele>513.2</ele>
        <time>2000-01-01T19:16:08.000Z</time>
      </trkpt>
      <trkpt lat="43.98566" lon="5.79886">
        <ele>516</ele>
        <time>2000-01-01T19:16:18.000Z</time>
      </trkpt>
      <trkpt lat="43.98564" lon="5.7988">
        <ele>516.3</ele>
        <time>2000-01-01T19:16:28.000Z</time>
      </trkpt>
      <trkpt lat="43.98564" lon="5.79877">
        <ele>516.8</ele>
        <time>2000-01-01T19:16:38.000Z</time>
      </trkpt>
      <trkpt lat="43.98561" lon="5.79872">
        <ele>517.8</ele>
        <time>2000-01-01T19:16:48.000Z</time>
      </trkpt>
      <trkpt lat="43.98557" lon="5.79868">
        <ele>518.7</ele>
        <time>2000-01-01T19:16:58.000Z</time>
      </trkpt>
      <trkpt lat="43.98555" lon="5.79862">
        <ele>519</ele>
        <time>2000-01-01T19:17:08.000Z</time>
      </trkpt>
      <trkpt lat="43.98555" lon="5.79855">
        <ele>521.1</ele>
        <time>2000-01-01T19:17:18.000Z</time>
      </trkpt>
      <trkpt lat="43.98556" lon="5.79853">
        <ele>521.4</ele>
        <time>2000-01-01T19:17:28.000Z</time>
      </trkpt>
      <trkpt lat="43.98556" lon="5.7985">
        <ele>522</ele>
        <time>2000-01-01T19:17:38.000Z</time>
      </trkpt>
      <trkpt lat="43.98557" lon="5.79848">
        <ele>522.3</ele>
        <time>2000-01-01T19:17:48.000Z</time>
      </trkpt>
      <trkpt lat="43.98557" lon="5.79845">
        <ele>522.9</ele>
        <time>2000-01-01T19:17:58.000Z</time>
      </trkpt>
      <trkpt lat="43.9856" lon="5.79835">
        <ele>524</ele>
        <time>2000-01-01T19:18:08.000Z</time>
      </trkpt>
      <trkpt lat="43.9856" lon="5.79832">
        <ele>525.2</ele>
        <time>2000-01-01T19:18:18.000Z</time>
      </trkpt>
      <trkpt lat="43.98561" lon="5.7983">
        <ele>525.4</ele>
        <time>2000-01-01T19:18:28.000Z</time>
      </trkpt>
      <trkpt lat="43.98561" lon="5.79827">
        <ele>525.8</ele>
        <time>2000-01-01T19:18:38.000Z</time>
      </trkpt>
      <trkpt lat="43.98563" lon="5.7982">
        <ele>526.8</ele>
        <time>2000-01-01T19:18:48.000Z</time>
      </trkpt>
      <trkpt lat="43.98569" lon="5.79804">
        <ele>529</ele>
        <time>2000-01-01T19:18:58.000Z</time>
      </trkpt>
      <trkpt lat="43.98571" lon="5.79801">
        <ele>530.1</ele>
        <time>2000-01-01T19:19:08.000Z</time>
      </trkpt>
      <trkpt lat="43.98575" lon="5.79797">
        <ele>530.9</ele>
        <time>2000-01-01T19:19:18.000Z</time>
      </trkpt>
      <trkpt lat="43.9858" lon="5.79795">
        <ele>531.5</ele>
        <time>2000-01-01T19:19:28.000Z</time>
      </trkpt>
      <trkpt lat="43.98587" lon="5.79795">
        <ele>531</ele>
        <time>2000-01-01T19:19:38.000Z</time>
      </trkpt>
      <trkpt lat="43.9859" lon="5.79794">
        <ele>532.1</ele>
        <time>2000-01-01T19:19:48.000Z</time>
      </trkpt>
      <trkpt lat="43.98593" lon="5.79794">
        <ele>532.3</ele>
        <time>2000-01-01T19:19:58.000Z</time>
      </trkpt>
      <trkpt lat="43.98595" lon="5.79792">
        <ele>532.6</ele>
        <time>2000-01-01T19:20:08.000Z</time>
      </trkpt>
      <trkpt lat="43.98598" lon="5.79792">
        <ele>532.7</ele>
        <time>2000-01-01T19:20:18.000Z</time>
      </trkpt>
      <trkpt lat="43.98602" lon="5.79787">
        <ele>533.7</ele>
        <time>2000-01-01T19:20:28.000Z</time>
      </trkpt>
      <trkpt lat="43.98605" lon="5.79785">
        <ele>535</ele>
        <time>2000-01-01T19:20:38.000Z</time>
      </trkpt>
      <trkpt lat="43.98607" lon="5.79782">
        <ele>534.9</ele>
        <time>2000-01-01T19:20:48.000Z</time>
      </trkpt>
      <trkpt lat="43.98608" lon="5.79779">
        <ele>535.5</ele>
        <time>2000-01-01T19:20:58.000Z</time>
      </trkpt>
      <trkpt lat="43.98612" lon="5.79774">
        <ele>536.6</ele>
        <time>2000-01-01T19:21:08.000Z</time>
      </trkpt>
      <trkpt lat="43.98613" lon="5.79771">
        <ele>537.1</ele>
        <time>2000-01-01T19:21:18.000Z</time>
      </trkpt>
      <trkpt lat="43.98613" lon="5.79768">
        <ele>537.6</ele>
        <time>2000-01-01T19:21:28.000Z</time>
      </trkpt>
      <trkpt lat="43.98612" lon="5.79765">
        <ele>538.2</ele>
        <time>2000-01-01T19:21:38.000Z</time>
      </trkpt>
      <trkpt lat="43.9861" lon="5.79762">
        <ele>538</ele>
        <time>2000-01-01T19:21:48.000Z</time>
      </trkpt>
      <trkpt lat="43.98605" lon="5.79758">
        <ele>539.2</ele>
        <time>2000-01-01T19:21:58.000Z</time>
      </trkpt>
      <trkpt lat="43.98597" lon="5.7975">
        <ele>540.5</ele>
        <time>2000-01-01T19:22:08.000Z</time>
      </trkpt>
      <trkpt lat="43.98595" lon="5.79746">
        <ele>541</ele>
        <time>2000-01-01T19:22:18.000Z</time>
      </trkpt>
      <trkpt lat="43.98592" lon="5.79744">
        <ele>542</ele>
        <time>2000-01-01T19:22:28.000Z</time>
      </trkpt>
      <trkpt lat="43.9859" lon="5.79741">
        <ele>541.4</ele>
        <time>2000-01-01T19:22:38.000Z</time>
      </trkpt>
      <trkpt lat="43.98583" lon="5.79734">
        <ele>541.7</ele>
        <time>2000-01-01T19:22:48.000Z</time>
      </trkpt>
      <trkpt lat="43.98573" lon="5.79731">
        <ele>542</ele>
        <time>2000-01-01T19:22:58.000Z</time>
      </trkpt>
      <trkpt lat="43.98571" lon="5.7973">
        <ele>541.3</ele>
        <time>2000-01-01T19:23:08.000Z</time>
      </trkpt>
      <trkpt lat="43.9857" lon="5.79728">
        <ele>541.6</ele>
        <time>2000-01-01T19:23:18.000Z</time>
      </trkpt>
      <trkpt lat="43.9857" lon="5.79724">
        <ele>542.2</ele>
        <time>2000-01-01T19:23:28.000Z</time>
      </trkpt>
      <trkpt lat="43.98571" lon="5.79719">
        <ele>543</ele>
        <time>2000-01-01T19:23:38.000Z</time>
      </trkpt>
      <trkpt lat="43.98573" lon="5.79716">
        <ele>543.4</ele>
        <time>2000-01-01T19:23:48.000Z</time>
      </trkpt>
      <trkpt lat="43.98577" lon="5.79712">
        <ele>544</ele>
        <time>2000-01-01T19:23:58.000Z</time>
      </trkpt>
      <trkpt lat="43.9858" lon="5.7971">
        <ele>544</ele>
        <time>2000-01-01T19:24:08.000Z</time>
      </trkpt>
      <trkpt lat="43.98587" lon="5.79703">
        <ele>545.5</ele>
        <time>2000-01-01T19:24:18.000Z</time>
      </trkpt>
      <trkpt lat="43.98595" lon="5.79691">
        <ele>546</ele>
        <time>2000-01-01T19:24:28.000Z</time>
      </trkpt>
      <trkpt lat="43.98598" lon="5.79684">
        <ele>548.2</ele>
        <time>2000-01-01T19:24:38.000Z</time>
      </trkpt>
      <trkpt lat="43.986" lon="5.79676">
        <ele>548.9</ele>
        <time>2000-01-01T19:24:48.000Z</time>
      </trkpt>
      <trkpt lat="43.986" lon="5.79672">
        <ele>549.1</ele>
        <time>2000-01-01T19:24:58.000Z</time>
      </trkpt>
      <trkpt lat="43.98599" lon="5.79668">
        <ele>549.2</ele>
        <time>2000-01-01T19:25:08.000Z</time>
      </trkpt>
      <trkpt lat="43.98599" lon="5.79663">
        <ele>547</ele>
        <time>2000-01-01T19:25:18.000Z</time>
      </trkpt>
      <trkpt lat="43.98602" lon="5.79651">
        <ele>551</ele>
        <time>2000-01-01T19:25:28.000Z</time>
      </trkpt>
      <trkpt lat="43.98604" lon="5.79648">
        <ele>551.3</ele>
        <time>2000-01-01T19:25:38.000Z</time>
      </trkpt>
      <trkpt lat="43.98606" lon="5.79641">
        <ele>551.9</ele>
        <time>2000-01-01T19:25:48.000Z</time>
      </trkpt>
      <trkpt lat="43.98608" lon="5.79638">
        <ele>553</ele>
        <time>2000-01-01T19:25:58.000Z</time>
      </trkpt>
      <trkpt lat="43.9861" lon="5.79631">
        <ele>552.9</ele>
        <time>2000-01-01T19:26:08.000Z</time>
      </trkpt>
      <trkpt lat="43.9861" lon="5.79627">
        <ele>553.3</ele>
        <time>2000-01-01T19:26:18.000Z</time>
      </trkpt>
      <trkpt lat="43.98611" lon="5.79624">
        <ele>553.6</ele>
        <time>2000-01-01T19:26:28.000Z</time>
      </trkpt>
      <trkpt lat="43.98611" lon="5.7962">
        <ele>554</ele>
        <time>2000-01-01T19:26:38.000Z</time>
      </trkpt>
      <trkpt lat="43.98609" lon="5.79612">
        <ele>556</ele>
        <time>2000-01-01T19:26:48.000Z</time>
      </trkpt>
      <trkpt lat="43.98609" lon="5.79609">
        <ele>555.4</ele>
        <time>2000-01-01T19:26:58.000Z</time>
      </trkpt>
      <trkpt lat="43.98606" lon="5.79602">
        <ele>556.5</ele>
        <time>2000-01-01T19:27:08.000Z</time>
      </trkpt>
      <trkpt lat="43.98604" lon="5.79599">
        <ele>557</ele>
        <time>2000-01-01T19:27:18.000Z</time>
      </trkpt>
      <trkpt lat="43.98599" lon="5.79595">
        <ele>557.8</ele>
        <time>2000-01-01T19:27:28.000Z</time>
      </trkpt>
      <trkpt lat="43.98592" lon="5.79587">
        <ele>559</ele>
        <time>2000-01-01T19:27:38.000Z</time>
      </trkpt>
      <trkpt lat="43.9859" lon="5.7958">
        <ele>560</ele>
        <time>2000-01-01T19:27:48.000Z</time>
      </trkpt>
      <trkpt lat="43.98588" lon="5.79577">
        <ele>560.3</ele>
        <time>2000-01-01T19:27:58.000Z</time>
      </trkpt>
      <trkpt lat="43.98588" lon="5.79574">
        <ele>560.6</ele>
        <time>2000-01-01T19:28:08.000Z</time>
      </trkpt>
      <trkpt lat="43.98584" lon="5.7956">
        <ele>562</ele>
        <time>2000-01-01T19:28:18.000Z</time>
      </trkpt>
      <trkpt lat="43.98584" lon="5.79556">
        <ele>562</ele>
        <time>2000-01-01T19:28:28.000Z</time>
      </trkpt>
      <trkpt lat="43.98582" lon="5.79548">
        <ele>562.4</ele>
        <time>2000-01-01T19:28:38.000Z</time>
      </trkpt>
      <trkpt lat="43.98582" lon="5.79544">
        <ele>562.7</ele>
        <time>2000-01-01T19:28:48.000Z</time>
      </trkpt>
      <trkpt lat="43.9858" lon="5.7953">
        <ele>563</ele>
        <time>2000-01-01T19:28:58.000Z</time>
      </trkpt>
      <trkpt lat="43.9858" lon="5.79517">
        <ele>564.3</ele>
        <time>2000-01-01T19:29:08.000Z</time>
      </trkpt>
      <trkpt lat="43.98584" lon="5.795">
        <ele>566</ele>
        <time>2000-01-01T19:29:18.000Z</time>
      </trkpt>
      <trkpt lat="43.98584" lon="5.79484">
        <ele>567.2</ele>
        <time>2000-01-01T19:29:28.000Z</time>
      </trkpt>
      <trkpt lat="43.98586" lon="5.79475">
        <ele>567.9</ele>
        <time>2000-01-01T19:29:38.000Z</time>
      </trkpt>
      <trkpt lat="43.98586" lon="5.79471">
        <ele>567</ele>
        <time>2000-01-01T19:29:48.000Z</time>
      </trkpt>
      <trkpt lat="43.98587" lon="5.79467">
        <ele>568.5</ele>
        <time>2000-01-01T19:29:58.000Z</time>
      </trkpt>
      <trkpt lat="43.98587" lon="5.79451">
        <ele>569.7</ele>
        <time>2000-01-01T19:30:08.000Z</time>
      </trkpt>
      <trkpt lat="43.98586" lon="5.79446">
        <ele>570</ele>
        <time>2000-01-01T19:30:18.000Z</time>
      </trkpt>
      <trkpt lat="43.98586" lon="5.79437">
        <ele>570</ele>
        <time>2000-01-01T19:30:28.000Z</time>
      </trkpt>
      <trkpt lat="43.98583" lon="5.79425">
        <ele>571.4</ele>
        <time>2000-01-01T19:30:38.000Z</time>
      </trkpt>
      <trkpt lat="43.98581" lon="5.79422">
        <ele>571.4</ele>
        <time>2000-01-01T19:30:48.000Z</time>
      </trkpt>
      <trkpt lat="43.98578" lon="5.79419">
        <ele>571.4</ele>
        <time>2000-01-01T19:30:58.000Z</time>
      </trkpt>
      <trkpt lat="43.98574" lon="5.79412">
        <ele>570</ele>
        <time>2000-01-01T19:31:08.000Z</time>
      </trkpt>
      <trkpt lat="43.98572" lon="5.7941">
        <ele>571.7</ele>
        <time>2000-01-01T19:31:18.000Z</time>
      </trkpt>
      <trkpt lat="43.98561" lon="5.7941">
        <ele>570.9</ele>
        <time>2000-01-01T19:31:28.000Z</time>
      </trkpt>
      <trkpt lat="43.98554" lon="5.79413">
        <ele>570</ele>
        <time>2000-01-01T19:31:38.000Z</time>
      </trkpt>
      <trkpt lat="43.98549" lon="5.79414">
        <ele>570.1</ele>
        <time>2000-01-01T19:31:48.000Z</time>
      </trkpt>
      <trkpt lat="43.98544" lon="5.79414">
        <ele>570.1</ele>
        <time>2000-01-01T19:31:58.000Z</time>
      </trkpt>
      <trkpt lat="43.98535" lon="5.79408">
        <ele>569</ele>
        <time>2000-01-01T19:32:08.000Z</time>
      </trkpt>
      <trkpt lat="43.98514" lon="5.794">
        <ele>566</ele>
        <time>2000-01-01T19:32:18.000Z</time>
      </trkpt>
      <trkpt lat="43.98505" lon="5.79401">
        <ele>565</ele>
        <time>2000-01-01T19:32:28.000Z</time>
      </trkpt>
      <trkpt lat="43.98501" lon="5.79404">
        <ele>564.2</ele>
        <time>2000-01-01T19:32:38.000Z</time>
      </trkpt>
      <trkpt lat="43.98495" lon="5.79405">
        <ele>561</ele>
        <time>2000-01-01T19:32:48.000Z</time>
      </trkpt>
      <trkpt lat="43.98483" lon="5.79405">
        <ele>560.3</ele>
        <time>2000-01-01T19:32:58.000Z</time>
      </trkpt>
      <trkpt lat="43.98477" lon="5.79407">
        <ele>559</ele>
        <time>2000-01-01T19:33:08.000Z</time>
      </trkpt>
      <trkpt lat="43.98464" lon="5.79409">
        <ele>555</ele>
        <time>2000-01-01T19:33:18.000Z</time>
      </trkpt>
      <trkpt lat="43.98444" lon="5.7941">
        <ele>551</ele>
        <time>2000-01-01T19:33:28.000Z</time>
      </trkpt>
      <trkpt lat="43.98436" lon="5.79407">
        <ele>552</ele>
        <time>2000-01-01T19:33:38.000Z</time>
      </trkpt>
      <trkpt lat="43.98431" lon="5.79402">
        <ele>550.8</ele>
        <time>2000-01-01T19:33:48.000Z</time>
      </trkpt>
      <trkpt lat="43.98428" lon="5.79384">
        <ele>547</ele>
        <time>2000-01-01T19:33:58.000Z</time>
      </trkpt>
      <trkpt lat="43.98428" lon="5.79365">
        <ele>548.4</ele>
        <time>2000-01-01T19:34:08.000Z</time>
      </trkpt>
      <trkpt lat="43.98429" lon="5.79357">
        <ele>545</ele>
        <time>2000-01-01T19:34:18.000Z</time>
      </trkpt>
      <trkpt lat="43.98429" lon="5.79307">
        <ele>543</ele>
        <time>2000-01-01T19:34:28.000Z</time>
      </trkpt>
      <trkpt lat="43.98428" lon="5.793">
        <ele>544.8</ele>
        <time>2000-01-01T19:34:38.000Z</time>
      </trkpt>
      <trkpt lat="43.98421" lon="5.79277">
        <ele>541</ele>
        <time>2000-01-01T19:34:48.000Z</time>
      </trkpt>
      <trkpt lat="43.98419" lon="5.79268">
        <ele>541.2</ele>
        <time>2000-01-01T19:34:58.000Z</time>
      </trkpt>
      <trkpt lat="43.98418" lon="5.7926">
        <ele>540.7</ele>
        <time>2000-01-01T19:35:08.000Z</time>
      </trkpt>
      <trkpt lat="43.98414" lon="5.79245">
        <ele>538</ele>
        <time>2000-01-01T19:35:18.000Z</time>
      </trkpt>
      <trkpt lat="43.98412" lon="5.7924">
        <ele>539.3</ele>
        <time>2000-01-01T19:35:28.000Z</time>
      </trkpt>
      <trkpt lat="43.98405" lon="5.79227">
        <ele>538.6</ele>
        <time>2000-01-01T19:35:38.000Z</time>
      </trkpt>
      <trkpt lat="43.98404" lon="5.79223">
        <ele>538.6</ele>
        <time>2000-01-01T19:35:48.000Z</time>
      </trkpt>
      <trkpt lat="43.98405" lon="5.79215">
        <ele>534</ele>
        <time>2000-01-01T19:35:58.000Z</time>
      </trkpt>
      <trkpt lat="43.98417" lon="5.79193">
        <ele>533</ele>
        <time>2000-01-01T19:36:08.000Z</time>
      </trkpt>
      <trkpt lat="43.98419" lon="5.79185">
        <ele>535.5</ele>
        <time>2000-01-01T19:36:18.000Z</time>
      </trkpt>
      <trkpt lat="43.98419" lon="5.79178">
        <ele>535.4</ele>
        <time>2000-01-01T19:36:28.000Z</time>
      </trkpt>
      <trkpt lat="43.98417" lon="5.79164">
        <ele>533</ele>
        <time>2000-01-01T19:36:38.000Z</time>
      </trkpt>
      <trkpt lat="43.98417" lon="5.79156">
        <ele>534.3</ele>
        <time>2000-01-01T19:36:48.000Z</time>
      </trkpt>
      <trkpt lat="43.98426" lon="5.79137">
        <ele>532</ele>
        <time>2000-01-01T19:36:58.000Z</time>
      </trkpt>
      <trkpt lat="43.98427" lon="5.7913">
        <ele>532.4</ele>
        <time>2000-01-01T19:37:08.000Z</time>
      </trkpt>
      <trkpt lat="43.98425" lon="5.79123">
        <ele>531.8</ele>
        <time>2000-01-01T19:37:18.000Z</time>
      </trkpt>
      <trkpt lat="43.98422" lon="5.79116">
        <ele>531</ele>
        <time>2000-01-01T19:37:28.000Z</time>
      </trkpt>
      <trkpt lat="43.98417" lon="5.79109">
        <ele>529</ele>
        <time>2000-01-01T19:37:38.000Z</time>
      </trkpt>
      <trkpt lat="43.98411" lon="5.79105">
        <ele>530.1</ele>
        <time>2000-01-01T19:37:48.000Z</time>
      </trkpt>
      <trkpt lat="43.98405" lon="5.79103">
        <ele>529.7</ele>
        <time>2000-01-01T19:37:58.000Z</time>
      </trkpt>
      <trkpt lat="43.98398" lon="5.79102">
        <ele>528</ele>
        <time>2000-01-01T19:38:08.000Z</time>
      </trkpt>
      <trkpt lat="43.98392" lon="5.79099">
        <ele>528.4</ele>
        <time>2000-01-01T19:38:18.000Z</time>
      </trkpt>
      <trkpt lat="43.98386" lon="5.79095">
        <ele>527.8</ele>
        <time>2000-01-01T19:38:28.000Z</time>
      </trkpt>
      <trkpt lat="43.98381" lon="5.79089">
        <ele>526</ele>
        <time>2000-01-01T19:38:38.000Z</time>
      </trkpt>
      <trkpt lat="43.98376" lon="5.79082">
        <ele>527.1</ele>
        <time>2000-01-01T19:38:48.000Z</time>
      </trkpt>
      <trkpt lat="43.9837" lon="5.79066">
        <ele>526</ele>
        <time>2000-01-01T19:38:58.000Z</time>
      </trkpt>
      <trkpt lat="43.98365" lon="5.79047">
        <ele>525.7</ele>
        <time>2000-01-01T19:39:08.000Z</time>
      </trkpt>
      <trkpt lat="43.9836" lon="5.79039">
        <ele>526</ele>
        <time>2000-01-01T19:39:18.000Z</time>
      </trkpt>
      <trkpt lat="43.98356" lon="5.7904">
        <ele>525.4</ele>
        <time>2000-01-01T19:39:28.000Z</time>
      </trkpt>
      <trkpt lat="43.9835" lon="5.79044">
        <ele>524.9</ele>
        <time>2000-01-01T19:39:38.000Z</time>
      </trkpt>
      <trkpt lat="43.98344" lon="5.79047">
        <ele>524.5</ele>
        <time>2000-01-01T19:39:48.000Z</time>
      </trkpt>
      <trkpt lat="43.98332" lon="5.79051">
        <ele>525</ele>
        <time>2000-01-01T19:39:58.000Z</time>
      </trkpt>
      <trkpt lat="43.98326" lon="5.79054">
        <ele>523.4</ele>
        <time>2000-01-01T19:40:08.000Z</time>
      </trkpt>
      <trkpt lat="43.98317" lon="5.79063">
        <ele>523.5</ele>
        <time>2000-01-01T19:40:18.000Z</time>
      </trkpt>
      <trkpt lat="43.98313" lon="5.79069">
        <ele>524</ele>
        <time>2000-01-01T19:40:28.000Z</time>
      </trkpt>
      <trkpt lat="43.98305" lon="5.79079">
        <ele>523.2</ele>
        <time>2000-01-01T19:40:38.000Z</time>
      </trkpt>
      <trkpt lat="43.98289" lon="5.79088">
        <ele>524</ele>
        <time>2000-01-01T19:40:48.000Z</time>
      </trkpt>
      <trkpt lat="43.98282" lon="5.79091">
        <ele>524.1</ele>
        <time>2000-01-01T19:40:58.000Z</time>
      </trkpt>
      <trkpt lat="43.98262" lon="5.79096">
        <ele>525</ele>
        <time>2000-01-01T19:41:08.000Z</time>
      </trkpt>
      <trkpt lat="43.98253" lon="5.79096">
        <ele>524.6</ele>
        <time>2000-01-01T19:41:18.000Z</time>
      </trkpt>
      <trkpt lat="43.98249" lon="5.79097">
        <ele>524.6</ele>
        <time>2000-01-01T19:41:28.000Z</time>
      </trkpt>
      <trkpt lat="43.98242" lon="5.79097">
        <ele>526</ele>
        <time>2000-01-01T19:41:38.000Z</time>
      </trkpt>
      <trkpt lat="43.98239" lon="5.79098">
        <ele>525.2</ele>
        <time>2000-01-01T19:41:48.000Z</time>
      </trkpt>
      <trkpt lat="43.98226" lon="5.79098">
        <ele>526.1</ele>
        <time>2000-01-01T19:41:58.000Z</time>
      </trkpt>
      <trkpt lat="43.98223" lon="5.79097">
        <ele>526.5</ele>
        <time>2000-01-01T19:42:08.000Z</time>
      </trkpt>
      <trkpt lat="43.98216" lon="5.79097">
        <ele>526</ele>
        <time>2000-01-01T19:42:18.000Z</time>
      </trkpt>
      <trkpt lat="43.98213" lon="5.79096">
        <ele>526.4</ele>
        <time>2000-01-01T19:42:28.000Z</time>
      </trkpt>
      <trkpt lat="43.98207" lon="5.79096">
        <ele>526.1</ele>
        <time>2000-01-01T19:42:38.000Z</time>
      </trkpt>
      <trkpt lat="43.98205" lon="5.79095">
        <ele>526.2</ele>
        <time>2000-01-01T19:42:48.000Z</time>
      </trkpt>
      <trkpt lat="43.98191" lon="5.79094">
        <ele>526</ele>
        <time>2000-01-01T19:42:58.000Z</time>
      </trkpt>
      <trkpt lat="43.98189" lon="5.79093">
        <ele>525.9</ele>
        <time>2000-01-01T19:43:08.000Z</time>
      </trkpt>
      <trkpt lat="43.98187" lon="5.7909">
        <ele>526.2</ele>
        <time>2000-01-01T19:43:18.000Z</time>
      </trkpt>
      <trkpt lat="43.98185" lon="5.79083">
        <ele>527.1</ele>
        <time>2000-01-01T19:43:28.000Z</time>
      </trkpt>
      <trkpt lat="43.98183" lon="5.7908">
        <ele>527.7</ele>
        <time>2000-01-01T19:43:38.000Z</time>
      </trkpt>
      <trkpt lat="43.98173" lon="5.79072">
        <ele>529</ele>
        <time>2000-01-01T19:43:48.000Z</time>
      </trkpt>
      <trkpt lat="43.9817" lon="5.79064">
        <ele>530.6</ele>
        <time>2000-01-01T19:43:58.000Z</time>
      </trkpt>
      <trkpt lat="43.9817" lon="5.79058">
        <ele>531.7</ele>
        <time>2000-01-01T19:44:08.000Z</time>
      </trkpt>
      <trkpt lat="43.98174" lon="5.79047">
        <ele>533</ele>
        <time>2000-01-01T19:44:18.000Z</time>
      </trkpt>
      <trkpt lat="43.98182" lon="5.79035">
        <ele>536.3</ele>
        <time>2000-01-01T19:44:28.000Z</time>
      </trkpt>
      <trkpt lat="43.98184" lon="5.7903">
        <ele>537.2</ele>
        <time>2000-01-01T19:44:38.000Z</time>
      </trkpt>
      <trkpt lat="43.98184" lon="5.79027">
        <ele>537.8</ele>
        <time>2000-01-01T19:44:48.000Z</time>
      </trkpt>
      <trkpt lat="43.98185" lon="5.79025">
        <ele>539</ele>
        <time>2000-01-01T19:44:58.000Z</time>
      </trkpt>
      <trkpt lat="43.98184" lon="5.79022">
        <ele>538.9</ele>
        <time>2000-01-01T19:45:08.000Z</time>
      </trkpt>
      <trkpt lat="43.98184" lon="5.79013">
        <ele>540.9</ele>
        <time>2000-01-01T19:45:18.000Z</time>
      </trkpt>
      <trkpt lat="43.98186" lon="5.79007">
        <ele>542.1</ele>
        <time>2000-01-01T19:45:28.000Z</time>
      </trkpt>
      <trkpt lat="43.98188" lon="5.79005">
        <ele>542.4</ele>
        <time>2000-01-01T19:45:38.000Z</time>
      </trkpt>
      <trkpt lat="43.98199" lon="5.78988">
        <ele>545</ele>
        <time>2000-01-01T19:45:48.000Z</time>
      </trkpt>
      <trkpt lat="43.982" lon="5.78985">
        <ele>544.7</ele>
        <time>2000-01-01T19:45:58.000Z</time>
      </trkpt>
      <trkpt lat="43.98204" lon="5.78981">
        <ele>544.9</ele>
        <time>2000-01-01T19:46:08.000Z</time>
      </trkpt>
      <trkpt lat="43.9821" lon="5.78972">
        <ele>545.9</ele>
        <time>2000-01-01T19:46:18.000Z</time>
      </trkpt>
      <trkpt lat="43.98212" lon="5.78964">
        <ele>547</ele>
        <time>2000-01-01T19:46:28.000Z</time>
      </trkpt>
      <trkpt lat="43.98212" lon="5.78957">
        <ele>546</ele>
        <time>2000-01-01T19:46:38.000Z</time>
      </trkpt>
      <trkpt lat="43.98207" lon="5.78941">
        <ele>547.1</ele>
        <time>2000-01-01T19:46:48.000Z</time>
      </trkpt>
      <trkpt lat="43.98205" lon="5.78939">
        <ele>551</ele>
        <time>2000-01-01T19:46:58.000Z</time>
      </trkpt>
      <trkpt lat="43.98203" lon="5.78939">
        <ele>547.9</ele>
        <time>2000-01-01T19:47:08.000Z</time>
      </trkpt>
      <trkpt lat="43.98194" lon="5.78935">
        <ele>550.1</ele>
        <time>2000-01-01T19:47:18.000Z</time>
      </trkpt>
      <trkpt lat="43.98184" lon="5.78925">
        <ele>554</ele>
        <time>2000-01-01T19:47:28.000Z</time>
      </trkpt>
      <trkpt lat="43.98177" lon="5.78916">
        <ele>554.4</ele>
        <time>2000-01-01T19:47:38.000Z</time>
      </trkpt>
      <trkpt lat="43.98172" lon="5.78903">
        <ele>558</ele>
        <time>2000-01-01T19:47:48.000Z</time>
      </trkpt>
      <trkpt lat="43.9817" lon="5.78901">
        <ele>556.9</ele>
        <time>2000-01-01T19:47:58.000Z</time>
      </trkpt>
      <trkpt lat="43.98163" lon="5.78897">
        <ele>559.2</ele>
        <time>2000-01-01T19:48:08.000Z</time>
      </trkpt>
      <trkpt lat="43.9816" lon="5.78892">
        <ele>560.4</ele>
        <time>2000-01-01T19:48:18.000Z</time>
      </trkpt>
      <trkpt lat="43.98155" lon="5.78891">
        <ele>563</ele>
        <time>2000-01-01T19:48:28.000Z</time>
      </trkpt>
      <trkpt lat="43.98151" lon="5.78889">
        <ele>562.9</ele>
        <time>2000-01-01T19:48:38.000Z</time>
      </trkpt>
      <trkpt lat="43.98142" lon="5.78889">
        <ele>565.2</ele>
        <time>2000-01-01T19:48:48.000Z</time>
      </trkpt>
      <trkpt lat="43.9814" lon="5.7889">
        <ele>565.5</ele>
        <time>2000-01-01T19:48:58.000Z</time>
      </trkpt>
      <trkpt lat="43.98135" lon="5.7889">
        <ele>570</ele>
        <time>2000-01-01T19:49:08.000Z</time>
      </trkpt>
      <trkpt lat="43.9813" lon="5.78892">
        <ele>568.2</ele>
        <time>2000-01-01T19:49:18.000Z</time>
      </trkpt>
      <trkpt lat="43.98128" lon="5.78892">
        <ele>568.9</ele>
        <time>2000-01-01T19:49:28.000Z</time>
      </trkpt>
      <trkpt lat="43.98122" lon="5.78895">
        <ele>570.1</ele>
        <time>2000-01-01T19:49:38.000Z</time>
      </trkpt>
      <trkpt lat="43.9812" lon="5.78897">
        <ele>570.3</ele>
        <time>2000-01-01T19:49:48.000Z</time>
      </trkpt>
      <trkpt lat="43.98113" lon="5.78898">
        <ele>575</ele>
        <time>2000-01-01T19:49:58.000Z</time>
      </trkpt>
      <trkpt lat="43.98111" lon="5.78899">
        <ele>572.5</ele>
        <time>2000-01-01T19:50:08.000Z</time>
      </trkpt>
      <trkpt lat="43.98099" lon="5.78908">
        <ele>575.6</ele>
        <time>2000-01-01T19:50:18.000Z</time>
      </trkpt>
      <trkpt lat="43.98091" lon="5.78919">
        <ele>579</ele>
        <time>2000-01-01T19:50:28.000Z</time>
      </trkpt>
      <trkpt lat="43.98085" lon="5.78925">
        <ele>578.5</ele>
        <time>2000-01-01T19:50:38.000Z</time>
      </trkpt>
      <trkpt lat="43.98075" lon="5.78932">
        <ele>579.5</ele>
        <time>2000-01-01T19:50:48.000Z</time>
      </trkpt>
      <trkpt lat="43.98068" lon="5.78935">
        <ele>583</ele>
        <time>2000-01-01T19:50:58.000Z</time>
      </trkpt>
      <trkpt lat="43.98063" lon="5.78938">
        <ele>580.8</ele>
        <time>2000-01-01T19:51:08.000Z</time>
      </trkpt>
      <trkpt lat="43.9806" lon="5.78938">
        <ele>581.4</ele>
        <time>2000-01-01T19:51:18.000Z</time>
      </trkpt>
      <trkpt lat="43.98055" lon="5.7894">
        <ele>582.2</ele>
        <time>2000-01-01T19:51:28.000Z</time>
      </trkpt>
      <trkpt lat="43.98053" lon="5.78943">
        <ele>582.5</ele>
        <time>2000-01-01T19:51:38.000Z</time>
      </trkpt>
      <trkpt lat="43.98052" lon="5.78946">
        <ele>582.4</ele>
        <time>2000-01-01T19:51:48.000Z</time>
      </trkpt>
      <trkpt lat="43.98048" lon="5.7895">
        <ele>589</ele>
        <time>2000-01-01T19:51:58.000Z</time>
      </trkpt>
      <trkpt lat="43.98044" lon="5.78952">
        <ele>585</ele>
        <time>2000-01-01T19:52:08.000Z</time>
      </trkpt>
      <trkpt lat="43.9804" lon="5.78956">
        <ele>585.9</ele>
        <time>2000-01-01T19:52:18.000Z</time>
      </trkpt>
      <trkpt lat="43.98036" lon="5.78958">
        <ele>587.2</ele>
        <time>2000-01-01T19:52:28.000Z</time>
      </trkpt>
      <trkpt lat="43.9803" lon="5.78963">
        <ele>594</ele>
        <time>2000-01-01T19:52:38.000Z</time>
      </trkpt>
      <trkpt lat="43.98025" lon="5.78966">
        <ele>589.6</ele>
        <time>2000-01-01T19:52:48.000Z</time>
      </trkpt>
      <trkpt lat="43.98024" lon="5.78968">
        <ele>589.5</ele>
        <time>2000-01-01T19:52:58.000Z</time>
      </trkpt>
      <trkpt lat="43.98017" lon="5.78971">
        <ele>591.5</ele>
        <time>2000-01-01T19:53:08.000Z</time>
      </trkpt>
      <trkpt lat="43.98015" lon="5.78971">
        <ele>592.3</ele>
        <time>2000-01-01T19:53:18.000Z</time>
      </trkpt>
      <trkpt lat="43.98013" lon="5.78973">
        <ele>592.7</ele>
        <time>2000-01-01T19:53:28.000Z</time>
      </trkpt>
      <trkpt lat="43.98009" lon="5.78975">
        <ele>598</ele>
        <time>2000-01-01T19:53:38.000Z</time>
      </trkpt>
      <trkpt lat="43.98005" lon="5.78978">
        <ele>594.7</ele>
        <time>2000-01-01T19:53:48.000Z</time>
      </trkpt>
      <trkpt lat="43.97997" lon="5.78986">
        <ele>595.3</ele>
        <time>2000-01-01T19:53:58.000Z</time>
      </trkpt>
      <trkpt lat="43.97993" lon="5.78988">
        <ele>595.4</ele>
        <time>2000-01-01T19:54:08.000Z</time>
      </trkpt>
      <trkpt lat="43.97985" lon="5.7899">
        <ele>597</ele>
        <time>2000-01-01T19:54:18.000Z</time>
      </trkpt>
      <trkpt lat="43.97983" lon="5.78988">
        <ele>596.6</ele>
        <time>2000-01-01T19:54:28.000Z</time>
      </trkpt>
      <trkpt lat="43.97981" lon="5.78988">
        <ele>596.8</ele>
        <time>2000-01-01T19:54:38.000Z</time>
      </trkpt>
      <trkpt lat="43.97969" lon="5.78984">
        <ele>598</ele>
        <time>2000-01-01T19:54:48.000Z</time>
      </trkpt>
      <trkpt lat="43.97966" lon="5.78982">
        <ele>597</ele>
        <time>2000-01-01T19:54:58.000Z</time>
      </trkpt>
      <trkpt lat="43.97962" lon="5.78982">
        <ele>597.9</ele>
        <time>2000-01-01T19:55:08.000Z</time>
      </trkpt>
      <trkpt lat="43.97959" lon="5.78981">
        <ele>597.9</ele>
        <time>2000-01-01T19:55:18.000Z</time>
      </trkpt>
      <trkpt lat="43.9795" lon="5.7898">
        <ele>597.6</ele>
        <time>2000-01-01T19:55:28.000Z</time>
      </trkpt>
      <trkpt lat="43.97949" lon="5.78979">
        <ele>597.7</ele>
        <time>2000-01-01T19:55:38.000Z</time>
      </trkpt>
      <trkpt lat="43.97938" lon="5.78976">
        <ele>597</ele>
        <time>2000-01-01T19:55:48.000Z</time>
      </trkpt>
      <trkpt lat="43.97935" lon="5.78974">
        <ele>597.2</ele>
        <time>2000-01-01T19:55:58.000Z</time>
      </trkpt>
      <trkpt lat="43.97934" lon="5.7897">
        <ele>597.4</ele>
        <time>2000-01-01T19:56:08.000Z</time>
      </trkpt>
      <trkpt lat="43.97934" lon="5.78965">
        <ele>597.8</ele>
        <time>2000-01-01T19:56:18.000Z</time>
      </trkpt>
      <trkpt lat="43.97935" lon="5.78962">
        <ele>598.1</ele>
        <time>2000-01-01T19:56:28.000Z</time>
      </trkpt>
      <trkpt lat="43.97937" lon="5.78959">
        <ele>598.4</ele>
        <time>2000-01-01T19:56:38.000Z</time>
      </trkpt>
      <trkpt lat="43.9794" lon="5.78958">
        <ele>598.7</ele>
        <time>2000-01-01T19:56:48.000Z</time>
      </trkpt>
      <trkpt lat="43.97945" lon="5.78954">
        <ele>598</ele>
        <time>2000-01-01T19:56:58.000Z</time>
      </trkpt>
      <trkpt lat="43.97949" lon="5.78949">
        <ele>600</ele>
        <time>2000-01-01T19:57:08.000Z</time>
      </trkpt>
      <trkpt lat="43.97953" lon="5.7894">
        <ele>600.9</ele>
        <time>2000-01-01T19:57:18.000Z</time>
      </trkpt>
      <trkpt lat="43.97955" lon="5.78932">
        <ele>601.7</ele>
        <time>2000-01-01T19:57:28.000Z</time>
      </trkpt>
      <trkpt lat="43.97957" lon="5.78928">
        <ele>602</ele>
        <time>2000-01-01T19:57:38.000Z</time>
      </trkpt>
      <trkpt lat="43.9796" lon="5.78916">
        <ele>603.2</ele>
        <time>2000-01-01T19:57:48.000Z</time>
      </trkpt>
      <trkpt lat="43.9796" lon="5.78912">
        <ele>603.5</ele>
        <time>2000-01-01T19:57:58.000Z</time>
      </trkpt>
      <trkpt lat="43.97961" lon="5.78908">
        <ele>603.8</ele>
        <time>2000-01-01T19:58:08.000Z</time>
      </trkpt>
      <trkpt lat="43.97961" lon="5.78904">
        <ele>604.1</ele>
        <time>2000-01-01T19:58:18.000Z</time>
      </trkpt>
      <trkpt lat="43.97962" lon="5.789">
        <ele>604</ele>
        <time>2000-01-01T19:58:28.000Z</time>
      </trkpt>
      <trkpt lat="43.97962" lon="5.78896">
        <ele>604.8</ele>
        <time>2000-01-01T19:58:38.000Z</time>
      </trkpt>
      <trkpt lat="43.97963" lon="5.78892">
        <ele>605.1</ele>
        <time>2000-01-01T19:58:48.000Z</time>
      </trkpt>
      <trkpt lat="43.97963" lon="5.7888">
        <ele>605.9</ele>
        <time>2000-01-01T19:58:58.000Z</time>
      </trkpt>
      <trkpt lat="43.97964" lon="5.78876">
        <ele>606.2</ele>
        <time>2000-01-01T19:59:08.000Z</time>
      </trkpt>
      <trkpt lat="43.97964" lon="5.78863">
        <ele>606</ele>
        <time>2000-01-01T19:59:18.000Z</time>
      </trkpt>
      <trkpt lat="43.97965" lon="5.78859">
        <ele>607.4</ele>
        <time>2000-01-01T19:59:28.000Z</time>
      </trkpt>
      <trkpt lat="43.97965" lon="5.78855">
        <ele>607.7</ele>
        <time>2000-01-01T19:59:38.000Z</time>
      </trkpt>
      <trkpt lat="43.97968" lon="5.78843">
        <ele>608.8</ele>
        <time>2000-01-01T19:59:48.000Z</time>
      </trkpt>
      <trkpt lat="43.97968" lon="5.78838">
        <ele>609.2</ele>
        <time>2000-01-01T19:59:58.000Z</time>
      </trkpt>
      <trkpt lat="43.97969" lon="5.78834">
        <ele>609</ele>
        <time>2000-01-01T20:00:08.000Z</time>
      </trkpt>
      <trkpt lat="43.97969" lon="5.78794">
        <ele>611</ele>
        <time>2000-01-01T20:00:18.000Z</time>
      </trkpt>
      <trkpt lat="43.97968" lon="5.7879">
        <ele>612.1</ele>
        <time>2000-01-01T20:00:28.000Z</time>
      </trkpt>
      <trkpt lat="43.97968" lon="5.78785">
        <ele>612.3</ele>
        <time>2000-01-01T20:00:38.000Z</time>
      </trkpt>
      <trkpt lat="43.97967" lon="5.78781">
        <ele>612.3</ele>
        <time>2000-01-01T20:00:48.000Z</time>
      </trkpt>
      <trkpt lat="43.97967" lon="5.78772">
        <ele>612.9</ele>
        <time>2000-01-01T20:00:58.000Z</time>
      </trkpt>
      <trkpt lat="43.97971" lon="5.78757">
        <ele>614</ele>
        <time>2000-01-01T20:01:08.000Z</time>
      </trkpt>
      <trkpt lat="43.97972" lon="5.78754">
        <ele>614.7</ele>
        <time>2000-01-01T20:01:18.000Z</time>
      </trkpt>
      <trkpt lat="43.97974" lon="5.78751">
        <ele>615.2</ele>
        <time>2000-01-01T20:01:28.000Z</time>
      </trkpt>
      <trkpt lat="43.97979" lon="5.78749">
        <ele>616.1</ele>
        <time>2000-01-01T20:01:38.000Z</time>
      </trkpt>
      <trkpt lat="43.97981" lon="5.78747">
        <ele>616.5</ele>
        <time>2000-01-01T20:01:48.000Z</time>
      </trkpt>
      <trkpt lat="43.97984" lon="5.78746">
        <ele>617</ele>
        <time>2000-01-01T20:01:58.000Z</time>
      </trkpt>
      <trkpt lat="43.97986" lon="5.78744">
        <ele>617.5</ele>
        <time>2000-01-01T20:02:08.000Z</time>
      </trkpt>
      <trkpt lat="43.97992" lon="5.78733">
        <ele>619</ele>
        <time>2000-01-01T20:02:18.000Z</time>
      </trkpt>
      <trkpt lat="43.97993" lon="5.78729">
        <ele>620.1</ele>
        <time>2000-01-01T20:02:28.000Z</time>
      </trkpt>
      <trkpt lat="43.97996" lon="5.78724">
        <ele>621.1</ele>
        <time>2000-01-01T20:02:38.000Z</time>
      </trkpt>
      <trkpt lat="43.97999" lon="5.78716">
        <ele>622.1</ele>
        <time>2000-01-01T20:02:48.000Z</time>
      </trkpt>
      <trkpt lat="43.98001" lon="5.78713">
        <ele>622.5</ele>
        <time>2000-01-01T20:02:58.000Z</time>
      </trkpt>
      <trkpt lat="43.98004" lon="5.78706">
        <ele>623</ele>
        <time>2000-01-01T20:03:08.000Z</time>
      </trkpt>
      <trkpt lat="43.98009" lon="5.78691">
        <ele>624.8</ele>
        <time>2000-01-01T20:03:18.000Z</time>
      </trkpt>
      <trkpt lat="43.98014" lon="5.78682">
        <ele>625</ele>
        <time>2000-01-01T20:03:28.000Z</time>
      </trkpt>
      <trkpt lat="43.98015" lon="5.78679">
        <ele>626.5</ele>
        <time>2000-01-01T20:03:38.000Z</time>
      </trkpt>
      <trkpt lat="43.98021" lon="5.7867">
        <ele>627.9</ele>
        <time>2000-01-01T20:03:48.000Z</time>
      </trkpt>
      <trkpt lat="43.98022" lon="5.78667">
        <ele>628.2</ele>
        <time>2000-01-01T20:03:58.000Z</time>
      </trkpt>
      <trkpt lat="43.98024" lon="5.78664">
        <ele>628.6</ele>
        <time>2000-01-01T20:04:08.000Z</time>
      </trkpt>
      <trkpt lat="43.98026" lon="5.78657">
        <ele>627</ele>
        <time>2000-01-01T20:04:18.000Z</time>
      </trkpt>
      <trkpt lat="43.9803" lon="5.7865">
        <ele>629.4</ele>
        <time>2000-01-01T20:04:28.000Z</time>
      </trkpt>
      <trkpt lat="43.98033" lon="5.78639">
        <ele>629.6</ele>
        <time>2000-01-01T20:04:38.000Z</time>
      </trkpt>
      <trkpt lat="43.98034" lon="5.78636">
        <ele>629.8</ele>
        <time>2000-01-01T20:04:48.000Z</time>
      </trkpt>
      <trkpt lat="43.98036" lon="5.78633">
        <ele>630</ele>
        <time>2000-01-01T20:04:58.000Z</time>
      </trkpt>
      <trkpt lat="43.9804" lon="5.78619">
        <ele>630.6</ele>
        <time>2000-01-01T20:05:08.000Z</time>
      </trkpt>
      <trkpt lat="43.9804" lon="5.78616">
        <ele>630.8</ele>
        <time>2000-01-01T20:05:18.000Z</time>
      </trkpt>
      <trkpt lat="43.98043" lon="5.78604">
        <ele>634</ele>
        <time>2000-01-01T20:05:28.000Z</time>
      </trkpt>
      <trkpt lat="43.98043" lon="5.78601">
        <ele>630.9</ele>
        <time>2000-01-01T20:05:38.000Z</time>
      </trkpt>
      <trkpt lat="43.98041" lon="5.78597">
        <ele>631.1</ele>
        <time>2000-01-01T20:05:48.000Z</time>
      </trkpt>
      <trkpt lat="43.9804" lon="5.78593">
        <ele>631.2</ele>
        <time>2000-01-01T20:05:58.000Z</time>
      </trkpt>
      <trkpt lat="43.9804" lon="5.78581">
        <ele>631.3</ele>
        <time>2000-01-01T20:06:08.000Z</time>
      </trkpt>
      <trkpt lat="43.98041" lon="5.78577">
        <ele>635</ele>
        <time>2000-01-01T20:06:18.000Z</time>
      </trkpt>
      <trkpt lat="43.98041" lon="5.78569">
        <ele>631.6</ele>
        <time>2000-01-01T20:06:28.000Z</time>
      </trkpt>
      <trkpt lat="43.98042" lon="5.78564">
        <ele>631.6</ele>
        <time>2000-01-01T20:06:38.000Z</time>
      </trkpt>
      <trkpt lat="43.98042" lon="5.78556">
        <ele>631.9</ele>
        <time>2000-01-01T20:06:48.000Z</time>
      </trkpt>
      <trkpt lat="43.98041" lon="5.78551">
        <ele>632.4</ele>
        <time>2000-01-01T20:06:58.000Z</time>
      </trkpt>
      <trkpt lat="43.98041" lon="5.78543">
        <ele>636</ele>
        <time>2000-01-01T20:07:08.000Z</time>
      </trkpt>
      <trkpt lat="43.98042" lon="5.78538">
        <ele>632.9</ele>
        <time>2000-01-01T20:07:18.000Z</time>
      </trkpt>
      <trkpt lat="43.98042" lon="5.78534">
        <ele>633.1</ele>
        <time>2000-01-01T20:07:28.000Z</time>
      </trkpt>
      <trkpt lat="43.98041" lon="5.78529">
        <ele>633.6</ele>
        <time>2000-01-01T20:07:38.000Z</time>
      </trkpt>
      <trkpt lat="43.98041" lon="5.78516">
        <ele>638</ele>
        <time>2000-01-01T20:07:48.000Z</time>
      </trkpt>
      <trkpt lat="43.98037" lon="5.78509">
        <ele>636.3</ele>
        <time>2000-01-01T20:07:58.000Z</time>
      </trkpt>
      <trkpt lat="43.98035" lon="5.78502">
        <ele>637.7</ele>
        <time>2000-01-01T20:08:08.000Z</time>
      </trkpt>
      <trkpt lat="43.98033" lon="5.78498">
        <ele>638.8</ele>
        <time>2000-01-01T20:08:18.000Z</time>
      </trkpt>
      <trkpt lat="43.98033" lon="5.7849">
        <ele>641</ele>
        <time>2000-01-01T20:08:28.000Z</time>
      </trkpt>
      <trkpt lat="43.98032" lon="5.78487">
        <ele>639.8</ele>
        <time>2000-01-01T20:08:38.000Z</time>
      </trkpt>
      <trkpt lat="43.9803" lon="5.78484">
        <ele>641</ele>
        <time>2000-01-01T20:08:48.000Z</time>
      </trkpt>
      <trkpt lat="43.9803" lon="5.78481">
        <ele>641.2</ele>
        <time>2000-01-01T20:08:58.000Z</time>
      </trkpt>
      <trkpt lat="43.98028" lon="5.78476">
        <ele>642.6</ele>
        <time>2000-01-01T20:09:08.000Z</time>
      </trkpt>
      <trkpt lat="43.98026" lon="5.78465">
        <ele>643</ele>
        <time>2000-01-01T20:09:18.000Z</time>
      </trkpt>
      <trkpt lat="43.98023" lon="5.78459">
        <ele>643.4</ele>
        <time>2000-01-01T20:09:28.000Z</time>
      </trkpt>
      <trkpt lat="43.98022" lon="5.78454">
        <ele>643.5</ele>
        <time>2000-01-01T20:09:38.000Z</time>
      </trkpt>
      <trkpt lat="43.9802" lon="5.78451">
        <ele>644</ele>
        <time>2000-01-01T20:09:48.000Z</time>
      </trkpt>
      <trkpt lat="43.98018" lon="5.78444">
        <ele>644.4</ele>
        <time>2000-01-01T20:09:58.000Z</time>
      </trkpt>
      <trkpt lat="43.98014" lon="5.78435">
        <ele>646</ele>
        <time>2000-01-01T20:10:08.000Z</time>
      </trkpt>
      <trkpt lat="43.98012" lon="5.78432">
        <ele>644.8</ele>
        <time>2000-01-01T20:10:18.000Z</time>
      </trkpt>
      <trkpt lat="43.98003" lon="5.78423">
        <ele>648</ele>
        <time>2000-01-01T20:10:28.000Z</time>
      </trkpt>
      <trkpt lat="43.98001" lon="5.7842">
        <ele>648.7</ele>
        <time>2000-01-01T20:10:38.000Z</time>
      </trkpt>
      <trkpt lat="43.97998" lon="5.7841">
        <ele>651</ele>
        <time>2000-01-01T20:10:48.000Z</time>
      </trkpt>
      <trkpt lat="43.97996" lon="5.78407">
        <ele>647.9</ele>
        <time>2000-01-01T20:10:58.000Z</time>
      </trkpt>
      <trkpt lat="43.97994" lon="5.78399">
        <ele>647.1</ele>
        <time>2000-01-01T20:11:08.000Z</time>
      </trkpt>
      <trkpt lat="43.97992" lon="5.78396">
        <ele>647.1</ele>
        <time>2000-01-01T20:11:18.000Z</time>
      </trkpt>
      <trkpt lat="43.97989" lon="5.78385">
        <ele>651</ele>
        <time>2000-01-01T20:11:28.000Z</time>
      </trkpt>
      <trkpt lat="43.97985" lon="5.7838">
        <ele>648.2</ele>
        <time>2000-01-01T20:11:38.000Z</time>
      </trkpt>
      <trkpt lat="43.97982" lon="5.78375">
        <ele>649.2</ele>
        <time>2000-01-01T20:11:48.000Z</time>
      </trkpt>
      <trkpt lat="43.97979" lon="5.78372">
        <ele>650.2</ele>
        <time>2000-01-01T20:11:58.000Z</time>
      </trkpt>
      <trkpt lat="43.97977" lon="5.78368">
        <ele>651</ele>
        <time>2000-01-01T20:12:08.000Z</time>
      </trkpt>
      <trkpt lat="43.97976" lon="5.78364">
        <ele>652</ele>
        <time>2000-01-01T20:12:18.000Z</time>
      </trkpt>
      <trkpt lat="43.97977" lon="5.7836">
        <ele>651.7</ele>
        <time>2000-01-01T20:12:28.000Z</time>
      </trkpt>
      <trkpt lat="43.97977" lon="5.78332">
        <ele>656</ele>
        <time>2000-01-01T20:12:38.000Z</time>
      </trkpt>
      <trkpt lat="43.97976" lon="5.78328">
        <ele>654.8</ele>
        <time>2000-01-01T20:12:48.000Z</time>
      </trkpt>
      <trkpt lat="43.97976" lon="5.7832">
        <ele>655.2</ele>
        <time>2000-01-01T20:12:58.000Z</time>
      </trkpt>
      <trkpt lat="43.97974" lon="5.78312">
        <ele>656.2</ele>
        <time>2000-01-01T20:13:08.000Z</time>
      </trkpt>
      <trkpt lat="43.97972" lon="5.78308">
        <ele>656.9</ele>
        <time>2000-01-01T20:13:18.000Z</time>
      </trkpt>
      <trkpt lat="43.97972" lon="5.78299">
        <ele>657</ele>
        <time>2000-01-01T20:13:28.000Z</time>
      </trkpt>
      <trkpt lat="43.97971" lon="5.78295">
        <ele>657.5</ele>
        <time>2000-01-01T20:13:38.000Z</time>
      </trkpt>
      <trkpt lat="43.97971" lon="5.78278">
        <ele>658.1</ele>
        <time>2000-01-01T20:13:48.000Z</time>
      </trkpt>
      <trkpt lat="43.9797" lon="5.78274">
        <ele>658.5</ele>
        <time>2000-01-01T20:13:58.000Z</time>
      </trkpt>
      <trkpt lat="43.97971" lon="5.78261">
        <ele>659</ele>
        <time>2000-01-01T20:14:08.000Z</time>
      </trkpt>
      <trkpt lat="43.97972" lon="5.78257">
        <ele>659.5</ele>
        <time>2000-01-01T20:14:18.000Z</time>
      </trkpt>
      <trkpt lat="43.97976" lon="5.78251">
        <ele>660.5</ele>
        <time>2000-01-01T20:14:28.000Z</time>
      </trkpt>
      <trkpt lat="43.97977" lon="5.78248">
        <ele>660.9</ele>
        <time>2000-01-01T20:14:38.000Z</time>
      </trkpt>
      <trkpt lat="43.97986" lon="5.7824">
        <ele>662</ele>
        <time>2000-01-01T20:14:48.000Z</time>
      </trkpt>
      <trkpt lat="43.97987" lon="5.78238">
        <ele>663.2</ele>
        <time>2000-01-01T20:14:58.000Z</time>
      </trkpt>
      <trkpt lat="43.97992" lon="5.78236">
        <ele>664</ele>
        <time>2000-01-01T20:15:08.000Z</time>
      </trkpt>
      <trkpt lat="43.97994" lon="5.78234">
        <ele>664.4</ele>
        <time>2000-01-01T20:15:18.000Z</time>
      </trkpt>
      <trkpt lat="43.98001" lon="5.7823">
        <ele>665.4</ele>
        <time>2000-01-01T20:15:28.000Z</time>
      </trkpt>
      <trkpt lat="43.98003" lon="5.78228">
        <ele>666</ele>
        <time>2000-01-01T20:15:38.000Z</time>
      </trkpt>
      <trkpt lat="43.98005" lon="5.78225">
        <ele>665.6</ele>
        <time>2000-01-01T20:15:48.000Z</time>
      </trkpt>
      <trkpt lat="43.98006" lon="5.78222">
        <ele>665.8</ele>
        <time>2000-01-01T20:15:58.000Z</time>
      </trkpt>
      <trkpt lat="43.98008" lon="5.7822">
        <ele>666.1</ele>
        <time>2000-01-01T20:16:08.000Z</time>
      </trkpt>
      <trkpt lat="43.9801" lon="5.78215">
        <ele>666.8</ele>
        <time>2000-01-01T20:16:18.000Z</time>
      </trkpt>
      <trkpt lat="43.98012" lon="5.78212">
        <ele>667.1</ele>
        <time>2000-01-01T20:16:28.000Z</time>
      </trkpt>
      <trkpt lat="43.98017" lon="5.78209">
        <ele>670</ele>
        <time>2000-01-01T20:16:38.000Z</time>
      </trkpt>
      <trkpt lat="43.98019" lon="5.78206">
        <ele>667.2</ele>
        <time>2000-01-01T20:16:48.000Z</time>
      </trkpt>
      <trkpt lat="43.9802" lon="5.78202">
        <ele>667.6</ele>
        <time>2000-01-01T20:16:58.000Z</time>
      </trkpt>
      <trkpt lat="43.9802" lon="5.78187">
        <ele>669.1</ele>
        <time>2000-01-01T20:17:08.000Z</time>
      </trkpt>
      <trkpt lat="43.98019" lon="5.78183">
        <ele>673</ele>
        <time>2000-01-01T20:17:18.000Z</time>
      </trkpt>
      <trkpt lat="43.98019" lon="5.78179">
        <ele>670.1</ele>
        <time>2000-01-01T20:17:28.000Z</time>
      </trkpt>
      <trkpt lat="43.9802" lon="5.78175">
        <ele>670.3</ele>
        <time>2000-01-01T20:17:38.000Z</time>
      </trkpt>
      <trkpt lat="43.9802" lon="5.78168">
        <ele>671</ele>
        <time>2000-01-01T20:17:48.000Z</time>
      </trkpt>
      <trkpt lat="43.98021" lon="5.78164">
        <ele>671.1</ele>
        <time>2000-01-01T20:17:58.000Z</time>
      </trkpt>
      <trkpt lat="43.98021" lon="5.78161">
        <ele>671.3</ele>
        <time>2000-01-01T20:18:08.000Z</time>
      </trkpt>
      <trkpt lat="43.9802" lon="5.78157">
        <ele>671.7</ele>
        <time>2000-01-01T20:18:18.000Z</time>
      </trkpt>
      <trkpt lat="43.9802" lon="5.7815">
        <ele>676</ele>
        <time>2000-01-01T20:18:28.000Z</time>
      </trkpt>
      <trkpt lat="43.98015" lon="5.78131">
        <ele>674.4</ele>
        <time>2000-01-01T20:18:38.000Z</time>
      </trkpt>
      <trkpt lat="43.98015" lon="5.78118">
        <ele>677</ele>
        <time>2000-01-01T20:18:48.000Z</time>
      </trkpt>
      <trkpt lat="43.98017" lon="5.78109">
        <ele>675.6</ele>
        <time>2000-01-01T20:18:58.000Z</time>
      </trkpt>
      <trkpt lat="43.98017" lon="5.78093">
        <ele>675.6</ele>
        <time>2000-01-01T20:19:08.000Z</time>
      </trkpt>
      <trkpt lat="43.98019" lon="5.78084">
        <ele>678</ele>
        <time>2000-01-01T20:19:18.000Z</time>
      </trkpt>
      <trkpt lat="43.98019" lon="5.78072">
        <ele>676.1</ele>
        <time>2000-01-01T20:19:28.000Z</time>
      </trkpt>
      <trkpt lat="43.98021" lon="5.78068">
        <ele>676.2</ele>
        <time>2000-01-01T20:19:38.000Z</time>
      </trkpt>
      <trkpt lat="43.98023" lon="5.7806">
        <ele>676.8</ele>
        <time>2000-01-01T20:19:48.000Z</time>
      </trkpt>
      <trkpt lat="43.98023" lon="5.78052">
        <ele>679</ele>
        <time>2000-01-01T20:19:58.000Z</time>
      </trkpt>
      <trkpt lat="43.98021" lon="5.78044">
        <ele>679</ele>
        <time>2000-01-01T20:20:08.000Z</time>
      </trkpt>
      <trkpt lat="43.98028" lon="5.78018">
        <ele>684</ele>
        <time>2000-01-01T20:20:18.000Z</time>
      </trkpt>
      <trkpt lat="43.98028" lon="5.78014">
        <ele>682.4</ele>
        <time>2000-01-01T20:20:28.000Z</time>
      </trkpt>
      <trkpt lat="43.98027" lon="5.7801">
        <ele>683</ele>
        <time>2000-01-01T20:20:38.000Z</time>
      </trkpt>
      <trkpt lat="43.98027" lon="5.78003">
        <ele>683.8</ele>
        <time>2000-01-01T20:20:48.000Z</time>
      </trkpt>
      <trkpt lat="43.98028" lon="5.77999">
        <ele>683.9</ele>
        <time>2000-01-01T20:20:58.000Z</time>
      </trkpt>
      <trkpt lat="43.98028" lon="5.77995">
        <ele>684.1</ele>
        <time>2000-01-01T20:21:08.000Z</time>
      </trkpt>
      <trkpt lat="43.98027" lon="5.77991">
        <ele>687</ele>
        <time>2000-01-01T20:21:18.000Z</time>
      </trkpt>
      <trkpt lat="43.98027" lon="5.77987">
        <ele>684.6</ele>
        <time>2000-01-01T20:21:28.000Z</time>
      </trkpt>
      <trkpt lat="43.98026" lon="5.77983">
        <ele>684.9</ele>
        <time>2000-01-01T20:21:38.000Z</time>
      </trkpt>
      <trkpt lat="43.98026" lon="5.77979">
        <ele>685.1</ele>
        <time>2000-01-01T20:21:48.000Z</time>
      </trkpt>
      <trkpt lat="43.98027" lon="5.77975">
        <ele>685</ele>
        <time>2000-01-01T20:21:58.000Z</time>
      </trkpt>
      <trkpt lat="43.98027" lon="5.7791">
        <ele>694</ele>
        <time>2000-01-01T20:22:08.000Z</time>
      </trkpt>
      <trkpt lat="43.98029" lon="5.77896">
        <ele>689.8</ele>
        <time>2000-01-01T20:22:18.000Z</time>
      </trkpt>
      <trkpt lat="43.98029" lon="5.77874">
        <ele>694</ele>
        <time>2000-01-01T20:22:28.000Z</time>
      </trkpt>
      <trkpt lat="43.98028" lon="5.7787">
        <ele>691.6</ele>
        <time>2000-01-01T20:22:38.000Z</time>
      </trkpt>
      <trkpt lat="43.98028" lon="5.77857">
        <ele>691.9</ele>
        <time>2000-01-01T20:22:48.000Z</time>
      </trkpt>
      <trkpt lat="43.98029" lon="5.77852">
        <ele>691.5</ele>
        <time>2000-01-01T20:22:58.000Z</time>
      </trkpt>
      <trkpt lat="43.98028" lon="5.77848">
        <ele>691.9</ele>
        <time>2000-01-01T20:23:08.000Z</time>
      </trkpt>
      <trkpt lat="43.98026" lon="5.77844">
        <ele>692</ele>
        <time>2000-01-01T20:23:18.000Z</time>
      </trkpt>
      <trkpt lat="43.98021" lon="5.7784">
        <ele>692.1</ele>
        <time>2000-01-01T20:23:28.000Z</time>
      </trkpt>
      <trkpt lat="43.98002" lon="5.77832">
        <ele>691</ele>
        <time>2000-01-01T20:23:38.000Z</time>
      </trkpt>
      <trkpt lat="43.97996" lon="5.77831">
        <ele>691.4</ele>
        <time>2000-01-01T20:23:48.000Z</time>
      </trkpt>
      <trkpt lat="43.97991" lon="5.77828">
        <ele>690.6</ele>
        <time>2000-01-01T20:23:58.000Z</time>
      </trkpt>
      <trkpt lat="43.97965" lon="5.77818">
        <ele>686</ele>
        <time>2000-01-01T20:24:08.000Z</time>
      </trkpt>
      <trkpt lat="43.97961" lon="5.77817">
        <ele>686.6</ele>
        <time>2000-01-01T20:24:18.000Z</time>
      </trkpt>
      <trkpt lat="43.97959" lon="5.77815">
        <ele>686.6</ele>
        <time>2000-01-01T20:24:28.000Z</time>
      </trkpt>
      <trkpt lat="43.97954" lon="5.77815">
        <ele>685.9</ele>
        <time>2000-01-01T20:24:38.000Z</time>
      </trkpt>
      <trkpt lat="43.9795" lon="5.77817">
        <ele>685.1</ele>
        <time>2000-01-01T20:24:48.000Z</time>
      </trkpt>
      <trkpt lat="43.97945" lon="5.77818">
        <ele>685</ele>
        <time>2000-01-01T20:24:58.000Z</time>
      </trkpt>
      <trkpt lat="43.9794" lon="5.77818">
        <ele>684</ele>
        <time>2000-01-01T20:25:08.000Z</time>
      </trkpt>
      <trkpt lat="43.97925" lon="5.77821">
        <ele>682</ele>
        <time>2000-01-01T20:25:18.000Z</time>
      </trkpt>
      <trkpt lat="43.97913" lon="5.77827">
        <ele>681.3</ele>
        <time>2000-01-01T20:25:28.000Z</time>
      </trkpt>
      <trkpt lat="43.97909" lon="5.77828">
        <ele>680.8</ele>
        <time>2000-01-01T20:25:38.000Z</time>
      </trkpt>
      <trkpt lat="43.97905" lon="5.7783">
        <ele>680</ele>
        <time>2000-01-01T20:25:48.000Z</time>
      </trkpt>
      <trkpt lat="43.97902" lon="5.77834">
        <ele>679.3</ele>
        <time>2000-01-01T20:25:58.000Z</time>
      </trkpt>
      <trkpt lat="43.97898" lon="5.77837">
        <ele>678.3</ele>
        <time>2000-01-01T20:26:08.000Z</time>
      </trkpt>
      <trkpt lat="43.97894" lon="5.77839">
        <ele>677.6</ele>
        <time>2000-01-01T20:26:18.000Z</time>
      </trkpt>
      <trkpt lat="43.97888" lon="5.7784">
        <ele>677</ele>
        <time>2000-01-01T20:26:28.000Z</time>
      </trkpt>
      <trkpt lat="43.97878" lon="5.77844">
        <ele>675</ele>
        <time>2000-01-01T20:26:38.000Z</time>
      </trkpt>
      <trkpt lat="43.97875" lon="5.77844">
        <ele>676.2</ele>
        <time>2000-01-01T20:26:48.000Z</time>
      </trkpt>
      <trkpt lat="43.9787" lon="5.77846">
        <ele>675.8</ele>
        <time>2000-01-01T20:26:58.000Z</time>
      </trkpt>
      <trkpt lat="43.97862" lon="5.77855">
        <ele>674.7</ele>
        <time>2000-01-01T20:27:08.000Z</time>
      </trkpt>
      <trkpt lat="43.97858" lon="5.77861">
        <ele>674</ele>
        <time>2000-01-01T20:27:18.000Z</time>
      </trkpt>
      <trkpt lat="43.97852" lon="5.77873">
        <ele>672.2</ele>
        <time>2000-01-01T20:27:28.000Z</time>
      </trkpt>
      <trkpt lat="43.97847" lon="5.77879">
        <ele>671.7</ele>
        <time>2000-01-01T20:27:38.000Z</time>
      </trkpt>
      <trkpt lat="43.97842" lon="5.77882">
        <ele>672</ele>
        <time>2000-01-01T20:27:48.000Z</time>
      </trkpt>
      <trkpt lat="43.97826" lon="5.77888">
        <ele>671.7</ele>
        <time>2000-01-01T20:27:58.000Z</time>
      </trkpt>
      <trkpt lat="43.97817" lon="5.77894">
        <ele>671</ele>
        <time>2000-01-01T20:28:08.000Z</time>
      </trkpt>
      <trkpt lat="43.97811" lon="5.77906">
        <ele>668.7</ele>
        <time>2000-01-01T20:28:18.000Z</time>
      </trkpt>
      <trkpt lat="43.97807" lon="5.77912">
        <ele>667.7</ele>
        <time>2000-01-01T20:28:28.000Z</time>
      </trkpt>
      <trkpt lat="43.97803" lon="5.77915">
        <ele>669</ele>
        <time>2000-01-01T20:28:38.000Z</time>
      </trkpt>
      <trkpt lat="43.97798" lon="5.77917">
        <ele>666.1</ele>
        <time>2000-01-01T20:28:48.000Z</time>
      </trkpt>
      <trkpt lat="43.97789" lon="5.77918">
        <ele>665.1</ele>
        <time>2000-01-01T20:28:58.000Z</time>
      </trkpt>
      <trkpt lat="43.97786" lon="5.77919">
        <ele>664.8</ele>
        <time>2000-01-01T20:29:08.000Z</time>
      </trkpt>
      <trkpt lat="43.97782" lon="5.77923">
        <ele>665</ele>
        <time>2000-01-01T20:29:18.000Z</time>
      </trkpt>
      <trkpt lat="43.97775" lon="5.77934">
        <ele>664.1</ele>
        <time>2000-01-01T20:29:28.000Z</time>
      </trkpt>
      <trkpt lat="43.97772" lon="5.7794">
        <ele>663.6</ele>
        <time>2000-01-01T20:29:38.000Z</time>
      </trkpt>
      <trkpt lat="43.9777" lon="5.77942">
        <ele>663.3</ele>
        <time>2000-01-01T20:29:48.000Z</time>
      </trkpt>
      <trkpt lat="43.9777" lon="5.77948">
        <ele>662</ele>
        <time>2000-01-01T20:29:58.000Z</time>
      </trkpt>
      <trkpt lat="43.97772" lon="5.77954">
        <ele>662.6</ele>
        <time>2000-01-01T20:30:08.000Z</time>
      </trkpt>
      <trkpt lat="43.97772" lon="5.77961">
        <ele>661.7</ele>
        <time>2000-01-01T20:30:18.000Z</time>
      </trkpt>
      <trkpt lat="43.9777" lon="5.77965">
        <ele>661</ele>
        <time>2000-01-01T20:30:28.000Z</time>
      </trkpt>
      <trkpt lat="43.97762" lon="5.77973">
        <ele>659</ele>
        <time>2000-01-01T20:30:38.000Z</time>
      </trkpt>
      <trkpt lat="43.9776" lon="5.77978">
        <ele>658.4</ele>
        <time>2000-01-01T20:30:48.000Z</time>
      </trkpt>
      <trkpt lat="43.97759" lon="5.77986">
        <ele>657.5</ele>
        <time>2000-01-01T20:30:58.000Z</time>
      </trkpt>
      <trkpt lat="43.97754" lon="5.77999">
        <ele>657</ele>
        <time>2000-01-01T20:31:08.000Z</time>
      </trkpt>
      <trkpt lat="43.9775" lon="5.78001">
        <ele>656.9</ele>
        <time>2000-01-01T20:31:18.000Z</time>
      </trkpt>
      <trkpt lat="43.97745" lon="5.78001">
        <ele>656.2</ele>
        <time>2000-01-01T20:31:28.000Z</time>
      </trkpt>
      <trkpt lat="43.97742" lon="5.78003">
        <ele>655.7</ele>
        <time>2000-01-01T20:31:38.000Z</time>
      </trkpt>
      <trkpt lat="43.97739" lon="5.78004">
        <ele>655.3</ele>
        <time>2000-01-01T20:31:48.000Z</time>
      </trkpt>
      <trkpt lat="43.97731" lon="5.78002">
        <ele>654</ele>
        <time>2000-01-01T20:31:58.000Z</time>
      </trkpt>
      <trkpt lat="43.97725" lon="5.77998">
        <ele>653.4</ele>
        <time>2000-01-01T20:32:08.000Z</time>
      </trkpt>
      <trkpt lat="43.97719" lon="5.77989">
        <ele>652.6</ele>
        <time>2000-01-01T20:32:18.000Z</time>
      </trkpt>
      <trkpt lat="43.97704" lon="5.77964">
        <ele>649</ele>
        <time>2000-01-01T20:32:28.000Z</time>
      </trkpt>
      <trkpt lat="43.97695" lon="5.77947">
        <ele>650</ele>
        <time>2000-01-01T20:32:38.000Z</time>
      </trkpt>
      <trkpt lat="43.97689" lon="5.77939">
        <ele>647</ele>
        <time>2000-01-01T20:32:48.000Z</time>
      </trkpt>
      <trkpt lat="43.9768" lon="5.77925">
        <ele>649.3</ele>
        <time>2000-01-01T20:32:58.000Z</time>
      </trkpt>
      <trkpt lat="43.97675" lon="5.77919">
        <ele>645</ele>
        <time>2000-01-01T20:33:08.000Z</time>
      </trkpt>
      <trkpt lat="43.97669" lon="5.77914">
        <ele>646.6</ele>
        <time>2000-01-01T20:33:18.000Z</time>
      </trkpt>
      <trkpt lat="43.97662" lon="5.77912">
        <ele>645.7</ele>
        <time>2000-01-01T20:33:28.000Z</time>
      </trkpt>
      <trkpt lat="43.97655" lon="5.77908">
        <ele>644</ele>
        <time>2000-01-01T20:33:38.000Z</time>
      </trkpt>
      <trkpt lat="43.97648" lon="5.77907">
        <ele>645.1</ele>
        <time>2000-01-01T20:33:48.000Z</time>
      </trkpt>
      <trkpt lat="43.97625" lon="5.779">
        <ele>643</ele>
        <time>2000-01-01T20:33:58.000Z</time>
      </trkpt>
      <trkpt lat="43.97606" lon="5.77856">
        <ele>638</ele>
        <time>2000-01-01T20:34:08.000Z</time>
      </trkpt>
      <trkpt lat="43.97619" lon="5.77826">
        <ele>639</ele>
        <time>2000-01-01T20:34:18.000Z</time>
      </trkpt>
      <trkpt lat="43.97634" lon="5.778">
        <ele>639</ele>
        <time>2000-01-01T20:34:28.000Z</time>
      </trkpt>
      <trkpt lat="43.97629" lon="5.77759">
        <ele>639</ele>
        <time>2000-01-01T20:34:38.000Z</time>
      </trkpt>
      <trkpt lat="43.97616" lon="5.77759">
        <ele>638.8</ele>
        <time>2000-01-01T20:34:48.000Z</time>
      </trkpt>
      <trkpt lat="43.97575" lon="5.77791">
        <ele>641</ele>
        <time>2000-01-01T20:34:58.000Z</time>
      </trkpt>
      <trkpt lat="43.97531" lon="5.77802">
        <ele>641</ele>
        <time>2000-01-01T20:35:08.000Z</time>
      </trkpt>
      <trkpt lat="43.97489" lon="5.77821">
        <ele>642</ele>
        <time>2000-01-01T20:35:18.000Z</time>
      </trkpt>
      <trkpt lat="43.97452" lon="5.77817">
        <ele>646</ele>
        <time>2000-01-01T20:35:28.000Z</time>
      </trkpt>
      <trkpt lat="43.9741" lon="5.77843">
        <ele>644</ele>
        <time>2000-01-01T20:35:38.000Z</time>
      </trkpt>
      <trkpt lat="43.97392" lon="5.77871">
        <ele>642</ele>
        <time>2000-01-01T20:35:48.000Z</time>
      </trkpt>
      <trkpt lat="43.97369" lon="5.77906">
        <ele>641</ele>
        <time>2000-01-01T20:35:58.000Z</time>
      </trkpt>
      <trkpt lat="43.97341" lon="5.77946">
        <ele>636</ele>
        <time>2000-01-01T20:36:08.000Z</time>
      </trkpt>
      <trkpt lat="43.97317" lon="5.77977">
        <ele>633</ele>
        <time>2000-01-01T20:36:18.000Z</time>
      </trkpt>
      <trkpt lat="43.97294" lon="5.78009">
        <ele>630</ele>
        <time>2000-01-01T20:36:28.000Z</time>
      </trkpt>
      <trkpt lat="43.97268" lon="5.78043">
        <ele>626</ele>
        <time>2000-01-01T20:36:38.000Z</time>
      </trkpt>
      <trkpt lat="43.97259" lon="5.78046">
        <ele>625.6</ele>
        <time>2000-01-01T20:36:48.000Z</time>
      </trkpt>
      <trkpt lat="43.97255" lon="5.78049">
        <ele>625.3</ele>
        <time>2000-01-01T20:36:58.000Z</time>
      </trkpt>
      <trkpt lat="43.97253" lon="5.78049">
        <ele>625.3</ele>
        <time>2000-01-01T20:37:08.000Z</time>
      </trkpt>
      <trkpt lat="43.97252" lon="5.78051">
        <ele>625.2</ele>
        <time>2000-01-01T20:37:18.000Z</time>
      </trkpt>
      <trkpt lat="43.97252" lon="5.78053">
        <ele>625.1</ele>
        <time>2000-01-01T20:37:28.000Z</time>
      </trkpt>
      <trkpt lat="43.97245" lon="5.78062">
        <ele>625</ele>
        <time>2000-01-01T20:37:38.000Z</time>
      </trkpt>
      <trkpt lat="43.97245" lon="5.78064">
        <ele>624.6</ele>
        <time>2000-01-01T20:37:48.000Z</time>
      </trkpt>
      <trkpt lat="43.97241" lon="5.78069">
        <ele>624.5</ele>
        <time>2000-01-01T20:37:58.000Z</time>
      </trkpt>
      <trkpt lat="43.97227" lon="5.78102">
        <ele>624</ele>
        <time>2000-01-01T20:38:08.000Z</time>
      </trkpt>
      <trkpt lat="43.972" lon="5.78111">
        <ele>623</ele>
        <time>2000-01-01T20:38:18.000Z</time>
      </trkpt>
      <trkpt lat="43.97164" lon="5.78122">
        <ele>620</ele>
        <time>2000-01-01T20:38:28.000Z</time>
      </trkpt>
      <trkpt lat="43.97138" lon="5.78138">
        <ele>615</ele>
        <time>2000-01-01T20:38:38.000Z</time>
      </trkpt>
      <trkpt lat="43.97102" lon="5.7816">
        <ele>608</ele>
        <time>2000-01-01T20:38:48.000Z</time>
      </trkpt>
      <trkpt lat="43.97061" lon="5.78186">
        <ele>598</ele>
        <time>2000-01-01T20:38:58.000Z</time>
      </trkpt>
      <trkpt lat="43.97035" lon="5.78203">
        <ele>593</ele>
        <time>2000-01-01T20:39:08.000Z</time>
      </trkpt>
      <trkpt lat="43.96998" lon="5.78228">
        <ele>585</ele>
        <time>2000-01-01T20:39:18.000Z</time>
      </trkpt>
      <trkpt lat="43.96967" lon="5.78247">
        <ele>581</ele>
        <time>2000-01-01T20:39:28.000Z</time>
      </trkpt>
      <trkpt lat="43.96929" lon="5.78272">
        <ele>578</ele>
        <time>2000-01-01T20:39:38.000Z</time>
      </trkpt>
      <trkpt lat="43.96903" lon="5.78282">
        <ele>576</ele>
        <time>2000-01-01T20:39:48.000Z</time>
      </trkpt>
      <trkpt lat="43.96871" lon="5.78294">
        <ele>573</ele>
        <time>2000-01-01T20:39:58.000Z</time>
      </trkpt>
      <trkpt lat="43.96837" lon="5.78306">
        <ele>570</ele>
        <time>2000-01-01T20:40:08.000Z</time>
      </trkpt>
      <trkpt lat="43.96811" lon="5.78317">
        <ele>570</ele>
        <time>2000-01-01T20:40:18.000Z</time>
      </trkpt>
      <trkpt lat="43.9678" lon="5.7833">
        <ele>566</ele>
        <time>2000-01-01T20:40:28.000Z</time>
      </trkpt>
      <trkpt lat="43.96752" lon="5.78331">
        <ele>566</ele>
        <time>2000-01-01T20:40:38.000Z</time>
      </trkpt>
      <trkpt lat="43.96715" lon="5.78332">
        <ele>560</ele>
        <time>2000-01-01T20:40:48.000Z</time>
      </trkpt>
      <trkpt lat="43.96685" lon="5.78319">
        <ele>559</ele>
        <time>2000-01-01T20:40:58.000Z</time>
      </trkpt>
      <trkpt lat="43.9666" lon="5.78312">
        <ele>559</ele>
        <time>2000-01-01T20:41:08.000Z</time>
      </trkpt>
      <trkpt lat="43.96635" lon="5.78312">
        <ele>559</ele>
        <time>2000-01-01T20:41:18.000Z</time>
      </trkpt>
      <trkpt lat="43.96609" lon="5.78329">
        <ele>561</ele>
        <time>2000-01-01T20:41:28.000Z</time>
      </trkpt>
      <trkpt lat="43.96595" lon="5.78342">
        <ele>559.2</ele>
        <time>2000-01-01T20:41:38.000Z</time>
      </trkpt>
      <trkpt lat="43.96547" lon="5.78368">
        <ele>564</ele>
        <time>2000-01-01T20:41:48.000Z</time>
      </trkpt>
      <trkpt lat="43.96515" lon="5.78389">
        <ele>563</ele>
        <time>2000-01-01T20:41:58.000Z</time>
      </trkpt>
      <trkpt lat="43.96475" lon="5.78383">
        <ele>562</ele>
        <time>2000-01-01T20:42:08.000Z</time>
      </trkpt>
      <trkpt lat="43.96451" lon="5.78368">
        <ele>562</ele>
        <time>2000-01-01T20:42:18.000Z</time>
      </trkpt>
      <trkpt lat="43.96422" lon="5.78352">
        <ele>558</ele>
        <time>2000-01-01T20:42:28.000Z</time>
      </trkpt>
      <trkpt lat="43.96391" lon="5.78346">
        <ele>558</ele>
        <time>2000-01-01T20:42:38.000Z</time>
      </trkpt>
      <trkpt lat="43.96351" lon="5.78325">
        <ele>554</ele>
        <time>2000-01-01T20:42:48.000Z</time>
      </trkpt>
      <trkpt lat="43.96337" lon="5.7832">
        <ele>552.9</ele>
        <time>2000-01-01T20:42:58.000Z</time>
      </trkpt>
      <trkpt lat="43.96324" lon="5.78303">
        <ele>551</ele>
        <time>2000-01-01T20:43:08.000Z</time>
      </trkpt>
      <trkpt lat="43.96286" lon="5.7828">
        <ele>550</ele>
        <time>2000-01-01T20:43:18.000Z</time>
      </trkpt>
      <trkpt lat="43.9625" lon="5.78267">
        <ele>547</ele>
        <time>2000-01-01T20:43:28.000Z</time>
      </trkpt>
      <trkpt lat="43.96229" lon="5.78253">
        <ele>545</ele>
        <time>2000-01-01T20:43:38.000Z</time>
      </trkpt>
      <trkpt lat="43.96204" lon="5.78227">
        <ele>544</ele>
        <time>2000-01-01T20:43:48.000Z</time>
      </trkpt>
      <trkpt lat="43.96195" lon="5.78207">
        <ele>545.6</ele>
        <time>2000-01-01T20:43:58.000Z</time>
      </trkpt>
      <trkpt lat="43.9616" lon="5.78166">
        <ele>544</ele>
        <time>2000-01-01T20:44:08.000Z</time>
      </trkpt>
      <trkpt lat="43.96143" lon="5.78147">
        <ele>544</ele>
        <time>2000-01-01T20:44:18.000Z</time>
      </trkpt>
      <trkpt lat="43.96121" lon="5.78133">
        <ele>544</ele>
        <time>2000-01-01T20:44:28.000Z</time>
      </trkpt>
      <trkpt lat="43.9609" lon="5.78107">
        <ele>544</ele>
        <time>2000-01-01T20:44:38.000Z</time>
      </trkpt>
      <trkpt lat="43.96066" lon="5.78072">
        <ele>545</ele>
        <time>2000-01-01T20:44:48.000Z</time>
      </trkpt>
      <trkpt lat="43.96061" lon="5.7806">
        <ele>545.3</ele>
        <time>2000-01-01T20:44:58.000Z</time>
      </trkpt>
      <trkpt lat="43.96074" lon="5.78029">
        <ele>545</ele>
        <time>2000-01-01T20:45:08.000Z</time>
      </trkpt>
      <trkpt lat="43.96083" lon="5.78011">
        <ele>545</ele>
        <time>2000-01-01T20:45:18.000Z</time>
      </trkpt>
    </trkseg>
  </trk>
</gpx>